<?xml version="1.0" encoding="UTF-8" standalone="no" ?>
<gpx xmlns="http://www.topografix.com/GPX/1/1" xmlns:xsi="http://www.w3.org/2001/XMLSchema-instance" xsi:schemaLocation="http://www.topografix.com/GPX/1/1 http://www.topografix.com/GPX/1/1/gpx.xsd" version="1.1" creator="VisuGPX - https://www.visugpx.com">
  <metadata>
    <name>Zagreb - Mignavillers</name>
  </metadata>
  <trk>
    <name><![CDATA[6_Bratislava à Munich_571km]]></name>
    <extensions>
      <line xmlns="http://www.topografix.com/GPX/gpx_style/0/2">
        <color>00FF00</color>
        <width>4</width>
      </line>
    </extensions>
    <trkseg>
      <trkpt lat="48.13928" lon="17.10433">
        <ele>138.744896</ele>
        <time>2022-09-11T12:39:10.811Z</time>
      </trkpt>
      <trkpt lat="48.13641" lon="17.1045">
        <ele>139.198536</ele>
        <time>2022-09-11T12:40:32.722Z</time>
      </trkpt>
      <trkpt lat="48.13641" lon="17.1046">
        <ele>139.158866</ele>
        <time>2022-09-11T12:40:34.246Z</time>
      </trkpt>
      <trkpt lat="48.13649" lon="17.1046">
        <ele>139.11117</ele>
        <time>2022-09-11T12:40:36.114Z</time>
      </trkpt>
      <trkpt lat="48.13648" lon="17.10448">
        <ele>139.062158</ele>
        <time>2022-09-11T12:40:37.958Z</time>
      </trkpt>
      <trkpt lat="48.13648" lon="17.10441">
        <ele>139.035595</ele>
        <time>2022-09-11T12:40:39.341Z</time>
      </trkpt>
      <trkpt lat="48.13652" lon="17.10441">
        <ele>139.005074</ele>
        <time>2022-09-11T12:40:40.774Z</time>
      </trkpt>
      <trkpt lat="48.13654" lon="17.1044">
        <ele>138.994475</ele>
        <time>2022-09-11T12:40:41.296Z</time>
      </trkpt>
      <trkpt lat="48.13634" lon="17.10243">
        <ele>138.163102</ele>
        <time>2022-09-11T12:41:12.914Z</time>
      </trkpt>
      <trkpt lat="48.13618" lon="17.10199">
        <ele>137.874379</ele>
        <time>2022-09-11T12:41:20.240Z</time>
      </trkpt>
      <trkpt lat="48.13611" lon="17.10173">
        <ele>137.719103</ele>
        <time>2022-09-11T12:41:24.240Z</time>
      </trkpt>
      <trkpt lat="48.13604" lon="17.10115">
        <ele>137.3829</ele>
        <time>2022-09-11T12:41:33.084Z</time>
      </trkpt>
      <trkpt lat="48.13608" lon="17.09994">
        <ele>136.692346</ele>
        <time>2022-09-11T12:41:53.086Z</time>
      </trkpt>
      <trkpt lat="48.13608" lon="17.09974">
        <ele>136.695998</ele>
        <time>2022-09-11T12:41:56.464Z</time>
      </trkpt>
      <trkpt lat="48.13612" lon="17.09805">
        <ele>137.127562</ele>
        <time>2022-09-11T12:42:27.312Z</time>
      </trkpt>
      <trkpt lat="48.13604" lon="17.09749">
        <ele>137.272822</ele>
        <time>2022-09-11T12:42:39.297Z</time>
      </trkpt>
      <trkpt lat="48.13576" lon="17.09636">
        <ele>137.812559</ele>
        <time>2022-09-11T12:43:05.698Z</time>
      </trkpt>
      <trkpt lat="48.13571" lon="17.09592">
        <ele>138.038576</ele>
        <time>2022-09-11T12:43:14.976Z</time>
      </trkpt>
      <trkpt lat="48.13567" lon="17.09516">
        <ele>138.425649</ele>
        <time>2022-09-11T12:43:30.378Z</time>
      </trkpt>
      <trkpt lat="48.13572" lon="17.09439">
        <ele>138.688613</ele>
        <time>2022-09-11T12:43:45.172Z</time>
      </trkpt>
      <trkpt lat="48.13739" lon="17.08482">
        <ele>137.43441</ele>
        <time>2022-09-11T12:46:33.987Z</time>
      </trkpt>
      <trkpt lat="48.13822" lon="17.0809">
        <ele>137.431549</ele>
        <time>2022-09-11T12:47:48.777Z</time>
      </trkpt>
      <trkpt lat="48.13853" lon="17.07936">
        <ele>137.226356</ele>
        <time>2022-09-11T12:48:15.829Z</time>
      </trkpt>
      <trkpt lat="48.1386" lon="17.0781">
        <ele>137.48748</ele>
        <time>2022-09-11T12:48:37.256Z</time>
      </trkpt>
      <trkpt lat="48.1385" lon="17.07691">
        <ele>137.900439</ele>
        <time>2022-09-11T12:49:01.034Z</time>
      </trkpt>
      <trkpt lat="48.13821" lon="17.07536">
        <ele>138.810688</ele>
        <time>2022-09-11T12:49:37.024Z</time>
      </trkpt>
      <trkpt lat="48.13811" lon="17.07487">
        <ele>139.167789</ele>
        <time>2022-09-11T12:49:48.180Z</time>
      </trkpt>
      <trkpt lat="48.13809" lon="17.0748">
        <ele>139.217945</ele>
        <time>2022-09-11T12:49:49.883Z</time>
      </trkpt>
      <trkpt lat="48.13793" lon="17.07436">
        <ele>139.569567</ele>
        <time>2022-09-11T12:50:01.040Z</time>
      </trkpt>
      <trkpt lat="48.13792" lon="17.07433">
        <ele>139.596203</ele>
        <time>2022-09-11T12:50:01.940Z</time>
      </trkpt>
      <trkpt lat="48.13787" lon="17.07427">
        <ele>139.658216</ele>
        <time>2022-09-11T12:50:03.810Z</time>
      </trkpt>
      <trkpt lat="48.13768" lon="17.07409">
        <ele>139.893041</ele>
        <time>2022-09-11T12:50:10.795Z</time>
      </trkpt>
      <trkpt lat="48.13747" lon="17.074">
        <ele>139.940418</ele>
        <time>2022-09-11T12:50:17.281Z</time>
      </trkpt>
      <trkpt lat="48.12792" lon="17.07377">
        <ele>137.254065</ele>
        <time>2022-09-11T12:54:18.956Z</time>
      </trkpt>
      <trkpt lat="48.12739" lon="17.07373">
        <ele>137.121474</ele>
        <time>2022-09-11T12:54:32.572Z</time>
      </trkpt>
      <trkpt lat="48.12672" lon="17.07358">
        <ele>136.968276</ele>
        <time>2022-09-11T12:54:49.853Z</time>
      </trkpt>
      <trkpt lat="48.12604" lon="17.07326">
        <ele>136.892672</ele>
        <time>2022-09-11T12:55:08.536Z</time>
      </trkpt>
      <trkpt lat="48.12551" lon="17.07288">
        <ele>136.83013</ele>
        <time>2022-09-11T12:55:24.119Z</time>
      </trkpt>
      <trkpt lat="48.12493" lon="17.07234">
        <ele>136.746264</ele>
        <time>2022-09-11T12:55:42.051Z</time>
      </trkpt>
      <trkpt lat="48.12461" lon="17.07195">
        <ele>136.686267</ele>
        <time>2022-09-11T12:55:52.848Z</time>
      </trkpt>
      <trkpt lat="48.12401" lon="17.07101">
        <ele>136.559261</ele>
        <time>2022-09-11T12:56:15.631Z</time>
      </trkpt>
      <trkpt lat="48.12337" lon="17.06949">
        <ele>136.432609</ele>
        <time>2022-09-11T12:56:46.413Z</time>
      </trkpt>
      <trkpt lat="48.12323" lon="17.06896">
        <ele>136.395934</ele>
        <time>2022-09-11T12:56:56.357Z</time>
      </trkpt>
      <trkpt lat="48.12306" lon="17.06804">
        <ele>136.413162</ele>
        <time>2022-09-11T12:57:13.404Z</time>
      </trkpt>
      <trkpt lat="48.12246" lon="17.0634">
        <ele>137.441906</ele>
        <time>2022-09-11T12:58:43.096Z</time>
      </trkpt>
      <trkpt lat="48.12243" lon="17.06247">
        <ele>137.56424</ele>
        <time>2022-09-11T12:59:00.577Z</time>
      </trkpt>
      <trkpt lat="48.12242" lon="17.06231">
        <ele>137.574423</ele>
        <time>2022-09-11T12:59:03.583Z</time>
      </trkpt>
      <trkpt lat="48.12242" lon="17.06217">
        <ele>137.582807</ele>
        <time>2022-09-11T12:59:06.136Z</time>
      </trkpt>
      <trkpt lat="48.12224" lon="17.05696">
        <ele>137.6265</ele>
        <time>2022-09-11T13:00:39.485Z</time>
      </trkpt>
      <trkpt lat="48.12195" lon="17.05635">
        <ele>137.558405</ele>
        <time>2022-09-11T13:00:52.230Z</time>
      </trkpt>
      <trkpt lat="48.12194" lon="17.05622">
        <ele>137.546151</ele>
        <time>2022-09-11T13:00:54.442Z</time>
      </trkpt>
      <trkpt lat="48.12187" lon="17.05548">
        <ele>137.47793</ele>
        <time>2022-09-11T13:01:07.100Z</time>
      </trkpt>
      <trkpt lat="48.12162" lon="17.04916">
        <ele>136.708412</ele>
        <time>2022-09-11T13:02:56.244Z</time>
      </trkpt>
      <trkpt lat="48.1216" lon="17.0484">
        <ele>136.70543</ele>
        <time>2022-09-11T13:03:09.877Z</time>
      </trkpt>
      <trkpt lat="48.12169" lon="17.04707">
        <ele>136.700172</ele>
        <time>2022-09-11T13:03:34.011Z</time>
      </trkpt>
      <trkpt lat="48.122" lon="17.04562">
        <ele>136.702194</ele>
        <time>2022-09-11T13:04:01.336Z</time>
      </trkpt>
      <trkpt lat="48.12224" lon="17.04478">
        <ele>136.703557</ele>
        <time>2022-09-11T13:04:17.566Z</time>
      </trkpt>
      <trkpt lat="48.12251" lon="17.04407">
        <ele>136.716668</ele>
        <time>2022-09-11T13:04:31.876Z</time>
      </trkpt>
      <trkpt lat="48.12343" lon="17.04117">
        <ele>136.810161</ele>
        <time>2022-09-11T13:05:29.668Z</time>
      </trkpt>
      <trkpt lat="48.12364" lon="17.04062">
        <ele>136.834777</ele>
        <time>2022-09-11T13:05:41.123Z</time>
      </trkpt>
      <trkpt lat="48.12498" lon="17.03639">
        <ele>136.875965</ele>
        <time>2022-09-11T13:07:04.272Z</time>
      </trkpt>
      <trkpt lat="48.12525" lon="17.03569">
        <ele>136.92272</ele>
        <time>2022-09-11T13:07:18.879Z</time>
      </trkpt>
      <trkpt lat="48.12542" lon="17.03505">
        <ele>136.962439</ele>
        <time>2022-09-11T13:07:31.418Z</time>
      </trkpt>
      <trkpt lat="48.12699" lon="17.03026">
        <ele>138.269847</ele>
        <time>2022-09-11T13:09:12.323Z</time>
      </trkpt>
      <trkpt lat="48.12916" lon="17.0236">
        <ele>142.568396</ele>
        <time>2022-09-11T13:11:45.649Z</time>
      </trkpt>
      <trkpt lat="48.12968" lon="17.02248">
        <ele>143.246603</ele>
        <time>2022-09-11T13:12:13.823Z</time>
      </trkpt>
      <trkpt lat="48.13034" lon="17.02143">
        <ele>143.641419</ele>
        <time>2022-09-11T13:12:42.485Z</time>
      </trkpt>
      <trkpt lat="48.13044" lon="17.02138">
        <ele>143.687056</ele>
        <time>2022-09-11T13:12:45.227Z</time>
      </trkpt>
      <trkpt lat="48.13072" lon="17.02146">
        <ele>143.802102</ele>
        <time>2022-09-11T13:12:53.560Z</time>
      </trkpt>
      <trkpt lat="48.1314" lon="17.02033">
        <ele>143.734247</ele>
        <time>2022-09-11T13:13:20.546Z</time>
      </trkpt>
      <trkpt lat="48.13264" lon="17.01749">
        <ele>143.794073</ele>
        <time>2022-09-11T13:14:22.395Z</time>
      </trkpt>
      <trkpt lat="48.1331" lon="17.01682">
        <ele>144.084486</ele>
        <time>2022-09-11T13:14:42.234Z</time>
      </trkpt>
      <trkpt lat="48.13345" lon="17.016">
        <ele>144.996367</ele>
        <time>2022-09-11T13:15:03.838Z</time>
      </trkpt>
      <trkpt lat="48.13339" lon="17.0159">
        <ele>145.125551</ele>
        <time>2022-09-11T13:15:07.140Z</time>
      </trkpt>
      <trkpt lat="48.13336" lon="17.01586">
        <ele>145.184994</ele>
        <time>2022-09-11T13:15:08.782Z</time>
      </trkpt>
      <trkpt lat="48.13379" lon="17.01502">
        <ele>146.177463</ele>
        <time>2022-09-11T13:15:33.329Z</time>
      </trkpt>
      <trkpt lat="48.13392" lon="17.01456">
        <ele>146.593412</ele>
        <time>2022-09-11T13:15:45.226Z</time>
      </trkpt>
      <trkpt lat="48.134" lon="17.01412">
        <ele>146.927073</ele>
        <time>2022-09-11T13:15:56.169Z</time>
      </trkpt>
      <trkpt lat="48.13404" lon="17.01386">
        <ele>147.119089</ele>
        <time>2022-09-11T13:16:02.485Z</time>
      </trkpt>
      <trkpt lat="48.13435" lon="17.01249">
        <ele>148.179</ele>
        <time>2022-09-11T13:16:32.518Z</time>
      </trkpt>
      <trkpt lat="48.13461" lon="17.01181">
        <ele>148.269704</ele>
        <time>2022-09-11T13:16:47.042Z</time>
      </trkpt>
      <trkpt lat="48.13479" lon="17.01147">
        <ele>148.181427</ele>
        <time>2022-09-11T13:16:54.080Z</time>
      </trkpt>
      <trkpt lat="48.1357" lon="17.0098">
        <ele>147.846257</ele>
        <time>2022-09-11T13:17:29.100Z</time>
      </trkpt>
      <trkpt lat="48.13593" lon="17.00927">
        <ele>147.889676</ele>
        <time>2022-09-11T13:17:40.080Z</time>
      </trkpt>
      <trkpt lat="48.13647" lon="17.00799">
        <ele>147.992882</ele>
        <time>2022-09-11T13:18:08.779Z</time>
      </trkpt>
      <trkpt lat="48.13663" lon="17.00763">
        <ele>148.025479</ele>
        <time>2022-09-11T13:18:17.340Z</time>
      </trkpt>
      <trkpt lat="48.13678" lon="17.00713">
        <ele>148.069109</ele>
        <time>2022-09-11T13:18:28.290Z</time>
      </trkpt>
      <trkpt lat="48.13688" lon="17.00669">
        <ele>148.106049</ele>
        <time>2022-09-11T13:18:37.312Z</time>
      </trkpt>
      <trkpt lat="48.13703" lon="17.00602">
        <ele>148.162074</ele>
        <time>2022-09-11T13:18:50.173Z</time>
      </trkpt>
      <trkpt lat="48.13719" lon="17.00536">
        <ele>148.210648</ele>
        <time>2022-09-11T13:19:01.827Z</time>
      </trkpt>
      <trkpt lat="48.13761" lon="17.00408">
        <ele>147.62036</ele>
        <time>2022-09-11T13:19:24.278Z</time>
      </trkpt>
      <trkpt lat="48.13768" lon="17.00378">
        <ele>147.491841</ele>
        <time>2022-09-11T13:19:29.190Z</time>
      </trkpt>
      <trkpt lat="48.13776" lon="17.00316">
        <ele>147.229662</ele>
        <time>2022-09-11T13:19:39.543Z</time>
      </trkpt>
      <trkpt lat="48.13782" lon="17.00269">
        <ele>147.101544</ele>
        <time>2022-09-11T13:19:47.448Z</time>
      </trkpt>
      <trkpt lat="48.13792" lon="17.00109">
        <ele>147.064122</ele>
        <time>2022-09-11T13:20:15.739Z</time>
      </trkpt>
      <trkpt lat="48.13798" lon="17.00065">
        <ele>147.053475</ele>
        <time>2022-09-11T13:20:24.392Z</time>
      </trkpt>
      <trkpt lat="48.13805" lon="17.00027">
        <ele>147.044409</ele>
        <time>2022-09-11T13:20:31.937Z</time>
      </trkpt>
      <trkpt lat="48.13811" lon="16.99997">
        <ele>147.016452</ele>
        <time>2022-09-11T13:20:37.868Z</time>
      </trkpt>
      <trkpt lat="48.13931" lon="16.99601">
        <ele>146.337257</ele>
        <time>2022-09-11T13:21:51.846Z</time>
      </trkpt>
      <trkpt lat="48.1396" lon="16.99493">
        <ele>146.074223</ele>
        <time>2022-09-11T13:22:11.170Z</time>
      </trkpt>
      <trkpt lat="48.13983" lon="16.99496">
        <ele>145.98973</ele>
        <time>2022-09-11T13:22:16.834Z</time>
      </trkpt>
      <trkpt lat="48.13994" lon="16.9948">
        <ele>145.934626</ele>
        <time>2022-09-11T13:22:20.640Z</time>
      </trkpt>
      <trkpt lat="48.14003" lon="16.99413">
        <ele>145.7683</ele>
        <time>2022-09-11T13:22:31.841Z</time>
      </trkpt>
      <trkpt lat="48.14025" lon="16.99354">
        <ele>145.605017</ele>
        <time>2022-09-11T13:22:43.134Z</time>
      </trkpt>
      <trkpt lat="48.14061" lon="16.99171">
        <ele>145.759046</ele>
        <time>2022-09-11T13:23:17.891Z</time>
      </trkpt>
      <trkpt lat="48.14073" lon="16.99132">
        <ele>145.830043</ele>
        <time>2022-09-11T13:23:26.363Z</time>
      </trkpt>
      <trkpt lat="48.14182" lon="16.98805">
        <ele>146.947804</ele>
        <time>2022-09-11T13:24:37.083Z</time>
      </trkpt>
      <trkpt lat="48.14207" lon="16.98639">
        <ele>147.836074</ele>
        <time>2022-09-11T13:25:10.224Z</time>
      </trkpt>
      <trkpt lat="48.14319" lon="16.98151">
        <ele>152.277114</ele>
        <time>2022-09-11T13:27:04.716Z</time>
      </trkpt>
      <trkpt lat="48.14336" lon="16.98119">
        <ele>152.672921</ele>
        <time>2022-09-11T13:27:14.019Z</time>
      </trkpt>
      <trkpt lat="48.14335" lon="16.98077">
        <ele>153.070056</ele>
        <time>2022-09-11T13:27:23.395Z</time>
      </trkpt>
      <trkpt lat="48.1439" lon="16.97702">
        <ele>157.517168</ele>
        <time>2022-09-11T13:28:52.398Z</time>
      </trkpt>
      <trkpt lat="48.14429" lon="16.97498">
        <ele>160.322612</ele>
        <time>2022-09-11T13:29:44.951Z</time>
      </trkpt>
      <trkpt lat="48.14437" lon="16.97425">
        <ele>161.248908</ele>
        <time>2022-09-11T13:30:03.231Z</time>
      </trkpt>
      <trkpt lat="48.14443" lon="16.97229">
        <ele>163.55136</ele>
        <time>2022-09-11T13:30:48.822Z</time>
      </trkpt>
      <trkpt lat="48.14455" lon="16.97117">
        <ele>164.512049</ele>
        <time>2022-09-11T13:31:13.625Z</time>
      </trkpt>
      <trkpt lat="48.1449" lon="16.96952">
        <ele>165.868357</ele>
        <time>2022-09-11T13:31:50.480Z</time>
      </trkpt>
      <trkpt lat="48.14572" lon="16.96645">
        <ele>168.150476</ele>
        <time>2022-09-11T13:32:59.363Z</time>
      </trkpt>
      <trkpt lat="48.14578" lon="16.96638">
        <ele>168.236342</ele>
        <time>2022-09-11T13:33:01.766Z</time>
      </trkpt>
      <trkpt lat="48.14885" lon="16.96714">
        <ele>171.92787</ele>
        <time>2022-09-11T13:34:43.815Z</time>
      </trkpt>
      <trkpt lat="48.14863" lon="16.96592">
        <ele>172.678969</ele>
        <time>2022-09-11T13:35:10.507Z</time>
      </trkpt>
      <trkpt lat="48.14788" lon="16.96275">
        <ele>173.776913</ele>
        <time>2022-09-11T13:36:16.132Z</time>
      </trkpt>
      <trkpt lat="48.14681" lon="16.95848">
        <ele>172.015994</ele>
        <time>2022-09-11T13:37:29.872Z</time>
      </trkpt>
      <trkpt lat="48.14669" lon="16.95786">
        <ele>171.674924</ele>
        <time>2022-09-11T13:37:39.916Z</time>
      </trkpt>
      <trkpt lat="48.14664" lon="16.95719">
        <ele>171.186011</ele>
        <time>2022-09-11T13:37:50.266Z</time>
      </trkpt>
      <trkpt lat="48.14657" lon="16.95702">
        <ele>170.979467</ele>
        <time>2022-09-11T13:37:53.380Z</time>
      </trkpt>
      <trkpt lat="48.1468" lon="16.95535">
        <ele>169.265416</ele>
        <time>2022-09-11T13:38:18.511Z</time>
      </trkpt>
      <trkpt lat="48.14709" lon="16.95306">
        <ele>166.132268</ele>
        <time>2022-09-11T13:38:51.201Z</time>
      </trkpt>
      <trkpt lat="48.14726" lon="16.95163">
        <ele>163.973903</ele>
        <time>2022-09-11T13:39:10.994Z</time>
      </trkpt>
      <trkpt lat="48.14736" lon="16.95129">
        <ele>163.38676</ele>
        <time>2022-09-11T13:39:16.024Z</time>
      </trkpt>
      <trkpt lat="48.14777" lon="16.94992">
        <ele>161.009836</ele>
        <time>2022-09-11T13:39:36.594Z</time>
      </trkpt>
      <trkpt lat="48.14797" lon="16.94925">
        <ele>160.073102</ele>
        <time>2022-09-11T13:39:46.779Z</time>
      </trkpt>
      <trkpt lat="48.14867" lon="16.94789">
        <ele>158.130829</ele>
        <time>2022-09-11T13:40:11.979Z</time>
      </trkpt>
      <trkpt lat="48.14916" lon="16.94834">
        <ele>157.172912</ele>
        <time>2022-09-11T13:40:24.724Z</time>
      </trkpt>
      <trkpt lat="48.14995" lon="16.94632">
        <ele>154.62105</ele>
        <time>2022-09-11T13:40:58.766Z</time>
      </trkpt>
      <trkpt lat="48.15014" lon="16.94583">
        <ele>153.85829</ele>
        <time>2022-09-11T13:41:06.937Z</time>
      </trkpt>
      <trkpt lat="48.15028" lon="16.94546">
        <ele>153.274793</ele>
        <time>2022-09-11T13:41:12.782Z</time>
      </trkpt>
      <trkpt lat="48.15031" lon="16.94517">
        <ele>152.880631</ele>
        <time>2022-09-11T13:41:16.623Z</time>
      </trkpt>
      <trkpt lat="48.15025" lon="16.94504">
        <ele>152.658798</ele>
        <time>2022-09-11T13:41:18.822Z</time>
      </trkpt>
      <trkpt lat="48.14986" lon="16.94491">
        <ele>151.858399</ele>
        <time>2022-09-11T13:41:27.420Z</time>
      </trkpt>
      <trkpt lat="48.14988" lon="16.94468">
        <ele>151.549336</ele>
        <time>2022-09-11T13:41:30.779Z</time>
      </trkpt>
      <trkpt lat="48.14994" lon="16.94437">
        <ele>151.109219</ele>
        <time>2022-09-11T13:41:35.604Z</time>
      </trkpt>
      <trkpt lat="48.14998" lon="16.94432">
        <ele>151.003886</ele>
        <time>2022-09-11T13:41:36.769Z</time>
      </trkpt>
      <trkpt lat="48.15012" lon="16.94422">
        <ele>150.827918</ele>
        <time>2022-09-11T13:41:40.361Z</time>
      </trkpt>
      <trkpt lat="48.15038" lon="16.94404">
        <ele>150.521327</ele>
        <time>2022-09-11T13:41:46.907Z</time>
      </trkpt>
      <trkpt lat="48.15039" lon="16.94389">
        <ele>150.416297</ele>
        <time>2022-09-11T13:41:49.148Z</time>
      </trkpt>
      <trkpt lat="48.15039" lon="16.94387">
        <ele>150.400475</ele>
        <time>2022-09-11T13:41:49.472Z</time>
      </trkpt>
      <trkpt lat="48.15037" lon="16.94377">
        <ele>150.328779</ele>
        <time>2022-09-11T13:41:51.023Z</time>
      </trkpt>
      <trkpt lat="48.15003" lon="16.94301">
        <ele>149.671611</ele>
        <time>2022-09-11T13:42:05.038Z</time>
      </trkpt>
      <trkpt lat="48.14998" lon="16.94267">
        <ele>149.421092</ele>
        <time>2022-09-11T13:42:10.216Z</time>
      </trkpt>
      <trkpt lat="48.14992" lon="16.9424">
        <ele>149.217155</ele>
        <time>2022-09-11T13:42:14.590Z</time>
      </trkpt>
      <trkpt lat="48.14983" lon="16.94208">
        <ele>149.12029</ele>
        <time>2022-09-11T13:42:20.385Z</time>
      </trkpt>
      <trkpt lat="48.14968" lon="16.94167">
        <ele>149.339452</ele>
        <time>2022-09-11T13:42:29.562Z</time>
      </trkpt>
      <trkpt lat="48.14938" lon="16.94086">
        <ele>149.774266</ele>
        <time>2022-09-11T13:42:48.377Z</time>
      </trkpt>
      <trkpt lat="48.14915" lon="16.94024">
        <ele>150.1038</ele>
        <time>2022-09-11T13:43:03.330Z</time>
      </trkpt>
      <trkpt lat="48.14879" lon="16.93925">
        <ele>150.50779</ele>
        <time>2022-09-11T13:43:28.839Z</time>
      </trkpt>
      <trkpt lat="48.14812" lon="16.93758">
        <ele>151.05443</ele>
        <time>2022-09-11T13:44:04.854Z</time>
      </trkpt>
      <trkpt lat="48.14809" lon="16.9375">
        <ele>151.071402</ele>
        <time>2022-09-11T13:44:06.432Z</time>
      </trkpt>
      <trkpt lat="48.14796" lon="16.93729">
        <ele>150.852006</ele>
        <time>2022-09-11T13:44:11.201Z</time>
      </trkpt>
      <trkpt lat="48.14769" lon="16.93684">
        <ele>150.367324</ele>
        <time>2022-09-11T13:44:20.970Z</time>
      </trkpt>
      <trkpt lat="48.14651" lon="16.93487">
        <ele>148.200597</ele>
        <time>2022-09-11T13:44:59.513Z</time>
      </trkpt>
      <trkpt lat="48.14637" lon="16.93442">
        <ele>147.770369</ele>
        <time>2022-09-11T13:45:06.951Z</time>
      </trkpt>
      <trkpt lat="48.14545" lon="16.93246">
        <ele>145.862433</ele>
        <time>2022-09-11T13:45:43.561Z</time>
      </trkpt>
      <trkpt lat="48.1453" lon="16.93189">
        <ele>145.441483</ele>
        <time>2022-09-11T13:45:52.971Z</time>
      </trkpt>
      <trkpt lat="48.14524" lon="16.93144">
        <ele>145.120213</ele>
        <time>2022-09-11T13:46:00.074Z</time>
      </trkpt>
      <trkpt lat="48.14524" lon="16.93109">
        <ele>144.877643</ele>
        <time>2022-09-11T13:46:05.408Z</time>
      </trkpt>
      <trkpt lat="48.14522" lon="16.92879">
        <ele>143.470555</ele>
        <time>2022-09-11T13:46:40.634Z</time>
      </trkpt>
      <trkpt lat="48.1453" lon="16.92745">
        <ele>143.147666</ele>
        <time>2022-09-11T13:47:03.056Z</time>
      </trkpt>
      <trkpt lat="48.14537" lon="16.92512">
        <ele>143.247302</ele>
        <time>2022-09-11T13:47:47.422Z</time>
      </trkpt>
      <trkpt lat="48.14519" lon="16.92416">
        <ele>143.162961</ele>
        <time>2022-09-11T13:48:05.542Z</time>
      </trkpt>
      <trkpt lat="48.1452" lon="16.92329">
        <ele>143.088995</ele>
        <time>2022-09-11T13:48:20.257Z</time>
      </trkpt>
      <trkpt lat="48.14527" lon="16.92179">
        <ele>142.632804</ele>
        <time>2022-09-11T13:48:44.310Z</time>
      </trkpt>
      <trkpt lat="48.14518" lon="16.91894">
        <ele>141.785538</ele>
        <time>2022-09-11T13:49:30.487Z</time>
      </trkpt>
      <trkpt lat="48.14515" lon="16.91425">
        <ele>142.084898</ele>
        <time>2022-09-11T13:50:55.221Z</time>
      </trkpt>
      <trkpt lat="48.14509" lon="16.91372">
        <ele>142.4511</ele>
        <time>2022-09-11T13:51:05.907Z</time>
      </trkpt>
      <trkpt lat="48.14496" lon="16.91301">
        <ele>142.959691</ele>
        <time>2022-09-11T13:51:21.614Z</time>
      </trkpt>
      <trkpt lat="48.14484" lon="16.91266">
        <ele>143.226644</ele>
        <time>2022-09-11T13:51:30.201Z</time>
      </trkpt>
      <trkpt lat="48.14371" lon="16.90976">
        <ele>147.186604</ele>
        <time>2022-09-11T13:52:51.453Z</time>
      </trkpt>
      <trkpt lat="48.14363" lon="16.90957">
        <ele>147.414402</ele>
        <time>2022-09-11T13:52:57.014Z</time>
      </trkpt>
      <trkpt lat="48.14349" lon="16.90958">
        <ele>147.630242</ele>
        <time>2022-09-11T13:53:01.674Z</time>
      </trkpt>
      <trkpt lat="48.14279" lon="16.90993">
        <ele>148.739151</ele>
        <time>2022-09-11T13:53:27.088Z</time>
      </trkpt>
      <trkpt lat="48.14256" lon="16.90998">
        <ele>149.078166</ele>
        <time>2022-09-11T13:53:35.110Z</time>
      </trkpt>
      <trkpt lat="48.14206" lon="16.9101">
        <ele>149.816226</ele>
        <time>2022-09-11T13:53:51.046Z</time>
      </trkpt>
      <trkpt lat="48.14178" lon="16.91025">
        <ele>150.16757</ele>
        <time>2022-09-11T13:54:00.251Z</time>
      </trkpt>
      <trkpt lat="48.14166" lon="16.91034">
        <ele>150.318794</ele>
        <time>2022-09-11T13:54:04.369Z</time>
      </trkpt>
      <trkpt lat="48.1417" lon="16.91071">
        <ele>150.605885</ele>
        <time>2022-09-11T13:54:12.315Z</time>
      </trkpt>
      <trkpt lat="48.14157" lon="16.9108">
        <ele>150.77306</ele>
        <time>2022-09-11T13:54:17.190Z</time>
      </trkpt>
      <trkpt lat="48.14153" lon="16.91168">
        <ele>151.454712</ele>
        <time>2022-09-11T13:54:36.891Z</time>
      </trkpt>
      <trkpt lat="48.14152" lon="16.9118">
        <ele>151.549727</ele>
        <time>2022-09-11T13:54:39.551Z</time>
      </trkpt>
      <trkpt lat="48.14053" lon="16.91236">
        <ele>152.277538</ele>
        <time>2022-09-11T13:55:12.491Z</time>
      </trkpt>
      <trkpt lat="48.14134" lon="16.9116">
        <ele>152.794666</ele>
        <time>2022-09-11T13:55:39.950Z</time>
      </trkpt>
      <trkpt lat="48.14785" lon="16.90709">
        <ele>150.004158</ele>
        <time>2022-09-11T13:58:38.731Z</time>
      </trkpt>
      <trkpt lat="48.15689" lon="16.90083">
        <ele>145.938182</ele>
        <time>2022-09-11T14:02:47.632Z</time>
      </trkpt>
      <trkpt lat="48.15743" lon="16.90044">
        <ele>145.656434</ele>
        <time>2022-09-11T14:03:02.197Z</time>
      </trkpt>
      <trkpt lat="48.15745" lon="16.90048">
        <ele>145.641994</ele>
        <time>2022-09-11T14:03:03.188Z</time>
      </trkpt>
      <trkpt lat="48.15705" lon="16.90094">
        <ele>145.467696</ele>
        <time>2022-09-11T14:03:15.537Z</time>
      </trkpt>
      <trkpt lat="48.15674" lon="16.90116">
        <ele>145.394711</ele>
        <time>2022-09-11T14:03:24.150Z</time>
      </trkpt>
      <trkpt lat="48.15657" lon="16.90085">
        <ele>145.33885</ele>
        <time>2022-09-11T14:03:30.882Z</time>
      </trkpt>
      <trkpt lat="48.15653" lon="16.90084">
        <ele>145.329855</ele>
        <time>2022-09-11T14:03:31.908Z</time>
      </trkpt>
      <trkpt lat="48.15632" lon="16.90073">
        <ele>145.283273</ele>
        <time>2022-09-11T14:03:37.236Z</time>
      </trkpt>
      <trkpt lat="48.15169" lon="16.89242">
        <ele>146.283346</ele>
        <time>2022-09-11T14:06:56.987Z</time>
      </trkpt>
      <trkpt lat="48.14929" lon="16.88806">
        <ele>146.117466</ele>
        <time>2022-09-11T14:08:35.970Z</time>
      </trkpt>
      <trkpt lat="48.14749" lon="16.88466">
        <ele>146.049884</ele>
        <time>2022-09-11T14:09:52.892Z</time>
      </trkpt>
      <trkpt lat="48.14664" lon="16.883">
        <ele>146.293688</ele>
        <time>2022-09-11T14:10:30.121Z</time>
      </trkpt>
      <trkpt lat="48.14615" lon="16.88215">
        <ele>146.939477</ele>
        <time>2022-09-11T14:10:53.256Z</time>
      </trkpt>
      <trkpt lat="48.14603" lon="16.88206">
        <ele>147.058338</ele>
        <time>2022-09-11T14:10:57.953Z</time>
      </trkpt>
      <trkpt lat="48.14601" lon="16.88305">
        <ele>147.631854</ele>
        <time>2022-09-11T14:11:20.335Z</time>
      </trkpt>
      <trkpt lat="48.14592" lon="16.88304">
        <ele>147.706074</ele>
        <time>2022-09-11T14:11:23.464Z</time>
      </trkpt>
      <trkpt lat="48.14577" lon="16.8828">
        <ele>147.885325</ele>
        <time>2022-09-11T14:11:30.663Z</time>
      </trkpt>
      <trkpt lat="48.14444" lon="16.87987">
        <ele>148.818076</ele>
        <time>2022-09-11T14:12:41.650Z</time>
      </trkpt>
      <trkpt lat="48.14252" lon="16.87536">
        <ele>145.771153</ele>
        <time>2022-09-11T14:14:11.735Z</time>
      </trkpt>
      <trkpt lat="48.14139" lon="16.87227">
        <ele>145.731653</ele>
        <time>2022-09-11T14:15:23.900Z</time>
      </trkpt>
      <trkpt lat="48.14017" lon="16.86845">
        <ele>146.36445</ele>
        <time>2022-09-11T14:16:55.703Z</time>
      </trkpt>
      <trkpt lat="48.13935" lon="16.86569">
        <ele>144.773868</ele>
        <time>2022-09-11T14:17:45.994Z</time>
      </trkpt>
      <trkpt lat="48.13886" lon="16.864">
        <ele>143.982588</ele>
        <time>2022-09-11T14:18:19.735Z</time>
      </trkpt>
      <trkpt lat="48.13837" lon="16.86169">
        <ele>144.315077</ele>
        <time>2022-09-11T14:19:11.208Z</time>
      </trkpt>
      <trkpt lat="48.1375" lon="16.85709">
        <ele>144.764263</ele>
        <time>2022-09-11T14:20:47.073Z</time>
      </trkpt>
      <trkpt lat="48.13668" lon="16.85078">
        <ele>145.847867</ele>
        <time>2022-09-11T14:23:00.207Z</time>
      </trkpt>
      <trkpt lat="48.13663" lon="16.85038">
        <ele>145.882473</ele>
        <time>2022-09-11T14:23:07.730Z</time>
      </trkpt>
      <trkpt lat="48.13574" lon="16.84201">
        <ele>146.259162</ele>
        <time>2022-09-11T14:25:41.263Z</time>
      </trkpt>
      <trkpt lat="48.13533" lon="16.8377">
        <ele>145.67998</ele>
        <time>2022-09-11T14:26:53.254Z</time>
      </trkpt>
      <trkpt lat="48.13487" lon="16.83186">
        <ele>148.898464</ele>
        <time>2022-09-11T14:29:00.198Z</time>
      </trkpt>
      <trkpt lat="48.13434" lon="16.82376">
        <ele>147.183289</ele>
        <time>2022-09-11T14:31:10.509Z</time>
      </trkpt>
      <trkpt lat="48.13414" lon="16.81977">
        <ele>151.033393</ele>
        <time>2022-09-11T14:32:50.255Z</time>
      </trkpt>
      <trkpt lat="48.13385" lon="16.81148">
        <ele>150.728273</ele>
        <time>2022-09-11T14:35:12.293Z</time>
      </trkpt>
      <trkpt lat="48.13372" lon="16.80494">
        <ele>151.260798</ele>
        <time>2022-09-11T14:37:12.646Z</time>
      </trkpt>
      <trkpt lat="48.13372" lon="16.79414">
        <ele>151.053533</ele>
        <time>2022-09-11T14:40:22.145Z</time>
      </trkpt>
      <trkpt lat="48.13376" lon="16.78075">
        <ele>153.699942</ele>
        <time>2022-09-11T14:44:36.910Z</time>
      </trkpt>
      <trkpt lat="48.1338" lon="16.75821">
        <ele>146.049437</ele>
        <time>2022-09-11T14:50:44.302Z</time>
      </trkpt>
      <trkpt lat="48.13386" lon="16.73289">
        <ele>153.601984</ele>
        <time>2022-09-11T14:58:54.425Z</time>
      </trkpt>
      <trkpt lat="48.13389" lon="16.70657">
        <ele>149.267669</ele>
        <time>2022-09-11T15:06:22.117Z</time>
      </trkpt>
      <trkpt lat="48.13389" lon="16.7065">
        <ele>149.266436</ele>
        <time>2022-09-11T15:06:23.511Z</time>
      </trkpt>
      <trkpt lat="48.13388" lon="16.7064">
        <ele>149.264885</ele>
        <time>2022-09-11T15:06:25.248Z</time>
      </trkpt>
      <trkpt lat="48.1339" lon="16.70458">
        <ele>149.809681</ele>
        <time>2022-09-11T15:07:02.276Z</time>
      </trkpt>
      <trkpt lat="48.13393" lon="16.69769">
        <ele>152.083858</ele>
        <time>2022-09-11T15:09:15.017Z</time>
      </trkpt>
      <trkpt lat="48.13403" lon="16.68991">
        <ele>155.435692</ele>
        <time>2022-09-11T15:11:51.880Z</time>
      </trkpt>
      <trkpt lat="48.13427" lon="16.67975">
        <ele>150.508842</ele>
        <time>2022-09-11T15:14:32.217Z</time>
      </trkpt>
      <trkpt lat="48.13469" lon="16.66593">
        <ele>150.0705</ele>
        <time>2022-09-11T15:18:38.648Z</time>
      </trkpt>
      <trkpt lat="48.13469" lon="16.6657">
        <ele>150.057984</ele>
        <time>2022-09-11T15:18:42.554Z</time>
      </trkpt>
      <trkpt lat="48.13494" lon="16.6581">
        <ele>147.749794</ele>
        <time>2022-09-11T15:20:46.345Z</time>
      </trkpt>
      <trkpt lat="48.13534" lon="16.6454">
        <ele>154.73238</ele>
        <time>2022-09-11T15:25:12.084Z</time>
      </trkpt>
      <trkpt lat="48.13554" lon="16.63907">
        <ele>152.994478</ele>
        <time>2022-09-11T15:26:56.217Z</time>
      </trkpt>
      <trkpt lat="48.13566" lon="16.63489">
        <ele>150.70679</ele>
        <time>2022-09-11T15:27:59.462Z</time>
      </trkpt>
      <trkpt lat="48.13572" lon="16.63449">
        <ele>150.671625</ele>
        <time>2022-09-11T15:28:06.809Z</time>
      </trkpt>
      <trkpt lat="48.13575" lon="16.63441">
        <ele>150.663934</ele>
        <time>2022-09-11T15:28:08.452Z</time>
      </trkpt>
      <trkpt lat="48.13585" lon="16.6342">
        <ele>150.641389</ele>
        <time>2022-09-11T15:28:13.292Z</time>
      </trkpt>
      <trkpt lat="48.13715" lon="16.63238">
        <ele>151.911212</ele>
        <time>2022-09-11T15:29:10.665Z</time>
      </trkpt>
      <trkpt lat="48.13731" lon="16.63207">
        <ele>152.191945</ele>
        <time>2022-09-11T15:29:19.419Z</time>
      </trkpt>
      <trkpt lat="48.1374" lon="16.63173">
        <ele>152.458623</ele>
        <time>2022-09-11T15:29:27.497Z</time>
      </trkpt>
      <trkpt lat="48.13829" lon="16.62586">
        <ele>153.546093</ele>
        <time>2022-09-11T15:31:20.738Z</time>
      </trkpt>
      <trkpt lat="48.13899" lon="16.62055">
        <ele>151.725061</ele>
        <time>2022-09-11T15:32:47.455Z</time>
      </trkpt>
      <trkpt lat="48.13986" lon="16.61564">
        <ele>151.982098</ele>
        <time>2022-09-11T15:34:21.278Z</time>
      </trkpt>
      <trkpt lat="48.14003" lon="16.61471">
        <ele>151.723588</ele>
        <time>2022-09-11T15:34:38.615Z</time>
      </trkpt>
      <trkpt lat="48.13997" lon="16.61473">
        <ele>151.700455</ele>
        <time>2022-09-11T15:34:40.248Z</time>
      </trkpt>
      <trkpt lat="48.13974" lon="16.61557">
        <ele>151.455802</ele>
        <time>2022-09-11T15:34:55.124Z</time>
      </trkpt>
      <trkpt lat="48.13952" lon="16.61564">
        <ele>151.364249</ele>
        <time>2022-09-11T15:35:00.230Z</time>
      </trkpt>
      <trkpt lat="48.13883" lon="16.61549">
        <ele>150.540613</ele>
        <time>2022-09-11T15:35:15.720Z</time>
      </trkpt>
      <trkpt lat="48.13867" lon="16.61528">
        <ele>150.262642</ele>
        <time>2022-09-11T15:35:20.463Z</time>
      </trkpt>
      <trkpt lat="48.1385" lon="16.61478">
        <ele>149.773228</ele>
        <time>2022-09-11T15:35:28.557Z</time>
      </trkpt>
      <trkpt lat="48.13834" lon="16.61416">
        <ele>149.204319</ele>
        <time>2022-09-11T15:35:38.043Z</time>
      </trkpt>
      <trkpt lat="48.13816" lon="16.61395">
        <ele>149.019568</ele>
        <time>2022-09-11T15:35:43.597Z</time>
      </trkpt>
      <trkpt lat="48.1379" lon="16.61392">
        <ele>149.062974</ele>
        <time>2022-09-11T15:35:50.211Z</time>
      </trkpt>
      <trkpt lat="48.1378" lon="16.61391">
        <ele>149.078678</ele>
        <time>2022-09-11T15:35:52.587Z</time>
      </trkpt>
      <trkpt lat="48.13698" lon="16.61384">
        <ele>149.216152</ele>
        <time>2022-09-11T15:36:15.573Z</time>
      </trkpt>
      <trkpt lat="48.13693" lon="16.61383">
        <ele>149.224492</ele>
        <time>2022-09-11T15:36:17.222Z</time>
      </trkpt>
      <trkpt lat="48.13644" lon="16.61379">
        <ele>149.308751</ele>
        <time>2022-09-11T15:36:32.940Z</time>
      </trkpt>
      <trkpt lat="48.13644" lon="16.61348">
        <ele>149.455528</ele>
        <time>2022-09-11T15:36:39.424Z</time>
      </trkpt>
      <trkpt lat="48.13666" lon="16.60629">
        <ele>152.92141</ele>
        <time>2022-09-11T15:39:17.460Z</time>
      </trkpt>
      <trkpt lat="48.13687" lon="16.60001">
        <ele>156.943499</ele>
        <time>2022-09-11T15:41:42.599Z</time>
      </trkpt>
      <trkpt lat="48.13693" lon="16.59814">
        <ele>157.671506</ele>
        <time>2022-09-11T15:42:23.109Z</time>
      </trkpt>
      <trkpt lat="48.13709" lon="16.59486">
        <ele>158.373447</ele>
        <time>2022-09-11T15:43:24.208Z</time>
      </trkpt>
      <trkpt lat="48.13744" lon="16.5904">
        <ele>158.860437</ele>
        <time>2022-09-11T15:44:46.911Z</time>
      </trkpt>
      <trkpt lat="48.13767" lon="16.58822">
        <ele>158.867099</ele>
        <time>2022-09-11T15:45:26.571Z</time>
      </trkpt>
      <trkpt lat="48.13809" lon="16.58494">
        <ele>158.382074</ele>
        <time>2022-09-11T15:46:23.872Z</time>
      </trkpt>
      <trkpt lat="48.13859" lon="16.58141">
        <ele>157.573431</ele>
        <time>2022-09-11T15:47:23.074Z</time>
      </trkpt>
      <trkpt lat="48.13967" lon="16.57554">
        <ele>159.649758</ele>
        <time>2022-09-11T15:49:25.520Z</time>
      </trkpt>
      <trkpt lat="48.14055" lon="16.57143">
        <ele>158.686451</ele>
        <time>2022-09-11T15:50:36.102Z</time>
      </trkpt>
      <trkpt lat="48.14058" lon="16.57131">
        <ele>158.649479</ele>
        <time>2022-09-11T15:50:38.147Z</time>
      </trkpt>
      <trkpt lat="48.14247" lon="16.56338">
        <ele>158.415169</ele>
        <time>2022-09-11T15:53:07.599Z</time>
      </trkpt>
      <trkpt lat="48.14372" lon="16.55889">
        <ele>158.470467</ele>
        <time>2022-09-11T15:54:34.541Z</time>
      </trkpt>
      <trkpt lat="48.1453" lon="16.55379">
        <ele>158.146417</ele>
        <time>2022-09-11T15:56:13.252Z</time>
      </trkpt>
      <trkpt lat="48.14592" lon="16.55204">
        <ele>157.764963</ele>
        <time>2022-09-11T15:56:46.910Z</time>
      </trkpt>
      <trkpt lat="48.14598" lon="16.55187">
        <ele>157.725952</ele>
        <time>2022-09-11T15:56:50.215Z</time>
      </trkpt>
      <trkpt lat="48.14634" lon="16.55085">
        <ele>157.611646</ele>
        <time>2022-09-11T15:57:09.112Z</time>
      </trkpt>
      <trkpt lat="48.1472" lon="16.5485">
        <ele>157.909659</ele>
        <time>2022-09-11T15:57:57.454Z</time>
      </trkpt>
      <trkpt lat="48.1485" lon="16.54535">
        <ele>159.26803</ele>
        <time>2022-09-11T15:59:16.562Z</time>
      </trkpt>
      <trkpt lat="48.15049" lon="16.54107">
        <ele>156.844429</ele>
        <time>2022-09-11T16:00:35.092Z</time>
      </trkpt>
      <trkpt lat="48.15057" lon="16.5409">
        <ele>156.800041</ele>
        <time>2022-09-11T16:00:38.612Z</time>
      </trkpt>
      <trkpt lat="48.15295" lon="16.53619">
        <ele>160.017212</ele>
        <time>2022-09-11T16:02:42.855Z</time>
      </trkpt>
      <trkpt lat="48.15328" lon="16.53543">
        <ele>160.679231</ele>
        <time>2022-09-11T16:03:03.491Z</time>
      </trkpt>
      <trkpt lat="48.15477" lon="16.53244">
        <ele>161.576764</ele>
        <time>2022-09-11T16:04:22.003Z</time>
      </trkpt>
      <trkpt lat="48.1555" lon="16.53099">
        <ele>159.889303</ele>
        <time>2022-09-11T16:04:46.341Z</time>
      </trkpt>
      <trkpt lat="48.15609" lon="16.52977">
        <ele>157.192078</ele>
        <time>2022-09-11T16:05:05.658Z</time>
      </trkpt>
      <trkpt lat="48.15628" lon="16.52953">
        <ele>156.533267</ele>
        <time>2022-09-11T16:05:10.588Z</time>
      </trkpt>
      <trkpt lat="48.1617" lon="16.52506">
        <ele>154.768677</ele>
        <time>2022-09-11T16:07:50.911Z</time>
      </trkpt>
      <trkpt lat="48.16223" lon="16.52464">
        <ele>154.812435</ele>
        <time>2022-09-11T16:08:07.098Z</time>
      </trkpt>
      <trkpt lat="48.16361" lon="16.52384">
        <ele>155.353077</ele>
        <time>2022-09-11T16:08:48.378Z</time>
      </trkpt>
      <trkpt lat="48.16524" lon="16.5232">
        <ele>156.650398</ele>
        <time>2022-09-11T16:09:40.021Z</time>
      </trkpt>
      <trkpt lat="48.16547" lon="16.52278">
        <ele>157.018616</ele>
        <time>2022-09-11T16:09:51.993Z</time>
      </trkpt>
      <trkpt lat="48.16559" lon="16.52248">
        <ele>157.257622</ele>
        <time>2022-09-11T16:09:59.507Z</time>
      </trkpt>
      <trkpt lat="48.16607" lon="16.52151">
        <ele>158.014786</ele>
        <time>2022-09-11T16:10:25.594Z</time>
      </trkpt>
      <trkpt lat="48.16815" lon="16.51727">
        <ele>160.693708</ele>
        <time>2022-09-11T16:12:12.171Z</time>
      </trkpt>
      <trkpt lat="48.16818" lon="16.51721">
        <ele>160.717552</ele>
        <time>2022-09-11T16:12:13.848Z</time>
      </trkpt>
      <trkpt lat="48.17034" lon="16.51278">
        <ele>161.130535</ele>
        <time>2022-09-11T16:13:57.359Z</time>
      </trkpt>
      <trkpt lat="48.17054" lon="16.51238">
        <ele>160.600198</ele>
        <time>2022-09-11T16:14:04.652Z</time>
      </trkpt>
      <trkpt lat="48.1706" lon="16.51216">
        <ele>160.351757</ele>
        <time>2022-09-11T16:14:07.774Z</time>
      </trkpt>
      <trkpt lat="48.17048" lon="16.512">
        <ele>160.088282</ele>
        <time>2022-09-11T16:14:11.388Z</time>
      </trkpt>
      <trkpt lat="48.16985" lon="16.51185">
        <ele>159.072137</ele>
        <time>2022-09-11T16:14:24.262Z</time>
      </trkpt>
      <trkpt lat="48.16975" lon="16.51177">
        <ele>158.854242</ele>
        <time>2022-09-11T16:14:26.551Z</time>
      </trkpt>
      <trkpt lat="48.16976" lon="16.51155">
        <ele>158.510197</ele>
        <time>2022-09-11T16:14:29.374Z</time>
      </trkpt>
      <trkpt lat="48.16994" lon="16.51117">
        <ele>157.793562</ele>
        <time>2022-09-11T16:14:35.413Z</time>
      </trkpt>
      <trkpt lat="48.17073" lon="16.50954">
        <ele>154.756501</ele>
        <time>2022-09-11T16:15:03.107Z</time>
      </trkpt>
      <trkpt lat="48.17094" lon="16.5089">
        <ele>154.470819</ele>
        <time>2022-09-11T16:15:14.187Z</time>
      </trkpt>
      <trkpt lat="48.17106" lon="16.50882">
        <ele>154.396478</ele>
        <time>2022-09-11T16:15:17.241Z</time>
      </trkpt>
      <trkpt lat="48.17126" lon="16.50863">
        <ele>154.251717</ele>
        <time>2022-09-11T16:15:23.278Z</time>
      </trkpt>
      <trkpt lat="48.17156" lon="16.50813">
        <ele>153.985569</ele>
        <time>2022-09-11T16:15:34.812Z</time>
      </trkpt>
      <trkpt lat="48.17293" lon="16.50592">
        <ele>153.999299</ele>
        <time>2022-09-11T16:16:30.158Z</time>
      </trkpt>
      <trkpt lat="48.17297" lon="16.50596">
        <ele>154.009788</ele>
        <time>2022-09-11T16:16:31.617Z</time>
      </trkpt>
      <trkpt lat="48.17303" lon="16.50601">
        <ele>154.021782</ele>
        <time>2022-09-11T16:16:33.556Z</time>
      </trkpt>
      <trkpt lat="48.17392" lon="16.50463">
        <ele>154.191371</ele>
        <time>2022-09-11T16:17:09.161Z</time>
      </trkpt>
      <trkpt lat="48.17406" lon="16.50442">
        <ele>154.215906</ele>
        <time>2022-09-11T16:17:14.475Z</time>
      </trkpt>
      <trkpt lat="48.17859" lon="16.49727">
        <ele>153.894047</ele>
        <time>2022-09-11T16:20:08.333Z</time>
      </trkpt>
      <trkpt lat="48.17945" lon="16.49586">
        <ele>153.678956</ele>
        <time>2022-09-11T16:20:40.606Z</time>
      </trkpt>
      <trkpt lat="48.17947" lon="16.49538">
        <ele>153.652572</ele>
        <time>2022-09-11T16:20:49.183Z</time>
      </trkpt>
      <trkpt lat="48.17931" lon="16.49499">
        <ele>153.628007</ele>
        <time>2022-09-11T16:20:57.186Z</time>
      </trkpt>
      <trkpt lat="48.17905" lon="16.49463">
        <ele>153.599242</ele>
        <time>2022-09-11T16:21:06.746Z</time>
      </trkpt>
      <trkpt lat="48.17896" lon="16.4946">
        <ele>153.591442</ele>
        <time>2022-09-11T16:21:09.621Z</time>
      </trkpt>
      <trkpt lat="48.17845" lon="16.49391">
        <ele>153.55036</ele>
        <time>2022-09-11T16:21:27.634Z</time>
      </trkpt>
      <trkpt lat="48.17775" lon="16.49292">
        <ele>153.549686</ele>
        <time>2022-09-11T16:21:52.605Z</time>
      </trkpt>
      <trkpt lat="48.17755" lon="16.49265">
        <ele>153.549502</ele>
        <time>2022-09-11T16:21:59.761Z</time>
      </trkpt>
      <trkpt lat="48.17737" lon="16.4921">
        <ele>153.554711</ele>
        <time>2022-09-11T16:22:11.228Z</time>
      </trkpt>
      <trkpt lat="48.17717" lon="16.49197">
        <ele>153.622394</ele>
        <time>2022-09-11T16:22:17.281Z</time>
      </trkpt>
      <trkpt lat="48.17707" lon="16.49179">
        <ele>153.672182</ele>
        <time>2022-09-11T16:22:21.733Z</time>
      </trkpt>
      <trkpt lat="48.17711" lon="16.49162">
        <ele>153.710206</ele>
        <time>2022-09-11T16:22:25.253Z</time>
      </trkpt>
      <trkpt lat="48.17717" lon="16.49126">
        <ele>153.788109</ele>
        <time>2022-09-11T16:22:32.299Z</time>
      </trkpt>
      <trkpt lat="48.17733" lon="16.491">
        <ele>153.862375</ele>
        <time>2022-09-11T16:22:39.096Z</time>
      </trkpt>
      <trkpt lat="48.17757" lon="16.49099">
        <ele>153.939892</ele>
        <time>2022-09-11T16:22:46.095Z</time>
      </trkpt>
      <trkpt lat="48.17768" lon="16.49091">
        <ele>153.977622</ele>
        <time>2022-09-11T16:22:49.325Z</time>
      </trkpt>
      <trkpt lat="48.17838" lon="16.48984">
        <ele>153.953675</ele>
        <time>2022-09-11T16:23:17.169Z</time>
      </trkpt>
      <trkpt lat="48.17862" lon="16.48947">
        <ele>153.852927</ele>
        <time>2022-09-11T16:23:26.067Z</time>
      </trkpt>
      <trkpt lat="48.1787" lon="16.48915">
        <ele>153.785196</ele>
        <time>2022-09-11T16:23:31.640Z</time>
      </trkpt>
      <trkpt lat="48.17875" lon="16.48882">
        <ele>153.71962</ele>
        <time>2022-09-11T16:23:36.743Z</time>
      </trkpt>
      <trkpt lat="48.17902" lon="16.48859">
        <ele>153.62544</ele>
        <time>2022-09-11T16:23:44.325Z</time>
      </trkpt>
      <trkpt lat="48.18001" lon="16.48703">
        <ele>153.197917</ele>
        <time>2022-09-11T16:24:19.856Z</time>
      </trkpt>
      <trkpt lat="48.18265" lon="16.48296">
        <ele>153.506862</ele>
        <time>2022-09-11T16:26:04.910Z</time>
      </trkpt>
      <trkpt lat="48.18288" lon="16.48259">
        <ele>153.514089</ele>
        <time>2022-09-11T16:26:13.499Z</time>
      </trkpt>
      <trkpt lat="48.18307" lon="16.48209">
        <ele>153.446498</ele>
        <time>2022-09-11T16:26:23.278Z</time>
      </trkpt>
      <trkpt lat="48.18352" lon="16.48133">
        <ele>153.327082</ele>
        <time>2022-09-11T16:26:40.025Z</time>
      </trkpt>
      <trkpt lat="48.18409" lon="16.48068">
        <ele>153.209459</ele>
        <time>2022-09-11T16:26:58.743Z</time>
      </trkpt>
      <trkpt lat="48.18491" lon="16.47946">
        <ele>154.396206</ele>
        <time>2022-09-11T16:27:36.272Z</time>
      </trkpt>
      <trkpt lat="48.18563" lon="16.47829">
        <ele>155.214459</ele>
        <time>2022-09-11T16:28:10.688Z</time>
      </trkpt>
      <trkpt lat="48.18596" lon="16.47787">
        <ele>155.388979</ele>
        <time>2022-09-11T16:28:23.606Z</time>
      </trkpt>
      <trkpt lat="48.18622" lon="16.47739">
        <ele>155.554292</ele>
        <time>2022-09-11T16:28:35.122Z</time>
      </trkpt>
      <trkpt lat="48.18762" lon="16.47523">
        <ele>155.342961</ele>
        <time>2022-09-11T16:29:25.530Z</time>
      </trkpt>
      <trkpt lat="48.18793" lon="16.47478">
        <ele>155.291452</ele>
        <time>2022-09-11T16:29:36.906Z</time>
      </trkpt>
      <trkpt lat="48.18811" lon="16.47434">
        <ele>155.403689</ele>
        <time>2022-09-11T16:29:46.231Z</time>
      </trkpt>
      <trkpt lat="48.18835" lon="16.47395">
        <ele>155.519951</ele>
        <time>2022-09-11T16:29:56.207Z</time>
      </trkpt>
      <trkpt lat="48.18874" lon="16.47333">
        <ele>155.705908</ele>
        <time>2022-09-11T16:30:12.834Z</time>
      </trkpt>
      <trkpt lat="48.1889" lon="16.4732">
        <ele>155.766853</ele>
        <time>2022-09-11T16:30:18.356Z</time>
      </trkpt>
      <trkpt lat="48.18911" lon="16.47306">
        <ele>155.840687</ele>
        <time>2022-09-11T16:30:24.812Z</time>
      </trkpt>
      <trkpt lat="48.19157" lon="16.46927">
        <ele>157.244005</ele>
        <time>2022-09-11T16:32:05.299Z</time>
      </trkpt>
      <trkpt lat="48.19169" lon="16.46893">
        <ele>157.258914</ele>
        <time>2022-09-11T16:32:12.907Z</time>
      </trkpt>
      <trkpt lat="48.1919" lon="16.46869">
        <ele>157.236118</ele>
        <time>2022-09-11T16:32:21.000Z</time>
      </trkpt>
      <trkpt lat="48.19218" lon="16.46856">
        <ele>157.211274</ele>
        <time>2022-09-11T16:32:29.346Z</time>
      </trkpt>
      <trkpt lat="48.19307" lon="16.4672">
        <ele>156.834322</ele>
        <time>2022-09-11T16:33:01.293Z</time>
      </trkpt>
      <trkpt lat="48.19323" lon="16.46679">
        <ele>156.416338</ele>
        <time>2022-09-11T16:33:08.251Z</time>
      </trkpt>
      <trkpt lat="48.19325" lon="16.4666">
        <ele>156.251097</ele>
        <time>2022-09-11T16:33:10.904Z</time>
      </trkpt>
      <trkpt lat="48.19341" lon="16.46641">
        <ele>155.980083</ele>
        <time>2022-09-11T16:33:15.269Z</time>
      </trkpt>
      <trkpt lat="48.19419" lon="16.46522">
        <ele>154.747585</ele>
        <time>2022-09-11T16:33:39.244Z</time>
      </trkpt>
      <trkpt lat="48.19469" lon="16.46437">
        <ele>154.870881</ele>
        <time>2022-09-11T16:33:58.784Z</time>
      </trkpt>
      <trkpt lat="48.19485" lon="16.4641">
        <ele>154.909352</ele>
        <time>2022-09-11T16:34:05.906Z</time>
      </trkpt>
      <trkpt lat="48.19557" lon="16.46303">
        <ele>155.453868</ele>
        <time>2022-09-11T16:34:38.854Z</time>
      </trkpt>
      <trkpt lat="48.19608" lon="16.46227">
        <ele>156.290771</ele>
        <time>2022-09-11T16:35:04.336Z</time>
      </trkpt>
      <trkpt lat="48.19765" lon="16.45999">
        <ele>157.797178</ele>
        <time>2022-09-11T16:36:08.774Z</time>
      </trkpt>
      <trkpt lat="48.19788" lon="16.45965">
        <ele>157.9426</ele>
        <time>2022-09-11T16:36:17.412Z</time>
      </trkpt>
      <trkpt lat="48.19809" lon="16.45935">
        <ele>157.936687</ele>
        <time>2022-09-11T16:36:25.002Z</time>
      </trkpt>
      <trkpt lat="48.1992" lon="16.45771">
        <ele>157.885427</ele>
        <time>2022-09-11T16:37:06.373Z</time>
      </trkpt>
      <trkpt lat="48.19963" lon="16.45707">
        <ele>157.664213</ele>
        <time>2022-09-11T16:37:21.583Z</time>
      </trkpt>
      <trkpt lat="48.2001" lon="16.45638">
        <ele>157.427305</ele>
        <time>2022-09-11T16:37:38.005Z</time>
      </trkpt>
      <trkpt lat="48.20022" lon="16.4562">
        <ele>157.366137</ele>
        <time>2022-09-11T16:37:42.329Z</time>
      </trkpt>
      <trkpt lat="48.20048" lon="16.4558">
        <ele>157.225251</ele>
        <time>2022-09-11T16:37:51.660Z</time>
      </trkpt>
      <trkpt lat="48.2013" lon="16.45456">
        <ele>156.717124</ele>
        <time>2022-09-11T16:38:19.976Z</time>
      </trkpt>
      <trkpt lat="48.20134" lon="16.4545">
        <ele>156.693192</ele>
        <time>2022-09-11T16:38:21.283Z</time>
      </trkpt>
      <trkpt lat="48.20155" lon="16.45419">
        <ele>156.564287</ele>
        <time>2022-09-11T16:38:28.646Z</time>
      </trkpt>
      <trkpt lat="48.20171" lon="16.45396">
        <ele>156.471094</ele>
        <time>2022-09-11T16:38:34.555Z</time>
      </trkpt>
      <trkpt lat="48.20253" lon="16.45278">
        <ele>156.631772</ele>
        <time>2022-09-11T16:39:05.462Z</time>
      </trkpt>
      <trkpt lat="48.20358" lon="16.45119">
        <ele>157.175413</ele>
        <time>2022-09-11T16:39:47.598Z</time>
      </trkpt>
      <trkpt lat="48.20445" lon="16.44989">
        <ele>157.714611</ele>
        <time>2022-09-11T16:40:25.141Z</time>
      </trkpt>
      <trkpt lat="48.20461" lon="16.44966">
        <ele>157.732534</ele>
        <time>2022-09-11T16:40:31.283Z</time>
      </trkpt>
      <trkpt lat="48.2048" lon="16.44954">
        <ele>157.748345</ele>
        <time>2022-09-11T16:40:36.478Z</time>
      </trkpt>
      <trkpt lat="48.20505" lon="16.44913">
        <ele>157.77824</ele>
        <time>2022-09-11T16:40:46.314Z</time>
      </trkpt>
      <trkpt lat="48.20527" lon="16.44879">
        <ele>157.803321</ele>
        <time>2022-09-11T16:40:54.647Z</time>
      </trkpt>
      <trkpt lat="48.20549" lon="16.44857">
        <ele>157.824737</ele>
        <time>2022-09-11T16:41:01.776Z</time>
      </trkpt>
      <trkpt lat="48.20559" lon="16.44838">
        <ele>157.832653</ele>
        <time>2022-09-11T16:41:06.014Z</time>
      </trkpt>
      <trkpt lat="48.20561" lon="16.44818">
        <ele>157.761726</ele>
        <time>2022-09-11T16:41:09.578Z</time>
      </trkpt>
      <trkpt lat="48.20575" lon="16.44795">
        <ele>157.652895</ele>
        <time>2022-09-11T16:41:14.873Z</time>
      </trkpt>
      <trkpt lat="48.20634" lon="16.44708">
        <ele>157.223746</ele>
        <time>2022-09-11T16:41:34.529Z</time>
      </trkpt>
      <trkpt lat="48.20878" lon="16.44341">
        <ele>156.051853</ele>
        <time>2022-09-11T16:42:59.631Z</time>
      </trkpt>
      <trkpt lat="48.20899" lon="16.44295">
        <ele>156.067874</ele>
        <time>2022-09-11T16:43:11.020Z</time>
      </trkpt>
      <trkpt lat="48.20937" lon="16.44237">
        <ele>156.182312</ele>
        <time>2022-09-11T16:43:27.471Z</time>
      </trkpt>
      <trkpt lat="48.20958" lon="16.44197">
        <ele>156.402187</ele>
        <time>2022-09-11T16:43:37.580Z</time>
      </trkpt>
      <trkpt lat="48.21008" lon="16.44138">
        <ele>156.815571</ele>
        <time>2022-09-11T16:43:57.337Z</time>
      </trkpt>
      <trkpt lat="48.21051" lon="16.44073">
        <ele>157.208491</ele>
        <time>2022-09-11T16:44:15.157Z</time>
      </trkpt>
      <trkpt lat="48.21121" lon="16.43973">
        <ele>156.956775</ele>
        <time>2022-09-11T16:44:41.857Z</time>
      </trkpt>
      <trkpt lat="48.21137" lon="16.43947">
        <ele>156.879033</ele>
        <time>2022-09-11T16:44:47.220Z</time>
      </trkpt>
      <trkpt lat="48.21143" lon="16.43939">
        <ele>156.854171</ele>
        <time>2022-09-11T16:44:48.855Z</time>
      </trkpt>
      <trkpt lat="48.21157" lon="16.43936">
        <ele>156.804962</ele>
        <time>2022-09-11T16:44:52.258Z</time>
      </trkpt>
      <trkpt lat="48.21201" lon="16.43874">
        <ele>156.641898</ele>
        <time>2022-09-11T16:45:06.683Z</time>
      </trkpt>
      <trkpt lat="48.21211" lon="16.43865">
        <ele>156.626663</ele>
        <time>2022-09-11T16:45:09.558Z</time>
      </trkpt>
      <trkpt lat="48.21245" lon="16.43832">
        <ele>156.574353</ele>
        <time>2022-09-11T16:45:19.360Z</time>
      </trkpt>
      <trkpt lat="48.2127" lon="16.43789">
        <ele>156.525245</ele>
        <time>2022-09-11T16:45:29.108Z</time>
      </trkpt>
      <trkpt lat="48.21303" lon="16.43734">
        <ele>156.462164</ele>
        <time>2022-09-11T16:45:43.256Z</time>
      </trkpt>
      <trkpt lat="48.21322" lon="16.43715">
        <ele>156.431707</ele>
        <time>2022-09-11T16:45:49.645Z</time>
      </trkpt>
      <trkpt lat="48.21365" lon="16.43655">
        <ele>156.764686</ele>
        <time>2022-09-11T16:46:07.146Z</time>
      </trkpt>
      <trkpt lat="48.21379" lon="16.43619">
        <ele>156.921003</ele>
        <time>2022-09-11T16:46:16.138Z</time>
      </trkpt>
      <trkpt lat="48.21531" lon="16.434">
        <ele>157.652768</ele>
        <time>2022-09-11T16:47:16.463Z</time>
      </trkpt>
      <trkpt lat="48.21571" lon="16.4334">
        <ele>157.749007</ele>
        <time>2022-09-11T16:47:31.198Z</time>
      </trkpt>
      <trkpt lat="48.21624" lon="16.43267">
        <ele>157.773617</ele>
        <time>2022-09-11T16:47:49.527Z</time>
      </trkpt>
      <trkpt lat="48.21791" lon="16.4303">
        <ele>158.340096</ele>
        <time>2022-09-11T16:48:52.571Z</time>
      </trkpt>
      <trkpt lat="48.21857" lon="16.42894">
        <ele>158.870598</ele>
        <time>2022-09-11T16:49:27.839Z</time>
      </trkpt>
      <trkpt lat="48.21887" lon="16.42842">
        <ele>159.09028</ele>
        <time>2022-09-11T16:49:41.751Z</time>
      </trkpt>
      <trkpt lat="48.21942" lon="16.42756">
        <ele>159.472098</ele>
        <time>2022-09-11T16:50:03.888Z</time>
      </trkpt>
      <trkpt lat="48.22058" lon="16.42585">
        <ele>158.956341</ele>
        <time>2022-09-11T16:50:43.796Z</time>
      </trkpt>
      <trkpt lat="48.22061" lon="16.4258">
        <ele>158.940683</ele>
        <time>2022-09-11T16:50:44.882Z</time>
      </trkpt>
      <trkpt lat="48.22172" lon="16.4243">
        <ele>159.180401</ele>
        <time>2022-09-11T16:51:26.292Z</time>
      </trkpt>
      <trkpt lat="48.2218" lon="16.42419">
        <ele>159.205695</ele>
        <time>2022-09-11T16:51:29.570Z</time>
      </trkpt>
      <trkpt lat="48.22268" lon="16.423">
        <ele>159.276237</ele>
        <time>2022-09-11T16:52:04.033Z</time>
      </trkpt>
      <trkpt lat="48.22276" lon="16.4229">
        <ele>159.2733</ele>
        <time>2022-09-11T16:52:06.733Z</time>
      </trkpt>
      <trkpt lat="48.22301" lon="16.42256">
        <ele>159.263773</ele>
        <time>2022-09-11T16:52:15.530Z</time>
      </trkpt>
      <trkpt lat="48.22327" lon="16.42221">
        <ele>159.253775</ele>
        <time>2022-09-11T16:52:23.999Z</time>
      </trkpt>
      <trkpt lat="48.22368" lon="16.42165">
        <ele>159.148483</ele>
        <time>2022-09-11T16:52:36.868Z</time>
      </trkpt>
      <trkpt lat="48.2246" lon="16.4204">
        <ele>158.78354</ele>
        <time>2022-09-11T16:53:08.204Z</time>
      </trkpt>
      <trkpt lat="48.22468" lon="16.42028">
        <ele>158.751023</ele>
        <time>2022-09-11T16:53:11.431Z</time>
      </trkpt>
      <trkpt lat="48.22554" lon="16.41903">
        <ele>159.260849</ele>
        <time>2022-09-11T16:53:46.087Z</time>
      </trkpt>
      <trkpt lat="48.22561" lon="16.41892">
        <ele>159.31427</ele>
        <time>2022-09-11T16:53:49.305Z</time>
      </trkpt>
      <trkpt lat="48.22572" lon="16.41876">
        <ele>159.387999</ele>
        <time>2022-09-11T16:53:54.190Z</time>
      </trkpt>
      <trkpt lat="48.22608" lon="16.4182">
        <ele>159.632528</ele>
        <time>2022-09-11T16:54:10.122Z</time>
      </trkpt>
      <trkpt lat="48.22623" lon="16.41798">
        <ele>159.689394</ele>
        <time>2022-09-11T16:54:15.963Z</time>
      </trkpt>
      <trkpt lat="48.22635" lon="16.41779">
        <ele>159.737069</ele>
        <time>2022-09-11T16:54:20.750Z</time>
      </trkpt>
      <trkpt lat="48.22673" lon="16.4172">
        <ele>159.885759</ele>
        <time>2022-09-11T16:54:34.842Z</time>
      </trkpt>
      <trkpt lat="48.22676" lon="16.41715">
        <ele>159.898953</ele>
        <time>2022-09-11T16:54:36.073Z</time>
      </trkpt>
      <trkpt lat="48.2268" lon="16.41709">
        <ele>159.913491</ele>
        <time>2022-09-11T16:54:37.423Z</time>
      </trkpt>
      <trkpt lat="48.22684" lon="16.41702">
        <ele>159.930924</ele>
        <time>2022-09-11T16:54:38.917Z</time>
      </trkpt>
      <trkpt lat="48.22711" lon="16.41663">
        <ele>160.033266</ele>
        <time>2022-09-11T16:54:48.478Z</time>
      </trkpt>
      <trkpt lat="48.22714" lon="16.41658">
        <ele>160.046067</ele>
        <time>2022-09-11T16:54:49.754Z</time>
      </trkpt>
      <trkpt lat="48.22758" lon="16.41591">
        <ele>160.659883</ele>
        <time>2022-09-11T16:55:09.947Z</time>
      </trkpt>
      <trkpt lat="48.22803" lon="16.41526">
        <ele>161.52302</ele>
        <time>2022-09-11T16:55:31.638Z</time>
      </trkpt>
      <trkpt lat="48.22852" lon="16.41456">
        <ele>162.448671</ele>
        <time>2022-09-11T16:55:55.323Z</time>
      </trkpt>
      <trkpt lat="48.22877" lon="16.41422">
        <ele>162.736723</ele>
        <time>2022-09-11T16:56:06.484Z</time>
      </trkpt>
      <trkpt lat="48.2291" lon="16.4138">
        <ele>163.016779</ele>
        <time>2022-09-11T16:56:19.816Z</time>
      </trkpt>
      <trkpt lat="48.22914" lon="16.41375">
        <ele>163.053988</ele>
        <time>2022-09-11T16:56:21.755Z</time>
      </trkpt>
      <trkpt lat="48.22924" lon="16.41361">
        <ele>163.13845</ele>
        <time>2022-09-11T16:56:25.925Z</time>
      </trkpt>
      <trkpt lat="48.22949" lon="16.41326">
        <ele>163.363563</ele>
        <time>2022-09-11T16:56:36.739Z</time>
      </trkpt>
      <trkpt lat="48.22973" lon="16.41294">
        <ele>163.573075</ele>
        <time>2022-09-11T16:56:46.444Z</time>
      </trkpt>
      <trkpt lat="48.22992" lon="16.4127">
        <ele>163.733279</ele>
        <time>2022-09-11T16:56:52.985Z</time>
      </trkpt>
      <trkpt lat="48.23043" lon="16.41206">
        <ele>162.58512</ele>
        <time>2022-09-11T16:57:07.622Z</time>
      </trkpt>
      <trkpt lat="48.23045" lon="16.41222">
        <ele>162.388428</ele>
        <time>2022-09-11T16:57:09.832Z</time>
      </trkpt>
      <trkpt lat="48.23047" lon="16.4126">
        <ele>161.934881</ele>
        <time>2022-09-11T16:57:14.828Z</time>
      </trkpt>
      <trkpt lat="48.23023" lon="16.41295">
        <ele>161.317426</ele>
        <time>2022-09-11T16:57:21.450Z</time>
      </trkpt>
      <trkpt lat="48.2302" lon="16.41298">
        <ele>161.259231</ele>
        <time>2022-09-11T16:57:22.101Z</time>
      </trkpt>
      <trkpt lat="48.22937" lon="16.41144">
        <ele>159.78898</ele>
        <time>2022-09-11T16:57:50.683Z</time>
      </trkpt>
      <trkpt lat="48.22914" lon="16.41102">
        <ele>159.507999</ele>
        <time>2022-09-11T16:57:58.985Z</time>
      </trkpt>
      <trkpt lat="48.22814" lon="16.40916">
        <ele>159.613663</ele>
        <time>2022-09-11T16:58:48.597Z</time>
      </trkpt>
      <trkpt lat="48.22617" lon="16.40547">
        <ele>160.6407</ele>
        <time>2022-09-11T17:00:12.789Z</time>
      </trkpt>
      <trkpt lat="48.22615" lon="16.40543">
        <ele>160.676914</ele>
        <time>2022-09-11T17:00:13.849Z</time>
      </trkpt>
      <trkpt lat="48.22614" lon="16.40541">
        <ele>160.694116</ele>
        <time>2022-09-11T17:00:14.360Z</time>
      </trkpt>
      <trkpt lat="48.22564" lon="16.40448">
        <ele>161.512114</ele>
        <time>2022-09-11T17:00:40.449Z</time>
      </trkpt>
      <trkpt lat="48.22563" lon="16.40446">
        <ele>161.530491</ele>
        <time>2022-09-11T17:00:41.033Z</time>
      </trkpt>
      <trkpt lat="48.22561" lon="16.40443">
        <ele>161.555207</ele>
        <time>2022-09-11T17:00:41.844Z</time>
      </trkpt>
      <trkpt lat="48.22492" lon="16.40294">
        <ele>163.628639</ele>
        <time>2022-09-11T17:01:26.921Z</time>
      </trkpt>
      <trkpt lat="48.22478" lon="16.40272">
        <ele>164.027755</ele>
        <time>2022-09-11T17:01:34.597Z</time>
      </trkpt>
      <trkpt lat="48.22442" lon="16.40204">
        <ele>165.16133</ele>
        <time>2022-09-11T17:01:55.619Z</time>
      </trkpt>
      <trkpt lat="48.22427" lon="16.40187">
        <ele>165.435756</ele>
        <time>2022-09-11T17:02:02.439Z</time>
      </trkpt>
      <trkpt lat="48.2242" lon="16.40171">
        <ele>165.505525</ele>
        <time>2022-09-11T17:02:06.638Z</time>
      </trkpt>
      <trkpt lat="48.22411" lon="16.4016">
        <ele>165.572475</ele>
        <time>2022-09-11T17:02:10.549Z</time>
      </trkpt>
      <trkpt lat="48.22336" lon="16.40026">
        <ele>166.226018</ele>
        <time>2022-09-11T17:02:43.039Z</time>
      </trkpt>
      <trkpt lat="48.22331" lon="16.40014">
        <ele>166.278513</ele>
        <time>2022-09-11T17:02:45.585Z</time>
      </trkpt>
      <trkpt lat="48.22257" lon="16.39874">
        <ele>166.539149</ele>
        <time>2022-09-11T17:03:17.809Z</time>
      </trkpt>
      <trkpt lat="48.22252" lon="16.39864">
        <ele>166.550292</ele>
        <time>2022-09-11T17:03:20.201Z</time>
      </trkpt>
      <trkpt lat="48.22167" lon="16.39708">
        <ele>166.239365</ele>
        <time>2022-09-11T17:03:57.475Z</time>
      </trkpt>
      <trkpt lat="48.22149" lon="16.39674">
        <ele>166.038352</ele>
        <time>2022-09-11T17:04:04.582Z</time>
      </trkpt>
      <trkpt lat="48.22138" lon="16.39653">
        <ele>165.912106</ele>
        <time>2022-09-11T17:04:08.936Z</time>
      </trkpt>
      <trkpt lat="48.22113" lon="16.39607">
        <ele>165.631586</ele>
        <time>2022-09-11T17:04:17.969Z</time>
      </trkpt>
      <trkpt lat="48.22086" lon="16.39552">
        <ele>165.138407</ele>
        <time>2022-09-11T17:04:27.848Z</time>
      </trkpt>
      <trkpt lat="48.22075" lon="16.39538">
        <ele>164.80668</ele>
        <time>2022-09-11T17:04:30.889Z</time>
      </trkpt>
      <trkpt lat="48.2203" lon="16.39458">
        <ele>163.194552</ele>
        <time>2022-09-11T17:04:45.044Z</time>
      </trkpt>
      <trkpt lat="48.22012" lon="16.39424">
        <ele>162.533601</ele>
        <time>2022-09-11T17:04:50.665Z</time>
      </trkpt>
      <trkpt lat="48.22007" lon="16.39398">
        <ele>162.130292</ele>
        <time>2022-09-11T17:04:54.114Z</time>
      </trkpt>
      <trkpt lat="48.21978" lon="16.39344">
        <ele>161.254807</ele>
        <time>2022-09-11T17:05:03.858Z</time>
      </trkpt>
      <trkpt lat="48.21966" lon="16.39336">
        <ele>161.251743</ele>
        <time>2022-09-11T17:05:06.724Z</time>
      </trkpt>
      <trkpt lat="48.21952" lon="16.39299">
        <ele>161.245336</ele>
        <time>2022-09-11T17:05:13.339Z</time>
      </trkpt>
      <trkpt lat="48.21954" lon="16.39261">
        <ele>161.23947</ele>
        <time>2022-09-11T17:05:19.729Z</time>
      </trkpt>
      <trkpt lat="48.2195" lon="16.39204">
        <ele>161.230803</ele>
        <time>2022-09-11T17:05:30.786Z</time>
      </trkpt>
      <trkpt lat="48.21921" lon="16.39107">
        <ele>161.333235</ele>
        <time>2022-09-11T17:05:52.179Z</time>
      </trkpt>
      <trkpt lat="48.21917" lon="16.39097">
        <ele>161.527879</ele>
        <time>2022-09-11T17:05:55.008Z</time>
      </trkpt>
      <trkpt lat="48.21913" lon="16.39093">
        <ele>161.64715</ele>
        <time>2022-09-11T17:05:56.723Z</time>
      </trkpt>
      <trkpt lat="48.21899" lon="16.3909">
        <ele>162.013546</ele>
        <time>2022-09-11T17:06:02.180Z</time>
      </trkpt>
      <trkpt lat="48.21893" lon="16.39084">
        <ele>162.177677</ele>
        <time>2022-09-11T17:06:04.591Z</time>
      </trkpt>
      <trkpt lat="48.21891" lon="16.39081">
        <ele>162.260734</ele>
        <time>2022-09-11T17:06:05.878Z</time>
      </trkpt>
      <trkpt lat="48.21889" lon="16.39077">
        <ele>162.337737</ele>
        <time>2022-09-11T17:06:07.192Z</time>
      </trkpt>
      <trkpt lat="48.21887" lon="16.39072">
        <ele>162.427364</ele>
        <time>2022-09-11T17:06:08.797Z</time>
      </trkpt>
      <trkpt lat="48.21884" lon="16.39065">
        <ele>162.577193</ele>
        <time>2022-09-11T17:06:11.328Z</time>
      </trkpt>
      <trkpt lat="48.2188" lon="16.39056">
        <ele>162.760602</ele>
        <time>2022-09-11T17:06:14.202Z</time>
      </trkpt>
      <trkpt lat="48.21874" lon="16.39059">
        <ele>162.93386</ele>
        <time>2022-09-11T17:06:17.001Z</time>
      </trkpt>
      <trkpt lat="48.2183" lon="16.39026">
        <ele>164.160034</ele>
        <time>2022-09-11T17:06:37.728Z</time>
      </trkpt>
      <trkpt lat="48.218" lon="16.39022">
        <ele>164.934027</ele>
        <time>2022-09-11T17:06:50.854Z</time>
      </trkpt>
      <trkpt lat="48.21786" lon="16.39011">
        <ele>165.320968</ele>
        <time>2022-09-11T17:06:57.798Z</time>
      </trkpt>
      <trkpt lat="48.21781" lon="16.39009">
        <ele>165.449637</ele>
        <time>2022-09-11T17:06:59.894Z</time>
      </trkpt>
      <trkpt lat="48.21762" lon="16.38972">
        <ele>166.091864</ele>
        <time>2022-09-11T17:07:13.094Z</time>
      </trkpt>
      <trkpt lat="48.21717" lon="16.38882">
        <ele>167.382998</ele>
        <time>2022-09-11T17:07:39.658Z</time>
      </trkpt>
      <trkpt lat="48.21649" lon="16.38755">
        <ele>169.143953</ele>
        <time>2022-09-11T17:08:14.107Z</time>
      </trkpt>
      <trkpt lat="48.21638" lon="16.38732">
        <ele>169.38823</ele>
        <time>2022-09-11T17:08:20.477Z</time>
      </trkpt>
      <trkpt lat="48.21622" lon="16.387">
        <ele>169.720743</ele>
        <time>2022-09-11T17:08:29.215Z</time>
      </trkpt>
      <trkpt lat="48.21617" lon="16.38685">
        <ele>169.861484</ele>
        <time>2022-09-11T17:08:32.982Z</time>
      </trkpt>
      <trkpt lat="48.21611" lon="16.38672">
        <ele>169.989996</ele>
        <time>2022-09-11T17:08:36.481Z</time>
      </trkpt>
      <trkpt lat="48.21588" lon="16.38631">
        <ele>170.441189</ele>
        <time>2022-09-11T17:08:48.287Z</time>
      </trkpt>
      <trkpt lat="48.21539" lon="16.38544">
        <ele>171.309383</ele>
        <time>2022-09-11T17:09:14.865Z</time>
      </trkpt>
      <trkpt lat="48.21486" lon="16.38455">
        <ele>172.006403</ele>
        <time>2022-09-11T17:09:43.162Z</time>
      </trkpt>
      <trkpt lat="48.21482" lon="16.38448">
        <ele>172.054201</ele>
        <time>2022-09-11T17:09:45.100Z</time>
      </trkpt>
      <trkpt lat="48.21471" lon="16.38428">
        <ele>172.20588</ele>
        <time>2022-09-11T17:09:51.206Z</time>
      </trkpt>
      <trkpt lat="48.2147" lon="16.38426">
        <ele>172.225921</ele>
        <time>2022-09-11T17:09:51.924Z</time>
      </trkpt>
      <trkpt lat="48.21466" lon="16.38417">
        <ele>172.287029</ele>
        <time>2022-09-11T17:09:53.982Z</time>
      </trkpt>
      <trkpt lat="48.21464" lon="16.38414">
        <ele>172.309828</ele>
        <time>2022-09-11T17:09:54.686Z</time>
      </trkpt>
      <trkpt lat="48.21458" lon="16.38395">
        <ele>172.431545</ele>
        <time>2022-09-11T17:09:58.957Z</time>
      </trkpt>
      <trkpt lat="48.21386" lon="16.38282">
        <ele>171.629258</ele>
        <time>2022-09-11T17:10:23.930Z</time>
      </trkpt>
      <trkpt lat="48.21374" lon="16.38274">
        <ele>171.436279</ele>
        <time>2022-09-11T17:10:27.194Z</time>
      </trkpt>
      <trkpt lat="48.21371" lon="16.38266">
        <ele>171.350443</ele>
        <time>2022-09-11T17:10:28.546Z</time>
      </trkpt>
      <trkpt lat="48.21367" lon="16.38258">
        <ele>171.2522</ele>
        <time>2022-09-11T17:10:29.970Z</time>
      </trkpt>
      <trkpt lat="48.21352" lon="16.38221">
        <ele>170.842355</ele>
        <time>2022-09-11T17:10:36.058Z</time>
      </trkpt>
      <trkpt lat="48.21301" lon="16.38114">
        <ele>169.859187</ele>
        <time>2022-09-11T17:10:54.636Z</time>
      </trkpt>
      <trkpt lat="48.21267" lon="16.38028">
        <ele>169.392866</ele>
        <time>2022-09-11T17:11:09.490Z</time>
      </trkpt>
      <trkpt lat="48.21246" lon="16.38017">
        <ele>169.240362</ele>
        <time>2022-09-11T17:11:15.044Z</time>
      </trkpt>
      <trkpt lat="48.21255" lon="16.37934">
        <ele>168.87093</ele>
        <time>2022-09-11T17:11:32.306Z</time>
      </trkpt>
      <trkpt lat="48.21257" lon="16.37923">
        <ele>168.907316</ele>
        <time>2022-09-11T17:11:34.834Z</time>
      </trkpt>
      <trkpt lat="48.21259" lon="16.37912">
        <ele>168.945116</ele>
        <time>2022-09-11T17:11:37.284Z</time>
      </trkpt>
      <trkpt lat="48.21264" lon="16.37903">
        <ele>168.980772</ele>
        <time>2022-09-11T17:11:39.730Z</time>
      </trkpt>
      <trkpt lat="48.21276" lon="16.37854">
        <ele>169.151436</ele>
        <time>2022-09-11T17:11:51.534Z</time>
      </trkpt>
      <trkpt lat="48.21293" lon="16.37774">
        <ele>169.423054</ele>
        <time>2022-09-11T17:12:09.928Z</time>
      </trkpt>
      <trkpt lat="48.21303" lon="16.37744">
        <ele>169.530132</ele>
        <time>2022-09-11T17:12:16.204Z</time>
      </trkpt>
      <trkpt lat="48.21304" lon="16.37741">
        <ele>169.540368</ele>
        <time>2022-09-11T17:12:16.836Z</time>
      </trkpt>
      <trkpt lat="48.21307" lon="16.37732">
        <ele>169.572867</ele>
        <time>2022-09-11T17:12:18.748Z</time>
      </trkpt>
      <trkpt lat="48.21309" lon="16.37728">
        <ele>169.590334</ele>
        <time>2022-09-11T17:12:19.710Z</time>
      </trkpt>
      <trkpt lat="48.21303" lon="16.37724">
        <ele>169.621125</ele>
        <time>2022-09-11T17:12:21.386Z</time>
      </trkpt>
      <trkpt lat="48.21297" lon="16.37719">
        <ele>169.654156</ele>
        <time>2022-09-11T17:12:23.098Z</time>
      </trkpt>
      <trkpt lat="48.21296" lon="16.37719">
        <ele>169.660214</ele>
        <time>2022-09-11T17:12:23.460Z</time>
      </trkpt>
      <trkpt lat="48.21237" lon="16.37664">
        <ele>169.600943</ele>
        <time>2022-09-11T17:12:39.968Z</time>
      </trkpt>
      <trkpt lat="48.21235" lon="16.37663">
        <ele>169.594998</ele>
        <time>2022-09-11T17:12:40.594Z</time>
      </trkpt>
      <trkpt lat="48.21239" lon="16.37653">
        <ele>169.576382</ele>
        <time>2022-09-11T17:12:42.221Z</time>
      </trkpt>
      <trkpt lat="48.21287" lon="16.37564">
        <ele>169.39269</ele>
        <time>2022-09-11T17:12:59.909Z</time>
      </trkpt>
      <trkpt lat="48.21335" lon="16.37503">
        <ele>170.177849</ele>
        <time>2022-09-11T17:13:19.014Z</time>
      </trkpt>
      <trkpt lat="48.214" lon="16.37443">
        <ele>172.947183</ele>
        <time>2022-09-11T17:13:53.711Z</time>
      </trkpt>
      <trkpt lat="48.21396" lon="16.37429">
        <ele>173.317138</ele>
        <time>2022-09-11T17:13:58.403Z</time>
      </trkpt>
      <trkpt lat="48.21392" lon="16.37412">
        <ele>173.748245</ele>
        <time>2022-09-11T17:14:04.664Z</time>
      </trkpt>
      <trkpt lat="48.21397" lon="16.37405">
        <ele>174.011059</ele>
        <time>2022-09-11T17:14:08.338Z</time>
      </trkpt>
      <trkpt lat="48.21394" lon="16.374">
        <ele>174.183197</ele>
        <time>2022-09-11T17:14:10.961Z</time>
      </trkpt>
      <trkpt lat="48.21388" lon="16.37391">
        <ele>174.462712</ele>
        <time>2022-09-11T17:14:14.722Z</time>
      </trkpt>
      <trkpt lat="48.21386" lon="16.37387">
        <ele>174.614624</ele>
        <time>2022-09-11T17:14:16.811Z</time>
      </trkpt>
      <trkpt lat="48.21345" lon="16.37321">
        <ele>176.734784</ele>
        <time>2022-09-11T17:14:47.603Z</time>
      </trkpt>
      <trkpt lat="48.21381" lon="16.37259">
        <ele>178.617052</ele>
        <time>2022-09-11T17:15:12.646Z</time>
      </trkpt>
      <trkpt lat="48.21354" lon="16.37226">
        <ele>179.80258</ele>
        <time>2022-09-11T17:15:27.989Z</time>
      </trkpt>
      <trkpt lat="48.21402" lon="16.37131">
        <ele>182.240598</ele>
        <time>2022-09-11T17:15:57.981Z</time>
      </trkpt>
      <trkpt lat="48.21423" lon="16.37081">
        <ele>182.772986</ele>
        <time>2022-09-11T17:16:10.325Z</time>
      </trkpt>
      <trkpt lat="48.21374" lon="16.37008">
        <ele>183.704285</ele>
        <time>2022-09-11T17:16:32.035Z</time>
      </trkpt>
      <trkpt lat="48.21356" lon="16.36976">
        <ele>184.080699</ele>
        <time>2022-09-11T17:16:40.748Z</time>
      </trkpt>
      <trkpt lat="48.21355" lon="16.36973">
        <ele>184.112276</ele>
        <time>2022-09-11T17:16:41.541Z</time>
      </trkpt>
      <trkpt lat="48.21343" lon="16.36941">
        <ele>184.43887</ele>
        <time>2022-09-11T17:16:49.349Z</time>
      </trkpt>
      <trkpt lat="48.2133" lon="16.36928">
        <ele>184.670933</ele>
        <time>2022-09-11T17:16:54.873Z</time>
      </trkpt>
      <trkpt lat="48.21269" lon="16.36853">
        <ele>185.842492</ele>
        <time>2022-09-11T17:17:22.430Z</time>
      </trkpt>
      <trkpt lat="48.21204" lon="16.36762">
        <ele>187.1553</ele>
        <time>2022-09-11T17:17:52.156Z</time>
      </trkpt>
      <trkpt lat="48.21174" lon="16.36717">
        <ele>187.702572</ele>
        <time>2022-09-11T17:18:06.123Z</time>
      </trkpt>
      <trkpt lat="48.21127" lon="16.36634">
        <ele>188.639766</ele>
        <time>2022-09-11T17:18:30.515Z</time>
      </trkpt>
      <trkpt lat="48.21041" lon="16.36563">
        <ele>189.335887</ele>
        <time>2022-09-11T17:19:02.371Z</time>
      </trkpt>
      <trkpt lat="48.21015" lon="16.36539">
        <ele>189.219749</ele>
        <time>2022-09-11T17:19:10.550Z</time>
      </trkpt>
      <trkpt lat="48.20996" lon="16.36554">
        <ele>189.136161</ele>
        <time>2022-09-11T17:19:15.885Z</time>
      </trkpt>
      <trkpt lat="48.2095" lon="16.36588">
        <ele>188.941008</ele>
        <time>2022-09-11T17:19:27.833Z</time>
      </trkpt>
      <trkpt lat="48.2082" lon="16.3665">
        <ele>188.111727</ele>
        <time>2022-09-11T17:19:58.190Z</time>
      </trkpt>
      <trkpt lat="48.20815" lon="16.36675">
        <ele>187.989383</ele>
        <time>2022-09-11T17:20:02.524Z</time>
      </trkpt>
      <trkpt lat="48.20801" lon="16.36686">
        <ele>187.878434</ele>
        <time>2022-09-11T17:20:06.266Z</time>
      </trkpt>
      <trkpt lat="48.20786" lon="16.3668">
        <ele>187.771163</ele>
        <time>2022-09-11T17:20:10.216Z</time>
      </trkpt>
      <trkpt lat="48.20781" lon="16.36673">
        <ele>187.721529</ele>
        <time>2022-09-11T17:20:12.323Z</time>
      </trkpt>
      <trkpt lat="48.2078" lon="16.36669">
        <ele>187.701994</ele>
        <time>2022-09-11T17:20:12.996Z</time>
      </trkpt>
      <trkpt lat="48.20781" lon="16.36673">
        <ele>187.682459</ele>
        <time>2022-09-11T17:20:13.879Z</time>
      </trkpt>
      <trkpt lat="48.20786" lon="16.3668">
        <ele>187.632825</ele>
        <time>2022-09-11T17:20:15.700Z</time>
      </trkpt>
      <trkpt lat="48.20801" lon="16.36686">
        <ele>187.525554</ele>
        <time>2022-09-11T17:20:20.183Z</time>
      </trkpt>
      <trkpt lat="48.20815" lon="16.36675">
        <ele>187.616103</ele>
        <time>2022-09-11T17:20:25.367Z</time>
      </trkpt>
      <trkpt lat="48.2082" lon="16.3665">
        <ele>187.780236</ele>
        <time>2022-09-11T17:20:30.768Z</time>
      </trkpt>
      <trkpt lat="48.2095" lon="16.36588">
        <ele>189.081561</ele>
        <time>2022-09-11T17:21:16.596Z</time>
      </trkpt>
      <trkpt lat="48.20996" lon="16.36554">
        <ele>188.875511</ele>
        <time>2022-09-11T17:21:31.047Z</time>
      </trkpt>
      <trkpt lat="48.21015" lon="16.36539">
        <ele>188.679411</ele>
        <time>2022-09-11T17:21:36.602Z</time>
      </trkpt>
      <trkpt lat="48.21041" lon="16.36521">
        <ele>188.423818</ele>
        <time>2022-09-11T17:21:43.165Z</time>
      </trkpt>
      <trkpt lat="48.21074" lon="16.36498">
        <ele>188.095312</ele>
        <time>2022-09-11T17:21:51.184Z</time>
      </trkpt>
      <trkpt lat="48.21092" lon="16.36486">
        <ele>187.919381</ele>
        <time>2022-09-11T17:21:55.321Z</time>
      </trkpt>
      <trkpt lat="48.21134" lon="16.36459">
        <ele>187.527782</ele>
        <time>2022-09-11T17:22:08.309Z</time>
      </trkpt>
      <trkpt lat="48.21161" lon="16.36448">
        <ele>187.319223</ele>
        <time>2022-09-11T17:22:16.429Z</time>
      </trkpt>
      <trkpt lat="48.21179" lon="16.36445">
        <ele>187.185088</ele>
        <time>2022-09-11T17:22:21.817Z</time>
      </trkpt>
      <trkpt lat="48.21193" lon="16.36427">
        <ele>187.043779</ele>
        <time>2022-09-11T17:22:27.710Z</time>
      </trkpt>
      <trkpt lat="48.21199" lon="16.36411">
        <ele>186.956816</ele>
        <time>2022-09-11T17:22:31.510Z</time>
      </trkpt>
      <trkpt lat="48.21205" lon="16.36416">
        <ele>186.90111</ele>
        <time>2022-09-11T17:22:33.238Z</time>
      </trkpt>
      <trkpt lat="48.21287" lon="16.36358">
        <ele>186.268654</ele>
        <time>2022-09-11T17:22:57.198Z</time>
      </trkpt>
      <trkpt lat="48.21294" lon="16.36354">
        <ele>186.280564</ele>
        <time>2022-09-11T17:22:59.305Z</time>
      </trkpt>
      <trkpt lat="48.21325" lon="16.36323">
        <ele>186.348097</ele>
        <time>2022-09-11T17:23:11.074Z</time>
      </trkpt>
      <trkpt lat="48.2138" lon="16.36266">
        <ele>186.465046</ele>
        <time>2022-09-11T17:23:30.720Z</time>
      </trkpt>
      <trkpt lat="48.21387" lon="16.36281">
        <ele>186.487288</ele>
        <time>2022-09-11T17:23:34.869Z</time>
      </trkpt>
      <trkpt lat="48.21389" lon="16.36284">
        <ele>186.491607</ele>
        <time>2022-09-11T17:23:35.632Z</time>
      </trkpt>
      <trkpt lat="48.21403" lon="16.36293">
        <ele>186.518914</ele>
        <time>2022-09-11T17:23:39.635Z</time>
      </trkpt>
      <trkpt lat="48.21444" lon="16.36382">
        <ele>185.968082</ele>
        <time>2022-09-11T17:23:56.718Z</time>
      </trkpt>
      <trkpt lat="48.21491" lon="16.36485">
        <ele>184.624877</ele>
        <time>2022-09-11T17:24:14.324Z</time>
      </trkpt>
      <trkpt lat="48.21515" lon="16.3654">
        <ele>183.922098</ele>
        <time>2022-09-11T17:24:23.460Z</time>
      </trkpt>
      <trkpt lat="48.21521" lon="16.36551">
        <ele>183.772965</ele>
        <time>2022-09-11T17:24:25.432Z</time>
      </trkpt>
      <trkpt lat="48.21526" lon="16.36563">
        <ele>183.597533</ele>
        <time>2022-09-11T17:24:27.580Z</time>
      </trkpt>
      <trkpt lat="48.21584" lon="16.36691">
        <ele>181.48449</ele>
        <time>2022-09-11T17:24:49.675Z</time>
      </trkpt>
      <trkpt lat="48.2159" lon="16.36704">
        <ele>181.268042</ele>
        <time>2022-09-11T17:24:51.909Z</time>
      </trkpt>
      <trkpt lat="48.21616" lon="16.3676">
        <ele>180.326007</ele>
        <time>2022-09-11T17:25:01.594Z</time>
      </trkpt>
      <trkpt lat="48.21678" lon="16.36893">
        <ele>176.470111</ele>
        <time>2022-09-11T17:25:23.043Z</time>
      </trkpt>
      <trkpt lat="48.21735" lon="16.37017">
        <ele>172.577098</ele>
        <time>2022-09-11T17:25:41.203Z</time>
      </trkpt>
      <trkpt lat="48.21731" lon="16.37036">
        <ele>172.00834</ele>
        <time>2022-09-11T17:25:43.679Z</time>
      </trkpt>
      <trkpt lat="48.21747" lon="16.37019">
        <ele>171.20538</ele>
        <time>2022-09-11T17:25:47.142Z</time>
      </trkpt>
      <trkpt lat="48.21757" lon="16.37006">
        <ele>170.650728</ele>
        <time>2022-09-11T17:25:49.601Z</time>
      </trkpt>
      <trkpt lat="48.21805" lon="16.36963">
        <ele>168.33877</ele>
        <time>2022-09-11T17:25:59.894Z</time>
      </trkpt>
      <trkpt lat="48.21809" lon="16.3696">
        <ele>168.145021</ele>
        <time>2022-09-11T17:26:00.759Z</time>
      </trkpt>
      <trkpt lat="48.21814" lon="16.36956">
        <ele>167.915457</ele>
        <time>2022-09-11T17:26:01.831Z</time>
      </trkpt>
      <trkpt lat="48.21822" lon="16.3695">
        <ele>167.545243</ele>
        <time>2022-09-11T17:26:03.538Z</time>
      </trkpt>
      <trkpt lat="48.21829" lon="16.36948">
        <ele>167.26705</ele>
        <time>2022-09-11T17:26:04.810Z</time>
      </trkpt>
      <trkpt lat="48.21833" lon="16.36945">
        <ele>167.073143</ele>
        <time>2022-09-11T17:26:05.742Z</time>
      </trkpt>
      <trkpt lat="48.21842" lon="16.36954">
        <ele>166.604024</ele>
        <time>2022-09-11T17:26:07.928Z</time>
      </trkpt>
      <trkpt lat="48.21856" lon="16.36967">
        <ele>165.96085</ele>
        <time>2022-09-11T17:26:11.022Z</time>
      </trkpt>
      <trkpt lat="48.21863" lon="16.36964">
        <ele>165.636234</ele>
        <time>2022-09-11T17:26:12.615Z</time>
      </trkpt>
      <trkpt lat="48.21929" lon="16.36877">
        <ele>163.95249</ele>
        <time>2022-09-11T17:26:30.873Z</time>
      </trkpt>
      <trkpt lat="48.21935" lon="16.3688">
        <ele>163.842759</ele>
        <time>2022-09-11T17:26:32.099Z</time>
      </trkpt>
      <trkpt lat="48.2198" lon="16.36838">
        <ele>162.824421</ele>
        <time>2022-09-11T17:26:43.807Z</time>
      </trkpt>
      <trkpt lat="48.22051" lon="16.36803">
        <ele>161.636212</ele>
        <time>2022-09-11T17:27:00.981Z</time>
      </trkpt>
      <trkpt lat="48.22151" lon="16.36783">
        <ele>160.324168</ele>
        <time>2022-09-11T17:27:23.314Z</time>
      </trkpt>
      <trkpt lat="48.22256" lon="16.36774">
        <ele>159.610057</ele>
        <time>2022-09-11T17:27:46.587Z</time>
      </trkpt>
      <trkpt lat="48.22317" lon="16.36772">
        <ele>159.417837</ele>
        <time>2022-09-11T17:28:02.538Z</time>
      </trkpt>
      <trkpt lat="48.22338" lon="16.36771">
        <ele>159.350531</ele>
        <time>2022-09-11T17:28:08.304Z</time>
      </trkpt>
      <trkpt lat="48.22365" lon="16.36771">
        <ele>159.264666</ele>
        <time>2022-09-11T17:28:16.010Z</time>
      </trkpt>
      <trkpt lat="48.22421" lon="16.36766">
        <ele>160.39626</ele>
        <time>2022-09-11T17:28:36.202Z</time>
      </trkpt>
      <trkpt lat="48.22463" lon="16.36753">
        <ele>161.324441</ele>
        <time>2022-09-11T17:28:52.153Z</time>
      </trkpt>
      <trkpt lat="48.22511" lon="16.36733">
        <ele>162.412126</ele>
        <time>2022-09-11T17:29:11.373Z</time>
      </trkpt>
      <trkpt lat="48.2254" lon="16.36713">
        <ele>163.100181</ele>
        <time>2022-09-11T17:29:24.883Z</time>
      </trkpt>
      <trkpt lat="48.22567" lon="16.36693">
        <ele>163.695742</ele>
        <time>2022-09-11T17:29:36.759Z</time>
      </trkpt>
      <trkpt lat="48.22605" lon="16.3666">
        <ele>164.574846</ele>
        <time>2022-09-11T17:29:53.928Z</time>
      </trkpt>
      <trkpt lat="48.22624" lon="16.36634">
        <ele>165.076904</ele>
        <time>2022-09-11T17:30:03.840Z</time>
      </trkpt>
      <trkpt lat="48.22742" lon="16.36471">
        <ele>167.227495</ele>
        <time>2022-09-11T17:30:55.988Z</time>
      </trkpt>
      <trkpt lat="48.22781" lon="16.3642">
        <ele>167.557565</ele>
        <time>2022-09-11T17:31:10.913Z</time>
      </trkpt>
      <trkpt lat="48.22873" lon="16.3633">
        <ele>167.211137</ele>
        <time>2022-09-11T17:31:40.453Z</time>
      </trkpt>
      <trkpt lat="48.22974" lon="16.36266">
        <ele>165.954325</ele>
        <time>2022-09-11T17:32:04.204Z</time>
      </trkpt>
      <trkpt lat="48.23122" lon="16.36186">
        <ele>163.68671</ele>
        <time>2022-09-11T17:32:38.050Z</time>
      </trkpt>
      <trkpt lat="48.23159" lon="16.36181">
        <ele>163.174129</ele>
        <time>2022-09-11T17:32:46.707Z</time>
      </trkpt>
      <trkpt lat="48.23315" lon="16.361">
        <ele>162.343148</ele>
        <time>2022-09-11T17:33:29.443Z</time>
      </trkpt>
      <trkpt lat="48.23382" lon="16.3609">
        <ele>161.420356</ele>
        <time>2022-09-11T17:33:44.389Z</time>
      </trkpt>
      <trkpt lat="48.23532" lon="16.36114">
        <ele>159.402294</ele>
        <time>2022-09-11T17:34:16.550Z</time>
      </trkpt>
      <trkpt lat="48.2355" lon="16.36121">
        <ele>159.329682</ele>
        <time>2022-09-11T17:34:20.778Z</time>
      </trkpt>
      <trkpt lat="48.23559" lon="16.36125">
        <ele>159.290225</ele>
        <time>2022-09-11T17:34:23.072Z</time>
      </trkpt>
      <trkpt lat="48.23605" lon="16.36143">
        <ele>159.102029</ele>
        <time>2022-09-11T17:34:34.782Z</time>
      </trkpt>
      <trkpt lat="48.23624" lon="16.36157">
        <ele>159.018702</ele>
        <time>2022-09-11T17:34:40.408Z</time>
      </trkpt>
      <trkpt lat="48.23769" lon="16.36214">
        <ele>159.415223</ele>
        <time>2022-09-11T17:35:25.341Z</time>
      </trkpt>
      <trkpt lat="48.23962" lon="16.36325">
        <ele>160.853993</ele>
        <time>2022-09-11T17:36:27.283Z</time>
      </trkpt>
      <trkpt lat="48.24199" lon="16.36487">
        <ele>162.597044</ele>
        <time>2022-09-11T17:37:46.571Z</time>
      </trkpt>
      <trkpt lat="48.24378" lon="16.36634">
        <ele>162.510491</ele>
        <time>2022-09-11T17:38:39.432Z</time>
      </trkpt>
      <trkpt lat="48.24456" lon="16.36707">
        <ele>162.354764</ele>
        <time>2022-09-11T17:39:02.882Z</time>
      </trkpt>
      <trkpt lat="48.24583" lon="16.3684">
        <ele>162.008872</ele>
        <time>2022-09-11T17:39:43.690Z</time>
      </trkpt>
      <trkpt lat="48.24747" lon="16.36994">
        <ele>161.213103</ele>
        <time>2022-09-11T17:40:31.345Z</time>
      </trkpt>
      <trkpt lat="48.24879" lon="16.37089">
        <ele>160.920136</ele>
        <time>2022-09-11T17:41:07.603Z</time>
      </trkpt>
      <trkpt lat="48.25047" lon="16.37169">
        <ele>161.816689</ele>
        <time>2022-09-11T17:41:58.605Z</time>
      </trkpt>
      <trkpt lat="48.25075" lon="16.37176">
        <ele>162.110384</ele>
        <time>2022-09-11T17:42:08.111Z</time>
      </trkpt>
      <trkpt lat="48.25119" lon="16.37175">
        <ele>162.573282</ele>
        <time>2022-09-11T17:42:23.469Z</time>
      </trkpt>
      <trkpt lat="48.25166" lon="16.37174">
        <ele>163.048565</ele>
        <time>2022-09-11T17:42:39.688Z</time>
      </trkpt>
      <trkpt lat="48.25237" lon="16.37158">
        <ele>163.764458</ele>
        <time>2022-09-11T17:43:04.143Z</time>
      </trkpt>
      <trkpt lat="48.25326" lon="16.37109">
        <ele>164.478316</ele>
        <time>2022-09-11T17:43:33.809Z</time>
      </trkpt>
      <trkpt lat="48.25426" lon="16.37055">
        <ele>163.802598</ele>
        <time>2022-09-11T17:44:00.988Z</time>
      </trkpt>
      <trkpt lat="48.25465" lon="16.37031">
        <ele>163.537088</ele>
        <time>2022-09-11T17:44:10.730Z</time>
      </trkpt>
      <trkpt lat="48.25563" lon="16.36975">
        <ele>162.965027</ele>
        <time>2022-09-11T17:44:35.565Z</time>
      </trkpt>
      <trkpt lat="48.25583" lon="16.36964">
        <ele>162.851839</ele>
        <time>2022-09-11T17:44:41.201Z</time>
      </trkpt>
      <trkpt lat="48.25624" lon="16.36946">
        <ele>162.625679</ele>
        <time>2022-09-11T17:44:53.263Z</time>
      </trkpt>
      <trkpt lat="48.25642" lon="16.36925">
        <ele>162.501968</ele>
        <time>2022-09-11T17:45:00.148Z</time>
      </trkpt>
      <trkpt lat="48.25776" lon="16.36888">
        <ele>162.526716</ele>
        <time>2022-09-11T17:45:38.295Z</time>
      </trkpt>
      <trkpt lat="48.25787" lon="16.3688">
        <ele>162.531312</ele>
        <time>2022-09-11T17:45:41.434Z</time>
      </trkpt>
      <trkpt lat="48.25809" lon="16.36888">
        <ele>162.540018</ele>
        <time>2022-09-11T17:45:47.554Z</time>
      </trkpt>
      <trkpt lat="48.25828" lon="16.36891">
        <ele>162.581638</ele>
        <time>2022-09-11T17:45:52.592Z</time>
      </trkpt>
      <trkpt lat="48.25852" lon="16.3687">
        <ele>162.746675</ele>
        <time>2022-09-11T17:45:59.976Z</time>
      </trkpt>
      <trkpt lat="48.25894" lon="16.36855">
        <ele>163.000923</ele>
        <time>2022-09-11T17:46:12.002Z</time>
      </trkpt>
      <trkpt lat="48.25912" lon="16.36858">
        <ele>163.11311</ele>
        <time>2022-09-11T17:46:17.485Z</time>
      </trkpt>
      <trkpt lat="48.25918" lon="16.36867">
        <ele>163.158339</ele>
        <time>2022-09-11T17:46:19.422Z</time>
      </trkpt>
      <trkpt lat="48.26036" lon="16.36839">
        <ele>164.120347</ele>
        <time>2022-09-11T17:46:57.706Z</time>
      </trkpt>
      <trkpt lat="48.2604" lon="16.36839">
        <ele>164.168341</ele>
        <time>2022-09-11T17:46:59.249Z</time>
      </trkpt>
      <trkpt lat="48.26044" lon="16.36838">
        <ele>164.216334</ele>
        <time>2022-09-11T17:47:00.736Z</time>
      </trkpt>
      <trkpt lat="48.26089" lon="16.36827">
        <ele>164.759984</ele>
        <time>2022-09-11T17:47:17.874Z</time>
      </trkpt>
      <trkpt lat="48.2625" lon="16.36771">
        <ele>165.254627</ele>
        <time>2022-09-11T17:48:07.323Z</time>
      </trkpt>
      <trkpt lat="48.26254" lon="16.36773">
        <ele>165.231332</ele>
        <time>2022-09-11T17:48:08.548Z</time>
      </trkpt>
      <trkpt lat="48.26333" lon="16.36737">
        <ele>164.731119</ele>
        <time>2022-09-11T17:48:26.338Z</time>
      </trkpt>
      <trkpt lat="48.26421" lon="16.36686">
        <ele>164.199659</ele>
        <time>2022-09-11T17:48:47.060Z</time>
      </trkpt>
      <trkpt lat="48.26608" lon="16.36537">
        <ele>163.763693</ele>
        <time>2022-09-11T17:49:47.417Z</time>
      </trkpt>
      <trkpt lat="48.26794" lon="16.36367">
        <ele>163.466633</ele>
        <time>2022-09-11T17:50:41.911Z</time>
      </trkpt>
      <trkpt lat="48.27154" lon="16.36028">
        <ele>164.557968</ele>
        <time>2022-09-11T17:52:43.244Z</time>
      </trkpt>
      <trkpt lat="48.27375" lon="16.35791">
        <ele>162.962848</ele>
        <time>2022-09-11T17:53:47.586Z</time>
      </trkpt>
      <trkpt lat="48.27394" lon="16.35771">
        <ele>162.799604</ele>
        <time>2022-09-11T17:53:53.540Z</time>
      </trkpt>
      <trkpt lat="48.27411" lon="16.35763">
        <ele>162.679021</ele>
        <time>2022-09-11T17:53:57.743Z</time>
      </trkpt>
      <trkpt lat="48.27419" lon="16.35757">
        <ele>162.619881</ele>
        <time>2022-09-11T17:54:00.072Z</time>
      </trkpt>
      <trkpt lat="48.27445" lon="16.35733">
        <ele>162.766736</ele>
        <time>2022-09-11T17:54:07.936Z</time>
      </trkpt>
      <trkpt lat="48.27499" lon="16.35682">
        <ele>163.072205</ele>
        <time>2022-09-11T17:54:25.024Z</time>
      </trkpt>
      <trkpt lat="48.27547" lon="16.35631">
        <ele>163.358492</ele>
        <time>2022-09-11T17:54:43.167Z</time>
      </trkpt>
      <trkpt lat="48.2759" lon="16.35575">
        <ele>163.878971</ele>
        <time>2022-09-11T17:55:02.873Z</time>
      </trkpt>
      <trkpt lat="48.27717" lon="16.35426">
        <ele>165.788235</ele>
        <time>2022-09-11T17:55:56.865Z</time>
      </trkpt>
      <trkpt lat="48.27805" lon="16.35357">
        <ele>165.754973</ele>
        <time>2022-09-11T17:56:23.298Z</time>
      </trkpt>
      <trkpt lat="48.27825" lon="16.3534">
        <ele>165.747325</ele>
        <time>2022-09-11T17:56:28.948Z</time>
      </trkpt>
      <trkpt lat="48.27884" lon="16.35309">
        <ele>165.711677</ele>
        <time>2022-09-11T17:56:43.580Z</time>
      </trkpt>
      <trkpt lat="48.27945" lon="16.35278">
        <ele>165.629067</ele>
        <time>2022-09-11T17:56:59.509Z</time>
      </trkpt>
      <trkpt lat="48.27975" lon="16.35256">
        <ele>165.586049</ele>
        <time>2022-09-11T17:57:08.489Z</time>
      </trkpt>
      <trkpt lat="48.28036" lon="16.35198">
        <ele>165.544083</ele>
        <time>2022-09-11T17:57:28.453Z</time>
      </trkpt>
      <trkpt lat="48.28073" lon="16.35157">
        <ele>165.844339</ele>
        <time>2022-09-11T17:57:42.555Z</time>
      </trkpt>
      <trkpt lat="48.28146" lon="16.35077">
        <ele>166.431785</ele>
        <time>2022-09-11T17:58:10.865Z</time>
      </trkpt>
      <trkpt lat="48.28175" lon="16.35047">
        <ele>166.660622</ele>
        <time>2022-09-11T17:58:21.647Z</time>
      </trkpt>
      <trkpt lat="48.28278" lon="16.34966">
        <ele>166.550185</ele>
        <time>2022-09-11T17:58:51.750Z</time>
      </trkpt>
      <trkpt lat="48.28389" lon="16.34875">
        <ele>166.031294</ele>
        <time>2022-09-11T17:59:23.713Z</time>
      </trkpt>
      <trkpt lat="48.28411" lon="16.34855">
        <ele>165.847652</ele>
        <time>2022-09-11T17:59:29.659Z</time>
      </trkpt>
      <trkpt lat="48.28415" lon="16.34838">
        <ele>165.756624</ele>
        <time>2022-09-11T17:59:32.546Z</time>
      </trkpt>
      <trkpt lat="48.28415" lon="16.34805">
        <ele>165.598637</ele>
        <time>2022-09-11T17:59:37.443Z</time>
      </trkpt>
      <trkpt lat="48.28416" lon="16.34753">
        <ele>165.345025</ele>
        <time>2022-09-11T17:59:45.309Z</time>
      </trkpt>
      <trkpt lat="48.2842" lon="16.34743">
        <ele>165.288024</ele>
        <time>2022-09-11T17:59:47.374Z</time>
      </trkpt>
      <trkpt lat="48.28427" lon="16.34732">
        <ele>165.211531</ele>
        <time>2022-09-11T17:59:49.588Z</time>
      </trkpt>
      <trkpt lat="48.28483" lon="16.34686">
        <ele>164.600744</ele>
        <time>2022-09-11T18:00:05.072Z</time>
      </trkpt>
      <trkpt lat="48.28508" lon="16.34666">
        <ele>164.327539</ele>
        <time>2022-09-11T18:00:11.788Z</time>
      </trkpt>
      <trkpt lat="48.28522" lon="16.34654">
        <ele>164.172955</ele>
        <time>2022-09-11T18:00:15.502Z</time>
      </trkpt>
      <trkpt lat="48.28571" lon="16.34608">
        <ele>163.605791</ele>
        <time>2022-09-11T18:00:28.540Z</time>
      </trkpt>
      <trkpt lat="48.28581" lon="16.34599">
        <ele>163.488538</ele>
        <time>2022-09-11T18:00:31.169Z</time>
      </trkpt>
      <trkpt lat="48.28594" lon="16.34588">
        <ele>163.387799</ele>
        <time>2022-09-11T18:00:34.490Z</time>
      </trkpt>
      <trkpt lat="48.28624" lon="16.34569">
        <ele>163.294673</ele>
        <time>2022-09-11T18:00:41.941Z</time>
      </trkpt>
      <trkpt lat="48.2868" lon="16.34551">
        <ele>163.127971</ele>
        <time>2022-09-11T18:00:56.216Z</time>
      </trkpt>
      <trkpt lat="48.28716" lon="16.34538">
        <ele>163.023685</ele>
        <time>2022-09-11T18:01:06.087Z</time>
      </trkpt>
      <trkpt lat="48.28731" lon="16.34532">
        <ele>162.978048</ele>
        <time>2022-09-11T18:01:10.726Z</time>
      </trkpt>
      <trkpt lat="48.2885" lon="16.34486">
        <ele>163.546708</ele>
        <time>2022-09-11T18:01:46.135Z</time>
      </trkpt>
      <trkpt lat="48.2886" lon="16.34481">
        <ele>163.623314</ele>
        <time>2022-09-11T18:01:49.582Z</time>
      </trkpt>
      <trkpt lat="48.28954" lon="16.34428">
        <ele>164.264771</ele>
        <time>2022-09-11T18:02:21.685Z</time>
      </trkpt>
      <trkpt lat="48.28976" lon="16.34454">
        <ele>164.366657</ele>
        <time>2022-09-11T18:02:30.095Z</time>
      </trkpt>
      <trkpt lat="48.29084" lon="16.34422">
        <ele>164.769107</ele>
        <time>2022-09-11T18:03:00.124Z</time>
      </trkpt>
      <trkpt lat="48.29172" lon="16.3438">
        <ele>164.768914</ele>
        <time>2022-09-11T18:03:24.501Z</time>
      </trkpt>
      <trkpt lat="48.2921" lon="16.34362">
        <ele>164.729536</ele>
        <time>2022-09-11T18:03:35.381Z</time>
      </trkpt>
      <trkpt lat="48.29256" lon="16.34351">
        <ele>164.683921</ele>
        <time>2022-09-11T18:03:47.294Z</time>
      </trkpt>
      <trkpt lat="48.29365" lon="16.34334">
        <ele>164.533096</ele>
        <time>2022-09-11T18:04:15.364Z</time>
      </trkpt>
      <trkpt lat="48.29399" lon="16.34326">
        <ele>164.482435</ele>
        <time>2022-09-11T18:04:24.467Z</time>
      </trkpt>
      <trkpt lat="48.29482" lon="16.34263">
        <ele>164.46694</ele>
        <time>2022-09-11T18:04:49.042Z</time>
      </trkpt>
      <trkpt lat="48.29488" lon="16.3426">
        <ele>164.477051</ele>
        <time>2022-09-11T18:04:50.544Z</time>
      </trkpt>
      <trkpt lat="48.29552" lon="16.34222">
        <ele>164.601687</ele>
        <time>2022-09-11T18:05:08.655Z</time>
      </trkpt>
      <trkpt lat="48.29579" lon="16.34192">
        <ele>164.663241</ele>
        <time>2022-09-11T18:05:18.328Z</time>
      </trkpt>
      <trkpt lat="48.29609" lon="16.34163">
        <ele>164.72662</ele>
        <time>2022-09-11T18:05:28.851Z</time>
      </trkpt>
      <trkpt lat="48.29699" lon="16.34078">
        <ele>164.986696</ele>
        <time>2022-09-11T18:06:01.157Z</time>
      </trkpt>
      <trkpt lat="48.29746" lon="16.34048">
        <ele>165.110835</ele>
        <time>2022-09-11T18:06:14.176Z</time>
      </trkpt>
      <trkpt lat="48.29785" lon="16.34026">
        <ele>165.024539</ele>
        <time>2022-09-11T18:06:24.319Z</time>
      </trkpt>
      <trkpt lat="48.29798" lon="16.3402">
        <ele>164.924917</ele>
        <time>2022-09-11T18:06:27.647Z</time>
      </trkpt>
      <trkpt lat="48.29892" lon="16.33951">
        <ele>164.190389</ele>
        <time>2022-09-11T18:06:52.533Z</time>
      </trkpt>
      <trkpt lat="48.29976" lon="16.33869">
        <ele>164.053048</ele>
        <time>2022-09-11T18:07:16.264Z</time>
      </trkpt>
      <trkpt lat="48.30016" lon="16.33823">
        <ele>164.188211</ele>
        <time>2022-09-11T18:07:30.717Z</time>
      </trkpt>
      <trkpt lat="48.30055" lon="16.33767">
        <ele>164.330805</ele>
        <time>2022-09-11T18:07:47.750Z</time>
      </trkpt>
      <trkpt lat="48.30081" lon="16.33719">
        <ele>164.537976</ele>
        <time>2022-09-11T18:08:01.438Z</time>
      </trkpt>
      <trkpt lat="48.30093" lon="16.33568">
        <ele>165.215655</ele>
        <time>2022-09-11T18:08:32.020Z</time>
      </trkpt>
      <trkpt lat="48.30094" lon="16.33557">
        <ele>165.264683</ele>
        <time>2022-09-11T18:08:34.282Z</time>
      </trkpt>
      <trkpt lat="48.30089" lon="16.33539">
        <ele>165.348029</ele>
        <time>2022-09-11T18:08:38.028Z</time>
      </trkpt>
      <trkpt lat="48.30088" lon="16.3344">
        <ele>165.449627</ele>
        <time>2022-09-11T18:08:56.267Z</time>
      </trkpt>
      <trkpt lat="48.30086" lon="16.3341">
        <ele>165.370582</ele>
        <time>2022-09-11T18:09:01.093Z</time>
      </trkpt>
      <trkpt lat="48.30113" lon="16.3341">
        <ele>165.261858</ele>
        <time>2022-09-11T18:09:07.911Z</time>
      </trkpt>
      <trkpt lat="48.30131" lon="16.33405">
        <ele>165.190817</ele>
        <time>2022-09-11T18:09:12.137Z</time>
      </trkpt>
      <trkpt lat="48.30134" lon="16.33404">
        <ele>165.179514</ele>
        <time>2022-09-11T18:09:12.865Z</time>
      </trkpt>
      <trkpt lat="48.3018" lon="16.33389">
        <ele>164.989783</ele>
        <time>2022-09-11T18:09:23.989Z</time>
      </trkpt>
      <trkpt lat="48.30203" lon="16.3338">
        <ele>164.89443</ele>
        <time>2022-09-11T18:09:29.715Z</time>
      </trkpt>
      <trkpt lat="48.30241" lon="16.33374">
        <ele>165.082642</ele>
        <time>2022-09-11T18:09:39.124Z</time>
      </trkpt>
      <trkpt lat="48.30263" lon="16.33385">
        <ele>165.263215</ele>
        <time>2022-09-11T18:09:45.570Z</time>
      </trkpt>
      <trkpt lat="48.30267" lon="16.33387">
        <ele>165.292831</ele>
        <time>2022-09-11T18:09:46.602Z</time>
      </trkpt>
      <trkpt lat="48.30274" lon="16.33391">
        <ele>165.354933</ele>
        <time>2022-09-11T18:09:48.776Z</time>
      </trkpt>
      <trkpt lat="48.3028" lon="16.33381">
        <ele>165.422799</ele>
        <time>2022-09-11T18:09:51.249Z</time>
      </trkpt>
      <trkpt lat="48.30311" lon="16.33399">
        <ele>165.680357</ele>
        <time>2022-09-11T18:10:01.209Z</time>
      </trkpt>
      <trkpt lat="48.30354" lon="16.33442">
        <ele>166.073075</ele>
        <time>2022-09-11T18:10:18.076Z</time>
      </trkpt>
      <trkpt lat="48.30408" lon="16.335">
        <ele>167.443606</ele>
        <time>2022-09-11T18:10:43.438Z</time>
      </trkpt>
      <trkpt lat="48.30438" lon="16.33502">
        <ele>168.244926</ele>
        <time>2022-09-11T18:10:55.986Z</time>
      </trkpt>
      <trkpt lat="48.30597" lon="16.33436">
        <ele>171.56162</ele>
        <time>2022-09-11T18:12:03.056Z</time>
      </trkpt>
      <trkpt lat="48.30685" lon="16.33409">
        <ele>172.268574</ele>
        <time>2022-09-11T18:12:27.682Z</time>
      </trkpt>
      <trkpt lat="48.30741" lon="16.33396">
        <ele>172.184339</ele>
        <time>2022-09-11T18:12:40.622Z</time>
      </trkpt>
      <trkpt lat="48.30767" lon="16.3339">
        <ele>171.861909</ele>
        <time>2022-09-11T18:12:46.335Z</time>
      </trkpt>
      <trkpt lat="48.30807" lon="16.33382">
        <ele>171.361141</ele>
        <time>2022-09-11T18:12:55.331Z</time>
      </trkpt>
      <trkpt lat="48.30845" lon="16.33371">
        <ele>170.895117</ele>
        <time>2022-09-11T18:13:03.775Z</time>
      </trkpt>
      <trkpt lat="48.30933" lon="16.33267">
        <ele>169.787478</ele>
        <time>2022-09-11T18:13:29.653Z</time>
      </trkpt>
      <trkpt lat="48.30979" lon="16.33211">
        <ele>169.30769</ele>
        <time>2022-09-11T18:13:44.159Z</time>
      </trkpt>
      <trkpt lat="48.31031" lon="16.3312">
        <ele>168.689285</ele>
        <time>2022-09-11T18:14:03.215Z</time>
      </trkpt>
      <trkpt lat="48.31049" lon="16.33081">
        <ele>168.47671</ele>
        <time>2022-09-11T18:14:10.520Z</time>
      </trkpt>
      <trkpt lat="48.31085" lon="16.33001">
        <ele>168.040025</ele>
        <time>2022-09-11T18:14:25.653Z</time>
      </trkpt>
      <trkpt lat="48.31087" lon="16.32973">
        <ele>167.913444</ele>
        <time>2022-09-11T18:14:30.244Z</time>
      </trkpt>
      <trkpt lat="48.31081" lon="16.32947">
        <ele>167.785403</ele>
        <time>2022-09-11T18:14:34.852Z</time>
      </trkpt>
      <trkpt lat="48.31041" lon="16.32897">
        <ele>167.457519</ele>
        <time>2022-09-11T18:14:47.715Z</time>
      </trkpt>
      <trkpt lat="48.31037" lon="16.32891">
        <ele>167.42177</ele>
        <time>2022-09-11T18:14:49.198Z</time>
      </trkpt>
      <trkpt lat="48.31008" lon="16.32854">
        <ele>167.19614</ele>
        <time>2022-09-11T18:14:58.375Z</time>
      </trkpt>
      <trkpt lat="48.31003" lon="16.32839">
        <ele>167.12619</ele>
        <time>2022-09-11T18:15:01.168Z</time>
      </trkpt>
      <trkpt lat="48.31005" lon="16.32808">
        <ele>167.000047</ele>
        <time>2022-09-11T18:15:06.362Z</time>
      </trkpt>
      <trkpt lat="48.31028" lon="16.32748">
        <ele>166.723215</ele>
        <time>2022-09-11T18:15:17.535Z</time>
      </trkpt>
      <trkpt lat="48.31042" lon="16.32705">
        <ele>166.530703</ele>
        <time>2022-09-11T18:15:25.206Z</time>
      </trkpt>
      <trkpt lat="48.31056" lon="16.32691">
        <ele>166.411026</ele>
        <time>2022-09-11T18:15:29.007Z</time>
      </trkpt>
      <trkpt lat="48.31165" lon="16.32539">
        <ele>165.305801</ele>
        <time>2022-09-11T18:16:04.385Z</time>
      </trkpt>
      <trkpt lat="48.31198" lon="16.32491">
        <ele>165.254245</ele>
        <time>2022-09-11T18:16:15.707Z</time>
      </trkpt>
      <trkpt lat="48.31237" lon="16.32431">
        <ele>165.322956</ele>
        <time>2022-09-11T18:16:29.565Z</time>
      </trkpt>
      <trkpt lat="48.3137" lon="16.32236">
        <ele>166.633461</ele>
        <time>2022-09-11T18:17:25.490Z</time>
      </trkpt>
      <trkpt lat="48.31402" lon="16.32186">
        <ele>167.208192</ele>
        <time>2022-09-11T18:17:42.199Z</time>
      </trkpt>
      <trkpt lat="48.31432" lon="16.32142">
        <ele>167.736338</ele>
        <time>2022-09-11T18:17:57.294Z</time>
      </trkpt>
      <trkpt lat="48.31505" lon="16.32005">
        <ele>169.249987</ele>
        <time>2022-09-11T18:18:38.139Z</time>
      </trkpt>
      <trkpt lat="48.31514" lon="16.31981">
        <ele>169.486788</ele>
        <time>2022-09-11T18:18:43.684Z</time>
      </trkpt>
      <trkpt lat="48.31529" lon="16.31963">
        <ele>169.726255</ele>
        <time>2022-09-11T18:18:49.454Z</time>
      </trkpt>
      <trkpt lat="48.31587" lon="16.31941">
        <ele>170.034704</ele>
        <time>2022-09-11T18:19:06.024Z</time>
      </trkpt>
      <trkpt lat="48.31607" lon="16.31915">
        <ele>170.04167</ele>
        <time>2022-09-11T18:19:12.767Z</time>
      </trkpt>
      <trkpt lat="48.31662" lon="16.31744">
        <ele>170.095304</ele>
        <time>2022-09-11T18:19:45.757Z</time>
      </trkpt>
      <trkpt lat="48.31675" lon="16.31705">
        <ele>170.160353</ele>
        <time>2022-09-11T18:19:53.777Z</time>
      </trkpt>
      <trkpt lat="48.31693" lon="16.31678">
        <ele>170.216358</ele>
        <time>2022-09-11T18:20:00.781Z</time>
      </trkpt>
      <trkpt lat="48.31691" lon="16.31673">
        <ele>170.224055</ele>
        <time>2022-09-11T18:20:01.693Z</time>
      </trkpt>
      <trkpt lat="48.31679" lon="16.3165">
        <ele>170.2683</ele>
        <time>2022-09-11T18:20:07.204Z</time>
      </trkpt>
      <trkpt lat="48.31673" lon="16.31638">
        <ele>170.290176</ele>
        <time>2022-09-11T18:20:10.110Z</time>
      </trkpt>
      <trkpt lat="48.32209" lon="16.31136">
        <ele>172.09845</ele>
        <time>2022-09-11T18:23:08.404Z</time>
      </trkpt>
      <trkpt lat="48.32423" lon="16.30953">
        <ele>171.112169</ele>
        <time>2022-09-11T18:24:09.653Z</time>
      </trkpt>
      <trkpt lat="48.32432" lon="16.30944">
        <ele>171.048922</ele>
        <time>2022-09-11T18:24:12.276Z</time>
      </trkpt>
      <trkpt lat="48.32438" lon="16.30939">
        <ele>171.011614</ele>
        <time>2022-09-11T18:24:13.841Z</time>
      </trkpt>
      <trkpt lat="48.32465" lon="16.30916">
        <ele>170.83563</ele>
        <time>2022-09-11T18:24:21.209Z</time>
      </trkpt>
      <trkpt lat="48.33097" lon="16.30371">
        <ele>167.230417</ele>
        <time>2022-09-11T18:27:20.268Z</time>
      </trkpt>
      <trkpt lat="48.33212" lon="16.30278">
        <ele>167.185138</ele>
        <time>2022-09-11T18:27:55.694Z</time>
      </trkpt>
      <trkpt lat="48.33482" lon="16.30065">
        <ele>167.644924</ele>
        <time>2022-09-11T18:29:20.215Z</time>
      </trkpt>
      <trkpt lat="48.33588" lon="16.29956">
        <ele>167.45981</ele>
        <time>2022-09-11T18:29:53.096Z</time>
      </trkpt>
      <trkpt lat="48.33651" lon="16.29907">
        <ele>167.352979</ele>
        <time>2022-09-11T18:30:11.034Z</time>
      </trkpt>
      <trkpt lat="48.33679" lon="16.29888">
        <ele>167.305686</ele>
        <time>2022-09-11T18:30:18.900Z</time>
      </trkpt>
      <trkpt lat="48.33701" lon="16.29873">
        <ele>167.267963</ele>
        <time>2022-09-11T18:30:25.016Z</time>
      </trkpt>
      <trkpt lat="48.33713" lon="16.29876">
        <ele>167.248126</ele>
        <time>2022-09-11T18:30:28.570Z</time>
      </trkpt>
      <trkpt lat="48.33736" lon="16.29863">
        <ele>167.211031</ele>
        <time>2022-09-11T18:30:34.637Z</time>
      </trkpt>
      <trkpt lat="48.33739" lon="16.29855">
        <ele>167.201051</ele>
        <time>2022-09-11T18:30:36.520Z</time>
      </trkpt>
      <trkpt lat="48.33748" lon="16.29853">
        <ele>167.188156</ele>
        <time>2022-09-11T18:30:38.725Z</time>
      </trkpt>
      <trkpt lat="48.33754" lon="16.29851">
        <ele>167.177947</ele>
        <time>2022-09-11T18:30:40.420Z</time>
      </trkpt>
      <trkpt lat="48.3376" lon="16.2985">
        <ele>167.167992</ele>
        <time>2022-09-11T18:30:42.068Z</time>
      </trkpt>
      <trkpt lat="48.33872" lon="16.29766">
        <ele>167.221194</ele>
        <time>2022-09-11T18:31:16.269Z</time>
      </trkpt>
      <trkpt lat="48.34062" lon="16.29637">
        <ele>167.201447</ele>
        <time>2022-09-11T18:32:11.683Z</time>
      </trkpt>
      <trkpt lat="48.34093" lon="16.29615">
        <ele>167.186389</ele>
        <time>2022-09-11T18:32:20.495Z</time>
      </trkpt>
      <trkpt lat="48.34315" lon="16.29415">
        <ele>167.057181</ele>
        <time>2022-09-11T18:33:29.014Z</time>
      </trkpt>
      <trkpt lat="48.34457" lon="16.29281">
        <ele>166.935546</ele>
        <time>2022-09-11T18:34:14.126Z</time>
      </trkpt>
      <trkpt lat="48.34552" lon="16.29193">
        <ele>166.719068</ele>
        <time>2022-09-11T18:34:42.618Z</time>
      </trkpt>
      <trkpt lat="48.34648" lon="16.29124">
        <ele>166.158834</ele>
        <time>2022-09-11T18:35:08.425Z</time>
      </trkpt>
      <trkpt lat="48.34673" lon="16.29119">
        <ele>166.02162</ele>
        <time>2022-09-11T18:35:14.630Z</time>
      </trkpt>
      <trkpt lat="48.34699" lon="16.29107">
        <ele>165.870858</ele>
        <time>2022-09-11T18:35:21.249Z</time>
      </trkpt>
      <trkpt lat="48.34728" lon="16.29081">
        <ele>165.697111</ele>
        <time>2022-09-11T18:35:29.318Z</time>
      </trkpt>
      <trkpt lat="48.34743" lon="16.29057">
        <ele>165.605838</ele>
        <time>2022-09-11T18:35:34.853Z</time>
      </trkpt>
      <trkpt lat="48.34775" lon="16.28985">
        <ele>165.373552</ele>
        <time>2022-09-11T18:35:48.945Z</time>
      </trkpt>
      <trkpt lat="48.34912" lon="16.2871">
        <ele>165.04094</ele>
        <time>2022-09-11T18:36:47.453Z</time>
      </trkpt>
      <trkpt lat="48.34962" lon="16.28595">
        <ele>165.418564</ele>
        <time>2022-09-11T18:37:14.746Z</time>
      </trkpt>
      <trkpt lat="48.35023" lon="16.28424">
        <ele>166.426446</ele>
        <time>2022-09-11T18:37:54.432Z</time>
      </trkpt>
      <trkpt lat="48.35039" lon="16.28365">
        <ele>166.672396</ele>
        <time>2022-09-11T18:38:07.639Z</time>
      </trkpt>
      <trkpt lat="48.35057" lon="16.2829">
        <ele>166.967228</ele>
        <time>2022-09-11T18:38:24.022Z</time>
      </trkpt>
      <trkpt lat="48.35059" lon="16.28283">
        <ele>166.994685</ele>
        <time>2022-09-11T18:38:25.517Z</time>
      </trkpt>
      <trkpt lat="48.35074" lon="16.28208">
        <ele>167.284526</ele>
        <time>2022-09-11T18:38:40.323Z</time>
      </trkpt>
      <trkpt lat="48.35077" lon="16.28191">
        <ele>167.350707</ele>
        <time>2022-09-11T18:38:43.579Z</time>
      </trkpt>
      <trkpt lat="48.35103" lon="16.28034">
        <ele>167.452068</ele>
        <time>2022-09-11T18:39:12.232Z</time>
      </trkpt>
      <trkpt lat="48.35119" lon="16.27903">
        <ele>167.43849</ele>
        <time>2022-09-11T18:39:36.084Z</time>
      </trkpt>
      <trkpt lat="48.3512" lon="16.279">
        <ele>167.438208</ele>
        <time>2022-09-11T18:39:36.558Z</time>
      </trkpt>
      <trkpt lat="48.35135" lon="16.27728">
        <ele>167.370561</ele>
        <time>2022-09-11T18:40:06.030Z</time>
      </trkpt>
      <trkpt lat="48.35145" lon="16.27484">
        <ele>167.76567</ele>
        <time>2022-09-11T18:40:50.896Z</time>
      </trkpt>
      <trkpt lat="48.35152" lon="16.27284">
        <ele>168.569696</ele>
        <time>2022-09-11T18:41:31.166Z</time>
      </trkpt>
      <trkpt lat="48.35156" lon="16.27201">
        <ele>169.042081</ele>
        <time>2022-09-11T18:41:48.632Z</time>
      </trkpt>
      <trkpt lat="48.3516" lon="16.27034">
        <ele>169.926124</ele>
        <time>2022-09-11T18:42:22.492Z</time>
      </trkpt>
      <trkpt lat="48.3515" lon="16.27008">
        <ele>170.059614</ele>
        <time>2022-09-11T18:42:28.614Z</time>
      </trkpt>
      <trkpt lat="48.3515" lon="16.2687">
        <ele>170.655618</ele>
        <time>2022-09-11T18:42:56.214Z</time>
      </trkpt>
      <trkpt lat="48.35155" lon="16.2669">
        <ele>171.163117</ele>
        <time>2022-09-11T18:43:30.386Z</time>
      </trkpt>
      <trkpt lat="48.3516" lon="16.26557">
        <ele>171.46045</ele>
        <time>2022-09-11T18:43:55.120Z</time>
      </trkpt>
      <trkpt lat="48.35162" lon="16.26507">
        <ele>171.634324</ele>
        <time>2022-09-11T18:44:04.358Z</time>
      </trkpt>
      <trkpt lat="48.35164" lon="16.26331">
        <ele>172.27751</ele>
        <time>2022-09-11T18:44:37.752Z</time>
      </trkpt>
      <trkpt lat="48.35164" lon="16.26325">
        <ele>172.302039</ele>
        <time>2022-09-11T18:44:39.141Z</time>
      </trkpt>
      <trkpt lat="48.35163" lon="16.26188">
        <ele>173.076207</ele>
        <time>2022-09-11T18:45:08.571Z</time>
      </trkpt>
      <trkpt lat="48.35153" lon="16.26115">
        <ele>173.565524</ele>
        <time>2022-09-11T18:45:24.150Z</time>
      </trkpt>
      <trkpt lat="48.35168" lon="16.26074">
        <ele>173.87372</ele>
        <time>2022-09-11T18:45:33.779Z</time>
      </trkpt>
      <trkpt lat="48.35172" lon="16.2603">
        <ele>174.170891</ele>
        <time>2022-09-11T18:45:43.005Z</time>
      </trkpt>
      <trkpt lat="48.35166" lon="16.26002">
        <ele>174.279341</ele>
        <time>2022-09-11T18:45:49.687Z</time>
      </trkpt>
      <trkpt lat="48.35174" lon="16.25927">
        <ele>174.395313</ele>
        <time>2022-09-11T18:46:04.601Z</time>
      </trkpt>
      <trkpt lat="48.35169" lon="16.25888">
        <ele>174.456622</ele>
        <time>2022-09-11T18:46:11.881Z</time>
      </trkpt>
      <trkpt lat="48.35158" lon="16.25871">
        <ele>174.494879</ele>
        <time>2022-09-11T18:46:16.389Z</time>
      </trkpt>
      <trkpt lat="48.35138" lon="16.25865">
        <ele>174.54102</ele>
        <time>2022-09-11T18:46:21.268Z</time>
      </trkpt>
      <trkpt lat="48.35107" lon="16.25858">
        <ele>174.613569</ele>
        <time>2022-09-11T18:46:29.335Z</time>
      </trkpt>
      <trkpt lat="48.35121" lon="16.25774">
        <ele>175.005552</ele>
        <time>2022-09-11T18:46:44.040Z</time>
      </trkpt>
      <trkpt lat="48.35131" lon="16.25668">
        <ele>175.71175</ele>
        <time>2022-09-11T18:47:04.694Z</time>
      </trkpt>
      <trkpt lat="48.35128" lon="16.25617">
        <ele>176.052201</ele>
        <time>2022-09-11T18:47:16.847Z</time>
      </trkpt>
      <trkpt lat="48.35118" lon="16.25516">
        <ele>177.054039</ele>
        <time>2022-09-11T18:47:42.014Z</time>
      </trkpt>
      <trkpt lat="48.35116" lon="16.25457">
        <ele>177.916484</ele>
        <time>2022-09-11T18:47:56.948Z</time>
      </trkpt>
      <trkpt lat="48.351" lon="16.25405">
        <ele>178.759563</ele>
        <time>2022-09-11T18:48:12.741Z</time>
      </trkpt>
      <trkpt lat="48.3509" lon="16.25372">
        <ele>179.284932</ele>
        <time>2022-09-11T18:48:22.812Z</time>
      </trkpt>
      <trkpt lat="48.35093" lon="16.25347">
        <ele>179.669234</ele>
        <time>2022-09-11T18:48:28.327Z</time>
      </trkpt>
      <trkpt lat="48.35083" lon="16.25261">
        <ele>180.264813</ele>
        <time>2022-09-11T18:48:48.437Z</time>
      </trkpt>
      <trkpt lat="48.35053" lon="16.25174">
        <ele>179.8412</ele>
        <time>2022-09-11T18:49:07.804Z</time>
      </trkpt>
      <trkpt lat="48.3505" lon="16.25149">
        <ele>179.73123</ele>
        <time>2022-09-11T18:49:11.237Z</time>
      </trkpt>
      <trkpt lat="48.35013" lon="16.25023">
        <ele>178.597091</ele>
        <time>2022-09-11T18:49:30.814Z</time>
      </trkpt>
      <trkpt lat="48.34997" lon="16.24944">
        <ele>176.610412</ele>
        <time>2022-09-11T18:49:41.184Z</time>
      </trkpt>
      <trkpt lat="48.34964" lon="16.24826">
        <ele>173.541488</ele>
        <time>2022-09-11T18:49:56.956Z</time>
      </trkpt>
      <trkpt lat="48.34958" lon="16.24806">
        <ele>172.994131</ele>
        <time>2022-09-11T18:49:59.760Z</time>
      </trkpt>
      <trkpt lat="48.34955" lon="16.24799">
        <ele>172.810061</ele>
        <time>2022-09-11T18:50:00.825Z</time>
      </trkpt>
      <trkpt lat="48.34963" lon="16.24763">
        <ele>172.179603</ele>
        <time>2022-09-11T18:50:05.423Z</time>
      </trkpt>
      <trkpt lat="48.34967" lon="16.24709">
        <ele>171.300228</ele>
        <time>2022-09-11T18:50:12.395Z</time>
      </trkpt>
      <trkpt lat="48.34968" lon="16.24704">
        <ele>171.20792</ele>
        <time>2022-09-11T18:50:15.052Z</time>
      </trkpt>
      <trkpt lat="48.34969" lon="16.24693">
        <ele>171.04091</ele>
        <time>2022-09-11T18:50:19.845Z</time>
      </trkpt>
      <trkpt lat="48.34971" lon="16.24683">
        <ele>170.871184</ele>
        <time>2022-09-11T18:50:24.714Z</time>
      </trkpt>
      <trkpt lat="48.34992" lon="16.2449">
        <ele>168.310027</ele>
        <time>2022-09-11T18:50:52.888Z</time>
      </trkpt>
      <trkpt lat="48.35005" lon="16.24434">
        <ele>168.229361</ele>
        <time>2022-09-11T18:51:03.611Z</time>
      </trkpt>
      <trkpt lat="48.34995" lon="16.24418">
        <ele>168.198311</ele>
        <time>2022-09-11T18:51:07.657Z</time>
      </trkpt>
      <trkpt lat="48.34992" lon="16.244">
        <ele>168.172113</ele>
        <time>2022-09-11T18:51:11.222Z</time>
      </trkpt>
      <trkpt lat="48.34998" lon="16.24356">
        <ele>168.110689</ele>
        <time>2022-09-11T18:51:19.389Z</time>
      </trkpt>
      <trkpt lat="48.34997" lon="16.2433">
        <ele>168.074546</ele>
        <time>2022-09-11T18:51:24.271Z</time>
      </trkpt>
      <trkpt lat="48.34946" lon="16.24207">
        <ele>168.809264</ele>
        <time>2022-09-11T18:51:50.483Z</time>
      </trkpt>
      <trkpt lat="48.3491" lon="16.24101">
        <ele>169.949245</ele>
        <time>2022-09-11T18:52:18.378Z</time>
      </trkpt>
      <trkpt lat="48.34903" lon="16.2408">
        <ele>170.17737</ele>
        <time>2022-09-11T18:52:24.380Z</time>
      </trkpt>
      <trkpt lat="48.3489" lon="16.24039">
        <ele>170.636187</ele>
        <time>2022-09-11T18:52:35.639Z</time>
      </trkpt>
      <trkpt lat="48.34919" lon="16.24005">
        <ele>171.679303</ele>
        <time>2022-09-11T18:52:49.669Z</time>
      </trkpt>
      <trkpt lat="48.34959" lon="16.23964">
        <ele>173.092684</ele>
        <time>2022-09-11T18:53:09.789Z</time>
      </trkpt>
      <trkpt lat="48.3498" lon="16.2395">
        <ele>173.76982</ele>
        <time>2022-09-11T18:53:19.172Z</time>
      </trkpt>
      <trkpt lat="48.35017" lon="16.23944">
        <ele>174.824228</ele>
        <time>2022-09-11T18:53:35.246Z</time>
      </trkpt>
      <trkpt lat="48.35047" lon="16.23955">
        <ele>175.726939</ele>
        <time>2022-09-11T18:53:49.079Z</time>
      </trkpt>
      <trkpt lat="48.35079" lon="16.23983">
        <ele>176.287444</ele>
        <time>2022-09-11T18:54:03.662Z</time>
      </trkpt>
      <trkpt lat="48.35098" lon="16.24015">
        <ele>176.702301</ele>
        <time>2022-09-11T18:54:13.572Z</time>
      </trkpt>
      <trkpt lat="48.35116" lon="16.24082">
        <ele>177.390668</ele>
        <time>2022-09-11T18:54:28.808Z</time>
      </trkpt>
      <trkpt lat="48.3513" lon="16.24077">
        <ele>177.603485</ele>
        <time>2022-09-11T18:54:33.670Z</time>
      </trkpt>
      <trkpt lat="48.35139" lon="16.2392">
        <ele>178.386624</ele>
        <time>2022-09-11T18:55:04.831Z</time>
      </trkpt>
      <trkpt lat="48.35132" lon="16.23796">
        <ele>178.416661</ele>
        <time>2022-09-11T18:55:26.137Z</time>
      </trkpt>
      <trkpt lat="48.35063" lon="16.23095">
        <ele>177.346754</ele>
        <time>2022-09-11T18:57:25.023Z</time>
      </trkpt>
      <trkpt lat="48.3503" lon="16.22814">
        <ele>177.677105</ele>
        <time>2022-09-11T18:58:19.908Z</time>
      </trkpt>
      <trkpt lat="48.34965" lon="16.22331">
        <ele>177.78999</ele>
        <time>2022-09-11T18:59:46.969Z</time>
      </trkpt>
      <trkpt lat="48.34884" lon="16.21821">
        <ele>177.530159</ele>
        <time>2022-09-11T19:01:19.186Z</time>
      </trkpt>
      <trkpt lat="48.3487" lon="16.21736">
        <ele>177.389982</ele>
        <time>2022-09-11T19:01:34.136Z</time>
      </trkpt>
      <trkpt lat="48.34836" lon="16.21549">
        <ele>176.957389</ele>
        <time>2022-09-11T19:02:06.637Z</time>
      </trkpt>
      <trkpt lat="48.34811" lon="16.21527">
        <ele>176.792504</ele>
        <time>2022-09-11T19:02:13.687Z</time>
      </trkpt>
      <trkpt lat="48.34785" lon="16.2151">
        <ele>176.634557</ele>
        <time>2022-09-11T19:02:20.308Z</time>
      </trkpt>
      <trkpt lat="48.34764" lon="16.21481">
        <ele>176.47827</ele>
        <time>2022-09-11T19:02:26.960Z</time>
      </trkpt>
      <trkpt lat="48.34715" lon="16.21213">
        <ele>175.635152</ele>
        <time>2022-09-11T19:03:13.324Z</time>
      </trkpt>
      <trkpt lat="48.34714" lon="16.21182">
        <ele>175.550876</ele>
        <time>2022-09-11T19:03:18.433Z</time>
      </trkpt>
      <trkpt lat="48.34734" lon="16.20997">
        <ele>175.107765</ele>
        <time>2022-09-11T19:03:49.543Z</time>
      </trkpt>
      <trkpt lat="48.34664" lon="16.20651">
        <ele>174.444489</ele>
        <time>2022-09-11T19:04:51.218Z</time>
      </trkpt>
      <trkpt lat="48.34549" lon="16.20093">
        <ele>173.209446</ele>
        <time>2022-09-11T19:06:28.616Z</time>
      </trkpt>
      <trkpt lat="48.34359" lon="16.19233">
        <ele>175.396094</ele>
        <time>2022-09-11T19:09:22.868Z</time>
      </trkpt>
      <trkpt lat="48.34124" lon="16.18418">
        <ele>175.052786</ele>
        <time>2022-09-11T19:11:55.170Z</time>
      </trkpt>
      <trkpt lat="48.34122" lon="16.18394">
        <ele>175.081635</ele>
        <time>2022-09-11T19:11:59.899Z</time>
      </trkpt>
      <trkpt lat="48.34127" lon="16.18378">
        <ele>175.103334</ele>
        <time>2022-09-11T19:12:03.531Z</time>
      </trkpt>
      <trkpt lat="48.34152" lon="16.18347">
        <ele>175.160467</ele>
        <time>2022-09-11T19:12:13.323Z</time>
      </trkpt>
      <trkpt lat="48.34154" lon="16.18319">
        <ele>175.369512</ele>
        <time>2022-09-11T19:12:19.066Z</time>
      </trkpt>
      <trkpt lat="48.34085" lon="16.18024">
        <ele>177.435707</ele>
        <time>2022-09-11T19:13:27.954Z</time>
      </trkpt>
      <trkpt lat="48.33936" lon="16.17509">
        <ele>177.314035</ele>
        <time>2022-09-11T19:15:05.515Z</time>
      </trkpt>
      <trkpt lat="48.33933" lon="16.17491">
        <ele>177.260147</ele>
        <time>2022-09-11T19:15:08.616Z</time>
      </trkpt>
      <trkpt lat="48.33936" lon="16.17475">
        <ele>177.212065</ele>
        <time>2022-09-11T19:15:11.284Z</time>
      </trkpt>
      <trkpt lat="48.33959" lon="16.17434">
        <ele>177.053167</ele>
        <time>2022-09-11T19:15:19.944Z</time>
      </trkpt>
      <trkpt lat="48.33962" lon="16.17418">
        <ele>177.00395</ele>
        <time>2022-09-11T19:15:22.530Z</time>
      </trkpt>
      <trkpt lat="48.3392" lon="16.1724">
        <ele>176.243216</ele>
        <time>2022-09-11T19:15:53.167Z</time>
      </trkpt>
      <trkpt lat="48.33912" lon="16.17223">
        <ele>176.145893</ele>
        <time>2022-09-11T19:15:56.326Z</time>
      </trkpt>
      <trkpt lat="48.33901" lon="16.17189">
        <ele>175.961523</ele>
        <time>2022-09-11T19:16:02.481Z</time>
      </trkpt>
      <trkpt lat="48.339" lon="16.17167">
        <ele>175.860766</ele>
        <time>2022-09-11T19:16:05.859Z</time>
      </trkpt>
      <trkpt lat="48.3385" lon="16.16911">
        <ele>174.37335</ele>
        <time>2022-09-11T19:16:47.928Z</time>
      </trkpt>
      <trkpt lat="48.33823" lon="16.16801">
        <ele>173.640928</ele>
        <time>2022-09-11T19:17:05.857Z</time>
      </trkpt>
      <trkpt lat="48.33806" lon="16.16687">
        <ele>172.840379</ele>
        <time>2022-09-11T19:17:23.196Z</time>
      </trkpt>
      <trkpt lat="48.33794" lon="16.16578">
        <ele>172.081077</ele>
        <time>2022-09-11T19:17:40.237Z</time>
      </trkpt>
      <trkpt lat="48.33796" lon="16.16455">
        <ele>171.91851</ele>
        <time>2022-09-11T19:18:01.067Z</time>
      </trkpt>
      <trkpt lat="48.33763" lon="16.16293">
        <ele>171.781029</ele>
        <time>2022-09-11T19:18:30.946Z</time>
      </trkpt>
      <trkpt lat="48.33743" lon="16.16213">
        <ele>171.89253</ele>
        <time>2022-09-11T19:18:47.247Z</time>
      </trkpt>
      <trkpt lat="48.33704" lon="16.16132">
        <ele>172.021891</ele>
        <time>2022-09-11T19:19:05.956Z</time>
      </trkpt>
      <trkpt lat="48.33682" lon="16.1609">
        <ele>172.091114</ele>
        <time>2022-09-11T19:19:15.400Z</time>
      </trkpt>
      <trkpt lat="48.3366" lon="16.16047">
        <ele>172.21073</ele>
        <time>2022-09-11T19:19:25.118Z</time>
      </trkpt>
      <trkpt lat="48.33638" lon="16.15991">
        <ele>172.380798</ele>
        <time>2022-09-11T19:19:37.334Z</time>
      </trkpt>
      <trkpt lat="48.3363" lon="16.15947">
        <ele>172.499103</ele>
        <time>2022-09-11T19:19:45.871Z</time>
      </trkpt>
      <trkpt lat="48.33636" lon="16.15894">
        <ele>172.640037</ele>
        <time>2022-09-11T19:19:56.329Z</time>
      </trkpt>
      <trkpt lat="48.33644" lon="16.15836">
        <ele>172.793935</ele>
        <time>2022-09-11T19:20:08.109Z</time>
      </trkpt>
      <trkpt lat="48.33637" lon="16.15736">
        <ele>173.097079</ele>
        <time>2022-09-11T19:20:27.884Z</time>
      </trkpt>
      <trkpt lat="48.33639" lon="16.15717">
        <ele>173.158124</ele>
        <time>2022-09-11T19:20:31.889Z</time>
      </trkpt>
      <trkpt lat="48.33679" lon="16.15655">
        <ele>173.423782</ele>
        <time>2022-09-11T19:20:48.580Z</time>
      </trkpt>
      <trkpt lat="48.33685" lon="16.15628">
        <ele>173.510195</ele>
        <time>2022-09-11T19:20:53.977Z</time>
      </trkpt>
      <trkpt lat="48.33657" lon="16.15357">
        <ele>173.57021</ele>
        <time>2022-09-11T19:21:42.461Z</time>
      </trkpt>
      <trkpt lat="48.33676" lon="16.15199">
        <ele>173.198254</ele>
        <time>2022-09-11T19:22:09.395Z</time>
      </trkpt>
      <trkpt lat="48.33676" lon="16.15159">
        <ele>173.079821</ele>
        <time>2022-09-11T19:22:15.981Z</time>
      </trkpt>
      <trkpt lat="48.33657" lon="16.14974">
        <ele>172.546349</ele>
        <time>2022-09-11T19:22:46.348Z</time>
      </trkpt>
      <trkpt lat="48.33627" lon="16.14702">
        <ele>171.982881</ele>
        <time>2022-09-11T19:23:32.398Z</time>
      </trkpt>
      <trkpt lat="48.33605" lon="16.14505">
        <ele>171.894779</ele>
        <time>2022-09-11T19:24:08.162Z</time>
      </trkpt>
      <trkpt lat="48.33574" lon="16.14208">
        <ele>172.086703</ele>
        <time>2022-09-11T19:25:02.224Z</time>
      </trkpt>
      <trkpt lat="48.33533" lon="16.13787">
        <ele>172.666604</ele>
        <time>2022-09-11T19:26:22.021Z</time>
      </trkpt>
      <trkpt lat="48.33484" lon="16.13251">
        <ele>171.845227</ele>
        <time>2022-09-11T19:27:53.839Z</time>
      </trkpt>
      <trkpt lat="48.33467" lon="16.13">
        <ele>171.376551</ele>
        <time>2022-09-11T19:28:35.705Z</time>
      </trkpt>
      <trkpt lat="48.33454" lon="16.12823">
        <ele>171.268032</ele>
        <time>2022-09-11T19:29:07.130Z</time>
      </trkpt>
      <trkpt lat="48.33441" lon="16.12636">
        <ele>171.386277</ele>
        <time>2022-09-11T19:29:41.299Z</time>
      </trkpt>
      <trkpt lat="48.33429" lon="16.12491">
        <ele>171.467451</ele>
        <time>2022-09-11T19:30:07.704Z</time>
      </trkpt>
      <trkpt lat="48.33416" lon="16.12324">
        <ele>171.622087</ele>
        <time>2022-09-11T19:30:37.579Z</time>
      </trkpt>
      <trkpt lat="48.33384" lon="16.11913">
        <ele>172.699237</ele>
        <time>2022-09-11T19:31:55.859Z</time>
      </trkpt>
      <trkpt lat="48.33364" lon="16.11752">
        <ele>173.404564</ele>
        <time>2022-09-11T19:32:29.482Z</time>
      </trkpt>
      <trkpt lat="48.33367" lon="16.11723">
        <ele>173.554987</ele>
        <time>2022-09-11T19:32:35.816Z</time>
      </trkpt>
      <trkpt lat="48.3336" lon="16.11633">
        <ele>174.014628</ele>
        <time>2022-09-11T19:32:54.529Z</time>
      </trkpt>
      <trkpt lat="48.3335" lon="16.11572">
        <ele>174.337536</ele>
        <time>2022-09-11T19:33:07.103Z</time>
      </trkpt>
      <trkpt lat="48.33335" lon="16.1151">
        <ele>174.292721</ele>
        <time>2022-09-11T19:33:19.187Z</time>
      </trkpt>
      <trkpt lat="48.33311" lon="16.11421">
        <ele>174.183099</ele>
        <time>2022-09-11T19:33:35.133Z</time>
      </trkpt>
      <trkpt lat="48.33296" lon="16.11271">
        <ele>173.975636</ele>
        <time>2022-09-11T19:34:00.303Z</time>
      </trkpt>
      <trkpt lat="48.33251" lon="16.10681">
        <ele>173.407302</ele>
        <time>2022-09-11T19:35:40.946Z</time>
      </trkpt>
      <trkpt lat="48.3324" lon="16.10506">
        <ele>174.040801</ele>
        <time>2022-09-11T19:36:17.086Z</time>
      </trkpt>
      <trkpt lat="48.33235" lon="16.10325">
        <ele>175.303482</ele>
        <time>2022-09-11T19:36:57.316Z</time>
      </trkpt>
      <trkpt lat="48.33237" lon="16.10077">
        <ele>176.013415</ele>
        <time>2022-09-11T19:37:46.350Z</time>
      </trkpt>
      <trkpt lat="48.33246" lon="16.09841">
        <ele>175.58857</ele>
        <time>2022-09-11T19:38:23.961Z</time>
      </trkpt>
      <trkpt lat="48.33253" lon="16.09666">
        <ele>175.014064</ele>
        <time>2022-09-11T19:38:52.389Z</time>
      </trkpt>
      <trkpt lat="48.333" lon="16.08973">
        <ele>175.235503</ele>
        <time>2022-09-11T19:40:57.994Z</time>
      </trkpt>
      <trkpt lat="48.33332" lon="16.08654">
        <ele>175.411541</ele>
        <time>2022-09-11T19:41:54.809Z</time>
      </trkpt>
      <trkpt lat="48.33318" lon="16.08583">
        <ele>175.585698</ele>
        <time>2022-09-11T19:42:09.336Z</time>
      </trkpt>
      <trkpt lat="48.33319" lon="16.08532">
        <ele>175.803939</ele>
        <time>2022-09-11T19:42:19.694Z</time>
      </trkpt>
      <trkpt lat="48.33334" lon="16.0841">
        <ele>176.325971</ele>
        <time>2022-09-11T19:42:45.125Z</time>
      </trkpt>
      <trkpt lat="48.33364" lon="16.0834">
        <ele>176.564178</ele>
        <time>2022-09-11T19:43:01.594Z</time>
      </trkpt>
      <trkpt lat="48.33366" lon="16.08314">
        <ele>176.551564</ele>
        <time>2022-09-11T19:43:06.463Z</time>
      </trkpt>
      <trkpt lat="48.3339" lon="16.08008">
        <ele>175.884125</ele>
        <time>2022-09-11T19:43:59.012Z</time>
      </trkpt>
      <trkpt lat="48.33404" lon="16.07672">
        <ele>174.165937</ele>
        <time>2022-09-11T19:44:49.085Z</time>
      </trkpt>
      <trkpt lat="48.33415" lon="16.07178">
        <ele>174.9911</ele>
        <time>2022-09-11T19:46:23.615Z</time>
      </trkpt>
      <trkpt lat="48.3341" lon="16.07171">
        <ele>175.037338</ele>
        <time>2022-09-11T19:46:25.644Z</time>
      </trkpt>
      <trkpt lat="48.33359" lon="16.07174">
        <ele>175.385185</ele>
        <time>2022-09-11T19:46:41.530Z</time>
      </trkpt>
      <trkpt lat="48.33345" lon="16.07168">
        <ele>175.483153</ele>
        <time>2022-09-11T19:46:46.156Z</time>
      </trkpt>
      <trkpt lat="48.33339" lon="16.07113">
        <ele>175.736585</ele>
        <time>2022-09-11T19:46:57.955Z</time>
      </trkpt>
      <trkpt lat="48.33335" lon="16.06893">
        <ele>176.240412</ele>
        <time>2022-09-11T19:47:38.857Z</time>
      </trkpt>
      <trkpt lat="48.33329" lon="16.06726">
        <ele>176.400202</ele>
        <time>2022-09-11T19:48:09.444Z</time>
      </trkpt>
      <trkpt lat="48.33325" lon="16.06719">
        <ele>176.404064</ele>
        <time>2022-09-11T19:48:11.748Z</time>
      </trkpt>
      <trkpt lat="48.3332" lon="16.06649">
        <ele>176.43055</ele>
        <time>2022-09-11T19:48:23.703Z</time>
      </trkpt>
      <trkpt lat="48.33395" lon="16.06623">
        <ele>176.377636</ele>
        <time>2022-09-11T19:48:43.850Z</time>
      </trkpt>
      <trkpt lat="48.33402" lon="16.06618">
        <ele>176.355371</ele>
        <time>2022-09-11T19:48:45.785Z</time>
      </trkpt>
      <trkpt lat="48.33404" lon="16.06603">
        <ele>176.326403</ele>
        <time>2022-09-11T19:48:48.675Z</time>
      </trkpt>
      <trkpt lat="48.33395" lon="16.06244">
        <ele>175.847979</ele>
        <time>2022-09-11T19:49:48.330Z</time>
      </trkpt>
      <trkpt lat="48.33394" lon="16.06206">
        <ele>175.826005</ele>
        <time>2022-09-11T19:49:55.375Z</time>
      </trkpt>
      <trkpt lat="48.33392" lon="16.06157">
        <ele>175.797849</ele>
        <time>2022-09-11T19:50:04.805Z</time>
      </trkpt>
      <trkpt lat="48.33388" lon="16.0589">
        <ele>176.370868</ele>
        <time>2022-09-11T19:50:56.070Z</time>
      </trkpt>
      <trkpt lat="48.33405" lon="16.05823">
        <ele>176.550828</ele>
        <time>2022-09-11T19:51:08.857Z</time>
      </trkpt>
      <trkpt lat="48.33408" lon="16.05766">
        <ele>176.6958</ele>
        <time>2022-09-11T19:51:18.926Z</time>
      </trkpt>
      <trkpt lat="48.33411" lon="16.05666">
        <ele>176.948991</ele>
        <time>2022-09-11T19:51:37.525Z</time>
      </trkpt>
      <trkpt lat="48.33411" lon="16.0565">
        <ele>176.991188</ele>
        <time>2022-09-11T19:51:40.631Z</time>
      </trkpt>
      <trkpt lat="48.33402" lon="16.05554">
        <ele>177.346529</ele>
        <time>2022-09-11T19:52:00.689Z</time>
      </trkpt>
      <trkpt lat="48.33401" lon="16.05542">
        <ele>177.408934</ele>
        <time>2022-09-11T19:52:03.254Z</time>
      </trkpt>
      <trkpt lat="48.33387" lon="16.05485">
        <ele>177.722385</ele>
        <time>2022-09-11T19:52:16.568Z</time>
      </trkpt>
      <trkpt lat="48.33376" lon="16.05413">
        <ele>178.101591</ele>
        <time>2022-09-11T19:52:31.953Z</time>
      </trkpt>
      <trkpt lat="48.33369" lon="16.05341">
        <ele>178.477018</ele>
        <time>2022-09-11T19:52:45.796Z</time>
      </trkpt>
      <trkpt lat="48.33368" lon="16.05323">
        <ele>178.494729</ele>
        <time>2022-09-11T19:52:49.220Z</time>
      </trkpt>
      <trkpt lat="48.33367" lon="16.05303">
        <ele>178.430734</ele>
        <time>2022-09-11T19:52:52.986Z</time>
      </trkpt>
      <trkpt lat="48.33365" lon="16.05284">
        <ele>178.370268</ele>
        <time>2022-09-11T19:52:56.380Z</time>
      </trkpt>
      <trkpt lat="48.33364" lon="16.05264">
        <ele>178.305896</ele>
        <time>2022-09-11T19:52:59.919Z</time>
      </trkpt>
      <trkpt lat="48.33364" lon="16.05258">
        <ele>178.287747</ele>
        <time>2022-09-11T19:53:00.925Z</time>
      </trkpt>
      <trkpt lat="48.33364" lon="16.05244">
        <ele>178.245044</ele>
        <time>2022-09-11T19:53:03.217Z</time>
      </trkpt>
      <trkpt lat="48.33363" lon="16.05225">
        <ele>178.183844</ele>
        <time>2022-09-11T19:53:06.484Z</time>
      </trkpt>
      <trkpt lat="48.33362" lon="16.05216">
        <ele>178.154811</ele>
        <time>2022-09-11T19:53:08.042Z</time>
      </trkpt>
      <trkpt lat="48.33361" lon="16.05191">
        <ele>178.073908</ele>
        <time>2022-09-11T19:53:12.290Z</time>
      </trkpt>
      <trkpt lat="48.3336" lon="16.05164">
        <ele>177.987925</ele>
        <time>2022-09-11T19:53:16.662Z</time>
      </trkpt>
      <trkpt lat="48.33359" lon="16.05132">
        <ele>177.886441</ele>
        <time>2022-09-11T19:53:21.657Z</time>
      </trkpt>
      <trkpt lat="48.33359" lon="16.05113">
        <ele>177.826952</ele>
        <time>2022-09-11T19:53:24.569Z</time>
      </trkpt>
      <trkpt lat="48.33348" lon="16.05024">
        <ele>177.488404</ele>
        <time>2022-09-11T19:53:38.047Z</time>
      </trkpt>
      <trkpt lat="48.33332" lon="16.0496">
        <ele>177.179605</ele>
        <time>2022-09-11T19:53:48.430Z</time>
      </trkpt>
      <trkpt lat="48.33327" lon="16.04932">
        <ele>177.047395</ele>
        <time>2022-09-11T19:53:53.034Z</time>
      </trkpt>
      <trkpt lat="48.33324" lon="16.04873">
        <ele>176.780953</ele>
        <time>2022-09-11T19:54:02.765Z</time>
      </trkpt>
      <trkpt lat="48.33324" lon="16.04843">
        <ele>176.648287</ele>
        <time>2022-09-11T19:54:07.742Z</time>
      </trkpt>
      <trkpt lat="48.33326" lon="16.04787">
        <ele>176.445247</ele>
        <time>2022-09-11T19:54:17.652Z</time>
      </trkpt>
      <trkpt lat="48.33327" lon="16.04754">
        <ele>176.439116</ele>
        <time>2022-09-11T19:54:23.559Z</time>
      </trkpt>
      <trkpt lat="48.33323" lon="16.04702">
        <ele>176.429215</ele>
        <time>2022-09-11T19:54:32.663Z</time>
      </trkpt>
      <trkpt lat="48.33312" lon="16.04635">
        <ele>176.416239</ele>
        <time>2022-09-11T19:54:44.660Z</time>
      </trkpt>
      <trkpt lat="48.33308" lon="16.04594">
        <ele>176.408572</ele>
        <time>2022-09-11T19:54:52.170Z</time>
      </trkpt>
      <trkpt lat="48.33311" lon="16.04574">
        <ele>176.40477</ele>
        <time>2022-09-11T19:54:55.723Z</time>
      </trkpt>
      <trkpt lat="48.33349" lon="16.04508">
        <ele>176.356594</ele>
        <time>2022-09-11T19:55:11.936Z</time>
      </trkpt>
      <trkpt lat="48.33353" lon="16.04488">
        <ele>176.337307</ele>
        <time>2022-09-11T19:55:15.675Z</time>
      </trkpt>
      <trkpt lat="48.33349" lon="16.0422">
        <ele>176.197972</ele>
        <time>2022-09-11T19:56:01.186Z</time>
      </trkpt>
      <trkpt lat="48.3334" lon="16.03747">
        <ele>176.886713</ele>
        <time>2022-09-11T19:57:28.790Z</time>
      </trkpt>
      <trkpt lat="48.33346" lon="16.03712">
        <ele>176.974324</ele>
        <time>2022-09-11T19:57:35.860Z</time>
      </trkpt>
      <trkpt lat="48.33339" lon="16.03682">
        <ele>177.053683</ele>
        <time>2022-09-11T19:57:42.258Z</time>
      </trkpt>
      <trkpt lat="48.33337" lon="16.03607">
        <ele>177.244309</ele>
        <time>2022-09-11T19:57:57.135Z</time>
      </trkpt>
      <trkpt lat="48.33327" lon="16.0316">
        <ele>178.172918</ele>
        <time>2022-09-11T19:59:19.338Z</time>
      </trkpt>
      <trkpt lat="48.33322" lon="16.03136">
        <ele>178.286825</ele>
        <time>2022-09-11T19:59:24.233Z</time>
      </trkpt>
      <trkpt lat="48.33298" lon="16.03106">
        <ele>178.488891</ele>
        <time>2022-09-11T19:59:33.366Z</time>
      </trkpt>
      <trkpt lat="48.33248" lon="16.0307">
        <ele>178.848873</ele>
        <time>2022-09-11T19:59:50.441Z</time>
      </trkpt>
      <trkpt lat="48.33197" lon="16.03043">
        <ele>179.202671</ele>
        <time>2022-09-11T20:00:06.984Z</time>
      </trkpt>
      <trkpt lat="48.33147" lon="16.03026">
        <ele>179.550397</ele>
        <time>2022-09-11T20:00:23.029Z</time>
      </trkpt>
      <trkpt lat="48.33072" lon="16.03015">
        <ele>180.064558</ele>
        <time>2022-09-11T20:00:46.301Z</time>
      </trkpt>
      <trkpt lat="48.32906" lon="16.03016">
        <ele>180.035273</ele>
        <time>2022-09-11T20:01:31.229Z</time>
      </trkpt>
      <trkpt lat="48.32822" lon="16.02997">
        <ele>179.533462</ele>
        <time>2022-09-11T20:01:50.994Z</time>
      </trkpt>
      <trkpt lat="48.3275" lon="16.02968">
        <ele>178.538152</ele>
        <time>2022-09-11T20:02:07.766Z</time>
      </trkpt>
      <trkpt lat="48.32695" lon="16.02943">
        <ele>177.77443</ele>
        <time>2022-09-11T20:02:20.301Z</time>
      </trkpt>
      <trkpt lat="48.32671" lon="16.02921">
        <ele>177.423471</ele>
        <time>2022-09-11T20:02:26.282Z</time>
      </trkpt>
      <trkpt lat="48.32669" lon="16.02919">
        <ele>177.396619</ele>
        <time>2022-09-11T20:02:26.953Z</time>
      </trkpt>
      <trkpt lat="48.32665" lon="16.02914">
        <ele>177.34807</ele>
        <time>2022-09-11T20:02:28.146Z</time>
      </trkpt>
      <trkpt lat="48.32644" lon="16.02889">
        <ele>177.098577</ele>
        <time>2022-09-11T20:02:34.098Z</time>
      </trkpt>
      <trkpt lat="48.32632" lon="16.02882">
        <ele>176.980524</ele>
        <time>2022-09-11T20:02:37.095Z</time>
      </trkpt>
      <trkpt lat="48.32639" lon="16.0287">
        <ele>176.886739</ele>
        <time>2022-09-11T20:02:39.340Z</time>
      </trkpt>
      <trkpt lat="48.32663" lon="16.02829">
        <ele>176.5428</ele>
        <time>2022-09-11T20:02:47.988Z</time>
      </trkpt>
      <trkpt lat="48.32672" lon="16.02815">
        <ele>176.424962</ele>
        <time>2022-09-11T20:02:50.964Z</time>
      </trkpt>
      <trkpt lat="48.32683" lon="16.02824">
        <ele>176.316045</ele>
        <time>2022-09-11T20:02:53.905Z</time>
      </trkpt>
      <trkpt lat="48.32693" lon="16.02832">
        <ele>176.204993</ele>
        <time>2022-09-11T20:02:56.674Z</time>
      </trkpt>
      <trkpt lat="48.32691" lon="16.0284">
        <ele>176.150242</ele>
        <time>2022-09-11T20:02:58.085Z</time>
      </trkpt>
      <trkpt lat="48.32664" lon="16.02833">
        <ele>175.898773</ele>
        <time>2022-09-11T20:03:04.815Z</time>
      </trkpt>
      <trkpt lat="48.32559" lon="16.02753">
        <ele>175.613605</ele>
        <time>2022-09-11T20:03:34.542Z</time>
      </trkpt>
      <trkpt lat="48.32511" lon="16.02709">
        <ele>175.51787</ele>
        <time>2022-09-11T20:03:49.644Z</time>
      </trkpt>
      <trkpt lat="48.32566" lon="16.02724">
        <ele>175.809205</ele>
        <time>2022-09-11T20:04:05.160Z</time>
      </trkpt>
      <trkpt lat="48.32583" lon="16.02731">
        <ele>175.953256</ele>
        <time>2022-09-11T20:04:10.267Z</time>
      </trkpt>
      <trkpt lat="48.32612" lon="16.02723">
        <ele>176.194143</ele>
        <time>2022-09-11T20:04:19.524Z</time>
      </trkpt>
      <trkpt lat="48.32672" lon="16.02718">
        <ele>176.678168</ele>
        <time>2022-09-11T20:04:38.405Z</time>
      </trkpt>
      <trkpt lat="48.32694" lon="16.02685">
        <ele>176.931431</ele>
        <time>2022-09-11T20:04:48.793Z</time>
      </trkpt>
      <trkpt lat="48.32707" lon="16.0268">
        <ele>177.035894</ele>
        <time>2022-09-11T20:04:53.241Z</time>
      </trkpt>
      <trkpt lat="48.32719" lon="16.0268">
        <ele>177.127681</ele>
        <time>2022-09-11T20:04:57.000Z</time>
      </trkpt>
      <trkpt lat="48.3273" lon="16.02676">
        <ele>177.220802</ele>
        <time>2022-09-11T20:05:01.321Z</time>
      </trkpt>
      <trkpt lat="48.32739" lon="16.0266">
        <ele>177.328424</ele>
        <time>2022-09-11T20:05:05.671Z</time>
      </trkpt>
      <trkpt lat="48.3274" lon="16.02645">
        <ele>177.409101</ele>
        <time>2022-09-11T20:05:08.822Z</time>
      </trkpt>
      <trkpt lat="48.32731" lon="16.02603">
        <ele>177.638011</ele>
        <time>2022-09-11T20:05:18.195Z</time>
      </trkpt>
      <trkpt lat="48.32748" lon="16.02476">
        <ele>178.318635</ele>
        <time>2022-09-11T20:05:43.780Z</time>
      </trkpt>
      <trkpt lat="48.32744" lon="16.02418">
        <ele>178.170347</ele>
        <time>2022-09-11T20:05:53.762Z</time>
      </trkpt>
      <trkpt lat="48.32717" lon="16.02322">
        <ele>177.744271</ele>
        <time>2022-09-11T20:06:10.571Z</time>
      </trkpt>
      <trkpt lat="48.3269" lon="16.02178">
        <ele>177.154677</ele>
        <time>2022-09-11T20:06:33.074Z</time>
      </trkpt>
      <trkpt lat="48.32599" lon="16.01829">
        <ele>176.210205</ele>
        <time>2022-09-11T20:07:35.931Z</time>
      </trkpt>
      <trkpt lat="48.32579" lon="16.01682">
        <ele>176.088529</ele>
        <time>2022-09-11T20:08:03.033Z</time>
      </trkpt>
      <trkpt lat="48.32567" lon="16.01571">
        <ele>176.046403</ele>
        <time>2022-09-11T20:08:23.345Z</time>
      </trkpt>
      <trkpt lat="48.32573" lon="16.01499">
        <ele>176.019406</ele>
        <time>2022-09-11T20:08:35.997Z</time>
      </trkpt>
      <trkpt lat="48.32582" lon="16.01465">
        <ele>176.005535</ele>
        <time>2022-09-11T20:08:42.264Z</time>
      </trkpt>
      <trkpt lat="48.3261" lon="16.01417">
        <ele>175.953265</ele>
        <time>2022-09-11T20:08:52.892Z</time>
      </trkpt>
      <trkpt lat="48.32615" lon="16.01401">
        <ele>175.930931</ele>
        <time>2022-09-11T20:08:55.891Z</time>
      </trkpt>
      <trkpt lat="48.32645" lon="16.01165">
        <ele>175.629459</ele>
        <time>2022-09-11T20:09:37.415Z</time>
      </trkpt>
      <trkpt lat="48.32648" lon="16.01113">
        <ele>175.581837</ele>
        <time>2022-09-11T20:09:46.324Z</time>
      </trkpt>
      <trkpt lat="48.32646" lon="16.00919">
        <ele>175.403473</ele>
        <time>2022-09-11T20:10:20.028Z</time>
      </trkpt>
      <trkpt lat="48.32658" lon="16.00811">
        <ele>175.279562</ele>
        <time>2022-09-11T20:10:38.995Z</time>
      </trkpt>
      <trkpt lat="48.32658" lon="16.00808">
        <ele>175.27547</ele>
        <time>2022-09-11T20:10:39.653Z</time>
      </trkpt>
      <trkpt lat="48.327" lon="16.00505">
        <ele>174.940283</ele>
        <time>2022-09-11T20:11:32.799Z</time>
      </trkpt>
      <trkpt lat="48.32708" lon="16.00466">
        <ele>174.898548</ele>
        <time>2022-09-11T20:11:39.690Z</time>
      </trkpt>
      <trkpt lat="48.32731" lon="16.00368">
        <ele>174.840062</ele>
        <time>2022-09-11T20:11:57.802Z</time>
      </trkpt>
      <trkpt lat="48.32748" lon="16.00321">
        <ele>174.910002</ele>
        <time>2022-09-11T20:12:07.456Z</time>
      </trkpt>
      <trkpt lat="48.3276" lon="16.0029">
        <ele>174.957111</ele>
        <time>2022-09-11T20:12:13.844Z</time>
      </trkpt>
      <trkpt lat="48.32817" lon="16.0018">
        <ele>175.140143</ele>
        <time>2022-09-11T20:12:39.700Z</time>
      </trkpt>
      <trkpt lat="48.32883" lon="16.00059">
        <ele>175.683542</ele>
        <time>2022-09-11T20:13:10.548Z</time>
      </trkpt>
      <trkpt lat="48.32912" lon="15.99991">
        <ele>175.989645</ele>
        <time>2022-09-11T20:13:26.485Z</time>
      </trkpt>
      <trkpt lat="48.3292" lon="15.9994">
        <ele>176.187037</ele>
        <time>2022-09-11T20:13:36.658Z</time>
      </trkpt>
      <trkpt lat="48.32923" lon="15.99795">
        <ele>176.542222</ele>
        <time>2022-09-11T20:14:04.798Z</time>
      </trkpt>
      <trkpt lat="48.32941" lon="15.99731">
        <ele>176.710515</ele>
        <time>2022-09-11T20:14:18.035Z</time>
      </trkpt>
      <trkpt lat="48.32971" lon="15.99678">
        <ele>176.847429</ele>
        <time>2022-09-11T20:14:30.592Z</time>
      </trkpt>
      <trkpt lat="48.33058" lon="15.99589">
        <ele>176.80798</ele>
        <time>2022-09-11T20:14:58.304Z</time>
      </trkpt>
      <trkpt lat="48.33071" lon="15.99566">
        <ele>176.80057</ele>
        <time>2022-09-11T20:15:03.363Z</time>
      </trkpt>
      <trkpt lat="48.33086" lon="15.99468">
        <ele>176.792808</ele>
        <time>2022-09-11T20:15:21.000Z</time>
      </trkpt>
      <trkpt lat="48.3309" lon="15.99434">
        <ele>176.804188</ele>
        <time>2022-09-11T20:15:27.375Z</time>
      </trkpt>
      <trkpt lat="48.33106" lon="15.99296">
        <ele>176.849904</ele>
        <time>2022-09-11T20:15:52.464Z</time>
      </trkpt>
      <trkpt lat="48.33103" lon="15.99249">
        <ele>176.865483</ele>
        <time>2022-09-11T20:16:01.047Z</time>
      </trkpt>
      <trkpt lat="48.33078" lon="15.99211">
        <ele>176.796506</ele>
        <time>2022-09-11T20:16:10.687Z</time>
      </trkpt>
      <trkpt lat="48.33028" lon="15.99168">
        <ele>176.608006</ele>
        <time>2022-09-11T20:16:25.594Z</time>
      </trkpt>
      <trkpt lat="48.32927" lon="15.99133">
        <ele>176.262225</ele>
        <time>2022-09-11T20:16:51.135Z</time>
      </trkpt>
      <trkpt lat="48.32884" lon="15.99098">
        <ele>175.955884</ele>
        <time>2022-09-11T20:17:03.069Z</time>
      </trkpt>
      <trkpt lat="48.32865" lon="15.99051">
        <ele>175.726621</ele>
        <time>2022-09-11T20:17:11.967Z</time>
      </trkpt>
      <trkpt lat="48.32848" lon="15.9893">
        <ele>175.217507</ele>
        <time>2022-09-11T20:17:31.708Z</time>
      </trkpt>
      <trkpt lat="48.32811" lon="15.98841">
        <ele>175.061927</ele>
        <time>2022-09-11T20:17:48.847Z</time>
      </trkpt>
      <trkpt lat="48.32811" lon="15.98771">
        <ele>174.980579</ele>
        <time>2022-09-11T20:18:00.504Z</time>
      </trkpt>
      <trkpt lat="48.32811" lon="15.98762">
        <ele>174.969775</ele>
        <time>2022-09-11T20:18:02.132Z</time>
      </trkpt>
      <trkpt lat="48.32812" lon="15.98731">
        <ele>174.933132</ele>
        <time>2022-09-11T20:18:07.619Z</time>
      </trkpt>
      <trkpt lat="48.32811" lon="15.98676">
        <ele>174.868558</ele>
        <time>2022-09-11T20:18:17.494Z</time>
      </trkpt>
      <trkpt lat="48.32793" lon="15.98621">
        <ele>175.082868</ele>
        <time>2022-09-11T20:18:29.008Z</time>
      </trkpt>
      <trkpt lat="48.32762" lon="15.98526">
        <ele>175.582644</ele>
        <time>2022-09-11T20:18:50.348Z</time>
      </trkpt>
      <trkpt lat="48.32748" lon="15.98486">
        <ele>175.796728</ele>
        <time>2022-09-11T20:18:59.742Z</time>
      </trkpt>
      <trkpt lat="48.32765" lon="15.98473">
        <ele>175.92794</ele>
        <time>2022-09-11T20:19:05.599Z</time>
      </trkpt>
      <trkpt lat="48.3281" lon="15.98429">
        <ele>176.333053</ele>
        <time>2022-09-11T20:19:22.517Z</time>
      </trkpt>
      <trkpt lat="48.32869" lon="15.9835">
        <ele>176.981711</ele>
        <time>2022-09-11T20:19:47.419Z</time>
      </trkpt>
      <trkpt lat="48.32891" lon="15.9831">
        <ele>177.256819</ele>
        <time>2022-09-11T20:19:57.570Z</time>
      </trkpt>
      <trkpt lat="48.32918" lon="15.98275">
        <ele>177.552485</ele>
        <time>2022-09-11T20:20:08.284Z</time>
      </trkpt>
      <trkpt lat="48.32939" lon="15.98229">
        <ele>177.708802</ele>
        <time>2022-09-11T20:20:18.974Z</time>
      </trkpt>
      <trkpt lat="48.32959" lon="15.98164">
        <ele>177.882964</ele>
        <time>2022-09-11T20:20:32.744Z</time>
      </trkpt>
      <trkpt lat="48.32974" lon="15.98138">
        <ele>177.968141</ele>
        <time>2022-09-11T20:20:39.161Z</time>
      </trkpt>
      <trkpt lat="48.33012" lon="15.98023">
        <ele>178.25649</ele>
        <time>2022-09-11T20:21:02.931Z</time>
      </trkpt>
      <trkpt lat="48.33024" lon="15.97846">
        <ele>178.314104</ele>
        <time>2022-09-11T20:21:34.888Z</time>
      </trkpt>
      <trkpt lat="48.33036" lon="15.97715">
        <ele>178.288508</ele>
        <time>2022-09-11T20:21:58.137Z</time>
      </trkpt>
      <trkpt lat="48.33045" lon="15.97659">
        <ele>178.230212</ele>
        <time>2022-09-11T20:22:08.173Z</time>
      </trkpt>
      <trkpt lat="48.33047" lon="15.97649">
        <ele>178.218855</ele>
        <time>2022-09-11T20:22:10.083Z</time>
      </trkpt>
      <trkpt lat="48.33051" lon="15.97612">
        <ele>178.181618</ele>
        <time>2022-09-11T20:22:16.383Z</time>
      </trkpt>
      <trkpt lat="48.33064" lon="15.97556">
        <ele>178.121466</ele>
        <time>2022-09-11T20:22:26.504Z</time>
      </trkpt>
      <trkpt lat="48.3309" lon="15.97482">
        <ele>178.056274</ele>
        <time>2022-09-11T20:22:40.965Z</time>
      </trkpt>
      <trkpt lat="48.33114" lon="15.97422">
        <ele>178.030889</ele>
        <time>2022-09-11T20:22:53.409Z</time>
      </trkpt>
      <trkpt lat="48.3313" lon="15.9739">
        <ele>178.016677</ele>
        <time>2022-09-11T20:23:00.346Z</time>
      </trkpt>
      <trkpt lat="48.33137" lon="15.97338">
        <ele>177.997424</ele>
        <time>2022-09-11T20:23:09.733Z</time>
      </trkpt>
      <trkpt lat="48.33141" lon="15.97307">
        <ele>177.98632</ele>
        <time>2022-09-11T20:23:15.246Z</time>
      </trkpt>
      <trkpt lat="48.33141" lon="15.97269">
        <ele>177.972523</ele>
        <time>2022-09-11T20:23:21.941Z</time>
      </trkpt>
      <trkpt lat="48.331" lon="15.97161">
        <ele>178.001798</ele>
        <time>2022-09-11T20:23:44.346Z</time>
      </trkpt>
      <trkpt lat="48.33075" lon="15.97047">
        <ele>178.034522</ele>
        <time>2022-09-11T20:24:05.758Z</time>
      </trkpt>
      <trkpt lat="48.33055" lon="15.96921">
        <ele>178.251361</ele>
        <time>2022-09-11T20:24:29.159Z</time>
      </trkpt>
      <trkpt lat="48.33053" lon="15.96866">
        <ele>178.369644</ele>
        <time>2022-09-11T20:24:39.439Z</time>
      </trkpt>
      <trkpt lat="48.33061" lon="15.96772">
        <ele>178.574276</ele>
        <time>2022-09-11T20:24:57.704Z</time>
      </trkpt>
      <trkpt lat="48.33088" lon="15.96586">
        <ele>179.149911</ele>
        <time>2022-09-11T20:25:35.260Z</time>
      </trkpt>
      <trkpt lat="48.33125" lon="15.96452">
        <ele>179.457527</ele>
        <time>2022-09-11T20:26:02.560Z</time>
      </trkpt>
      <trkpt lat="48.33155" lon="15.96386">
        <ele>179.415049</ele>
        <time>2022-09-11T20:26:16.842Z</time>
      </trkpt>
      <trkpt lat="48.3318" lon="15.96314">
        <ele>179.372866</ele>
        <time>2022-09-11T20:26:30.639Z</time>
      </trkpt>
      <trkpt lat="48.33196" lon="15.96247">
        <ele>179.332126</ele>
        <time>2022-09-11T20:26:42.603Z</time>
      </trkpt>
      <trkpt lat="48.33104" lon="15.96193">
        <ele>178.989066</ele>
        <time>2022-09-11T20:27:07.135Z</time>
      </trkpt>
      <trkpt lat="48.33081" lon="15.9617">
        <ele>178.891255</ele>
        <time>2022-09-11T20:27:14.139Z</time>
      </trkpt>
      <trkpt lat="48.33059" lon="15.96102">
        <ele>178.715172</ele>
        <time>2022-09-11T20:27:27.064Z</time>
      </trkpt>
      <trkpt lat="48.33048" lon="15.96043">
        <ele>178.71685</ele>
        <time>2022-09-11T20:27:37.670Z</time>
      </trkpt>
      <trkpt lat="48.33055" lon="15.95998">
        <ele>178.721957</ele>
        <time>2022-09-11T20:27:45.784Z</time>
      </trkpt>
      <trkpt lat="48.33066" lon="15.95974">
        <ele>178.72511</ele>
        <time>2022-09-11T20:27:50.829Z</time>
      </trkpt>
      <trkpt lat="48.33091" lon="15.9595">
        <ele>178.730033</ele>
        <time>2022-09-11T20:27:58.773Z</time>
      </trkpt>
      <trkpt lat="48.33132" lon="15.95924">
        <ele>178.73749</ele>
        <time>2022-09-11T20:28:11.092Z</time>
      </trkpt>
      <trkpt lat="48.33155" lon="15.959">
        <ele>178.763138</ele>
        <time>2022-09-11T20:28:18.783Z</time>
      </trkpt>
      <trkpt lat="48.33152" lon="15.95864">
        <ele>178.811373</ele>
        <time>2022-09-11T20:28:25.550Z</time>
      </trkpt>
      <trkpt lat="48.33103" lon="15.95838">
        <ele>178.916203</ele>
        <time>2022-09-11T20:28:40.376Z</time>
      </trkpt>
      <trkpt lat="48.33086" lon="15.95822">
        <ele>178.956941</ele>
        <time>2022-09-11T20:28:46.164Z</time>
      </trkpt>
      <trkpt lat="48.33054" lon="15.95737">
        <ele>179.085968</ele>
        <time>2022-09-11T20:29:03.490Z</time>
      </trkpt>
      <trkpt lat="48.33049" lon="15.95694">
        <ele>179.14155</ele>
        <time>2022-09-11T20:29:11.489Z</time>
      </trkpt>
      <trkpt lat="48.33049" lon="15.95677">
        <ele>179.162405</ele>
        <time>2022-09-11T20:29:14.321Z</time>
      </trkpt>
      <trkpt lat="48.33061" lon="15.95633">
        <ele>179.219944</ele>
        <time>2022-09-11T20:29:22.802Z</time>
      </trkpt>
      <trkpt lat="48.3309" lon="15.95622">
        <ele>179.273635</ele>
        <time>2022-09-11T20:29:31.030Z</time>
      </trkpt>
      <trkpt lat="48.33133" lon="15.95582">
        <ele>179.3675</ele>
        <time>2022-09-11T20:29:45.456Z</time>
      </trkpt>
      <trkpt lat="48.33154" lon="15.95582">
        <ele>179.404508</ele>
        <time>2022-09-11T20:29:51.567Z</time>
      </trkpt>
      <trkpt lat="48.33161" lon="15.95571">
        <ele>179.422662</ele>
        <time>2022-09-11T20:29:54.111Z</time>
      </trkpt>
      <trkpt lat="48.33159" lon="15.95544">
        <ele>179.465613</ele>
        <time>2022-09-11T20:29:58.944Z</time>
      </trkpt>
      <trkpt lat="48.33139" lon="15.95509">
        <ele>179.54677</ele>
        <time>2022-09-11T20:30:07.095Z</time>
      </trkpt>
      <trkpt lat="48.33115" lon="15.95497">
        <ele>179.613506</ele>
        <time>2022-09-11T20:30:13.912Z</time>
      </trkpt>
      <trkpt lat="48.33115" lon="15.95488">
        <ele>179.6284</ele>
        <time>2022-09-11T20:30:15.346Z</time>
      </trkpt>
      <trkpt lat="48.33116" lon="15.95471">
        <ele>179.658036</ele>
        <time>2022-09-11T20:30:18.543Z</time>
      </trkpt>
      <trkpt lat="48.33116" lon="15.95458">
        <ele>179.680674</ele>
        <time>2022-09-11T20:30:21.050Z</time>
      </trkpt>
      <trkpt lat="48.33013" lon="15.95397">
        <ele>179.880225</ele>
        <time>2022-09-11T20:30:52.952Z</time>
      </trkpt>
      <trkpt lat="48.33007" lon="15.95388">
        <ele>179.871245</ele>
        <time>2022-09-11T20:30:55.373Z</time>
      </trkpt>
      <trkpt lat="48.33005" lon="15.95374">
        <ele>179.862006</ele>
        <time>2022-09-11T20:30:57.942Z</time>
      </trkpt>
      <trkpt lat="48.33004" lon="15.95309">
        <ele>179.820104</ele>
        <time>2022-09-11T20:31:08.862Z</time>
      </trkpt>
      <trkpt lat="48.32995" lon="15.95291">
        <ele>179.80497</ele>
        <time>2022-09-11T20:31:12.666Z</time>
      </trkpt>
      <trkpt lat="48.32967" lon="15.95274">
        <ele>179.775236</ele>
        <time>2022-09-11T20:31:20.385Z</time>
      </trkpt>
      <trkpt lat="48.32998" lon="15.95101">
        <ele>179.72128</ele>
        <time>2022-09-11T20:31:51.407Z</time>
      </trkpt>
      <trkpt lat="48.33031" lon="15.95068">
        <ele>179.716802</ele>
        <time>2022-09-11T20:32:01.983Z</time>
      </trkpt>
      <trkpt lat="48.33042" lon="15.95048">
        <ele>179.714842</ele>
        <time>2022-09-11T20:32:06.497Z</time>
      </trkpt>
      <trkpt lat="48.33039" lon="15.94979">
        <ele>179.709652</ele>
        <time>2022-09-11T20:32:18.868Z</time>
      </trkpt>
      <trkpt lat="48.33073" lon="15.94851">
        <ele>179.890102</ele>
        <time>2022-09-11T20:32:44.946Z</time>
      </trkpt>
      <trkpt lat="48.33079" lon="15.94813">
        <ele>179.944654</ele>
        <time>2022-09-11T20:32:52.259Z</time>
      </trkpt>
      <trkpt lat="48.33074" lon="15.94707">
        <ele>180.087771</ele>
        <time>2022-09-11T20:33:11.384Z</time>
      </trkpt>
      <trkpt lat="48.33161" lon="15.94584">
        <ele>180.180595</ele>
        <time>2022-09-11T20:33:43.925Z</time>
      </trkpt>
      <trkpt lat="48.33186" lon="15.94582">
        <ele>180.19965</ele>
        <time>2022-09-11T20:33:50.498Z</time>
      </trkpt>
      <trkpt lat="48.33197" lon="15.94578">
        <ele>180.208483</ele>
        <time>2022-09-11T20:33:53.533Z</time>
      </trkpt>
      <trkpt lat="48.33207" lon="15.94543">
        <ele>180.229225</ele>
        <time>2022-09-11T20:34:00.263Z</time>
      </trkpt>
      <trkpt lat="48.33213" lon="15.94505">
        <ele>180.254023</ele>
        <time>2022-09-11T20:34:07.221Z</time>
      </trkpt>
      <trkpt lat="48.33234" lon="15.94466">
        <ele>180.286701</ele>
        <time>2022-09-11T20:34:16.368Z</time>
      </trkpt>
      <trkpt lat="48.33317" lon="15.94354">
        <ele>180.395057</ele>
        <time>2022-09-11T20:34:47.056Z</time>
      </trkpt>
      <trkpt lat="48.33425" lon="15.94189">
        <ele>180.05782</ele>
        <time>2022-09-11T20:35:26.642Z</time>
      </trkpt>
      <trkpt lat="48.33468" lon="15.94133">
        <ele>179.92324</ele>
        <time>2022-09-11T20:35:40.926Z</time>
      </trkpt>
      <trkpt lat="48.33575" lon="15.9403">
        <ele>179.61314</ele>
        <time>2022-09-11T20:36:13.121Z</time>
      </trkpt>
      <trkpt lat="48.33581" lon="15.94023">
        <ele>179.59453</ele>
        <time>2022-09-11T20:36:15.108Z</time>
      </trkpt>
      <trkpt lat="48.33632" lon="15.93974">
        <ele>179.629374</ele>
        <time>2022-09-11T20:36:31.296Z</time>
      </trkpt>
      <trkpt lat="48.33674" lon="15.93936">
        <ele>179.725466</ele>
        <time>2022-09-11T20:36:44.816Z</time>
      </trkpt>
      <trkpt lat="48.33727" lon="15.93993">
        <ele>179.8514</ele>
        <time>2022-09-11T20:37:02.966Z</time>
      </trkpt>
      <trkpt lat="48.33749" lon="15.94008">
        <ele>179.8993</ele>
        <time>2022-09-11T20:37:09.861Z</time>
      </trkpt>
      <trkpt lat="48.33832" lon="15.94043">
        <ele>180.244946</ele>
        <time>2022-09-11T20:37:34.409Z</time>
      </trkpt>
      <trkpt lat="48.33838" lon="15.94039">
        <ele>180.273342</ele>
        <time>2022-09-11T20:37:36.464Z</time>
      </trkpt>
      <trkpt lat="48.33909" lon="15.93825">
        <ele>180.750071</ele>
        <time>2022-09-11T20:38:21.818Z</time>
      </trkpt>
      <trkpt lat="48.33916" lon="15.93804">
        <ele>180.777262</ele>
        <time>2022-09-11T20:38:25.949Z</time>
      </trkpt>
      <trkpt lat="48.33955" lon="15.93679">
        <ele>180.937501</ele>
        <time>2022-09-11T20:38:50.372Z</time>
      </trkpt>
      <trkpt lat="48.33977" lon="15.93593">
        <ele>181.196803</ele>
        <time>2022-09-11T20:39:08.236Z</time>
      </trkpt>
      <trkpt lat="48.33983" lon="15.93545">
        <ele>181.333084</ele>
        <time>2022-09-11T20:39:17.557Z</time>
      </trkpt>
      <trkpt lat="48.33992" lon="15.93487">
        <ele>181.500888</ele>
        <time>2022-09-11T20:39:28.950Z</time>
      </trkpt>
      <trkpt lat="48.34011" lon="15.93414">
        <ele>181.71783</ele>
        <time>2022-09-11T20:39:44.068Z</time>
      </trkpt>
      <trkpt lat="48.34023" lon="15.93374">
        <ele>181.809888</ele>
        <time>2022-09-11T20:39:52.682Z</time>
      </trkpt>
      <trkpt lat="48.34084" lon="15.93136">
        <ele>182.277297</ele>
        <time>2022-09-11T20:40:40.440Z</time>
      </trkpt>
      <trkpt lat="48.34111" lon="15.93055">
        <ele>182.287074</ele>
        <time>2022-09-11T20:40:55.942Z</time>
      </trkpt>
      <trkpt lat="48.34159" lon="15.92907">
        <ele>182.336806</ele>
        <time>2022-09-11T20:41:24.923Z</time>
      </trkpt>
      <trkpt lat="48.34194" lon="15.92755">
        <ele>182.595471</ele>
        <time>2022-09-11T20:41:55.488Z</time>
      </trkpt>
      <trkpt lat="48.342" lon="15.92741">
        <ele>182.622775</ele>
        <time>2022-09-11T20:41:58.604Z</time>
      </trkpt>
      <trkpt lat="48.34274" lon="15.92661">
        <ele>182.691961</ele>
        <time>2022-09-11T20:42:23.511Z</time>
      </trkpt>
      <trkpt lat="48.34323" lon="15.92605">
        <ele>182.623615</ele>
        <time>2022-09-11T20:42:39.777Z</time>
      </trkpt>
      <trkpt lat="48.34332" lon="15.92587">
        <ele>182.606435</ele>
        <time>2022-09-11T20:42:43.830Z</time>
      </trkpt>
      <trkpt lat="48.34394" lon="15.92351">
        <ele>182.290046</ele>
        <time>2022-09-11T20:43:25.863Z</time>
      </trkpt>
      <trkpt lat="48.34402" lon="15.92343">
        <ele>182.268084</ele>
        <time>2022-09-11T20:43:28.326Z</time>
      </trkpt>
      <trkpt lat="48.34462" lon="15.92377">
        <ele>182.144165</ele>
        <time>2022-09-11T20:43:45.280Z</time>
      </trkpt>
      <trkpt lat="48.34517" lon="15.92412">
        <ele>182.603477</ele>
        <time>2022-09-11T20:44:01.982Z</time>
      </trkpt>
      <trkpt lat="48.34592" lon="15.92107">
        <ele>184.67836</ele>
        <time>2022-09-11T20:45:11.194Z</time>
      </trkpt>
      <trkpt lat="48.34612" lon="15.92027">
        <ele>185.356977</ele>
        <time>2022-09-11T20:45:31.126Z</time>
      </trkpt>
      <trkpt lat="48.34618" lon="15.9199">
        <ele>185.651856</ele>
        <time>2022-09-11T20:45:39.826Z</time>
      </trkpt>
      <trkpt lat="48.34653" lon="15.91779">
        <ele>185.497367</ele>
        <time>2022-09-11T20:46:19.411Z</time>
      </trkpt>
      <trkpt lat="48.34677" lon="15.91549">
        <ele>183.604127</ele>
        <time>2022-09-11T20:46:53.039Z</time>
      </trkpt>
      <trkpt lat="48.34695" lon="15.91372">
        <ele>182.282995</ele>
        <time>2022-09-11T20:47:18.871Z</time>
      </trkpt>
      <trkpt lat="48.34701" lon="15.9127">
        <ele>181.832087</ele>
        <time>2022-09-11T20:47:35.805Z</time>
      </trkpt>
      <trkpt lat="48.34692" lon="15.91185">
        <ele>181.495643</ele>
        <time>2022-09-11T20:47:51.229Z</time>
      </trkpt>
      <trkpt lat="48.34712" lon="15.91157">
        <ele>181.586001</ele>
        <time>2022-09-11T20:47:58.842Z</time>
      </trkpt>
      <trkpt lat="48.34748" lon="15.91054">
        <ele>181.839938</ele>
        <time>2022-09-11T20:48:20.565Z</time>
      </trkpt>
      <trkpt lat="48.34814" lon="15.90902">
        <ele>181.975119</ele>
        <time>2022-09-11T20:48:56.120Z</time>
      </trkpt>
      <trkpt lat="48.3487" lon="15.90754">
        <ele>181.754746</ele>
        <time>2022-09-11T20:49:24.573Z</time>
      </trkpt>
      <trkpt lat="48.34956" lon="15.9045">
        <ele>180.071369</ele>
        <time>2022-09-11T20:50:15.130Z</time>
      </trkpt>
      <trkpt lat="48.34968" lon="15.90408">
        <ele>180.084383</ele>
        <time>2022-09-11T20:50:23.206Z</time>
      </trkpt>
      <trkpt lat="48.34973" lon="15.9038">
        <ele>180.092725</ele>
        <time>2022-09-11T20:50:28.355Z</time>
      </trkpt>
      <trkpt lat="48.34977" lon="15.90357">
        <ele>180.099386</ele>
        <time>2022-09-11T20:50:32.778Z</time>
      </trkpt>
      <trkpt lat="48.35006" lon="15.90197">
        <ele>180.170938</ele>
        <time>2022-09-11T20:51:04.917Z</time>
      </trkpt>
      <trkpt lat="48.35069" lon="15.89987">
        <ele>180.435221</ele>
        <time>2022-09-11T20:51:46.876Z</time>
      </trkpt>
      <trkpt lat="48.35096" lon="15.89881">
        <ele>180.611055</ele>
        <time>2022-09-11T20:52:06.593Z</time>
      </trkpt>
      <trkpt lat="48.35164" lon="15.89546">
        <ele>181.476094</ele>
        <time>2022-09-11T20:53:13.473Z</time>
      </trkpt>
      <trkpt lat="48.35206" lon="15.89334">
        <ele>182.147903</ele>
        <time>2022-09-11T20:53:56.690Z</time>
      </trkpt>
      <trkpt lat="48.35248" lon="15.89181">
        <ele>182.602012</ele>
        <time>2022-09-11T20:54:27.713Z</time>
      </trkpt>
      <trkpt lat="48.35318" lon="15.89039">
        <ele>182.94534</ele>
        <time>2022-09-11T20:55:00.479Z</time>
      </trkpt>
      <trkpt lat="48.35403" lon="15.88889">
        <ele>182.880246</ele>
        <time>2022-09-11T20:55:38.047Z</time>
      </trkpt>
      <trkpt lat="48.354" lon="15.8886">
        <ele>182.837128</ele>
        <time>2022-09-11T20:55:42.863Z</time>
      </trkpt>
      <trkpt lat="48.35378" lon="15.88811">
        <ele>182.747412</ele>
        <time>2022-09-11T20:55:52.396Z</time>
      </trkpt>
      <trkpt lat="48.35385" lon="15.88799">
        <ele>182.723686</ele>
        <time>2022-09-11T20:55:54.768Z</time>
      </trkpt>
      <trkpt lat="48.35398" lon="15.88777">
        <ele>182.679911</ele>
        <time>2022-09-11T20:55:59.306Z</time>
      </trkpt>
      <trkpt lat="48.354" lon="15.88773">
        <ele>182.671758</ele>
        <time>2022-09-11T20:56:00.158Z</time>
      </trkpt>
      <trkpt lat="48.35425" lon="15.8873">
        <ele>182.31391</ele>
        <time>2022-09-11T20:56:08.795Z</time>
      </trkpt>
      <trkpt lat="48.35437" lon="15.8871">
        <ele>182.132199</ele>
        <time>2022-09-11T20:56:12.954Z</time>
      </trkpt>
      <trkpt lat="48.35488" lon="15.88687">
        <ele>181.611059</ele>
        <time>2022-09-11T20:56:25.024Z</time>
      </trkpt>
      <trkpt lat="48.35511" lon="15.88672">
        <ele>181.370089</ele>
        <time>2022-09-11T20:56:30.278Z</time>
      </trkpt>
      <trkpt lat="48.35525" lon="15.88657">
        <ele>181.203155</ele>
        <time>2022-09-11T20:56:34.075Z</time>
      </trkpt>
      <trkpt lat="48.35611" lon="15.88517">
        <ele>181.410588</ele>
        <time>2022-09-11T20:57:08.082Z</time>
      </trkpt>
      <trkpt lat="48.35685" lon="15.88397">
        <ele>182.141184</ele>
        <time>2022-09-11T20:57:43.563Z</time>
      </trkpt>
      <trkpt lat="48.35727" lon="15.88324">
        <ele>182.912822</ele>
        <time>2022-09-11T20:58:05.334Z</time>
      </trkpt>
      <trkpt lat="48.35751" lon="15.88243">
        <ele>183.621804</ele>
        <time>2022-09-11T20:58:24.397Z</time>
      </trkpt>
      <trkpt lat="48.35755" lon="15.88211">
        <ele>183.875675</ele>
        <time>2022-09-11T20:58:31.143Z</time>
      </trkpt>
      <trkpt lat="48.35795" lon="15.88087">
        <ele>184.60634</ele>
        <time>2022-09-11T20:58:58.476Z</time>
      </trkpt>
      <trkpt lat="48.35813" lon="15.88048">
        <ele>184.845715</ele>
        <time>2022-09-11T20:59:08.170Z</time>
      </trkpt>
      <trkpt lat="48.3582" lon="15.88047">
        <ele>184.899491</ele>
        <time>2022-09-11T20:59:10.505Z</time>
      </trkpt>
      <trkpt lat="48.35854" lon="15.88028">
        <ele>185.176452</ele>
        <time>2022-09-11T20:59:21.711Z</time>
      </trkpt>
      <trkpt lat="48.35876" lon="15.87992">
        <ele>185.377834</ele>
        <time>2022-09-11T20:59:31.294Z</time>
      </trkpt>
      <trkpt lat="48.35885" lon="15.87981">
        <ele>185.415788</ele>
        <time>2022-09-11T20:59:35.036Z</time>
      </trkpt>
      <trkpt lat="48.35915" lon="15.87968">
        <ele>185.522771</ele>
        <time>2022-09-11T20:59:44.249Z</time>
      </trkpt>
      <trkpt lat="48.35928" lon="15.87967">
        <ele>185.567489</ele>
        <time>2022-09-11T20:59:48.079Z</time>
      </trkpt>
      <trkpt lat="48.35951" lon="15.87977">
        <ele>185.648147</ele>
        <time>2022-09-11T20:59:54.876Z</time>
      </trkpt>
      <trkpt lat="48.36004" lon="15.87967">
        <ele>185.830358</ele>
        <time>2022-09-11T21:00:09.391Z</time>
      </trkpt>
      <trkpt lat="48.36075" lon="15.87964">
        <ele>186.004638</ele>
        <time>2022-09-11T21:00:28.503Z</time>
      </trkpt>
      <trkpt lat="48.36084" lon="15.87959">
        <ele>186.020734</ele>
        <time>2022-09-11T21:00:31.228Z</time>
      </trkpt>
      <trkpt lat="48.36098" lon="15.87904">
        <ele>186.081694</ele>
        <time>2022-09-11T21:00:41.706Z</time>
      </trkpt>
      <trkpt lat="48.36138" lon="15.87666">
        <ele>186.131231</ele>
        <time>2022-09-11T21:01:27.175Z</time>
      </trkpt>
      <trkpt lat="48.36151" lon="15.87614">
        <ele>186.076862</ele>
        <time>2022-09-11T21:01:36.635Z</time>
      </trkpt>
      <trkpt lat="48.36173" lon="15.8756">
        <ele>186.013398</ele>
        <time>2022-09-11T21:01:47.361Z</time>
      </trkpt>
      <trkpt lat="48.36205" lon="15.87514">
        <ele>185.855679</ele>
        <time>2022-09-11T21:01:58.360Z</time>
      </trkpt>
      <trkpt lat="48.36221" lon="15.87478">
        <ele>185.570708</ele>
        <time>2022-09-11T21:02:05.181Z</time>
      </trkpt>
      <trkpt lat="48.36238" lon="15.87438">
        <ele>185.250849</ele>
        <time>2022-09-11T21:02:12.373Z</time>
      </trkpt>
      <trkpt lat="48.36286" lon="15.87359">
        <ele>184.538627</ele>
        <time>2022-09-11T21:02:28.285Z</time>
      </trkpt>
      <trkpt lat="48.36289" lon="15.8733">
        <ele>184.343654</ele>
        <time>2022-09-11T21:02:32.640Z</time>
      </trkpt>
      <trkpt lat="48.36278" lon="15.87301">
        <ele>184.170514</ele>
        <time>2022-09-11T21:02:37.875Z</time>
      </trkpt>
      <trkpt lat="48.36278" lon="15.87271">
        <ele>184.194989</ele>
        <time>2022-09-11T21:02:42.282Z</time>
      </trkpt>
      <trkpt lat="48.36282" lon="15.87256">
        <ele>184.208671</ele>
        <time>2022-09-11T21:02:45.162Z</time>
      </trkpt>
      <trkpt lat="48.36293" lon="15.87207">
        <ele>184.252098</ele>
        <time>2022-09-11T21:02:54.508Z</time>
      </trkpt>
      <trkpt lat="48.36301" lon="15.87178">
        <ele>184.278331</ele>
        <time>2022-09-11T21:03:00.292Z</time>
      </trkpt>
      <trkpt lat="48.36317" lon="15.87169">
        <ele>184.299552</ele>
        <time>2022-09-11T21:03:05.310Z</time>
      </trkpt>
      <trkpt lat="48.36332" lon="15.87183">
        <ele>184.321901</ele>
        <time>2022-09-11T21:03:10.265Z</time>
      </trkpt>
      <trkpt lat="48.3635" lon="15.87226">
        <ele>184.364974</ele>
        <time>2022-09-11T21:03:20.292Z</time>
      </trkpt>
      <trkpt lat="48.36399" lon="15.87321">
        <ele>184.805229</ele>
        <time>2022-09-11T21:03:45.241Z</time>
      </trkpt>
      <trkpt lat="48.36417" lon="15.87386">
        <ele>185.131559</ele>
        <time>2022-09-11T21:03:59.661Z</time>
      </trkpt>
      <trkpt lat="48.36424" lon="15.87443">
        <ele>185.40318</ele>
        <time>2022-09-11T21:04:11.642Z</time>
      </trkpt>
      <trkpt lat="48.36424" lon="15.87528">
        <ele>185.399155</ele>
        <time>2022-09-11T21:04:28.395Z</time>
      </trkpt>
      <trkpt lat="48.36431" lon="15.87554">
        <ele>185.163564</ele>
        <time>2022-09-11T21:04:33.067Z</time>
      </trkpt>
      <trkpt lat="48.36446" lon="15.87553">
        <ele>184.975077</ele>
        <time>2022-09-11T21:04:36.638Z</time>
      </trkpt>
      <trkpt lat="48.36524" lon="15.87461">
        <ele>183.721842</ele>
        <time>2022-09-11T21:04:57.733Z</time>
      </trkpt>
      <trkpt lat="48.36536" lon="15.87457">
        <ele>183.559413</ele>
        <time>2022-09-11T21:05:00.443Z</time>
      </trkpt>
      <trkpt lat="48.36554" lon="15.87482">
        <ele>183.190443</ele>
        <time>2022-09-11T21:05:05.559Z</time>
      </trkpt>
      <trkpt lat="48.36559" lon="15.87492">
        <ele>183.044058</ele>
        <time>2022-09-11T21:05:07.271Z</time>
      </trkpt>
      <trkpt lat="48.3659" lon="15.87564">
        <ele>182.028484</ele>
        <time>2022-09-11T21:05:19.127Z</time>
      </trkpt>
      <trkpt lat="48.36606" lon="15.87569">
        <ele>181.730828</ele>
        <time>2022-09-11T21:05:22.647Z</time>
      </trkpt>
      <trkpt lat="48.3664" lon="15.87537">
        <ele>181.015025</ele>
        <time>2022-09-11T21:05:31.114Z</time>
      </trkpt>
      <trkpt lat="48.36715" lon="15.87451">
        <ele>180.133571</ele>
        <time>2022-09-11T21:05:52.426Z</time>
      </trkpt>
      <trkpt lat="48.36811" lon="15.87327">
        <ele>180.031452</ele>
        <time>2022-09-11T21:06:28.637Z</time>
      </trkpt>
      <trkpt lat="48.369" lon="15.87198">
        <ele>180.398141</ele>
        <time>2022-09-11T21:07:04.026Z</time>
      </trkpt>
      <trkpt lat="48.36985" lon="15.87058">
        <ele>180.774852</ele>
        <time>2022-09-11T21:07:38.879Z</time>
      </trkpt>
      <trkpt lat="48.37057" lon="15.86925">
        <ele>181.094004</ele>
        <time>2022-09-11T21:08:10.211Z</time>
      </trkpt>
      <trkpt lat="48.37093" lon="15.86843">
        <ele>181.695578</ele>
        <time>2022-09-11T21:08:29.800Z</time>
      </trkpt>
      <trkpt lat="48.37126" lon="15.86753">
        <ele>182.339309</ele>
        <time>2022-09-11T21:08:51.780Z</time>
      </trkpt>
      <trkpt lat="48.37143" lon="15.86683">
        <ele>182.810009</ele>
        <time>2022-09-11T21:09:08.532Z</time>
      </trkpt>
      <trkpt lat="48.37157" lon="15.86608">
        <ele>183.047631</ele>
        <time>2022-09-11T21:09:24.879Z</time>
      </trkpt>
      <trkpt lat="48.37163" lon="15.86549">
        <ele>183.233633</ele>
        <time>2022-09-11T21:09:37.137Z</time>
      </trkpt>
      <trkpt lat="48.37158" lon="15.865">
        <ele>183.386696</ele>
        <time>2022-09-11T21:09:46.894Z</time>
      </trkpt>
      <trkpt lat="48.37148" lon="15.86458">
        <ele>183.524386</ele>
        <time>2022-09-11T21:09:55.137Z</time>
      </trkpt>
      <trkpt lat="48.37012" lon="15.86084">
        <ele>181.817469</ele>
        <time>2022-09-11T21:11:01.083Z</time>
      </trkpt>
      <trkpt lat="48.36982" lon="15.8597">
        <ele>181.500901</ele>
        <time>2022-09-11T21:11:21.928Z</time>
      </trkpt>
      <trkpt lat="48.36953" lon="15.85841">
        <ele>181.904879</ele>
        <time>2022-09-11T21:11:48.466Z</time>
      </trkpt>
      <trkpt lat="48.36932" lon="15.85711">
        <ele>182.514984</ele>
        <time>2022-09-11T21:12:16.463Z</time>
      </trkpt>
      <trkpt lat="48.36912" lon="15.85528">
        <ele>183.056223</ele>
        <time>2022-09-11T21:12:53.660Z</time>
      </trkpt>
      <trkpt lat="48.36862" lon="15.85516">
        <ele>183.25667</ele>
        <time>2022-09-11T21:13:07.491Z</time>
      </trkpt>
      <trkpt lat="48.36858" lon="15.85492">
        <ele>183.321368</ele>
        <time>2022-09-11T21:13:11.745Z</time>
      </trkpt>
      <trkpt lat="48.37019" lon="15.85478">
        <ele>182.736987</ele>
        <time>2022-09-11T21:13:51.742Z</time>
      </trkpt>
      <trkpt lat="48.3704" lon="15.85476">
        <ele>182.648973</ele>
        <time>2022-09-11T21:13:57.010Z</time>
      </trkpt>
      <trkpt lat="48.37043" lon="15.85257">
        <ele>182.324615</ele>
        <time>2022-09-11T21:14:34.052Z</time>
      </trkpt>
      <trkpt lat="48.37083" lon="15.84855">
        <ele>182.700439</ele>
        <time>2022-09-11T21:15:46.671Z</time>
      </trkpt>
      <trkpt lat="48.37082" lon="15.84817">
        <ele>182.903438</ele>
        <time>2022-09-11T21:15:53.806Z</time>
      </trkpt>
      <trkpt lat="48.37068" lon="15.84737">
        <ele>183.355558</ele>
        <time>2022-09-11T21:16:11.298Z</time>
      </trkpt>
      <trkpt lat="48.37081" lon="15.84698">
        <ele>183.589598</ele>
        <time>2022-09-11T21:16:21.545Z</time>
      </trkpt>
      <trkpt lat="48.371" lon="15.84667">
        <ele>183.895866</ele>
        <time>2022-09-11T21:16:30.867Z</time>
      </trkpt>
      <trkpt lat="48.37162" lon="15.8462">
        <ele>185.167511</ele>
        <time>2022-09-11T21:16:54.474Z</time>
      </trkpt>
      <trkpt lat="48.37168" lon="15.84621">
        <ele>185.278122</ele>
        <time>2022-09-11T21:16:57.864Z</time>
      </trkpt>
      <trkpt lat="48.37375" lon="15.84853">
        <ele>190.271772</ele>
        <time>2022-09-11T21:18:29.363Z</time>
      </trkpt>
      <trkpt lat="48.37438" lon="15.84967">
        <ele>192.231655</ele>
        <time>2022-09-11T21:19:08.732Z</time>
      </trkpt>
      <trkpt lat="48.37549" lon="15.8505">
        <ele>194.181342</ele>
        <time>2022-09-11T21:19:52.842Z</time>
      </trkpt>
      <trkpt lat="48.37684" lon="15.84817">
        <ele>193.403194</ele>
        <time>2022-09-11T21:20:41.619Z</time>
      </trkpt>
      <trkpt lat="48.37769" lon="15.84621">
        <ele>192.357375</ele>
        <time>2022-09-11T21:21:18.315Z</time>
      </trkpt>
      <trkpt lat="48.37787" lon="15.84576">
        <ele>192.292546</ele>
        <time>2022-09-11T21:21:27.483Z</time>
      </trkpt>
      <trkpt lat="48.37835" lon="15.84407">
        <ele>192.070109</ele>
        <time>2022-09-11T21:21:59.941Z</time>
      </trkpt>
      <trkpt lat="48.3787" lon="15.84222">
        <ele>192.09655</ele>
        <time>2022-09-11T21:22:35.141Z</time>
      </trkpt>
      <trkpt lat="48.37894" lon="15.84039">
        <ele>191.476737</ele>
        <time>2022-09-11T21:23:06.526Z</time>
      </trkpt>
      <trkpt lat="48.3791" lon="15.83856">
        <ele>190.350636</ele>
        <time>2022-09-11T21:23:34.168Z</time>
      </trkpt>
      <trkpt lat="48.37924" lon="15.83552">
        <ele>187.994712</ele>
        <time>2022-09-11T21:24:19.094Z</time>
      </trkpt>
      <trkpt lat="48.37922" lon="15.83087">
        <ele>187.317407</ele>
        <time>2022-09-11T21:25:40.928Z</time>
      </trkpt>
      <trkpt lat="48.37915" lon="15.82926">
        <ele>187.168987</ele>
        <time>2022-09-11T21:26:09.239Z</time>
      </trkpt>
      <trkpt lat="48.37892" lon="15.82631">
        <ele>186.902248</ele>
        <time>2022-09-11T21:26:59.632Z</time>
      </trkpt>
      <trkpt lat="48.37874" lon="15.8245">
        <ele>186.901139</ele>
        <time>2022-09-11T21:27:32.516Z</time>
      </trkpt>
      <trkpt lat="48.37843" lon="15.82238">
        <ele>187.048537</ele>
        <time>2022-09-11T21:28:12.550Z</time>
      </trkpt>
      <trkpt lat="48.37814" lon="15.82029">
        <ele>186.716794</ele>
        <time>2022-09-11T21:28:48.956Z</time>
      </trkpt>
      <trkpt lat="48.37782" lon="15.81704">
        <ele>185.968509</ele>
        <time>2022-09-11T21:29:42.560Z</time>
      </trkpt>
      <trkpt lat="48.37763" lon="15.81462">
        <ele>186.328412</ele>
        <time>2022-09-11T21:30:28.805Z</time>
      </trkpt>
      <trkpt lat="48.37756" lon="15.81215">
        <ele>186.392307</ele>
        <time>2022-09-11T21:31:13.664Z</time>
      </trkpt>
      <trkpt lat="48.37784" lon="15.80993">
        <ele>185.986208</ele>
        <time>2022-09-11T21:31:50.239Z</time>
      </trkpt>
      <trkpt lat="48.37875" lon="15.80491">
        <ele>186.404356</ele>
        <time>2022-09-11T21:33:26.347Z</time>
      </trkpt>
      <trkpt lat="48.37935" lon="15.80108">
        <ele>186.389411</ele>
        <time>2022-09-11T21:34:36.225Z</time>
      </trkpt>
      <trkpt lat="48.37946" lon="15.79987">
        <ele>186.162062</ele>
        <time>2022-09-11T21:34:56.595Z</time>
      </trkpt>
      <trkpt lat="48.37957" lon="15.79765">
        <ele>185.958717</ele>
        <time>2022-09-11T21:35:33.831Z</time>
      </trkpt>
      <trkpt lat="48.37956" lon="15.79542">
        <ele>186.289403</ele>
        <time>2022-09-11T21:36:14.727Z</time>
      </trkpt>
      <trkpt lat="48.3793" lon="15.79152">
        <ele>188.3026</ele>
        <time>2022-09-11T21:37:36.959Z</time>
      </trkpt>
      <trkpt lat="48.37916" lon="15.79045">
        <ele>188.732556</ele>
        <time>2022-09-11T21:37:57.665Z</time>
      </trkpt>
      <trkpt lat="48.37887" lon="15.78902">
        <ele>188.644678</ele>
        <time>2022-09-11T21:38:23.491Z</time>
      </trkpt>
      <trkpt lat="48.3784" lon="15.78743">
        <ele>188.601636</ele>
        <time>2022-09-11T21:38:52.702Z</time>
      </trkpt>
      <trkpt lat="48.3763" lon="15.78224">
        <ele>188.75345</ele>
        <time>2022-09-11T21:40:42.108Z</time>
      </trkpt>
      <trkpt lat="48.3756" lon="15.78027">
        <ele>188.732844</ele>
        <time>2022-09-11T21:41:21.722Z</time>
      </trkpt>
      <trkpt lat="48.37482" lon="15.77786">
        <ele>188.652699</ele>
        <time>2022-09-11T21:42:07.974Z</time>
      </trkpt>
      <trkpt lat="48.37405" lon="15.77507">
        <ele>189.026176</ele>
        <time>2022-09-11T21:43:03.554Z</time>
      </trkpt>
      <trkpt lat="48.3731" lon="15.77127">
        <ele>190.02357</ele>
        <time>2022-09-11T21:44:21.724Z</time>
      </trkpt>
      <trkpt lat="48.37207" lon="15.76671">
        <ele>189.667851</ele>
        <time>2022-09-11T21:45:44.404Z</time>
      </trkpt>
      <trkpt lat="48.37188" lon="15.76627">
        <ele>189.62019</ele>
        <time>2022-09-11T21:45:54.135Z</time>
      </trkpt>
      <trkpt lat="48.37183" lon="15.76569">
        <ele>189.577774</ele>
        <time>2022-09-11T21:46:04.196Z</time>
      </trkpt>
      <trkpt lat="48.37155" lon="15.76448">
        <ele>189.497089</ele>
        <time>2022-09-11T21:46:25.895Z</time>
      </trkpt>
      <trkpt lat="48.37136" lon="15.76351">
        <ele>189.4333</ele>
        <time>2022-09-11T21:46:43.934Z</time>
      </trkpt>
      <trkpt lat="48.3713" lon="15.7629">
        <ele>189.374171</ele>
        <time>2022-09-11T21:46:55.228Z</time>
      </trkpt>
      <trkpt lat="48.37122" lon="15.76111">
        <ele>189.195418</ele>
        <time>2022-09-11T21:47:26.158Z</time>
      </trkpt>
      <trkpt lat="48.37116" lon="15.76061">
        <ele>189.08453</ele>
        <time>2022-09-11T21:47:34.613Z</time>
      </trkpt>
      <trkpt lat="48.3711" lon="15.76041">
        <ele>188.974699</ele>
        <time>2022-09-11T21:47:38.912Z</time>
      </trkpt>
      <trkpt lat="48.37098" lon="15.76025">
        <ele>188.864822</ele>
        <time>2022-09-11T21:47:42.366Z</time>
      </trkpt>
      <trkpt lat="48.37074" lon="15.76008">
        <ele>188.667592</ele>
        <time>2022-09-11T21:47:48.993Z</time>
      </trkpt>
      <trkpt lat="48.37057" lon="15.75975">
        <ele>188.463596</ele>
        <time>2022-09-11T21:47:55.734Z</time>
      </trkpt>
      <trkpt lat="48.37052" lon="15.75941">
        <ele>188.29816</ele>
        <time>2022-09-11T21:48:00.893Z</time>
      </trkpt>
      <trkpt lat="48.37049" lon="15.75908">
        <ele>188.135568</ele>
        <time>2022-09-11T21:48:06.330Z</time>
      </trkpt>
      <trkpt lat="48.37045" lon="15.75874">
        <ele>187.965695</ele>
        <time>2022-09-11T21:48:11.794Z</time>
      </trkpt>
      <trkpt lat="48.37041" lon="15.75839">
        <ele>187.813547</ele>
        <time>2022-09-11T21:48:17.027Z</time>
      </trkpt>
      <trkpt lat="48.37037" lon="15.75804">
        <ele>187.699164</ele>
        <time>2022-09-11T21:48:22.236Z</time>
      </trkpt>
      <trkpt lat="48.37033" lon="15.7577">
        <ele>187.584312</ele>
        <time>2022-09-11T21:48:27.656Z</time>
      </trkpt>
      <trkpt lat="48.37029" lon="15.75735">
        <ele>187.46978</ele>
        <time>2022-09-11T21:48:33.311Z</time>
      </trkpt>
      <trkpt lat="48.37029" lon="15.75687">
        <ele>187.312919</ele>
        <time>2022-09-11T21:48:41.236Z</time>
      </trkpt>
      <trkpt lat="48.37056" lon="15.75583">
        <ele>186.972522</ele>
        <time>2022-09-11T21:49:01.002Z</time>
      </trkpt>
      <trkpt lat="48.37059" lon="15.75552">
        <ele>187.004219</ele>
        <time>2022-09-11T21:49:06.866Z</time>
      </trkpt>
      <trkpt lat="48.36992" lon="15.74975">
        <ele>187.555028</ele>
        <time>2022-09-11T21:50:53.418Z</time>
      </trkpt>
      <trkpt lat="48.36978" lon="15.74769">
        <ele>187.704849</ele>
        <time>2022-09-11T21:51:29.959Z</time>
      </trkpt>
      <trkpt lat="48.3698" lon="15.74633">
        <ele>188.089484</ele>
        <time>2022-09-11T21:51:55.608Z</time>
      </trkpt>
      <trkpt lat="48.36989" lon="15.74498">
        <ele>188.486666</ele>
        <time>2022-09-11T21:52:22.755Z</time>
      </trkpt>
      <trkpt lat="48.37006" lon="15.74367">
        <ele>188.953417</ele>
        <time>2022-09-11T21:52:49.364Z</time>
      </trkpt>
      <trkpt lat="48.37033" lon="15.74231">
        <ele>189.360909</ele>
        <time>2022-09-11T21:53:16.148Z</time>
      </trkpt>
      <trkpt lat="48.37078" lon="15.74073">
        <ele>189.304894</ele>
        <time>2022-09-11T21:53:46.722Z</time>
      </trkpt>
      <trkpt lat="48.37129" lon="15.73946">
        <ele>189.100567</ele>
        <time>2022-09-11T21:54:11.622Z</time>
      </trkpt>
      <trkpt lat="48.37263" lon="15.73692">
        <ele>188.479872</ele>
        <time>2022-09-11T21:55:05.775Z</time>
      </trkpt>
      <trkpt lat="48.37331" lon="15.73585">
        <ele>188.331447</ele>
        <time>2022-09-11T21:55:31.938Z</time>
      </trkpt>
      <trkpt lat="48.37655" lon="15.73128">
        <ele>188.860446</ele>
        <time>2022-09-11T21:57:32.879Z</time>
      </trkpt>
      <trkpt lat="48.3781" lon="15.7291">
        <ele>189.030796</ele>
        <time>2022-09-11T21:58:30.326Z</time>
      </trkpt>
      <trkpt lat="48.37875" lon="15.72806">
        <ele>189.143948</ele>
        <time>2022-09-11T21:58:56.246Z</time>
      </trkpt>
      <trkpt lat="48.38137" lon="15.72319">
        <ele>190.046969</ele>
        <time>2022-09-11T22:00:51.675Z</time>
      </trkpt>
      <trkpt lat="48.38223" lon="15.72185">
        <ele>190.380549</ele>
        <time>2022-09-11T22:01:26.617Z</time>
      </trkpt>
      <trkpt lat="48.38333" lon="15.71993">
        <ele>190.781415</ele>
        <time>2022-09-11T22:02:13.556Z</time>
      </trkpt>
      <trkpt lat="48.3838" lon="15.71907">
        <ele>190.791781</ele>
        <time>2022-09-11T22:02:33.174Z</time>
      </trkpt>
      <trkpt lat="48.38441" lon="15.71794">
        <ele>190.843513</ele>
        <time>2022-09-11T22:02:58.808Z</time>
      </trkpt>
      <trkpt lat="48.38475" lon="15.7172">
        <ele>191.009777</ele>
        <time>2022-09-11T22:03:14.882Z</time>
      </trkpt>
      <trkpt lat="48.38535" lon="15.71561">
        <ele>191.419083</ele>
        <time>2022-09-11T22:03:49.657Z</time>
      </trkpt>
      <trkpt lat="48.38576" lon="15.71417">
        <ele>192.19611</ele>
        <time>2022-09-11T22:04:21.529Z</time>
      </trkpt>
      <trkpt lat="48.38612" lon="15.71244">
        <ele>193.008574</ele>
        <time>2022-09-11T22:04:58.238Z</time>
      </trkpt>
      <trkpt lat="48.3864" lon="15.71055">
        <ele>193.728759</ele>
        <time>2022-09-11T22:05:36.356Z</time>
      </trkpt>
      <trkpt lat="48.38656" lon="15.70871">
        <ele>193.673966</ele>
        <time>2022-09-11T22:06:09.219Z</time>
      </trkpt>
      <trkpt lat="48.38667" lon="15.70483">
        <ele>192.975828</ele>
        <time>2022-09-11T22:07:13.032Z</time>
      </trkpt>
      <trkpt lat="48.38665" lon="15.70259">
        <ele>193.29264</ele>
        <time>2022-09-11T22:07:54.642Z</time>
      </trkpt>
      <trkpt lat="48.38654" lon="15.70095">
        <ele>194.287344</ele>
        <time>2022-09-11T22:08:29.527Z</time>
      </trkpt>
      <trkpt lat="48.38645" lon="15.70008">
        <ele>194.824681</ele>
        <time>2022-09-11T22:08:48.229Z</time>
      </trkpt>
      <trkpt lat="48.38626" lon="15.69892">
        <ele>195.051429</ele>
        <time>2022-09-11T22:09:12.080Z</time>
      </trkpt>
      <trkpt lat="48.38603" lon="15.69793">
        <ele>195.163371</ele>
        <time>2022-09-11T22:09:31.214Z</time>
      </trkpt>
      <trkpt lat="48.38535" lon="15.69563">
        <ele>194.481574</ele>
        <time>2022-09-11T22:10:11.383Z</time>
      </trkpt>
      <trkpt lat="48.38477" lon="15.69403">
        <ele>193.991689</ele>
        <time>2022-09-11T22:10:41.318Z</time>
      </trkpt>
      <trkpt lat="48.38393" lon="15.69211">
        <ele>193.806208</ele>
        <time>2022-09-11T22:11:21.488Z</time>
      </trkpt>
      <trkpt lat="48.38361" lon="15.69094">
        <ele>193.959055</ele>
        <time>2022-09-11T22:11:44.579Z</time>
      </trkpt>
      <trkpt lat="48.38339" lon="15.69032">
        <ele>194.043084</ele>
        <time>2022-09-11T22:11:57.634Z</time>
      </trkpt>
      <trkpt lat="48.38219" lon="15.68789">
        <ele>195.083509</ele>
        <time>2022-09-11T22:12:56.045Z</time>
      </trkpt>
      <trkpt lat="48.38193" lon="15.68736">
        <ele>195.599752</ele>
        <time>2022-09-11T22:13:09.716Z</time>
      </trkpt>
      <trkpt lat="48.38165" lon="15.6868">
        <ele>196.135349</ele>
        <time>2022-09-11T22:13:24.119Z</time>
      </trkpt>
      <trkpt lat="48.38128" lon="15.68599">
        <ele>196.907951</ele>
        <time>2022-09-11T22:13:45.846Z</time>
      </trkpt>
      <trkpt lat="48.38089" lon="15.6849">
        <ele>198.337183</ele>
        <time>2022-09-11T22:14:15.397Z</time>
      </trkpt>
      <trkpt lat="48.38039" lon="15.68102">
        <ele>202.255364</ele>
        <time>2022-09-11T22:15:49.412Z</time>
      </trkpt>
      <trkpt lat="48.37954" lon="15.67593">
        <ele>198.672011</ele>
        <time>2022-09-11T22:17:08.249Z</time>
      </trkpt>
      <trkpt lat="48.37926" lon="15.67348">
        <ele>195.594182</ele>
        <time>2022-09-11T22:17:42.770Z</time>
      </trkpt>
      <trkpt lat="48.37934" lon="15.67137">
        <ele>193.319759</ele>
        <time>2022-09-11T22:18:12.746Z</time>
      </trkpt>
      <trkpt lat="48.37955" lon="15.66961">
        <ele>192.016883</ele>
        <time>2022-09-11T22:18:39.936Z</time>
      </trkpt>
      <trkpt lat="48.37993" lon="15.66771">
        <ele>192.00647</ele>
        <time>2022-09-11T22:19:16.397Z</time>
      </trkpt>
      <trkpt lat="48.38047" lon="15.66577">
        <ele>192.293914</ele>
        <time>2022-09-11T22:19:55.968Z</time>
      </trkpt>
      <trkpt lat="48.38083" lon="15.66472">
        <ele>192.474751</ele>
        <time>2022-09-11T22:20:17.863Z</time>
      </trkpt>
      <trkpt lat="48.38124" lon="15.66375">
        <ele>192.568726</ele>
        <time>2022-09-11T22:20:38.332Z</time>
      </trkpt>
      <trkpt lat="48.38218" lon="15.66193">
        <ele>192.845754</ele>
        <time>2022-09-11T22:21:20.300Z</time>
      </trkpt>
      <trkpt lat="48.38327" lon="15.66023">
        <ele>193.202197</ele>
        <time>2022-09-11T22:22:04.523Z</time>
      </trkpt>
      <trkpt lat="48.38455" lon="15.65856">
        <ele>193.352216</ele>
        <time>2022-09-11T22:22:50.498Z</time>
      </trkpt>
      <trkpt lat="48.39465" lon="15.64755">
        <ele>192.829013</ele>
        <time>2022-09-11T22:28:19.092Z</time>
      </trkpt>
      <trkpt lat="48.39513" lon="15.64697">
        <ele>193.392068</ele>
        <time>2022-09-11T22:28:36.810Z</time>
      </trkpt>
      <trkpt lat="48.39606" lon="15.64568">
        <ele>194.488763</ele>
        <time>2022-09-11T22:29:20.043Z</time>
      </trkpt>
      <trkpt lat="48.3969" lon="15.64422">
        <ele>195.375211</ele>
        <time>2022-09-11T22:29:59.414Z</time>
      </trkpt>
      <trkpt lat="48.39729" lon="15.64383">
        <ele>195.402633</ele>
        <time>2022-09-11T22:30:11.039Z</time>
      </trkpt>
      <trkpt lat="48.39785" lon="15.6426">
        <ele>194.690741</ele>
        <time>2022-09-11T22:30:33.899Z</time>
      </trkpt>
      <trkpt lat="48.39834" lon="15.64133">
        <ele>194.29357</ele>
        <time>2022-09-11T22:30:57.018Z</time>
      </trkpt>
      <trkpt lat="48.39885" lon="15.63989">
        <ele>194.380207</ele>
        <time>2022-09-11T22:31:28.253Z</time>
      </trkpt>
      <trkpt lat="48.39973" lon="15.63697">
        <ele>194.851773</ele>
        <time>2022-09-11T22:32:28.312Z</time>
      </trkpt>
      <trkpt lat="48.40018" lon="15.63522">
        <ele>194.710008</ele>
        <time>2022-09-11T22:32:59.706Z</time>
      </trkpt>
      <trkpt lat="48.40071" lon="15.63276">
        <ele>194.966744</ele>
        <time>2022-09-11T22:33:45.966Z</time>
      </trkpt>
      <trkpt lat="48.40075" lon="15.63173">
        <ele>195.169385</ele>
        <time>2022-09-11T22:34:06.535Z</time>
      </trkpt>
      <trkpt lat="48.40086" lon="15.63089">
        <ele>195.481553</ele>
        <time>2022-09-11T22:34:24.019Z</time>
      </trkpt>
      <trkpt lat="48.40062" lon="15.63017">
        <ele>195.773197</ele>
        <time>2022-09-11T22:34:40.387Z</time>
      </trkpt>
      <trkpt lat="48.4006" lon="15.62988">
        <ele>195.879274</ele>
        <time>2022-09-11T22:34:46.361Z</time>
      </trkpt>
      <trkpt lat="48.40089" lon="15.62764">
        <ele>195.62435</ele>
        <time>2022-09-11T22:35:25.909Z</time>
      </trkpt>
      <trkpt lat="48.40097" lon="15.62738">
        <ele>195.531035</ele>
        <time>2022-09-11T22:35:30.414Z</time>
      </trkpt>
      <trkpt lat="48.40125" lon="15.6268">
        <ele>195.30087</ele>
        <time>2022-09-11T22:35:41.345Z</time>
      </trkpt>
      <trkpt lat="48.40131" lon="15.62671">
        <ele>195.260782</ele>
        <time>2022-09-11T22:35:43.125Z</time>
      </trkpt>
      <trkpt lat="48.40144" lon="15.6259">
        <ele>194.92639</ele>
        <time>2022-09-11T22:35:56.059Z</time>
      </trkpt>
      <trkpt lat="48.40146" lon="15.62511">
        <ele>194.609939</ele>
        <time>2022-09-11T22:36:08.175Z</time>
      </trkpt>
      <trkpt lat="48.40145" lon="15.62203">
        <ele>194.464231</ele>
        <time>2022-09-11T22:37:03.542Z</time>
      </trkpt>
      <trkpt lat="48.40127" lon="15.61476">
        <ele>196.626844</ele>
        <time>2022-09-11T22:39:24.545Z</time>
      </trkpt>
      <trkpt lat="48.40117" lon="15.61454">
        <ele>196.67642</ele>
        <time>2022-09-11T22:39:29.401Z</time>
      </trkpt>
      <trkpt lat="48.40102" lon="15.61441">
        <ele>196.72788</ele>
        <time>2022-09-11T22:39:34.279Z</time>
      </trkpt>
      <trkpt lat="48.39877" lon="15.61261">
        <ele>196.935878</ele>
        <time>2022-09-11T22:40:42.899Z</time>
      </trkpt>
      <trkpt lat="48.39849" lon="15.61233">
        <ele>196.833376</ele>
        <time>2022-09-11T22:40:51.586Z</time>
      </trkpt>
      <trkpt lat="48.39893" lon="15.61298">
        <ele>196.644327</ele>
        <time>2022-09-11T22:41:07.033Z</time>
      </trkpt>
      <trkpt lat="48.39849" lon="15.61267">
        <ele>196.497345</ele>
        <time>2022-09-11T22:41:18.942Z</time>
      </trkpt>
      <trkpt lat="48.39842" lon="15.61246">
        <ele>196.448361</ele>
        <time>2022-09-11T22:41:22.832Z</time>
      </trkpt>
      <trkpt lat="48.39844" lon="15.61171">
        <ele>196.345249</ele>
        <time>2022-09-11T22:41:35.681Z</time>
      </trkpt>
      <trkpt lat="48.39857" lon="15.61163">
        <ele>196.320717</ele>
        <time>2022-09-11T22:41:39.182Z</time>
      </trkpt>
      <trkpt lat="48.3986" lon="15.61164">
        <ele>196.31571</ele>
        <time>2022-09-11T22:41:39.870Z</time>
      </trkpt>
      <trkpt lat="48.39853" lon="15.61197">
        <ele>196.276239</ele>
        <time>2022-09-11T22:41:50.026Z</time>
      </trkpt>
      <trkpt lat="48.39867" lon="15.61201">
        <ele>196.25135</ele>
        <time>2022-09-11T22:41:53.479Z</time>
      </trkpt>
      <trkpt lat="48.39898" lon="15.61208">
        <ele>196.19751</ele>
        <time>2022-09-11T22:42:01.457Z</time>
      </trkpt>
      <trkpt lat="48.39958" lon="15.61254">
        <ele>196.142433</ele>
        <time>2022-09-11T22:42:19.348Z</time>
      </trkpt>
      <trkpt lat="48.40089" lon="15.61339">
        <ele>196.815696</ele>
        <time>2022-09-11T22:43:00.936Z</time>
      </trkpt>
      <trkpt lat="48.40115" lon="15.61354">
        <ele>196.947154</ele>
        <time>2022-09-11T22:43:09.217Z</time>
      </trkpt>
      <trkpt lat="48.40123" lon="15.61347">
        <ele>197.017547</ele>
        <time>2022-09-11T22:43:11.813Z</time>
      </trkpt>
      <trkpt lat="48.40121" lon="15.61264">
        <ele>197.472787</ele>
        <time>2022-09-11T22:43:28.551Z</time>
      </trkpt>
      <trkpt lat="48.40114" lon="15.60994">
        <ele>198.891195</ele>
        <time>2022-09-11T22:44:24.006Z</time>
      </trkpt>
      <trkpt lat="48.40103" lon="15.60519">
        <ele>200.985261</ele>
        <time>2022-09-11T22:45:57.654Z</time>
      </trkpt>
      <trkpt lat="48.40089" lon="15.60161">
        <ele>201.619026</ele>
        <time>2022-09-11T22:47:08.093Z</time>
      </trkpt>
      <trkpt lat="48.40073" lon="15.59902">
        <ele>199.752662</ele>
        <time>2022-09-11T22:47:47.342Z</time>
      </trkpt>
      <trkpt lat="48.40048" lon="15.59697">
        <ele>197.136664</ele>
        <time>2022-09-11T22:48:15.249Z</time>
      </trkpt>
      <trkpt lat="48.40043" lon="15.59617">
        <ele>196.468992</ele>
        <time>2022-09-11T22:48:26.343Z</time>
      </trkpt>
      <trkpt lat="48.40041" lon="15.59574">
        <ele>196.117231</ele>
        <time>2022-09-11T22:48:32.646Z</time>
      </trkpt>
      <trkpt lat="48.40021" lon="15.59445">
        <ele>195.458595</ele>
        <time>2022-09-11T22:48:56.276Z</time>
      </trkpt>
      <trkpt lat="48.4001" lon="15.59114">
        <ele>198.172148</ele>
        <time>2022-09-11T22:50:08.685Z</time>
      </trkpt>
      <trkpt lat="48.39992" lon="15.5899">
        <ele>199.615579</ele>
        <time>2022-09-11T22:50:38.811Z</time>
      </trkpt>
      <trkpt lat="48.39979" lon="15.58897">
        <ele>200.545225</ele>
        <time>2022-09-11T22:51:01.620Z</time>
      </trkpt>
      <trkpt lat="48.39955" lon="15.58785">
        <ele>201.461713</ele>
        <time>2022-09-11T22:51:29.349Z</time>
      </trkpt>
      <trkpt lat="48.39917" lon="15.58631">
        <ele>202.015947</ele>
        <time>2022-09-11T22:52:00.528Z</time>
      </trkpt>
      <trkpt lat="48.39881" lon="15.58516">
        <ele>201.197858</ele>
        <time>2022-09-11T22:52:19.809Z</time>
      </trkpt>
      <trkpt lat="48.39827" lon="15.58395">
        <ele>200.211103</ele>
        <time>2022-09-11T22:52:40.531Z</time>
      </trkpt>
      <trkpt lat="48.39793" lon="15.5825">
        <ele>199.071909</ele>
        <time>2022-09-11T22:53:04.094Z</time>
      </trkpt>
      <trkpt lat="48.39761" lon="15.58165">
        <ele>198.473936</ele>
        <time>2022-09-11T22:53:19.881Z</time>
      </trkpt>
      <trkpt lat="48.39766" lon="15.5815">
        <ele>198.41055</ele>
        <time>2022-09-11T22:53:22.618Z</time>
      </trkpt>
      <trkpt lat="48.39778" lon="15.5814">
        <ele>198.334657</ele>
        <time>2022-09-11T22:53:25.927Z</time>
      </trkpt>
      <trkpt lat="48.39779" lon="15.58122">
        <ele>198.267467</ele>
        <time>2022-09-11T22:53:28.846Z</time>
      </trkpt>
      <trkpt lat="48.39696" lon="15.57818">
        <ele>197.051903</ele>
        <time>2022-09-11T22:54:22.220Z</time>
      </trkpt>
      <trkpt lat="48.39677" lon="15.57771">
        <ele>196.854464</ele>
        <time>2022-09-11T22:54:31.015Z</time>
      </trkpt>
      <trkpt lat="48.39669" lon="15.57737">
        <ele>196.722086</ele>
        <time>2022-09-11T22:54:36.903Z</time>
      </trkpt>
      <trkpt lat="48.39662" lon="15.57693">
        <ele>196.608069</ele>
        <time>2022-09-11T22:54:44.277Z</time>
      </trkpt>
      <trkpt lat="48.39645" lon="15.57629">
        <ele>196.621585</ele>
        <time>2022-09-11T22:54:56.063Z</time>
      </trkpt>
      <trkpt lat="48.39626" lon="15.57579">
        <ele>196.632781</ele>
        <time>2022-09-11T22:55:06.096Z</time>
      </trkpt>
      <trkpt lat="48.39552" lon="15.57404">
        <ele>196.81635</ele>
        <time>2022-09-11T22:55:44.973Z</time>
      </trkpt>
      <trkpt lat="48.39503" lon="15.57313">
        <ele>197.059995</ele>
        <time>2022-09-11T22:56:07.224Z</time>
      </trkpt>
      <trkpt lat="48.39494" lon="15.57322">
        <ele>197.096503</ele>
        <time>2022-09-11T22:56:10.559Z</time>
      </trkpt>
      <trkpt lat="48.39484" lon="15.57334">
        <ele>197.136891</ele>
        <time>2022-09-11T22:56:14.254Z</time>
      </trkpt>
      <trkpt lat="48.39473" lon="15.57345">
        <ele>197.17616</ele>
        <time>2022-09-11T22:56:17.877Z</time>
      </trkpt>
      <trkpt lat="48.39468" lon="15.5735">
        <ele>197.195229</ele>
        <time>2022-09-11T22:56:19.692Z</time>
      </trkpt>
      <trkpt lat="48.39421" lon="15.57244">
        <ele>197.331678</ele>
        <time>2022-09-11T22:56:42.951Z</time>
      </trkpt>
      <trkpt lat="48.39401" lon="15.57244">
        <ele>197.36056</ele>
        <time>2022-09-11T22:56:48.431Z</time>
      </trkpt>
      <trkpt lat="48.39397" lon="15.57191">
        <ele>197.411613</ele>
        <time>2022-09-11T22:56:57.997Z</time>
      </trkpt>
      <trkpt lat="48.39348" lon="15.57071">
        <ele>197.690192</ele>
        <time>2022-09-11T22:57:23.409Z</time>
      </trkpt>
      <trkpt lat="48.3929" lon="15.56965">
        <ele>198.112391</ele>
        <time>2022-09-11T22:57:50.338Z</time>
      </trkpt>
      <trkpt lat="48.39235" lon="15.56894">
        <ele>198.413339</ele>
        <time>2022-09-11T22:58:11.935Z</time>
      </trkpt>
      <trkpt lat="48.39236" lon="15.56879">
        <ele>198.448788</ele>
        <time>2022-09-11T22:58:15.026Z</time>
      </trkpt>
      <trkpt lat="48.39256" lon="15.5685">
        <ele>198.544707</ele>
        <time>2022-09-11T22:58:23.205Z</time>
      </trkpt>
      <trkpt lat="48.39094" lon="15.56447">
        <ele>198.932874</ele>
        <time>2022-09-11T22:59:48.569Z</time>
      </trkpt>
      <trkpt lat="48.39082" lon="15.56436">
        <ele>198.84071</ele>
        <time>2022-09-11T22:59:51.868Z</time>
      </trkpt>
      <trkpt lat="48.39063" lon="15.56452">
        <ele>198.691161</ele>
        <time>2022-09-11T22:59:57.182Z</time>
      </trkpt>
      <trkpt lat="48.39022" lon="15.56493">
        <ele>198.354824</ele>
        <time>2022-09-11T23:00:08.869Z</time>
      </trkpt>
      <trkpt lat="48.39008" lon="15.56491">
        <ele>198.260897</ele>
        <time>2022-09-11T23:00:12.062Z</time>
      </trkpt>
      <trkpt lat="48.3898" lon="15.56436">
        <ele>197.947971</ele>
        <time>2022-09-11T23:00:22.745Z</time>
      </trkpt>
      <trkpt lat="48.38964" lon="15.56432">
        <ele>197.844869</ele>
        <time>2022-09-11T23:00:26.346Z</time>
      </trkpt>
      <trkpt lat="48.38952" lon="15.56403">
        <ele>197.826763</ele>
        <time>2022-09-11T23:00:31.706Z</time>
      </trkpt>
      <trkpt lat="48.38933" lon="15.56328">
        <ele>197.784673</ele>
        <time>2022-09-11T23:00:45.386Z</time>
      </trkpt>
      <trkpt lat="48.38933" lon="15.56326">
        <ele>197.783528</ele>
        <time>2022-09-11T23:00:45.744Z</time>
      </trkpt>
      <trkpt lat="48.38919" lon="15.56258">
        <ele>197.74641</ele>
        <time>2022-09-11T23:00:58.843Z</time>
      </trkpt>
      <trkpt lat="48.38903" lon="15.5622">
        <ele>197.722756</ele>
        <time>2022-09-11T23:01:07.182Z</time>
      </trkpt>
      <trkpt lat="48.38891" lon="15.56195">
        <ele>197.706403</ele>
        <time>2022-09-11T23:01:12.940Z</time>
      </trkpt>
      <trkpt lat="48.38856" lon="15.56129">
        <ele>198.011738</ele>
        <time>2022-09-11T23:01:29.189Z</time>
      </trkpt>
      <trkpt lat="48.38835" lon="15.56031">
        <ele>198.414725</ele>
        <time>2022-09-11T23:01:49.886Z</time>
      </trkpt>
      <trkpt lat="48.38802" lon="15.55953">
        <ele>198.774097</ele>
        <time>2022-09-11T23:02:08.609Z</time>
      </trkpt>
      <trkpt lat="48.38775" lon="15.55899">
        <ele>198.906016</ele>
        <time>2022-09-11T23:02:21.307Z</time>
      </trkpt>
      <trkpt lat="48.38757" lon="15.55863">
        <ele>198.995615</ele>
        <time>2022-09-11T23:02:29.770Z</time>
      </trkpt>
      <trkpt lat="48.38751" lon="15.55851">
        <ele>199.024823</ele>
        <time>2022-09-11T23:02:32.523Z</time>
      </trkpt>
      <trkpt lat="48.38748" lon="15.5584">
        <ele>199.04754</ele>
        <time>2022-09-11T23:02:34.637Z</time>
      </trkpt>
      <trkpt lat="48.38692" lon="15.556">
        <ele>199.710386</ele>
        <time>2022-09-11T23:03:20.852Z</time>
      </trkpt>
      <trkpt lat="48.38687" lon="15.55578">
        <ele>199.782508</ele>
        <time>2022-09-11T23:03:24.950Z</time>
      </trkpt>
      <trkpt lat="48.38677" lon="15.55533">
        <ele>199.937035</ele>
        <time>2022-09-11T23:03:34.154Z</time>
      </trkpt>
      <trkpt lat="48.38673" lon="15.55496">
        <ele>200.058015</ele>
        <time>2022-09-11T23:03:41.765Z</time>
      </trkpt>
      <trkpt lat="48.38677" lon="15.55472">
        <ele>200.139237</ele>
        <time>2022-09-11T23:03:46.995Z</time>
      </trkpt>
      <trkpt lat="48.38678" lon="15.55457">
        <ele>200.242587</ele>
        <time>2022-09-11T23:03:50.263Z</time>
      </trkpt>
      <trkpt lat="48.38677" lon="15.55446">
        <ele>200.44847</ele>
        <time>2022-09-11T23:03:52.759Z</time>
      </trkpt>
      <trkpt lat="48.38663" lon="15.5538">
        <ele>201.684303</ele>
        <time>2022-09-11T23:04:08.284Z</time>
      </trkpt>
      <trkpt lat="48.38668" lon="15.55376">
        <ele>201.833722</ele>
        <time>2022-09-11T23:04:10.206Z</time>
      </trkpt>
      <trkpt lat="48.38673" lon="15.55373">
        <ele>201.975983</ele>
        <time>2022-09-11T23:04:12.183Z</time>
      </trkpt>
      <trkpt lat="48.38559" lon="15.55">
        <ele>211.409655</ele>
        <time>2022-09-11T23:06:11.216Z</time>
      </trkpt>
      <trkpt lat="48.38532" lon="15.54928">
        <ele>214.024979</ele>
        <time>2022-09-11T23:06:41.820Z</time>
      </trkpt>
      <trkpt lat="48.38474" lon="15.54797">
        <ele>219.479503</ele>
        <time>2022-09-11T23:07:38.094Z</time>
      </trkpt>
      <trkpt lat="48.38452" lon="15.54738">
        <ele>221.757502</ele>
        <time>2022-09-11T23:08:00.659Z</time>
      </trkpt>
      <trkpt lat="48.38436" lon="15.54677">
        <ele>223.181327</ele>
        <time>2022-09-11T23:08:21.096Z</time>
      </trkpt>
      <trkpt lat="48.38401" lon="15.54501">
        <ele>227.132891</ele>
        <time>2022-09-11T23:09:09.318Z</time>
      </trkpt>
      <trkpt lat="48.38355" lon="15.54252">
        <ele>232.050436</ele>
        <time>2022-09-11T23:10:17.402Z</time>
      </trkpt>
      <trkpt lat="48.38321" lon="15.53932">
        <ele>239.318115</ele>
        <time>2022-09-11T23:11:51.312Z</time>
      </trkpt>
      <trkpt lat="48.38282" lon="15.53716">
        <ele>243.975076</ele>
        <time>2022-09-11T23:12:55.325Z</time>
      </trkpt>
      <trkpt lat="48.38254" lon="15.53518">
        <ele>247.147913</ele>
        <time>2022-09-11T23:13:41.320Z</time>
      </trkpt>
      <trkpt lat="48.38245" lon="15.5342">
        <ele>248.789449</ele>
        <time>2022-09-11T23:14:05.738Z</time>
      </trkpt>
      <trkpt lat="48.38238" lon="15.5298">
        <ele>260.298623</ele>
        <time>2022-09-11T23:16:37.707Z</time>
      </trkpt>
      <trkpt lat="48.3824" lon="15.52861">
        <ele>260.820733</ele>
        <time>2022-09-11T23:16:56.653Z</time>
      </trkpt>
      <trkpt lat="48.38264" lon="15.52629">
        <ele>251.393338</ele>
        <time>2022-09-11T23:17:23.401Z</time>
      </trkpt>
      <trkpt lat="48.38298" lon="15.524">
        <ele>236.879709</ele>
        <time>2022-09-11T23:17:49.051Z</time>
      </trkpt>
      <trkpt lat="48.38326" lon="15.52229">
        <ele>226.281532</ele>
        <time>2022-09-11T23:18:08.036Z</time>
      </trkpt>
      <trkpt lat="48.38356" lon="15.52135">
        <ele>220.128623</ele>
        <time>2022-09-11T23:18:19.624Z</time>
      </trkpt>
      <trkpt lat="48.38408" lon="15.5205">
        <ele>215.656875</ele>
        <time>2022-09-11T23:18:33.133Z</time>
      </trkpt>
      <trkpt lat="48.38471" lon="15.51986">
        <ele>212.248397</ele>
        <time>2022-09-11T23:18:47.436Z</time>
      </trkpt>
      <trkpt lat="48.38544" lon="15.51888">
        <ele>208.459555</ele>
        <time>2022-09-11T23:19:06.796Z</time>
      </trkpt>
      <trkpt lat="48.38555" lon="15.51886">
        <ele>208.092173</ele>
        <time>2022-09-11T23:19:09.249Z</time>
      </trkpt>
      <trkpt lat="48.38569" lon="15.51903">
        <ele>207.518011</ele>
        <time>2022-09-11T23:19:12.510Z</time>
      </trkpt>
      <trkpt lat="48.38585" lon="15.5193">
        <ele>206.711453</ele>
        <time>2022-09-11T23:19:17.402Z</time>
      </trkpt>
      <trkpt lat="48.38596" lon="15.51932">
        <ele>206.365197</ele>
        <time>2022-09-11T23:19:19.412Z</time>
      </trkpt>
      <trkpt lat="48.38761" lon="15.51821">
        <ele>201.415597</ele>
        <time>2022-09-11T23:19:54.449Z</time>
      </trkpt>
      <trkpt lat="48.38803" lon="15.51805">
        <ele>200.355575</ele>
        <time>2022-09-11T23:20:04.360Z</time>
      </trkpt>
      <trkpt lat="48.38903" lon="15.51743">
        <ele>199.249708</ele>
        <time>2022-09-11T23:20:29.940Z</time>
      </trkpt>
      <trkpt lat="48.3891" lon="15.51739">
        <ele>199.202823</ele>
        <time>2022-09-11T23:20:31.811Z</time>
      </trkpt>
      <trkpt lat="48.38957" lon="15.51708">
        <ele>198.886963</ele>
        <time>2022-09-11T23:20:44.534Z</time>
      </trkpt>
      <trkpt lat="48.3896" lon="15.51706">
        <ele>198.870267</ele>
        <time>2022-09-11T23:20:45.203Z</time>
      </trkpt>
      <trkpt lat="48.38998" lon="15.5168">
        <ele>198.650009</ele>
        <time>2022-09-11T23:20:55.804Z</time>
      </trkpt>
      <trkpt lat="48.39116" lon="15.51593">
        <ele>198.49203</ele>
        <time>2022-09-11T23:21:30.157Z</time>
      </trkpt>
      <trkpt lat="48.39173" lon="15.5155">
        <ele>198.497792</ele>
        <time>2022-09-11T23:21:47.262Z</time>
      </trkpt>
      <trkpt lat="48.39166" lon="15.51528">
        <ele>198.536484</ele>
        <time>2022-09-11T23:21:52.047Z</time>
      </trkpt>
      <trkpt lat="48.39213" lon="15.51485">
        <ele>198.666709</ele>
        <time>2022-09-11T23:22:06.649Z</time>
      </trkpt>
      <trkpt lat="48.3924" lon="15.51452">
        <ele>198.748053</ele>
        <time>2022-09-11T23:22:16.054Z</time>
      </trkpt>
      <trkpt lat="48.39439" lon="15.51297">
        <ele>200.04413</ele>
        <time>2022-09-11T23:23:22.997Z</time>
      </trkpt>
      <trkpt lat="48.39495" lon="15.51235">
        <ele>200.437451</ele>
        <time>2022-09-11T23:23:44.272Z</time>
      </trkpt>
      <trkpt lat="48.39568" lon="15.51131">
        <ele>200.99348</ele>
        <time>2022-09-11T23:24:14.090Z</time>
      </trkpt>
      <trkpt lat="48.39737" lon="15.50868">
        <ele>200.714429</ele>
        <time>2022-09-11T23:25:18.169Z</time>
      </trkpt>
      <trkpt lat="48.3979" lon="15.50814">
        <ele>200.327864</ele>
        <time>2022-09-11T23:25:33.244Z</time>
      </trkpt>
      <trkpt lat="48.39899" lon="15.50773">
        <ele>199.68597</ele>
        <time>2022-09-11T23:25:59.665Z</time>
      </trkpt>
      <trkpt lat="48.39914" lon="15.50759">
        <ele>199.595565</ele>
        <time>2022-09-11T23:26:03.962Z</time>
      </trkpt>
      <trkpt lat="48.39927" lon="15.5073">
        <ele>199.475986</ele>
        <time>2022-09-11T23:26:09.531Z</time>
      </trkpt>
      <trkpt lat="48.39979" lon="15.50619">
        <ele>199.014522</ele>
        <time>2022-09-11T23:26:32.060Z</time>
      </trkpt>
      <trkpt lat="48.40041" lon="15.5051">
        <ele>199.248157</ele>
        <time>2022-09-11T23:26:57.220Z</time>
      </trkpt>
      <trkpt lat="48.40064" lon="15.50447">
        <ele>199.387886</ele>
        <time>2022-09-11T23:27:10.879Z</time>
      </trkpt>
      <trkpt lat="48.40107" lon="15.50354">
        <ele>200.099575</ele>
        <time>2022-09-11T23:27:33.639Z</time>
      </trkpt>
      <trkpt lat="48.40151" lon="15.50201">
        <ele>202.057463</ele>
        <time>2022-09-11T23:28:15.679Z</time>
      </trkpt>
      <trkpt lat="48.40158" lon="15.50143">
        <ele>202.704697</ele>
        <time>2022-09-11T23:28:29.228Z</time>
      </trkpt>
      <trkpt lat="48.40166" lon="15.50121">
        <ele>202.807787</ele>
        <time>2022-09-11T23:28:35.463Z</time>
      </trkpt>
      <trkpt lat="48.40178" lon="15.50012">
        <ele>203.254517</ele>
        <time>2022-09-11T23:28:58.966Z</time>
      </trkpt>
      <trkpt lat="48.40188" lon="15.49997">
        <ele>203.343246</ele>
        <time>2022-09-11T23:29:02.800Z</time>
      </trkpt>
      <trkpt lat="48.40235" lon="15.49975">
        <ele>203.642964</ele>
        <time>2022-09-11T23:29:17.249Z</time>
      </trkpt>
      <trkpt lat="48.40225" lon="15.49818">
        <ele>202.841886</ele>
        <time>2022-09-11T23:29:40.834Z</time>
      </trkpt>
      <trkpt lat="48.40235" lon="15.49712">
        <ele>202.019799</ele>
        <time>2022-09-11T23:29:56.375Z</time>
      </trkpt>
      <trkpt lat="48.40233" lon="15.49676">
        <ele>201.744184</ele>
        <time>2022-09-11T23:30:01.803Z</time>
      </trkpt>
      <trkpt lat="48.4018" lon="15.49481">
        <ele>200.685124</ele>
        <time>2022-09-11T23:30:34.796Z</time>
      </trkpt>
      <trkpt lat="48.4015" lon="15.49348">
        <ele>200.402431</ele>
        <time>2022-09-11T23:30:58.149Z</time>
      </trkpt>
      <trkpt lat="48.40114" lon="15.49239">
        <ele>200.474661</ele>
        <time>2022-09-11T23:31:20.274Z</time>
      </trkpt>
      <trkpt lat="48.40087" lon="15.49134">
        <ele>200.705975</ele>
        <time>2022-09-11T23:31:42.378Z</time>
      </trkpt>
      <trkpt lat="48.40082" lon="15.48956">
        <ele>201.577411</ele>
        <time>2022-09-11T23:32:18.782Z</time>
      </trkpt>
      <trkpt lat="48.40089" lon="15.48939">
        <ele>201.6699</ele>
        <time>2022-09-11T23:32:22.739Z</time>
      </trkpt>
      <trkpt lat="48.4009" lon="15.48905">
        <ele>201.836623</ele>
        <time>2022-09-11T23:32:29.345Z</time>
      </trkpt>
      <trkpt lat="48.40078" lon="15.48855">
        <ele>201.964046</ele>
        <time>2022-09-11T23:32:39.785Z</time>
      </trkpt>
      <trkpt lat="48.40071" lon="15.48841">
        <ele>202.005549</ele>
        <time>2022-09-11T23:32:43.324Z</time>
      </trkpt>
      <trkpt lat="48.40068" lon="15.48838">
        <ele>202.017202</ele>
        <time>2022-09-11T23:32:44.310Z</time>
      </trkpt>
      <trkpt lat="48.4001" lon="15.48696">
        <ele>202.405457</ele>
        <time>2022-09-11T23:33:15.048Z</time>
      </trkpt>
      <trkpt lat="48.40042" lon="15.4866">
        <ele>202.480297</ele>
        <time>2022-09-11T23:33:25.789Z</time>
      </trkpt>
      <trkpt lat="48.40049" lon="15.48647">
        <ele>202.483436</ele>
        <time>2022-09-11T23:33:28.885Z</time>
      </trkpt>
      <trkpt lat="48.4005" lon="15.48636">
        <ele>202.485628</ele>
        <time>2022-09-11T23:33:30.913Z</time>
      </trkpt>
      <trkpt lat="48.4" lon="15.48585">
        <ele>202.502618</ele>
        <time>2022-09-11T23:33:47.429Z</time>
      </trkpt>
      <trkpt lat="48.39949" lon="15.48506">
        <ele>202.522992</ele>
        <time>2022-09-11T23:34:06.748Z</time>
      </trkpt>
      <trkpt lat="48.39946" lon="15.48501">
        <ele>202.524151</ele>
        <time>2022-09-11T23:34:07.806Z</time>
      </trkpt>
      <trkpt lat="48.39934" lon="15.48483">
        <ele>202.543156</ele>
        <time>2022-09-11T23:34:12.328Z</time>
      </trkpt>
      <trkpt lat="48.39901" lon="15.48447">
        <ele>202.593977</ele>
        <time>2022-09-11T23:34:22.943Z</time>
      </trkpt>
      <trkpt lat="48.39895" lon="15.4844">
        <ele>202.603997</ele>
        <time>2022-09-11T23:34:25.048Z</time>
      </trkpt>
      <trkpt lat="48.39863" lon="15.48416">
        <ele>202.648608</ele>
        <time>2022-09-11T23:34:34.756Z</time>
      </trkpt>
      <trkpt lat="48.39862" lon="15.48389">
        <ele>202.671946</ele>
        <time>2022-09-11T23:34:39.841Z</time>
      </trkpt>
      <trkpt lat="48.39808" lon="15.4834">
        <ele>202.750664</ele>
        <time>2022-09-11T23:34:57.281Z</time>
      </trkpt>
      <trkpt lat="48.39707" lon="15.48232">
        <ele>203.302289</ele>
        <time>2022-09-11T23:35:32.829Z</time>
      </trkpt>
      <trkpt lat="48.39652" lon="15.48205">
        <ele>203.563522</ele>
        <time>2022-09-11T23:35:50.175Z</time>
      </trkpt>
      <trkpt lat="48.39627" lon="15.48186">
        <ele>203.676067</ele>
        <time>2022-09-11T23:35:58.349Z</time>
      </trkpt>
      <trkpt lat="48.39532" lon="15.48067">
        <ele>204.179334</ele>
        <time>2022-09-11T23:36:33.130Z</time>
      </trkpt>
      <trkpt lat="48.39503" lon="15.48023">
        <ele>204.467519</ele>
        <time>2022-09-11T23:36:44.823Z</time>
      </trkpt>
      <trkpt lat="48.39466" lon="15.47928">
        <ele>205.391173</ele>
        <time>2022-09-11T23:37:06.757Z</time>
      </trkpt>
      <trkpt lat="48.39453" lon="15.47862">
        <ele>205.966251</ele>
        <time>2022-09-11T23:37:21.595Z</time>
      </trkpt>
      <trkpt lat="48.39451" lon="15.47831">
        <ele>206.230591</ele>
        <time>2022-09-11T23:37:28.753Z</time>
      </trkpt>
      <trkpt lat="48.39383" lon="15.47702">
        <ele>210.246122</ele>
        <time>2022-09-11T23:38:12.244Z</time>
      </trkpt>
      <trkpt lat="48.39369" lon="15.47655">
        <ele>211.769867</ele>
        <time>2022-09-11T23:38:30.055Z</time>
      </trkpt>
      <trkpt lat="48.39304" lon="15.47556">
        <ele>216.672262</ele>
        <time>2022-09-11T23:39:21.992Z</time>
      </trkpt>
      <trkpt lat="48.39301" lon="15.47539">
        <ele>217.485294</ele>
        <time>2022-09-11T23:39:29.891Z</time>
      </trkpt>
      <trkpt lat="48.39298" lon="15.47527">
        <ele>218.061505</ele>
        <time>2022-09-11T23:39:36.393Z</time>
      </trkpt>
      <trkpt lat="48.39229" lon="15.47452">
        <ele>224.039948</ele>
        <time>2022-09-11T23:40:29.758Z</time>
      </trkpt>
      <trkpt lat="48.39149" lon="15.47339">
        <ele>229.200299</ele>
        <time>2022-09-11T23:41:33.747Z</time>
      </trkpt>
      <trkpt lat="48.38908" lon="15.47076">
        <ele>234.168703</ele>
        <time>2022-09-11T23:43:07.305Z</time>
      </trkpt>
      <trkpt lat="48.38856" lon="15.47006">
        <ele>234.154216</ele>
        <time>2022-09-11T23:43:23.874Z</time>
      </trkpt>
      <trkpt lat="48.38841" lon="15.46987">
        <ele>234.150322</ele>
        <time>2022-09-11T23:43:27.893Z</time>
      </trkpt>
      <trkpt lat="48.38828" lon="15.46997">
        <ele>234.147372</ele>
        <time>2022-09-11T23:43:32.833Z</time>
      </trkpt>
      <trkpt lat="48.386" lon="15.46805">
        <ele>234.464198</ele>
        <time>2022-09-11T23:44:48.352Z</time>
      </trkpt>
      <trkpt lat="48.38563" lon="15.46773">
        <ele>233.792774</ele>
        <time>2022-09-11T23:44:57.823Z</time>
      </trkpt>
      <trkpt lat="48.3849" lon="15.46694">
        <ele>232.383955</ele>
        <time>2022-09-11T23:45:16.805Z</time>
      </trkpt>
      <trkpt lat="48.38416" lon="15.46608">
        <ele>231.989809</ele>
        <time>2022-09-11T23:45:36.000Z</time>
      </trkpt>
      <trkpt lat="48.38353" lon="15.46515">
        <ele>232.350129</ele>
        <time>2022-09-11T23:46:03.543Z</time>
      </trkpt>
      <trkpt lat="48.38347" lon="15.46506">
        <ele>232.38587</ele>
        <time>2022-09-11T23:46:07.315Z</time>
      </trkpt>
      <trkpt lat="48.38276" lon="15.46392">
        <ele>234.512423</ele>
        <time>2022-09-11T23:46:49.835Z</time>
      </trkpt>
      <trkpt lat="48.38149" lon="15.46191">
        <ele>235.800727</ele>
        <time>2022-09-11T23:48:01.838Z</time>
      </trkpt>
      <trkpt lat="48.38006" lon="15.46007">
        <ele>231.049443</ele>
        <time>2022-09-11T23:48:35.472Z</time>
      </trkpt>
      <trkpt lat="48.37963" lon="15.45953">
        <ele>229.223061</ele>
        <time>2022-09-11T23:48:46.120Z</time>
      </trkpt>
      <trkpt lat="48.37944" lon="15.45929">
        <ele>228.434409</ele>
        <time>2022-09-11T23:48:52.143Z</time>
      </trkpt>
      <trkpt lat="48.37867" lon="15.45827">
        <ele>232.94836</ele>
        <time>2022-09-11T23:49:34.937Z</time>
      </trkpt>
      <trkpt lat="48.37703" lon="15.45596">
        <ele>248.442917</ele>
        <time>2022-09-11T23:52:08.497Z</time>
      </trkpt>
      <trkpt lat="48.37471" lon="15.45388">
        <ele>260.815671</ele>
        <time>2022-09-11T23:54:37.472Z</time>
      </trkpt>
      <trkpt lat="48.37346" lon="15.4523">
        <ele>253.6813</ele>
        <time>2022-09-11T23:55:06.350Z</time>
      </trkpt>
      <trkpt lat="48.37341" lon="15.45223">
        <ele>252.981481</ele>
        <time>2022-09-11T23:55:07.327Z</time>
      </trkpt>
      <trkpt lat="48.37233" lon="15.4505">
        <ele>235.758072</ele>
        <time>2022-09-11T23:55:32.317Z</time>
      </trkpt>
      <trkpt lat="48.3723" lon="15.45044">
        <ele>235.304979</ele>
        <time>2022-09-11T23:55:33.176Z</time>
      </trkpt>
      <trkpt lat="48.3718" lon="15.44957">
        <ele>228.818948</ele>
        <time>2022-09-11T23:55:45.605Z</time>
      </trkpt>
      <trkpt lat="48.37132" lon="15.44886">
        <ele>223.094903</ele>
        <time>2022-09-11T23:55:57.303Z</time>
      </trkpt>
      <trkpt lat="48.37079" lon="15.44778">
        <ele>218.021659</ele>
        <time>2022-09-11T23:56:13.836Z</time>
      </trkpt>
      <trkpt lat="48.37047" lon="15.4468">
        <ele>214.405267</ele>
        <time>2022-09-11T23:56:26.816Z</time>
      </trkpt>
      <trkpt lat="48.37001" lon="15.44455">
        <ele>207.633752</ele>
        <time>2022-09-11T23:56:55.313Z</time>
      </trkpt>
      <trkpt lat="48.36993" lon="15.44412">
        <ele>206.398156</ele>
        <time>2022-09-11T23:57:01.056Z</time>
      </trkpt>
      <trkpt lat="48.36972" lon="15.44372">
        <ele>205.148378</ele>
        <time>2022-09-11T23:57:07.817Z</time>
      </trkpt>
      <trkpt lat="48.36949" lon="15.44302">
        <ele>204.679951</ele>
        <time>2022-09-11T23:57:18.823Z</time>
      </trkpt>
      <trkpt lat="48.36905" lon="15.44218">
        <ele>204.03607</ele>
        <time>2022-09-11T23:57:35.957Z</time>
      </trkpt>
      <trkpt lat="48.36844" lon="15.44088">
        <ele>204.101406</ele>
        <time>2022-09-11T23:58:06.654Z</time>
      </trkpt>
      <trkpt lat="48.36761" lon="15.43838">
        <ele>205.809944</ele>
        <time>2022-09-11T23:59:07.460Z</time>
      </trkpt>
      <trkpt lat="48.36699" lon="15.43644">
        <ele>206.684972</ele>
        <time>2022-09-11T23:59:49.777Z</time>
      </trkpt>
      <trkpt lat="48.36677" lon="15.43524">
        <ele>206.458148</ele>
        <time>2022-09-12T00:00:11.117Z</time>
      </trkpt>
      <trkpt lat="48.36667" lon="15.43479">
        <ele>206.371244</ele>
        <time>2022-09-12T00:00:18.857Z</time>
      </trkpt>
      <trkpt lat="48.36662" lon="15.43446">
        <ele>206.310035</ele>
        <time>2022-09-12T00:00:24.184Z</time>
      </trkpt>
      <trkpt lat="48.36637" lon="15.43383">
        <ele>206.069145</ele>
        <time>2022-09-12T00:00:35.630Z</time>
      </trkpt>
      <trkpt lat="48.36634" lon="15.43375">
        <ele>206.028682</ele>
        <time>2022-09-12T00:00:37.107Z</time>
      </trkpt>
      <trkpt lat="48.36596" lon="15.43271">
        <ele>205.512612</ele>
        <time>2022-09-12T00:00:55.626Z</time>
      </trkpt>
      <trkpt lat="48.36567" lon="15.43152">
        <ele>205.154549</ele>
        <time>2022-09-12T00:01:16.058Z</time>
      </trkpt>
      <trkpt lat="48.36489" lon="15.42888">
        <ele>206.332416</ele>
        <time>2022-09-12T00:02:12.612Z</time>
      </trkpt>
      <trkpt lat="48.36491" lon="15.42857">
        <ele>206.661049</ele>
        <time>2022-09-12T00:02:19.918Z</time>
      </trkpt>
      <trkpt lat="48.36486" lon="15.42812">
        <ele>207.139184</ele>
        <time>2022-09-12T00:02:30.512Z</time>
      </trkpt>
      <trkpt lat="48.36453" lon="15.42743">
        <ele>208.044487</ele>
        <time>2022-09-12T00:02:51.435Z</time>
      </trkpt>
      <trkpt lat="48.36405" lon="15.42657">
        <ele>208.901596</ele>
        <time>2022-09-12T00:03:17.848Z</time>
      </trkpt>
      <trkpt lat="48.36351" lon="15.42599">
        <ele>209.272504</ele>
        <time>2022-09-12T00:03:39.521Z</time>
      </trkpt>
      <trkpt lat="48.36181" lon="15.42266">
        <ele>208.594944</ele>
        <time>2022-09-12T00:04:47.713Z</time>
      </trkpt>
      <trkpt lat="48.3612" lon="15.42161">
        <ele>208.096856</ele>
        <time>2022-09-12T00:05:10.069Z</time>
      </trkpt>
      <trkpt lat="48.36065" lon="15.4205">
        <ele>207.655715</ele>
        <time>2022-09-12T00:05:33.009Z</time>
      </trkpt>
      <trkpt lat="48.35908" lon="15.41797">
        <ele>206.999103</ele>
        <time>2022-09-12T00:06:31.764Z</time>
      </trkpt>
      <trkpt lat="48.35836" lon="15.41691">
        <ele>206.734157</ele>
        <time>2022-09-12T00:06:57.555Z</time>
      </trkpt>
      <trkpt lat="48.35718" lon="15.41505">
        <ele>206.019779</ele>
        <time>2022-09-12T00:07:39.837Z</time>
      </trkpt>
      <trkpt lat="48.3564" lon="15.41401">
        <ele>205.7607</ele>
        <time>2022-09-12T00:08:05.982Z</time>
      </trkpt>
      <trkpt lat="48.35562" lon="15.41315">
        <ele>205.556937</ele>
        <time>2022-09-12T00:08:31.615Z</time>
      </trkpt>
      <trkpt lat="48.35473" lon="15.41222">
        <ele>205.420097</ele>
        <time>2022-09-12T00:09:00.243Z</time>
      </trkpt>
      <trkpt lat="48.35433" lon="15.4118">
        <ele>205.359849</ele>
        <time>2022-09-12T00:09:12.917Z</time>
      </trkpt>
      <trkpt lat="48.35427" lon="15.41176">
        <ele>205.351155</ele>
        <time>2022-09-12T00:09:14.749Z</time>
      </trkpt>
      <trkpt lat="48.35421" lon="15.41167">
        <ele>205.34032</ele>
        <time>2022-09-12T00:09:16.943Z</time>
      </trkpt>
      <trkpt lat="48.35386" lon="15.41133">
        <ele>205.181915</ele>
        <time>2022-09-12T00:09:27.849Z</time>
      </trkpt>
      <trkpt lat="48.35357" lon="15.41115">
        <ele>205.061305</ele>
        <time>2022-09-12T00:09:35.491Z</time>
      </trkpt>
      <trkpt lat="48.35307" lon="15.41103">
        <ele>204.8629</ele>
        <time>2022-09-12T00:09:47.764Z</time>
      </trkpt>
      <trkpt lat="48.35258" lon="15.411">
        <ele>204.670246</ele>
        <time>2022-09-12T00:09:59.615Z</time>
      </trkpt>
      <trkpt lat="48.35187" lon="15.41083">
        <ele>204.428424</ele>
        <time>2022-09-12T00:10:18.162Z</time>
      </trkpt>
      <trkpt lat="48.35121" lon="15.41064">
        <ele>204.20909</ele>
        <time>2022-09-12T00:10:35.235Z</time>
      </trkpt>
      <trkpt lat="48.35058" lon="15.41053">
        <ele>204.05682</ele>
        <time>2022-09-12T00:10:51.174Z</time>
      </trkpt>
      <trkpt lat="48.34939" lon="15.41024">
        <ele>204.151342</ele>
        <time>2022-09-12T00:11:23.583Z</time>
      </trkpt>
      <trkpt lat="48.34752" lon="15.40992">
        <ele>204.597083</ele>
        <time>2022-09-12T00:12:17.049Z</time>
      </trkpt>
      <trkpt lat="48.34488" lon="15.40969">
        <ele>204.893476</ele>
        <time>2022-09-12T00:13:28.506Z</time>
      </trkpt>
      <trkpt lat="48.34437" lon="15.40973">
        <ele>204.929525</ele>
        <time>2022-09-12T00:13:42.175Z</time>
      </trkpt>
      <trkpt lat="48.34393" lon="15.40963">
        <ele>204.961239</ele>
        <time>2022-09-12T00:13:54.483Z</time>
      </trkpt>
      <trkpt lat="48.34366" lon="15.40964">
        <ele>204.979732</ele>
        <time>2022-09-12T00:14:01.550Z</time>
      </trkpt>
      <trkpt lat="48.34295" lon="15.40972">
        <ele>205.08816</ele>
        <time>2022-09-12T00:14:20.965Z</time>
      </trkpt>
      <trkpt lat="48.34238" lon="15.40963">
        <ele>205.184239</ele>
        <time>2022-09-12T00:14:36.645Z</time>
      </trkpt>
      <trkpt lat="48.341" lon="15.40956">
        <ele>205.890679</ele>
        <time>2022-09-12T00:15:15.117Z</time>
      </trkpt>
      <trkpt lat="48.33752" lon="15.40902">
        <ele>211.568133</ele>
        <time>2022-09-12T00:17:08.330Z</time>
      </trkpt>
      <trkpt lat="48.33748" lon="15.40902">
        <ele>211.746997</ele>
        <time>2022-09-12T00:17:10.492Z</time>
      </trkpt>
      <trkpt lat="48.33624" lon="15.40949">
        <ele>216.831781</ele>
        <time>2022-09-12T00:18:20.910Z</time>
      </trkpt>
      <trkpt lat="48.33528" lon="15.40965">
        <ele>220.204581</ele>
        <time>2022-09-12T00:19:10.404Z</time>
      </trkpt>
      <trkpt lat="48.33337" lon="15.40972">
        <ele>222.507674</ele>
        <time>2022-09-12T00:20:05.246Z</time>
      </trkpt>
      <trkpt lat="48.33291" lon="15.40992">
        <ele>222.513066</ele>
        <time>2022-09-12T00:20:15.751Z</time>
      </trkpt>
      <trkpt lat="48.33196" lon="15.41021">
        <ele>222.533456</ele>
        <time>2022-09-12T00:20:40.057Z</time>
      </trkpt>
      <trkpt lat="48.33136" lon="15.41028">
        <ele>222.546301</ele>
        <time>2022-09-12T00:20:57.196Z</time>
      </trkpt>
      <trkpt lat="48.33096" lon="15.41042">
        <ele>222.627556</ele>
        <time>2022-09-12T00:21:10.295Z</time>
      </trkpt>
      <trkpt lat="48.32908" lon="15.41078">
        <ele>223.696376</ele>
        <time>2022-09-12T00:22:05.742Z</time>
      </trkpt>
      <trkpt lat="48.32827" lon="15.41109">
        <ele>224.096651</ele>
        <time>2022-09-12T00:22:30.400Z</time>
      </trkpt>
      <trkpt lat="48.32653" lon="15.41159">
        <ele>223.929389</ele>
        <time>2022-09-12T00:23:20.454Z</time>
      </trkpt>
      <trkpt lat="48.32615" lon="15.41178">
        <ele>223.729694</ele>
        <time>2022-09-12T00:23:29.126Z</time>
      </trkpt>
      <trkpt lat="48.32508" lon="15.41213">
        <ele>223.045248</ele>
        <time>2022-09-12T00:23:53.190Z</time>
      </trkpt>
      <trkpt lat="48.3248" lon="15.41204">
        <ele>222.852027</ele>
        <time>2022-09-12T00:23:59.773Z</time>
      </trkpt>
      <trkpt lat="48.32445" lon="15.41211">
        <ele>222.610916</ele>
        <time>2022-09-12T00:24:08.569Z</time>
      </trkpt>
      <trkpt lat="48.32356" lon="15.41243">
        <ele>222.91826</ele>
        <time>2022-09-12T00:24:35.005Z</time>
      </trkpt>
      <trkpt lat="48.32299" lon="15.41252">
        <ele>223.633146</ele>
        <time>2022-09-12T00:24:54.661Z</time>
      </trkpt>
      <trkpt lat="48.32248" lon="15.41268">
        <ele>224.282811</ele>
        <time>2022-09-12T00:25:14.482Z</time>
      </trkpt>
      <trkpt lat="48.32155" lon="15.41281">
        <ele>224.730683</ele>
        <time>2022-09-12T00:25:42.587Z</time>
      </trkpt>
      <trkpt lat="48.31883" lon="15.41357">
        <ele>224.13049</ele>
        <time>2022-09-12T00:26:53.351Z</time>
      </trkpt>
      <trkpt lat="48.31781" lon="15.41364">
        <ele>221.930324</ele>
        <time>2022-09-12T00:27:15.474Z</time>
      </trkpt>
      <trkpt lat="48.31664" lon="15.4136">
        <ele>218.908462</ele>
        <time>2022-09-12T00:27:38.185Z</time>
      </trkpt>
      <trkpt lat="48.31573" lon="15.41357">
        <ele>215.871954</ele>
        <time>2022-09-12T00:27:55.403Z</time>
      </trkpt>
      <trkpt lat="48.31255" lon="15.41273">
        <ele>208.203527</ele>
        <time>2022-09-12T00:29:00.888Z</time>
      </trkpt>
      <trkpt lat="48.31235" lon="15.41273">
        <ele>207.973543</ele>
        <time>2022-09-12T00:29:05.595Z</time>
      </trkpt>
      <trkpt lat="48.31215" lon="15.41269">
        <ele>207.747118</ele>
        <time>2022-09-12T00:29:11.304Z</time>
      </trkpt>
      <trkpt lat="48.31205" lon="15.41291">
        <ele>207.549498</ele>
        <time>2022-09-12T00:29:15.651Z</time>
      </trkpt>
      <trkpt lat="48.31195" lon="15.41307">
        <ele>207.380093</ele>
        <time>2022-09-12T00:29:20.544Z</time>
      </trkpt>
      <trkpt lat="48.31151" lon="15.4133">
        <ele>207.158717</ele>
        <time>2022-09-12T00:29:33.505Z</time>
      </trkpt>
      <trkpt lat="48.31093" lon="15.41341">
        <ele>207.343828</ele>
        <time>2022-09-12T00:29:51.001Z</time>
      </trkpt>
      <trkpt lat="48.31055" lon="15.41332">
        <ele>207.463872</ele>
        <time>2022-09-12T00:30:02.606Z</time>
      </trkpt>
      <trkpt lat="48.30995" lon="15.41286">
        <ele>207.647825</ele>
        <time>2022-09-12T00:30:20.205Z</time>
      </trkpt>
      <trkpt lat="48.30965" lon="15.41252">
        <ele>207.571039</ele>
        <time>2022-09-12T00:30:29.793Z</time>
      </trkpt>
      <trkpt lat="48.30915" lon="15.4121">
        <ele>207.453675</ele>
        <time>2022-09-12T00:30:44.183Z</time>
      </trkpt>
      <trkpt lat="48.30865" lon="15.41195">
        <ele>207.347689</ele>
        <time>2022-09-12T00:30:57.202Z</time>
      </trkpt>
      <trkpt lat="48.30616" lon="15.4117">
        <ele>207.172805</ele>
        <time>2022-09-12T00:32:03.246Z</time>
      </trkpt>
      <trkpt lat="48.30496" lon="15.41158">
        <ele>207.301854</ele>
        <time>2022-09-12T00:32:34.168Z</time>
      </trkpt>
      <trkpt lat="48.30164" lon="15.41073">
        <ele>212.362652</ele>
        <time>2022-09-12T00:34:23.967Z</time>
      </trkpt>
      <trkpt lat="48.30084" lon="15.41042">
        <ele>215.693007</ele>
        <time>2022-09-12T00:35:04.487Z</time>
      </trkpt>
      <trkpt lat="48.29992" lon="15.40995">
        <ele>221.360591</ele>
        <time>2022-09-12T00:35:58.841Z</time>
      </trkpt>
      <trkpt lat="48.29863" lon="15.40957">
        <ele>228.922069</ele>
        <time>2022-09-12T00:37:18.340Z</time>
      </trkpt>
      <trkpt lat="48.29803" lon="15.40931">
        <ele>232.45586</ele>
        <time>2022-09-12T00:37:52.291Z</time>
      </trkpt>
      <trkpt lat="48.29709" lon="15.4087">
        <ele>234.090822</ele>
        <time>2022-09-12T00:38:32.151Z</time>
      </trkpt>
      <trkpt lat="48.29601" lon="15.40811">
        <ele>233.62141</ele>
        <time>2022-09-12T00:38:57.602Z</time>
      </trkpt>
      <trkpt lat="48.29546" lon="15.40797">
        <ele>230.561097</ele>
        <time>2022-09-12T00:39:07.897Z</time>
      </trkpt>
      <trkpt lat="48.29446" lon="15.40784">
        <ele>225.045614</ele>
        <time>2022-09-12T00:39:25.278Z</time>
      </trkpt>
      <trkpt lat="48.29377" lon="15.40752">
        <ele>221.033724</ele>
        <time>2022-09-12T00:39:37.661Z</time>
      </trkpt>
      <trkpt lat="48.29346" lon="15.40743">
        <ele>219.286346</ele>
        <time>2022-09-12T00:39:43.070Z</time>
      </trkpt>
      <trkpt lat="48.29317" lon="15.4074">
        <ele>217.697743</ele>
        <time>2022-09-12T00:39:48.103Z</time>
      </trkpt>
      <trkpt lat="48.2928" lon="15.40747">
        <ele>215.601876</ele>
        <time>2022-09-12T00:39:54.867Z</time>
      </trkpt>
      <trkpt lat="48.29231" lon="15.40748">
        <ele>214.998362</ele>
        <time>2022-09-12T00:40:04.620Z</time>
      </trkpt>
      <trkpt lat="48.29201" lon="15.40737">
        <ele>215.810765</ele>
        <time>2022-09-12T00:40:12.433Z</time>
      </trkpt>
      <trkpt lat="48.29181" lon="15.40723">
        <ele>216.383111</ele>
        <time>2022-09-12T00:40:21.355Z</time>
      </trkpt>
      <trkpt lat="48.29137" lon="15.40696">
        <ele>217.645467</ele>
        <time>2022-09-12T00:40:45.031Z</time>
      </trkpt>
      <trkpt lat="48.29093" lon="15.4067">
        <ele>218.89113</ele>
        <time>2022-09-12T00:41:11.645Z</time>
      </trkpt>
      <trkpt lat="48.29014" lon="15.4066">
        <ele>222.205542</ele>
        <time>2022-09-12T00:41:57.092Z</time>
      </trkpt>
      <trkpt lat="48.28856" lon="15.40644">
        <ele>225.824807</ele>
        <time>2022-09-12T00:43:03.636Z</time>
      </trkpt>
      <trkpt lat="48.28838" lon="15.40637">
        <ele>225.462356</ele>
        <time>2022-09-12T00:43:08.299Z</time>
      </trkpt>
      <trkpt lat="48.2883" lon="15.4063">
        <ele>225.288105</ele>
        <time>2022-09-12T00:43:10.019Z</time>
      </trkpt>
      <trkpt lat="48.28785" lon="15.40622">
        <ele>224.383029</ele>
        <time>2022-09-12T00:43:18.427Z</time>
      </trkpt>
      <trkpt lat="48.287" lon="15.40588">
        <ele>221.659135</ele>
        <time>2022-09-12T00:43:34.245Z</time>
      </trkpt>
      <trkpt lat="48.28689" lon="15.40576">
        <ele>220.987078</ele>
        <time>2022-09-12T00:43:36.648Z</time>
      </trkpt>
      <trkpt lat="48.2867" lon="15.40547">
        <ele>219.648228</ele>
        <time>2022-09-12T00:43:41.512Z</time>
      </trkpt>
      <trkpt lat="48.28652" lon="15.40523">
        <ele>218.422295</ele>
        <time>2022-09-12T00:43:46.071Z</time>
      </trkpt>
      <trkpt lat="48.28568" lon="15.40441">
        <ele>213.880537</ele>
        <time>2022-09-12T00:44:03.805Z</time>
      </trkpt>
      <trkpt lat="48.28445" lon="15.40359">
        <ele>210.279474</ele>
        <time>2022-09-12T00:44:31.848Z</time>
      </trkpt>
      <trkpt lat="48.28284" lon="15.40238">
        <ele>207.384887</ele>
        <time>2022-09-12T00:45:11.240Z</time>
      </trkpt>
      <trkpt lat="48.28239" lon="15.40212">
        <ele>206.956433</ele>
        <time>2022-09-12T00:45:22.612Z</time>
      </trkpt>
      <trkpt lat="48.28186" lon="15.40168">
        <ele>206.838418</ele>
        <time>2022-09-12T00:45:37.603Z</time>
      </trkpt>
      <trkpt lat="48.28129" lon="15.40102">
        <ele>206.6987</ele>
        <time>2022-09-12T00:45:56.966Z</time>
      </trkpt>
      <trkpt lat="48.27953" lon="15.39866">
        <ele>207.726489</ele>
        <time>2022-09-12T00:47:05.052Z</time>
      </trkpt>
      <trkpt lat="48.27793" lon="15.39624">
        <ele>211.385319</ele>
        <time>2022-09-12T00:48:17.560Z</time>
      </trkpt>
      <trkpt lat="48.27756" lon="15.39586">
        <ele>212.667994</ele>
        <time>2022-09-12T00:48:35.556Z</time>
      </trkpt>
      <trkpt lat="48.27689" lon="15.39495">
        <ele>216.618116</ele>
        <time>2022-09-12T00:49:19.987Z</time>
      </trkpt>
      <trkpt lat="48.27505" lon="15.39275">
        <ele>233.74435</ele>
        <time>2022-09-12T00:51:51.011Z</time>
      </trkpt>
      <trkpt lat="48.27472" lon="15.39222">
        <ele>237.390709</ele>
        <time>2022-09-12T00:52:22.784Z</time>
      </trkpt>
      <trkpt lat="48.27418" lon="15.39151">
        <ele>242.275661</ele>
        <time>2022-09-12T00:53:06.980Z</time>
      </trkpt>
      <trkpt lat="48.2741" lon="15.39149">
        <ele>242.691742</ele>
        <time>2022-09-12T00:53:10.101Z</time>
      </trkpt>
      <trkpt lat="48.274" lon="15.3916">
        <ele>243.344662</ele>
        <time>2022-09-12T00:53:20.522Z</time>
      </trkpt>
      <trkpt lat="48.27393" lon="15.39159">
        <ele>243.700736</ele>
        <time>2022-09-12T00:53:23.025Z</time>
      </trkpt>
      <trkpt lat="48.27375" lon="15.39131">
        <ele>245.047086</ele>
        <time>2022-09-12T00:53:35.509Z</time>
      </trkpt>
      <trkpt lat="48.27318" lon="15.39005">
        <ele>250.300237</ele>
        <time>2022-09-12T00:54:23.943Z</time>
      </trkpt>
      <trkpt lat="48.27282" lon="15.38941">
        <ele>252.700738</ele>
        <time>2022-09-12T00:54:49.070Z</time>
      </trkpt>
      <trkpt lat="48.27103" lon="15.38694">
        <ele>262.414107</ele>
        <time>2022-09-12T00:56:46.099Z</time>
      </trkpt>
      <trkpt lat="48.27024" lon="15.38576">
        <ele>265.073091</ele>
        <time>2022-09-12T00:57:27.149Z</time>
      </trkpt>
      <trkpt lat="48.26994" lon="15.38506">
        <ele>265.621732</ele>
        <time>2022-09-12T00:57:44.966Z</time>
      </trkpt>
      <trkpt lat="48.2698" lon="15.3848">
        <ele>265.839816</ele>
        <time>2022-09-12T00:57:50.172Z</time>
      </trkpt>
      <trkpt lat="48.26976" lon="15.38474">
        <ele>265.895457</ele>
        <time>2022-09-12T00:57:51.776Z</time>
      </trkpt>
      <trkpt lat="48.26973" lon="15.38479">
        <ele>265.941941</ele>
        <time>2022-09-12T00:57:53.666Z</time>
      </trkpt>
      <trkpt lat="48.2697" lon="15.38483">
        <ele>265.98445</ele>
        <time>2022-09-12T00:57:55.517Z</time>
      </trkpt>
      <trkpt lat="48.26892" lon="15.38357">
        <ele>266.274331</ele>
        <time>2022-09-12T00:58:24.984Z</time>
      </trkpt>
      <trkpt lat="48.26817" lon="15.38231">
        <ele>266.191569</ele>
        <time>2022-09-12T00:58:55.586Z</time>
      </trkpt>
      <trkpt lat="48.26794" lon="15.38203">
        <ele>266.145899</ele>
        <time>2022-09-12T00:59:02.958Z</time>
      </trkpt>
      <trkpt lat="48.2669" lon="15.38131">
        <ele>265.967646</ele>
        <time>2022-09-12T00:59:31.624Z</time>
      </trkpt>
      <trkpt lat="48.26627" lon="15.38055">
        <ele>265.836114</ele>
        <time>2022-09-12T00:59:54.751Z</time>
      </trkpt>
      <trkpt lat="48.26544" lon="15.38017">
        <ele>265.690313</ele>
        <time>2022-09-12T01:00:20.178Z</time>
      </trkpt>
      <trkpt lat="48.26488" lon="15.37963">
        <ele>264.214733</ele>
        <time>2022-09-12T01:00:34.985Z</time>
      </trkpt>
      <trkpt lat="48.26392" lon="15.37881">
        <ele>259.262744</ele>
        <time>2022-09-12T01:00:55.505Z</time>
      </trkpt>
      <trkpt lat="48.26356" lon="15.37843">
        <ele>257.147752</ele>
        <time>2022-09-12T01:01:02.935Z</time>
      </trkpt>
      <trkpt lat="48.26319" lon="15.3782">
        <ele>254.54267</ele>
        <time>2022-09-12T01:01:09.657Z</time>
      </trkpt>
      <trkpt lat="48.26266" lon="15.37805">
        <ele>250.967728</ele>
        <time>2022-09-12T01:01:18.960Z</time>
      </trkpt>
      <trkpt lat="48.26253" lon="15.37816">
        <ele>250.00036</ele>
        <time>2022-09-12T01:01:21.330Z</time>
      </trkpt>
      <trkpt lat="48.26236" lon="15.37817">
        <ele>248.863135</ele>
        <time>2022-09-12T01:01:24.416Z</time>
      </trkpt>
      <trkpt lat="48.26158" lon="15.37823">
        <ele>245.135658</ele>
        <time>2022-09-12T01:01:38.581Z</time>
      </trkpt>
      <trkpt lat="48.26149" lon="15.37818">
        <ele>244.922337</ele>
        <time>2022-09-12T01:01:40.408Z</time>
      </trkpt>
      <trkpt lat="48.26133" lon="15.37813">
        <ele>244.598734</ele>
        <time>2022-09-12T01:01:43.680Z</time>
      </trkpt>
      <trkpt lat="48.26112" lon="15.37819">
        <ele>244.146671</ele>
        <time>2022-09-12T01:01:48.211Z</time>
      </trkpt>
      <trkpt lat="48.26028" lon="15.37868">
        <ele>242.28047</ele>
        <time>2022-09-12T01:02:10.002Z</time>
      </trkpt>
      <trkpt lat="48.25975" lon="15.37896">
        <ele>241.152712</ele>
        <time>2022-09-12T01:02:24.222Z</time>
      </trkpt>
      <trkpt lat="48.2592" lon="15.37902">
        <ele>240.059131</ele>
        <time>2022-09-12T01:02:36.514Z</time>
      </trkpt>
      <trkpt lat="48.25866" lon="15.37889">
        <ele>238.958639</ele>
        <time>2022-09-12T01:02:48.101Z</time>
      </trkpt>
      <trkpt lat="48.2582" lon="15.37859">
        <ele>237.007307</ele>
        <time>2022-09-12T01:02:57.276Z</time>
      </trkpt>
      <trkpt lat="48.25776" lon="15.37809">
        <ele>233.684799</ele>
        <time>2022-09-12T01:03:07.058Z</time>
      </trkpt>
      <trkpt lat="48.25738" lon="15.37733">
        <ele>229.908614</ele>
        <time>2022-09-12T01:03:17.953Z</time>
      </trkpt>
      <trkpt lat="48.25665" lon="15.37487">
        <ele>218.539402</ele>
        <time>2022-09-12T01:03:48.754Z</time>
      </trkpt>
      <trkpt lat="48.25639" lon="15.37417">
        <ele>215.611262</ele>
        <time>2022-09-12T01:03:58.482Z</time>
      </trkpt>
      <trkpt lat="48.2561" lon="15.37358">
        <ele>214.150479</ele>
        <time>2022-09-12T01:04:07.448Z</time>
      </trkpt>
      <trkpt lat="48.25615" lon="15.37352">
        <ele>213.942612</ele>
        <time>2022-09-12T01:04:08.787Z</time>
      </trkpt>
      <trkpt lat="48.2562" lon="15.37342">
        <ele>213.685718</ele>
        <time>2022-09-12T01:04:10.510Z</time>
      </trkpt>
      <trkpt lat="48.25618" lon="15.37318">
        <ele>213.200991</ele>
        <time>2022-09-12T01:04:13.657Z</time>
      </trkpt>
      <trkpt lat="48.25617" lon="15.37312">
        <ele>213.079203</ele>
        <time>2022-09-12T01:04:14.428Z</time>
      </trkpt>
      <trkpt lat="48.25597" lon="15.3731">
        <ele>212.456975</ele>
        <time>2022-09-12T01:04:18.796Z</time>
      </trkpt>
      <trkpt lat="48.25559" lon="15.37269">
        <ele>211.064638</ele>
        <time>2022-09-12T01:04:28.640Z</time>
      </trkpt>
      <trkpt lat="48.25516" lon="15.37246">
        <ele>210.721937</ele>
        <time>2022-09-12T01:04:39.452Z</time>
      </trkpt>
      <trkpt lat="48.25499" lon="15.37234">
        <ele>210.753749</ele>
        <time>2022-09-12T01:04:45.125Z</time>
      </trkpt>
      <trkpt lat="48.25442" lon="15.37183">
        <ele>210.863247</ele>
        <time>2022-09-12T01:05:04.748Z</time>
      </trkpt>
      <trkpt lat="48.25416" lon="15.37143">
        <ele>210.924587</ele>
        <time>2022-09-12T01:05:15.601Z</time>
      </trkpt>
      <trkpt lat="48.25395" lon="15.37106">
        <ele>211.028154</ele>
        <time>2022-09-12T01:05:25.084Z</time>
      </trkpt>
      <trkpt lat="48.25379" lon="15.37073">
        <ele>211.249393</ele>
        <time>2022-09-12T01:05:32.984Z</time>
      </trkpt>
      <trkpt lat="48.25318" lon="15.36968">
        <ele>212.015716</ele>
        <time>2022-09-12T01:06:02.127Z</time>
      </trkpt>
      <trkpt lat="48.25251" lon="15.36889">
        <ele>213.21981</ele>
        <time>2022-09-12T01:06:27.574Z</time>
      </trkpt>
      <trkpt lat="48.25247" lon="15.36885">
        <ele>213.327652</ele>
        <time>2022-09-12T01:06:28.646Z</time>
      </trkpt>
      <trkpt lat="48.2524" lon="15.36878">
        <ele>213.531056</ele>
        <time>2022-09-12T01:06:32.233Z</time>
      </trkpt>
      <trkpt lat="48.25193" lon="15.36821">
        <ele>214.964399</ele>
        <time>2022-09-12T01:06:53.726Z</time>
      </trkpt>
      <trkpt lat="48.25218" lon="15.36776">
        <ele>215.887835</ele>
        <time>2022-09-12T01:07:08.656Z</time>
      </trkpt>
      <trkpt lat="48.25216" lon="15.36767">
        <ele>216.034429</ele>
        <time>2022-09-12T01:07:12.071Z</time>
      </trkpt>
      <trkpt lat="48.25105" lon="15.36576">
        <ele>223.536653</ele>
        <time>2022-09-12T01:08:34.696Z</time>
      </trkpt>
      <trkpt lat="48.25045" lon="15.36496">
        <ele>227.600594</ele>
        <time>2022-09-12T01:09:19.143Z</time>
      </trkpt>
      <trkpt lat="48.24938" lon="15.36327">
        <ele>235.123595</ele>
        <time>2022-09-12T01:10:40.098Z</time>
      </trkpt>
      <trkpt lat="48.24899" lon="15.36253">
        <ele>236.241613</ele>
        <time>2022-09-12T01:11:05.591Z</time>
      </trkpt>
      <trkpt lat="48.24753" lon="15.35881">
        <ele>237.636188</ele>
        <time>2022-09-12T01:12:23.697Z</time>
      </trkpt>
      <trkpt lat="48.24673" lon="15.35693">
        <ele>235.202795</ele>
        <time>2022-09-12T01:12:54.688Z</time>
      </trkpt>
      <trkpt lat="48.24581" lon="15.35511">
        <ele>234.157414</ele>
        <time>2022-09-12T01:13:30.022Z</time>
      </trkpt>
      <trkpt lat="48.24571" lon="15.35488">
        <ele>234.062397</ele>
        <time>2022-09-12T01:13:35.617Z</time>
      </trkpt>
      <trkpt lat="48.24511" lon="15.35399">
        <ele>234.273988</ele>
        <time>2022-09-12T01:14:01.173Z</time>
      </trkpt>
      <trkpt lat="48.24339" lon="15.35188">
        <ele>234.867515</ele>
        <time>2022-09-12T01:15:08.841Z</time>
      </trkpt>
      <trkpt lat="48.24256" lon="15.35063">
        <ele>233.068394</ele>
        <time>2022-09-12T01:15:35.274Z</time>
      </trkpt>
      <trkpt lat="48.24235" lon="15.35048">
        <ele>232.012666</ele>
        <time>2022-09-12T01:15:39.516Z</time>
      </trkpt>
      <trkpt lat="48.24211" lon="15.35036">
        <ele>230.863694</ele>
        <time>2022-09-12T01:15:44.049Z</time>
      </trkpt>
      <trkpt lat="48.24179" lon="15.35009">
        <ele>229.172078</ele>
        <time>2022-09-12T01:15:50.473Z</time>
      </trkpt>
      <trkpt lat="48.24135" lon="15.34982">
        <ele>226.943168</ele>
        <time>2022-09-12T01:15:58.976Z</time>
      </trkpt>
      <trkpt lat="48.24085" lon="15.34931">
        <ele>224.737553</ele>
        <time>2022-09-12T01:16:09.680Z</time>
      </trkpt>
      <trkpt lat="48.24069" lon="15.34911">
        <ele>224.076591</ele>
        <time>2022-09-12T01:16:13.164Z</time>
      </trkpt>
      <trkpt lat="48.24056" lon="15.34901">
        <ele>223.585666</ele>
        <time>2022-09-12T01:16:15.914Z</time>
      </trkpt>
      <trkpt lat="48.24037" lon="15.34923">
        <ele>222.789309</ele>
        <time>2022-09-12T01:16:20.434Z</time>
      </trkpt>
      <trkpt lat="48.24033" lon="15.34933">
        <ele>222.530611</ele>
        <time>2022-09-12T01:16:21.936Z</time>
      </trkpt>
      <trkpt lat="48.24036" lon="15.34945">
        <ele>222.242759</ele>
        <time>2022-09-12T01:16:23.694Z</time>
      </trkpt>
      <trkpt lat="48.24053" lon="15.34937">
        <ele>221.63583</ele>
        <time>2022-09-12T01:16:27.491Z</time>
      </trkpt>
      <trkpt lat="48.24053" lon="15.34923">
        <ele>221.344055</ele>
        <time>2022-09-12T01:16:29.372Z</time>
      </trkpt>
      <trkpt lat="48.24008" lon="15.34866">
        <ele>221.22948</ele>
        <time>2022-09-12T01:16:46.679Z</time>
      </trkpt>
      <trkpt lat="48.23973" lon="15.34825">
        <ele>222.797236</ele>
        <time>2022-09-12T01:17:08.061Z</time>
      </trkpt>
      <trkpt lat="48.23904" lon="15.34946">
        <ele>226.535451</ele>
        <time>2022-09-12T01:17:59.498Z</time>
      </trkpt>
      <trkpt lat="48.23899" lon="15.34954">
        <ele>226.696847</ele>
        <time>2022-09-12T01:18:03.579Z</time>
      </trkpt>
      <trkpt lat="48.23889" lon="15.34954">
        <ele>226.81138</ele>
        <time>2022-09-12T01:18:09.786Z</time>
      </trkpt>
      <trkpt lat="48.23854" lon="15.34992">
        <ele>227.3136</ele>
        <time>2022-09-12T01:18:28.880Z</time>
      </trkpt>
      <trkpt lat="48.23848" lon="15.34993">
        <ele>227.388175</ele>
        <time>2022-09-12T01:18:30.930Z</time>
      </trkpt>
      <trkpt lat="48.23849" lon="15.34982">
        <ele>227.475397</ele>
        <time>2022-09-12T01:18:33.019Z</time>
      </trkpt>
      <trkpt lat="48.23885" lon="15.34908">
        <ele>228.180603</ele>
        <time>2022-09-12T01:18:51.063Z</time>
      </trkpt>
      <trkpt lat="48.23884" lon="15.34853">
        <ele>228.603954</ele>
        <time>2022-09-12T01:18:59.413Z</time>
      </trkpt>
      <trkpt lat="48.23927" lon="15.34821">
        <ele>228.079473</ele>
        <time>2022-09-12T01:19:09.169Z</time>
      </trkpt>
      <trkpt lat="48.23933" lon="15.34817">
        <ele>227.974682</ele>
        <time>2022-09-12T01:19:10.348Z</time>
      </trkpt>
      <trkpt lat="48.24469" lon="15.3438">
        <ele>217.732972</ele>
        <time>2022-09-12T01:21:22.352Z</time>
      </trkpt>
      <trkpt lat="48.24529" lon="15.34317">
        <ele>216.679249</ele>
        <time>2022-09-12T01:21:39.170Z</time>
      </trkpt>
      <trkpt lat="48.24567" lon="15.34257">
        <ele>216.123039</ele>
        <time>2022-09-12T01:21:51.461Z</time>
      </trkpt>
      <trkpt lat="48.24582" lon="15.34206">
        <ele>215.743374</ele>
        <time>2022-09-12T01:21:59.946Z</time>
      </trkpt>
      <trkpt lat="48.24585" lon="15.34173">
        <ele>215.520504</ele>
        <time>2022-09-12T01:22:05.155Z</time>
      </trkpt>
      <trkpt lat="48.24581" lon="15.3414">
        <ele>215.293095</ele>
        <time>2022-09-12T01:22:10.734Z</time>
      </trkpt>
      <trkpt lat="48.24571" lon="15.34113">
        <ele>215.08382</ele>
        <time>2022-09-12T01:22:15.958Z</time>
      </trkpt>
      <trkpt lat="48.24556" lon="15.34096">
        <ele>214.872951</ele>
        <time>2022-09-12T01:22:20.519Z</time>
      </trkpt>
      <trkpt lat="48.24532" lon="15.34083">
        <ele>214.543788</ele>
        <time>2022-09-12T01:22:26.313Z</time>
      </trkpt>
      <trkpt lat="48.24511" lon="15.34085">
        <ele>214.255933</ele>
        <time>2022-09-12T01:22:31.135Z</time>
      </trkpt>
      <trkpt lat="48.24492" lon="15.34097">
        <ele>213.981145</ele>
        <time>2022-09-12T01:22:35.778Z</time>
      </trkpt>
      <trkpt lat="48.24465" lon="15.34131">
        <ele>213.502516</ele>
        <time>2022-09-12T01:22:43.622Z</time>
      </trkpt>
      <trkpt lat="48.24449" lon="15.34129">
        <ele>213.284478</ele>
        <time>2022-09-12T01:22:47.153Z</time>
      </trkpt>
      <trkpt lat="48.24444" lon="15.34136">
        <ele>213.194261</ele>
        <time>2022-09-12T01:22:48.655Z</time>
      </trkpt>
      <trkpt lat="48.24439" lon="15.34145">
        <ele>213.090555</ele>
        <time>2022-09-12T01:22:50.306Z</time>
      </trkpt>
      <trkpt lat="48.2443" lon="15.34163">
        <ele>212.896448</ele>
        <time>2022-09-12T01:22:53.406Z</time>
      </trkpt>
      <trkpt lat="48.24416" lon="15.34146">
        <ele>212.65479</ele>
        <time>2022-09-12T01:22:57.382Z</time>
      </trkpt>
      <trkpt lat="48.24406" lon="15.34116">
        <ele>212.297603</ele>
        <time>2022-09-12T01:23:02.304Z</time>
      </trkpt>
      <trkpt lat="48.24305" lon="15.34007">
        <ele>210.054624</ele>
        <time>2022-09-12T01:23:28.424Z</time>
      </trkpt>
      <trkpt lat="48.24215" lon="15.33912">
        <ele>208.624307</ele>
        <time>2022-09-12T01:23:52.578Z</time>
      </trkpt>
      <trkpt lat="48.24177" lon="15.33865">
        <ele>208.142642</ele>
        <time>2022-09-12T01:24:04.207Z</time>
      </trkpt>
      <trkpt lat="48.24175" lon="15.33868">
        <ele>208.11409</ele>
        <time>2022-09-12T01:24:04.907Z</time>
      </trkpt>
      <trkpt lat="48.2417" lon="15.33865">
        <ele>208.061837</ele>
        <time>2022-09-12T01:24:06.195Z</time>
      </trkpt>
      <trkpt lat="48.24125" lon="15.33806">
        <ele>207.52661</ele>
        <time>2022-09-12T01:24:20.676Z</time>
      </trkpt>
      <trkpt lat="48.24094" lon="15.33756">
        <ele>207.534546</ele>
        <time>2022-09-12T01:24:33.155Z</time>
      </trkpt>
      <trkpt lat="48.24079" lon="15.33744">
        <ele>207.537479</ele>
        <time>2022-09-12T01:24:37.926Z</time>
      </trkpt>
      <trkpt lat="48.24067" lon="15.33714">
        <ele>207.541487</ele>
        <time>2022-09-12T01:24:44.438Z</time>
      </trkpt>
      <trkpt lat="48.24039" lon="15.3364">
        <ele>207.551315</ele>
        <time>2022-09-12T01:24:59.555Z</time>
      </trkpt>
      <trkpt lat="48.24012" lon="15.33586">
        <ele>207.565856</ele>
        <time>2022-09-12T01:25:11.688Z</time>
      </trkpt>
      <trkpt lat="48.23996" lon="15.3355">
        <ele>207.588664</ele>
        <time>2022-09-12T01:25:19.680Z</time>
      </trkpt>
      <trkpt lat="48.23975" lon="15.33502">
        <ele>207.617977</ele>
        <time>2022-09-12T01:25:30.077Z</time>
      </trkpt>
      <trkpt lat="48.2396" lon="15.33458">
        <ele>207.64354</ele>
        <time>2022-09-12T01:25:39.118Z</time>
      </trkpt>
      <trkpt lat="48.23834" lon="15.33158">
        <ele>207.729642</ele>
        <time>2022-09-12T01:26:42.325Z</time>
      </trkpt>
      <trkpt lat="48.23793" lon="15.33045">
        <ele>207.608027</ele>
        <time>2022-09-12T01:27:05.623Z</time>
      </trkpt>
      <trkpt lat="48.23752" lon="15.32911">
        <ele>207.442638</ele>
        <time>2022-09-12T01:27:31.158Z</time>
      </trkpt>
      <trkpt lat="48.23685" lon="15.32656">
        <ele>205.95253</ele>
        <time>2022-09-12T01:28:13.169Z</time>
      </trkpt>
      <trkpt lat="48.23679" lon="15.32645">
        <ele>205.911776</ele>
        <time>2022-09-12T01:28:15.891Z</time>
      </trkpt>
      <trkpt lat="48.23655" lon="15.32635">
        <ele>205.91216</ele>
        <time>2022-09-12T01:28:21.934Z</time>
      </trkpt>
      <trkpt lat="48.23615" lon="15.32664">
        <ele>205.912824</ele>
        <time>2022-09-12T01:28:33.862Z</time>
      </trkpt>
      <trkpt lat="48.23558" lon="15.32533">
        <ele>205.914415</ele>
        <time>2022-09-12T01:29:02.552Z</time>
      </trkpt>
      <trkpt lat="48.23393" lon="15.32162">
        <ele>207.28478</ele>
        <time>2022-09-12T01:30:29.887Z</time>
      </trkpt>
      <trkpt lat="48.23337" lon="15.32033">
        <ele>207.51894</ele>
        <time>2022-09-12T01:30:57.557Z</time>
      </trkpt>
      <trkpt lat="48.23297" lon="15.31869">
        <ele>207.470763</ele>
        <time>2022-09-12T01:31:27.789Z</time>
      </trkpt>
      <trkpt lat="48.23297" lon="15.3174">
        <ele>207.487638</ele>
        <time>2022-09-12T01:31:51.224Z</time>
      </trkpt>
      <trkpt lat="48.23286" lon="15.31666">
        <ele>207.510649</ele>
        <time>2022-09-12T01:32:04.673Z</time>
      </trkpt>
      <trkpt lat="48.23262" lon="15.31564">
        <ele>207.549689</ele>
        <time>2022-09-12T01:32:23.720Z</time>
      </trkpt>
      <trkpt lat="48.23227" lon="15.31424">
        <ele>207.854087</ele>
        <time>2022-09-12T01:32:51.226Z</time>
      </trkpt>
      <trkpt lat="48.23204" lon="15.31354">
        <ele>208.012093</ele>
        <time>2022-09-12T01:33:06.332Z</time>
      </trkpt>
      <trkpt lat="48.23184" lon="15.31321">
        <ele>208.113788</ele>
        <time>2022-09-12T01:33:14.852Z</time>
      </trkpt>
      <trkpt lat="48.2317" lon="15.31296">
        <ele>208.26068</ele>
        <time>2022-09-12T01:33:21.375Z</time>
      </trkpt>
      <trkpt lat="48.23159" lon="15.31233">
        <ele>208.548321</ele>
        <time>2022-09-12T01:33:34.355Z</time>
      </trkpt>
      <trkpt lat="48.23158" lon="15.3121">
        <ele>208.649613</ele>
        <time>2022-09-12T01:33:38.986Z</time>
      </trkpt>
      <trkpt lat="48.23131" lon="15.30899">
        <ele>209.650247</ele>
        <time>2022-09-12T01:34:41.948Z</time>
      </trkpt>
      <trkpt lat="48.23104" lon="15.30712">
        <ele>209.534074</ele>
        <time>2022-09-12T01:35:14.056Z</time>
      </trkpt>
      <trkpt lat="48.23091" lon="15.30639">
        <ele>209.258682</ele>
        <time>2022-09-12T01:35:26.074Z</time>
      </trkpt>
      <trkpt lat="48.23047" lon="15.30512">
        <ele>208.809491</ele>
        <time>2022-09-12T01:35:49.117Z</time>
      </trkpt>
      <trkpt lat="48.23044" lon="15.30421">
        <ele>208.63503</ele>
        <time>2022-09-12T01:36:04.519Z</time>
      </trkpt>
      <trkpt lat="48.23038" lon="15.30368">
        <ele>208.533194</ele>
        <time>2022-09-12T01:36:13.823Z</time>
      </trkpt>
      <trkpt lat="48.22988" lon="15.3026">
        <ele>208.344112</ele>
        <time>2022-09-12T01:36:36.940Z</time>
      </trkpt>
      <trkpt lat="48.22974" lon="15.30219">
        <ele>208.316461</ele>
        <time>2022-09-12T01:36:45.034Z</time>
      </trkpt>
      <trkpt lat="48.22955" lon="15.30034">
        <ele>208.232566</ele>
        <time>2022-09-12T01:37:17.432Z</time>
      </trkpt>
      <trkpt lat="48.2295" lon="15.29865">
        <ele>208.607556</ele>
        <time>2022-09-12T01:37:49.278Z</time>
      </trkpt>
      <trkpt lat="48.22967" lon="15.29832">
        <ele>208.700258</ele>
        <time>2022-09-12T01:37:57.296Z</time>
      </trkpt>
      <trkpt lat="48.2298" lon="15.29781">
        <ele>208.827699</ele>
        <time>2022-09-12T01:38:07.805Z</time>
      </trkpt>
      <trkpt lat="48.22978" lon="15.29761">
        <ele>208.892727</ele>
        <time>2022-09-12T01:38:11.944Z</time>
      </trkpt>
      <trkpt lat="48.22971" lon="15.29705">
        <ele>209.071438</ele>
        <time>2022-09-12T01:38:23.029Z</time>
      </trkpt>
      <trkpt lat="48.22965" lon="15.29661">
        <ele>209.215091</ele>
        <time>2022-09-12T01:38:32.001Z</time>
      </trkpt>
      <trkpt lat="48.22959" lon="15.29609">
        <ele>209.382308</ele>
        <time>2022-09-12T01:38:42.426Z</time>
      </trkpt>
      <trkpt lat="48.22955" lon="15.2961">
        <ele>209.402035</ele>
        <time>2022-09-12T01:38:43.683Z</time>
      </trkpt>
      <trkpt lat="48.22951" lon="15.29572">
        <ele>209.525999</ele>
        <time>2022-09-12T01:38:51.222Z</time>
      </trkpt>
      <trkpt lat="48.22945" lon="15.29532">
        <ele>209.654003</ele>
        <time>2022-09-12T01:38:58.789Z</time>
      </trkpt>
      <trkpt lat="48.22947" lon="15.29518">
        <ele>209.681015</ele>
        <time>2022-09-12T01:39:01.424Z</time>
      </trkpt>
      <trkpt lat="48.22934" lon="15.29472">
        <ele>209.759414</ele>
        <time>2022-09-12T01:39:10.160Z</time>
      </trkpt>
      <trkpt lat="48.22932" lon="15.29444">
        <ele>209.803693</ele>
        <time>2022-09-12T01:39:15.104Z</time>
      </trkpt>
      <trkpt lat="48.22924" lon="15.29314">
        <ele>210.009141</ele>
        <time>2022-09-12T01:39:39.139Z</time>
      </trkpt>
      <trkpt lat="48.22915" lon="15.29184">
        <ele>210.419553</ele>
        <time>2022-09-12T01:40:04.456Z</time>
      </trkpt>
      <trkpt lat="48.229" lon="15.29058">
        <ele>210.948927</ele>
        <time>2022-09-12T01:40:30.387Z</time>
      </trkpt>
      <trkpt lat="48.22833" lon="15.28655">
        <ele>212.438744</ele>
        <time>2022-09-12T01:41:51.373Z</time>
      </trkpt>
      <trkpt lat="48.22798" lon="15.28353">
        <ele>213.314474</ele>
        <time>2022-09-12T01:42:49.548Z</time>
      </trkpt>
      <trkpt lat="48.22797" lon="15.28335">
        <ele>213.363851</ele>
        <time>2022-09-12T01:42:52.881Z</time>
      </trkpt>
      <trkpt lat="48.22778" lon="15.28058">
        <ele>214.178222</ele>
        <time>2022-09-12T01:43:46.853Z</time>
      </trkpt>
      <trkpt lat="48.22763" lon="15.27902">
        <ele>214.612954</ele>
        <time>2022-09-12T01:44:17.241Z</time>
      </trkpt>
      <trkpt lat="48.22726" lon="15.27615">
        <ele>214.923386</ele>
        <time>2022-09-12T01:45:11.111Z</time>
      </trkpt>
      <trkpt lat="48.22717" lon="15.27512">
        <ele>214.788462</ele>
        <time>2022-09-12T01:45:29.095Z</time>
      </trkpt>
      <trkpt lat="48.2267" lon="15.2686">
        <ele>213.131183</ele>
        <time>2022-09-12T01:47:17.174Z</time>
      </trkpt>
      <trkpt lat="48.22646" lon="15.26391">
        <ele>214.142124</ele>
        <time>2022-09-12T01:48:47.693Z</time>
      </trkpt>
      <trkpt lat="48.22641" lon="15.26357">
        <ele>214.210011</ele>
        <time>2022-09-12T01:48:53.655Z</time>
      </trkpt>
      <trkpt lat="48.22625" lon="15.26306">
        <ele>214.230744</ele>
        <time>2022-09-12T01:49:03.407Z</time>
      </trkpt>
      <trkpt lat="48.22628" lon="15.2628">
        <ele>214.197534</ele>
        <time>2022-09-12T01:49:08.138Z</time>
      </trkpt>
      <trkpt lat="48.22643" lon="15.26242">
        <ele>214.141185</ele>
        <time>2022-09-12T01:49:15.883Z</time>
      </trkpt>
      <trkpt lat="48.22641" lon="15.26229">
        <ele>214.12469</ele>
        <time>2022-09-12T01:49:18.257Z</time>
      </trkpt>
      <trkpt lat="48.22639" lon="15.26211">
        <ele>214.101569</ele>
        <time>2022-09-12T01:49:21.363Z</time>
      </trkpt>
      <trkpt lat="48.22595" lon="15.25999">
        <ele>213.429034</ele>
        <time>2022-09-12T01:49:59.117Z</time>
      </trkpt>
      <trkpt lat="48.2256" lon="15.25881">
        <ele>212.64701</ele>
        <time>2022-09-12T01:50:19.184Z</time>
      </trkpt>
      <trkpt lat="48.22546" lon="15.25856">
        <ele>212.453184</ele>
        <time>2022-09-12T01:50:23.849Z</time>
      </trkpt>
      <trkpt lat="48.22483" lon="15.25885">
        <ele>211.713509</ele>
        <time>2022-09-12T01:50:38.232Z</time>
      </trkpt>
      <trkpt lat="48.22473" lon="15.25889">
        <ele>211.589265</ele>
        <time>2022-09-12T01:50:42.157Z</time>
      </trkpt>
      <trkpt lat="48.2247" lon="15.25889">
        <ele>211.55696</ele>
        <time>2022-09-12T01:50:42.732Z</time>
      </trkpt>
      <trkpt lat="48.22436" lon="15.25809">
        <ele>210.803154</ele>
        <time>2022-09-12T01:50:56.213Z</time>
      </trkpt>
      <trkpt lat="48.2235" lon="15.25379">
        <ele>209.764441</ele>
        <time>2022-09-12T01:52:13.426Z</time>
      </trkpt>
      <trkpt lat="48.22315" lon="15.25229">
        <ele>209.813442</ele>
        <time>2022-09-12T01:52:42.816Z</time>
      </trkpt>
      <trkpt lat="48.22263" lon="15.24999">
        <ele>210.121673</ele>
        <time>2022-09-12T01:53:27.237Z</time>
      </trkpt>
      <trkpt lat="48.22254" lon="15.24919">
        <ele>210.270987</ele>
        <time>2022-09-12T01:53:42.199Z</time>
      </trkpt>
      <trkpt lat="48.22252" lon="15.24738">
        <ele>210.701383</ele>
        <time>2022-09-12T01:54:16.886Z</time>
      </trkpt>
      <trkpt lat="48.22239" lon="15.24628">
        <ele>210.793724</ele>
        <time>2022-09-12T01:54:38.067Z</time>
      </trkpt>
      <trkpt lat="48.22227" lon="15.24562">
        <ele>210.763109</ele>
        <time>2022-09-12T01:54:50.699Z</time>
      </trkpt>
      <trkpt lat="48.22175" lon="15.2436">
        <ele>210.458206</ele>
        <time>2022-09-12T01:55:26.619Z</time>
      </trkpt>
      <trkpt lat="48.22157" lon="15.24327">
        <ele>210.320791</ele>
        <time>2022-09-12T01:55:33.748Z</time>
      </trkpt>
      <trkpt lat="48.22116" lon="15.24278">
        <ele>210.070539</ele>
        <time>2022-09-12T01:55:46.371Z</time>
      </trkpt>
      <trkpt lat="48.22104" lon="15.24256">
        <ele>209.981885</ele>
        <time>2022-09-12T01:55:51.071Z</time>
      </trkpt>
      <trkpt lat="48.2201" lon="15.2392">
        <ele>209.365215</ele>
        <time>2022-09-12T01:56:52.732Z</time>
      </trkpt>
      <trkpt lat="48.21867" lon="15.23497">
        <ele>209.793241</ele>
        <time>2022-09-12T01:58:19.968Z</time>
      </trkpt>
      <trkpt lat="48.21818" lon="15.23329">
        <ele>210.032168</ele>
        <time>2022-09-12T01:58:53.412Z</time>
      </trkpt>
      <trkpt lat="48.21805" lon="15.23279">
        <ele>210.103742</ele>
        <time>2022-09-12T01:59:03.698Z</time>
      </trkpt>
      <trkpt lat="48.21798" lon="15.23256">
        <ele>210.136186</ele>
        <time>2022-09-12T01:59:08.223Z</time>
      </trkpt>
      <trkpt lat="48.21765" lon="15.23112">
        <ele>210.261542</ele>
        <time>2022-09-12T01:59:36.406Z</time>
      </trkpt>
      <trkpt lat="48.21737" lon="15.2292">
        <ele>210.238293</ele>
        <time>2022-09-12T02:00:11.677Z</time>
      </trkpt>
      <trkpt lat="48.21714" lon="15.2273">
        <ele>209.810697</ele>
        <time>2022-09-12T02:00:43.437Z</time>
      </trkpt>
      <trkpt lat="48.21694" lon="15.22489">
        <ele>209.281544</ele>
        <time>2022-09-12T02:01:23.963Z</time>
      </trkpt>
      <trkpt lat="48.21684" lon="15.22271">
        <ele>209.066863</ele>
        <time>2022-09-12T02:02:02.069Z</time>
      </trkpt>
      <trkpt lat="48.21682" lon="15.22101">
        <ele>209.001626</ele>
        <time>2022-09-12T02:02:32.321Z</time>
      </trkpt>
      <trkpt lat="48.21684" lon="15.21909">
        <ele>209.000046</ele>
        <time>2022-09-12T02:03:06.513Z</time>
      </trkpt>
      <trkpt lat="48.21685" lon="15.21761">
        <ele>209.002333</ele>
        <time>2022-09-12T02:03:32.785Z</time>
      </trkpt>
      <trkpt lat="48.21703" lon="15.21643">
        <ele>209.004339</ele>
        <time>2022-09-12T02:03:54.339Z</time>
      </trkpt>
      <trkpt lat="48.21706" lon="15.21556">
        <ele>209.055798</ele>
        <time>2022-09-12T02:04:10.086Z</time>
      </trkpt>
      <trkpt lat="48.21702" lon="15.2143">
        <ele>209.136622</ele>
        <time>2022-09-12T02:04:32.518Z</time>
      </trkpt>
      <trkpt lat="48.21716" lon="15.21409">
        <ele>209.155496</ele>
        <time>2022-09-12T02:04:37.878Z</time>
      </trkpt>
      <trkpt lat="48.21702" lon="15.21339">
        <ele>209.25885</ele>
        <time>2022-09-12T02:04:51.617Z</time>
      </trkpt>
      <trkpt lat="48.21707" lon="15.21322">
        <ele>209.298166</ele>
        <time>2022-09-12T02:04:55.249Z</time>
      </trkpt>
      <trkpt lat="48.21704" lon="15.21261">
        <ele>209.430442</ele>
        <time>2022-09-12T02:05:07.410Z</time>
      </trkpt>
      <trkpt lat="48.21695" lon="15.21229">
        <ele>209.505205</ele>
        <time>2022-09-12T02:05:14.177Z</time>
      </trkpt>
      <trkpt lat="48.21669" lon="15.21177">
        <ele>209.645254</ele>
        <time>2022-09-12T02:05:27.131Z</time>
      </trkpt>
      <trkpt lat="48.21662" lon="15.21119">
        <ele>209.769949</ele>
        <time>2022-09-12T02:05:38.750Z</time>
      </trkpt>
      <trkpt lat="48.2164" lon="15.20883">
        <ele>210.258141</ele>
        <time>2022-09-12T02:06:25.640Z</time>
      </trkpt>
      <trkpt lat="48.21628" lon="15.206">
        <ele>210.210945</ele>
        <time>2022-09-12T02:07:17.346Z</time>
      </trkpt>
      <trkpt lat="48.21629" lon="15.20302">
        <ele>210.12068</ele>
        <time>2022-09-12T02:08:11.897Z</time>
      </trkpt>
      <trkpt lat="48.21638" lon="15.20189">
        <ele>210.168238</ele>
        <time>2022-09-12T02:08:33.196Z</time>
      </trkpt>
      <trkpt lat="48.21711" lon="15.1976">
        <ele>210.452446</ele>
        <time>2022-09-12T02:09:57.265Z</time>
      </trkpt>
      <trkpt lat="48.21721" lon="15.19683">
        <ele>210.451659</ele>
        <time>2022-09-12T02:10:11.043Z</time>
      </trkpt>
      <trkpt lat="48.21721" lon="15.19661">
        <ele>210.451434</ele>
        <time>2022-09-12T02:10:14.985Z</time>
      </trkpt>
      <trkpt lat="48.21716" lon="15.19648">
        <ele>210.451284</ele>
        <time>2022-09-12T02:10:17.677Z</time>
      </trkpt>
      <trkpt lat="48.21703" lon="15.19627">
        <ele>210.450991</ele>
        <time>2022-09-12T02:10:22.610Z</time>
      </trkpt>
      <trkpt lat="48.217" lon="15.18903">
        <ele>211.178749</ele>
        <time>2022-09-12T02:12:32.455Z</time>
      </trkpt>
      <trkpt lat="48.21713" lon="15.18711">
        <ele>212.318476</ele>
        <time>2022-09-12T02:13:13.876Z</time>
      </trkpt>
      <trkpt lat="48.21749" lon="15.18398">
        <ele>215.3701</ele>
        <time>2022-09-12T02:14:29.570Z</time>
      </trkpt>
      <trkpt lat="48.21756" lon="15.18203">
        <ele>215.688482</ele>
        <time>2022-09-12T02:15:04.765Z</time>
      </trkpt>
      <trkpt lat="48.21768" lon="15.17951">
        <ele>213.185772</ele>
        <time>2022-09-12T02:15:40.604Z</time>
      </trkpt>
      <trkpt lat="48.21767" lon="15.17871">
        <ele>212.612632</ele>
        <time>2022-09-12T02:15:52.123Z</time>
      </trkpt>
      <trkpt lat="48.21744" lon="15.17703">
        <ele>211.715793</ele>
        <time>2022-09-12T02:16:19.705Z</time>
      </trkpt>
      <trkpt lat="48.21743" lon="15.17645">
        <ele>211.462235</ele>
        <time>2022-09-12T02:16:29.885Z</time>
      </trkpt>
      <trkpt lat="48.21735" lon="15.17627">
        <ele>211.456002</ele>
        <time>2022-09-12T02:16:33.941Z</time>
      </trkpt>
      <trkpt lat="48.2173" lon="15.1761">
        <ele>211.450614</ele>
        <time>2022-09-12T02:16:37.091Z</time>
      </trkpt>
      <trkpt lat="48.21724" lon="15.17515">
        <ele>211.422852</ele>
        <time>2022-09-12T02:16:54.137Z</time>
      </trkpt>
      <trkpt lat="48.21712" lon="15.17439">
        <ele>211.400105</ele>
        <time>2022-09-12T02:17:07.949Z</time>
      </trkpt>
      <trkpt lat="48.21692" lon="15.17341">
        <ele>211.368652</ele>
        <time>2022-09-12T02:17:26.029Z</time>
      </trkpt>
      <trkpt lat="48.21683" lon="15.17322">
        <ele>211.361276</ele>
        <time>2022-09-12T02:17:30.053Z</time>
      </trkpt>
      <trkpt lat="48.2167" lon="15.17288">
        <ele>211.348505</ele>
        <time>2022-09-12T02:17:37.034Z</time>
      </trkpt>
      <trkpt lat="48.21651" lon="15.17188">
        <ele>211.315242</ele>
        <time>2022-09-12T02:17:55.146Z</time>
      </trkpt>
      <trkpt lat="48.21639" lon="15.17092">
        <ele>211.313929</ele>
        <time>2022-09-12T02:18:12.402Z</time>
      </trkpt>
      <trkpt lat="48.21622" lon="15.17012">
        <ele>211.337528</ele>
        <time>2022-09-12T02:18:27.517Z</time>
      </trkpt>
      <trkpt lat="48.21622" lon="15.1701">
        <ele>211.338047</ele>
        <time>2022-09-12T02:18:27.841Z</time>
      </trkpt>
      <trkpt lat="48.21594" lon="15.16887">
        <ele>211.374435</ele>
        <time>2022-09-12T02:18:51.541Z</time>
      </trkpt>
      <trkpt lat="48.21561" lon="15.1671">
        <ele>211.337699</ele>
        <time>2022-09-12T02:19:24.019Z</time>
      </trkpt>
      <trkpt lat="48.21552" lon="15.16658">
        <ele>211.326528</ele>
        <time>2022-09-12T02:19:33.485Z</time>
      </trkpt>
      <trkpt lat="48.21543" lon="15.16593">
        <ele>211.299528</ele>
        <time>2022-09-12T02:19:45.313Z</time>
      </trkpt>
      <trkpt lat="48.21524" lon="15.16461">
        <ele>211.215209</ele>
        <time>2022-09-12T02:20:08.197Z</time>
      </trkpt>
      <trkpt lat="48.21511" lon="15.16333">
        <ele>211.204311</ele>
        <time>2022-09-12T02:20:31.185Z</time>
      </trkpt>
      <trkpt lat="48.21509" lon="15.16189">
        <ele>211.520595</ele>
        <time>2022-09-12T02:20:58.237Z</time>
      </trkpt>
      <trkpt lat="48.21509" lon="15.16099">
        <ele>211.717853</ele>
        <time>2022-09-12T02:21:15.790Z</time>
      </trkpt>
      <trkpt lat="48.21478" lon="15.15809">
        <ele>212.557384</ele>
        <time>2022-09-12T02:22:13.013Z</time>
      </trkpt>
      <trkpt lat="48.21429" lon="15.15487">
        <ele>212.630818</ele>
        <time>2022-09-12T02:23:11.018Z</time>
      </trkpt>
      <trkpt lat="48.21425" lon="15.15424">
        <ele>212.636518</ele>
        <time>2022-09-12T02:23:22.460Z</time>
      </trkpt>
      <trkpt lat="48.21415" lon="15.15395">
        <ele>212.639431</ele>
        <time>2022-09-12T02:23:28.318Z</time>
      </trkpt>
      <trkpt lat="48.21389" lon="15.15211">
        <ele>212.615377</ele>
        <time>2022-09-12T02:24:02.196Z</time>
      </trkpt>
      <trkpt lat="48.21373" lon="15.15003">
        <ele>212.544548</ele>
        <time>2022-09-12T02:24:39.960Z</time>
      </trkpt>
      <trkpt lat="48.21375" lon="15.14854">
        <ele>212.53553</ele>
        <time>2022-09-12T02:25:07.352Z</time>
      </trkpt>
      <trkpt lat="48.21382" lon="15.14764">
        <ele>212.530049</ele>
        <time>2022-09-12T02:25:24.089Z</time>
      </trkpt>
      <trkpt lat="48.21382" lon="15.14755">
        <ele>212.538379</ele>
        <time>2022-09-12T02:25:26.872Z</time>
      </trkpt>
      <trkpt lat="48.21387" lon="15.14694">
        <ele>212.627381</ele>
        <time>2022-09-12T02:25:38.269Z</time>
      </trkpt>
      <trkpt lat="48.21384" lon="15.14659">
        <ele>212.678592</ele>
        <time>2022-09-12T02:25:45.104Z</time>
      </trkpt>
      <trkpt lat="48.21378" lon="15.14629">
        <ele>212.723855</ele>
        <time>2022-09-12T02:25:51.123Z</time>
      </trkpt>
      <trkpt lat="48.21373" lon="15.14554">
        <ele>212.833405</ele>
        <time>2022-09-12T02:26:05.531Z</time>
      </trkpt>
      <trkpt lat="48.21378" lon="15.14522">
        <ele>212.881255</ele>
        <time>2022-09-12T02:26:11.289Z</time>
      </trkpt>
      <trkpt lat="48.21396" lon="15.14478">
        <ele>212.940312</ele>
        <time>2022-09-12T02:26:20.278Z</time>
      </trkpt>
      <trkpt lat="48.21404" lon="15.14437">
        <ele>212.972693</ele>
        <time>2022-09-12T02:26:27.642Z</time>
      </trkpt>
      <trkpt lat="48.21404" lon="15.14408">
        <ele>212.994763</ele>
        <time>2022-09-12T02:26:32.752Z</time>
      </trkpt>
      <trkpt lat="48.214" lon="15.14373">
        <ele>213.022037</ele>
        <time>2022-09-12T02:26:39.416Z</time>
      </trkpt>
      <trkpt lat="48.21395" lon="15.14339">
        <ele>213.048887</ele>
        <time>2022-09-12T02:26:46.163Z</time>
      </trkpt>
      <trkpt lat="48.2139" lon="15.14303">
        <ele>213.076905</ele>
        <time>2022-09-12T02:26:53.055Z</time>
      </trkpt>
      <trkpt lat="48.21386" lon="15.1427">
        <ele>213.102811</ele>
        <time>2022-09-12T02:26:59.570Z</time>
      </trkpt>
      <trkpt lat="48.21381" lon="15.14235">
        <ele>213.128755</ele>
        <time>2022-09-12T02:27:05.954Z</time>
      </trkpt>
      <trkpt lat="48.21376" lon="15.14201">
        <ele>213.135886</ele>
        <time>2022-09-12T02:27:12.105Z</time>
      </trkpt>
      <trkpt lat="48.21371" lon="15.14167">
        <ele>213.142716</ele>
        <time>2022-09-12T02:27:18.016Z</time>
      </trkpt>
      <trkpt lat="48.21365" lon="15.14133">
        <ele>213.149892</ele>
        <time>2022-09-12T02:27:24.195Z</time>
      </trkpt>
      <trkpt lat="48.21357" lon="15.14091">
        <ele>213.158635</ele>
        <time>2022-09-12T02:27:31.770Z</time>
      </trkpt>
      <trkpt lat="48.2136" lon="15.14071">
        <ele>213.162791</ele>
        <time>2022-09-12T02:27:35.609Z</time>
      </trkpt>
      <trkpt lat="48.21359" lon="15.14049">
        <ele>213.167142</ele>
        <time>2022-09-12T02:27:39.514Z</time>
      </trkpt>
      <trkpt lat="48.21302" lon="15.13772">
        <ele>213.319317</ele>
        <time>2022-09-12T02:28:31.509Z</time>
      </trkpt>
      <trkpt lat="48.21274" lon="15.13677">
        <ele>213.512007</ele>
        <time>2022-09-12T02:28:50.750Z</time>
      </trkpt>
      <trkpt lat="48.21262" lon="15.1366">
        <ele>213.595007</ele>
        <time>2022-09-12T02:28:55.554Z</time>
      </trkpt>
      <trkpt lat="48.21249" lon="15.136">
        <ele>213.805034</ele>
        <time>2022-09-12T02:29:07.793Z</time>
      </trkpt>
      <trkpt lat="48.21247" lon="15.13593">
        <ele>213.831428</ele>
        <time>2022-09-12T02:29:09.389Z</time>
      </trkpt>
      <trkpt lat="48.2123" lon="15.13486">
        <ele>214.199957</ele>
        <time>2022-09-12T02:29:31.200Z</time>
      </trkpt>
      <trkpt lat="48.21221" lon="15.13368">
        <ele>214.463768</ele>
        <time>2022-09-12T02:29:54.428Z</time>
      </trkpt>
      <trkpt lat="48.21173" lon="15.1306">
        <ele>214.779399</ele>
        <time>2022-09-12T02:30:52.075Z</time>
      </trkpt>
      <trkpt lat="48.21166" lon="15.13047">
        <ele>214.776464</ele>
        <time>2022-09-12T02:30:55.174Z</time>
      </trkpt>
      <trkpt lat="48.21141" lon="15.12911">
        <ele>214.689521</ele>
        <time>2022-09-12T02:31:18.906Z</time>
      </trkpt>
      <trkpt lat="48.21128" lon="15.12748">
        <ele>214.368521</ele>
        <time>2022-09-12T02:31:46.518Z</time>
      </trkpt>
      <trkpt lat="48.21091" lon="15.12592">
        <ele>214.244209</ele>
        <time>2022-09-12T02:32:15.242Z</time>
      </trkpt>
      <trkpt lat="48.21032" lon="15.12414">
        <ele>214.283267</ele>
        <time>2022-09-12T02:32:51.248Z</time>
      </trkpt>
      <trkpt lat="48.20981" lon="15.12299">
        <ele>214.361274</ele>
        <time>2022-09-12T02:33:16.246Z</time>
      </trkpt>
      <trkpt lat="48.2093" lon="15.12193">
        <ele>214.450579</ele>
        <time>2022-09-12T02:33:39.583Z</time>
      </trkpt>
      <trkpt lat="48.20846" lon="15.12045">
        <ele>214.687018</ele>
        <time>2022-09-12T02:34:15.258Z</time>
      </trkpt>
      <trkpt lat="48.2084" lon="15.12033">
        <ele>214.706289</ele>
        <time>2022-09-12T02:34:18.324Z</time>
      </trkpt>
      <trkpt lat="48.20827" lon="15.12015">
        <ele>214.73798</ele>
        <time>2022-09-12T02:34:23.224Z</time>
      </trkpt>
      <trkpt lat="48.20733" lon="15.11816">
        <ele>215.210359</ele>
        <time>2022-09-12T02:35:09.407Z</time>
      </trkpt>
      <trkpt lat="48.20648" lon="15.1167">
        <ele>215.261521</ele>
        <time>2022-09-12T02:35:44.349Z</time>
      </trkpt>
      <trkpt lat="48.20506" lon="15.11467">
        <ele>215.023295</ele>
        <time>2022-09-12T02:36:34.606Z</time>
      </trkpt>
      <trkpt lat="48.20349" lon="15.11274">
        <ele>214.779762</ele>
        <time>2022-09-12T02:37:27.737Z</time>
      </trkpt>
      <trkpt lat="48.20328" lon="15.11241">
        <ele>214.752037</ele>
        <time>2022-09-12T02:37:35.744Z</time>
      </trkpt>
      <trkpt lat="48.2031" lon="15.11213">
        <ele>214.777104</ele>
        <time>2022-09-12T02:37:42.791Z</time>
      </trkpt>
      <trkpt lat="48.20233" lon="15.11077">
        <ele>214.962502</ele>
        <time>2022-09-12T02:38:16.033Z</time>
      </trkpt>
      <trkpt lat="48.2018" lon="15.11006">
        <ele>215.044226</ele>
        <time>2022-09-12T02:38:35.272Z</time>
      </trkpt>
      <trkpt lat="48.20097" lon="15.10927">
        <ele>215.102975</ele>
        <time>2022-09-12T02:39:01.256Z</time>
      </trkpt>
      <trkpt lat="48.20051" lon="15.10898">
        <ele>215.133242</ele>
        <time>2022-09-12T02:39:14.930Z</time>
      </trkpt>
      <trkpt lat="48.20021" lon="15.10902">
        <ele>215.286619</ele>
        <time>2022-09-12T02:39:23.172Z</time>
      </trkpt>
      <trkpt lat="48.1987" lon="15.10822">
        <ele>216.142268</ele>
        <time>2022-09-12T02:40:10.492Z</time>
      </trkpt>
      <trkpt lat="48.19854" lon="15.10783">
        <ele>216.325062</ele>
        <time>2022-09-12T02:40:19.912Z</time>
      </trkpt>
      <trkpt lat="48.19817" lon="15.10752">
        <ele>216.574417</ele>
        <time>2022-09-12T02:40:32.936Z</time>
      </trkpt>
      <trkpt lat="48.19804" lon="15.10778">
        <ele>216.700442</ele>
        <time>2022-09-12T02:40:39.092Z</time>
      </trkpt>
      <trkpt lat="48.19782" lon="15.10776">
        <ele>216.831199</ele>
        <time>2022-09-12T02:40:45.677Z</time>
      </trkpt>
      <trkpt lat="48.19757" lon="15.10766">
        <ele>216.986494</ele>
        <time>2022-09-12T02:40:53.529Z</time>
      </trkpt>
      <trkpt lat="48.19706" lon="15.10724">
        <ele>217.227697</ele>
        <time>2022-09-12T02:41:10.626Z</time>
      </trkpt>
      <trkpt lat="48.197" lon="15.10721">
        <ele>217.242415</ele>
        <time>2022-09-12T02:41:12.509Z</time>
      </trkpt>
      <trkpt lat="48.19641" lon="15.10691">
        <ele>217.393554</ele>
        <time>2022-09-12T02:41:29.478Z</time>
      </trkpt>
      <trkpt lat="48.19596" lon="15.10682">
        <ele>217.502866</ele>
        <time>2022-09-12T02:41:41.960Z</time>
      </trkpt>
      <trkpt lat="48.19591" lon="15.1067">
        <ele>217.524284</ele>
        <time>2022-09-12T02:41:44.458Z</time>
      </trkpt>
      <trkpt lat="48.19588" lon="15.10623">
        <ele>217.610437</ele>
        <time>2022-09-12T02:41:53.241Z</time>
      </trkpt>
      <trkpt lat="48.1957" lon="15.10643">
        <ele>217.722206</ele>
        <time>2022-09-12T02:41:59.635Z</time>
      </trkpt>
      <trkpt lat="48.19548" lon="15.10655">
        <ele>217.834967</ele>
        <time>2022-09-12T02:42:06.230Z</time>
      </trkpt>
      <trkpt lat="48.19474" lon="15.10684">
        <ele>218.209815</ele>
        <time>2022-09-12T02:42:28.707Z</time>
      </trkpt>
      <trkpt lat="48.19369" lon="15.10702">
        <ele>218.915128</ele>
        <time>2022-09-12T02:43:00.245Z</time>
      </trkpt>
      <trkpt lat="48.19338" lon="15.10716">
        <ele>219.189037</ele>
        <time>2022-09-12T02:43:10.139Z</time>
      </trkpt>
      <trkpt lat="48.19258" lon="15.10745">
        <ele>219.889812</ele>
        <time>2022-09-12T02:43:35.621Z</time>
      </trkpt>
      <trkpt lat="48.19213" lon="15.10758">
        <ele>220.318474</ele>
        <time>2022-09-12T02:43:50.090Z</time>
      </trkpt>
      <trkpt lat="48.1919" lon="15.10765">
        <ele>220.541565</ele>
        <time>2022-09-12T02:43:57.500Z</time>
      </trkpt>
      <trkpt lat="48.19107" lon="15.10821">
        <ele>221.410629</ele>
        <time>2022-09-12T02:44:26.491Z</time>
      </trkpt>
      <trkpt lat="48.19075" lon="15.10703">
        <ele>221.87147</ele>
        <time>2022-09-12T02:44:52.355Z</time>
      </trkpt>
      <trkpt lat="48.19063" lon="15.10646">
        <ele>221.987714</ele>
        <time>2022-09-12T02:45:03.541Z</time>
      </trkpt>
      <trkpt lat="48.19053" lon="15.10587">
        <ele>222.105145</ele>
        <time>2022-09-12T02:45:14.310Z</time>
      </trkpt>
      <trkpt lat="48.19049" lon="15.10563">
        <ele>222.154225</ele>
        <time>2022-09-12T02:45:18.764Z</time>
      </trkpt>
      <trkpt lat="48.19042" lon="15.10524">
        <ele>222.231777</ele>
        <time>2022-09-12T02:45:25.790Z</time>
      </trkpt>
      <trkpt lat="48.19036" lon="15.10507">
        <ele>222.26942</ele>
        <time>2022-09-12T02:45:29.186Z</time>
      </trkpt>
      <trkpt lat="48.19038" lon="15.10477">
        <ele>222.327839</ele>
        <time>2022-09-12T02:45:34.460Z</time>
      </trkpt>
      <trkpt lat="48.19039" lon="15.10459">
        <ele>222.362394</ele>
        <time>2022-09-12T02:45:37.555Z</time>
      </trkpt>
      <trkpt lat="48.19045" lon="15.10407">
        <ele>222.463927</ele>
        <time>2022-09-12T02:45:46.776Z</time>
      </trkpt>
      <trkpt lat="48.1905" lon="15.10383">
        <ele>222.512662</ele>
        <time>2022-09-12T02:45:51.198Z</time>
      </trkpt>
      <trkpt lat="48.1906" lon="15.10341">
        <ele>222.599432</ele>
        <time>2022-09-12T02:45:59.249Z</time>
      </trkpt>
      <trkpt lat="48.19104" lon="15.10176">
        <ele>223.688102</ele>
        <time>2022-09-12T02:46:36.200Z</time>
      </trkpt>
      <trkpt lat="48.19099" lon="15.10155">
        <ele>223.909714</ele>
        <time>2022-09-12T02:46:41.208Z</time>
      </trkpt>
      <trkpt lat="48.1909" lon="15.10112">
        <ele>224.363392</ele>
        <time>2022-09-12T02:46:51.783Z</time>
      </trkpt>
      <trkpt lat="48.19079" lon="15.10021">
        <ele>225.276625</ele>
        <time>2022-09-12T02:47:13.792Z</time>
      </trkpt>
      <trkpt lat="48.19063" lon="15.09883">
        <ele>226.648343</ele>
        <time>2022-09-12T02:47:47.789Z</time>
      </trkpt>
      <trkpt lat="48.19085" lon="15.09859">
        <ele>227.042361</ele>
        <time>2022-09-12T02:47:57.214Z</time>
      </trkpt>
      <trkpt lat="48.19105" lon="15.09851">
        <ele>227.351415</ele>
        <time>2022-09-12T02:48:04.347Z</time>
      </trkpt>
      <trkpt lat="48.19142" lon="15.09858">
        <ele>227.896219</ele>
        <time>2022-09-12T02:48:16.060Z</time>
      </trkpt>
      <trkpt lat="48.19113" lon="15.09583">
        <ele>228.170838</ele>
        <time>2022-09-12T02:49:08.864Z</time>
      </trkpt>
      <trkpt lat="48.19101" lon="15.09524">
        <ele>227.90892</ele>
        <time>2022-09-12T02:49:18.639Z</time>
      </trkpt>
      <trkpt lat="48.19047" lon="15.09325">
        <ele>226.809301</ele>
        <time>2022-09-12T02:49:53.463Z</time>
      </trkpt>
      <trkpt lat="48.19028" lon="15.09256">
        <ele>226.940553</ele>
        <time>2022-09-12T02:50:06.672Z</time>
      </trkpt>
      <trkpt lat="48.19019" lon="15.09217">
        <ele>227.025467</ele>
        <time>2022-09-12T02:50:14.613Z</time>
      </trkpt>
      <trkpt lat="48.18967" lon="15.09021">
        <ele>227.529321</ele>
        <time>2022-09-12T02:50:58.867Z</time>
      </trkpt>
      <trkpt lat="48.18964" lon="15.09009">
        <ele>227.573074</ele>
        <time>2022-09-12T02:51:01.611Z</time>
      </trkpt>
      <trkpt lat="48.18934" lon="15.08877">
        <ele>228.030876</ele>
        <time>2022-09-12T02:51:30.612Z</time>
      </trkpt>
      <trkpt lat="48.18919" lon="15.08809">
        <ele>228.218735</ele>
        <time>2022-09-12T02:51:44.170Z</time>
      </trkpt>
      <trkpt lat="48.189" lon="15.08733">
        <ele>227.970141</ele>
        <time>2022-09-12T02:51:58.317Z</time>
      </trkpt>
      <trkpt lat="48.18893" lon="15.08706">
        <ele>227.882701</ele>
        <time>2022-09-12T02:52:03.146Z</time>
      </trkpt>
      <trkpt lat="48.18874" lon="15.0863">
        <ele>227.631745</ele>
        <time>2022-09-12T02:52:16.894Z</time>
      </trkpt>
      <trkpt lat="48.18861" lon="15.08586">
        <ele>227.483936</ele>
        <time>2022-09-12T02:52:24.934Z</time>
      </trkpt>
      <trkpt lat="48.18821" lon="15.08452">
        <ele>226.862299</ele>
        <time>2022-09-12T02:52:49.783Z</time>
      </trkpt>
      <trkpt lat="48.18802" lon="15.08392">
        <ele>226.571804</ele>
        <time>2022-09-12T02:53:00.741Z</time>
      </trkpt>
      <trkpt lat="48.18789" lon="15.08311">
        <ele>226.200038</ele>
        <time>2022-09-12T02:53:14.830Z</time>
      </trkpt>
      <trkpt lat="48.18777" lon="15.08314">
        <ele>226.119122</ele>
        <time>2022-09-12T02:53:17.766Z</time>
      </trkpt>
      <trkpt lat="48.1876" lon="15.08288">
        <ele>225.962963</ele>
        <time>2022-09-12T02:53:24.208Z</time>
      </trkpt>
      <trkpt lat="48.18752" lon="15.08285">
        <ele>225.912577</ele>
        <time>2022-09-12T02:53:26.042Z</time>
      </trkpt>
      <trkpt lat="48.18745" lon="15.0827">
        <ele>225.833332</ele>
        <time>2022-09-12T02:53:30.288Z</time>
      </trkpt>
      <trkpt lat="48.18733" lon="15.08243">
        <ele>225.692194</ele>
        <time>2022-09-12T02:53:37.579Z</time>
      </trkpt>
      <trkpt lat="48.18726" lon="15.08203">
        <ele>225.518067</ele>
        <time>2022-09-12T02:53:46.947Z</time>
      </trkpt>
      <trkpt lat="48.18722" lon="15.08184">
        <ele>225.428665</ele>
        <time>2022-09-12T02:53:51.318Z</time>
      </trkpt>
      <trkpt lat="48.18723" lon="15.0814">
        <ele>225.24393</ele>
        <time>2022-09-12T02:54:00.823Z</time>
      </trkpt>
      <trkpt lat="48.18744" lon="15.08074">
        <ele>224.95551</ele>
        <time>2022-09-12T02:54:16.241Z</time>
      </trkpt>
      <trkpt lat="48.18775" lon="15.07989">
        <ele>224.623991</ele>
        <time>2022-09-12T02:54:36.147Z</time>
      </trkpt>
      <trkpt lat="48.18791" lon="15.07946">
        <ele>224.454949</ele>
        <time>2022-09-12T02:54:46.827Z</time>
      </trkpt>
      <trkpt lat="48.18802" lon="15.0791">
        <ele>224.317719</ele>
        <time>2022-09-12T02:54:56.160Z</time>
      </trkpt>
      <trkpt lat="48.18813" lon="15.07845">
        <ele>224.382688</ele>
        <time>2022-09-12T02:55:11.927Z</time>
      </trkpt>
      <trkpt lat="48.18823" lon="15.07812">
        <ele>224.987366</ele>
        <time>2022-09-12T02:55:20.522Z</time>
      </trkpt>
      <trkpt lat="48.18866" lon="15.07726">
        <ele>226.811216</ele>
        <time>2022-09-12T02:55:50.564Z</time>
      </trkpt>
      <trkpt lat="48.18883" lon="15.07695">
        <ele>227.496636</ele>
        <time>2022-09-12T02:56:04.046Z</time>
      </trkpt>
      <trkpt lat="48.18953" lon="15.07639">
        <ele>229.41715</ele>
        <time>2022-09-12T02:56:44.577Z</time>
      </trkpt>
      <trkpt lat="48.18962" lon="15.07634">
        <ele>229.627793</ele>
        <time>2022-09-12T02:56:49.073Z</time>
      </trkpt>
      <trkpt lat="48.19001" lon="15.07638">
        <ele>230.515762</ele>
        <time>2022-09-12T02:57:06.369Z</time>
      </trkpt>
      <trkpt lat="48.19006" lon="15.07639">
        <ele>230.631465</ele>
        <time>2022-09-12T02:57:09.153Z</time>
      </trkpt>
      <trkpt lat="48.19029" lon="15.07622">
        <ele>231.206249</ele>
        <time>2022-09-12T02:57:17.609Z</time>
      </trkpt>
      <trkpt lat="48.19058" lon="15.07552">
        <ele>232.440789</ele>
        <time>2022-09-12T02:57:36.875Z</time>
      </trkpt>
      <trkpt lat="48.19059" lon="15.07543">
        <ele>232.576228</ele>
        <time>2022-09-12T02:57:37.935Z</time>
      </trkpt>
      <trkpt lat="48.19145" lon="15.07362">
        <ele>229.917662</ele>
        <time>2022-09-12T02:58:09.066Z</time>
      </trkpt>
      <trkpt lat="48.19189" lon="15.07288">
        <ele>228.741525</ele>
        <time>2022-09-12T02:58:21.869Z</time>
      </trkpt>
      <trkpt lat="48.1921" lon="15.07257">
        <ele>228.314609</ele>
        <time>2022-09-12T02:58:28.313Z</time>
      </trkpt>
      <trkpt lat="48.19257" lon="15.07165">
        <ele>227.190499</ele>
        <time>2022-09-12T02:58:59.517Z</time>
      </trkpt>
      <trkpt lat="48.1931" lon="15.07064">
        <ele>226.613327</ele>
        <time>2022-09-12T02:59:35.421Z</time>
      </trkpt>
      <trkpt lat="48.19398" lon="15.06921">
        <ele>226.913323</ele>
        <time>2022-09-12T03:00:35.037Z</time>
      </trkpt>
      <trkpt lat="48.19436" lon="15.0685">
        <ele>227.692179</ele>
        <time>2022-09-12T03:01:05.825Z</time>
      </trkpt>
      <trkpt lat="48.19551" lon="15.06605">
        <ele>229.863408</ele>
        <time>2022-09-12T03:02:51.431Z</time>
      </trkpt>
      <trkpt lat="48.19591" lon="15.06507">
        <ele>230.085325</ele>
        <time>2022-09-12T03:03:25.396Z</time>
      </trkpt>
      <trkpt lat="48.19602" lon="15.06475">
        <ele>230.155032</ele>
        <time>2022-09-12T03:03:35.115Z</time>
      </trkpt>
      <trkpt lat="48.19648" lon="15.06275">
        <ele>227.96265</ele>
        <time>2022-09-12T03:04:28.663Z</time>
      </trkpt>
      <trkpt lat="48.19661" lon="15.06187">
        <ele>227.143591</ele>
        <time>2022-09-12T03:04:51.411Z</time>
      </trkpt>
      <trkpt lat="48.19679" lon="15.06106">
        <ele>227.164018</ele>
        <time>2022-09-12T03:05:14.509Z</time>
      </trkpt>
      <trkpt lat="48.19757" lon="15.05812">
        <ele>228.234887</ele>
        <time>2022-09-12T03:06:57.498Z</time>
      </trkpt>
      <trkpt lat="48.19777" lon="15.0569">
        <ele>229.086225</ele>
        <time>2022-09-12T03:07:40.089Z</time>
      </trkpt>
      <trkpt lat="48.1978" lon="15.05669">
        <ele>229.165699</ele>
        <time>2022-09-12T03:07:47.912Z</time>
      </trkpt>
      <trkpt lat="48.19821" lon="15.05339">
        <ele>230.222093</ele>
        <time>2022-09-12T03:09:31.339Z</time>
      </trkpt>
      <trkpt lat="48.19834" lon="15.05183">
        <ele>230.474396</ele>
        <time>2022-09-12T03:10:18.433Z</time>
      </trkpt>
      <trkpt lat="48.19838" lon="15.04928">
        <ele>230.89656</ele>
        <time>2022-09-12T03:11:37.289Z</time>
      </trkpt>
      <trkpt lat="48.1983" lon="15.04646">
        <ele>230.491094</ele>
        <time>2022-09-12T03:12:58.906Z</time>
      </trkpt>
      <trkpt lat="48.19838" lon="15.0448">
        <ele>230.573453</ele>
        <time>2022-09-12T03:13:45.273Z</time>
      </trkpt>
      <trkpt lat="48.19843" lon="15.04472">
        <ele>230.582604</ele>
        <time>2022-09-12T03:13:48.506Z</time>
      </trkpt>
      <trkpt lat="48.19849" lon="15.04417">
        <ele>230.631425</ele>
        <time>2022-09-12T03:14:07.294Z</time>
      </trkpt>
      <trkpt lat="48.19857" lon="15.04286">
        <ele>230.922263</ele>
        <time>2022-09-12T03:14:50.401Z</time>
      </trkpt>
      <trkpt lat="48.19861" lon="15.04282">
        <ele>230.948257</ele>
        <time>2022-09-12T03:14:53.073Z</time>
      </trkpt>
      <trkpt lat="48.19877" lon="15.04268">
        <ele>231.041868</ele>
        <time>2022-09-12T03:14:58.307Z</time>
      </trkpt>
      <trkpt lat="48.1988" lon="15.04262">
        <ele>231.065849</ele>
        <time>2022-09-12T03:14:59.765Z</time>
      </trkpt>
      <trkpt lat="48.19886" lon="15.0425">
        <ele>231.116104</ele>
        <time>2022-09-12T03:15:03.163Z</time>
      </trkpt>
      <trkpt lat="48.19897" lon="15.04118">
        <ele>231.556645</ele>
        <time>2022-09-12T03:15:28.739Z</time>
      </trkpt>
      <trkpt lat="48.19917" lon="15.04003">
        <ele>231.119575</ele>
        <time>2022-09-12T03:15:51.345Z</time>
      </trkpt>
      <trkpt lat="48.19917" lon="15.03946">
        <ele>230.891479</ele>
        <time>2022-09-12T03:16:00.185Z</time>
      </trkpt>
      <trkpt lat="48.19901" lon="15.03873">
        <ele>230.582345</ele>
        <time>2022-09-12T03:16:12.256Z</time>
      </trkpt>
      <trkpt lat="48.19901" lon="15.03837">
        <ele>230.470517</ele>
        <time>2022-09-12T03:16:17.994Z</time>
      </trkpt>
      <trkpt lat="48.19909" lon="15.0379">
        <ele>230.396543</ele>
        <time>2022-09-12T03:16:25.764Z</time>
      </trkpt>
      <trkpt lat="48.19902" lon="15.03655">
        <ele>230.188214</ele>
        <time>2022-09-12T03:16:49.170Z</time>
      </trkpt>
      <trkpt lat="48.19887" lon="15.03526">
        <ele>230.508837</ele>
        <time>2022-09-12T03:17:16.929Z</time>
      </trkpt>
      <trkpt lat="48.19879" lon="15.03474">
        <ele>230.908667</ele>
        <time>2022-09-12T03:17:29.002Z</time>
      </trkpt>
      <trkpt lat="48.19882" lon="15.03448">
        <ele>231.101802</ele>
        <time>2022-09-12T03:17:34.849Z</time>
      </trkpt>
      <trkpt lat="48.19891" lon="15.03421">
        <ele>231.330184</ele>
        <time>2022-09-12T03:17:41.812Z</time>
      </trkpt>
      <trkpt lat="48.19896" lon="15.03412">
        <ele>231.422089</ele>
        <time>2022-09-12T03:17:44.708Z</time>
      </trkpt>
      <trkpt lat="48.19926" lon="15.03345">
        <ele>232.023998</ele>
        <time>2022-09-12T03:18:03.365Z</time>
      </trkpt>
      <trkpt lat="48.19932" lon="15.03313">
        <ele>232.1536</ele>
        <time>2022-09-12T03:18:10.952Z</time>
      </trkpt>
      <trkpt lat="48.19899" lon="15.0316">
        <ele>232.579138</ele>
        <time>2022-09-12T03:18:44.553Z</time>
      </trkpt>
      <trkpt lat="48.19887" lon="15.03113">
        <ele>232.710852</ele>
        <time>2022-09-12T03:18:53.050Z</time>
      </trkpt>
      <trkpt lat="48.19888" lon="15.0304">
        <ele>232.650164</ele>
        <time>2022-09-12T03:19:05.382Z</time>
      </trkpt>
      <trkpt lat="48.19879" lon="15.02997">
        <ele>232.468481</ele>
        <time>2022-09-12T03:19:12.934Z</time>
      </trkpt>
      <trkpt lat="48.19856" lon="15.02914">
        <ele>232.110688</ele>
        <time>2022-09-12T03:19:27.846Z</time>
      </trkpt>
      <trkpt lat="48.19813" lon="15.02776">
        <ele>231.6233</ele>
        <time>2022-09-12T03:19:53.647Z</time>
      </trkpt>
      <trkpt lat="48.19791" lon="15.02702">
        <ele>231.469622</ele>
        <time>2022-09-12T03:20:08.812Z</time>
      </trkpt>
      <trkpt lat="48.19772" lon="15.02641">
        <ele>231.340284</ele>
        <time>2022-09-12T03:20:21.693Z</time>
      </trkpt>
      <trkpt lat="48.19732" lon="15.02542">
        <ele>230.925482</ele>
        <time>2022-09-12T03:20:41.359Z</time>
      </trkpt>
      <trkpt lat="48.19721" lon="15.02487">
        <ele>230.598744</ele>
        <time>2022-09-12T03:20:50.665Z</time>
      </trkpt>
      <trkpt lat="48.19686" lon="15.02414">
        <ele>230.079401</ele>
        <time>2022-09-12T03:21:05.207Z</time>
      </trkpt>
      <trkpt lat="48.19679" lon="15.02399">
        <ele>229.970774</ele>
        <time>2022-09-12T03:21:08.121Z</time>
      </trkpt>
      <trkpt lat="48.1965" lon="15.02339">
        <ele>229.575739</ele>
        <time>2022-09-12T03:21:19.878Z</time>
      </trkpt>
      <trkpt lat="48.19638" lon="15.02233">
        <ele>229.130239</ele>
        <time>2022-09-12T03:21:37.185Z</time>
      </trkpt>
      <trkpt lat="48.19632" lon="15.022">
        <ele>228.986712</ele>
        <time>2022-09-12T03:21:42.957Z</time>
      </trkpt>
      <trkpt lat="48.19602" lon="15.0212">
        <ele>228.600847</ele>
        <time>2022-09-12T03:21:59.887Z</time>
      </trkpt>
      <trkpt lat="48.19574" lon="15.01982">
        <ele>228.595712</ele>
        <time>2022-09-12T03:22:26.373Z</time>
      </trkpt>
      <trkpt lat="48.19557" lon="15.01905">
        <ele>228.634707</ele>
        <time>2022-09-12T03:22:42.365Z</time>
      </trkpt>
      <trkpt lat="48.19549" lon="15.01866">
        <ele>228.654112</ele>
        <time>2022-09-12T03:22:50.318Z</time>
      </trkpt>
      <trkpt lat="48.19516" lon="15.01698">
        <ele>228.133348</ele>
        <time>2022-09-12T03:23:21.622Z</time>
      </trkpt>
      <trkpt lat="48.19502" lon="15.0158">
        <ele>227.719965</ele>
        <time>2022-09-12T03:23:40.835Z</time>
      </trkpt>
      <trkpt lat="48.19496" lon="15.0156">
        <ele>227.627582</ele>
        <time>2022-09-12T03:23:44.468Z</time>
      </trkpt>
      <trkpt lat="48.19483" lon="15.01545">
        <ele>227.524773</ele>
        <time>2022-09-12T03:23:48.422Z</time>
      </trkpt>
      <trkpt lat="48.19456" lon="15.01544">
        <ele>227.352496</ele>
        <time>2022-09-12T03:23:54.907Z</time>
      </trkpt>
      <trkpt lat="48.19449" lon="15.01536">
        <ele>227.301112</ele>
        <time>2022-09-12T03:23:58.657Z</time>
      </trkpt>
      <trkpt lat="48.19449" lon="15.01498">
        <ele>227.144877</ele>
        <time>2022-09-12T03:24:08.688Z</time>
      </trkpt>
      <trkpt lat="48.19463" lon="15.01283">
        <ele>227.073691</ele>
        <time>2022-09-12T03:25:10.908Z</time>
      </trkpt>
      <trkpt lat="48.19462" lon="15.01144">
        <ele>227.792486</ele>
        <time>2022-09-12T03:25:58.839Z</time>
      </trkpt>
      <trkpt lat="48.19496" lon="15.00773">
        <ele>229.556679</ele>
        <time>2022-09-12T03:28:01.645Z</time>
      </trkpt>
      <trkpt lat="48.19523" lon="15.00605">
        <ele>229.202223</ele>
        <time>2022-09-12T03:28:49.029Z</time>
      </trkpt>
      <trkpt lat="48.19588" lon="15.00321">
        <ele>228.024292</ele>
        <time>2022-09-12T03:30:11.840Z</time>
      </trkpt>
      <trkpt lat="48.19591" lon="15.00309">
        <ele>228.016381</ele>
        <time>2022-09-12T03:30:15.580Z</time>
      </trkpt>
      <trkpt lat="48.19604" lon="15.00246">
        <ele>228.091182</ele>
        <time>2022-09-12T03:30:35.499Z</time>
      </trkpt>
      <trkpt lat="48.19651" lon="14.99873">
        <ele>228.533435</ele>
        <time>2022-09-12T03:32:31.999Z</time>
      </trkpt>
      <trkpt lat="48.19657" lon="14.99847">
        <ele>228.566945</ele>
        <time>2022-09-12T03:32:40.295Z</time>
      </trkpt>
      <trkpt lat="48.1967" lon="14.99594">
        <ele>228.496808</ele>
        <time>2022-09-12T03:33:54.597Z</time>
      </trkpt>
      <trkpt lat="48.19725" lon="14.99072">
        <ele>228.018012</ele>
        <time>2022-09-12T03:36:29.266Z</time>
      </trkpt>
      <trkpt lat="48.19763" lon="14.98646">
        <ele>227.377945</ele>
        <time>2022-09-12T03:38:32.912Z</time>
      </trkpt>
      <trkpt lat="48.19795" lon="14.98324">
        <ele>227.5836</ele>
        <time>2022-09-12T03:40:10.295Z</time>
      </trkpt>
      <trkpt lat="48.19798" lon="14.98254">
        <ele>227.693241</ele>
        <time>2022-09-12T03:40:31.907Z</time>
      </trkpt>
      <trkpt lat="48.19837" lon="14.98083">
        <ele>228.137431</ele>
        <time>2022-09-12T03:41:27.685Z</time>
      </trkpt>
      <trkpt lat="48.19837" lon="14.9804">
        <ele>228.267591</ele>
        <time>2022-09-12T03:41:41.162Z</time>
      </trkpt>
      <trkpt lat="48.19851" lon="14.97965">
        <ele>228.498904</ele>
        <time>2022-09-12T03:42:05.306Z</time>
      </trkpt>
      <trkpt lat="48.19875" lon="14.97875">
        <ele>228.731522</ele>
        <time>2022-09-12T03:42:35.929Z</time>
      </trkpt>
      <trkpt lat="48.19909" lon="14.97789">
        <ele>228.931259</ele>
        <time>2022-09-12T03:43:07.453Z</time>
      </trkpt>
      <trkpt lat="48.19966" lon="14.97677">
        <ele>229.078016</ele>
        <time>2022-09-12T03:43:49.018Z</time>
      </trkpt>
      <trkpt lat="48.19988" lon="14.97647">
        <ele>228.971665</ele>
        <time>2022-09-12T03:44:01.879Z</time>
      </trkpt>
      <trkpt lat="48.20016" lon="14.97571">
        <ele>228.764338</ele>
        <time>2022-09-12T03:44:26.884Z</time>
      </trkpt>
      <trkpt lat="48.20032" lon="14.97489">
        <ele>228.563077</ele>
        <time>2022-09-12T03:44:50.757Z</time>
      </trkpt>
      <trkpt lat="48.20081" lon="14.97346">
        <ele>228.142289</ele>
        <time>2022-09-12T03:45:18.059Z</time>
      </trkpt>
      <trkpt lat="48.20117" lon="14.97226">
        <ele>227.792475</ele>
        <time>2022-09-12T03:45:41.578Z</time>
      </trkpt>
      <trkpt lat="48.20163" lon="14.97007">
        <ele>227.439246</ele>
        <time>2022-09-12T03:46:22.468Z</time>
      </trkpt>
      <trkpt lat="48.20223" lon="14.96806">
        <ele>227.287146</ele>
        <time>2022-09-12T03:47:02.333Z</time>
      </trkpt>
      <trkpt lat="48.20272" lon="14.96576">
        <ele>227.355348</ele>
        <time>2022-09-12T03:47:47.290Z</time>
      </trkpt>
      <trkpt lat="48.20284" lon="14.96528">
        <ele>227.39428</ele>
        <time>2022-09-12T03:47:57.072Z</time>
      </trkpt>
      <trkpt lat="48.20342" lon="14.96392">
        <ele>227.699893</ele>
        <time>2022-09-12T03:48:28.378Z</time>
      </trkpt>
      <trkpt lat="48.20393" lon="14.96296">
        <ele>228.029406</ele>
        <time>2022-09-12T03:48:58.908Z</time>
      </trkpt>
      <trkpt lat="48.20497" lon="14.96149">
        <ele>228.886099</ele>
        <time>2022-09-12T03:49:52.416Z</time>
      </trkpt>
      <trkpt lat="48.20595" lon="14.96052">
        <ele>229.739716</ele>
        <time>2022-09-12T03:50:38.875Z</time>
      </trkpt>
      <trkpt lat="48.20638" lon="14.9602">
        <ele>230.139305</ele>
        <time>2022-09-12T03:50:57.296Z</time>
      </trkpt>
      <trkpt lat="48.20649" lon="14.9602">
        <ele>230.236216</ele>
        <time>2022-09-12T03:51:01.589Z</time>
      </trkpt>
      <trkpt lat="48.20653" lon="14.96026">
        <ele>230.279519</ele>
        <time>2022-09-12T03:51:04.281Z</time>
      </trkpt>
      <trkpt lat="48.20691" lon="14.9599">
        <ele>230.653166</ele>
        <time>2022-09-12T03:51:17.827Z</time>
      </trkpt>
      <trkpt lat="48.20767" lon="14.95922">
        <ele>231.538463</ele>
        <time>2022-09-12T03:51:44.450Z</time>
      </trkpt>
      <trkpt lat="48.20867" lon="14.95824">
        <ele>232.841439</ele>
        <time>2022-09-12T03:52:22.380Z</time>
      </trkpt>
      <trkpt lat="48.20918" lon="14.95786">
        <ele>233.939942</ele>
        <time>2022-09-12T03:52:43.551Z</time>
      </trkpt>
      <trkpt lat="48.20984" lon="14.95753">
        <ele>235.28369</ele>
        <time>2022-09-12T03:53:09.704Z</time>
      </trkpt>
      <trkpt lat="48.21037" lon="14.95737">
        <ele>236.280182</ele>
        <time>2022-09-12T03:53:29.546Z</time>
      </trkpt>
      <trkpt lat="48.21114" lon="14.95712">
        <ele>236.762875</ele>
        <time>2022-09-12T03:53:55.139Z</time>
      </trkpt>
      <trkpt lat="48.21198" lon="14.95652">
        <ele>237.340256</ele>
        <time>2022-09-12T03:54:21.230Z</time>
      </trkpt>
      <trkpt lat="48.21229" lon="14.95636">
        <ele>236.962396</ele>
        <time>2022-09-12T03:54:28.700Z</time>
      </trkpt>
      <trkpt lat="48.21321" lon="14.95608">
        <ele>235.597662</ele>
        <time>2022-09-12T03:54:49.500Z</time>
      </trkpt>
      <trkpt lat="48.21386" lon="14.95566">
        <ele>234.441794</ele>
        <time>2022-09-12T03:55:04.614Z</time>
      </trkpt>
      <trkpt lat="48.21497" lon="14.9552">
        <ele>231.648077</ele>
        <time>2022-09-12T03:55:27.562Z</time>
      </trkpt>
      <trkpt lat="48.21555" lon="14.95473">
        <ele>230.268878</ele>
        <time>2022-09-12T03:55:41.308Z</time>
      </trkpt>
      <trkpt lat="48.21618" lon="14.95424">
        <ele>229.694273</ele>
        <time>2022-09-12T03:55:56.863Z</time>
      </trkpt>
      <trkpt lat="48.21768" lon="14.95328">
        <ele>229.772015</ele>
        <time>2022-09-12T03:56:40.274Z</time>
      </trkpt>
      <trkpt lat="48.21884" lon="14.95223">
        <ele>231.944038</ele>
        <time>2022-09-12T03:57:28.430Z</time>
      </trkpt>
      <trkpt lat="48.21926" lon="14.95201">
        <ele>233.471486</ele>
        <time>2022-09-12T03:57:47.818Z</time>
      </trkpt>
      <trkpt lat="48.22032" lon="14.95173">
        <ele>237.109326</ele>
        <time>2022-09-12T03:58:36.718Z</time>
      </trkpt>
      <trkpt lat="48.22089" lon="14.95143">
        <ele>238.884244</ele>
        <time>2022-09-12T03:59:04.198Z</time>
      </trkpt>
      <trkpt lat="48.22164" lon="14.95082">
        <ele>241.402165</ele>
        <time>2022-09-12T03:59:38.579Z</time>
      </trkpt>
      <trkpt lat="48.22309" lon="14.94952">
        <ele>244.96606</ele>
        <time>2022-09-12T04:00:38.413Z</time>
      </trkpt>
      <trkpt lat="48.22373" lon="14.94902">
        <ele>246.251422</ele>
        <time>2022-09-12T04:01:03.936Z</time>
      </trkpt>
      <trkpt lat="48.2254" lon="14.94782">
        <ele>248.111683</ele>
        <time>2022-09-12T04:02:09.880Z</time>
      </trkpt>
      <trkpt lat="48.2269" lon="14.94739">
        <ele>244.965703</ele>
        <time>2022-09-12T04:02:40.507Z</time>
      </trkpt>
      <trkpt lat="48.22703" lon="14.9471">
        <ele>243.853528</ele>
        <time>2022-09-12T04:02:44.784Z</time>
      </trkpt>
      <trkpt lat="48.22868" lon="14.94515">
        <ele>234.831292</ele>
        <time>2022-09-12T04:03:24.644Z</time>
      </trkpt>
      <trkpt lat="48.22887" lon="14.94501">
        <ele>234.204372</ele>
        <time>2022-09-12T04:03:29.189Z</time>
      </trkpt>
      <trkpt lat="48.2297" lon="14.94322">
        <ele>230.670674</ele>
        <time>2022-09-12T04:04:00.378Z</time>
      </trkpt>
      <trkpt lat="48.22995" lon="14.94277">
        <ele>230.260922</ele>
        <time>2022-09-12T04:04:08.674Z</time>
      </trkpt>
      <trkpt lat="48.23028" lon="14.94223">
        <ele>229.74963</ele>
        <time>2022-09-12T04:04:19.960Z</time>
      </trkpt>
      <trkpt lat="48.23046" lon="14.94195">
        <ele>229.473977</ele>
        <time>2022-09-12T04:04:27.201Z</time>
      </trkpt>
      <trkpt lat="48.23075" lon="14.94154">
        <ele>229.156864</ele>
        <time>2022-09-12T04:04:38.255Z</time>
      </trkpt>
      <trkpt lat="48.23084" lon="14.9414">
        <ele>229.104101</ele>
        <time>2022-09-12T04:04:42.111Z</time>
      </trkpt>
      <trkpt lat="48.23087" lon="14.94136">
        <ele>229.087226</ele>
        <time>2022-09-12T04:04:43.229Z</time>
      </trkpt>
      <trkpt lat="48.23093" lon="14.94129">
        <ele>229.057898</ele>
        <time>2022-09-12T04:04:44.765Z</time>
      </trkpt>
      <trkpt lat="48.23126" lon="14.94087">
        <ele>228.885492</ele>
        <time>2022-09-12T04:04:54.649Z</time>
      </trkpt>
      <trkpt lat="48.23143" lon="14.9406">
        <ele>228.784507</ele>
        <time>2022-09-12T04:05:01.659Z</time>
      </trkpt>
      <trkpt lat="48.23161" lon="14.94021">
        <ele>228.659497</ele>
        <time>2022-09-12T04:05:09.778Z</time>
      </trkpt>
      <trkpt lat="48.23176" lon="14.93963">
        <ele>228.493374</ele>
        <time>2022-09-12T04:05:20.113Z</time>
      </trkpt>
      <trkpt lat="48.23203" lon="14.93765">
        <ele>228.106059</ele>
        <time>2022-09-12T04:05:51.768Z</time>
      </trkpt>
      <trkpt lat="48.23203" lon="14.93537">
        <ele>229.438032</ele>
        <time>2022-09-12T04:06:39.748Z</time>
      </trkpt>
      <trkpt lat="48.23227" lon="14.93395">
        <ele>230.885825</ele>
        <time>2022-09-12T04:07:14.947Z</time>
      </trkpt>
      <trkpt lat="48.23236" lon="14.93165">
        <ele>233.733875</ele>
        <time>2022-09-12T04:08:10.179Z</time>
      </trkpt>
      <trkpt lat="48.23231" lon="14.93069">
        <ele>234.242964</ele>
        <time>2022-09-12T04:08:31.305Z</time>
      </trkpt>
      <trkpt lat="48.23233" lon="14.9298">
        <ele>234.696714</ele>
        <time>2022-09-12T04:08:50.383Z</time>
      </trkpt>
      <trkpt lat="48.23259" lon="14.92801">
        <ele>234.261108</ele>
        <time>2022-09-12T04:09:21.217Z</time>
      </trkpt>
      <trkpt lat="48.23256" lon="14.92595">
        <ele>232.47773</ele>
        <time>2022-09-12T04:09:50.284Z</time>
      </trkpt>
      <trkpt lat="48.2326" lon="14.92523">
        <ele>232.013982</ele>
        <time>2022-09-12T04:10:00.210Z</time>
      </trkpt>
      <trkpt lat="48.23282" lon="14.92288">
        <ele>231.267559</ele>
        <time>2022-09-12T04:10:41.027Z</time>
      </trkpt>
      <trkpt lat="48.23301" lon="14.92156">
        <ele>231.832287</ele>
        <time>2022-09-12T04:11:10.650Z</time>
      </trkpt>
      <trkpt lat="48.23317" lon="14.91957">
        <ele>231.559445</ele>
        <time>2022-09-12T04:11:48.799Z</time>
      </trkpt>
      <trkpt lat="48.23335" lon="14.91825">
        <ele>231.019188</ele>
        <time>2022-09-12T04:12:08.498Z</time>
      </trkpt>
      <trkpt lat="48.23344" lon="14.91678">
        <ele>229.506862</ele>
        <time>2022-09-12T04:12:29.245Z</time>
      </trkpt>
      <trkpt lat="48.23369" lon="14.9155">
        <ele>228.285584</ele>
        <time>2022-09-12T04:12:48.955Z</time>
      </trkpt>
      <trkpt lat="48.23365" lon="14.91423">
        <ele>228.357023</ele>
        <time>2022-09-12T04:13:11.385Z</time>
      </trkpt>
      <trkpt lat="48.23342" lon="14.91292">
        <ele>228.437573</ele>
        <time>2022-09-12T04:13:38.498Z</time>
      </trkpt>
      <trkpt lat="48.23335" lon="14.91198">
        <ele>228.561811</ele>
        <time>2022-09-12T04:13:57.340Z</time>
      </trkpt>
      <trkpt lat="48.23324" lon="14.9107">
        <ele>228.731524</ele>
        <time>2022-09-12T04:14:20.573Z</time>
      </trkpt>
      <trkpt lat="48.23304" lon="14.90961">
        <ele>228.652495</ele>
        <time>2022-09-12T04:14:39.383Z</time>
      </trkpt>
      <trkpt lat="48.23294" lon="14.90914">
        <ele>228.563565</ele>
        <time>2022-09-12T04:14:47.319Z</time>
      </trkpt>
      <trkpt lat="48.23284" lon="14.90873">
        <ele>228.484795</ele>
        <time>2022-09-12T04:14:54.659Z</time>
      </trkpt>
      <trkpt lat="48.23261" lon="14.90811">
        <ele>228.356633</ele>
        <time>2022-09-12T04:15:07.067Z</time>
      </trkpt>
      <trkpt lat="48.23252" lon="14.90787">
        <ele>228.307595</ele>
        <time>2022-09-12T04:15:11.810Z</time>
      </trkpt>
      <trkpt lat="48.23242" lon="14.90752">
        <ele>228.391725</ele>
        <time>2022-09-12T04:15:18.359Z</time>
      </trkpt>
      <trkpt lat="48.23237" lon="14.90698">
        <ele>228.55471</ele>
        <time>2022-09-12T04:15:27.825Z</time>
      </trkpt>
      <trkpt lat="48.23237" lon="14.9057">
        <ele>228.932807</ele>
        <time>2022-09-12T04:15:52.824Z</time>
      </trkpt>
      <trkpt lat="48.23235" lon="14.90557">
        <ele>228.972932</ele>
        <time>2022-09-12T04:15:55.680Z</time>
      </trkpt>
      <trkpt lat="48.23225" lon="14.90524">
        <ele>229.08029</ele>
        <time>2022-09-12T04:16:03.935Z</time>
      </trkpt>
      <trkpt lat="48.2322" lon="14.90512">
        <ele>229.123936</ele>
        <time>2022-09-12T04:16:06.875Z</time>
      </trkpt>
      <trkpt lat="48.23198" lon="14.90447">
        <ele>229.357658</ele>
        <time>2022-09-12T04:16:22.298Z</time>
      </trkpt>
      <trkpt lat="48.23193" lon="14.90414">
        <ele>229.46752</ele>
        <time>2022-09-12T04:16:28.727Z</time>
      </trkpt>
      <trkpt lat="48.23188" lon="14.90302">
        <ele>229.831173</ele>
        <time>2022-09-12T04:16:49.745Z</time>
      </trkpt>
      <trkpt lat="48.23188" lon="14.90286">
        <ele>229.881196</ele>
        <time>2022-09-12T04:16:52.951Z</time>
      </trkpt>
      <trkpt lat="48.23183" lon="14.90234">
        <ele>229.831566</ele>
        <time>2022-09-12T04:17:02.514Z</time>
      </trkpt>
      <trkpt lat="48.23176" lon="14.90208">
        <ele>229.683661</ele>
        <time>2022-09-12T04:17:07.355Z</time>
      </trkpt>
      <trkpt lat="48.23101" lon="14.89977">
        <ele>228.41027</ele>
        <time>2022-09-12T04:17:46.601Z</time>
      </trkpt>
      <trkpt lat="48.23078" lon="14.89925">
        <ele>228.152537</ele>
        <time>2022-09-12T04:17:56.149Z</time>
      </trkpt>
      <trkpt lat="48.2305" lon="14.89875">
        <ele>227.884525</ele>
        <time>2022-09-12T04:18:06.470Z</time>
      </trkpt>
      <trkpt lat="48.2296" lon="14.89771">
        <ele>227.630044</ele>
        <time>2022-09-12T04:18:36.371Z</time>
      </trkpt>
      <trkpt lat="48.22935" lon="14.89728">
        <ele>227.765673</ele>
        <time>2022-09-12T04:18:46.828Z</time>
      </trkpt>
      <trkpt lat="48.22917" lon="14.89669">
        <ele>227.918404</ele>
        <time>2022-09-12T04:18:59.307Z</time>
      </trkpt>
      <trkpt lat="48.22899" lon="14.89576">
        <ele>228.242564</ele>
        <time>2022-09-12T04:19:19.248Z</time>
      </trkpt>
      <trkpt lat="48.22894" lon="14.89511">
        <ele>228.74461</ele>
        <time>2022-09-12T04:19:32.921Z</time>
      </trkpt>
      <trkpt lat="48.22897" lon="14.89442">
        <ele>229.265486</ele>
        <time>2022-09-12T04:19:46.247Z</time>
      </trkpt>
      <trkpt lat="48.229" lon="14.89414">
        <ele>229.484878</ele>
        <time>2022-09-12T04:19:51.643Z</time>
      </trkpt>
      <trkpt lat="48.22907" lon="14.89352">
        <ele>229.962999</ele>
        <time>2022-09-12T04:20:05.856Z</time>
      </trkpt>
      <trkpt lat="48.22923" lon="14.89275">
        <ele>231.32269</ele>
        <time>2022-09-12T04:20:25.984Z</time>
      </trkpt>
      <trkpt lat="48.2295" lon="14.89219">
        <ele>232.80744</ele>
        <time>2022-09-12T04:20:44.518Z</time>
      </trkpt>
      <trkpt lat="48.2298" lon="14.89184">
        <ele>234.030828</ele>
        <time>2022-09-12T04:21:00.842Z</time>
      </trkpt>
      <trkpt lat="48.23115" lon="14.89085">
        <ele>238.636201</ele>
        <time>2022-09-12T04:22:12.190Z</time>
      </trkpt>
      <trkpt lat="48.23132" lon="14.89071">
        <ele>239.207284</ele>
        <time>2022-09-12T04:22:20.119Z</time>
      </trkpt>
      <trkpt lat="48.23174" lon="14.89045">
        <ele>240.542805</ele>
        <time>2022-09-12T04:22:36.815Z</time>
      </trkpt>
      <trkpt lat="48.2325" lon="14.88999">
        <ele>239.939272</ele>
        <time>2022-09-12T04:23:01.127Z</time>
      </trkpt>
      <trkpt lat="48.23303" lon="14.88941">
        <ele>238.464404</ele>
        <time>2022-09-12T04:23:14.220Z</time>
      </trkpt>
      <trkpt lat="48.23318" lon="14.88918">
        <ele>237.987782</ele>
        <time>2022-09-12T04:23:18.193Z</time>
      </trkpt>
      <trkpt lat="48.23332" lon="14.88889">
        <ele>237.456784</ele>
        <time>2022-09-12T04:23:22.509Z</time>
      </trkpt>
      <trkpt lat="48.23341" lon="14.88866">
        <ele>236.930728</ele>
        <time>2022-09-12T04:23:25.688Z</time>
      </trkpt>
      <trkpt lat="48.23368" lon="14.88779">
        <ele>234.195291</ele>
        <time>2022-09-12T04:23:37.130Z</time>
      </trkpt>
      <trkpt lat="48.23372" lon="14.88759">
        <ele>233.582557</ele>
        <time>2022-09-12T04:23:39.725Z</time>
      </trkpt>
      <trkpt lat="48.23376" lon="14.88736">
        <ele>232.918004</ele>
        <time>2022-09-12T04:23:42.635Z</time>
      </trkpt>
      <trkpt lat="48.23378" lon="14.8872">
        <ele>232.434596</ele>
        <time>2022-09-12T04:23:44.766Z</time>
      </trkpt>
      <trkpt lat="48.2338" lon="14.88671">
        <ele>231.03378</ele>
        <time>2022-09-12T04:23:50.833Z</time>
      </trkpt>
      <trkpt lat="48.23379" lon="14.88662">
        <ele>230.797103</ele>
        <time>2022-09-12T04:23:51.882Z</time>
      </trkpt>
      <trkpt lat="48.23366" lon="14.88554">
        <ele>229.322082</ele>
        <time>2022-09-12T04:24:06.314Z</time>
      </trkpt>
      <trkpt lat="48.23359" lon="14.88492">
        <ele>229.147794</ele>
        <time>2022-09-12T04:24:16.302Z</time>
      </trkpt>
      <trkpt lat="48.23357" lon="14.88477">
        <ele>229.105923</ele>
        <time>2022-09-12T04:24:19.148Z</time>
      </trkpt>
      <trkpt lat="48.23349" lon="14.88404">
        <ele>228.898718</ele>
        <time>2022-09-12T04:24:34.248Z</time>
      </trkpt>
      <trkpt lat="48.23346" lon="14.88328">
        <ele>228.998267</ele>
        <time>2022-09-12T04:24:52.140Z</time>
      </trkpt>
      <trkpt lat="48.23352" lon="14.88162">
        <ele>230.753247</ele>
        <time>2022-09-12T04:25:32.675Z</time>
      </trkpt>
      <trkpt lat="48.23346" lon="14.88091">
        <ele>231.511945</ele>
        <time>2022-09-12T04:25:47.119Z</time>
      </trkpt>
      <trkpt lat="48.23339" lon="14.88046">
        <ele>231.632192</ele>
        <time>2022-09-12T04:25:56.728Z</time>
      </trkpt>
      <trkpt lat="48.23331" lon="14.88011">
        <ele>231.65877</ele>
        <time>2022-09-12T04:26:04.225Z</time>
      </trkpt>
      <trkpt lat="48.2332" lon="14.87974">
        <ele>231.689191</ele>
        <time>2022-09-12T04:26:13.838Z</time>
      </trkpt>
      <trkpt lat="48.23297" lon="14.87916">
        <ele>231.738258</ele>
        <time>2022-09-12T04:26:25.326Z</time>
      </trkpt>
      <trkpt lat="48.23263" lon="14.87835">
        <ele>231.7769</ele>
        <time>2022-09-12T04:26:40.452Z</time>
      </trkpt>
      <trkpt lat="48.23243" lon="14.87791">
        <ele>231.601302</ele>
        <time>2022-09-12T04:26:48.363Z</time>
      </trkpt>
      <trkpt lat="48.23219" lon="14.87739">
        <ele>231.394241</ele>
        <time>2022-09-12T04:26:57.700Z</time>
      </trkpt>
      <trkpt lat="48.23157" lon="14.87643">
        <ele>230.953491</ele>
        <time>2022-09-12T04:27:23.009Z</time>
      </trkpt>
      <trkpt lat="48.2314" lon="14.87618">
        <ele>230.959558</ele>
        <time>2022-09-12T04:27:28.740Z</time>
      </trkpt>
      <trkpt lat="48.23108" lon="14.87553">
        <ele>231.106423</ele>
        <time>2022-09-12T04:27:42.036Z</time>
      </trkpt>
      <trkpt lat="48.23092" lon="14.87489">
        <ele>231.230238</ele>
        <time>2022-09-12T04:27:54.741Z</time>
      </trkpt>
      <trkpt lat="48.23084" lon="14.87447">
        <ele>231.310709</ele>
        <time>2022-09-12T04:28:04.035Z</time>
      </trkpt>
      <trkpt lat="48.23074" lon="14.87413">
        <ele>231.379163</ele>
        <time>2022-09-12T04:28:11.862Z</time>
      </trkpt>
      <trkpt lat="48.23061" lon="14.87384">
        <ele>231.427681</ele>
        <time>2022-09-12T04:28:19.033Z</time>
      </trkpt>
      <trkpt lat="48.22977" lon="14.87266">
        <ele>231.607704</ele>
        <time>2022-09-12T04:28:51.564Z</time>
      </trkpt>
      <trkpt lat="48.2292" lon="14.87189">
        <ele>231.451906</ele>
        <time>2022-09-12T04:29:10.706Z</time>
      </trkpt>
      <trkpt lat="48.22902" lon="14.87157">
        <ele>231.181763</ele>
        <time>2022-09-12T04:29:17.329Z</time>
      </trkpt>
      <trkpt lat="48.22891" lon="14.87126">
        <ele>230.957056</ele>
        <time>2022-09-12T04:29:22.521Z</time>
      </trkpt>
      <trkpt lat="48.22879" lon="14.87067">
        <ele>230.554203</ele>
        <time>2022-09-12T04:29:31.551Z</time>
      </trkpt>
      <trkpt lat="48.22858" lon="14.86802">
        <ele>229.664949</ele>
        <time>2022-09-12T04:30:13.362Z</time>
      </trkpt>
      <trkpt lat="48.22832" lon="14.86312">
        <ele>231.006631</ele>
        <time>2022-09-12T04:31:54.202Z</time>
      </trkpt>
      <trkpt lat="48.22821" lon="14.8616">
        <ele>230.867657</ele>
        <time>2022-09-12T04:32:18.861Z</time>
      </trkpt>
      <trkpt lat="48.2282" lon="14.86144">
        <ele>230.724408</ele>
        <time>2022-09-12T04:32:21.184Z</time>
      </trkpt>
      <trkpt lat="48.22818" lon="14.86122">
        <ele>230.518685</ele>
        <time>2022-09-12T04:32:24.376Z</time>
      </trkpt>
      <trkpt lat="48.22815" lon="14.8607">
        <ele>230.026882</ele>
        <time>2022-09-12T04:32:31.992Z</time>
      </trkpt>
      <trkpt lat="48.22814" lon="14.86026">
        <ele>229.621608</ele>
        <time>2022-09-12T04:32:38.291Z</time>
      </trkpt>
      <trkpt lat="48.22811" lon="14.85973">
        <ele>229.127277</ele>
        <time>2022-09-12T04:32:46.027Z</time>
      </trkpt>
      <trkpt lat="48.2281" lon="14.85968">
        <ele>229.07376</ele>
        <time>2022-09-12T04:32:46.869Z</time>
      </trkpt>
      <trkpt lat="48.22807" lon="14.85937">
        <ele>228.786426</ele>
        <time>2022-09-12T04:32:51.360Z</time>
      </trkpt>
      <trkpt lat="48.22805" lon="14.85916">
        <ele>228.585564</ele>
        <time>2022-09-12T04:32:54.658Z</time>
      </trkpt>
      <trkpt lat="48.22792" lon="14.85919">
        <ele>228.410547</ele>
        <time>2022-09-12T04:32:57.587Z</time>
      </trkpt>
      <trkpt lat="48.22773" lon="14.85825">
        <ele>228.015831</ele>
        <time>2022-09-12T04:33:12.638Z</time>
      </trkpt>
      <trkpt lat="48.22755" lon="14.85756">
        <ele>227.714116</ele>
        <time>2022-09-12T04:33:24.763Z</time>
      </trkpt>
      <trkpt lat="48.22711" lon="14.85646">
        <ele>227.336376</ele>
        <time>2022-09-12T04:33:47.389Z</time>
      </trkpt>
      <trkpt lat="48.22704" lon="14.85614">
        <ele>227.34327</ele>
        <time>2022-09-12T04:33:53.592Z</time>
      </trkpt>
      <trkpt lat="48.22685" lon="14.85585">
        <ele>227.351406</ele>
        <time>2022-09-12T04:34:00.901Z</time>
      </trkpt>
      <trkpt lat="48.22564" lon="14.85424">
        <ele>227.419396</ele>
        <time>2022-09-12T04:34:43.923Z</time>
      </trkpt>
      <trkpt lat="48.22548" lon="14.85411">
        <ele>227.431397</ele>
        <time>2022-09-12T04:34:48.663Z</time>
      </trkpt>
      <trkpt lat="48.22518" lon="14.85393">
        <ele>227.45255</ele>
        <time>2022-09-12T04:34:57.142Z</time>
      </trkpt>
      <trkpt lat="48.22516" lon="14.85384">
        <ele>227.456497</ele>
        <time>2022-09-12T04:34:58.757Z</time>
      </trkpt>
      <trkpt lat="48.22505" lon="14.85379">
        <ele>227.464046</ele>
        <time>2022-09-12T04:35:01.995Z</time>
      </trkpt>
      <trkpt lat="48.2249" lon="14.85375">
        <ele>227.47409</ele>
        <time>2022-09-12T04:35:06.238Z</time>
      </trkpt>
      <trkpt lat="48.22404" lon="14.85341">
        <ele>228.022689</ele>
        <time>2022-09-12T04:35:31.202Z</time>
      </trkpt>
      <trkpt lat="48.22395" lon="14.85324">
        <ele>228.192709</ele>
        <time>2022-09-12T04:35:35.847Z</time>
      </trkpt>
      <trkpt lat="48.22378" lon="14.85327">
        <ele>228.390368</ele>
        <time>2022-09-12T04:35:41.302Z</time>
      </trkpt>
      <trkpt lat="48.22368" lon="14.85329">
        <ele>228.507384</ele>
        <time>2022-09-12T04:35:44.730Z</time>
      </trkpt>
      <trkpt lat="48.22319" lon="14.85333">
        <ele>229.073833</ele>
        <time>2022-09-12T04:36:01.861Z</time>
      </trkpt>
      <trkpt lat="48.22277" lon="14.85333">
        <ele>229.556095</ele>
        <time>2022-09-12T04:36:16.870Z</time>
      </trkpt>
      <trkpt lat="48.22255" lon="14.85332">
        <ele>229.663542</ele>
        <time>2022-09-12T04:36:24.415Z</time>
      </trkpt>
      <trkpt lat="48.22218" lon="14.85331">
        <ele>229.819111</ele>
        <time>2022-09-12T04:36:36.233Z</time>
      </trkpt>
      <trkpt lat="48.22209" lon="14.85331">
        <ele>229.856752</ele>
        <time>2022-09-12T04:36:39.036Z</time>
      </trkpt>
      <trkpt lat="48.22167" lon="14.8534">
        <ele>230.034784</ele>
        <time>2022-09-12T04:36:51.769Z</time>
      </trkpt>
      <trkpt lat="48.22135" lon="14.85374">
        <ele>230.199541</ele>
        <time>2022-09-12T04:37:02.032Z</time>
      </trkpt>
      <trkpt lat="48.22126" lon="14.85414">
        <ele>230.317023</ele>
        <time>2022-09-12T04:37:08.790Z</time>
      </trkpt>
      <trkpt lat="48.2212" lon="14.85418">
        <ele>230.289719</ele>
        <time>2022-09-12T04:37:10.405Z</time>
      </trkpt>
      <trkpt lat="48.22077" lon="14.8543">
        <ele>229.830422</ele>
        <time>2022-09-12T04:37:20.228Z</time>
      </trkpt>
      <trkpt lat="48.22044" lon="14.85451">
        <ele>229.446586</ele>
        <time>2022-09-12T04:37:28.136Z</time>
      </trkpt>
      <trkpt lat="48.22003" lon="14.85464">
        <ele>229.004156</ele>
        <time>2022-09-12T04:37:36.952Z</time>
      </trkpt>
      <trkpt lat="48.21769" lon="14.85543">
        <ele>227.425054</ele>
        <time>2022-09-12T04:38:35.540Z</time>
      </trkpt>
      <trkpt lat="48.21476" lon="14.8559">
        <ele>227.160129</ele>
        <time>2022-09-12T04:39:53.187Z</time>
      </trkpt>
      <trkpt lat="48.21341" lon="14.85585">
        <ele>227.335645</ele>
        <time>2022-09-12T04:40:29.702Z</time>
      </trkpt>
      <trkpt lat="48.21306" lon="14.85571">
        <ele>227.426014</ele>
        <time>2022-09-12T04:40:39.941Z</time>
      </trkpt>
      <trkpt lat="48.21294" lon="14.85557">
        <ele>227.464523</ele>
        <time>2022-09-12T04:40:44.326Z</time>
      </trkpt>
      <trkpt lat="48.21212" lon="14.85523">
        <ele>227.698463</ele>
        <time>2022-09-12T04:41:09.021Z</time>
      </trkpt>
      <trkpt lat="48.21156" lon="14.85508">
        <ele>227.876997</ele>
        <time>2022-09-12T04:41:25.330Z</time>
      </trkpt>
      <trkpt lat="48.21091" lon="14.85472">
        <ele>228.092975</ele>
        <time>2022-09-12T04:41:44.708Z</time>
      </trkpt>
      <trkpt lat="48.20959" lon="14.85377">
        <ele>228.214274</ele>
        <time>2022-09-12T04:42:24.034Z</time>
      </trkpt>
      <trkpt lat="48.20823" lon="14.85255">
        <ele>228.407977</ele>
        <time>2022-09-12T04:43:06.768Z</time>
      </trkpt>
      <trkpt lat="48.20722" lon="14.85136">
        <ele>228.62937</ele>
        <time>2022-09-12T04:43:42.668Z</time>
      </trkpt>
      <trkpt lat="48.20673" lon="14.85088">
        <ele>228.737565</ele>
        <time>2022-09-12T04:43:59.006Z</time>
      </trkpt>
      <trkpt lat="48.20616" lon="14.85013">
        <ele>228.867086</ele>
        <time>2022-09-12T04:44:19.445Z</time>
      </trkpt>
      <trkpt lat="48.20488" lon="14.84895">
        <ele>228.895496</ele>
        <time>2022-09-12T04:44:59.685Z</time>
      </trkpt>
      <trkpt lat="48.20366" lon="14.84757">
        <ele>228.886499</ele>
        <time>2022-09-12T04:45:40.547Z</time>
      </trkpt>
      <trkpt lat="48.20297" lon="14.84697">
        <ele>228.858573</ele>
        <time>2022-09-12T04:46:01.736Z</time>
      </trkpt>
      <trkpt lat="48.20248" lon="14.84662">
        <ele>228.815989</ele>
        <time>2022-09-12T04:46:16.040Z</time>
      </trkpt>
      <trkpt lat="48.20117" lon="14.84602">
        <ele>228.762793</ele>
        <time>2022-09-12T04:46:51.775Z</time>
      </trkpt>
      <trkpt lat="48.20017" lon="14.8454">
        <ele>228.821441</ele>
        <time>2022-09-12T04:47:21.215Z</time>
      </trkpt>
      <trkpt lat="48.19845" lon="14.84508">
        <ele>228.794079</ele>
        <time>2022-09-12T04:48:08.191Z</time>
      </trkpt>
      <trkpt lat="48.198" lon="14.84491">
        <ele>228.742101</ele>
        <time>2022-09-12T04:48:20.031Z</time>
      </trkpt>
      <trkpt lat="48.19709" lon="14.8443">
        <ele>228.279194</ele>
        <time>2022-09-12T04:48:44.357Z</time>
      </trkpt>
      <trkpt lat="48.19668" lon="14.84394">
        <ele>228.054555</ele>
        <time>2022-09-12T04:48:56.089Z</time>
      </trkpt>
      <trkpt lat="48.19629" lon="14.8435">
        <ele>227.943575</ele>
        <time>2022-09-12T04:49:08.049Z</time>
      </trkpt>
      <trkpt lat="48.19608" lon="14.84315">
        <ele>227.944949</ele>
        <time>2022-09-12T04:49:15.957Z</time>
      </trkpt>
      <trkpt lat="48.19562" lon="14.84216">
        <ele>227.948486</ele>
        <time>2022-09-12T04:49:37.116Z</time>
      </trkpt>
      <trkpt lat="48.19529" lon="14.84093">
        <ele>228.560613</ele>
        <time>2022-09-12T04:50:03.221Z</time>
      </trkpt>
      <trkpt lat="48.19511" lon="14.83944">
        <ele>229.937446</ele>
        <time>2022-09-12T04:50:38.196Z</time>
      </trkpt>
      <trkpt lat="48.19506" lon="14.83923">
        <ele>230.141034</ele>
        <time>2022-09-12T04:50:43.600Z</time>
      </trkpt>
      <trkpt lat="48.19493" lon="14.83853">
        <ele>230.785469</ele>
        <time>2022-09-12T04:51:00.688Z</time>
      </trkpt>
      <trkpt lat="48.19504" lon="14.83835">
        <ele>231.005475</ele>
        <time>2022-09-12T04:51:06.503Z</time>
      </trkpt>
      <trkpt lat="48.19508" lon="14.83817">
        <ele>231.167776</ele>
        <time>2022-09-12T04:51:10.945Z</time>
      </trkpt>
      <trkpt lat="48.19489" lon="14.83774">
        <ele>231.620847</ele>
        <time>2022-09-12T04:51:23.006Z</time>
      </trkpt>
      <trkpt lat="48.19474" lon="14.83682">
        <ele>232.452915</ele>
        <time>2022-09-12T04:51:44.470Z</time>
      </trkpt>
      <trkpt lat="48.1946" lon="14.83629">
        <ele>232.679889</ele>
        <time>2022-09-12T04:51:55.287Z</time>
      </trkpt>
      <trkpt lat="48.19364" lon="14.83422">
        <ele>231.839092</ele>
        <time>2022-09-12T04:52:35.637Z</time>
      </trkpt>
      <trkpt lat="48.19287" lon="14.83289">
        <ele>230.541049</ele>
        <time>2022-09-12T04:53:01.913Z</time>
      </trkpt>
      <trkpt lat="48.19272" lon="14.83264">
        <ele>230.295194</ele>
        <time>2022-09-12T04:53:07.061Z</time>
      </trkpt>
      <trkpt lat="48.19232" lon="14.83217">
        <ele>229.817821</ele>
        <time>2022-09-12T04:53:19.053Z</time>
      </trkpt>
      <trkpt lat="48.1921" lon="14.83178">
        <ele>229.665442</ele>
        <time>2022-09-12T04:53:27.019Z</time>
      </trkpt>
      <trkpt lat="48.19146" lon="14.83089">
        <ele>229.265724</ele>
        <time>2022-09-12T04:53:48.879Z</time>
      </trkpt>
      <trkpt lat="48.19109" lon="14.83021">
        <ele>229.075839</ele>
        <time>2022-09-12T04:54:04.202Z</time>
      </trkpt>
      <trkpt lat="48.19075" lon="14.82921">
        <ele>229.160643</ele>
        <time>2022-09-12T04:54:24.035Z</time>
      </trkpt>
      <trkpt lat="48.1906" lon="14.82788">
        <ele>229.262253</ele>
        <time>2022-09-12T04:54:48.780Z</time>
      </trkpt>
      <trkpt lat="48.19067" lon="14.82585">
        <ele>230.053965</ele>
        <time>2022-09-12T04:55:30.004Z</time>
      </trkpt>
      <trkpt lat="48.1909" lon="14.82357">
        <ele>230.086806</ele>
        <time>2022-09-12T04:56:13.202Z</time>
      </trkpt>
      <trkpt lat="48.19149" lon="14.82086">
        <ele>228.754349</ele>
        <time>2022-09-12T04:56:57.160Z</time>
      </trkpt>
      <trkpt lat="48.19172" lon="14.82011">
        <ele>228.20427</ele>
        <time>2022-09-12T04:57:09.773Z</time>
      </trkpt>
      <trkpt lat="48.19232" lon="14.81907">
        <ele>227.820693</ele>
        <time>2022-09-12T04:57:31.835Z</time>
      </trkpt>
      <trkpt lat="48.19228" lon="14.819">
        <ele>227.798274</ele>
        <time>2022-09-12T04:57:33.286Z</time>
      </trkpt>
      <trkpt lat="48.19202" lon="14.81856">
        <ele>227.652406</ele>
        <time>2022-09-12T04:57:43.338Z</time>
      </trkpt>
      <trkpt lat="48.19192" lon="14.81835">
        <ele>227.585724</ele>
        <time>2022-09-12T04:57:48.170Z</time>
      </trkpt>
      <trkpt lat="48.19185" lon="14.81818">
        <ele>227.537094</ele>
        <time>2022-09-12T04:57:51.607Z</time>
      </trkpt>
      <trkpt lat="48.19142" lon="14.81633">
        <ele>227.760928</ele>
        <time>2022-09-12T04:58:27.194Z</time>
      </trkpt>
      <trkpt lat="48.1914" lon="14.81624">
        <ele>227.777006</ele>
        <time>2022-09-12T04:58:28.904Z</time>
      </trkpt>
      <trkpt lat="48.19117" lon="14.81504">
        <ele>228.00415</ele>
        <time>2022-09-12T04:58:53.549Z</time>
      </trkpt>
      <trkpt lat="48.19095" lon="14.81298">
        <ele>228.403037</ele>
        <time>2022-09-12T04:59:32.863Z</time>
      </trkpt>
      <trkpt lat="48.1908" lon="14.81106">
        <ele>228.423101</ele>
        <time>2022-09-12T05:00:07.181Z</time>
      </trkpt>
      <trkpt lat="48.19079" lon="14.81096">
        <ele>228.420656</ele>
        <time>2022-09-12T05:00:09.018Z</time>
      </trkpt>
      <trkpt lat="48.19038" lon="14.8081">
        <ele>228.35551</ele>
        <time>2022-09-12T05:00:59.745Z</time>
      </trkpt>
      <trkpt lat="48.19022" lon="14.80744">
        <ele>228.340184</ele>
        <time>2022-09-12T05:01:12.493Z</time>
      </trkpt>
      <trkpt lat="48.18988" lon="14.80645">
        <ele>228.752319</ele>
        <time>2022-09-12T05:01:33.422Z</time>
      </trkpt>
      <trkpt lat="48.18956" lon="14.80535">
        <ele>229.209368</ele>
        <time>2022-09-12T05:01:57.540Z</time>
      </trkpt>
      <trkpt lat="48.18875" lon="14.80319">
        <ele>230.469785</ele>
        <time>2022-09-12T05:02:49.048Z</time>
      </trkpt>
      <trkpt lat="48.18803" lon="14.80126">
        <ele>231.342226</ele>
        <time>2022-09-12T05:03:32.017Z</time>
      </trkpt>
      <trkpt lat="48.18749" lon="14.79931">
        <ele>232.166737</ele>
        <time>2022-09-12T05:04:12.473Z</time>
      </trkpt>
      <trkpt lat="48.18655" lon="14.79632">
        <ele>233.517648</ele>
        <time>2022-09-12T05:05:20.133Z</time>
      </trkpt>
      <trkpt lat="48.18497" lon="14.79076">
        <ele>234.461161</ele>
        <time>2022-09-12T05:07:10.673Z</time>
      </trkpt>
      <trkpt lat="48.18484" lon="14.79023">
        <ele>234.47044</ele>
        <time>2022-09-12T05:07:20.987Z</time>
      </trkpt>
      <trkpt lat="48.18458" lon="14.78919">
        <ele>234.098001</ele>
        <time>2022-09-12T05:07:41.061Z</time>
      </trkpt>
      <trkpt lat="48.18415" lon="14.78718">
        <ele>233.117159</ele>
        <time>2022-09-12T05:08:13.751Z</time>
      </trkpt>
      <trkpt lat="48.18391" lon="14.78628">
        <ele>232.367098</ele>
        <time>2022-09-12T05:08:28.377Z</time>
      </trkpt>
      <trkpt lat="48.18349" lon="14.78493">
        <ele>231.371421</ele>
        <time>2022-09-12T05:08:50.565Z</time>
      </trkpt>
      <trkpt lat="48.18325" lon="14.78367">
        <ele>230.849525</ele>
        <time>2022-09-12T05:09:11.748Z</time>
      </trkpt>
      <trkpt lat="48.18318" lon="14.78262">
        <ele>230.458176</ele>
        <time>2022-09-12T05:09:29.828Z</time>
      </trkpt>
      <trkpt lat="48.18323" lon="14.7811">
        <ele>230.559184</ele>
        <time>2022-09-12T05:09:56.587Z</time>
      </trkpt>
      <trkpt lat="48.18318" lon="14.77968">
        <ele>230.747195</ele>
        <time>2022-09-12T05:10:23.395Z</time>
      </trkpt>
      <trkpt lat="48.18308" lon="14.77885">
        <ele>231.06194</ele>
        <time>2022-09-12T05:10:40.192Z</time>
      </trkpt>
      <trkpt lat="48.18265" lon="14.77663">
        <ele>231.232834</ele>
        <time>2022-09-12T05:11:25.799Z</time>
      </trkpt>
      <trkpt lat="48.18301" lon="14.77657">
        <ele>230.941658</ele>
        <time>2022-09-12T05:11:35.634Z</time>
      </trkpt>
      <trkpt lat="48.18762" lon="14.77719">
        <ele>226.720935</ele>
        <time>2022-09-12T05:13:20.822Z</time>
      </trkpt>
      <trkpt lat="48.18772" lon="14.77709">
        <ele>226.666779</ele>
        <time>2022-09-12T05:13:23.797Z</time>
      </trkpt>
      <trkpt lat="48.18759" lon="14.776">
        <ele>226.343738</ele>
        <time>2022-09-12T05:13:41.850Z</time>
      </trkpt>
      <trkpt lat="48.18751" lon="14.77481">
        <ele>225.995336</ele>
        <time>2022-09-12T05:14:02.083Z</time>
      </trkpt>
      <trkpt lat="48.18709" lon="14.77204">
        <ele>226.906303</ele>
        <time>2022-09-12T05:14:56.536Z</time>
      </trkpt>
      <trkpt lat="48.18687" lon="14.77129">
        <ele>227.683061</ele>
        <time>2022-09-12T05:15:15.261Z</time>
      </trkpt>
      <trkpt lat="48.18714" lon="14.77119">
        <ele>228.087405</ele>
        <time>2022-09-12T05:15:25.111Z</time>
      </trkpt>
      <trkpt lat="48.18739" lon="14.77114">
        <ele>228.438358</ele>
        <time>2022-09-12T05:15:33.783Z</time>
      </trkpt>
      <trkpt lat="48.18839" lon="14.77092">
        <ele>229.524413</ele>
        <time>2022-09-12T05:16:08.316Z</time>
      </trkpt>
      <trkpt lat="48.18897" lon="14.77063">
        <ele>229.778066</ele>
        <time>2022-09-12T05:16:27.046Z</time>
      </trkpt>
      <trkpt lat="48.18922" lon="14.77037">
        <ele>229.906425</ele>
        <time>2022-09-12T05:16:34.983Z</time>
      </trkpt>
      <trkpt lat="48.18942" lon="14.76999">
        <ele>230.040713</ele>
        <time>2022-09-12T05:16:42.846Z</time>
      </trkpt>
      <trkpt lat="48.18974" lon="14.76943">
        <ele>230.037461</ele>
        <time>2022-09-12T05:16:54.831Z</time>
      </trkpt>
      <trkpt lat="48.19007" lon="14.76921">
        <ele>229.923049</ele>
        <time>2022-09-12T05:17:04.077Z</time>
      </trkpt>
      <trkpt lat="48.19017" lon="14.76905">
        <ele>229.878308</ele>
        <time>2022-09-12T05:17:07.778Z</time>
      </trkpt>
      <trkpt lat="48.19023" lon="14.76885">
        <ele>229.833246</ele>
        <time>2022-09-12T05:17:11.558Z</time>
      </trkpt>
      <trkpt lat="48.19029" lon="14.76853">
        <ele>229.762829</ele>
        <time>2022-09-12T05:17:17.580Z</time>
      </trkpt>
      <trkpt lat="48.19024" lon="14.76825">
        <ele>229.702434</ele>
        <time>2022-09-12T05:17:22.640Z</time>
      </trkpt>
      <trkpt lat="48.19009" lon="14.76787">
        <ele>229.609509</ele>
        <time>2022-09-12T05:17:30.189Z</time>
      </trkpt>
      <trkpt lat="48.19011" lon="14.76732">
        <ele>229.456146</ele>
        <time>2022-09-12T05:17:39.199Z</time>
      </trkpt>
      <trkpt lat="48.19017" lon="14.76708">
        <ele>229.3751</ele>
        <time>2022-09-12T05:17:43.303Z</time>
      </trkpt>
      <trkpt lat="48.1902" lon="14.76699">
        <ele>229.341131</ele>
        <time>2022-09-12T05:17:45.050Z</time>
      </trkpt>
      <trkpt lat="48.19031" lon="14.76647">
        <ele>229.16616</ele>
        <time>2022-09-12T05:17:54.070Z</time>
      </trkpt>
      <trkpt lat="48.19029" lon="14.76453">
        <ele>228.496013</ele>
        <time>2022-09-12T05:18:26.129Z</time>
      </trkpt>
      <trkpt lat="48.19035" lon="14.76336">
        <ele>228.008143</ele>
        <time>2022-09-12T05:18:44.261Z</time>
      </trkpt>
      <trkpt lat="48.19039" lon="14.76068">
        <ele>227.60601</ele>
        <time>2022-09-12T05:19:29.212Z</time>
      </trkpt>
      <trkpt lat="48.19042" lon="14.75997">
        <ele>227.619778</ele>
        <time>2022-09-12T05:19:42.946Z</time>
      </trkpt>
      <trkpt lat="48.19055" lon="14.75873">
        <ele>228.229536</ele>
        <time>2022-09-12T05:20:08.417Z</time>
      </trkpt>
      <trkpt lat="48.19063" lon="14.75844">
        <ele>228.440168</ele>
        <time>2022-09-12T05:20:15.291Z</time>
      </trkpt>
      <trkpt lat="48.19132" lon="14.7573">
        <ele>229.449937</ele>
        <time>2022-09-12T05:20:48.610Z</time>
      </trkpt>
      <trkpt lat="48.19163" lon="14.75662">
        <ele>229.835752</ele>
        <time>2022-09-12T05:21:06.055Z</time>
      </trkpt>
      <trkpt lat="48.192" lon="14.75506">
        <ele>230.615028</ele>
        <time>2022-09-12T05:21:38.455Z</time>
      </trkpt>
      <trkpt lat="48.19211" lon="14.75429">
        <ele>230.748092</ele>
        <time>2022-09-12T05:21:53.148Z</time>
      </trkpt>
      <trkpt lat="48.19204" lon="14.75377">
        <ele>230.79939</ele>
        <time>2022-09-12T05:22:02.875Z</time>
      </trkpt>
      <trkpt lat="48.19183" lon="14.75322">
        <ele>230.859927</ele>
        <time>2022-09-12T05:22:14.257Z</time>
      </trkpt>
      <trkpt lat="48.19174" lon="14.75255">
        <ele>230.925758</ele>
        <time>2022-09-12T05:22:26.587Z</time>
      </trkpt>
      <trkpt lat="48.19178" lon="14.752">
        <ele>230.940536</ele>
        <time>2022-09-12T05:22:36.160Z</time>
      </trkpt>
      <trkpt lat="48.19217" lon="14.7505">
        <ele>230.91305</ele>
        <time>2022-09-12T05:23:04.557Z</time>
      </trkpt>
      <trkpt lat="48.19235" lon="14.75025">
        <ele>230.906808</ele>
        <time>2022-09-12T05:23:11.039Z</time>
      </trkpt>
      <trkpt lat="48.19298" lon="14.74983">
        <ele>231.002212</ele>
        <time>2022-09-12T05:23:29.491Z</time>
      </trkpt>
      <trkpt lat="48.19331" lon="14.74944">
        <ele>231.099431</ele>
        <time>2022-09-12T05:23:40.877Z</time>
      </trkpt>
      <trkpt lat="48.19343" lon="14.74914">
        <ele>231.153369</ele>
        <time>2022-09-12T05:23:47.331Z</time>
      </trkpt>
      <trkpt lat="48.19369" lon="14.74798">
        <ele>231.391471</ele>
        <time>2022-09-12T05:24:10.408Z</time>
      </trkpt>
      <trkpt lat="48.19407" lon="14.7473">
        <ele>231.810423</ele>
        <time>2022-09-12T05:24:28.402Z</time>
      </trkpt>
      <trkpt lat="48.19388" lon="14.74715">
        <ele>231.961689</ele>
        <time>2022-09-12T05:24:34.971Z</time>
      </trkpt>
      <trkpt lat="48.19379" lon="14.74709">
        <ele>232.031446</ele>
        <time>2022-09-12T05:24:38.122Z</time>
      </trkpt>
      <trkpt lat="48.19372" lon="14.74705">
        <ele>232.08344</ele>
        <time>2022-09-12T05:24:40.461Z</time>
      </trkpt>
      <trkpt lat="48.19361" lon="14.74698">
        <ele>232.167006</ele>
        <time>2022-09-12T05:24:44.001Z</time>
      </trkpt>
      <trkpt lat="48.1935" lon="14.74695">
        <ele>232.248636</ele>
        <time>2022-09-12T05:24:47.579Z</time>
      </trkpt>
      <trkpt lat="48.1934" lon="14.74682">
        <ele>232.342238</ele>
        <time>2022-09-12T05:24:51.784Z</time>
      </trkpt>
      <trkpt lat="48.19336" lon="14.74644">
        <ele>232.520157</ele>
        <time>2022-09-12T05:24:59.307Z</time>
      </trkpt>
      <trkpt lat="48.19317" lon="14.7462">
        <ele>232.632419</ele>
        <time>2022-09-12T05:25:06.635Z</time>
      </trkpt>
      <trkpt lat="48.19293" lon="14.74609">
        <ele>232.700099</ele>
        <time>2022-09-12T05:25:13.975Z</time>
      </trkpt>
      <trkpt lat="48.19226" lon="14.74569">
        <ele>232.895325</ele>
        <time>2022-09-12T05:25:34.081Z</time>
      </trkpt>
      <trkpt lat="48.19243" lon="14.74448">
        <ele>233.064618</ele>
        <time>2022-09-12T05:25:56.541Z</time>
      </trkpt>
      <trkpt lat="48.19245" lon="14.74436">
        <ele>233.055624</ele>
        <time>2022-09-12T05:25:58.595Z</time>
      </trkpt>
      <trkpt lat="48.19283" lon="14.742">
        <ele>232.86658</ele>
        <time>2022-09-12T05:26:40.638Z</time>
      </trkpt>
      <trkpt lat="48.19302" lon="14.74024">
        <ele>232.521249</ele>
        <time>2022-09-12T05:27:11.355Z</time>
      </trkpt>
      <trkpt lat="48.19321" lon="14.73846">
        <ele>232.070294</ele>
        <time>2022-09-12T05:27:41.135Z</time>
      </trkpt>
      <trkpt lat="48.19347" lon="14.73665">
        <ele>231.540829</ele>
        <time>2022-09-12T05:28:11.332Z</time>
      </trkpt>
      <trkpt lat="48.19355" lon="14.73529">
        <ele>231.438062</ele>
        <time>2022-09-12T05:28:35.451Z</time>
      </trkpt>
      <trkpt lat="48.19359" lon="14.73367">
        <ele>231.320999</ele>
        <time>2022-09-12T05:29:04.075Z</time>
      </trkpt>
      <trkpt lat="48.19355" lon="14.7321">
        <ele>231.224433</ele>
        <time>2022-09-12T05:29:32.141Z</time>
      </trkpt>
      <trkpt lat="48.19344" lon="14.73098">
        <ele>231.11096</ele>
        <time>2022-09-12T05:29:51.133Z</time>
      </trkpt>
      <trkpt lat="48.1932" lon="14.72963">
        <ele>230.874579</ele>
        <time>2022-09-12T05:30:14.406Z</time>
      </trkpt>
      <trkpt lat="48.19287" lon="14.72812">
        <ele>230.832107</ele>
        <time>2022-09-12T05:30:42.481Z</time>
      </trkpt>
      <trkpt lat="48.19265" lon="14.7274">
        <ele>230.961934</ele>
        <time>2022-09-12T05:30:57.173Z</time>
      </trkpt>
      <trkpt lat="48.19263" lon="14.72731">
        <ele>230.977177</ele>
        <time>2022-09-12T05:30:58.913Z</time>
      </trkpt>
      <trkpt lat="48.1925" lon="14.72678">
        <ele>231.069125</ele>
        <time>2022-09-12T05:31:09.596Z</time>
      </trkpt>
      <trkpt lat="48.19138" lon="14.72443">
        <ele>232.02443</ele>
        <time>2022-09-12T05:32:06.517Z</time>
      </trkpt>
      <trkpt lat="48.19063" lon="14.72225">
        <ele>232.65637</ele>
        <time>2022-09-12T05:32:53.437Z</time>
      </trkpt>
      <trkpt lat="48.19048" lon="14.72178">
        <ele>232.778653</ele>
        <time>2022-09-12T05:33:03.083Z</time>
      </trkpt>
      <trkpt lat="48.1901" lon="14.7203">
        <ele>232.627819</ele>
        <time>2022-09-12T05:33:31.296Z</time>
      </trkpt>
      <trkpt lat="48.18981" lon="14.71959">
        <ele>232.531024</ele>
        <time>2022-09-12T05:33:45.075Z</time>
      </trkpt>
      <trkpt lat="48.18922" lon="14.7183">
        <ele>232.162488</ele>
        <time>2022-09-12T05:34:11.206Z</time>
      </trkpt>
      <trkpt lat="48.18908" lon="14.71801">
        <ele>232.066661</ele>
        <time>2022-09-12T05:34:17.066Z</time>
      </trkpt>
      <trkpt lat="48.18902" lon="14.7179">
        <ele>232.028547</ele>
        <time>2022-09-12T05:34:19.395Z</time>
      </trkpt>
      <trkpt lat="48.189" lon="14.71785">
        <ele>232.01277</ele>
        <time>2022-09-12T05:34:20.399Z</time>
      </trkpt>
      <trkpt lat="48.18893" lon="14.7177">
        <ele>231.962501</ele>
        <time>2022-09-12T05:34:23.448Z</time>
      </trkpt>
      <trkpt lat="48.18886" lon="14.71754">
        <ele>231.909988</ele>
        <time>2022-09-12T05:34:26.618Z</time>
      </trkpt>
      <trkpt lat="48.18884" lon="14.71749">
        <ele>231.893756</ele>
        <time>2022-09-12T05:34:27.594Z</time>
      </trkpt>
      <trkpt lat="48.18805" lon="14.71583">
        <ele>231.575893</ele>
        <time>2022-09-12T05:35:02.501Z</time>
      </trkpt>
      <trkpt lat="48.18752" lon="14.71498">
        <ele>231.438601</ele>
        <time>2022-09-12T05:35:22.885Z</time>
      </trkpt>
      <trkpt lat="48.187" lon="14.71433">
        <ele>231.328329</ele>
        <time>2022-09-12T05:35:40.266Z</time>
      </trkpt>
      <trkpt lat="48.18675" lon="14.71408">
        <ele>231.278145</ele>
        <time>2022-09-12T05:35:48.119Z</time>
      </trkpt>
      <trkpt lat="48.18614" lon="14.71367">
        <ele>231.169934</ele>
        <time>2022-09-12T05:36:05.424Z</time>
      </trkpt>
      <trkpt lat="48.18505" lon="14.71299">
        <ele>230.891374</ele>
        <time>2022-09-12T05:36:35.745Z</time>
      </trkpt>
      <trkpt lat="48.18486" lon="14.71272">
        <ele>230.828009</ele>
        <time>2022-09-12T05:36:42.339Z</time>
      </trkpt>
      <trkpt lat="48.18463" lon="14.71288">
        <ele>230.764735</ele>
        <time>2022-09-12T05:36:48.886Z</time>
      </trkpt>
      <trkpt lat="48.18446" lon="14.71293">
        <ele>230.721752</ele>
        <time>2022-09-12T05:36:53.357Z</time>
      </trkpt>
      <trkpt lat="48.18388" lon="14.71316">
        <ele>230.662394</ele>
        <time>2022-09-12T05:37:08.613Z</time>
      </trkpt>
      <trkpt lat="48.18339" lon="14.71323">
        <ele>230.624556</ele>
        <time>2022-09-12T05:37:21.346Z</time>
      </trkpt>
      <trkpt lat="48.18282" lon="14.71311">
        <ele>230.58129</ele>
        <time>2022-09-12T05:37:36.351Z</time>
      </trkpt>
      <trkpt lat="48.1821" lon="14.71278">
        <ele>230.989996</ele>
        <time>2022-09-12T05:37:58.305Z</time>
      </trkpt>
      <trkpt lat="48.18207" lon="14.71277">
        <ele>231.013882</ele>
        <time>2022-09-12T05:37:59.217Z</time>
      </trkpt>
      <trkpt lat="48.18181" lon="14.71263">
        <ele>231.229209</ele>
        <time>2022-09-12T05:38:07.725Z</time>
      </trkpt>
      <trkpt lat="48.18163" lon="14.71252">
        <ele>231.382861</ele>
        <time>2022-09-12T05:38:13.852Z</time>
      </trkpt>
      <trkpt lat="48.1806" lon="14.71178">
        <ele>232.185022</ele>
        <time>2022-09-12T05:38:50.015Z</time>
      </trkpt>
      <trkpt lat="48.18004" lon="14.71133">
        <ele>232.527925</ele>
        <time>2022-09-12T05:39:09.133Z</time>
      </trkpt>
      <trkpt lat="48.17969" lon="14.71075">
        <ele>232.809793</ele>
        <time>2022-09-12T05:39:23.678Z</time>
      </trkpt>
      <trkpt lat="48.17883" lon="14.70879">
        <ele>233.225346</ele>
        <time>2022-09-12T05:40:05.267Z</time>
      </trkpt>
      <trkpt lat="48.17681" lon="14.70565">
        <ele>235.170462</ele>
        <time>2022-09-12T05:41:33.670Z</time>
      </trkpt>
      <trkpt lat="48.17658" lon="14.70521">
        <ele>235.441723</ele>
        <time>2022-09-12T05:41:45.489Z</time>
      </trkpt>
      <trkpt lat="48.17629" lon="14.70442">
        <ele>235.883763</ele>
        <time>2022-09-12T05:42:03.357Z</time>
      </trkpt>
      <trkpt lat="48.17615" lon="14.70404">
        <ele>236.070344</ele>
        <time>2022-09-12T05:42:11.748Z</time>
      </trkpt>
      <trkpt lat="48.17611" lon="14.70395">
        <ele>236.099084</ele>
        <time>2022-09-12T05:42:13.891Z</time>
      </trkpt>
      <trkpt lat="48.17584" lon="14.70341">
        <ele>236.274182</ele>
        <time>2022-09-12T05:42:26.700Z</time>
      </trkpt>
      <trkpt lat="48.17559" lon="14.70309">
        <ele>236.402695</ele>
        <time>2022-09-12T05:42:36.205Z</time>
      </trkpt>
      <trkpt lat="48.17529" lon="14.7029">
        <ele>236.531723</ele>
        <time>2022-09-12T05:42:46.130Z</time>
      </trkpt>
      <trkpt lat="48.17522" lon="14.70288">
        <ele>236.560213</ele>
        <time>2022-09-12T05:42:48.411Z</time>
      </trkpt>
      <trkpt lat="48.17422" lon="14.70299">
        <ele>236.593957</ele>
        <time>2022-09-12T05:43:15.008Z</time>
      </trkpt>
      <trkpt lat="48.17365" lon="14.7029">
        <ele>236.436585</ele>
        <time>2022-09-12T05:43:29.448Z</time>
      </trkpt>
      <trkpt lat="48.17333" lon="14.70264">
        <ele>236.333848</ele>
        <time>2022-09-12T05:43:38.634Z</time>
      </trkpt>
      <trkpt lat="48.17308" lon="14.70223">
        <ele>236.229031</ele>
        <time>2022-09-12T05:43:47.782Z</time>
      </trkpt>
      <trkpt lat="48.17296" lon="14.70186">
        <ele>236.137081</ele>
        <time>2022-09-12T05:43:54.668Z</time>
      </trkpt>
      <trkpt lat="48.17288" lon="14.70081">
        <ele>235.904013</ele>
        <time>2022-09-12T05:44:11.548Z</time>
      </trkpt>
      <trkpt lat="48.17279" lon="14.69818">
        <ele>235.818148</ele>
        <time>2022-09-12T05:44:58.784Z</time>
      </trkpt>
      <trkpt lat="48.17271" lon="14.69765">
        <ele>235.881283</ele>
        <time>2022-09-12T05:45:09.183Z</time>
      </trkpt>
      <trkpt lat="48.17264" lon="14.69741">
        <ele>235.91257</ele>
        <time>2022-09-12T05:45:14.243Z</time>
      </trkpt>
      <trkpt lat="48.17242" lon="14.69695">
        <ele>235.982715</ele>
        <time>2022-09-12T05:45:24.647Z</time>
      </trkpt>
      <trkpt lat="48.17164" lon="14.69595">
        <ele>236.215175</ele>
        <time>2022-09-12T05:45:52.945Z</time>
      </trkpt>
      <trkpt lat="48.17152" lon="14.69579">
        <ele>236.253054</ele>
        <time>2022-09-12T05:45:57.636Z</time>
      </trkpt>
      <trkpt lat="48.17138" lon="14.69558">
        <ele>236.297518</ele>
        <time>2022-09-12T05:46:02.901Z</time>
      </trkpt>
      <trkpt lat="48.17135" lon="14.69555">
        <ele>236.305816</ele>
        <time>2022-09-12T05:46:03.893Z</time>
      </trkpt>
      <trkpt lat="48.17139" lon="14.6954">
        <ele>236.329751</ele>
        <time>2022-09-12T05:46:07.008Z</time>
      </trkpt>
      <trkpt lat="48.17095" lon="14.69369">
        <ele>236.188967</ele>
        <time>2022-09-12T05:46:40.580Z</time>
      </trkpt>
      <trkpt lat="48.17046" lon="14.69284">
        <ele>236.06065</ele>
        <time>2022-09-12T05:46:58.945Z</time>
      </trkpt>
      <trkpt lat="48.16984" lon="14.69188">
        <ele>235.252487</ele>
        <time>2022-09-12T05:47:19.813Z</time>
      </trkpt>
      <trkpt lat="48.16965" lon="14.69142">
        <ele>234.928265</ele>
        <time>2022-09-12T05:47:28.126Z</time>
      </trkpt>
      <trkpt lat="48.1694" lon="14.69067">
        <ele>234.429408</ele>
        <time>2022-09-12T05:47:40.804Z</time>
      </trkpt>
      <trkpt lat="48.16902" lon="14.68915">
        <ele>234.010861</ele>
        <time>2022-09-12T05:48:07.174Z</time>
      </trkpt>
      <trkpt lat="48.16852" lon="14.6877">
        <ele>233.819853</ele>
        <time>2022-09-12T05:48:36.840Z</time>
      </trkpt>
      <trkpt lat="48.16813" lon="14.68575">
        <ele>234.100855</ele>
        <time>2022-09-12T05:49:14.855Z</time>
      </trkpt>
      <trkpt lat="48.16814" lon="14.68528">
        <ele>234.145433</ele>
        <time>2022-09-12T05:49:23.574Z</time>
      </trkpt>
      <trkpt lat="48.1676" lon="14.68234">
        <ele>234.360939</ele>
        <time>2022-09-12T05:50:18.961Z</time>
      </trkpt>
      <trkpt lat="48.16724" lon="14.67945">
        <ele>234.349018</ele>
        <time>2022-09-12T05:51:11.251Z</time>
      </trkpt>
      <trkpt lat="48.16706" lon="14.677">
        <ele>234.229384</ele>
        <time>2022-09-12T05:51:54.128Z</time>
      </trkpt>
      <trkpt lat="48.16701" lon="14.67384">
        <ele>234.151785</ele>
        <time>2022-09-12T05:52:49.964Z</time>
      </trkpt>
      <trkpt lat="48.16712" lon="14.67162">
        <ele>234.194329</ele>
        <time>2022-09-12T05:53:30.092Z</time>
      </trkpt>
      <trkpt lat="48.16725" lon="14.66995">
        <ele>234.255073</ele>
        <time>2022-09-12T05:54:00.313Z</time>
      </trkpt>
      <trkpt lat="48.16752" lon="14.66781">
        <ele>234.292612</ele>
        <time>2022-09-12T05:54:38.653Z</time>
      </trkpt>
      <trkpt lat="48.16778" lon="14.66617">
        <ele>234.41452</ele>
        <time>2022-09-12T05:55:09.431Z</time>
      </trkpt>
      <trkpt lat="48.16805" lon="14.66482">
        <ele>234.58754</ele>
        <time>2022-09-12T05:55:35.542Z</time>
      </trkpt>
      <trkpt lat="48.16846" lon="14.66306">
        <ele>234.682052</ele>
        <time>2022-09-12T05:56:09.908Z</time>
      </trkpt>
      <trkpt lat="48.16887" lon="14.66156">
        <ele>234.696404</ele>
        <time>2022-09-12T05:56:38.113Z</time>
      </trkpt>
      <trkpt lat="48.16954" lon="14.65949">
        <ele>234.560926</ele>
        <time>2022-09-12T05:57:18.392Z</time>
      </trkpt>
      <trkpt lat="48.17058" lon="14.65667">
        <ele>234.73169</ele>
        <time>2022-09-12T05:58:16.979Z</time>
      </trkpt>
      <trkpt lat="48.17152" lon="14.65432">
        <ele>234.692972</ele>
        <time>2022-09-12T05:59:05.078Z</time>
      </trkpt>
      <trkpt lat="48.173" lon="14.65095">
        <ele>234.62828</ele>
        <time>2022-09-12T06:00:16.102Z</time>
      </trkpt>
      <trkpt lat="48.1742" lon="14.6485">
        <ele>235.029264</ele>
        <time>2022-09-12T06:01:12.863Z</time>
      </trkpt>
      <trkpt lat="48.17591" lon="14.64529">
        <ele>235.84066</ele>
        <time>2022-09-12T06:02:29.895Z</time>
      </trkpt>
      <trkpt lat="48.17731" lon="14.6429">
        <ele>236.386433</ele>
        <time>2022-09-12T06:03:28.640Z</time>
      </trkpt>
      <trkpt lat="48.17815" lon="14.64159">
        <ele>236.655636</ele>
        <time>2022-09-12T06:04:03.141Z</time>
      </trkpt>
      <trkpt lat="48.17906" lon="14.64029">
        <ele>236.776587</ele>
        <time>2022-09-12T06:04:37.123Z</time>
      </trkpt>
      <trkpt lat="48.18009" lon="14.63908">
        <ele>236.506921</ele>
        <time>2022-09-12T06:05:10.470Z</time>
      </trkpt>
      <trkpt lat="48.18231" lon="14.63621">
        <ele>236.147489</ele>
        <time>2022-09-12T06:06:25.764Z</time>
      </trkpt>
      <trkpt lat="48.18317" lon="14.63519">
        <ele>236.58938</ele>
        <time>2022-09-12T06:06:57.870Z</time>
      </trkpt>
      <trkpt lat="48.18441" lon="14.63391">
        <ele>237.580892</ele>
        <time>2022-09-12T06:07:45.119Z</time>
      </trkpt>
      <trkpt lat="48.18445" lon="14.63387">
        <ele>237.614835</ele>
        <time>2022-09-12T06:07:46.630Z</time>
      </trkpt>
      <trkpt lat="48.1846" lon="14.63371">
        <ele>237.748782</ele>
        <time>2022-09-12T06:07:52.409Z</time>
      </trkpt>
      <trkpt lat="48.18561" lon="14.63262">
        <ele>237.428808</ele>
        <time>2022-09-12T06:08:24.434Z</time>
      </trkpt>
      <trkpt lat="48.18689" lon="14.6311">
        <ele>236.398857</ele>
        <time>2022-09-12T06:09:01.872Z</time>
      </trkpt>
      <trkpt lat="48.18803" lon="14.62961">
        <ele>235.720062</ele>
        <time>2022-09-12T06:09:39.554Z</time>
      </trkpt>
      <trkpt lat="48.18967" lon="14.62718">
        <ele>236.286919</ele>
        <time>2022-09-12T06:10:45.059Z</time>
      </trkpt>
      <trkpt lat="48.19065" lon="14.62556">
        <ele>236.84923</ele>
        <time>2022-09-12T06:11:27.409Z</time>
      </trkpt>
      <trkpt lat="48.19294" lon="14.6215">
        <ele>237.590027</ele>
        <time>2022-09-12T06:13:05.596Z</time>
      </trkpt>
      <trkpt lat="48.19387" lon="14.61952">
        <ele>237.587809</ele>
        <time>2022-09-12T06:13:48.200Z</time>
      </trkpt>
      <trkpt lat="48.19556" lon="14.61546">
        <ele>237.354866</ele>
        <time>2022-09-12T06:15:12.099Z</time>
      </trkpt>
      <trkpt lat="48.19647" lon="14.6137">
        <ele>237.530191</ele>
        <time>2022-09-12T06:15:52.320Z</time>
      </trkpt>
      <trkpt lat="48.19718" lon="14.61263">
        <ele>237.74168</ele>
        <time>2022-09-12T06:16:20.571Z</time>
      </trkpt>
      <trkpt lat="48.19813" lon="14.6115">
        <ele>238.015311</ele>
        <time>2022-09-12T06:16:54.494Z</time>
      </trkpt>
      <trkpt lat="48.19855" lon="14.61114">
        <ele>238.056045</ele>
        <time>2022-09-12T06:17:07.662Z</time>
      </trkpt>
      <trkpt lat="48.19925" lon="14.61067">
        <ele>238.121184</ele>
        <time>2022-09-12T06:17:28.503Z</time>
      </trkpt>
      <trkpt lat="48.19952" lon="14.61049">
        <ele>238.14603</ele>
        <time>2022-09-12T06:17:36.383Z</time>
      </trkpt>
      <trkpt lat="48.20016" lon="14.60993">
        <ele>238.208527</ele>
        <time>2022-09-12T06:17:55.756Z</time>
      </trkpt>
      <trkpt lat="48.20071" lon="14.6093">
        <ele>238.267742</ele>
        <time>2022-09-12T06:18:14.227Z</time>
      </trkpt>
      <trkpt lat="48.20325" lon="14.60616">
        <ele>239.543307</ele>
        <time>2022-09-12T06:19:48.037Z</time>
      </trkpt>
      <trkpt lat="48.20369" lon="14.60618">
        <ele>239.780996</ele>
        <time>2022-09-12T06:20:01.694Z</time>
      </trkpt>
      <trkpt lat="48.20383" lon="14.60612">
        <ele>239.862855</ele>
        <time>2022-09-12T06:20:06.371Z</time>
      </trkpt>
      <trkpt lat="48.20489" lon="14.60495">
        <ele>239.952744</ele>
        <time>2022-09-12T06:20:44.636Z</time>
      </trkpt>
      <trkpt lat="48.20637" lon="14.60368">
        <ele>239.058765</ele>
        <time>2022-09-12T06:21:24.656Z</time>
      </trkpt>
      <trkpt lat="48.20645" lon="14.60356">
        <ele>238.970674</ele>
        <time>2022-09-12T06:21:26.956Z</time>
      </trkpt>
      <trkpt lat="48.20638" lon="14.60317">
        <ele>238.736052</ele>
        <time>2022-09-12T06:21:33.231Z</time>
      </trkpt>
      <trkpt lat="48.20918" lon="14.60092">
        <ele>237.094228</ele>
        <time>2022-09-12T06:22:50.558Z</time>
      </trkpt>
      <trkpt lat="48.21015" lon="14.6001">
        <ele>237.02473</ele>
        <time>2022-09-12T06:23:21.331Z</time>
      </trkpt>
      <trkpt lat="48.21122" lon="14.59898">
        <ele>237.429713</ele>
        <time>2022-09-12T06:23:59.022Z</time>
      </trkpt>
      <trkpt lat="48.21261" lon="14.59792">
        <ele>237.554667</ele>
        <time>2022-09-12T06:24:41.337Z</time>
      </trkpt>
      <trkpt lat="48.21362" lon="14.59676">
        <ele>237.504803</ele>
        <time>2022-09-12T06:25:14.209Z</time>
      </trkpt>
      <trkpt lat="48.21396" lon="14.59645">
        <ele>237.471112</ele>
        <time>2022-09-12T06:25:24.446Z</time>
      </trkpt>
      <trkpt lat="48.21846" lon="14.59304">
        <ele>237.744006</ele>
        <time>2022-09-12T06:27:40.223Z</time>
      </trkpt>
      <trkpt lat="48.21909" lon="14.59263">
        <ele>237.883789</ele>
        <time>2022-09-12T06:27:59.589Z</time>
      </trkpt>
      <trkpt lat="48.21939" lon="14.5924">
        <ele>237.938831</ele>
        <time>2022-09-12T06:28:09.151Z</time>
      </trkpt>
      <trkpt lat="48.21988" lon="14.59203">
        <ele>237.975371</ele>
        <time>2022-09-12T06:28:24.508Z</time>
      </trkpt>
      <trkpt lat="48.22042" lon="14.59157">
        <ele>238.017142</ele>
        <time>2022-09-12T06:28:41.657Z</time>
      </trkpt>
      <trkpt lat="48.22144" lon="14.59052">
        <ele>237.717544</ele>
        <time>2022-09-12T06:29:13.118Z</time>
      </trkpt>
      <trkpt lat="48.22214" lon="14.5896">
        <ele>237.276614</ele>
        <time>2022-09-12T06:29:35.576Z</time>
      </trkpt>
      <trkpt lat="48.22268" lon="14.58871">
        <ele>237.050031</ele>
        <time>2022-09-12T06:29:55.246Z</time>
      </trkpt>
      <trkpt lat="48.2237" lon="14.58675">
        <ele>236.808697</ele>
        <time>2022-09-12T06:30:38.940Z</time>
      </trkpt>
      <trkpt lat="48.22492" lon="14.58456">
        <ele>236.954488</ele>
        <time>2022-09-12T06:31:30.830Z</time>
      </trkpt>
      <trkpt lat="48.22631" lon="14.58228">
        <ele>237.175529</ele>
        <time>2022-09-12T06:32:26.395Z</time>
      </trkpt>
      <trkpt lat="48.22706" lon="14.58128">
        <ele>237.323108</ele>
        <time>2022-09-12T06:32:54.235Z</time>
      </trkpt>
      <trkpt lat="48.22814" lon="14.57997">
        <ele>237.714625</ele>
        <time>2022-09-12T06:33:33.386Z</time>
      </trkpt>
      <trkpt lat="48.22811" lon="14.57977">
        <ele>237.753191</ele>
        <time>2022-09-12T06:33:37.232Z</time>
      </trkpt>
      <trkpt lat="48.22775" lon="14.57906">
        <ele>237.933858</ele>
        <time>2022-09-12T06:33:53.637Z</time>
      </trkpt>
      <trkpt lat="48.2274" lon="14.57841">
        <ele>238.109602</ele>
        <time>2022-09-12T06:34:09.516Z</time>
      </trkpt>
      <trkpt lat="48.22735" lon="14.57821">
        <ele>238.153512</ele>
        <time>2022-09-12T06:34:13.394Z</time>
      </trkpt>
      <trkpt lat="48.22776" lon="14.57701">
        <ele>238.393565</ele>
        <time>2022-09-12T06:34:39.889Z</time>
      </trkpt>
      <trkpt lat="48.22844" lon="14.57499">
        <ele>238.538215</ele>
        <time>2022-09-12T06:35:22.838Z</time>
      </trkpt>
      <trkpt lat="48.22933" lon="14.57204">
        <ele>237.827116</ele>
        <time>2022-09-12T06:36:16.322Z</time>
      </trkpt>
      <trkpt lat="48.23043" lon="14.56774">
        <ele>237.733509</ele>
        <time>2022-09-12T06:37:37.298Z</time>
      </trkpt>
      <trkpt lat="48.23067" lon="14.56679">
        <ele>238.118204</ele>
        <time>2022-09-12T06:37:57.497Z</time>
      </trkpt>
      <trkpt lat="48.23104" lon="14.56605">
        <ele>238.658247</ele>
        <time>2022-09-12T06:38:16.756Z</time>
      </trkpt>
      <trkpt lat="48.23128" lon="14.56575">
        <ele>238.937208</ele>
        <time>2022-09-12T06:38:26.947Z</time>
      </trkpt>
      <trkpt lat="48.23167" lon="14.5654">
        <ele>239.339951</ele>
        <time>2022-09-12T06:38:41.748Z</time>
      </trkpt>
      <trkpt lat="48.23242" lon="14.56497">
        <ele>239.680568</ele>
        <time>2022-09-12T06:39:06.149Z</time>
      </trkpt>
      <trkpt lat="48.23308" lon="14.56482">
        <ele>239.961299</ele>
        <time>2022-09-12T06:39:24.885Z</time>
      </trkpt>
      <trkpt lat="48.23379" lon="14.56486">
        <ele>239.8906</ele>
        <time>2022-09-12T06:39:43.302Z</time>
      </trkpt>
      <trkpt lat="48.2344" lon="14.56501">
        <ele>239.544818</ele>
        <time>2022-09-12T06:39:58.554Z</time>
      </trkpt>
      <trkpt lat="48.23488" lon="14.56521">
        <ele>239.270471</ele>
        <time>2022-09-12T06:40:10.084Z</time>
      </trkpt>
      <trkpt lat="48.23531" lon="14.56543">
        <ele>239.00808</ele>
        <time>2022-09-12T06:40:20.839Z</time>
      </trkpt>
      <trkpt lat="48.23592" lon="14.56584">
        <ele>238.612888</ele>
        <time>2022-09-12T06:40:36.447Z</time>
      </trkpt>
      <trkpt lat="48.23641" lon="14.56622">
        <ele>238.288641</ele>
        <time>2022-09-12T06:40:49.761Z</time>
      </trkpt>
      <trkpt lat="48.23699" lon="14.56684">
        <ele>238.082367</ele>
        <time>2022-09-12T06:41:08.544Z</time>
      </trkpt>
      <trkpt lat="48.23701" lon="14.56679">
        <ele>238.089595</ele>
        <time>2022-09-12T06:41:09.649Z</time>
      </trkpt>
      <trkpt lat="48.23733" lon="14.56617">
        <ele>238.18143</ele>
        <time>2022-09-12T06:41:23.980Z</time>
      </trkpt>
      <trkpt lat="48.23736" lon="14.56612">
        <ele>238.189956</ele>
        <time>2022-09-12T06:41:25.289Z</time>
      </trkpt>
      <trkpt lat="48.23753" lon="14.56596">
        <ele>238.226637</ele>
        <time>2022-09-12T06:41:31.161Z</time>
      </trkpt>
      <trkpt lat="48.23795" lon="14.56524">
        <ele>238.340355</ele>
        <time>2022-09-12T06:41:49.135Z</time>
      </trkpt>
      <trkpt lat="48.23855" lon="14.56418">
        <ele>238.482281</ele>
        <time>2022-09-12T06:42:15.983Z</time>
      </trkpt>
      <trkpt lat="48.23859" lon="14.56378">
        <ele>238.523591</ele>
        <time>2022-09-12T06:42:23.325Z</time>
      </trkpt>
      <trkpt lat="48.23875" lon="14.56253">
        <ele>238.573375</ele>
        <time>2022-09-12T06:42:44.929Z</time>
      </trkpt>
      <trkpt lat="48.23876" lon="14.56137">
        <ele>238.315675</ele>
        <time>2022-09-12T06:43:04.957Z</time>
      </trkpt>
      <trkpt lat="48.23843" lon="14.55862">
        <ele>237.618602</ele>
        <time>2022-09-12T06:43:51.407Z</time>
      </trkpt>
      <trkpt lat="48.23827" lon="14.55799">
        <ele>237.436558</ele>
        <time>2022-09-12T06:44:02.381Z</time>
      </trkpt>
      <trkpt lat="48.23791" lon="14.55701">
        <ele>237.386367</ele>
        <time>2022-09-12T06:44:21.019Z</time>
      </trkpt>
      <trkpt lat="48.23743" lon="14.55644">
        <ele>237.531011</ele>
        <time>2022-09-12T06:44:37.387Z</time>
      </trkpt>
      <trkpt lat="48.23732" lon="14.55624">
        <ele>237.573072</ele>
        <time>2022-09-12T06:44:42.720Z</time>
      </trkpt>
      <trkpt lat="48.23714" lon="14.55545">
        <ele>237.706371</ele>
        <time>2022-09-12T06:44:59.528Z</time>
      </trkpt>
      <trkpt lat="48.2371" lon="14.55506">
        <ele>237.876066</ele>
        <time>2022-09-12T06:45:07.660Z</time>
      </trkpt>
      <trkpt lat="48.23703" lon="14.5542">
        <ele>238.32108</ele>
        <time>2022-09-12T06:45:24.995Z</time>
      </trkpt>
      <trkpt lat="48.237" lon="14.5536">
        <ele>238.633694</ele>
        <time>2022-09-12T06:45:37.330Z</time>
      </trkpt>
      <trkpt lat="48.237" lon="14.55307">
        <ele>238.905299</ele>
        <time>2022-09-12T06:45:48.499Z</time>
      </trkpt>
      <trkpt lat="48.237" lon="14.55293">
        <ele>238.978617</ele>
        <time>2022-09-12T06:45:51.511Z</time>
      </trkpt>
      <trkpt lat="48.237" lon="14.55269">
        <ele>239.102021</ele>
        <time>2022-09-12T06:45:56.564Z</time>
      </trkpt>
      <trkpt lat="48.237" lon="14.55248">
        <ele>239.071617</ele>
        <time>2022-09-12T06:46:00.819Z</time>
      </trkpt>
      <trkpt lat="48.237" lon="14.55243">
        <ele>239.059829</ele>
        <time>2022-09-12T06:46:01.779Z</time>
      </trkpt>
      <trkpt lat="48.237" lon="14.55223">
        <ele>239.012223</ele>
        <time>2022-09-12T06:46:05.615Z</time>
      </trkpt>
      <trkpt lat="48.237" lon="14.55197">
        <ele>238.950479</ele>
        <time>2022-09-12T06:46:10.397Z</time>
      </trkpt>
      <trkpt lat="48.23701" lon="14.55163">
        <ele>238.8712</ele>
        <time>2022-09-12T06:46:16.130Z</time>
      </trkpt>
      <trkpt lat="48.23706" lon="14.55093">
        <ele>238.705561</ele>
        <time>2022-09-12T06:46:27.433Z</time>
      </trkpt>
      <trkpt lat="48.23708" lon="14.55066">
        <ele>238.641071</ele>
        <time>2022-09-12T06:46:31.694Z</time>
      </trkpt>
      <trkpt lat="48.23709" lon="14.55051">
        <ele>238.605779</ele>
        <time>2022-09-12T06:46:34.027Z</time>
      </trkpt>
      <trkpt lat="48.23711" lon="14.55015">
        <ele>238.520715</ele>
        <time>2022-09-12T06:46:39.525Z</time>
      </trkpt>
      <trkpt lat="48.23712" lon="14.55001">
        <ele>238.487533</ele>
        <time>2022-09-12T06:46:41.689Z</time>
      </trkpt>
      <trkpt lat="48.23714" lon="14.54973">
        <ele>238.377793</ele>
        <time>2022-09-12T06:46:46.012Z</time>
      </trkpt>
      <trkpt lat="48.23716" lon="14.54946">
        <ele>238.26334</ele>
        <time>2022-09-12T06:46:50.291Z</time>
      </trkpt>
      <trkpt lat="48.23718" lon="14.54921">
        <ele>238.160912</ele>
        <time>2022-09-12T06:46:54.138Z</time>
      </trkpt>
      <trkpt lat="48.23719" lon="14.54902">
        <ele>238.083419</ele>
        <time>2022-09-12T06:46:57.066Z</time>
      </trkpt>
      <trkpt lat="48.23719" lon="14.54846">
        <ele>237.853209</ele>
        <time>2022-09-12T06:47:05.908Z</time>
      </trkpt>
      <trkpt lat="48.23718" lon="14.5484">
        <ele>237.826049</ele>
        <time>2022-09-12T06:47:06.918Z</time>
      </trkpt>
      <trkpt lat="48.23712" lon="14.54785">
        <ele>237.598895</ele>
        <time>2022-09-12T06:47:15.771Z</time>
      </trkpt>
      <trkpt lat="48.23704" lon="14.54721">
        <ele>237.398459</ele>
        <time>2022-09-12T06:47:27.110Z</time>
      </trkpt>
      <trkpt lat="48.23685" lon="14.54682">
        <ele>237.568658</ele>
        <time>2022-09-12T06:47:36.025Z</time>
      </trkpt>
      <trkpt lat="48.23683" lon="14.54645">
        <ele>237.699576</ele>
        <time>2022-09-12T06:47:43.186Z</time>
      </trkpt>
      <trkpt lat="48.23708" lon="14.54486">
        <ele>238.280757</ele>
        <time>2022-09-12T06:48:16.475Z</time>
      </trkpt>
      <trkpt lat="48.23709" lon="14.54474">
        <ele>238.323519</ele>
        <time>2022-09-12T06:48:18.966Z</time>
      </trkpt>
      <trkpt lat="48.23712" lon="14.54456">
        <ele>238.357148</ele>
        <time>2022-09-12T06:48:22.865Z</time>
      </trkpt>
      <trkpt lat="48.23716" lon="14.54413">
        <ele>238.431516</ele>
        <time>2022-09-12T06:48:31.428Z</time>
      </trkpt>
      <trkpt lat="48.23716" lon="14.54398">
        <ele>238.455756</ele>
        <time>2022-09-12T06:48:34.148Z</time>
      </trkpt>
      <trkpt lat="48.23711" lon="14.54326">
        <ele>238.580374</ele>
        <time>2022-09-12T06:48:47.468Z</time>
      </trkpt>
      <trkpt lat="48.23724" lon="14.54236">
        <ele>238.737268</ele>
        <time>2022-09-12T06:49:04.137Z</time>
      </trkpt>
      <trkpt lat="48.23735" lon="14.54171">
        <ele>238.765638</ele>
        <time>2022-09-12T06:49:16.047Z</time>
      </trkpt>
      <trkpt lat="48.23743" lon="14.54144">
        <ele>238.748709</ele>
        <time>2022-09-12T06:49:21.049Z</time>
      </trkpt>
      <trkpt lat="48.23779" lon="14.54013">
        <ele>238.667007</ele>
        <time>2022-09-12T06:49:45.656Z</time>
      </trkpt>
      <trkpt lat="48.238" lon="14.53937">
        <ele>238.63988</ele>
        <time>2022-09-12T06:50:00.124Z</time>
      </trkpt>
      <trkpt lat="48.23831" lon="14.53809">
        <ele>238.690975</ele>
        <time>2022-09-12T06:50:24.925Z</time>
      </trkpt>
      <trkpt lat="48.23837" lon="14.53787">
        <ele>238.699765</ele>
        <time>2022-09-12T06:50:29.085Z</time>
      </trkpt>
      <trkpt lat="48.23845" lon="14.53779">
        <ele>238.705249</ele>
        <time>2022-09-12T06:50:31.661Z</time>
      </trkpt>
      <trkpt lat="48.23853" lon="14.53692">
        <ele>238.744657</ele>
        <time>2022-09-12T06:50:47.354Z</time>
      </trkpt>
      <trkpt lat="48.23891" lon="14.53456">
        <ele>238.954562</ele>
        <time>2022-09-12T06:51:31.803Z</time>
      </trkpt>
      <trkpt lat="48.23903" lon="14.53353">
        <ele>238.980319</ele>
        <time>2022-09-12T06:51:50.579Z</time>
      </trkpt>
      <trkpt lat="48.23912" lon="14.53139">
        <ele>239.027684</ele>
        <time>2022-09-12T06:52:28.653Z</time>
      </trkpt>
      <trkpt lat="48.23915" lon="14.52906">
        <ele>239.159576</ele>
        <time>2022-09-12T06:53:10.551Z</time>
      </trkpt>
      <trkpt lat="48.23916" lon="14.52766">
        <ele>239.44462</ele>
        <time>2022-09-12T06:53:36.607Z</time>
      </trkpt>
      <trkpt lat="48.23915" lon="14.5256">
        <ele>239.881364</ele>
        <time>2022-09-12T06:54:15.898Z</time>
      </trkpt>
      <trkpt lat="48.23918" lon="14.52083">
        <ele>240.892696</ele>
        <time>2022-09-12T06:55:45.020Z</time>
      </trkpt>
      <trkpt lat="48.23925" lon="14.51981">
        <ele>241.083944</ele>
        <time>2022-09-12T06:56:04.606Z</time>
      </trkpt>
      <trkpt lat="48.23942" lon="14.51876">
        <ele>241.284018</ele>
        <time>2022-09-12T06:56:24.678Z</time>
      </trkpt>
      <trkpt lat="48.23948" lon="14.51878">
        <ele>241.301207</ele>
        <time>2022-09-12T06:56:26.449Z</time>
      </trkpt>
      <trkpt lat="48.23955" lon="14.51881">
        <ele>241.322714</ele>
        <time>2022-09-12T06:56:28.453Z</time>
      </trkpt>
      <trkpt lat="48.23961" lon="14.51863">
        <ele>241.359442</ele>
        <time>2022-09-12T06:56:32.013Z</time>
      </trkpt>
      <trkpt lat="48.23975" lon="14.51859">
        <ele>241.392141</ele>
        <time>2022-09-12T06:56:36.388Z</time>
      </trkpt>
      <trkpt lat="48.23975" lon="14.51813">
        <ele>241.451226</ele>
        <time>2022-09-12T06:56:45.073Z</time>
      </trkpt>
      <trkpt lat="48.24012" lon="14.51677">
        <ele>241.641558</ele>
        <time>2022-09-12T06:57:11.850Z</time>
      </trkpt>
      <trkpt lat="48.24029" lon="14.51613">
        <ele>241.723079</ele>
        <time>2022-09-12T06:57:25.132Z</time>
      </trkpt>
      <trkpt lat="48.24056" lon="14.51574">
        <ele>241.708826</ele>
        <time>2022-09-12T06:57:35.417Z</time>
      </trkpt>
      <trkpt lat="48.24066" lon="14.51561">
        <ele>241.703879</ele>
        <time>2022-09-12T06:57:38.629Z</time>
      </trkpt>
      <trkpt lat="48.24082" lon="14.51516">
        <ele>241.691058</ele>
        <time>2022-09-12T06:57:47.572Z</time>
      </trkpt>
      <trkpt lat="48.24111" lon="14.5147">
        <ele>241.67491</ele>
        <time>2022-09-12T06:57:58.911Z</time>
      </trkpt>
      <trkpt lat="48.24119" lon="14.5146">
        <ele>241.671178</ele>
        <time>2022-09-12T06:58:01.674Z</time>
      </trkpt>
      <trkpt lat="48.24146" lon="14.51417">
        <ele>241.656169</ele>
        <time>2022-09-12T06:58:11.922Z</time>
      </trkpt>
      <trkpt lat="48.24154" lon="14.51386">
        <ele>241.648584</ele>
        <time>2022-09-12T06:58:17.687Z</time>
      </trkpt>
      <trkpt lat="48.24156" lon="14.51379">
        <ele>241.646881</ele>
        <time>2022-09-12T06:58:19.066Z</time>
      </trkpt>
      <trkpt lat="48.24199" lon="14.51246">
        <ele>241.613712</ele>
        <time>2022-09-12T06:58:45.195Z</time>
      </trkpt>
      <trkpt lat="48.24217" lon="14.51204">
        <ele>241.602519</ele>
        <time>2022-09-12T06:58:53.945Z</time>
      </trkpt>
      <trkpt lat="48.24238" lon="14.51153">
        <ele>241.590322</ele>
        <time>2022-09-12T06:59:04.604Z</time>
      </trkpt>
      <trkpt lat="48.24418" lon="14.50784">
        <ele>241.511571</ele>
        <time>2022-09-12T07:00:25.517Z</time>
      </trkpt>
      <trkpt lat="48.24434" lon="14.50761">
        <ele>241.50603</ele>
        <time>2022-09-12T07:00:31.492Z</time>
      </trkpt>
      <trkpt lat="48.24462" lon="14.5069">
        <ele>241.483201</ele>
        <time>2022-09-12T07:00:46.342Z</time>
      </trkpt>
      <trkpt lat="48.2447" lon="14.50683">
        <ele>241.478737</ele>
        <time>2022-09-12T07:00:48.872Z</time>
      </trkpt>
      <trkpt lat="48.24475" lon="14.50673">
        <ele>241.475108</ele>
        <time>2022-09-12T07:00:50.853Z</time>
      </trkpt>
      <trkpt lat="48.24483" lon="14.50653">
        <ele>241.467798</ele>
        <time>2022-09-12T07:00:54.955Z</time>
      </trkpt>
      <trkpt lat="48.2449" lon="14.50631">
        <ele>241.460083</ele>
        <time>2022-09-12T07:00:59.232Z</time>
      </trkpt>
      <trkpt lat="48.24496" lon="14.50612">
        <ele>241.453404</ele>
        <time>2022-09-12T07:01:02.812Z</time>
      </trkpt>
      <trkpt lat="48.24502" lon="14.50592">
        <ele>241.446487</ele>
        <time>2022-09-12T07:01:06.607Z</time>
      </trkpt>
      <trkpt lat="48.24507" lon="14.50571">
        <ele>241.439637</ele>
        <time>2022-09-12T07:01:10.194Z</time>
      </trkpt>
      <trkpt lat="48.24513" lon="14.50548">
        <ele>241.432016</ele>
        <time>2022-09-12T07:01:14.612Z</time>
      </trkpt>
      <trkpt lat="48.24516" lon="14.50527">
        <ele>241.425197</ele>
        <time>2022-09-12T07:01:18.574Z</time>
      </trkpt>
      <trkpt lat="48.24547" lon="14.50546">
        <ele>241.480065</ele>
        <time>2022-09-12T07:01:27.835Z</time>
      </trkpt>
      <trkpt lat="48.24552" lon="14.50549">
        <ele>241.499642</ele>
        <time>2022-09-12T07:01:29.229Z</time>
      </trkpt>
      <trkpt lat="48.24626" lon="14.50597">
        <ele>241.782975</ele>
        <time>2022-09-12T07:01:51.447Z</time>
      </trkpt>
      <trkpt lat="48.24638" lon="14.50606">
        <ele>241.831478</ele>
        <time>2022-09-12T07:01:55.441Z</time>
      </trkpt>
      <trkpt lat="48.24665" lon="14.50623">
        <ele>241.934041</ele>
        <time>2022-09-12T07:02:03.902Z</time>
      </trkpt>
      <trkpt lat="48.24666" lon="14.5062">
        <ele>241.943414</ele>
        <time>2022-09-12T07:02:04.646Z</time>
      </trkpt>
      <trkpt lat="48.2468" lon="14.5057">
        <ele>242.101884</ele>
        <time>2022-09-12T07:02:15.055Z</time>
      </trkpt>
      <trkpt lat="48.24707" lon="14.50456">
        <ele>242.862793</ele>
        <time>2022-09-12T07:02:39.789Z</time>
      </trkpt>
      <trkpt lat="48.2471" lon="14.50443">
        <ele>242.954391</ele>
        <time>2022-09-12T07:02:42.996Z</time>
      </trkpt>
      <trkpt lat="48.24715" lon="14.50412">
        <ele>243.154136</ele>
        <time>2022-09-12T07:02:49.801Z</time>
      </trkpt>
      <trkpt lat="48.24716" lon="14.5035">
        <ele>243.547922</ele>
        <time>2022-09-12T07:03:02.704Z</time>
      </trkpt>
      <trkpt lat="48.24706" lon="14.50257">
        <ele>244.269787</ele>
        <time>2022-09-12T07:03:23.559Z</time>
      </trkpt>
      <trkpt lat="48.24706" lon="14.50253">
        <ele>244.304046</ele>
        <time>2022-09-12T07:03:24.489Z</time>
      </trkpt>
      <trkpt lat="48.24701" lon="14.5023">
        <ele>244.508848</ele>
        <time>2022-09-12T07:03:29.816Z</time>
      </trkpt>
      <trkpt lat="48.24682" lon="14.50149">
        <ele>245.240812</ele>
        <time>2022-09-12T07:03:48.411Z</time>
      </trkpt>
      <trkpt lat="48.24676" lon="14.50104">
        <ele>245.630696</ele>
        <time>2022-09-12T07:03:58.199Z</time>
      </trkpt>
      <trkpt lat="48.24676" lon="14.50054">
        <ele>246.050793</ele>
        <time>2022-09-12T07:04:09.153Z</time>
      </trkpt>
      <trkpt lat="48.24676" lon="14.50039">
        <ele>246.155145</ele>
        <time>2022-09-12T07:04:12.454Z</time>
      </trkpt>
      <trkpt lat="48.24678" lon="14.49965">
        <ele>246.689486</ele>
        <time>2022-09-12T07:04:29.141Z</time>
      </trkpt>
      <trkpt lat="48.24692" lon="14.49913">
        <ele>247.089714</ele>
        <time>2022-09-12T07:04:40.842Z</time>
      </trkpt>
      <trkpt lat="48.24702" lon="14.49894">
        <ele>247.263272</ele>
        <time>2022-09-12T07:04:45.735Z</time>
      </trkpt>
      <trkpt lat="48.24737" lon="14.49835">
        <ele>247.823578</ele>
        <time>2022-09-12T07:05:01.771Z</time>
      </trkpt>
      <trkpt lat="48.24753" lon="14.49806">
        <ele>248.026961</ele>
        <time>2022-09-12T07:05:09.932Z</time>
      </trkpt>
      <trkpt lat="48.24757" lon="14.49799">
        <ele>248.051768</ele>
        <time>2022-09-12T07:05:11.706Z</time>
      </trkpt>
      <trkpt lat="48.24764" lon="14.49783">
        <ele>248.109512</ele>
        <time>2022-09-12T07:05:15.964Z</time>
      </trkpt>
      <trkpt lat="48.24777" lon="14.49749">
        <ele>248.225242</ele>
        <time>2022-09-12T07:05:24.422Z</time>
      </trkpt>
      <trkpt lat="48.24785" lon="14.49725">
        <ele>248.301799</ele>
        <time>2022-09-12T07:05:29.981Z</time>
      </trkpt>
      <trkpt lat="48.24792" lon="14.49698">
        <ele>248.387103</ele>
        <time>2022-09-12T07:05:35.903Z</time>
      </trkpt>
      <trkpt lat="48.24793" lon="14.4969">
        <ele>248.411199</ele>
        <time>2022-09-12T07:05:37.581Z</time>
      </trkpt>
      <trkpt lat="48.24796" lon="14.49675">
        <ele>248.455506</ele>
        <time>2022-09-12T07:05:40.492Z</time>
      </trkpt>
      <trkpt lat="48.248" lon="14.49641">
        <ele>248.555463</ele>
        <time>2022-09-12T07:05:46.712Z</time>
      </trkpt>
      <trkpt lat="48.24809" lon="14.49543">
        <ele>248.552752</ele>
        <time>2022-09-12T07:06:03.243Z</time>
      </trkpt>
      <trkpt lat="48.24808" lon="14.4953">
        <ele>248.447871</ele>
        <time>2022-09-12T07:06:05.468Z</time>
      </trkpt>
      <trkpt lat="48.24807" lon="14.49517">
        <ele>248.345476</ele>
        <time>2022-09-12T07:06:07.625Z</time>
      </trkpt>
      <trkpt lat="48.24805" lon="14.49499">
        <ele>248.201559</ele>
        <time>2022-09-12T07:06:10.621Z</time>
      </trkpt>
      <trkpt lat="48.24797" lon="14.49403">
        <ele>247.435923</ele>
        <time>2022-09-12T07:06:25.641Z</time>
      </trkpt>
      <trkpt lat="48.24799" lon="14.49352">
        <ele>247.033619</ele>
        <time>2022-09-12T07:06:32.869Z</time>
      </trkpt>
      <trkpt lat="48.24814" lon="14.49309">
        <ele>246.661184</ele>
        <time>2022-09-12T07:06:39.473Z</time>
      </trkpt>
      <trkpt lat="48.24841" lon="14.49254">
        <ele>246.065468</ele>
        <time>2022-09-12T07:06:49.150Z</time>
      </trkpt>
      <trkpt lat="48.24875" lon="14.49199">
        <ele>245.419132</ele>
        <time>2022-09-12T07:06:59.808Z</time>
      </trkpt>
      <trkpt lat="48.24893" lon="14.49174">
        <ele>245.098767</ele>
        <time>2022-09-12T07:07:05.382Z</time>
      </trkpt>
      <trkpt lat="48.24902" lon="14.49162">
        <ele>244.947441</ele>
        <time>2022-09-12T07:07:08.043Z</time>
      </trkpt>
      <trkpt lat="48.24949" lon="14.49095">
        <ele>244.484654</ele>
        <time>2022-09-12T07:07:23.697Z</time>
      </trkpt>
      <trkpt lat="48.24955" lon="14.49075">
        <ele>244.653962</ele>
        <time>2022-09-12T07:07:27.788Z</time>
      </trkpt>
      <trkpt lat="48.24956" lon="14.49056">
        <ele>244.804122</ele>
        <time>2022-09-12T07:07:31.496Z</time>
      </trkpt>
      <trkpt lat="48.24945" lon="14.49023">
        <ele>245.089345</ele>
        <time>2022-09-12T07:07:39.550Z</time>
      </trkpt>
      <trkpt lat="48.249" lon="14.48972">
        <ele>245.742781</ele>
        <time>2022-09-12T07:07:58.642Z</time>
      </trkpt>
      <trkpt lat="48.24876" lon="14.4894">
        <ele>246.112184</ele>
        <time>2022-09-12T07:08:09.911Z</time>
      </trkpt>
      <trkpt lat="48.24864" lon="14.48908">
        <ele>246.392875</ele>
        <time>2022-09-12T07:08:19.072Z</time>
      </trkpt>
      <trkpt lat="48.24861" lon="14.48857">
        <ele>246.714004</ele>
        <time>2022-09-12T07:08:32.088Z</time>
      </trkpt>
      <trkpt lat="48.24868" lon="14.48821">
        <ele>246.943701</ele>
        <time>2022-09-12T07:08:41.157Z</time>
      </trkpt>
      <trkpt lat="48.24898" lon="14.48771">
        <ele>247.360642</ele>
        <time>2022-09-12T07:08:56.329Z</time>
      </trkpt>
      <trkpt lat="48.24934" lon="14.48735">
        <ele>247.768117</ele>
        <time>2022-09-12T07:09:09.036Z</time>
      </trkpt>
      <trkpt lat="48.24975" lon="14.48691">
        <ele>247.803461</ele>
        <time>2022-09-12T07:09:20.973Z</time>
      </trkpt>
      <trkpt lat="48.2499" lon="14.48669">
        <ele>247.488792</ele>
        <time>2022-09-12T07:09:25.697Z</time>
      </trkpt>
      <trkpt lat="48.25016" lon="14.48609">
        <ele>246.766836</ele>
        <time>2022-09-12T07:09:36.108Z</time>
      </trkpt>
      <trkpt lat="48.25061" lon="14.48463">
        <ele>245.282728</ele>
        <time>2022-09-12T07:09:58.754Z</time>
      </trkpt>
      <trkpt lat="48.25063" lon="14.48458">
        <ele>245.265069</ele>
        <time>2022-09-12T07:09:59.432Z</time>
      </trkpt>
      <trkpt lat="48.25071" lon="14.48433">
        <ele>245.1614</ele>
        <time>2022-09-12T07:10:03.576Z</time>
      </trkpt>
      <trkpt lat="48.25081" lon="14.48412">
        <ele>245.068688</ele>
        <time>2022-09-12T07:10:07.305Z</time>
      </trkpt>
      <trkpt lat="48.25086" lon="14.4838">
        <ele>244.948112</ele>
        <time>2022-09-12T07:10:12.581Z</time>
      </trkpt>
      <trkpt lat="48.25088" lon="14.48374">
        <ele>244.924641</ele>
        <time>2022-09-12T07:10:13.611Z</time>
      </trkpt>
      <trkpt lat="48.25104" lon="14.48309">
        <ele>244.67395</ele>
        <time>2022-09-12T07:10:25.195Z</time>
      </trkpt>
      <trkpt lat="48.25122" lon="14.48198">
        <ele>244.54292</ele>
        <time>2022-09-12T07:10:47.233Z</time>
      </trkpt>
      <trkpt lat="48.25124" lon="14.48188">
        <ele>244.597778</ele>
        <time>2022-09-12T07:10:49.400Z</time>
      </trkpt>
      <trkpt lat="48.25129" lon="14.48151">
        <ele>244.797704</ele>
        <time>2022-09-12T07:10:57.252Z</time>
      </trkpt>
      <trkpt lat="48.25163" lon="14.47939">
        <ele>245.880367</ele>
        <time>2022-09-12T07:11:42.300Z</time>
      </trkpt>
      <trkpt lat="48.25173" lon="14.47894">
        <ele>246.029071</ele>
        <time>2022-09-12T07:11:51.528Z</time>
      </trkpt>
      <trkpt lat="48.25179" lon="14.47867">
        <ele>246.122394</ele>
        <time>2022-09-12T07:11:57.204Z</time>
      </trkpt>
      <trkpt lat="48.25193" lon="14.47819">
        <ele>246.288111</ele>
        <time>2022-09-12T07:12:07.328Z</time>
      </trkpt>
      <trkpt lat="48.25199" lon="14.47787">
        <ele>246.394282</ele>
        <time>2022-09-12T07:12:13.848Z</time>
      </trkpt>
      <trkpt lat="48.25199" lon="14.4778">
        <ele>246.418199</ele>
        <time>2022-09-12T07:12:15.254Z</time>
      </trkpt>
      <trkpt lat="48.25225" lon="14.4763">
        <ele>246.833787</ele>
        <time>2022-09-12T07:12:43.356Z</time>
      </trkpt>
      <trkpt lat="48.25241" lon="14.47552">
        <ele>247.016255</ele>
        <time>2022-09-12T07:12:59.149Z</time>
      </trkpt>
      <trkpt lat="48.25253" lon="14.47503">
        <ele>247.132936</ele>
        <time>2022-09-12T07:13:09.444Z</time>
      </trkpt>
      <trkpt lat="48.25256" lon="14.4749">
        <ele>247.1639</ele>
        <time>2022-09-12T07:13:12.043Z</time>
      </trkpt>
      <trkpt lat="48.25267" lon="14.47448">
        <ele>247.248322</ele>
        <time>2022-09-12T07:13:20.691Z</time>
      </trkpt>
      <trkpt lat="48.25272" lon="14.47427">
        <ele>247.214719</ele>
        <time>2022-09-12T07:13:24.835Z</time>
      </trkpt>
      <trkpt lat="48.25279" lon="14.47397">
        <ele>247.165714</ele>
        <time>2022-09-12T07:13:30.512Z</time>
      </trkpt>
      <trkpt lat="48.25284" lon="14.47379">
        <ele>247.13618</ele>
        <time>2022-09-12T07:13:33.839Z</time>
      </trkpt>
      <trkpt lat="48.25295" lon="14.4733">
        <ele>247.057518</ele>
        <time>2022-09-12T07:13:42.255Z</time>
      </trkpt>
      <trkpt lat="48.25301" lon="14.47302">
        <ele>247.012499</ele>
        <time>2022-09-12T07:13:46.964Z</time>
      </trkpt>
      <trkpt lat="48.25313" lon="14.47204">
        <ele>246.860946</ele>
        <time>2022-09-12T07:14:03.966Z</time>
      </trkpt>
      <trkpt lat="48.25325" lon="14.4715">
        <ele>246.631083</ele>
        <time>2022-09-12T07:14:13.695Z</time>
      </trkpt>
      <trkpt lat="48.25328" lon="14.47136">
        <ele>246.563532</ele>
        <time>2022-09-12T07:14:15.967Z</time>
      </trkpt>
      <trkpt lat="48.2532" lon="14.47104">
        <ele>246.405458</ele>
        <time>2022-09-12T07:14:21.566Z</time>
      </trkpt>
      <trkpt lat="48.25324" lon="14.47089">
        <ele>246.331851</ele>
        <time>2022-09-12T07:14:23.974Z</time>
      </trkpt>
      <trkpt lat="48.25327" lon="14.47079">
        <ele>246.27913</ele>
        <time>2022-09-12T07:14:25.695Z</time>
      </trkpt>
      <trkpt lat="48.25339" lon="14.4708">
        <ele>246.195913</ele>
        <time>2022-09-12T07:14:28.595Z</time>
      </trkpt>
      <trkpt lat="48.25348" lon="14.47072">
        <ele>246.122169</ele>
        <time>2022-09-12T07:14:30.966Z</time>
      </trkpt>
      <trkpt lat="48.25399" lon="14.46975">
        <ele>245.543419</ele>
        <time>2022-09-12T07:14:50.133Z</time>
      </trkpt>
      <trkpt lat="48.25441" lon="14.46904">
        <ele>245.066695</ele>
        <time>2022-09-12T07:15:06.240Z</time>
      </trkpt>
      <trkpt lat="48.25472" lon="14.46835">
        <ele>244.651693</ele>
        <time>2022-09-12T07:15:19.665Z</time>
      </trkpt>
      <trkpt lat="48.25504" lon="14.46738">
        <ele>244.118839</ele>
        <time>2022-09-12T07:15:36.110Z</time>
      </trkpt>
      <trkpt lat="48.25537" lon="14.46599">
        <ele>243.443707</ele>
        <time>2022-09-12T07:15:58.959Z</time>
      </trkpt>
      <trkpt lat="48.25551" lon="14.46532">
        <ele>243.119387</ele>
        <time>2022-09-12T07:16:10.816Z</time>
      </trkpt>
      <trkpt lat="48.25571" lon="14.46475">
        <ele>243.008796</ele>
        <time>2022-09-12T07:16:21.992Z</time>
      </trkpt>
      <trkpt lat="48.25584" lon="14.46421">
        <ele>243.029814</ele>
        <time>2022-09-12T07:16:32.070Z</time>
      </trkpt>
      <trkpt lat="48.25591" lon="14.46367">
        <ele>243.049962</ele>
        <time>2022-09-12T07:16:41.842Z</time>
      </trkpt>
      <trkpt lat="48.25605" lon="14.46328">
        <ele>243.0665</ele>
        <time>2022-09-12T07:16:50.004Z</time>
      </trkpt>
      <trkpt lat="48.25632" lon="14.46293">
        <ele>243.086358</ele>
        <time>2022-09-12T07:17:00.243Z</time>
      </trkpt>
      <trkpt lat="48.25691" lon="14.46252">
        <ele>243.047499</ele>
        <time>2022-09-12T07:17:18.381Z</time>
      </trkpt>
      <trkpt lat="48.25729" lon="14.46228">
        <ele>243.010102</ele>
        <time>2022-09-12T07:17:28.850Z</time>
      </trkpt>
      <trkpt lat="48.25796" lon="14.46147">
        <ele>242.930205</ele>
        <time>2022-09-12T07:17:50.835Z</time>
      </trkpt>
      <trkpt lat="48.25805" lon="14.46145">
        <ele>242.923802</ele>
        <time>2022-09-12T07:17:52.968Z</time>
      </trkpt>
      <trkpt lat="48.2581" lon="14.46136">
        <ele>242.918687</ele>
        <time>2022-09-12T07:17:55.146Z</time>
      </trkpt>
      <trkpt lat="48.25851" lon="14.46055">
        <ele>242.875445</ele>
        <time>2022-09-12T07:18:12.731Z</time>
      </trkpt>
      <trkpt lat="48.25885" lon="14.4599">
        <ele>242.840597</ele>
        <time>2022-09-12T07:18:27.384Z</time>
      </trkpt>
      <trkpt lat="48.25921" lon="14.45859">
        <ele>243.194642</ele>
        <time>2022-09-12T07:18:53.099Z</time>
      </trkpt>
      <trkpt lat="48.25935" lon="14.4583">
        <ele>243.370932</ele>
        <time>2022-09-12T07:19:00.206Z</time>
      </trkpt>
      <trkpt lat="48.25958" lon="14.45815">
        <ele>243.553388</ele>
        <time>2022-09-12T07:19:07.747Z</time>
      </trkpt>
      <trkpt lat="48.25969" lon="14.45801">
        <ele>243.656359</ele>
        <time>2022-09-12T07:19:12.167Z</time>
      </trkpt>
      <trkpt lat="48.26004" lon="14.45687">
        <ele>244.451731</ele>
        <time>2022-09-12T07:19:39.020Z</time>
      </trkpt>
      <trkpt lat="48.26009" lon="14.45676">
        <ele>244.606205</ele>
        <time>2022-09-12T07:19:42.039Z</time>
      </trkpt>
      <trkpt lat="48.26028" lon="14.45647">
        <ele>245.049855</ele>
        <time>2022-09-12T07:19:51.197Z</time>
      </trkpt>
      <trkpt lat="48.26045" lon="14.45635">
        <ele>245.371147</ele>
        <time>2022-09-12T07:19:57.938Z</time>
      </trkpt>
      <trkpt lat="48.26098" lon="14.45632">
        <ele>246.278751</ele>
        <time>2022-09-12T07:20:17.298Z</time>
      </trkpt>
      <trkpt lat="48.26186" lon="14.45587">
        <ele>247.566091</ele>
        <time>2022-09-12T07:20:50.506Z</time>
      </trkpt>
      <trkpt lat="48.2626" lon="14.45535">
        <ele>248.366228</ele>
        <time>2022-09-12T07:21:16.610Z</time>
      </trkpt>
      <trkpt lat="48.26398" lon="14.45429">
        <ele>248.865692</ele>
        <time>2022-09-12T07:21:58.810Z</time>
      </trkpt>
      <trkpt lat="48.26474" lon="14.45366">
        <ele>248.770008</ele>
        <time>2022-09-12T07:22:20.775Z</time>
      </trkpt>
      <trkpt lat="48.265" lon="14.45352">
        <ele>248.587192</ele>
        <time>2022-09-12T07:22:27.764Z</time>
      </trkpt>
      <trkpt lat="48.26525" lon="14.45346">
        <ele>248.415512</ele>
        <time>2022-09-12T07:22:34.139Z</time>
      </trkpt>
      <trkpt lat="48.26588" lon="14.45356">
        <ele>247.993405</ele>
        <time>2022-09-12T07:22:49.293Z</time>
      </trkpt>
      <trkpt lat="48.26603" lon="14.45331">
        <ele>247.843536</ele>
        <time>2022-09-12T07:22:54.605Z</time>
      </trkpt>
      <trkpt lat="48.26604" lon="14.45303">
        <ele>247.721073</ele>
        <time>2022-09-12T07:22:58.962Z</time>
      </trkpt>
      <trkpt lat="48.26599" lon="14.45249">
        <ele>247.441821</ele>
        <time>2022-09-12T07:23:07.456Z</time>
      </trkpt>
      <trkpt lat="48.26587" lon="14.45194">
        <ele>247.095388</ele>
        <time>2022-09-12T07:23:16.464Z</time>
      </trkpt>
      <trkpt lat="48.26571" lon="14.45074">
        <ele>246.373724</ele>
        <time>2022-09-12T07:23:34.990Z</time>
      </trkpt>
      <trkpt lat="48.26569" lon="14.45062">
        <ele>246.296362</ele>
        <time>2022-09-12T07:23:36.996Z</time>
      </trkpt>
      <trkpt lat="48.26576" lon="14.45055">
        <ele>246.226737</ele>
        <time>2022-09-12T07:23:38.869Z</time>
      </trkpt>
      <trkpt lat="48.26584" lon="14.45035">
        <ele>246.087364</ele>
        <time>2022-09-12T07:23:42.533Z</time>
      </trkpt>
      <trkpt lat="48.26605" lon="14.44975">
        <ele>246.082369</ele>
        <time>2022-09-12T07:23:53.776Z</time>
      </trkpt>
      <trkpt lat="48.26617" lon="14.44932">
        <ele>246.162797</ele>
        <time>2022-09-12T07:24:02.251Z</time>
      </trkpt>
      <trkpt lat="48.26625" lon="14.44884">
        <ele>246.246539</ele>
        <time>2022-09-12T07:24:11.847Z</time>
      </trkpt>
      <trkpt lat="48.26626" lon="14.44835">
        <ele>246.329351</ele>
        <time>2022-09-12T07:24:21.516Z</time>
      </trkpt>
      <trkpt lat="48.26612" lon="14.4469">
        <ele>246.552187</ele>
        <time>2022-09-12T07:24:51.138Z</time>
      </trkpt>
      <trkpt lat="48.26612" lon="14.44673">
        <ele>246.574227</ele>
        <time>2022-09-12T07:24:54.453Z</time>
      </trkpt>
      <trkpt lat="48.26615" lon="14.44663">
        <ele>246.58896</ele>
        <time>2022-09-12T07:24:56.740Z</time>
      </trkpt>
      <trkpt lat="48.26594" lon="14.44641">
        <ele>246.639907</ele>
        <time>2022-09-12T07:25:03.780Z</time>
      </trkpt>
      <trkpt lat="48.26584" lon="14.44618">
        <ele>246.676939</ele>
        <time>2022-09-12T07:25:08.962Z</time>
      </trkpt>
      <trkpt lat="48.26581" lon="14.44592">
        <ele>246.712997</ele>
        <time>2022-09-12T07:25:13.635Z</time>
      </trkpt>
      <trkpt lat="48.26581" lon="14.4458">
        <ele>246.728741</ele>
        <time>2022-09-12T07:25:15.736Z</time>
      </trkpt>
      <trkpt lat="48.26579" lon="14.44544">
        <ele>246.777459</ele>
        <time>2022-09-12T07:25:21.739Z</time>
      </trkpt>
      <trkpt lat="48.26577" lon="14.44514">
        <ele>246.809616</ele>
        <time>2022-09-12T07:25:26.805Z</time>
      </trkpt>
      <trkpt lat="48.26553" lon="14.44412">
        <ele>246.29341</ele>
        <time>2022-09-12T07:25:43.950Z</time>
      </trkpt>
      <trkpt lat="48.26536" lon="14.44351">
        <ele>245.974723</ele>
        <time>2022-09-12T07:25:54.255Z</time>
      </trkpt>
      <trkpt lat="48.26526" lon="14.44301">
        <ele>245.724695</ele>
        <time>2022-09-12T07:26:02.421Z</time>
      </trkpt>
      <trkpt lat="48.26514" lon="14.44236">
        <ele>245.442542</ele>
        <time>2022-09-12T07:26:13.217Z</time>
      </trkpt>
      <trkpt lat="48.265" lon="14.44202">
        <ele>245.316314</ele>
        <time>2022-09-12T07:26:19.728Z</time>
      </trkpt>
      <trkpt lat="48.2649" lon="14.44149">
        <ele>245.138493</ele>
        <time>2022-09-12T07:26:29.507Z</time>
      </trkpt>
      <trkpt lat="48.26453" lon="14.43929">
        <ele>244.275639</ele>
        <time>2022-09-12T07:27:06.700Z</time>
      </trkpt>
      <trkpt lat="48.26385" lon="14.43881">
        <ele>243.715626</ele>
        <time>2022-09-12T07:27:24.221Z</time>
      </trkpt>
      <trkpt lat="48.26359" lon="14.4386">
        <ele>243.493104</ele>
        <time>2022-09-12T07:27:31.173Z</time>
      </trkpt>
      <trkpt lat="48.26339" lon="14.4384">
        <ele>243.312424</ele>
        <time>2022-09-12T07:27:36.807Z</time>
      </trkpt>
      <trkpt lat="48.26313" lon="14.43789">
        <ele>243.20165</ele>
        <time>2022-09-12T07:27:46.867Z</time>
      </trkpt>
      <trkpt lat="48.26307" lon="14.43744">
        <ele>243.123039</ele>
        <time>2022-09-12T07:27:54.330Z</time>
      </trkpt>
      <trkpt lat="48.26299" lon="14.43681">
        <ele>243.014342</ele>
        <time>2022-09-12T07:28:05.263Z</time>
      </trkpt>
      <trkpt lat="48.26276" lon="14.43622">
        <ele>242.897878</ele>
        <time>2022-09-12T07:28:17.934Z</time>
      </trkpt>
      <trkpt lat="48.26238" lon="14.43542">
        <ele>242.938998</ele>
        <time>2022-09-12T07:28:36.940Z</time>
      </trkpt>
      <trkpt lat="48.26165" lon="14.43425">
        <ele>243.140622</ele>
        <time>2022-09-12T07:29:06.376Z</time>
      </trkpt>
      <trkpt lat="48.26154" lon="14.43402">
        <ele>243.176033</ele>
        <time>2022-09-12T07:29:11.381Z</time>
      </trkpt>
      <trkpt lat="48.26139" lon="14.4337">
        <ele>243.12172</ele>
        <time>2022-09-12T07:29:18.336Z</time>
      </trkpt>
      <trkpt lat="48.261" lon="14.433">
        <ele>242.902751</ele>
        <time>2022-09-12T07:29:34.483Z</time>
      </trkpt>
      <trkpt lat="48.26092" lon="14.43285">
        <ele>242.857693</ele>
        <time>2022-09-12T07:29:37.703Z</time>
      </trkpt>
      <trkpt lat="48.26045" lon="14.43187">
        <ele>242.569728</ele>
        <time>2022-09-12T07:29:57.108Z</time>
      </trkpt>
      <trkpt lat="48.26016" lon="14.43098">
        <ele>242.26851</ele>
        <time>2022-09-12T07:30:12.640Z</time>
      </trkpt>
      <trkpt lat="48.2601" lon="14.43082">
        <ele>242.211408</ele>
        <time>2022-09-12T07:30:15.538Z</time>
      </trkpt>
      <trkpt lat="48.25986" lon="14.43028">
        <ele>242.006884</ele>
        <time>2022-09-12T07:30:26.219Z</time>
      </trkpt>
      <trkpt lat="48.2596" lon="14.4299">
        <ele>241.837989</ele>
        <time>2022-09-12T07:30:35.199Z</time>
      </trkpt>
      <trkpt lat="48.25952" lon="14.42979">
        <ele>241.786361</ele>
        <time>2022-09-12T07:30:38.047Z</time>
      </trkpt>
      <trkpt lat="48.25889" lon="14.42862">
        <ele>242.360399</ele>
        <time>2022-09-12T07:31:06.063Z</time>
      </trkpt>
      <trkpt lat="48.25866" lon="14.42794">
        <ele>242.763986</ele>
        <time>2022-09-12T07:31:22.294Z</time>
      </trkpt>
      <trkpt lat="48.25853" lon="14.42738">
        <ele>243.082751</ele>
        <time>2022-09-12T07:31:35.810Z</time>
      </trkpt>
      <trkpt lat="48.25836" lon="14.42647">
        <ele>243.798591</ele>
        <time>2022-09-12T07:31:57.206Z</time>
      </trkpt>
      <trkpt lat="48.25831" lon="14.42561">
        <ele>244.470154</ele>
        <time>2022-09-12T07:32:16.549Z</time>
      </trkpt>
      <trkpt lat="48.25831" lon="14.42543">
        <ele>244.611918</ele>
        <time>2022-09-12T07:32:20.533Z</time>
      </trkpt>
      <trkpt lat="48.25817" lon="14.42414">
        <ele>245.602357</ele>
        <time>2022-09-12T07:32:45.959Z</time>
      </trkpt>
      <trkpt lat="48.25825" lon="14.4237">
        <ele>245.922715</ele>
        <time>2022-09-12T07:32:54.905Z</time>
      </trkpt>
      <trkpt lat="48.25839" lon="14.42345">
        <ele>246.154038</ele>
        <time>2022-09-12T07:33:02.366Z</time>
      </trkpt>
      <trkpt lat="48.25842" lon="14.42305">
        <ele>246.441834</ele>
        <time>2022-09-12T07:33:11.281Z</time>
      </trkpt>
      <trkpt lat="48.25833" lon="14.42292">
        <ele>246.578447</ele>
        <time>2022-09-12T07:33:15.718Z</time>
      </trkpt>
      <trkpt lat="48.25822" lon="14.42288">
        <ele>246.695122</ele>
        <time>2022-09-12T07:33:19.098Z</time>
      </trkpt>
      <trkpt lat="48.25822" lon="14.42277">
        <ele>246.769762</ele>
        <time>2022-09-12T07:33:21.594Z</time>
      </trkpt>
      <trkpt lat="48.25835" lon="14.4226">
        <ele>246.955037</ele>
        <time>2022-09-12T07:33:27.616Z</time>
      </trkpt>
      <trkpt lat="48.25827" lon="14.42254">
        <ele>247.049188</ele>
        <time>2022-09-12T07:33:30.190Z</time>
      </trkpt>
      <trkpt lat="48.25732" lon="14.42182">
        <ele>247.823021</ele>
        <time>2022-09-12T07:34:04.003Z</time>
      </trkpt>
      <trkpt lat="48.25681" lon="14.42149">
        <ele>248.194865</ele>
        <time>2022-09-12T07:34:20.123Z</time>
      </trkpt>
      <trkpt lat="48.25639" lon="14.42138">
        <ele>248.333231</ele>
        <time>2022-09-12T07:34:31.849Z</time>
      </trkpt>
      <trkpt lat="48.25585" lon="14.42145">
        <ele>248.02499</ele>
        <time>2022-09-12T07:34:45.277Z</time>
      </trkpt>
      <trkpt lat="48.25545" lon="14.42168">
        <ele>247.785543</ele>
        <time>2022-09-12T07:34:54.968Z</time>
      </trkpt>
      <trkpt lat="48.25531" lon="14.42147">
        <ele>247.670247</ele>
        <time>2022-09-12T07:34:59.732Z</time>
      </trkpt>
      <trkpt lat="48.25571" lon="14.42035">
        <ele>247.406683</ele>
        <time>2022-09-12T07:35:19.925Z</time>
      </trkpt>
      <trkpt lat="48.25631" lon="14.41837">
        <ele>247.494359</ele>
        <time>2022-09-12T07:36:00.674Z</time>
      </trkpt>
      <trkpt lat="48.25676" lon="14.41654">
        <ele>248.197059</ele>
        <time>2022-09-12T07:36:39.348Z</time>
      </trkpt>
      <trkpt lat="48.25703" lon="14.41521">
        <ele>248.486415</ele>
        <time>2022-09-12T07:37:05.975Z</time>
      </trkpt>
      <trkpt lat="48.25738" lon="14.4128">
        <ele>248.509253</ele>
        <time>2022-09-12T07:37:49.144Z</time>
      </trkpt>
      <trkpt lat="48.25783" lon="14.40801">
        <ele>248.369057</ele>
        <time>2022-09-12T07:39:13.864Z</time>
      </trkpt>
      <trkpt lat="48.25809" lon="14.40612">
        <ele>248.998534</ele>
        <time>2022-09-12T07:39:51.270Z</time>
      </trkpt>
      <trkpt lat="48.25859" lon="14.40383">
        <ele>249.641053</ele>
        <time>2022-09-12T07:40:39.419Z</time>
      </trkpt>
      <trkpt lat="48.25896" lon="14.40255">
        <ele>249.845774</ele>
        <time>2022-09-12T07:41:04.019Z</time>
      </trkpt>
      <trkpt lat="48.25946" lon="14.40113">
        <ele>249.314646</ele>
        <time>2022-09-12T07:41:29.996Z</time>
      </trkpt>
      <trkpt lat="48.26012" lon="14.3996">
        <ele>248.836994</ele>
        <time>2022-09-12T07:41:59.505Z</time>
      </trkpt>
      <trkpt lat="48.2623" lon="14.39528">
        <ele>248.375761</ele>
        <time>2022-09-12T07:43:34.665Z</time>
      </trkpt>
      <trkpt lat="48.26315" lon="14.39372">
        <ele>248.450046</ele>
        <time>2022-09-12T07:44:10.760Z</time>
      </trkpt>
      <trkpt lat="48.26449" lon="14.39158">
        <ele>248.885465</ele>
        <time>2022-09-12T07:45:05.335Z</time>
      </trkpt>
      <trkpt lat="48.26583" lon="14.38971">
        <ele>249.248708</ele>
        <time>2022-09-12T07:45:56.030Z</time>
      </trkpt>
      <trkpt lat="48.26805" lon="14.387">
        <ele>249.471805</ele>
        <time>2022-09-12T07:47:13.257Z</time>
      </trkpt>
      <trkpt lat="48.26876" lon="14.38591">
        <ele>249.524359</ele>
        <time>2022-09-12T07:47:40.265Z</time>
      </trkpt>
      <trkpt lat="48.26917" lon="14.38515">
        <ele>249.558854</ele>
        <time>2022-09-12T07:47:57.459Z</time>
      </trkpt>
      <trkpt lat="48.2693" lon="14.38528">
        <ele>249.567343</ele>
        <time>2022-09-12T07:48:01.849Z</time>
      </trkpt>
      <trkpt lat="48.26942" lon="14.38534">
        <ele>249.574046</ele>
        <time>2022-09-12T07:48:05.295Z</time>
      </trkpt>
      <trkpt lat="48.26991" lon="14.38513">
        <ele>249.644362</ele>
        <time>2022-09-12T07:48:19.772Z</time>
      </trkpt>
      <trkpt lat="48.27018" lon="14.38495">
        <ele>249.706325</ele>
        <time>2022-09-12T07:48:28.270Z</time>
      </trkpt>
      <trkpt lat="48.27038" lon="14.38464">
        <ele>249.76759</ele>
        <time>2022-09-12T07:48:36.587Z</time>
      </trkpt>
      <trkpt lat="48.27091" lon="14.38307">
        <ele>249.966899</ele>
        <time>2022-09-12T07:49:08.373Z</time>
      </trkpt>
      <trkpt lat="48.27093" lon="14.38301">
        <ele>249.966211</ele>
        <time>2022-09-12T07:49:09.570Z</time>
      </trkpt>
      <trkpt lat="48.27098" lon="14.38277">
        <ele>249.963648</ele>
        <time>2022-09-12T07:49:14.100Z</time>
      </trkpt>
      <trkpt lat="48.2709" lon="14.38233">
        <ele>249.959156</ele>
        <time>2022-09-12T07:49:22.088Z</time>
      </trkpt>
      <trkpt lat="48.27078" lon="14.38198">
        <ele>249.955127</ele>
        <time>2022-09-12T07:49:29.152Z</time>
      </trkpt>
      <trkpt lat="48.27051" lon="14.38132">
        <ele>249.947428</ele>
        <time>2022-09-12T07:49:42.356Z</time>
      </trkpt>
      <trkpt lat="48.27162" lon="14.37654">
        <ele>250.076403</ele>
        <time>2022-09-12T07:51:13.086Z</time>
      </trkpt>
      <trkpt lat="48.2717" lon="14.37572">
        <ele>250.097639</ele>
        <time>2022-09-12T07:51:28.149Z</time>
      </trkpt>
      <trkpt lat="48.27211" lon="14.37338">
        <ele>250.099791</ele>
        <time>2022-09-12T07:52:10.981Z</time>
      </trkpt>
      <trkpt lat="48.2725" lon="14.36988">
        <ele>250.089619</ele>
        <time>2022-09-12T07:53:13.676Z</time>
      </trkpt>
      <trkpt lat="48.27273" lon="14.36854">
        <ele>250.066128</ele>
        <time>2022-09-12T07:53:38.252Z</time>
      </trkpt>
      <trkpt lat="48.27303" lon="14.36719">
        <ele>250.062334</ele>
        <time>2022-09-12T07:54:03.478Z</time>
      </trkpt>
      <trkpt lat="48.27352" lon="14.36544">
        <ele>250.083372</ele>
        <time>2022-09-12T07:54:37.219Z</time>
      </trkpt>
      <trkpt lat="48.27413" lon="14.36364">
        <ele>250.095562</ele>
        <time>2022-09-12T07:55:13.326Z</time>
      </trkpt>
      <trkpt lat="48.27545" lon="14.36027">
        <ele>250.153789</ele>
        <time>2022-09-12T07:56:22.871Z</time>
      </trkpt>
      <trkpt lat="48.27563" lon="14.35936">
        <ele>250.235453</ele>
        <time>2022-09-12T07:56:40.048Z</time>
      </trkpt>
      <trkpt lat="48.27633" lon="14.35772">
        <ele>250.472625</ele>
        <time>2022-09-12T07:57:15.470Z</time>
      </trkpt>
      <trkpt lat="48.27698" lon="14.35637">
        <ele>250.800783</ele>
        <time>2022-09-12T07:57:47.189Z</time>
      </trkpt>
      <trkpt lat="48.27817" lon="14.35415">
        <ele>251.185213</ele>
        <time>2022-09-12T07:58:40.351Z</time>
      </trkpt>
      <trkpt lat="48.27928" lon="14.35236">
        <ele>250.679949</ele>
        <time>2022-09-12T07:59:21.320Z</time>
      </trkpt>
      <trkpt lat="48.28032" lon="14.35093">
        <ele>250.25681</ele>
        <time>2022-09-12T07:59:56.463Z</time>
      </trkpt>
      <trkpt lat="48.28145" lon="14.34962">
        <ele>250.032238</ele>
        <time>2022-09-12T08:00:34.034Z</time>
      </trkpt>
      <trkpt lat="48.282" lon="14.34897">
        <ele>250.011811</ele>
        <time>2022-09-12T08:00:52.486Z</time>
      </trkpt>
      <trkpt lat="48.28281" lon="14.34811">
        <ele>249.999994</ele>
        <time>2022-09-12T08:01:18.994Z</time>
      </trkpt>
      <trkpt lat="48.28405" lon="14.34706">
        <ele>250.000903</ele>
        <time>2022-09-12T08:01:56.915Z</time>
      </trkpt>
      <trkpt lat="48.28489" lon="14.34648">
        <ele>250.004843</ele>
        <time>2022-09-12T08:02:21.632Z</time>
      </trkpt>
      <trkpt lat="48.28588" lon="14.34594">
        <ele>250.056401</ele>
        <time>2022-09-12T08:02:49.689Z</time>
      </trkpt>
      <trkpt lat="48.28677" lon="14.34556">
        <ele>250.171276</ele>
        <time>2022-09-12T08:03:14.796Z</time>
      </trkpt>
      <trkpt lat="48.29129" lon="14.3439">
        <ele>251.376539</ele>
        <time>2022-09-12T08:05:25.012Z</time>
      </trkpt>
      <trkpt lat="48.2947" lon="14.3421">
        <ele>252.839592</ele>
        <time>2022-09-12T08:07:08.797Z</time>
      </trkpt>
      <trkpt lat="48.29558" lon="14.34181">
        <ele>253.143353</ele>
        <time>2022-09-12T08:07:35.380Z</time>
      </trkpt>
      <trkpt lat="48.29717" lon="14.34151">
        <ele>252.823673</ele>
        <time>2022-09-12T08:08:16.645Z</time>
      </trkpt>
      <trkpt lat="48.29807" lon="14.34124">
        <ele>252.57231</ele>
        <time>2022-09-12T08:08:38.629Z</time>
      </trkpt>
      <trkpt lat="48.2986" lon="14.34103">
        <ele>252.450991</ele>
        <time>2022-09-12T08:08:52.264Z</time>
      </trkpt>
      <trkpt lat="48.29868" lon="14.34099">
        <ele>252.433337</ele>
        <time>2022-09-12T08:08:54.179Z</time>
      </trkpt>
      <trkpt lat="48.30207" lon="14.33933">
        <ele>253.237646</ele>
        <time>2022-09-12T08:10:33.292Z</time>
      </trkpt>
      <trkpt lat="48.30295" lon="14.33867">
        <ele>254.068423</ele>
        <time>2022-09-12T08:11:03.699Z</time>
      </trkpt>
      <trkpt lat="48.30316" lon="14.33864">
        <ele>254.451838</ele>
        <time>2022-09-12T08:11:10.297Z</time>
      </trkpt>
      <trkpt lat="48.30524" lon="14.33703">
        <ele>258.70192</ele>
        <time>2022-09-12T08:12:37.557Z</time>
      </trkpt>
      <trkpt lat="48.30588" lon="14.33677">
        <ele>259.841173</ele>
        <time>2022-09-12T08:13:01.159Z</time>
      </trkpt>
      <trkpt lat="48.30738" lon="14.33642">
        <ele>259.603184</ele>
        <time>2022-09-12T08:13:41.914Z</time>
      </trkpt>
      <trkpt lat="48.30827" lon="14.33604">
        <ele>258.707885</ele>
        <time>2022-09-12T08:14:01.527Z</time>
      </trkpt>
      <trkpt lat="48.30858" lon="14.33572">
        <ele>258.132908</ele>
        <time>2022-09-12T08:14:09.757Z</time>
      </trkpt>
      <trkpt lat="48.30874" lon="14.3356">
        <ele>257.860116</ele>
        <time>2022-09-12T08:14:13.602Z</time>
      </trkpt>
      <trkpt lat="48.30885" lon="14.33554">
        <ele>257.680953</ele>
        <time>2022-09-12T08:14:16.225Z</time>
      </trkpt>
      <trkpt lat="48.30998" lon="14.3351">
        <ele>256.475264</ele>
        <time>2022-09-12T08:14:42.289Z</time>
      </trkpt>
      <trkpt lat="48.31082" lon="14.33476">
        <ele>256.134635</ele>
        <time>2022-09-12T08:15:06.689Z</time>
      </trkpt>
      <trkpt lat="48.31349" lon="14.33347">
        <ele>255.47651</ele>
        <time>2022-09-12T08:16:16.428Z</time>
      </trkpt>
      <trkpt lat="48.31415" lon="14.33306">
        <ele>255.728948</ele>
        <time>2022-09-12T08:16:37.110Z</time>
      </trkpt>
      <trkpt lat="48.31661" lon="14.33108">
        <ele>257.937069</ele>
        <time>2022-09-12T08:18:06.785Z</time>
      </trkpt>
      <trkpt lat="48.3166" lon="14.33103">
        <ele>257.940329</ele>
        <time>2022-09-12T08:18:08.217Z</time>
      </trkpt>
      <trkpt lat="48.31693" lon="14.33065">
        <ele>257.980562</ele>
        <time>2022-09-12T08:18:19.665Z</time>
      </trkpt>
      <trkpt lat="48.31861" lon="14.32932">
        <ele>257.520854</ele>
        <time>2022-09-12T08:19:39.350Z</time>
      </trkpt>
      <trkpt lat="48.31901" lon="14.32901">
        <ele>257.291284</ele>
        <time>2022-09-12T08:19:58.289Z</time>
      </trkpt>
      <trkpt lat="48.31937" lon="14.32872">
        <ele>257.127769</ele>
        <time>2022-09-12T08:20:08.313Z</time>
      </trkpt>
      <trkpt lat="48.31954" lon="14.32845">
        <ele>257.111821</ele>
        <time>2022-09-12T08:20:19.221Z</time>
      </trkpt>
      <trkpt lat="48.31996" lon="14.32806">
        <ele>257.080146</ele>
        <time>2022-09-12T08:20:41.164Z</time>
      </trkpt>
      <trkpt lat="48.31954" lon="14.32845">
        <ele>257.048472</ele>
        <time>2022-09-12T08:21:04.077Z</time>
      </trkpt>
      <trkpt lat="48.31937" lon="14.32872">
        <ele>257.032523</ele>
        <time>2022-09-12T08:21:15.182Z</time>
      </trkpt>
      <trkpt lat="48.32024" lon="14.32802">
        <ele>256.681887</ele>
        <time>2022-09-12T08:21:40.544Z</time>
      </trkpt>
      <trkpt lat="48.32149" lon="14.3268">
        <ele>255.750012</ele>
        <time>2022-09-12T08:22:16.649Z</time>
      </trkpt>
      <trkpt lat="48.32243" lon="14.32561">
        <ele>254.467845</ele>
        <time>2022-09-12T08:22:44.058Z</time>
      </trkpt>
      <trkpt lat="48.32316" lon="14.32445">
        <ele>253.972361</ele>
        <time>2022-09-12T08:23:09.442Z</time>
      </trkpt>
      <trkpt lat="48.32325" lon="14.32427">
        <ele>253.908745</ele>
        <time>2022-09-12T08:23:13.529Z</time>
      </trkpt>
      <trkpt lat="48.32357" lon="14.32381">
        <ele>253.727764</ele>
        <time>2022-09-12T08:23:25.128Z</time>
      </trkpt>
      <trkpt lat="48.32375" lon="14.32355">
        <ele>253.634233</ele>
        <time>2022-09-12T08:23:31.980Z</time>
      </trkpt>
      <trkpt lat="48.32377" lon="14.32345">
        <ele>253.648719</ele>
        <time>2022-09-12T08:23:34.011Z</time>
      </trkpt>
      <trkpt lat="48.32392" lon="14.32297">
        <ele>253.722611</ele>
        <time>2022-09-12T08:23:43.847Z</time>
      </trkpt>
      <trkpt lat="48.32457" lon="14.32127">
        <ele>253.997514</ele>
        <time>2022-09-12T08:24:21.246Z</time>
      </trkpt>
      <trkpt lat="48.32458" lon="14.32106">
        <ele>253.966006</ele>
        <time>2022-09-12T08:24:24.737Z</time>
      </trkpt>
      <trkpt lat="48.32473" lon="14.32082">
        <ele>253.858279</ele>
        <time>2022-09-12T08:24:30.137Z</time>
      </trkpt>
      <trkpt lat="48.32505" lon="14.31978">
        <ele>253.468527</ele>
        <time>2022-09-12T08:24:48.577Z</time>
      </trkpt>
      <trkpt lat="48.32538" lon="14.31843">
        <ele>253.003798</ele>
        <time>2022-09-12T08:25:11.372Z</time>
      </trkpt>
      <trkpt lat="48.32575" lon="14.31657">
        <ele>252.467515</ele>
        <time>2022-09-12T08:25:43.614Z</time>
      </trkpt>
      <trkpt lat="48.32595" lon="14.31503">
        <ele>252.299804</ele>
        <time>2022-09-12T08:26:11.193Z</time>
      </trkpt>
      <trkpt lat="48.32596" lon="14.31473">
        <ele>252.28705</ele>
        <time>2022-09-12T08:26:16.410Z</time>
      </trkpt>
      <trkpt lat="48.32597" lon="14.31447">
        <ele>252.275523</ele>
        <time>2022-09-12T08:26:21.177Z</time>
      </trkpt>
      <trkpt lat="48.32604" lon="14.3134">
        <ele>252.234246</ele>
        <time>2022-09-12T08:26:39.848Z</time>
      </trkpt>
      <trkpt lat="48.32608" lon="14.31132">
        <ele>252.293209</ele>
        <time>2022-09-12T08:27:16.737Z</time>
      </trkpt>
      <trkpt lat="48.32598" lon="14.30947">
        <ele>252.751538</ele>
        <time>2022-09-12T08:27:51.399Z</time>
      </trkpt>
      <trkpt lat="48.32583" lon="14.30822">
        <ele>253.183149</ele>
        <time>2022-09-12T08:28:16.828Z</time>
      </trkpt>
      <trkpt lat="48.32556" lon="14.30653">
        <ele>254.290884</ele>
        <time>2022-09-12T08:28:52.600Z</time>
      </trkpt>
      <trkpt lat="48.32508" lon="14.30469">
        <ele>255.355549</ele>
        <time>2022-09-12T08:29:35.051Z</time>
      </trkpt>
      <trkpt lat="48.3246" lon="14.30321">
        <ele>255.992434</ele>
        <time>2022-09-12T08:30:06.533Z</time>
      </trkpt>
      <trkpt lat="48.32411" lon="14.30194">
        <ele>255.76675</ele>
        <time>2022-09-12T08:30:31.817Z</time>
      </trkpt>
      <trkpt lat="48.32336" lon="14.30038">
        <ele>255.244281</ele>
        <time>2022-09-12T08:31:02.854Z</time>
      </trkpt>
      <trkpt lat="48.32274" lon="14.29929">
        <ele>254.702367</ele>
        <time>2022-09-12T08:31:26.773Z</time>
      </trkpt>
      <trkpt lat="48.32234" lon="14.2985">
        <ele>254.286746</ele>
        <time>2022-09-12T08:31:42.222Z</time>
      </trkpt>
      <trkpt lat="48.32226" lon="14.29839">
        <ele>254.198273</ele>
        <time>2022-09-12T08:31:44.707Z</time>
      </trkpt>
      <trkpt lat="48.3217" lon="14.29786">
        <ele>253.650314</ele>
        <time>2022-09-12T08:32:00.238Z</time>
      </trkpt>
      <trkpt lat="48.32158" lon="14.29774">
        <ele>253.527936</ele>
        <time>2022-09-12T08:32:03.684Z</time>
      </trkpt>
      <trkpt lat="48.32127" lon="14.29719">
        <ele>253.132816</ele>
        <time>2022-09-12T08:32:14.839Z</time>
      </trkpt>
      <trkpt lat="48.32033" lon="14.29596">
        <ele>252.927079</ele>
        <time>2022-09-12T08:32:45.705Z</time>
      </trkpt>
      <trkpt lat="48.31978" lon="14.29525">
        <ele>252.930435</ele>
        <time>2022-09-12T08:33:06.636Z</time>
      </trkpt>
      <trkpt lat="48.31952" lon="14.29493">
        <ele>253.09475</ele>
        <time>2022-09-12T08:33:17.020Z</time>
      </trkpt>
      <trkpt lat="48.31944" lon="14.29484">
        <ele>253.162753</ele>
        <time>2022-09-12T08:33:20.470Z</time>
      </trkpt>
      <trkpt lat="48.31934" lon="14.29474">
        <ele>253.240472</ele>
        <time>2022-09-12T08:33:24.667Z</time>
      </trkpt>
      <trkpt lat="48.31875" lon="14.29396">
        <ele>253.747869</ele>
        <time>2022-09-12T08:33:49.356Z</time>
      </trkpt>
      <trkpt lat="48.31868" lon="14.29388">
        <ele>253.805363</ele>
        <time>2022-09-12T08:33:51.719Z</time>
      </trkpt>
      <trkpt lat="48.3183" lon="14.29348">
        <ele>254.092589</ele>
        <time>2022-09-12T08:34:04.292Z</time>
      </trkpt>
      <trkpt lat="48.31802" lon="14.29318">
        <ele>253.986525</ele>
        <time>2022-09-12T08:34:13.186Z</time>
      </trkpt>
      <trkpt lat="48.31761" lon="14.29402">
        <ele>253.773461</ele>
        <time>2022-09-12T08:34:31.253Z</time>
      </trkpt>
      <trkpt lat="48.31746" lon="14.29402">
        <ele>253.727324</ele>
        <time>2022-09-12T08:34:35.292Z</time>
      </trkpt>
      <trkpt lat="48.31649" lon="14.29293">
        <ele>253.35869</ele>
        <time>2022-09-12T08:35:04.045Z</time>
      </trkpt>
      <trkpt lat="48.31636" lon="14.29278">
        <ele>253.309617</ele>
        <time>2022-09-12T08:35:08.132Z</time>
      </trkpt>
      <trkpt lat="48.31591" lon="14.29234">
        <ele>253.14682</ele>
        <time>2022-09-12T08:35:22.402Z</time>
      </trkpt>
      <trkpt lat="48.31492" lon="14.29134">
        <ele>252.995213</ele>
        <time>2022-09-12T08:35:54.248Z</time>
      </trkpt>
      <trkpt lat="48.31422" lon="14.29063">
        <ele>252.989502</ele>
        <time>2022-09-12T08:36:16.907Z</time>
      </trkpt>
      <trkpt lat="48.31176" lon="14.28809">
        <ele>252.92987</ele>
        <time>2022-09-12T08:37:35.892Z</time>
      </trkpt>
      <trkpt lat="48.31121" lon="14.28738">
        <ele>252.92858</ele>
        <time>2022-09-12T08:37:55.157Z</time>
      </trkpt>
      <trkpt lat="48.31116" lon="14.28723">
        <ele>252.928376</ele>
        <time>2022-09-12T08:37:58.063Z</time>
      </trkpt>
      <trkpt lat="48.31107" lon="14.28697">
        <ele>252.972935</ele>
        <time>2022-09-12T08:38:03.522Z</time>
      </trkpt>
      <trkpt lat="48.31073" lon="14.28657">
        <ele>253.081884</ele>
        <time>2022-09-12T08:38:15.287Z</time>
      </trkpt>
      <trkpt lat="48.31033" lon="14.28596">
        <ele>253.227131</ele>
        <time>2022-09-12T08:38:30.891Z</time>
      </trkpt>
      <trkpt lat="48.31011" lon="14.28579">
        <ele>253.291147</ele>
        <time>2022-09-12T08:38:37.826Z</time>
      </trkpt>
      <trkpt lat="48.30991" lon="14.2854">
        <ele>253.374041</ele>
        <time>2022-09-12T08:38:47.645Z</time>
      </trkpt>
      <trkpt lat="48.30981" lon="14.28513">
        <ele>253.686218</ele>
        <time>2022-09-12T08:38:54.113Z</time>
      </trkpt>
      <trkpt lat="48.30953" lon="14.28464">
        <ele>254.476643</ele>
        <time>2022-09-12T08:39:06.244Z</time>
      </trkpt>
      <trkpt lat="48.30931" lon="14.2843">
        <ele>255.05138</ele>
        <time>2022-09-12T08:39:16.562Z</time>
      </trkpt>
      <trkpt lat="48.30919" lon="14.28393">
        <ele>255.563263</ele>
        <time>2022-09-12T08:39:26.333Z</time>
      </trkpt>
      <trkpt lat="48.30906" lon="14.28351">
        <ele>256.13086</ele>
        <time>2022-09-12T08:39:38.477Z</time>
      </trkpt>
      <trkpt lat="48.30901" lon="14.28341">
        <ele>256.271455</ele>
        <time>2022-09-12T08:39:41.794Z</time>
      </trkpt>
      <trkpt lat="48.30899" lon="14.28336">
        <ele>256.353141</ele>
        <time>2022-09-12T08:39:43.668Z</time>
      </trkpt>
      <trkpt lat="48.30887" lon="14.28313">
        <ele>256.712335</ele>
        <time>2022-09-12T08:39:51.705Z</time>
      </trkpt>
      <trkpt lat="48.30877" lon="14.28273">
        <ele>257.789587</ele>
        <time>2022-09-12T08:40:04.443Z</time>
      </trkpt>
      <trkpt lat="48.30878" lon="14.28269">
        <ele>257.905503</ele>
        <time>2022-09-12T08:40:05.980Z</time>
      </trkpt>
      <trkpt lat="48.30891" lon="14.2828">
        <ele>258.469164</ele>
        <time>2022-09-12T08:40:13.516Z</time>
      </trkpt>
      <trkpt lat="48.30899" lon="14.28278">
        <ele>258.790763</ele>
        <time>2022-09-12T08:40:17.591Z</time>
      </trkpt>
      <trkpt lat="48.30899" lon="14.2825">
        <ele>259.495638</ele>
        <time>2022-09-12T08:40:26.766Z</time>
      </trkpt>
      <trkpt lat="48.30917" lon="14.28227">
        <ele>260.394019</ele>
        <time>2022-09-12T08:40:38.375Z</time>
      </trkpt>
      <trkpt lat="48.30926" lon="14.28219">
        <ele>260.791457</ele>
        <time>2022-09-12T08:40:43.726Z</time>
      </trkpt>
      <trkpt lat="48.30999" lon="14.28155">
        <ele>263.477598</ele>
        <time>2022-09-12T08:41:22.043Z</time>
      </trkpt>
      <trkpt lat="48.31005" lon="14.28149">
        <ele>263.411547</ele>
        <time>2022-09-12T08:41:24.860Z</time>
      </trkpt>
      <trkpt lat="48.31018" lon="14.28184">
        <ele>263.187808</ele>
        <time>2022-09-12T08:41:33.100Z</time>
      </trkpt>
      <trkpt lat="48.3102" lon="14.2819">
        <ele>263.151188</ele>
        <time>2022-09-12T08:41:34.352Z</time>
      </trkpt>
      <trkpt lat="48.31038" lon="14.28242">
        <ele>262.814163</ele>
        <time>2022-09-12T08:41:43.540Z</time>
      </trkpt>
      <trkpt lat="48.31048" lon="14.28293">
        <ele>262.514216</ele>
        <time>2022-09-12T08:41:50.633Z</time>
      </trkpt>
      <trkpt lat="48.31047" lon="14.28297">
        <ele>262.492205</ele>
        <time>2022-09-12T08:41:51.130Z</time>
      </trkpt>
      <trkpt lat="48.3098" lon="14.28351">
        <ele>262.004281</ele>
        <time>2022-09-12T08:42:06.217Z</time>
      </trkpt>
      <trkpt lat="48.30931" lon="14.28386">
        <ele>261.924819</ele>
        <time>2022-09-12T08:42:17.506Z</time>
      </trkpt>
      <trkpt lat="48.30921" lon="14.28394">
        <ele>261.908611</ele>
        <time>2022-09-12T08:42:20.704Z</time>
      </trkpt>
      <trkpt lat="48.30718" lon="14.28544">
        <ele>265.540296</ele>
        <time>2022-09-12T08:44:06.476Z</time>
      </trkpt>
      <trkpt lat="48.30691" lon="14.28563">
        <ele>266.362862</ele>
        <time>2022-09-12T08:44:23.223Z</time>
      </trkpt>
      <trkpt lat="48.30689" lon="14.28565">
        <ele>266.437389</ele>
        <time>2022-09-12T08:44:24.426Z</time>
      </trkpt>
      <trkpt lat="48.30683" lon="14.28569">
        <ele>266.6146</ele>
        <time>2022-09-12T08:44:27.162Z</time>
      </trkpt>
      <trkpt lat="48.30677" lon="14.28573">
        <ele>266.781418</ele>
        <time>2022-09-12T08:44:29.897Z</time>
      </trkpt>
      <trkpt lat="48.30676" lon="14.28577">
        <ele>266.843571</ele>
        <time>2022-09-12T08:44:31.335Z</time>
      </trkpt>
      <trkpt lat="48.30658" lon="14.28591">
        <ele>267.21823</ele>
        <time>2022-09-12T08:44:40.813Z</time>
      </trkpt>
      <trkpt lat="48.30656" lon="14.28596">
        <ele>267.293101</ele>
        <time>2022-09-12T08:44:42.468Z</time>
      </trkpt>
      <trkpt lat="48.30642" lon="14.28604">
        <ele>267.574189</ele>
        <time>2022-09-12T08:44:48.724Z</time>
      </trkpt>
      <trkpt lat="48.30611" lon="14.28619">
        <ele>268.187492</ele>
        <time>2022-09-12T08:45:01.902Z</time>
      </trkpt>
      <trkpt lat="48.30601" lon="14.28602">
        <ele>268.477232</ele>
        <time>2022-09-12T08:45:07.924Z</time>
      </trkpt>
      <trkpt lat="48.30564" lon="14.2862">
        <ele>269.194206</ele>
        <time>2022-09-12T08:45:20.488Z</time>
      </trkpt>
      <trkpt lat="48.30527" lon="14.28643">
        <ele>269.951102</ele>
        <time>2022-09-12T08:45:33.020Z</time>
      </trkpt>
      <trkpt lat="48.30564" lon="14.2862">
        <ele>269.739469</ele>
        <time>2022-09-12T08:45:45.260Z</time>
      </trkpt>
      <trkpt lat="48.30601" lon="14.28602">
        <ele>269.251065</ele>
        <time>2022-09-12T08:45:55.423Z</time>
      </trkpt>
      <trkpt lat="48.30611" lon="14.28619">
        <ele>269.053693</ele>
        <time>2022-09-12T08:45:58.879Z</time>
      </trkpt>
      <trkpt lat="48.30602" lon="14.28629">
        <ele>268.915827</ele>
        <time>2022-09-12T08:46:01.780Z</time>
      </trkpt>
      <trkpt lat="48.30604" lon="14.28644">
        <ele>268.792151</ele>
        <time>2022-09-12T08:46:03.833Z</time>
      </trkpt>
      <trkpt lat="48.30613" lon="14.2865">
        <ele>268.660134</ele>
        <time>2022-09-12T08:46:05.887Z</time>
      </trkpt>
      <trkpt lat="48.30611" lon="14.28656">
        <ele>268.606457</ele>
        <time>2022-09-12T08:46:06.784Z</time>
      </trkpt>
      <trkpt lat="48.30612" lon="14.28668">
        <ele>268.500879</ele>
        <time>2022-09-12T08:46:08.685Z</time>
      </trkpt>
      <trkpt lat="48.30637" lon="14.28747">
        <ele>267.740052</ele>
        <time>2022-09-12T08:46:20.844Z</time>
      </trkpt>
      <trkpt lat="48.30648" lon="14.288">
        <ele>267.139777</ele>
        <time>2022-09-12T08:46:28.945Z</time>
      </trkpt>
      <trkpt lat="48.30648" lon="14.28803">
        <ele>267.103142</ele>
        <time>2022-09-12T08:46:29.425Z</time>
      </trkpt>
      <trkpt lat="48.30644" lon="14.28805">
        <ele>267.032725</ele>
        <time>2022-09-12T08:46:30.495Z</time>
      </trkpt>
      <trkpt lat="48.30638" lon="14.28814">
        <ele>266.893101</ele>
        <time>2022-09-12T08:46:32.732Z</time>
      </trkpt>
      <trkpt lat="48.30647" lon="14.28878">
        <ele>266.17854</ele>
        <time>2022-09-12T08:46:42.868Z</time>
      </trkpt>
      <trkpt lat="48.30651" lon="14.289">
        <ele>265.926081</ele>
        <time>2022-09-12T08:46:46.519Z</time>
      </trkpt>
      <trkpt lat="48.30652" lon="14.28908">
        <ele>265.845359</ele>
        <time>2022-09-12T08:46:47.701Z</time>
      </trkpt>
      <trkpt lat="48.30662" lon="14.28952">
        <ele>265.336088</ele>
        <time>2022-09-12T08:46:54.689Z</time>
      </trkpt>
      <trkpt lat="48.30664" lon="14.28957">
        <ele>265.272636</ele>
        <time>2022-09-12T08:46:55.608Z</time>
      </trkpt>
      <trkpt lat="48.30665" lon="14.28963">
        <ele>265.20401</ele>
        <time>2022-09-12T08:46:56.508Z</time>
      </trkpt>
      <trkpt lat="48.30675" lon="14.29031">
        <ele>264.916154</ele>
        <time>2022-09-12T08:47:06.600Z</time>
      </trkpt>
      <trkpt lat="48.30664" lon="14.29122">
        <ele>264.946812</ele>
        <time>2022-09-12T08:47:22.573Z</time>
      </trkpt>
      <trkpt lat="48.30656" lon="14.29181">
        <ele>264.966654</ele>
        <time>2022-09-12T08:47:34.456Z</time>
      </trkpt>
      <trkpt lat="48.30655" lon="14.29194">
        <ele>264.971225</ele>
        <time>2022-09-12T08:47:37.257Z</time>
      </trkpt>
      <trkpt lat="48.3065" lon="14.29194">
        <ele>264.97358</ele>
        <time>2022-09-12T08:47:38.824Z</time>
      </trkpt>
      <trkpt lat="48.30594" lon="14.29215">
        <ele>265.113989</ele>
        <time>2022-09-12T08:47:57.416Z</time>
      </trkpt>
      <trkpt lat="48.30591" lon="14.29216">
        <ele>265.131363</ele>
        <time>2022-09-12T08:47:58.249Z</time>
      </trkpt>
      <trkpt lat="48.30588" lon="14.2922">
        <ele>265.156782</ele>
        <time>2022-09-12T08:47:59.601Z</time>
      </trkpt>
      <trkpt lat="48.30588" lon="14.29223">
        <ele>265.169186</ele>
        <time>2022-09-12T08:48:00.288Z</time>
      </trkpt>
      <trkpt lat="48.30592" lon="14.29242">
        <ele>265.245582</ele>
        <time>2022-09-12T08:48:04.532Z</time>
      </trkpt>
      <trkpt lat="48.30594" lon="14.29253">
        <ele>265.288445</ele>
        <time>2022-09-12T08:48:06.968Z</time>
      </trkpt>
      <trkpt lat="48.30599" lon="14.29283">
        <ele>265.406227</ele>
        <time>2022-09-12T08:48:12.997Z</time>
      </trkpt>
      <trkpt lat="48.30599" lon="14.29287">
        <ele>265.42249</ele>
        <time>2022-09-12T08:48:13.825Z</time>
      </trkpt>
      <trkpt lat="48.30596" lon="14.29288">
        <ele>265.440597</ele>
        <time>2022-09-12T08:48:14.766Z</time>
      </trkpt>
      <trkpt lat="48.30582" lon="14.29291">
        <ele>265.521881</ele>
        <time>2022-09-12T08:48:19.075Z</time>
      </trkpt>
      <trkpt lat="48.30576" lon="14.29293">
        <ele>265.558725</ele>
        <time>2022-09-12T08:48:20.886Z</time>
      </trkpt>
      <trkpt lat="48.30548" lon="14.29299">
        <ele>265.721294</ele>
        <time>2022-09-12T08:48:29.633Z</time>
      </trkpt>
      <trkpt lat="48.30498" lon="14.29312">
        <ele>266.015781</ele>
        <time>2022-09-12T08:48:44.629Z</time>
      </trkpt>
      <trkpt lat="48.30497" lon="14.29312">
        <ele>266.024012</ele>
        <time>2022-09-12T08:48:45.056Z</time>
      </trkpt>
      <trkpt lat="48.30493" lon="14.29313">
        <ele>266.024188</ele>
        <time>2022-09-12T08:48:46.109Z</time>
      </trkpt>
      <trkpt lat="48.30489" lon="14.29314">
        <ele>266.012329</ele>
        <time>2022-09-12T08:48:47.335Z</time>
      </trkpt>
      <trkpt lat="48.30488" lon="14.29314">
        <ele>266.008574</ele>
        <time>2022-09-12T08:48:47.741Z</time>
      </trkpt>
      <trkpt lat="48.30412" lon="14.29332">
        <ele>265.791099</ele>
        <time>2022-09-12T08:49:09.487Z</time>
      </trkpt>
      <trkpt lat="48.30406" lon="14.29335">
        <ele>265.771192</ele>
        <time>2022-09-12T08:49:11.389Z</time>
      </trkpt>
      <trkpt lat="48.30402" lon="14.29337">
        <ele>265.7608</ele>
        <time>2022-09-12T08:49:12.300Z</time>
      </trkpt>
      <trkpt lat="48.30398" lon="14.29339">
        <ele>265.748932</ele>
        <time>2022-09-12T08:49:13.274Z</time>
      </trkpt>
      <trkpt lat="48.30375" lon="14.29347">
        <ele>265.680939</ele>
        <time>2022-09-12T08:49:18.747Z</time>
      </trkpt>
      <trkpt lat="48.30362" lon="14.29352">
        <ele>265.642949</ele>
        <time>2022-09-12T08:49:21.940Z</time>
      </trkpt>
      <trkpt lat="48.30358" lon="14.29354">
        <ele>265.63037</ele>
        <time>2022-09-12T08:49:22.986Z</time>
      </trkpt>
      <trkpt lat="48.30283" lon="14.29389">
        <ele>265.351059</ele>
        <time>2022-09-12T08:49:41.805Z</time>
      </trkpt>
      <trkpt lat="48.30281" lon="14.2939">
        <ele>265.341723</ele>
        <time>2022-09-12T08:49:42.360Z</time>
      </trkpt>
      <trkpt lat="48.30278" lon="14.29391">
        <ele>265.329706</ele>
        <time>2022-09-12T08:49:43.079Z</time>
      </trkpt>
      <trkpt lat="48.30189" lon="14.29436">
        <ele>264.930949</ele>
        <time>2022-09-12T08:50:06.998Z</time>
      </trkpt>
      <trkpt lat="48.30184" lon="14.29439">
        <ele>264.908924</ele>
        <time>2022-09-12T08:50:08.307Z</time>
      </trkpt>
      <trkpt lat="48.3018" lon="14.29441">
        <ele>264.891764</ele>
        <time>2022-09-12T08:50:09.324Z</time>
      </trkpt>
      <trkpt lat="48.30177" lon="14.29443">
        <ele>264.87996</ele>
        <time>2022-09-12T08:50:09.980Z</time>
      </trkpt>
      <trkpt lat="48.30164" lon="14.2945">
        <ele>264.819752</ele>
        <time>2022-09-12T08:50:13.564Z</time>
      </trkpt>
      <trkpt lat="48.30128" lon="14.2947">
        <ele>264.81097</ele>
        <time>2022-09-12T08:50:23.468Z</time>
      </trkpt>
      <trkpt lat="48.30124" lon="14.29472">
        <ele>264.819515</ele>
        <time>2022-09-12T08:50:24.425Z</time>
      </trkpt>
      <trkpt lat="48.30121" lon="14.29473">
        <ele>264.827832</ele>
        <time>2022-09-12T08:50:25.328Z</time>
      </trkpt>
      <trkpt lat="48.30118" lon="14.29474">
        <ele>264.834942</ele>
        <time>2022-09-12T08:50:26.088Z</time>
      </trkpt>
      <trkpt lat="48.30115" lon="14.29474">
        <ele>264.842071</ele>
        <time>2022-09-12T08:50:26.859Z</time>
      </trkpt>
      <trkpt lat="48.30108" lon="14.29475">
        <ele>264.856696</ele>
        <time>2022-09-12T08:50:28.458Z</time>
      </trkpt>
      <trkpt lat="48.30091" lon="14.29483">
        <ele>264.900737</ele>
        <time>2022-09-12T08:50:33.803Z</time>
      </trkpt>
      <trkpt lat="48.30076" lon="14.29492">
        <ele>264.938276</ele>
        <time>2022-09-12T08:50:38.196Z</time>
      </trkpt>
      <trkpt lat="48.30057" lon="14.29502">
        <ele>264.984748</ele>
        <time>2022-09-12T08:50:43.978Z</time>
      </trkpt>
      <trkpt lat="48.30042" lon="14.29513">
        <ele>265.023894</ele>
        <time>2022-09-12T08:50:48.655Z</time>
      </trkpt>
      <trkpt lat="48.30037" lon="14.29518">
        <ele>265.038867</ele>
        <time>2022-09-12T08:50:50.562Z</time>
      </trkpt>
      <trkpt lat="48.30034" lon="14.29522">
        <ele>265.047812</ele>
        <time>2022-09-12T08:50:51.681Z</time>
      </trkpt>
      <trkpt lat="48.30031" lon="14.29526">
        <ele>265.057615</ele>
        <time>2022-09-12T08:50:52.924Z</time>
      </trkpt>
      <trkpt lat="48.30028" lon="14.29529">
        <ele>265.065451</ele>
        <time>2022-09-12T08:50:53.939Z</time>
      </trkpt>
      <trkpt lat="48.30027" lon="14.2953">
        <ele>265.069037</ele>
        <time>2022-09-12T08:50:54.385Z</time>
      </trkpt>
      <trkpt lat="48.30011" lon="14.29539">
        <ele>265.109502</ele>
        <time>2022-09-12T08:50:59.337Z</time>
      </trkpt>
      <trkpt lat="48.2999" lon="14.29551">
        <ele>265.160826</ele>
        <time>2022-09-12T08:51:05.907Z</time>
      </trkpt>
      <trkpt lat="48.29947" lon="14.29577">
        <ele>265.21445</ele>
        <time>2022-09-12T08:51:19.228Z</time>
      </trkpt>
      <trkpt lat="48.29943" lon="14.29579">
        <ele>265.218369</ele>
        <time>2022-09-12T08:51:20.468Z</time>
      </trkpt>
      <trkpt lat="48.29937" lon="14.29582">
        <ele>265.223727</ele>
        <time>2022-09-12T08:51:22.268Z</time>
      </trkpt>
      <trkpt lat="48.29849" lon="14.29633">
        <ele>265.308745</ele>
        <time>2022-09-12T08:51:49.859Z</time>
      </trkpt>
      <trkpt lat="48.29844" lon="14.29636">
        <ele>265.3137</ele>
        <time>2022-09-12T08:51:51.297Z</time>
      </trkpt>
      <trkpt lat="48.29841" lon="14.29638">
        <ele>265.316813</ele>
        <time>2022-09-12T08:51:52.186Z</time>
      </trkpt>
      <trkpt lat="48.29812" lon="14.29655">
        <ele>265.290409</ele>
        <time>2022-09-12T08:52:00.346Z</time>
      </trkpt>
      <trkpt lat="48.29752" lon="14.2969">
        <ele>264.551776</ele>
        <time>2022-09-12T08:52:15.859Z</time>
      </trkpt>
      <trkpt lat="48.29746" lon="14.29693">
        <ele>264.488876</ele>
        <time>2022-09-12T08:52:17.117Z</time>
      </trkpt>
      <trkpt lat="48.29742" lon="14.29696">
        <ele>264.434576</ele>
        <time>2022-09-12T08:52:18.182Z</time>
      </trkpt>
      <trkpt lat="48.29676" lon="14.29734">
        <ele>263.625512</ele>
        <time>2022-09-12T08:52:34.486Z</time>
      </trkpt>
      <trkpt lat="48.29672" lon="14.29737">
        <ele>263.568513</ele>
        <time>2022-09-12T08:52:35.694Z</time>
      </trkpt>
      <trkpt lat="48.29667" lon="14.29739">
        <ele>263.514213</ele>
        <time>2022-09-12T08:52:36.841Z</time>
      </trkpt>
      <trkpt lat="48.29619" lon="14.29767">
        <ele>263.034804</ele>
        <time>2022-09-12T08:52:48.918Z</time>
      </trkpt>
      <trkpt lat="48.29607" lon="14.29734">
        <ele>262.839222</ele>
        <time>2022-09-12T08:52:54.779Z</time>
      </trkpt>
      <trkpt lat="48.2958" lon="14.29658">
        <ele>262.389301</ele>
        <time>2022-09-12T08:53:08.798Z</time>
      </trkpt>
      <trkpt lat="48.29576" lon="14.29648">
        <ele>262.327407</ele>
        <time>2022-09-12T08:53:10.930Z</time>
      </trkpt>
      <trkpt lat="48.29574" lon="14.29642">
        <ele>262.293652</ele>
        <time>2022-09-12T08:53:12.017Z</time>
      </trkpt>
      <trkpt lat="48.29573" lon="14.29637">
        <ele>262.268287</ele>
        <time>2022-09-12T08:53:12.863Z</time>
      </trkpt>
      <trkpt lat="48.29564" lon="14.29643">
        <ele>262.195629</ele>
        <time>2022-09-12T08:53:15.394Z</time>
      </trkpt>
      <trkpt lat="48.29554" lon="14.29648">
        <ele>262.112941</ele>
        <time>2022-09-12T08:53:18.122Z</time>
      </trkpt>
      <trkpt lat="48.29551" lon="14.29648">
        <ele>262.088686</ele>
        <time>2022-09-12T08:53:19.004Z</time>
      </trkpt>
      <trkpt lat="48.29548" lon="14.29648">
        <ele>262.061321</ele>
        <time>2022-09-12T08:53:19.983Z</time>
      </trkpt>
      <trkpt lat="48.29541" lon="14.29659">
        <ele>261.982948</ele>
        <time>2022-09-12T08:53:22.525Z</time>
      </trkpt>
      <trkpt lat="48.2951" lon="14.29696">
        <ele>261.802469</ele>
        <time>2022-09-12T08:53:33.036Z</time>
      </trkpt>
      <trkpt lat="48.29509" lon="14.29697">
        <ele>261.799928</ele>
        <time>2022-09-12T08:53:33.319Z</time>
      </trkpt>
      <trkpt lat="48.29506" lon="14.297">
        <ele>261.789186</ele>
        <time>2022-09-12T08:53:34.413Z</time>
      </trkpt>
      <trkpt lat="48.29509" lon="14.29707">
        <ele>261.77274</ele>
        <time>2022-09-12T08:53:35.961Z</time>
      </trkpt>
      <trkpt lat="48.29506" lon="14.29712">
        <ele>261.76048</ele>
        <time>2022-09-12T08:53:37.212Z</time>
      </trkpt>
      <trkpt lat="48.29497" lon="14.29722">
        <ele>261.730754</ele>
        <time>2022-09-12T08:53:40.238Z</time>
      </trkpt>
      <trkpt lat="48.29475" lon="14.29756">
        <ele>261.648254</ele>
        <time>2022-09-12T08:53:48.395Z</time>
      </trkpt>
      <trkpt lat="48.29471" lon="14.29747">
        <ele>261.628605</ele>
        <time>2022-09-12T08:53:50.216Z</time>
      </trkpt>
      <trkpt lat="48.29464" lon="14.29759">
        <ele>261.600221</ele>
        <time>2022-09-12T08:53:53.135Z</time>
      </trkpt>
      <trkpt lat="48.29444" lon="14.29795">
        <ele>261.518247</ele>
        <time>2022-09-12T08:54:01.112Z</time>
      </trkpt>
      <trkpt lat="48.29393" lon="14.29843">
        <ele>261.357889</ele>
        <time>2022-09-12T08:54:16.935Z</time>
      </trkpt>
      <trkpt lat="48.29389" lon="14.29846">
        <ele>261.347089</ele>
        <time>2022-09-12T08:54:17.973Z</time>
      </trkpt>
      <trkpt lat="48.29385" lon="14.29851">
        <ele>261.333152</ele>
        <time>2022-09-12T08:54:19.388Z</time>
      </trkpt>
      <trkpt lat="48.29382" lon="14.29853">
        <ele>261.323645</ele>
        <time>2022-09-12T08:54:20.378Z</time>
      </trkpt>
      <trkpt lat="48.29293" lon="14.29936">
        <ele>261.042312</ele>
        <time>2022-09-12T08:54:47.848Z</time>
      </trkpt>
      <trkpt lat="48.29292" lon="14.29937">
        <ele>261.039174</ele>
        <time>2022-09-12T08:54:48.133Z</time>
      </trkpt>
      <trkpt lat="48.29291" lon="14.29938">
        <ele>261.036682</ele>
        <time>2022-09-12T08:54:48.364Z</time>
      </trkpt>
      <trkpt lat="48.29288" lon="14.29941">
        <ele>261.025882</ele>
        <time>2022-09-12T08:54:49.403Z</time>
      </trkpt>
      <trkpt lat="48.29283" lon="14.29945">
        <ele>261.010652</ele>
        <time>2022-09-12T08:54:50.894Z</time>
      </trkpt>
      <trkpt lat="48.2928" lon="14.29948">
        <ele>261.000269</ele>
        <time>2022-09-12T08:54:51.893Z</time>
      </trkpt>
      <trkpt lat="48.29229" lon="14.29996">
        <ele>261.084563</ele>
        <time>2022-09-12T08:55:08.344Z</time>
      </trkpt>
      <trkpt lat="48.29223" lon="14.3">
        <ele>261.125472</ele>
        <time>2022-09-12T08:55:10.149Z</time>
      </trkpt>
      <trkpt lat="48.29211" lon="14.30012">
        <ele>261.217223</ele>
        <time>2022-09-12T08:55:14.345Z</time>
      </trkpt>
      <trkpt lat="48.2918" lon="14.3004">
        <ele>261.461084</ele>
        <time>2022-09-12T08:55:25.401Z</time>
      </trkpt>
      <trkpt lat="48.29177" lon="14.30043">
        <ele>261.480918</ele>
        <time>2022-09-12T08:55:26.309Z</time>
      </trkpt>
      <trkpt lat="48.29169" lon="14.30055">
        <ele>261.5591</ele>
        <time>2022-09-12T08:55:29.808Z</time>
      </trkpt>
      <trkpt lat="48.29162" lon="14.30065">
        <ele>261.618402</ele>
        <time>2022-09-12T08:55:32.622Z</time>
      </trkpt>
      <trkpt lat="48.29089" lon="14.30136">
        <ele>262.221942</ele>
        <time>2022-09-12T08:56:01.602Z</time>
      </trkpt>
      <trkpt lat="48.29063" lon="14.30158">
        <ele>262.467996</ele>
        <time>2022-09-12T08:56:11.116Z</time>
      </trkpt>
      <trkpt lat="48.2905" lon="14.30167">
        <ele>262.584682</ele>
        <time>2022-09-12T08:56:15.649Z</time>
      </trkpt>
      <trkpt lat="48.29041" lon="14.30171">
        <ele>262.661761</ele>
        <time>2022-09-12T08:56:18.554Z</time>
      </trkpt>
      <trkpt lat="48.29036" lon="14.30173">
        <ele>262.708867</ele>
        <time>2022-09-12T08:56:20.485Z</time>
      </trkpt>
      <trkpt lat="48.29029" lon="14.30174">
        <ele>262.771271</ele>
        <time>2022-09-12T08:56:22.960Z</time>
      </trkpt>
      <trkpt lat="48.28962" lon="14.30173">
        <ele>263.32471</ele>
        <time>2022-09-12T08:56:43.653Z</time>
      </trkpt>
      <trkpt lat="48.28951" lon="14.30173">
        <ele>263.419881</ele>
        <time>2022-09-12T08:56:47.050Z</time>
      </trkpt>
      <trkpt lat="48.28933" lon="14.30173">
        <ele>263.56931</ele>
        <time>2022-09-12T08:56:52.100Z</time>
      </trkpt>
      <trkpt lat="48.28915" lon="14.30172">
        <ele>263.637566</ele>
        <time>2022-09-12T08:56:57.431Z</time>
      </trkpt>
      <trkpt lat="48.28885" lon="14.30172">
        <ele>263.724377</ele>
        <time>2022-09-12T08:57:06.626Z</time>
      </trkpt>
      <trkpt lat="48.28855" lon="14.3018">
        <ele>263.813137</ele>
        <time>2022-09-12T08:57:16.248Z</time>
      </trkpt>
      <trkpt lat="48.2885" lon="14.30184">
        <ele>263.82702</ele>
        <time>2022-09-12T08:57:17.716Z</time>
      </trkpt>
      <trkpt lat="48.28834" lon="14.30198">
        <ele>263.881879</ele>
        <time>2022-09-12T08:57:23.396Z</time>
      </trkpt>
      <trkpt lat="48.28829" lon="14.30202">
        <ele>263.899561</ele>
        <time>2022-09-12T08:57:25.264Z</time>
      </trkpt>
      <trkpt lat="48.28822" lon="14.30207">
        <ele>263.920776</ele>
        <time>2022-09-12T08:57:27.434Z</time>
      </trkpt>
      <trkpt lat="48.28821" lon="14.30208">
        <ele>263.92484</ele>
        <time>2022-09-12T08:57:27.836Z</time>
      </trkpt>
      <trkpt lat="48.28806" lon="14.30215">
        <ele>263.970618</ele>
        <time>2022-09-12T08:57:32.272Z</time>
      </trkpt>
      <trkpt lat="48.28775" lon="14.30215">
        <ele>264.058</ele>
        <time>2022-09-12T08:57:40.757Z</time>
      </trkpt>
      <trkpt lat="48.28758" lon="14.30215">
        <ele>264.108932</ele>
        <time>2022-09-12T08:57:45.611Z</time>
      </trkpt>
      <trkpt lat="48.2874" lon="14.30214">
        <ele>264.018461</ele>
        <time>2022-09-12T08:57:50.407Z</time>
      </trkpt>
      <trkpt lat="48.28721" lon="14.30214">
        <ele>263.907157</ele>
        <time>2022-09-12T08:57:55.340Z</time>
      </trkpt>
      <trkpt lat="48.28709" lon="14.30213">
        <ele>263.833745</ele>
        <time>2022-09-12T08:57:58.574Z</time>
      </trkpt>
      <trkpt lat="48.28701" lon="14.3021">
        <ele>263.784362</ele>
        <time>2022-09-12T08:58:00.626Z</time>
      </trkpt>
      <trkpt lat="48.28692" lon="14.30207">
        <ele>263.734404</ele>
        <time>2022-09-12T08:58:02.742Z</time>
      </trkpt>
      <trkpt lat="48.28687" lon="14.30206">
        <ele>263.703394</ele>
        <time>2022-09-12T08:58:04.049Z</time>
      </trkpt>
      <trkpt lat="48.28655" lon="14.30207">
        <ele>263.509131</ele>
        <time>2022-09-12T08:58:12.177Z</time>
      </trkpt>
      <trkpt lat="48.28636" lon="14.30207">
        <ele>263.401981</ele>
        <time>2022-09-12T08:58:16.734Z</time>
      </trkpt>
      <trkpt lat="48.28595" lon="14.30205">
        <ele>263.159208</ele>
        <time>2022-09-12T08:58:26.848Z</time>
      </trkpt>
      <trkpt lat="48.28587" lon="14.30205">
        <ele>263.110628</ele>
        <time>2022-09-12T08:58:28.901Z</time>
      </trkpt>
      <trkpt lat="48.28566" lon="14.30204">
        <ele>263.020313</ele>
        <time>2022-09-12T08:58:34.274Z</time>
      </trkpt>
      <trkpt lat="48.28557" lon="14.30203">
        <ele>262.997959</ele>
        <time>2022-09-12T08:58:36.374Z</time>
      </trkpt>
      <trkpt lat="48.28554" lon="14.30203">
        <ele>262.989356</ele>
        <time>2022-09-12T08:58:37.174Z</time>
      </trkpt>
      <trkpt lat="48.28549" lon="14.30202">
        <ele>262.977044</ele>
        <time>2022-09-12T08:58:38.305Z</time>
      </trkpt>
      <trkpt lat="48.28542" lon="14.302">
        <ele>262.957729</ele>
        <time>2022-09-12T08:58:40.050Z</time>
      </trkpt>
      <trkpt lat="48.28535" lon="14.30196">
        <ele>262.938689</ele>
        <time>2022-09-12T08:58:41.820Z</time>
      </trkpt>
      <trkpt lat="48.28534" lon="14.30193">
        <ele>262.932614</ele>
        <time>2022-09-12T08:58:42.394Z</time>
      </trkpt>
      <trkpt lat="48.28533" lon="14.30187">
        <ele>262.922847</ele>
        <time>2022-09-12T08:58:43.331Z</time>
      </trkpt>
      <trkpt lat="48.28531" lon="14.3018">
        <ele>262.909614</ele>
        <time>2022-09-12T08:58:44.605Z</time>
      </trkpt>
      <trkpt lat="48.2853" lon="14.3018">
        <ele>262.906491</ele>
        <time>2022-09-12T08:58:44.914Z</time>
      </trkpt>
      <trkpt lat="48.2852" lon="14.30183">
        <ele>262.880569</ele>
        <time>2022-09-12T08:58:47.304Z</time>
      </trkpt>
      <trkpt lat="48.28516" lon="14.30184">
        <ele>262.870694</ele>
        <time>2022-09-12T08:58:48.204Z</time>
      </trkpt>
      <trkpt lat="48.28512" lon="14.30187">
        <ele>262.859743</ele>
        <time>2022-09-12T08:58:49.221Z</time>
      </trkpt>
      <trkpt lat="48.28508" lon="14.30189">
        <ele>262.849637</ele>
        <time>2022-09-12T08:58:50.170Z</time>
      </trkpt>
      <trkpt lat="48.28466" lon="14.30214">
        <ele>262.730058</ele>
        <time>2022-09-12T08:59:01.454Z</time>
      </trkpt>
      <trkpt lat="48.28424" lon="14.30235">
        <ele>262.614732</ele>
        <time>2022-09-12T08:59:13.106Z</time>
      </trkpt>
      <trkpt lat="48.28406" lon="14.30241">
        <ele>262.62361</ele>
        <time>2022-09-12T08:59:18.436Z</time>
      </trkpt>
      <trkpt lat="48.28394" lon="14.3025">
        <ele>262.724883</ele>
        <time>2022-09-12T08:59:22.766Z</time>
      </trkpt>
      <trkpt lat="48.28364" lon="14.3026">
        <ele>262.95596</ele>
        <time>2022-09-12T08:59:32.986Z</time>
      </trkpt>
      <trkpt lat="48.28354" lon="14.30263">
        <ele>263.028133</ele>
        <time>2022-09-12T08:59:36.410Z</time>
      </trkpt>
      <trkpt lat="48.28328" lon="14.30272">
        <ele>263.232504</ele>
        <time>2022-09-12T08:59:45.493Z</time>
      </trkpt>
      <trkpt lat="48.28322" lon="14.30274">
        <ele>263.277022</ele>
        <time>2022-09-12T08:59:47.487Z</time>
      </trkpt>
      <trkpt lat="48.2828" lon="14.30288">
        <ele>263.596728</ele>
        <time>2022-09-12T09:00:00.791Z</time>
      </trkpt>
      <trkpt lat="48.28278" lon="14.30289">
        <ele>263.616631</ele>
        <time>2022-09-12T09:00:01.578Z</time>
      </trkpt>
      <trkpt lat="48.28274" lon="14.3029">
        <ele>263.645858</ele>
        <time>2022-09-12T09:00:02.695Z</time>
      </trkpt>
      <trkpt lat="48.2827" lon="14.30291">
        <ele>263.678122</ele>
        <time>2022-09-12T09:00:03.895Z</time>
      </trkpt>
      <trkpt lat="48.28267" lon="14.30292">
        <ele>263.695097</ele>
        <time>2022-09-12T09:00:04.527Z</time>
      </trkpt>
      <trkpt lat="48.28238" lon="14.30302">
        <ele>263.921781</ele>
        <time>2022-09-12T09:00:12.629Z</time>
      </trkpt>
      <trkpt lat="48.28212" lon="14.30311">
        <ele>264.079293</ele>
        <time>2022-09-12T09:00:19.605Z</time>
      </trkpt>
      <trkpt lat="48.28209" lon="14.30312">
        <ele>264.098353</ele>
        <time>2022-09-12T09:00:20.503Z</time>
      </trkpt>
      <trkpt lat="48.28206" lon="14.30313">
        <ele>264.115137</ele>
        <time>2022-09-12T09:00:21.258Z</time>
      </trkpt>
      <trkpt lat="48.28195" lon="14.30317">
        <ele>264.177942</ele>
        <time>2022-09-12T09:00:24.072Z</time>
      </trkpt>
      <trkpt lat="48.28188" lon="14.30319">
        <ele>264.219812</ele>
        <time>2022-09-12T09:00:25.951Z</time>
      </trkpt>
      <trkpt lat="48.28147" lon="14.30343">
        <ele>264.476128</ele>
        <time>2022-09-12T09:00:38.223Z</time>
      </trkpt>
      <trkpt lat="48.28107" lon="14.30387">
        <ele>264.769197</ele>
        <time>2022-09-12T09:00:53.968Z</time>
      </trkpt>
      <trkpt lat="48.28051" lon="14.30453">
        <ele>265.371097</ele>
        <time>2022-09-12T09:01:16.368Z</time>
      </trkpt>
      <trkpt lat="48.28014" lon="14.30498">
        <ele>265.907153</ele>
        <time>2022-09-12T09:01:31.795Z</time>
      </trkpt>
      <trkpt lat="48.28006" lon="14.30507">
        <ele>266.019553</ele>
        <time>2022-09-12T09:01:34.983Z</time>
      </trkpt>
      <trkpt lat="48.28004" lon="14.3051">
        <ele>266.057971</ele>
        <time>2022-09-12T09:01:36.058Z</time>
      </trkpt>
      <trkpt lat="48.27997" lon="14.30518">
        <ele>266.150598</ele>
        <time>2022-09-12T09:01:38.627Z</time>
      </trkpt>
      <trkpt lat="48.27993" lon="14.30523">
        <ele>266.211163</ele>
        <time>2022-09-12T09:01:40.441Z</time>
      </trkpt>
      <trkpt lat="48.27984" lon="14.30535">
        <ele>266.349429</ele>
        <time>2022-09-12T09:01:44.604Z</time>
      </trkpt>
      <trkpt lat="48.27966" lon="14.30558">
        <ele>266.615082</ele>
        <time>2022-09-12T09:01:52.079Z</time>
      </trkpt>
      <trkpt lat="48.27963" lon="14.30562">
        <ele>266.663901</ele>
        <time>2022-09-12T09:01:53.579Z</time>
      </trkpt>
      <trkpt lat="48.27959" lon="14.30566">
        <ele>266.71535</ele>
        <time>2022-09-12T09:01:55.155Z</time>
      </trkpt>
      <trkpt lat="48.27916" lon="14.30618">
        <ele>267.164833</ele>
        <time>2022-09-12T09:02:12.507Z</time>
      </trkpt>
      <trkpt lat="48.27901" lon="14.30632">
        <ele>267.260648</ele>
        <time>2022-09-12T09:02:18.607Z</time>
      </trkpt>
      <trkpt lat="48.2788" lon="14.30654">
        <ele>267.401203</ele>
        <time>2022-09-12T09:02:26.953Z</time>
      </trkpt>
      <trkpt lat="48.2787" lon="14.30664">
        <ele>267.463066</ele>
        <time>2022-09-12T09:02:30.736Z</time>
      </trkpt>
      <trkpt lat="48.27874" lon="14.30671">
        <ele>267.493605</ele>
        <time>2022-09-12T09:02:32.361Z</time>
      </trkpt>
      <trkpt lat="48.27875" lon="14.30676">
        <ele>267.513914</ele>
        <time>2022-09-12T09:02:33.478Z</time>
      </trkpt>
      <trkpt lat="48.27828" lon="14.30757">
        <ele>267.898291</ele>
        <time>2022-09-12T09:02:53.322Z</time>
      </trkpt>
      <trkpt lat="48.27785" lon="14.30828">
        <ele>267.317624</ele>
        <time>2022-09-12T09:03:08.385Z</time>
      </trkpt>
      <trkpt lat="48.27779" lon="14.30832">
        <ele>267.224415</ele>
        <time>2022-09-12T09:03:09.869Z</time>
      </trkpt>
      <trkpt lat="48.27776" lon="14.3083">
        <ele>267.1712</ele>
        <time>2022-09-12T09:03:10.732Z</time>
      </trkpt>
      <trkpt lat="48.27759" lon="14.30867">
        <ele>266.768089</ele>
        <time>2022-09-12T09:03:17.426Z</time>
      </trkpt>
      <trkpt lat="48.27695" lon="14.31003">
        <ele>265.119445</ele>
        <time>2022-09-12T09:03:41.436Z</time>
      </trkpt>
      <trkpt lat="48.27655" lon="14.31075">
        <ele>263.89557</ele>
        <time>2022-09-12T09:03:53.828Z</time>
      </trkpt>
      <trkpt lat="48.27619" lon="14.31114">
        <ele>263.036828</ele>
        <time>2022-09-12T09:04:02.883Z</time>
      </trkpt>
      <trkpt lat="48.27601" lon="14.31126">
        <ele>262.639977</ele>
        <time>2022-09-12T09:04:07.142Z</time>
      </trkpt>
      <trkpt lat="48.27595" lon="14.31126">
        <ele>262.522376</ele>
        <time>2022-09-12T09:04:08.580Z</time>
      </trkpt>
      <trkpt lat="48.27592" lon="14.31128">
        <ele>262.456278</ele>
        <time>2022-09-12T09:04:09.381Z</time>
      </trkpt>
      <trkpt lat="48.27586" lon="14.31131">
        <ele>262.341148</ele>
        <time>2022-09-12T09:04:10.760Z</time>
      </trkpt>
      <trkpt lat="48.27576" lon="14.31137">
        <ele>262.13289</ele>
        <time>2022-09-12T09:04:13.168Z</time>
      </trkpt>
      <trkpt lat="48.27571" lon="14.31144">
        <ele>261.994867</ele>
        <time>2022-09-12T09:04:14.711Z</time>
      </trkpt>
      <trkpt lat="48.27557" lon="14.3115">
        <ele>261.911347</ele>
        <time>2022-09-12T09:04:18.542Z</time>
      </trkpt>
      <trkpt lat="48.27499" lon="14.31167">
        <ele>261.622982</ele>
        <time>2022-09-12T09:04:33.275Z</time>
      </trkpt>
      <trkpt lat="48.27486" lon="14.31172">
        <ele>261.559056</ele>
        <time>2022-09-12T09:04:37.043Z</time>
      </trkpt>
      <trkpt lat="48.27482" lon="14.31173">
        <ele>261.537042</ele>
        <time>2022-09-12T09:04:38.229Z</time>
      </trkpt>
      <trkpt lat="48.27475" lon="14.31176">
        <ele>261.506136</ele>
        <time>2022-09-12T09:04:39.791Z</time>
      </trkpt>
      <trkpt lat="48.27466" lon="14.31181">
        <ele>261.45945</ele>
        <time>2022-09-12T09:04:42.051Z</time>
      </trkpt>
      <trkpt lat="48.274" lon="14.3122">
        <ele>261.115563</ele>
        <time>2022-09-12T09:05:00.237Z</time>
      </trkpt>
      <trkpt lat="48.27343" lon="14.31261">
        <ele>260.475368</ele>
        <time>2022-09-12T09:05:15.583Z</time>
      </trkpt>
      <trkpt lat="48.27344" lon="14.3127">
        <ele>260.410545</ele>
        <time>2022-09-12T09:05:17.094Z</time>
      </trkpt>
      <trkpt lat="48.2735" lon="14.31286">
        <ele>260.285001</ele>
        <time>2022-09-12T09:05:19.863Z</time>
      </trkpt>
      <trkpt lat="48.27349" lon="14.31289">
        <ele>260.266744</ele>
        <time>2022-09-12T09:05:20.289Z</time>
      </trkpt>
      <trkpt lat="48.27345" lon="14.31299">
        <ele>260.190512</ele>
        <time>2022-09-12T09:05:22.045Z</time>
      </trkpt>
      <trkpt lat="48.27341" lon="14.31312">
        <ele>260.08734</ele>
        <time>2022-09-12T09:05:24.396Z</time>
      </trkpt>
      <trkpt lat="48.27334" lon="14.31338">
        <ele>259.896298</ele>
        <time>2022-09-12T09:05:28.554Z</time>
      </trkpt>
      <trkpt lat="48.27332" lon="14.31343">
        <ele>259.853894</ele>
        <time>2022-09-12T09:05:29.490Z</time>
      </trkpt>
      <trkpt lat="48.2732" lon="14.31383">
        <ele>259.561164</ele>
        <time>2022-09-12T09:05:35.765Z</time>
      </trkpt>
      <trkpt lat="48.27318" lon="14.31387">
        <ele>259.522339</ele>
        <time>2022-09-12T09:05:36.585Z</time>
      </trkpt>
      <trkpt lat="48.27311" lon="14.31395">
        <ele>259.432329</ele>
        <time>2022-09-12T09:05:38.523Z</time>
      </trkpt>
      <trkpt lat="48.27295" lon="14.31403">
        <ele>259.260017</ele>
        <time>2022-09-12T09:05:42.133Z</time>
      </trkpt>
      <trkpt lat="48.27242" lon="14.3143">
        <ele>258.651171</ele>
        <time>2022-09-12T09:05:54.346Z</time>
      </trkpt>
      <trkpt lat="48.27157" lon="14.31473">
        <ele>257.665097</ele>
        <time>2022-09-12T09:06:15.108Z</time>
      </trkpt>
      <trkpt lat="48.27059" lon="14.31517">
        <ele>257.217202</ele>
        <time>2022-09-12T09:06:40.281Z</time>
      </trkpt>
      <trkpt lat="48.27054" lon="14.31519">
        <ele>257.21195</ele>
        <time>2022-09-12T09:06:42.300Z</time>
      </trkpt>
      <trkpt lat="48.27051" lon="14.31521">
        <ele>257.207727</ele>
        <time>2022-09-12T09:06:43.943Z</time>
      </trkpt>
      <trkpt lat="48.27026" lon="14.31532">
        <ele>257.178809</ele>
        <time>2022-09-12T09:06:50.773Z</time>
      </trkpt>
      <trkpt lat="48.26938" lon="14.3157">
        <ele>257.153096</ele>
        <time>2022-09-12T09:07:16.190Z</time>
      </trkpt>
      <trkpt lat="48.26901" lon="14.31587">
        <ele>257.323005</ele>
        <time>2022-09-12T09:07:27.223Z</time>
      </trkpt>
      <trkpt lat="48.26887" lon="14.31593">
        <ele>257.385837</ele>
        <time>2022-09-12T09:07:31.317Z</time>
      </trkpt>
      <trkpt lat="48.26819" lon="14.31625">
        <ele>257.699075</ele>
        <time>2022-09-12T09:07:52.449Z</time>
      </trkpt>
      <trkpt lat="48.26811" lon="14.31629">
        <ele>257.737684</ele>
        <time>2022-09-12T09:07:55.038Z</time>
      </trkpt>
      <trkpt lat="48.26783" lon="14.31644">
        <ele>257.867085</ele>
        <time>2022-09-12T09:08:03.331Z</time>
      </trkpt>
      <trkpt lat="48.2678" lon="14.31645">
        <ele>257.882185</ele>
        <time>2022-09-12T09:08:05.043Z</time>
      </trkpt>
      <trkpt lat="48.26777" lon="14.31646">
        <ele>257.885855</ele>
        <time>2022-09-12T09:08:06.261Z</time>
      </trkpt>
      <trkpt lat="48.26711" lon="14.31678">
        <ele>257.982876</ele>
        <time>2022-09-12T09:08:26.137Z</time>
      </trkpt>
      <trkpt lat="48.26699" lon="14.31684">
        <ele>258.000341</ele>
        <time>2022-09-12T09:08:29.653Z</time>
      </trkpt>
      <trkpt lat="48.26661" lon="14.31702">
        <ele>258.055683</ele>
        <time>2022-09-12T09:08:40.524Z</time>
      </trkpt>
      <trkpt lat="48.26598" lon="14.31732">
        <ele>258.059695</ele>
        <time>2022-09-12T09:08:58.041Z</time>
      </trkpt>
      <trkpt lat="48.26594" lon="14.31734">
        <ele>258.036866</ele>
        <time>2022-09-12T09:08:58.943Z</time>
      </trkpt>
      <trkpt lat="48.26571" lon="14.31745">
        <ele>257.881594</ele>
        <time>2022-09-12T09:09:04.898Z</time>
      </trkpt>
      <trkpt lat="48.26558" lon="14.31751">
        <ele>257.792109</ele>
        <time>2022-09-12T09:09:08.232Z</time>
      </trkpt>
      <trkpt lat="48.2651" lon="14.31775">
        <ele>257.467932</ele>
        <time>2022-09-12T09:09:20.150Z</time>
      </trkpt>
      <trkpt lat="48.26503" lon="14.31778">
        <ele>257.420183</ele>
        <time>2022-09-12T09:09:21.904Z</time>
      </trkpt>
      <trkpt lat="48.26496" lon="14.31781">
        <ele>257.379314</ele>
        <time>2022-09-12T09:09:23.388Z</time>
      </trkpt>
      <trkpt lat="48.26356" lon="14.31847">
        <ele>256.533251</ele>
        <time>2022-09-12T09:09:58.669Z</time>
      </trkpt>
      <trkpt lat="48.26338" lon="14.31855">
        <ele>256.432921</ele>
        <time>2022-09-12T09:10:03.288Z</time>
      </trkpt>
      <trkpt lat="48.26309" lon="14.31869">
        <ele>256.27158</ele>
        <time>2022-09-12T09:10:10.820Z</time>
      </trkpt>
      <trkpt lat="48.26299" lon="14.31873">
        <ele>256.21665</ele>
        <time>2022-09-12T09:10:13.451Z</time>
      </trkpt>
      <trkpt lat="48.26258" lon="14.31893">
        <ele>256.038891</ele>
        <time>2022-09-12T09:10:24.316Z</time>
      </trkpt>
      <trkpt lat="48.26218" lon="14.3191">
        <ele>256.091419</ele>
        <time>2022-09-12T09:10:35.294Z</time>
      </trkpt>
      <trkpt lat="48.26174" lon="14.31931">
        <ele>256.149287</ele>
        <time>2022-09-12T09:10:48.166Z</time>
      </trkpt>
      <trkpt lat="48.26117" lon="14.31959">
        <ele>256.224298</ele>
        <time>2022-09-12T09:11:05.158Z</time>
      </trkpt>
      <trkpt lat="48.26114" lon="14.3196">
        <ele>256.227542</ele>
        <time>2022-09-12T09:11:05.881Z</time>
      </trkpt>
      <trkpt lat="48.2611" lon="14.31961">
        <ele>256.232658</ele>
        <time>2022-09-12T09:11:07.018Z</time>
      </trkpt>
      <trkpt lat="48.26107" lon="14.31963">
        <ele>256.23698</ele>
        <time>2022-09-12T09:11:07.941Z</time>
      </trkpt>
      <trkpt lat="48.26032" lon="14.31999">
        <ele>256.259786</ele>
        <time>2022-09-12T09:11:29.570Z</time>
      </trkpt>
      <trkpt lat="48.25988" lon="14.3202">
        <ele>256.263371</ele>
        <time>2022-09-12T09:11:42.125Z</time>
      </trkpt>
      <trkpt lat="48.25944" lon="14.32041">
        <ele>256.266964</ele>
        <time>2022-09-12T09:11:54.417Z</time>
      </trkpt>
      <trkpt lat="48.25869" lon="14.32077">
        <ele>256.232059</ele>
        <time>2022-09-12T09:12:14.156Z</time>
      </trkpt>
      <trkpt lat="48.25796" lon="14.32112">
        <ele>256.181107</ele>
        <time>2022-09-12T09:12:33.815Z</time>
      </trkpt>
      <trkpt lat="48.2579" lon="14.32115">
        <ele>256.176957</ele>
        <time>2022-09-12T09:12:35.465Z</time>
      </trkpt>
      <trkpt lat="48.25784" lon="14.32119">
        <ele>256.172783</ele>
        <time>2022-09-12T09:12:37.206Z</time>
      </trkpt>
      <trkpt lat="48.25779" lon="14.32122">
        <ele>256.16881</ele>
        <time>2022-09-12T09:12:38.836Z</time>
      </trkpt>
      <trkpt lat="48.25777" lon="14.32123">
        <ele>256.167759</ele>
        <time>2022-09-12T09:12:39.292Z</time>
      </trkpt>
      <trkpt lat="48.25655" lon="14.32182">
        <ele>256.566958</ele>
        <time>2022-09-12T09:13:17.162Z</time>
      </trkpt>
      <trkpt lat="48.25649" lon="14.32184">
        <ele>256.590769</ele>
        <time>2022-09-12T09:13:18.971Z</time>
      </trkpt>
      <trkpt lat="48.2564" lon="14.32188">
        <ele>256.628835</ele>
        <time>2022-09-12T09:13:21.755Z</time>
      </trkpt>
      <trkpt lat="48.25607" lon="14.32204">
        <ele>256.77517</ele>
        <time>2022-09-12T09:13:32.162Z</time>
      </trkpt>
      <trkpt lat="48.25568" lon="14.32217">
        <ele>256.817737</ele>
        <time>2022-09-12T09:13:42.975Z</time>
      </trkpt>
      <trkpt lat="48.25548" lon="14.32226">
        <ele>256.69151</ele>
        <time>2022-09-12T09:13:48.286Z</time>
      </trkpt>
      <trkpt lat="48.25541" lon="14.32225">
        <ele>256.649641</ele>
        <time>2022-09-12T09:13:50.153Z</time>
      </trkpt>
      <trkpt lat="48.25534" lon="14.32226">
        <ele>256.607704</ele>
        <time>2022-09-12T09:13:51.831Z</time>
      </trkpt>
      <trkpt lat="48.25531" lon="14.32227">
        <ele>256.585468</ele>
        <time>2022-09-12T09:13:52.712Z</time>
      </trkpt>
      <trkpt lat="48.25522" lon="14.32234">
        <ele>256.525727</ele>
        <time>2022-09-12T09:13:55.082Z</time>
      </trkpt>
      <trkpt lat="48.25517" lon="14.32235">
        <ele>256.496701</ele>
        <time>2022-09-12T09:13:56.257Z</time>
      </trkpt>
      <trkpt lat="48.2546" lon="14.32252">
        <ele>256.145092</ele>
        <time>2022-09-12T09:14:10.117Z</time>
      </trkpt>
      <trkpt lat="48.25443" lon="14.32254">
        <ele>256.03907</ele>
        <time>2022-09-12T09:14:14.175Z</time>
      </trkpt>
      <trkpt lat="48.25429" lon="14.32255">
        <ele>255.955763</ele>
        <time>2022-09-12T09:14:17.353Z</time>
      </trkpt>
      <trkpt lat="48.25416" lon="14.32256">
        <ele>255.874312</ele>
        <time>2022-09-12T09:14:20.379Z</time>
      </trkpt>
      <trkpt lat="48.2538" lon="14.32258">
        <ele>255.64043</ele>
        <time>2022-09-12T09:14:28.596Z</time>
      </trkpt>
      <trkpt lat="48.25359" lon="14.32258">
        <ele>255.503775</ele>
        <time>2022-09-12T09:14:33.294Z</time>
      </trkpt>
      <trkpt lat="48.25348" lon="14.32259">
        <ele>255.4321</ele>
        <time>2022-09-12T09:14:35.792Z</time>
      </trkpt>
      <trkpt lat="48.25338" lon="14.3226">
        <ele>255.366249</ele>
        <time>2022-09-12T09:14:38.127Z</time>
      </trkpt>
      <trkpt lat="48.25327" lon="14.32261">
        <ele>255.289811</ele>
        <time>2022-09-12T09:14:40.835Z</time>
      </trkpt>
      <trkpt lat="48.2521" lon="14.32258">
        <ele>254.586198</ele>
        <time>2022-09-12T09:15:10.166Z</time>
      </trkpt>
      <trkpt lat="48.25183" lon="14.32255">
        <ele>254.551953</ele>
        <time>2022-09-12T09:15:16.960Z</time>
      </trkpt>
      <trkpt lat="48.25165" lon="14.32254">
        <ele>254.527828</ele>
        <time>2022-09-12T09:15:21.770Z</time>
      </trkpt>
      <trkpt lat="48.25156" lon="14.32254">
        <ele>254.516877</ele>
        <time>2022-09-12T09:15:23.926Z</time>
      </trkpt>
      <trkpt lat="48.25151" lon="14.32255">
        <ele>254.509572</ele>
        <time>2022-09-12T09:15:25.352Z</time>
      </trkpt>
      <trkpt lat="48.25145" lon="14.32255">
        <ele>254.50214</ele>
        <time>2022-09-12T09:15:26.811Z</time>
      </trkpt>
      <trkpt lat="48.25068" lon="14.32249">
        <ele>254.40142</ele>
        <time>2022-09-12T09:15:46.501Z</time>
      </trkpt>
      <trkpt lat="48.25039" lon="14.32248">
        <ele>254.404298</ele>
        <time>2022-09-12T09:15:54.540Z</time>
      </trkpt>
      <trkpt lat="48.25031" lon="14.32252">
        <ele>254.465442</ele>
        <time>2022-09-12T09:15:56.890Z</time>
      </trkpt>
      <trkpt lat="48.25024" lon="14.32256">
        <ele>254.527103</ele>
        <time>2022-09-12T09:15:59.241Z</time>
      </trkpt>
      <trkpt lat="48.24987" lon="14.32263">
        <ele>254.80014</ele>
        <time>2022-09-12T09:16:10.225Z</time>
      </trkpt>
      <trkpt lat="48.24951" lon="14.32277">
        <ele>255.079007</ele>
        <time>2022-09-12T09:16:22.501Z</time>
      </trkpt>
      <trkpt lat="48.24886" lon="14.32316">
        <ele>255.595333</ele>
        <time>2022-09-12T09:16:44.484Z</time>
      </trkpt>
      <trkpt lat="48.24882" lon="14.32308">
        <ele>255.640606</ele>
        <time>2022-09-12T09:16:46.417Z</time>
      </trkpt>
      <trkpt lat="48.24875" lon="14.32257">
        <ele>255.734396</ele>
        <time>2022-09-12T09:16:56.487Z</time>
      </trkpt>
      <trkpt lat="48.24862" lon="14.32208">
        <ele>255.774906</ele>
        <time>2022-09-12T09:17:06.833Z</time>
      </trkpt>
      <trkpt lat="48.24854" lon="14.32178">
        <ele>255.799701</ele>
        <time>2022-09-12T09:17:13.032Z</time>
      </trkpt>
      <trkpt lat="48.24843" lon="14.32146">
        <ele>255.827261</ele>
        <time>2022-09-12T09:17:19.935Z</time>
      </trkpt>
      <trkpt lat="48.24829" lon="14.32104">
        <ele>255.862898</ele>
        <time>2022-09-12T09:17:28.237Z</time>
      </trkpt>
      <trkpt lat="48.24825" lon="14.32089">
        <ele>255.875073</ele>
        <time>2022-09-12T09:17:30.661Z</time>
      </trkpt>
      <trkpt lat="48.24822" lon="14.3208">
        <ele>255.883099</ele>
        <time>2022-09-12T09:17:32.387Z</time>
      </trkpt>
      <trkpt lat="48.2481" lon="14.3205">
        <ele>255.909551</ele>
        <time>2022-09-12T09:17:38.036Z</time>
      </trkpt>
      <trkpt lat="48.24759" lon="14.31988">
        <ele>255.74158</ele>
        <time>2022-09-12T09:17:53.323Z</time>
      </trkpt>
      <trkpt lat="48.24748" lon="14.31962">
        <ele>255.689039</ele>
        <time>2022-09-12T09:17:58.047Z</time>
      </trkpt>
      <trkpt lat="48.24748" lon="14.3196">
        <ele>255.68511</ele>
        <time>2022-09-12T09:17:58.417Z</time>
      </trkpt>
      <trkpt lat="48.24738" lon="14.31964">
        <ele>255.659724</ele>
        <time>2022-09-12T09:18:01.673Z</time>
      </trkpt>
      <trkpt lat="48.24689" lon="14.31949">
        <ele>255.529377</ele>
        <time>2022-09-12T09:18:18.909Z</time>
      </trkpt>
      <trkpt lat="48.24633" lon="14.31935">
        <ele>255.650499</ele>
        <time>2022-09-12T09:18:36.310Z</time>
      </trkpt>
      <trkpt lat="48.24623" lon="14.31939">
        <ele>255.741561</ele>
        <time>2022-09-12T09:18:39.304Z</time>
      </trkpt>
      <trkpt lat="48.24616" lon="14.31953">
        <ele>255.846466</ele>
        <time>2022-09-12T09:18:43.162Z</time>
      </trkpt>
      <trkpt lat="48.24602" lon="14.31926">
        <ele>256.053686</ele>
        <time>2022-09-12T09:18:49.988Z</time>
      </trkpt>
      <trkpt lat="48.24533" lon="14.31731">
        <ele>257.27506</ele>
        <time>2022-09-12T09:19:37.423Z</time>
      </trkpt>
      <trkpt lat="48.24502" lon="14.31623">
        <ele>257.755884</ele>
        <time>2022-09-12T09:20:01.368Z</time>
      </trkpt>
      <trkpt lat="48.24472" lon="14.31492">
        <ele>258.078864</ele>
        <time>2022-09-12T09:20:26.909Z</time>
      </trkpt>
      <trkpt lat="48.2437" lon="14.31053">
        <ele>257.202941</ele>
        <time>2022-09-12T09:21:43.791Z</time>
      </trkpt>
      <trkpt lat="48.24342" lon="14.30884">
        <ele>257.721947</ele>
        <time>2022-09-12T09:22:17.722Z</time>
      </trkpt>
      <trkpt lat="48.24336" lon="14.30795">
        <ele>258.096806</ele>
        <time>2022-09-12T09:22:36.071Z</time>
      </trkpt>
      <trkpt lat="48.24337" lon="14.30709">
        <ele>258.481407</ele>
        <time>2022-09-12T09:22:53.858Z</time>
      </trkpt>
      <trkpt lat="48.24335" lon="14.30672">
        <ele>258.659809</ele>
        <time>2022-09-12T09:23:01.413Z</time>
      </trkpt>
      <trkpt lat="48.24334" lon="14.30653">
        <ele>258.747308</ele>
        <time>2022-09-12T09:23:05.144Z</time>
      </trkpt>
      <trkpt lat="48.24354" lon="14.30623">
        <ele>258.948672</ele>
        <time>2022-09-12T09:23:18.427Z</time>
      </trkpt>
      <trkpt lat="48.24328" lon="14.30557">
        <ele>259.311191</ele>
        <time>2022-09-12T09:23:33.364Z</time>
      </trkpt>
      <trkpt lat="48.24289" lon="14.30401">
        <ele>260.068746</ele>
        <time>2022-09-12T09:24:06.748Z</time>
      </trkpt>
      <trkpt lat="48.24287" lon="14.30395">
        <ele>260.099791</ele>
        <time>2022-09-12T09:24:08.045Z</time>
      </trkpt>
      <trkpt lat="48.24199" lon="14.30036">
        <ele>261.581643</ele>
        <time>2022-09-12T09:25:24.467Z</time>
      </trkpt>
      <trkpt lat="48.24171" lon="14.29959">
        <ele>261.628052</ele>
        <time>2022-09-12T09:25:40.101Z</time>
      </trkpt>
      <trkpt lat="48.24124" lon="14.29873">
        <ele>261.456152</ele>
        <time>2022-09-12T09:25:59.421Z</time>
      </trkpt>
      <trkpt lat="48.24101" lon="14.29802">
        <ele>261.335801</ele>
        <time>2022-09-12T09:26:12.071Z</time>
      </trkpt>
      <trkpt lat="48.24094" lon="14.29797">
        <ele>261.317904</ele>
        <time>2022-09-12T09:26:14.016Z</time>
      </trkpt>
      <trkpt lat="48.24078" lon="14.29754">
        <ele>261.198891</ele>
        <time>2022-09-12T09:26:21.961Z</time>
      </trkpt>
      <trkpt lat="48.24074" lon="14.29716">
        <ele>261.08597</ele>
        <time>2022-09-12T09:26:28.346Z</time>
      </trkpt>
      <trkpt lat="48.24044" lon="14.2965">
        <ele>260.854628</ele>
        <time>2022-09-12T09:26:41.301Z</time>
      </trkpt>
      <trkpt lat="48.23919" lon="14.29486">
        <ele>260.500796</ele>
        <time>2022-09-12T09:27:23.746Z</time>
      </trkpt>
      <trkpt lat="48.23864" lon="14.29384">
        <ele>260.491013</ele>
        <time>2022-09-12T09:27:47.662Z</time>
      </trkpt>
      <trkpt lat="48.23807" lon="14.29238">
        <ele>260.926909</ele>
        <time>2022-09-12T09:28:19.968Z</time>
      </trkpt>
      <trkpt lat="48.23701" lon="14.28794">
        <ele>262.352359</ele>
        <time>2022-09-12T09:29:50.349Z</time>
      </trkpt>
      <trkpt lat="48.23685" lon="14.28765">
        <ele>262.484789</ele>
        <time>2022-09-12T09:29:57.547Z</time>
      </trkpt>
      <trkpt lat="48.23691" lon="14.28699">
        <ele>262.723157</ele>
        <time>2022-09-12T09:30:10.987Z</time>
      </trkpt>
      <trkpt lat="48.23686" lon="14.28666">
        <ele>262.841652</ele>
        <time>2022-09-12T09:30:17.378Z</time>
      </trkpt>
      <trkpt lat="48.23671" lon="14.28673">
        <ele>262.925704</ele>
        <time>2022-09-12T09:30:22.302Z</time>
      </trkpt>
      <trkpt lat="48.23647" lon="14.28696">
        <ele>263.084619</ele>
        <time>2022-09-12T09:30:30.534Z</time>
      </trkpt>
      <trkpt lat="48.23636" lon="14.28734">
        <ele>263.248098</ele>
        <time>2022-09-12T09:30:38.550Z</time>
      </trkpt>
      <trkpt lat="48.23632" lon="14.28736">
        <ele>263.274838</ele>
        <time>2022-09-12T09:30:39.998Z</time>
      </trkpt>
      <trkpt lat="48.23621" lon="14.28724">
        <ele>263.352537</ele>
        <time>2022-09-12T09:30:43.988Z</time>
      </trkpt>
      <trkpt lat="48.23607" lon="14.28678">
        <ele>263.550486</ele>
        <time>2022-09-12T09:30:53.944Z</time>
      </trkpt>
      <trkpt lat="48.23583" lon="14.28529">
        <ele>264.142652</ele>
        <time>2022-09-12T09:31:23.999Z</time>
      </trkpt>
      <trkpt lat="48.23564" lon="14.28455">
        <ele>264.441677</ele>
        <time>2022-09-12T09:31:39.084Z</time>
      </trkpt>
      <trkpt lat="48.23491" lon="14.2826">
        <ele>265.426889</ele>
        <time>2022-09-12T09:32:23.450Z</time>
      </trkpt>
      <trkpt lat="48.23389" lon="14.28013">
        <ele>266.921874</ele>
        <time>2022-09-12T09:33:24.630Z</time>
      </trkpt>
      <trkpt lat="48.23299" lon="14.27873">
        <ele>267.390389</ele>
        <time>2022-09-12T09:34:00.767Z</time>
      </trkpt>
      <trkpt lat="48.23023" lon="14.27494">
        <ele>265.307937</ele>
        <time>2022-09-12T09:35:31.074Z</time>
      </trkpt>
      <trkpt lat="48.22873" lon="14.27267">
        <ele>264.900192</ele>
        <time>2022-09-12T09:36:25.429Z</time>
      </trkpt>
      <trkpt lat="48.22868" lon="14.27263">
        <ele>264.913411</ele>
        <time>2022-09-12T09:36:26.944Z</time>
      </trkpt>
      <trkpt lat="48.22811" lon="14.27155">
        <ele>265.146501</ele>
        <time>2022-09-12T09:36:53.310Z</time>
      </trkpt>
      <trkpt lat="48.22784" lon="14.27096">
        <ele>265.310654</ele>
        <time>2022-09-12T09:37:07.455Z</time>
      </trkpt>
      <trkpt lat="48.2273" lon="14.26971">
        <ele>265.821419</ele>
        <time>2022-09-12T09:37:37.306Z</time>
      </trkpt>
      <trkpt lat="48.22676" lon="14.26829">
        <ele>266.166603</ele>
        <time>2022-09-12T09:38:07.948Z</time>
      </trkpt>
      <trkpt lat="48.22542" lon="14.26365">
        <ele>266.283021</ele>
        <time>2022-09-12T09:39:37.035Z</time>
      </trkpt>
      <trkpt lat="48.22472" lon="14.2617">
        <ele>266.952069</ele>
        <time>2022-09-12T09:40:19.693Z</time>
      </trkpt>
      <trkpt lat="48.22391" lon="14.25967">
        <ele>268.27709</ele>
        <time>2022-09-12T09:41:09.209Z</time>
      </trkpt>
      <trkpt lat="48.22341" lon="14.25861">
        <ele>268.556098</ele>
        <time>2022-09-12T09:41:35.456Z</time>
      </trkpt>
      <trkpt lat="48.22287" lon="14.25724">
        <ele>268.556602</ele>
        <time>2022-09-12T09:42:01.867Z</time>
      </trkpt>
      <trkpt lat="48.2227" lon="14.25698">
        <ele>268.556204</ele>
        <time>2022-09-12T09:42:08.003Z</time>
      </trkpt>
      <trkpt lat="48.22249" lon="14.25679">
        <ele>268.553594</ele>
        <time>2022-09-12T09:42:14.216Z</time>
      </trkpt>
      <trkpt lat="48.22243" lon="14.25676">
        <ele>268.552913</ele>
        <time>2022-09-12T09:42:15.924Z</time>
      </trkpt>
      <trkpt lat="48.22224" lon="14.25671">
        <ele>268.550835</ele>
        <time>2022-09-12T09:42:20.999Z</time>
      </trkpt>
      <trkpt lat="48.22198" lon="14.2565">
        <ele>268.547674</ele>
        <time>2022-09-12T09:42:28.737Z</time>
      </trkpt>
      <trkpt lat="48.22171" lon="14.25618">
        <ele>268.543968</ele>
        <time>2022-09-12T09:42:37.774Z</time>
      </trkpt>
      <trkpt lat="48.22049" lon="14.25396">
        <ele>269.133474</ele>
        <time>2022-09-12T09:43:32.277Z</time>
      </trkpt>
      <trkpt lat="48.2204" lon="14.25387">
        <ele>269.182514</ele>
        <time>2022-09-12T09:43:35.440Z</time>
      </trkpt>
      <trkpt lat="48.22026" lon="14.25396">
        <ele>269.254244</ele>
        <time>2022-09-12T09:43:40.416Z</time>
      </trkpt>
      <trkpt lat="48.21949" lon="14.25505">
        <ele>269.224949</ele>
        <time>2022-09-12T09:44:11.041Z</time>
      </trkpt>
      <trkpt lat="48.21939" lon="14.255">
        <ele>269.20896</ele>
        <time>2022-09-12T09:44:13.914Z</time>
      </trkpt>
      <trkpt lat="48.21932" lon="14.25488">
        <ele>269.191499</ele>
        <time>2022-09-12T09:44:16.669Z</time>
      </trkpt>
      <trkpt lat="48.21926" lon="14.25479">
        <ele>269.178235</ele>
        <time>2022-09-12T09:44:18.723Z</time>
      </trkpt>
      <trkpt lat="48.21911" lon="14.2547">
        <ele>269.15183</ele>
        <time>2022-09-12T09:44:22.969Z</time>
      </trkpt>
      <trkpt lat="48.21905" lon="14.25466">
        <ele>269.14254</ele>
        <time>2022-09-12T09:44:24.375Z</time>
      </trkpt>
      <trkpt lat="48.21898" lon="14.25461">
        <ele>269.129536</ele>
        <time>2022-09-12T09:44:26.314Z</time>
      </trkpt>
      <trkpt lat="48.21876" lon="14.25531">
        <ele>268.844178</ele>
        <time>2022-09-12T09:44:38.068Z</time>
      </trkpt>
      <trkpt lat="48.21827" lon="14.2562">
        <ele>267.642055</ele>
        <time>2022-09-12T09:44:55.109Z</time>
      </trkpt>
      <trkpt lat="48.21802" lon="14.2565">
        <ele>267.134161</ele>
        <time>2022-09-12T09:45:01.968Z</time>
      </trkpt>
      <trkpt lat="48.21788" lon="14.25659">
        <ele>266.904798</ele>
        <time>2022-09-12T09:45:05.012Z</time>
      </trkpt>
      <trkpt lat="48.21722" lon="14.25539">
        <ele>265.609849</ele>
        <time>2022-09-12T09:45:27.425Z</time>
      </trkpt>
      <trkpt lat="48.21698" lon="14.25486">
        <ele>265.156986</ele>
        <time>2022-09-12T09:45:37.242Z</time>
      </trkpt>
      <trkpt lat="48.21634" lon="14.25333">
        <ele>264.385072</ele>
        <time>2022-09-12T09:46:06.784Z</time>
      </trkpt>
      <trkpt lat="48.21577" lon="14.2517">
        <ele>264.417265</ele>
        <time>2022-09-12T09:46:40.977Z</time>
      </trkpt>
      <trkpt lat="48.21538" lon="14.25045">
        <ele>264.630303</ele>
        <time>2022-09-12T09:47:06.995Z</time>
      </trkpt>
      <trkpt lat="48.21481" lon="14.24807">
        <ele>264.87216</ele>
        <time>2022-09-12T09:47:54.160Z</time>
      </trkpt>
      <trkpt lat="48.2146" lon="14.2468">
        <ele>264.852351</ele>
        <time>2022-09-12T09:48:16.584Z</time>
      </trkpt>
      <trkpt lat="48.21466" lon="14.24605">
        <ele>264.843474</ele>
        <time>2022-09-12T09:48:29.287Z</time>
      </trkpt>
      <trkpt lat="48.21468" lon="14.2459">
        <ele>264.842051</ele>
        <time>2022-09-12T09:48:31.880Z</time>
      </trkpt>
      <trkpt lat="48.21453" lon="14.24528">
        <ele>264.836007</ele>
        <time>2022-09-12T09:48:43.375Z</time>
      </trkpt>
      <trkpt lat="48.2145" lon="14.2452">
        <ele>264.835201</ele>
        <time>2022-09-12T09:48:45.018Z</time>
      </trkpt>
      <trkpt lat="48.21441" lon="14.24502">
        <ele>264.833131</ele>
        <time>2022-09-12T09:48:49.154Z</time>
      </trkpt>
      <trkpt lat="48.21387" lon="14.24444">
        <ele>264.824186</ele>
        <time>2022-09-12T09:49:06.588Z</time>
      </trkpt>
      <trkpt lat="48.21286" lon="14.24166">
        <ele>265.527086</ele>
        <time>2022-09-12T09:50:07.358Z</time>
      </trkpt>
      <trkpt lat="48.21232" lon="14.24041">
        <ele>265.668088</ele>
        <time>2022-09-12T09:50:35.609Z</time>
      </trkpt>
      <trkpt lat="48.21215" lon="14.24003">
        <ele>265.710946</ele>
        <time>2022-09-12T09:50:43.611Z</time>
      </trkpt>
      <trkpt lat="48.21195" lon="14.23962">
        <ele>265.740705</ele>
        <time>2022-09-12T09:50:52.386Z</time>
      </trkpt>
      <trkpt lat="48.20959" lon="14.23511">
        <ele>264.774767</ele>
        <time>2022-09-12T09:52:27.673Z</time>
      </trkpt>
      <trkpt lat="48.20875" lon="14.23316">
        <ele>266.006331</ele>
        <time>2022-09-12T09:53:17.488Z</time>
      </trkpt>
      <trkpt lat="48.20834" lon="14.232">
        <ele>266.456092</ele>
        <time>2022-09-12T09:53:45.466Z</time>
      </trkpt>
      <trkpt lat="48.20798" lon="14.23077">
        <ele>266.91596</ele>
        <time>2022-09-12T09:54:10.011Z</time>
      </trkpt>
      <trkpt lat="48.20739" lon="14.22824">
        <ele>265.737835</ele>
        <time>2022-09-12T09:54:51.561Z</time>
      </trkpt>
      <trkpt lat="48.20713" lon="14.22596">
        <ele>266.905426</ele>
        <time>2022-09-12T09:55:33.486Z</time>
      </trkpt>
      <trkpt lat="48.20722" lon="14.22438">
        <ele>270.46605</ele>
        <time>2022-09-12T09:56:21.354Z</time>
      </trkpt>
      <trkpt lat="48.20719" lon="14.22418">
        <ele>271.07766</ele>
        <time>2022-09-12T09:56:28.651Z</time>
      </trkpt>
      <trkpt lat="48.20716" lon="14.22403">
        <ele>271.52468</ele>
        <time>2022-09-12T09:56:33.296Z</time>
      </trkpt>
      <trkpt lat="48.20714" lon="14.22397">
        <ele>271.720771</ele>
        <time>2022-09-12T09:56:35.594Z</time>
      </trkpt>
      <trkpt lat="48.20714" lon="14.22346">
        <ele>273.207032</ele>
        <time>2022-09-12T09:56:55.938Z</time>
      </trkpt>
      <trkpt lat="48.20728" lon="14.22266">
        <ele>275.582218</ele>
        <time>2022-09-12T09:57:29.998Z</time>
      </trkpt>
      <trkpt lat="48.20743" lon="14.22259">
        <ele>276.242349</ele>
        <time>2022-09-12T09:57:37.232Z</time>
      </trkpt>
      <trkpt lat="48.20745" lon="14.22241">
        <ele>276.753166</ele>
        <time>2022-09-12T09:57:44.592Z</time>
      </trkpt>
      <trkpt lat="48.20738" lon="14.22184">
        <ele>278.329494</ele>
        <time>2022-09-12T09:58:04.429Z</time>
      </trkpt>
      <trkpt lat="48.20738" lon="14.22121">
        <ele>280.056944</ele>
        <time>2022-09-12T09:58:24.951Z</time>
      </trkpt>
      <trkpt lat="48.20733" lon="14.22082">
        <ele>281.144213</ele>
        <time>2022-09-12T09:58:36.350Z</time>
      </trkpt>
      <trkpt lat="48.20657" lon="14.21921">
        <ele>283.562782</ele>
        <time>2022-09-12T09:59:21.679Z</time>
      </trkpt>
      <trkpt lat="48.20573" lon="14.21666">
        <ele>284.639357</ele>
        <time>2022-09-12T10:00:15.602Z</time>
      </trkpt>
      <trkpt lat="48.20549" lon="14.21606">
        <ele>284.704568</ele>
        <time>2022-09-12T10:00:27.443Z</time>
      </trkpt>
      <trkpt lat="48.20525" lon="14.21551">
        <ele>284.678443</ele>
        <time>2022-09-12T10:00:38.742Z</time>
      </trkpt>
      <trkpt lat="48.20412" lon="14.21342">
        <ele>284.252324</ele>
        <time>2022-09-12T10:01:24.512Z</time>
      </trkpt>
      <trkpt lat="48.20323" lon="14.21161">
        <ele>284.065711</ele>
        <time>2022-09-12T10:02:03.462Z</time>
      </trkpt>
      <trkpt lat="48.20236" lon="14.20932">
        <ele>284.172378</ele>
        <time>2022-09-12T10:02:51.262Z</time>
      </trkpt>
      <trkpt lat="48.20187" lon="14.20797">
        <ele>284.165643</ele>
        <time>2022-09-12T10:03:18.828Z</time>
      </trkpt>
      <trkpt lat="48.20104" lon="14.20556">
        <ele>284.124851</ele>
        <time>2022-09-12T10:04:08.458Z</time>
      </trkpt>
      <trkpt lat="48.20073" lon="14.20408">
        <ele>284.107423</ele>
        <time>2022-09-12T10:04:37.378Z</time>
      </trkpt>
      <trkpt lat="48.20064" lon="14.20354">
        <ele>284.125838</ele>
        <time>2022-09-12T10:04:47.678Z</time>
      </trkpt>
      <trkpt lat="48.20058" lon="14.20285">
        <ele>284.148882</ele>
        <time>2022-09-12T10:05:00.554Z</time>
      </trkpt>
      <trkpt lat="48.20053" lon="14.20132">
        <ele>284.221398</ele>
        <time>2022-09-12T10:05:29.507Z</time>
      </trkpt>
      <trkpt lat="48.20053" lon="14.19509">
        <ele>284.636009</ele>
        <time>2022-09-12T10:07:28.065Z</time>
      </trkpt>
      <trkpt lat="48.20047" lon="14.1936">
        <ele>284.461874</ele>
        <time>2022-09-12T10:07:54.561Z</time>
      </trkpt>
      <trkpt lat="48.20033" lon="14.19235">
        <ele>283.687583</ele>
        <time>2022-09-12T10:08:15.348Z</time>
      </trkpt>
      <trkpt lat="48.19993" lon="14.19115">
        <ele>282.825219</ele>
        <time>2022-09-12T10:08:36.388Z</time>
      </trkpt>
      <trkpt lat="48.19975" lon="14.19079">
        <ele>282.732256</ele>
        <time>2022-09-12T10:08:43.527Z</time>
      </trkpt>
      <trkpt lat="48.19904" lon="14.18968">
        <ele>282.763622</ele>
        <time>2022-09-12T10:09:09.855Z</time>
      </trkpt>
      <trkpt lat="48.19657" lon="14.18595">
        <ele>286.415692</ele>
        <time>2022-09-12T10:11:11.547Z</time>
      </trkpt>
      <trkpt lat="48.19606" lon="14.18504">
        <ele>287.040699</ele>
        <time>2022-09-12T10:11:35.270Z</time>
      </trkpt>
      <trkpt lat="48.19569" lon="14.18385">
        <ele>286.751349</ele>
        <time>2022-09-12T10:11:58.238Z</time>
      </trkpt>
      <trkpt lat="48.19548" lon="14.18282">
        <ele>286.51121</ele>
        <time>2022-09-12T10:12:16.494Z</time>
      </trkpt>
      <trkpt lat="48.1954" lon="14.18198">
        <ele>286.214327</ele>
        <time>2022-09-12T10:12:30.779Z</time>
      </trkpt>
      <trkpt lat="48.19529" lon="14.17844">
        <ele>284.951714</ele>
        <time>2022-09-12T10:13:31.301Z</time>
      </trkpt>
      <trkpt lat="48.19522" lon="14.17644">
        <ele>284.591647</ele>
        <time>2022-09-12T10:14:06.036Z</time>
      </trkpt>
      <trkpt lat="48.19515" lon="14.17543">
        <ele>284.611862</ele>
        <time>2022-09-12T10:14:24.875Z</time>
      </trkpt>
      <trkpt lat="48.19504" lon="14.17228">
        <ele>285.581326</ele>
        <time>2022-09-12T10:15:29.013Z</time>
      </trkpt>
      <trkpt lat="48.19492" lon="14.17046">
        <ele>286.671315</ele>
        <time>2022-09-12T10:16:07.765Z</time>
      </trkpt>
      <trkpt lat="48.19459" lon="14.16823">
        <ele>288.057339</ele>
        <time>2022-09-12T10:16:58.879Z</time>
      </trkpt>
      <trkpt lat="48.19429" lon="14.16677">
        <ele>288.904088</ele>
        <time>2022-09-12T10:17:31.637Z</time>
      </trkpt>
      <trkpt lat="48.1937" lon="14.16447">
        <ele>288.15937</ele>
        <time>2022-09-12T10:18:13.705Z</time>
      </trkpt>
      <trkpt lat="48.19311" lon="14.16269">
        <ele>286.908636</ele>
        <time>2022-09-12T10:18:45.112Z</time>
      </trkpt>
      <trkpt lat="48.19286" lon="14.16196">
        <ele>286.341866</ele>
        <time>2022-09-12T10:18:58.222Z</time>
      </trkpt>
      <trkpt lat="48.19261" lon="14.16145">
        <ele>286.205345</ele>
        <time>2022-09-12T10:19:08.617Z</time>
      </trkpt>
      <trkpt lat="48.19173" lon="14.15955">
        <ele>286.324535</ele>
        <time>2022-09-12T10:19:53.352Z</time>
      </trkpt>
      <trkpt lat="48.19097" lon="14.15808">
        <ele>287.167442</ele>
        <time>2022-09-12T10:20:32.721Z</time>
      </trkpt>
      <trkpt lat="48.19004" lon="14.15648">
        <ele>287.593979</ele>
        <time>2022-09-12T10:21:16.309Z</time>
      </trkpt>
      <trkpt lat="48.18932" lon="14.15538">
        <ele>287.637878</ele>
        <time>2022-09-12T10:21:43.013Z</time>
      </trkpt>
      <trkpt lat="48.1887" lon="14.15456">
        <ele>287.555665</ele>
        <time>2022-09-12T10:22:04.277Z</time>
      </trkpt>
      <trkpt lat="48.18716" lon="14.15275">
        <ele>287.836478</ele>
        <time>2022-09-12T10:23:01.159Z</time>
      </trkpt>
      <trkpt lat="48.18665" lon="14.15207">
        <ele>288.069582</ele>
        <time>2022-09-12T10:23:22.008Z</time>
      </trkpt>
      <trkpt lat="48.18621" lon="14.15134">
        <ele>288.227803</ele>
        <time>2022-09-12T10:23:41.304Z</time>
      </trkpt>
      <trkpt lat="48.1856" lon="14.15009">
        <ele>288.470596</ele>
        <time>2022-09-12T10:24:10.561Z</time>
      </trkpt>
      <trkpt lat="48.18435" lon="14.14668">
        <ele>288.93632</ele>
        <time>2022-09-12T10:25:24.271Z</time>
      </trkpt>
      <trkpt lat="48.18263" lon="14.14184">
        <ele>290.327575</ele>
        <time>2022-09-12T10:27:13.907Z</time>
      </trkpt>
      <trkpt lat="48.18202" lon="14.1401">
        <ele>290.703358</ele>
        <time>2022-09-12T10:27:51.869Z</time>
      </trkpt>
      <trkpt lat="48.18156" lon="14.1388">
        <ele>290.749417</ele>
        <time>2022-09-12T10:28:19.532Z</time>
      </trkpt>
      <trkpt lat="48.18133" lon="14.13798">
        <ele>290.77708</ele>
        <time>2022-09-12T10:28:35.902Z</time>
      </trkpt>
      <trkpt lat="48.18105" lon="14.13656">
        <ele>290.704351</ele>
        <time>2022-09-12T10:29:02.997Z</time>
      </trkpt>
      <trkpt lat="48.18088" lon="14.13506">
        <ele>290.661013</ele>
        <time>2022-09-12T10:29:30.723Z</time>
      </trkpt>
      <trkpt lat="48.18062" lon="14.13329">
        <ele>290.760155</ele>
        <time>2022-09-12T10:30:04.566Z</time>
      </trkpt>
      <trkpt lat="48.18048" lon="14.13252">
        <ele>290.827614</ele>
        <time>2022-09-12T10:30:19.197Z</time>
      </trkpt>
      <trkpt lat="48.17948" lon="14.12757">
        <ele>291.70588</ele>
        <time>2022-09-12T10:31:59.157Z</time>
      </trkpt>
      <trkpt lat="48.17944" lon="14.12734">
        <ele>291.768989</ele>
        <time>2022-09-12T10:32:04.006Z</time>
      </trkpt>
      <trkpt lat="48.17904" lon="14.12529">
        <ele>292.343447</ele>
        <time>2022-09-12T10:32:46.259Z</time>
      </trkpt>
      <trkpt lat="48.17882" lon="14.1243">
        <ele>292.641335</ele>
        <time>2022-09-12T10:33:07.358Z</time>
      </trkpt>
      <trkpt lat="48.17855" lon="14.12342">
        <ele>292.919891</ele>
        <time>2022-09-12T10:33:26.533Z</time>
      </trkpt>
      <trkpt lat="48.17819" lon="14.12242">
        <ele>293.239747</ele>
        <time>2022-09-12T10:33:49.280Z</time>
      </trkpt>
      <trkpt lat="48.17726" lon="14.12023">
        <ele>293.732566</ele>
        <time>2022-09-12T10:34:39.943Z</time>
      </trkpt>
      <trkpt lat="48.17685" lon="14.11957">
        <ele>293.724858</ele>
        <time>2022-09-12T10:34:56.632Z</time>
      </trkpt>
      <trkpt lat="48.17683" lon="14.11934">
        <ele>293.722785</ele>
        <time>2022-09-12T10:35:01.168Z</time>
      </trkpt>
      <trkpt lat="48.17614" lon="14.11786">
        <ele>293.679408</ele>
        <time>2022-09-12T10:35:34.160Z</time>
      </trkpt>
      <trkpt lat="48.17616" lon="14.1176">
        <ele>293.649548</ele>
        <time>2022-09-12T10:35:38.968Z</time>
      </trkpt>
      <trkpt lat="48.17504" lon="14.11522">
        <ele>293.304256</ele>
        <time>2022-09-12T10:36:45.391Z</time>
      </trkpt>
      <trkpt lat="48.17485" lon="14.11449">
        <ele>293.201357</ele>
        <time>2022-09-12T10:37:03.153Z</time>
      </trkpt>
      <trkpt lat="48.17483" lon="14.11422">
        <ele>293.16486</ele>
        <time>2022-09-12T10:37:09.415Z</time>
      </trkpt>
      <trkpt lat="48.17481" lon="14.11353">
        <ele>293.07356</ele>
        <time>2022-09-12T10:37:25.170Z</time>
      </trkpt>
      <trkpt lat="48.17475" lon="14.1132">
        <ele>293.027879</ele>
        <time>2022-09-12T10:37:33.110Z</time>
      </trkpt>
      <trkpt lat="48.17377" lon="14.1076">
        <ele>292.295253</ele>
        <time>2022-09-12T10:39:45.161Z</time>
      </trkpt>
      <trkpt lat="48.17347" lon="14.10522">
        <ele>291.988655</ele>
        <time>2022-09-12T10:40:40.274Z</time>
      </trkpt>
      <trkpt lat="48.17304" lon="14.10272">
        <ele>291.849482</ele>
        <time>2022-09-12T10:41:38.886Z</time>
      </trkpt>
      <trkpt lat="48.17302" lon="14.10232">
        <ele>292.213359</ele>
        <time>2022-09-12T10:41:49.010Z</time>
      </trkpt>
      <trkpt lat="48.17301" lon="14.10218">
        <ele>292.342236</ele>
        <time>2022-09-12T10:41:52.537Z</time>
      </trkpt>
      <trkpt lat="48.17301" lon="14.10191">
        <ele>292.580101</ele>
        <time>2022-09-12T10:41:59.626Z</time>
      </trkpt>
      <trkpt lat="48.17302" lon="14.1007">
        <ele>293.679855</ele>
        <time>2022-09-12T10:42:34.231Z</time>
      </trkpt>
      <trkpt lat="48.17302" lon="14.10049">
        <ele>293.869777</ele>
        <time>2022-09-12T10:42:40.471Z</time>
      </trkpt>
      <trkpt lat="48.17346" lon="14.09951">
        <ele>295.728144</ele>
        <time>2022-09-12T10:43:18.362Z</time>
      </trkpt>
      <trkpt lat="48.17352" lon="14.09923">
        <ele>296.265795</ele>
        <time>2022-09-12T10:43:27.897Z</time>
      </trkpt>
      <trkpt lat="48.17349" lon="14.09896">
        <ele>296.764205</ele>
        <time>2022-09-12T10:43:37.096Z</time>
      </trkpt>
      <trkpt lat="48.1729" lon="14.09662">
        <ele>301.156258</ele>
        <time>2022-09-12T10:44:58.233Z</time>
      </trkpt>
      <trkpt lat="48.17283" lon="14.09648">
        <ele>301.44754</ele>
        <time>2022-09-12T10:45:03.456Z</time>
      </trkpt>
      <trkpt lat="48.17275" lon="14.09645">
        <ele>301.651827</ele>
        <time>2022-09-12T10:45:07.632Z</time>
      </trkpt>
      <trkpt lat="48.17251" lon="14.09606">
        <ele>302.540939</ele>
        <time>2022-09-12T10:45:23.972Z</time>
      </trkpt>
      <trkpt lat="48.17235" lon="14.09359">
        <ele>305.934684</ele>
        <time>2022-09-12T10:46:27.053Z</time>
      </trkpt>
      <trkpt lat="48.17234" lon="14.09263">
        <ele>307.021748</ele>
        <time>2022-09-12T10:46:49.380Z</time>
      </trkpt>
      <trkpt lat="48.17237" lon="14.09136">
        <ele>307.147572</ele>
        <time>2022-09-12T10:47:16.000Z</time>
      </trkpt>
      <trkpt lat="48.17257" lon="14.08819">
        <ele>306.33064</ele>
        <time>2022-09-12T10:48:09.465Z</time>
      </trkpt>
      <trkpt lat="48.17256" lon="14.08735">
        <ele>305.9072</ele>
        <time>2022-09-12T10:48:22.839Z</time>
      </trkpt>
      <trkpt lat="48.17249" lon="14.08655">
        <ele>305.68455</ele>
        <time>2022-09-12T10:48:36.375Z</time>
      </trkpt>
      <trkpt lat="48.17239" lon="14.08597">
        <ele>305.516774</ele>
        <time>2022-09-12T10:48:46.864Z</time>
      </trkpt>
      <trkpt lat="48.17234" lon="14.08567">
        <ele>305.432737</ele>
        <time>2022-09-12T10:48:52.193Z</time>
      </trkpt>
      <trkpt lat="48.17192" lon="14.08439">
        <ele>305.195881</ele>
        <time>2022-09-12T10:49:18.054Z</time>
      </trkpt>
      <trkpt lat="48.17148" lon="14.08343">
        <ele>305.285972</ele>
        <time>2022-09-12T10:49:40.357Z</time>
      </trkpt>
      <trkpt lat="48.17116" lon="14.08296">
        <ele>305.337307</ele>
        <time>2022-09-12T10:49:53.115Z</time>
      </trkpt>
      <trkpt lat="48.16991" lon="14.08133">
        <ele>305.91105</ele>
        <time>2022-09-12T10:50:41.172Z</time>
      </trkpt>
      <trkpt lat="48.16989" lon="14.0813">
        <ele>305.923831</ele>
        <time>2022-09-12T10:50:42.128Z</time>
      </trkpt>
      <trkpt lat="48.16905" lon="14.08006">
        <ele>306.709841</ele>
        <time>2022-09-12T10:51:19.586Z</time>
      </trkpt>
      <trkpt lat="48.16715" lon="14.07693">
        <ele>308.674993</ele>
        <time>2022-09-12T10:52:48.975Z</time>
      </trkpt>
      <trkpt lat="48.16713" lon="14.07678">
        <ele>308.620413</ele>
        <time>2022-09-12T10:52:51.634Z</time>
      </trkpt>
      <trkpt lat="48.16715" lon="14.07638">
        <ele>308.480285</ele>
        <time>2022-09-12T10:52:58.491Z</time>
      </trkpt>
      <trkpt lat="48.16695" lon="14.07631">
        <ele>308.371873</ele>
        <time>2022-09-12T10:53:05.173Z</time>
      </trkpt>
      <trkpt lat="48.1665" lon="14.07576">
        <ele>308.06619</ele>
        <time>2022-09-12T10:53:23.675Z</time>
      </trkpt>
      <trkpt lat="48.16555" lon="14.07406">
        <ele>307.300661</ele>
        <time>2022-09-12T10:54:11.436Z</time>
      </trkpt>
      <trkpt lat="48.16483" lon="14.07253">
        <ele>306.867056</ele>
        <time>2022-09-12T10:54:53.363Z</time>
      </trkpt>
      <trkpt lat="48.1644" lon="14.07144">
        <ele>307.006752</ele>
        <time>2022-09-12T10:55:22.361Z</time>
      </trkpt>
      <trkpt lat="48.16428" lon="14.07129">
        <ele>307.032203</ele>
        <time>2022-09-12T10:55:26.765Z</time>
      </trkpt>
      <trkpt lat="48.16368" lon="14.06973">
        <ele>308.350221</ele>
        <time>2022-09-12T10:56:05.297Z</time>
      </trkpt>
      <trkpt lat="48.16289" lon="14.06742">
        <ele>311.194261</ele>
        <time>2022-09-12T10:57:12.973Z</time>
      </trkpt>
      <trkpt lat="48.16082" lon="14.06158">
        <ele>317.272262</ele>
        <time>2022-09-12T10:59:42.338Z</time>
      </trkpt>
      <trkpt lat="48.16078" lon="14.06158">
        <ele>317.317674</ele>
        <time>2022-09-12T10:59:43.477Z</time>
      </trkpt>
      <trkpt lat="48.16044" lon="14.06099">
        <ele>317.830018</ele>
        <time>2022-09-12T11:00:01.221Z</time>
      </trkpt>
      <trkpt lat="48.16026" lon="14.06053">
        <ele>318.053728</ele>
        <time>2022-09-12T11:00:12.990Z</time>
      </trkpt>
      <trkpt lat="48.15963" lon="14.05893">
        <ele>318.826831</ele>
        <time>2022-09-12T11:01:00.577Z</time>
      </trkpt>
      <trkpt lat="48.15828" lon="14.05523">
        <ele>315.865627</ele>
        <time>2022-09-12T11:02:28.585Z</time>
      </trkpt>
      <trkpt lat="48.15798" lon="14.0543">
        <ele>314.817526</ele>
        <time>2022-09-12T11:02:48.322Z</time>
      </trkpt>
      <trkpt lat="48.15771" lon="14.05317">
        <ele>313.219602</ele>
        <time>2022-09-12T11:03:11.181Z</time>
      </trkpt>
      <trkpt lat="48.15761" lon="14.0524">
        <ele>312.141192</ele>
        <time>2022-09-12T11:03:26.114Z</time>
      </trkpt>
      <trkpt lat="48.15749" lon="14.0511">
        <ele>310.822722</ele>
        <time>2022-09-12T11:03:51.608Z</time>
      </trkpt>
      <trkpt lat="48.15745" lon="14.0501">
        <ele>310.461898</ele>
        <time>2022-09-12T11:04:12.994Z</time>
      </trkpt>
      <trkpt lat="48.15746" lon="14.04617">
        <ele>310.56649</ele>
        <time>2022-09-12T11:05:48.446Z</time>
      </trkpt>
      <trkpt lat="48.15747" lon="14.04513">
        <ele>310.808434</ele>
        <time>2022-09-12T11:06:14.390Z</time>
      </trkpt>
      <trkpt lat="48.1574" lon="14.04458">
        <ele>310.9393</ele>
        <time>2022-09-12T11:06:28.045Z</time>
      </trkpt>
      <trkpt lat="48.15745" lon="14.04394">
        <ele>311.090494</ele>
        <time>2022-09-12T11:06:43.682Z</time>
      </trkpt>
      <trkpt lat="48.15752" lon="14.04337">
        <ele>311.211006</ele>
        <time>2022-09-12T11:06:57.818Z</time>
      </trkpt>
      <trkpt lat="48.15753" lon="14.04207">
        <ele>311.364537</ele>
        <time>2022-09-12T11:07:23.208Z</time>
      </trkpt>
      <trkpt lat="48.1575" lon="14.0406">
        <ele>311.500791</ele>
        <time>2022-09-12T11:07:50.517Z</time>
      </trkpt>
      <trkpt lat="48.15729" lon="14.03889">
        <ele>311.394452</ele>
        <time>2022-09-12T11:08:23.356Z</time>
      </trkpt>
      <trkpt lat="48.15674" lon="14.03639">
        <ele>310.949774</ele>
        <time>2022-09-12T11:09:09.061Z</time>
      </trkpt>
      <trkpt lat="48.1567" lon="14.03621">
        <ele>310.910308</ele>
        <time>2022-09-12T11:09:12.301Z</time>
      </trkpt>
      <trkpt lat="48.15653" lon="14.03556">
        <ele>310.793256</ele>
        <time>2022-09-12T11:09:24.522Z</time>
      </trkpt>
      <trkpt lat="48.15551" lon="14.03185">
        <ele>311.738916</ele>
        <time>2022-09-12T11:10:44.044Z</time>
      </trkpt>
      <trkpt lat="48.15489" lon="14.02967">
        <ele>312.159388</ele>
        <time>2022-09-12T11:11:32.046Z</time>
      </trkpt>
      <trkpt lat="48.154" lon="14.02668">
        <ele>312.130147</ele>
        <time>2022-09-12T11:12:29.931Z</time>
      </trkpt>
      <trkpt lat="48.1534" lon="14.02502">
        <ele>312.279194</ele>
        <time>2022-09-12T11:13:04.978Z</time>
      </trkpt>
      <trkpt lat="48.15334" lon="14.02498">
        <ele>312.303921</ele>
        <time>2022-09-12T11:13:07.398Z</time>
      </trkpt>
      <trkpt lat="48.15323" lon="14.02477">
        <ele>312.366715</ele>
        <time>2022-09-12T11:13:12.355Z</time>
      </trkpt>
      <trkpt lat="48.15307" lon="14.0245">
        <ele>312.450902</ele>
        <time>2022-09-12T11:13:19.913Z</time>
      </trkpt>
      <trkpt lat="48.15194" lon="14.02189">
        <ele>313.229396</ele>
        <time>2022-09-12T11:14:20.676Z</time>
      </trkpt>
      <trkpt lat="48.15163" lon="14.02133">
        <ele>313.419677</ele>
        <time>2022-09-12T11:14:35.574Z</time>
      </trkpt>
      <trkpt lat="48.15143" lon="14.02097">
        <ele>313.57099</ele>
        <time>2022-09-12T11:14:45.012Z</time>
      </trkpt>
      <trkpt lat="48.15127" lon="14.02066">
        <ele>313.696702</ele>
        <time>2022-09-12T11:14:53.041Z</time>
      </trkpt>
      <trkpt lat="48.15086" lon="14.02001">
        <ele>313.985478</ele>
        <time>2022-09-12T11:15:10.955Z</time>
      </trkpt>
      <trkpt lat="48.15038" lon="14.01931">
        <ele>314.306642</ele>
        <time>2022-09-12T11:15:31.143Z</time>
      </trkpt>
      <trkpt lat="48.15018" lon="14.01887">
        <ele>314.460871</ele>
        <time>2022-09-12T11:15:41.530Z</time>
      </trkpt>
      <trkpt lat="48.14938" lon="14.01784">
        <ele>314.928015</ele>
        <time>2022-09-12T11:16:12.527Z</time>
      </trkpt>
      <trkpt lat="48.14943" lon="14.01779">
        <ele>314.957576</ele>
        <time>2022-09-12T11:16:14.570Z</time>
      </trkpt>
      <trkpt lat="48.14943" lon="14.01768">
        <ele>314.987462</ele>
        <time>2022-09-12T11:16:16.729Z</time>
      </trkpt>
      <trkpt lat="48.14936" lon="14.01766">
        <ele>315.016961</ele>
        <time>2022-09-12T11:16:18.965Z</time>
      </trkpt>
      <trkpt lat="48.14917" lon="14.0176">
        <ele>315.108992</ele>
        <time>2022-09-12T11:16:25.282Z</time>
      </trkpt>
      <trkpt lat="48.14897" lon="14.01732">
        <ele>315.249489</ele>
        <time>2022-09-12T11:16:33.639Z</time>
      </trkpt>
      <trkpt lat="48.14829" lon="14.01634">
        <ele>315.730048</ele>
        <time>2022-09-12T11:17:01.568Z</time>
      </trkpt>
      <trkpt lat="48.14742" lon="14.01497">
        <ele>315.709941</ele>
        <time>2022-09-12T11:17:36.642Z</time>
      </trkpt>
      <trkpt lat="48.14706" lon="14.01428">
        <ele>315.483371</ele>
        <time>2022-09-12T11:17:50.134Z</time>
      </trkpt>
      <trkpt lat="48.14663" lon="14.01317">
        <ele>315.157673</ele>
        <time>2022-09-12T11:18:10.766Z</time>
      </trkpt>
      <trkpt lat="48.1471" lon="14.0127">
        <ele>314.953764</ele>
        <time>2022-09-12T11:18:25.120Z</time>
      </trkpt>
      <trkpt lat="48.14698" lon="14.01226">
        <ele>314.837885</ele>
        <time>2022-09-12T11:18:33.691Z</time>
      </trkpt>
      <trkpt lat="48.14705" lon="14.01212">
        <ele>314.798586</ele>
        <time>2022-09-12T11:18:36.685Z</time>
      </trkpt>
      <trkpt lat="48.14744" lon="14.01176">
        <ele>314.649156</ele>
        <time>2022-09-12T11:18:48.849Z</time>
      </trkpt>
      <trkpt lat="48.14777" lon="14.01146">
        <ele>314.688171</ele>
        <time>2022-09-12T11:18:59.154Z</time>
      </trkpt>
      <trkpt lat="48.14775" lon="14.01141">
        <ele>314.692107</ele>
        <time>2022-09-12T11:19:00.260Z</time>
      </trkpt>
      <trkpt lat="48.1475" lon="14.01081">
        <ele>314.740323</ele>
        <time>2022-09-12T11:19:14.709Z</time>
      </trkpt>
      <trkpt lat="48.14679" lon="14.009">
        <ele>314.809898</ele>
        <time>2022-09-12T11:19:53.269Z</time>
      </trkpt>
      <trkpt lat="48.14686" lon="14.00885">
        <ele>314.806067</ele>
        <time>2022-09-12T11:19:56.304Z</time>
      </trkpt>
      <trkpt lat="48.14736" lon="14.00854">
        <ele>314.788607</ele>
        <time>2022-09-12T11:20:11.823Z</time>
      </trkpt>
      <trkpt lat="48.14737" lon="14.00848">
        <ele>314.787379</ele>
        <time>2022-09-12T11:20:12.970Z</time>
      </trkpt>
      <trkpt lat="48.14711" lon="14.00739">
        <ele>314.851952</ele>
        <time>2022-09-12T11:20:34.272Z</time>
      </trkpt>
      <trkpt lat="48.14707" lon="14.0072">
        <ele>314.902052</ele>
        <time>2022-09-12T11:20:37.865Z</time>
      </trkpt>
      <trkpt lat="48.1469" lon="14.00651">
        <ele>315.08306</ele>
        <time>2022-09-12T11:20:52.116Z</time>
      </trkpt>
      <trkpt lat="48.1465" lon="14.00551">
        <ele>315.372431</ele>
        <time>2022-09-12T11:21:15.712Z</time>
      </trkpt>
      <trkpt lat="48.14605" lon="14.00432">
        <ele>316.046753</ele>
        <time>2022-09-12T11:21:44.205Z</time>
      </trkpt>
      <trkpt lat="48.14563" lon="14.00346">
        <ele>316.62849</ele>
        <time>2022-09-12T11:22:06.623Z</time>
      </trkpt>
      <trkpt lat="48.14556" lon="14.00331">
        <ele>316.730182</ele>
        <time>2022-09-12T11:22:10.807Z</time>
      </trkpt>
      <trkpt lat="48.14532" lon="14.00274">
        <ele>317.139005</ele>
        <time>2022-09-12T11:22:25.233Z</time>
      </trkpt>
      <trkpt lat="48.14528" lon="14.00266">
        <ele>317.201456</ele>
        <time>2022-09-12T11:22:27.145Z</time>
      </trkpt>
      <trkpt lat="48.14499" lon="14.00202">
        <ele>317.710968</ele>
        <time>2022-09-12T11:22:43.799Z</time>
      </trkpt>
      <trkpt lat="48.14486" lon="14.00172">
        <ele>317.94708</ele>
        <time>2022-09-12T11:22:51.306Z</time>
      </trkpt>
      <trkpt lat="48.1448" lon="14.00159">
        <ele>318.049011</ele>
        <time>2022-09-12T11:22:54.710Z</time>
      </trkpt>
      <trkpt lat="48.14436" lon="14.00063">
        <ele>318.758603</ele>
        <time>2022-09-12T11:23:18.755Z</time>
      </trkpt>
      <trkpt lat="48.1443" lon="14.0005">
        <ele>318.809426</ele>
        <time>2022-09-12T11:23:21.775Z</time>
      </trkpt>
      <trkpt lat="48.14407" lon="14.00004">
        <ele>318.996687</ele>
        <time>2022-09-12T11:23:33.349Z</time>
      </trkpt>
      <trkpt lat="48.14377" lon="13.99919">
        <ele>319.313211</ele>
        <time>2022-09-12T11:23:52.570Z</time>
      </trkpt>
      <trkpt lat="48.14341" lon="13.99805">
        <ele>319.534965</ele>
        <time>2022-09-12T11:24:15.034Z</time>
      </trkpt>
      <trkpt lat="48.14337" lon="13.99775">
        <ele>319.505638</ele>
        <time>2022-09-12T11:24:20.642Z</time>
      </trkpt>
      <trkpt lat="48.14332" lon="13.99721">
        <ele>319.452203</ele>
        <time>2022-09-12T11:24:30.295Z</time>
      </trkpt>
      <trkpt lat="48.1432" lon="13.99557">
        <ele>319.283333</ele>
        <time>2022-09-12T11:24:58.144Z</time>
      </trkpt>
      <trkpt lat="48.14325" lon="13.99537">
        <ele>319.252873</ele>
        <time>2022-09-12T11:25:01.731Z</time>
      </trkpt>
      <trkpt lat="48.14321" lon="13.99494">
        <ele>319.193404</ele>
        <time>2022-09-12T11:25:09.133Z</time>
      </trkpt>
      <trkpt lat="48.14316" lon="13.99496">
        <ele>319.18378</ele>
        <time>2022-09-12T11:25:10.376Z</time>
      </trkpt>
      <trkpt lat="48.1429" lon="13.99506">
        <ele>319.128132</ele>
        <time>2022-09-12T11:25:17.470Z</time>
      </trkpt>
      <trkpt lat="48.14279" lon="13.99485">
        <ele>319.090572</ele>
        <time>2022-09-12T11:25:22.369Z</time>
      </trkpt>
      <trkpt lat="48.14247" lon="13.99449">
        <ele>319.005951</ele>
        <time>2022-09-12T11:25:33.302Z</time>
      </trkpt>
      <trkpt lat="48.14223" lon="13.99405">
        <ele>318.965714</ele>
        <time>2022-09-12T11:25:43.667Z</time>
      </trkpt>
      <trkpt lat="48.14191" lon="13.9934">
        <ele>319.130303</ele>
        <time>2022-09-12T11:25:59.472Z</time>
      </trkpt>
      <trkpt lat="48.14124" lon="13.99221">
        <ele>319.448866</ele>
        <time>2022-09-12T11:26:39.395Z</time>
      </trkpt>
      <trkpt lat="48.14119" lon="13.99205">
        <ele>319.483604</ele>
        <time>2022-09-12T11:26:43.413Z</time>
      </trkpt>
      <trkpt lat="48.14114" lon="13.99189">
        <ele>319.470688</ele>
        <time>2022-09-12T11:26:47.420Z</time>
      </trkpt>
      <trkpt lat="48.14093" lon="13.99125">
        <ele>319.352851</ele>
        <time>2022-09-12T11:27:03.032Z</time>
      </trkpt>
      <trkpt lat="48.14095" lon="13.99112">
        <ele>319.330775</ele>
        <time>2022-09-12T11:27:06.126Z</time>
      </trkpt>
      <trkpt lat="48.1412" lon="13.99079">
        <ele>319.248331</ele>
        <time>2022-09-12T11:27:14.814Z</time>
      </trkpt>
      <trkpt lat="48.14151" lon="13.99034">
        <ele>319.140972</ele>
        <time>2022-09-12T11:27:26.380Z</time>
      </trkpt>
      <trkpt lat="48.14181" lon="13.98994">
        <ele>319.045322</ele>
        <time>2022-09-12T11:27:37.045Z</time>
      </trkpt>
      <trkpt lat="48.1421" lon="13.98954">
        <ele>319.004894</ele>
        <time>2022-09-12T11:27:47.327Z</time>
      </trkpt>
      <trkpt lat="48.14237" lon="13.98917">
        <ele>318.967184</ele>
        <time>2022-09-12T11:27:56.616Z</time>
      </trkpt>
      <trkpt lat="48.14266" lon="13.98877">
        <ele>318.927196</ele>
        <time>2022-09-12T11:28:07.117Z</time>
      </trkpt>
      <trkpt lat="48.14296" lon="13.98835">
        <ele>318.884821</ele>
        <time>2022-09-12T11:28:19.232Z</time>
      </trkpt>
      <trkpt lat="48.14324" lon="13.98807">
        <ele>318.907636</ele>
        <time>2022-09-12T11:28:29.481Z</time>
      </trkpt>
      <trkpt lat="48.14331" lon="13.98805">
        <ele>318.932902</ele>
        <time>2022-09-12T11:28:31.713Z</time>
      </trkpt>
      <trkpt lat="48.14353" lon="13.98806">
        <ele>319.010497</ele>
        <time>2022-09-12T11:28:38.332Z</time>
      </trkpt>
      <trkpt lat="48.14368" lon="13.988">
        <ele>319.064833</ele>
        <time>2022-09-12T11:28:42.947Z</time>
      </trkpt>
      <trkpt lat="48.1436" lon="13.98782">
        <ele>319.115133</ele>
        <time>2022-09-12T11:28:47.097Z</time>
      </trkpt>
      <trkpt lat="48.14362" lon="13.98752">
        <ele>319.185702</ele>
        <time>2022-09-12T11:28:53.000Z</time>
      </trkpt>
      <trkpt lat="48.14431" lon="13.98646">
        <ele>319.53241</ele>
        <time>2022-09-12T11:29:22.258Z</time>
      </trkpt>
      <trkpt lat="48.14445" lon="13.98608">
        <ele>319.623495</ele>
        <time>2022-09-12T11:29:30.520Z</time>
      </trkpt>
      <trkpt lat="48.14457" lon="13.98518">
        <ele>319.816295</ele>
        <time>2022-09-12T11:29:47.818Z</time>
      </trkpt>
      <trkpt lat="48.14456" lon="13.98429">
        <ele>320.004136</ele>
        <time>2022-09-12T11:30:05.735Z</time>
      </trkpt>
      <trkpt lat="48.1443" lon="13.98364">
        <ele>320.213032</ele>
        <time>2022-09-12T11:30:20.889Z</time>
      </trkpt>
      <trkpt lat="48.14415" lon="13.98333">
        <ele>320.332887</ele>
        <time>2022-09-12T11:30:28.692Z</time>
      </trkpt>
      <trkpt lat="48.14392" lon="13.98216">
        <ele>320.718512</ele>
        <time>2022-09-12T11:30:53.241Z</time>
      </trkpt>
      <trkpt lat="48.14351" lon="13.98143">
        <ele>320.936807</ele>
        <time>2022-09-12T11:31:12.653Z</time>
      </trkpt>
      <trkpt lat="48.14303" lon="13.98005">
        <ele>321.039692</ele>
        <time>2022-09-12T11:31:42.374Z</time>
      </trkpt>
      <trkpt lat="48.14292" lon="13.97976">
        <ele>321.061522</ele>
        <time>2022-09-12T11:31:48.373Z</time>
      </trkpt>
      <trkpt lat="48.14263" lon="13.97997">
        <ele>321.091325</ele>
        <time>2022-09-12T11:31:56.990Z</time>
      </trkpt>
      <trkpt lat="48.14241" lon="13.97969">
        <ele>320.948475</ele>
        <time>2022-09-12T11:32:04.526Z</time>
      </trkpt>
      <trkpt lat="48.14232" lon="13.97956">
        <ele>320.886113</ele>
        <time>2022-09-12T11:32:07.825Z</time>
      </trkpt>
      <trkpt lat="48.14219" lon="13.97938">
        <ele>320.798765</ele>
        <time>2022-09-12T11:32:12.268Z</time>
      </trkpt>
      <trkpt lat="48.14175" lon="13.97801">
        <ele>320.297344</ele>
        <time>2022-09-12T11:32:37.516Z</time>
      </trkpt>
      <trkpt lat="48.14132" lon="13.97736">
        <ele>320.370889</ele>
        <time>2022-09-12T11:32:54.012Z</time>
      </trkpt>
      <trkpt lat="48.14047" lon="13.97638">
        <ele>320.796352</ele>
        <time>2022-09-12T11:33:26.556Z</time>
      </trkpt>
      <trkpt lat="48.14034" lon="13.97628">
        <ele>320.855695</ele>
        <time>2022-09-12T11:33:31.315Z</time>
      </trkpt>
      <trkpt lat="48.13984" lon="13.97613">
        <ele>321.153817</ele>
        <time>2022-09-12T11:33:48.030Z</time>
      </trkpt>
      <trkpt lat="48.13927" lon="13.97612">
        <ele>321.537049</ele>
        <time>2022-09-12T11:34:06.527Z</time>
      </trkpt>
      <trkpt lat="48.13921" lon="13.9761">
        <ele>321.572737</ele>
        <time>2022-09-12T11:34:08.274Z</time>
      </trkpt>
      <trkpt lat="48.1382" lon="13.9757">
        <ele>322.074118</ele>
        <time>2022-09-12T11:34:40.277Z</time>
      </trkpt>
      <trkpt lat="48.13754" lon="13.97569">
        <ele>321.937743</ele>
        <time>2022-09-12T11:34:56.979Z</time>
      </trkpt>
      <trkpt lat="48.13728" lon="13.97541">
        <ele>321.870026</ele>
        <time>2022-09-12T11:35:05.051Z</time>
      </trkpt>
      <trkpt lat="48.13712" lon="13.97506">
        <ele>321.811251</ele>
        <time>2022-09-12T11:35:12.326Z</time>
      </trkpt>
      <trkpt lat="48.13701" lon="13.97483">
        <ele>321.771086</ele>
        <time>2022-09-12T11:35:17.230Z</time>
      </trkpt>
      <trkpt lat="48.13658" lon="13.97436">
        <ele>321.994472</ele>
        <time>2022-09-12T11:35:32.489Z</time>
      </trkpt>
      <trkpt lat="48.13623" lon="13.97379">
        <ele>322.304769</ele>
        <time>2022-09-12T11:35:47.920Z</time>
      </trkpt>
      <trkpt lat="48.13533" lon="13.97344">
        <ele>322.863916</ele>
        <time>2022-09-12T11:36:18.473Z</time>
      </trkpt>
      <trkpt lat="48.13456" lon="13.97256">
        <ele>323.444987</ele>
        <time>2022-09-12T11:36:50.220Z</time>
      </trkpt>
      <trkpt lat="48.13399" lon="13.97186">
        <ele>323.892818</ele>
        <time>2022-09-12T11:37:12.033Z</time>
      </trkpt>
      <trkpt lat="48.13317" lon="13.97118">
        <ele>323.418494</ele>
        <time>2022-09-12T11:37:36.026Z</time>
      </trkpt>
      <trkpt lat="48.13308" lon="13.97097">
        <ele>323.328488</ele>
        <time>2022-09-12T11:37:39.927Z</time>
      </trkpt>
      <trkpt lat="48.13304" lon="13.97055">
        <ele>323.174027</ele>
        <time>2022-09-12T11:37:46.828Z</time>
      </trkpt>
      <trkpt lat="48.13302" lon="13.9704">
        <ele>323.120046</ele>
        <time>2022-09-12T11:37:49.233Z</time>
      </trkpt>
      <trkpt lat="48.13304" lon="13.97027">
        <ele>323.070466</ele>
        <time>2022-09-12T11:37:51.591Z</time>
      </trkpt>
      <trkpt lat="48.13309" lon="13.97011">
        <ele>323.007359</ele>
        <time>2022-09-12T11:37:54.599Z</time>
      </trkpt>
      <trkpt lat="48.13326" lon="13.96969">
        <ele>322.909465</ele>
        <time>2022-09-12T11:38:03.012Z</time>
      </trkpt>
      <trkpt lat="48.13327" lon="13.96943">
        <ele>322.886956</ele>
        <time>2022-09-12T11:38:07.517Z</time>
      </trkpt>
      <trkpt lat="48.13319" lon="13.96927">
        <ele>322.869495</ele>
        <time>2022-09-12T11:38:11.204Z</time>
      </trkpt>
      <trkpt lat="48.13289" lon="13.96907">
        <ele>322.826784</ele>
        <time>2022-09-12T11:38:20.076Z</time>
      </trkpt>
      <trkpt lat="48.1328" lon="13.96899">
        <ele>322.812892</ele>
        <time>2022-09-12T11:38:23.106Z</time>
      </trkpt>
      <trkpt lat="48.13269" lon="13.96879">
        <ele>322.790856</ele>
        <time>2022-09-12T11:38:27.756Z</time>
      </trkpt>
      <trkpt lat="48.13249" lon="13.96847">
        <ele>322.753508</ele>
        <time>2022-09-12T11:38:35.595Z</time>
      </trkpt>
      <trkpt lat="48.13215" lon="13.96793">
        <ele>322.758134</ele>
        <time>2022-09-12T11:38:49.703Z</time>
      </trkpt>
      <trkpt lat="48.13171" lon="13.96739">
        <ele>323.093313</ele>
        <time>2022-09-12T11:39:06.672Z</time>
      </trkpt>
      <trkpt lat="48.13122" lon="13.96675">
        <ele>323.479769</ele>
        <time>2022-09-12T11:39:27.662Z</time>
      </trkpt>
      <trkpt lat="48.13102" lon="13.96617">
        <ele>323.738029</ele>
        <time>2022-09-12T11:39:41.095Z</time>
      </trkpt>
      <trkpt lat="48.13096" lon="13.9655">
        <ele>323.94248</ele>
        <time>2022-09-12T11:39:54.719Z</time>
      </trkpt>
      <trkpt lat="48.1309" lon="13.96527">
        <ele>324.012682</ele>
        <time>2022-09-12T11:39:59.709Z</time>
      </trkpt>
      <trkpt lat="48.13025" lon="13.96476">
        <ele>324.335186</ele>
        <time>2022-09-12T11:40:21.685Z</time>
      </trkpt>
      <trkpt lat="48.12983" lon="13.96449">
        <ele>324.535631</ele>
        <time>2022-09-12T11:40:35.421Z</time>
      </trkpt>
      <trkpt lat="48.12866" lon="13.96411">
        <ele>324.83743</ele>
        <time>2022-09-12T11:41:09.663Z</time>
      </trkpt>
      <trkpt lat="48.12854" lon="13.96413">
        <ele>324.867945</ele>
        <time>2022-09-12T11:41:13.514Z</time>
      </trkpt>
      <trkpt lat="48.12796" lon="13.96424">
        <ele>325.020747</ele>
        <time>2022-09-12T11:41:29.885Z</time>
      </trkpt>
      <trkpt lat="48.12756" lon="13.9642">
        <ele>325.181604</ele>
        <time>2022-09-12T11:41:41.626Z</time>
      </trkpt>
      <trkpt lat="48.12678" lon="13.96386">
        <ele>325.506738</ele>
        <time>2022-09-12T11:42:05.812Z</time>
      </trkpt>
      <trkpt lat="48.12649" lon="13.96366">
        <ele>325.633231</ele>
        <time>2022-09-12T11:42:15.490Z</time>
      </trkpt>
      <trkpt lat="48.12616" lon="13.96332">
        <ele>325.823446</ele>
        <time>2022-09-12T11:42:27.937Z</time>
      </trkpt>
      <trkpt lat="48.12565" lon="13.96279">
        <ele>326.166975</ele>
        <time>2022-09-12T11:42:47.100Z</time>
      </trkpt>
      <trkpt lat="48.12541" lon="13.96258">
        <ele>326.318094</ele>
        <time>2022-09-12T11:42:55.428Z</time>
      </trkpt>
      <trkpt lat="48.12525" lon="13.96252">
        <ele>326.41291</ele>
        <time>2022-09-12T11:43:00.745Z</time>
      </trkpt>
      <trkpt lat="48.125" lon="13.96245">
        <ele>326.552399</ele>
        <time>2022-09-12T11:43:08.366Z</time>
      </trkpt>
      <trkpt lat="48.12406" lon="13.96249">
        <ele>326.738877</ele>
        <time>2022-09-12T11:43:36.097Z</time>
      </trkpt>
      <trkpt lat="48.12363" lon="13.96243">
        <ele>326.758695</ele>
        <time>2022-09-12T11:43:48.006Z</time>
      </trkpt>
      <trkpt lat="48.12343" lon="13.9623">
        <ele>326.768863</ele>
        <time>2022-09-12T11:43:53.846Z</time>
      </trkpt>
      <trkpt lat="48.12323" lon="13.96213">
        <ele>326.779491</ele>
        <time>2022-09-12T11:43:59.934Z</time>
      </trkpt>
      <trkpt lat="48.12283" lon="13.96194">
        <ele>326.789275</ele>
        <time>2022-09-12T11:44:11.094Z</time>
      </trkpt>
      <trkpt lat="48.1227" lon="13.9618">
        <ele>326.786499</ele>
        <time>2022-09-12T11:44:15.562Z</time>
      </trkpt>
      <trkpt lat="48.12253" lon="13.9616">
        <ele>326.783016</ele>
        <time>2022-09-12T11:44:21.238Z</time>
      </trkpt>
      <trkpt lat="48.12213" lon="13.96099">
        <ele>326.773456</ele>
        <time>2022-09-12T11:44:37.201Z</time>
      </trkpt>
      <trkpt lat="48.12194" lon="13.96075">
        <ele>326.769295</ele>
        <time>2022-09-12T11:44:44.266Z</time>
      </trkpt>
      <trkpt lat="48.12142" lon="13.96028">
        <ele>326.866731</ele>
        <time>2022-09-12T11:45:01.301Z</time>
      </trkpt>
      <trkpt lat="48.12077" lon="13.95977">
        <ele>327.351296</ele>
        <time>2022-09-12T11:45:23.017Z</time>
      </trkpt>
      <trkpt lat="48.12071" lon="13.95971">
        <ele>327.395063</ele>
        <time>2022-09-12T11:45:25.032Z</time>
      </trkpt>
      <trkpt lat="48.11971" lon="13.95888">
        <ele>328.4036</ele>
        <time>2022-09-12T11:46:02.356Z</time>
      </trkpt>
      <trkpt lat="48.11877" lon="13.95825">
        <ele>329.918665</ele>
        <time>2022-09-12T11:46:39.720Z</time>
      </trkpt>
      <trkpt lat="48.11826" lon="13.95773">
        <ele>330.605426</ele>
        <time>2022-09-12T11:47:01.432Z</time>
      </trkpt>
      <trkpt lat="48.11818" lon="13.95765">
        <ele>330.606831</ele>
        <time>2022-09-12T11:47:04.654Z</time>
      </trkpt>
      <trkpt lat="48.11793" lon="13.95739">
        <ele>330.611321</ele>
        <time>2022-09-12T11:47:14.530Z</time>
      </trkpt>
      <trkpt lat="48.11771" lon="13.95706">
        <ele>330.615976</ele>
        <time>2022-09-12T11:47:23.954Z</time>
      </trkpt>
      <trkpt lat="48.11657" lon="13.956">
        <ele>330.283777</ele>
        <time>2022-09-12T11:47:56.781Z</time>
      </trkpt>
      <trkpt lat="48.11624" lon="13.95549">
        <ele>329.885239</ele>
        <time>2022-09-12T11:48:07.768Z</time>
      </trkpt>
      <trkpt lat="48.11596" lon="13.95512">
        <ele>329.576654</ele>
        <time>2022-09-12T11:48:16.706Z</time>
      </trkpt>
      <trkpt lat="48.11506" lon="13.95431">
        <ele>329.336617</ele>
        <time>2022-09-12T11:48:44.560Z</time>
      </trkpt>
      <trkpt lat="48.11412" lon="13.95326">
        <ele>329.833953</ele>
        <time>2022-09-12T11:49:21.910Z</time>
      </trkpt>
      <trkpt lat="48.11289" lon="13.95181">
        <ele>330.628959</ele>
        <time>2022-09-12T11:50:08.945Z</time>
      </trkpt>
      <trkpt lat="48.11268" lon="13.95137">
        <ele>330.809287</ele>
        <time>2022-09-12T11:50:20.147Z</time>
      </trkpt>
      <trkpt lat="48.11249" lon="13.95124">
        <ele>330.812002</ele>
        <time>2022-09-12T11:50:26.393Z</time>
      </trkpt>
      <trkpt lat="48.11236" lon="13.95106">
        <ele>330.814344</ele>
        <time>2022-09-12T11:50:31.649Z</time>
      </trkpt>
      <trkpt lat="48.11229" lon="13.95074">
        <ele>330.817362</ele>
        <time>2022-09-12T11:50:38.549Z</time>
      </trkpt>
      <trkpt lat="48.11236" lon="13.94965">
        <ele>330.82716</ele>
        <time>2022-09-12T11:50:58.626Z</time>
      </trkpt>
      <trkpt lat="48.11233" lon="13.94927">
        <ele>330.83058</ele>
        <time>2022-09-12T11:51:05.482Z</time>
      </trkpt>
      <trkpt lat="48.11213" lon="13.94857">
        <ele>330.491012</ele>
        <time>2022-09-12T11:51:18.588Z</time>
      </trkpt>
      <trkpt lat="48.11198" lon="13.94823">
        <ele>330.19914</ele>
        <time>2022-09-12T11:51:24.899Z</time>
      </trkpt>
      <trkpt lat="48.11134" lon="13.94722">
        <ele>329.191385</ele>
        <time>2022-09-12T11:51:46.823Z</time>
      </trkpt>
      <trkpt lat="48.11127" lon="13.94704">
        <ele>329.039711</ele>
        <time>2022-09-12T11:51:49.861Z</time>
      </trkpt>
      <trkpt lat="48.1112" lon="13.94673">
        <ele>328.856054</ele>
        <time>2022-09-12T11:51:55.153Z</time>
      </trkpt>
      <trkpt lat="48.11101" lon="13.94613">
        <ele>328.662527</ele>
        <time>2022-09-12T11:52:05.866Z</time>
      </trkpt>
      <trkpt lat="48.11072" lon="13.94558">
        <ele>328.458291</ele>
        <time>2022-09-12T11:52:17.767Z</time>
      </trkpt>
      <trkpt lat="48.11002" lon="13.94447">
        <ele>328.251007</ele>
        <time>2022-09-12T11:52:46.289Z</time>
      </trkpt>
      <trkpt lat="48.10912" lon="13.94337">
        <ele>329.078207</ele>
        <time>2022-09-12T11:53:22.613Z</time>
      </trkpt>
      <trkpt lat="48.10897" lon="13.94301">
        <ele>329.276667</ele>
        <time>2022-09-12T11:53:31.943Z</time>
      </trkpt>
      <trkpt lat="48.10892" lon="13.94222">
        <ele>329.652353</ele>
        <time>2022-09-12T11:53:49.667Z</time>
      </trkpt>
      <trkpt lat="48.10901" lon="13.94163">
        <ele>329.934476</ele>
        <time>2022-09-12T11:54:02.701Z</time>
      </trkpt>
      <trkpt lat="48.10896" lon="13.94123">
        <ele>330.121734</ele>
        <time>2022-09-12T11:54:11.318Z</time>
      </trkpt>
      <trkpt lat="48.10874" lon="13.94037">
        <ele>330.556052</ele>
        <time>2022-09-12T11:54:30.042Z</time>
      </trkpt>
      <trkpt lat="48.10867" lon="13.9404">
        <ele>330.605088</ele>
        <time>2022-09-12T11:54:32.110Z</time>
      </trkpt>
      <trkpt lat="48.10844" lon="13.9404">
        <ele>330.653399</ele>
        <time>2022-09-12T11:54:38.612Z</time>
      </trkpt>
      <trkpt lat="48.10786" lon="13.94021">
        <ele>330.700497</ele>
        <time>2022-09-12T11:54:54.988Z</time>
      </trkpt>
      <trkpt lat="48.1075" lon="13.93974">
        <ele>330.738434</ele>
        <time>2022-09-12T11:55:07.947Z</time>
      </trkpt>
      <trkpt lat="48.10726" lon="13.93932">
        <ele>330.767622</ele>
        <time>2022-09-12T11:55:18.077Z</time>
      </trkpt>
      <trkpt lat="48.10723" lon="13.93926">
        <ele>330.772329</ele>
        <time>2022-09-12T11:55:19.810Z</time>
      </trkpt>
      <trkpt lat="48.10693" lon="13.93861">
        <ele>330.941273</ele>
        <time>2022-09-12T11:55:35.195Z</time>
      </trkpt>
      <trkpt lat="48.10655" lon="13.93808">
        <ele>331.146628</ele>
        <time>2022-09-12T11:55:50.646Z</time>
      </trkpt>
      <trkpt lat="48.10596" lon="13.93757">
        <ele>331.415167</ele>
        <time>2022-09-12T11:56:11.229Z</time>
      </trkpt>
      <trkpt lat="48.1058" lon="13.93728">
        <ele>331.499507</ele>
        <time>2022-09-12T11:56:18.910Z</time>
      </trkpt>
      <trkpt lat="48.10574" lon="13.937">
        <ele>331.515188</ele>
        <time>2022-09-12T11:56:24.971Z</time>
      </trkpt>
      <trkpt lat="48.10572" lon="13.93602">
        <ele>331.568016</ele>
        <time>2022-09-12T11:56:43.924Z</time>
      </trkpt>
      <trkpt lat="48.10564" lon="13.93528">
        <ele>331.60878</ele>
        <time>2022-09-12T11:56:57.545Z</time>
      </trkpt>
      <trkpt lat="48.10535" lon="13.93413">
        <ele>331.5123</ele>
        <time>2022-09-12T11:57:19.359Z</time>
      </trkpt>
      <trkpt lat="48.10517" lon="13.9334">
        <ele>331.354017</ele>
        <time>2022-09-12T11:57:33.343Z</time>
      </trkpt>
      <trkpt lat="48.10509" lon="13.9331">
        <ele>331.288306</ele>
        <time>2022-09-12T11:57:39.114Z</time>
      </trkpt>
      <trkpt lat="48.10456" lon="13.9318">
        <ele>331.003371</ele>
        <time>2022-09-12T11:58:05.354Z</time>
      </trkpt>
      <trkpt lat="48.10367" lon="13.92978">
        <ele>330.744855</ele>
        <time>2022-09-12T11:58:48.704Z</time>
      </trkpt>
      <trkpt lat="48.10286" lon="13.92794">
        <ele>331.385906</ele>
        <time>2022-09-12T11:59:33.547Z</time>
      </trkpt>
      <trkpt lat="48.10222" lon="13.92653">
        <ele>332.097123</ele>
        <time>2022-09-12T12:00:09.162Z</time>
      </trkpt>
      <trkpt lat="48.1018" lon="13.9258">
        <ele>332.512717</ele>
        <time>2022-09-12T12:00:28.548Z</time>
      </trkpt>
      <trkpt lat="48.10054" lon="13.92417">
        <ele>333.49674</ele>
        <time>2022-09-12T12:01:19.785Z</time>
      </trkpt>
      <trkpt lat="48.10035" lon="13.92391">
        <ele>333.647514</ele>
        <time>2022-09-12T12:01:27.824Z</time>
      </trkpt>
      <trkpt lat="48.10011" lon="13.92356">
        <ele>333.738793</ele>
        <time>2022-09-12T12:01:38.119Z</time>
      </trkpt>
      <trkpt lat="48.09927" lon="13.9223">
        <ele>334.03299</ele>
        <time>2022-09-12T12:02:12.273Z</time>
      </trkpt>
      <trkpt lat="48.09891" lon="13.92186">
        <ele>334.097555</ele>
        <time>2022-09-12T12:02:24.995Z</time>
      </trkpt>
      <trkpt lat="48.09799" lon="13.92099">
        <ele>334.034649</ele>
        <time>2022-09-12T12:02:54.744Z</time>
      </trkpt>
      <trkpt lat="48.09776" lon="13.92094">
        <ele>334.021301</ele>
        <time>2022-09-12T12:03:01.051Z</time>
      </trkpt>
      <trkpt lat="48.09617" lon="13.92113">
        <ele>334.064356</ele>
        <time>2022-09-12T12:03:45.596Z</time>
      </trkpt>
      <trkpt lat="48.09593" lon="13.92106">
        <ele>334.075699</ele>
        <time>2022-09-12T12:03:52.395Z</time>
      </trkpt>
      <trkpt lat="48.09571" lon="13.92084">
        <ele>334.08844</ele>
        <time>2022-09-12T12:04:00.159Z</time>
      </trkpt>
      <trkpt lat="48.09556" lon="13.92055">
        <ele>334.134754</ele>
        <time>2022-09-12T12:04:07.272Z</time>
      </trkpt>
      <trkpt lat="48.09545" lon="13.92007">
        <ele>334.198543</ele>
        <time>2022-09-12T12:04:17.078Z</time>
      </trkpt>
      <trkpt lat="48.09536" lon="13.91901">
        <ele>334.333586</ele>
        <time>2022-09-12T12:04:37.426Z</time>
      </trkpt>
      <trkpt lat="48.09521" lon="13.91862">
        <ele>334.390147</ele>
        <time>2022-09-12T12:04:45.902Z</time>
      </trkpt>
      <trkpt lat="48.09493" lon="13.91842">
        <ele>334.471823</ele>
        <time>2022-09-12T12:04:54.630Z</time>
      </trkpt>
      <trkpt lat="48.09362" lon="13.91791">
        <ele>335.050272</ele>
        <time>2022-09-12T12:05:34.819Z</time>
      </trkpt>
      <trkpt lat="48.09349" lon="13.91779">
        <ele>335.114636</ele>
        <time>2022-09-12T12:05:39.295Z</time>
      </trkpt>
      <trkpt lat="48.09338" lon="13.91755">
        <ele>335.202399</ele>
        <time>2022-09-12T12:05:45.223Z</time>
      </trkpt>
      <trkpt lat="48.09333" lon="13.91717">
        <ele>335.458489</ele>
        <time>2022-09-12T12:05:53.429Z</time>
      </trkpt>
      <trkpt lat="48.09343" lon="13.91569">
        <ele>336.427232</ele>
        <time>2022-09-12T12:06:26.587Z</time>
      </trkpt>
      <trkpt lat="48.09343" lon="13.91492">
        <ele>336.934121</ele>
        <time>2022-09-12T12:06:44.039Z</time>
      </trkpt>
      <trkpt lat="48.09316" lon="13.91342">
        <ele>337.29151</ele>
        <time>2022-09-12T12:07:15.817Z</time>
      </trkpt>
      <trkpt lat="48.09256" lon="13.91128">
        <ele>337.896896</ele>
        <time>2022-09-12T12:07:57.871Z</time>
      </trkpt>
      <trkpt lat="48.09195" lon="13.90972">
        <ele>338.789901</ele>
        <time>2022-09-12T12:08:35.393Z</time>
      </trkpt>
      <trkpt lat="48.0918" lon="13.90952">
        <ele>339.281118</ele>
        <time>2022-09-12T12:08:42.620Z</time>
      </trkpt>
      <trkpt lat="48.09187" lon="13.90865">
        <ele>340.732914</ele>
        <time>2022-09-12T12:09:05.786Z</time>
      </trkpt>
      <trkpt lat="48.09192" lon="13.90791">
        <ele>341.954048</ele>
        <time>2022-09-12T12:09:26.434Z</time>
      </trkpt>
      <trkpt lat="48.0919" lon="13.9073">
        <ele>342.972153</ele>
        <time>2022-09-12T12:09:44.795Z</time>
      </trkpt>
      <trkpt lat="48.09195" lon="13.90651">
        <ele>344.449201</ele>
        <time>2022-09-12T12:10:09.032Z</time>
      </trkpt>
      <trkpt lat="48.09206" lon="13.90538">
        <ele>346.561903</ele>
        <time>2022-09-12T12:10:40.717Z</time>
      </trkpt>
      <trkpt lat="48.09202" lon="13.90534">
        <ele>346.699172</ele>
        <time>2022-09-12T12:10:43.031Z</time>
      </trkpt>
      <trkpt lat="48.09199" lon="13.90492">
        <ele>347.490811</ele>
        <time>2022-09-12T12:10:53.731Z</time>
      </trkpt>
      <trkpt lat="48.09124" lon="13.90362">
        <ele>348.316066</ele>
        <time>2022-09-12T12:11:31.728Z</time>
      </trkpt>
      <trkpt lat="48.09056" lon="13.90269">
        <ele>348.595623</ele>
        <time>2022-09-12T12:11:55.268Z</time>
      </trkpt>
      <trkpt lat="48.08934" lon="13.90278">
        <ele>347.71066</ele>
        <time>2022-09-12T12:12:25.182Z</time>
      </trkpt>
      <trkpt lat="48.08931" lon="13.90207">
        <ele>347.413832</ele>
        <time>2022-09-12T12:12:37.371Z</time>
      </trkpt>
      <trkpt lat="48.08947" lon="13.90137">
        <ele>347.417056</ele>
        <time>2022-09-12T12:12:50.698Z</time>
      </trkpt>
      <trkpt lat="48.08955" lon="13.90106">
        <ele>347.418536</ele>
        <time>2022-09-12T12:12:56.956Z</time>
      </trkpt>
      <trkpt lat="48.08998" lon="13.89908">
        <ele>347.137238</ele>
        <time>2022-09-12T12:13:37.464Z</time>
      </trkpt>
      <trkpt lat="48.09023" lon="13.89841">
        <ele>346.745864</ele>
        <time>2022-09-12T12:13:50.697Z</time>
      </trkpt>
      <trkpt lat="48.0908" lon="13.89641">
        <ele>345.657174</ele>
        <time>2022-09-12T12:14:24.422Z</time>
      </trkpt>
      <trkpt lat="48.09083" lon="13.89629">
        <ele>345.596395</ele>
        <time>2022-09-12T12:14:26.328Z</time>
      </trkpt>
      <trkpt lat="48.09086" lon="13.89599">
        <ele>345.451915</ele>
        <time>2022-09-12T12:14:31.367Z</time>
      </trkpt>
      <trkpt lat="48.09081" lon="13.89574">
        <ele>345.325318</ele>
        <time>2022-09-12T12:14:35.545Z</time>
      </trkpt>
      <trkpt lat="48.09084" lon="13.89559">
        <ele>345.249394</ele>
        <time>2022-09-12T12:14:38.523Z</time>
      </trkpt>
      <trkpt lat="48.09109" lon="13.89554">
        <ele>345.074344</ele>
        <time>2022-09-12T12:14:44.871Z</time>
      </trkpt>
      <trkpt lat="48.09129" lon="13.89533">
        <ele>344.89325</ele>
        <time>2022-09-12T12:14:52.354Z</time>
      </trkpt>
      <trkpt lat="48.09236" lon="13.89437">
        <ele>344.463668</ele>
        <time>2022-09-12T12:15:27.603Z</time>
      </trkpt>
      <trkpt lat="48.09273" lon="13.8943">
        <ele>344.36122</ele>
        <time>2022-09-12T12:15:37.090Z</time>
      </trkpt>
      <trkpt lat="48.09301" lon="13.89406">
        <ele>344.270296</ele>
        <time>2022-09-12T12:15:45.377Z</time>
      </trkpt>
      <trkpt lat="48.093" lon="13.89396">
        <ele>344.230525</ele>
        <time>2022-09-12T12:15:46.913Z</time>
      </trkpt>
      <trkpt lat="48.09297" lon="13.89352">
        <ele>343.791455</ele>
        <time>2022-09-12T12:15:54.061Z</time>
      </trkpt>
      <trkpt lat="48.09295" lon="13.89285">
        <ele>343.112542</ele>
        <time>2022-09-12T12:16:04.239Z</time>
      </trkpt>
      <trkpt lat="48.09304" lon="13.89249">
        <ele>342.722861</ele>
        <time>2022-09-12T12:16:10.173Z</time>
      </trkpt>
      <trkpt lat="48.09303" lon="13.89222">
        <ele>342.45006</ele>
        <time>2022-09-12T12:16:14.052Z</time>
      </trkpt>
      <trkpt lat="48.09271" lon="13.89094">
        <ele>341.357606</ele>
        <time>2022-09-12T12:16:34.354Z</time>
      </trkpt>
      <trkpt lat="48.09231" lon="13.88977">
        <ele>340.837647</ele>
        <time>2022-09-12T12:16:57.961Z</time>
      </trkpt>
      <trkpt lat="48.09203" lon="13.88914">
        <ele>340.539488</ele>
        <time>2022-09-12T12:17:11.540Z</time>
      </trkpt>
      <trkpt lat="48.09154" lon="13.88826">
        <ele>340.726156</ele>
        <time>2022-09-12T12:17:32.101Z</time>
      </trkpt>
      <trkpt lat="48.09056" lon="13.88724">
        <ele>341.269563</ele>
        <time>2022-09-12T12:18:08.410Z</time>
      </trkpt>
      <trkpt lat="48.09044" lon="13.88704">
        <ele>341.683584</ele>
        <time>2022-09-12T12:18:14.417Z</time>
      </trkpt>
      <trkpt lat="48.09041" lon="13.88675">
        <ele>342.132472</ele>
        <time>2022-09-12T12:18:21.335Z</time>
      </trkpt>
      <trkpt lat="48.09058" lon="13.88532">
        <ele>344.34401</ele>
        <time>2022-09-12T12:18:57.943Z</time>
      </trkpt>
      <trkpt lat="48.09047" lon="13.88529">
        <ele>344.612674</ele>
        <time>2022-09-12T12:19:02.398Z</time>
      </trkpt>
      <trkpt lat="48.09031" lon="13.88526">
        <ele>344.972172</ele>
        <time>2022-09-12T12:19:09.106Z</time>
      </trkpt>
      <trkpt lat="48.09018" lon="13.88519">
        <ele>345.317859</ele>
        <time>2022-09-12T12:19:16.446Z</time>
      </trkpt>
      <trkpt lat="48.08962" lon="13.88438">
        <ele>348.974741</ele>
        <time>2022-09-12T12:19:55.369Z</time>
      </trkpt>
      <trkpt lat="48.08945" lon="13.88422">
        <ele>349.924444</ele>
        <time>2022-09-12T12:20:06.143Z</time>
      </trkpt>
      <trkpt lat="48.08926" lon="13.88388">
        <ele>351.297049</ele>
        <time>2022-09-12T12:20:21.241Z</time>
      </trkpt>
      <trkpt lat="48.0892" lon="13.88352">
        <ele>352.477121</ele>
        <time>2022-09-12T12:20:35.204Z</time>
      </trkpt>
      <trkpt lat="48.08924" lon="13.88305">
        <ele>353.871324</ele>
        <time>2022-09-12T12:20:51.352Z</time>
      </trkpt>
      <trkpt lat="48.08963" lon="13.88249">
        <ele>355.45005</ele>
        <time>2022-09-12T12:21:18.301Z</time>
      </trkpt>
      <trkpt lat="48.08977" lon="13.88221">
        <ele>356.136356</ele>
        <time>2022-09-12T12:21:29.328Z</time>
      </trkpt>
      <trkpt lat="48.0898" lon="13.88152">
        <ele>357.484875</ele>
        <time>2022-09-12T12:21:49.824Z</time>
      </trkpt>
      <trkpt lat="48.08977" lon="13.88094">
        <ele>358.60693</ele>
        <time>2022-09-12T12:22:02.232Z</time>
      </trkpt>
      <trkpt lat="48.08981" lon="13.88056">
        <ele>358.688631</ele>
        <time>2022-09-12T12:22:10.218Z</time>
      </trkpt>
      <trkpt lat="48.09032" lon="13.8793">
        <ele>356.512715</ele>
        <time>2022-09-12T12:22:32.333Z</time>
      </trkpt>
      <trkpt lat="48.09027" lon="13.8791">
        <ele>356.201579</ele>
        <time>2022-09-12T12:22:35.037Z</time>
      </trkpt>
      <trkpt lat="48.09022" lon="13.87908">
        <ele>356.087449</ele>
        <time>2022-09-12T12:22:36.741Z</time>
      </trkpt>
      <trkpt lat="48.0902" lon="13.87896">
        <ele>355.905016</ele>
        <time>2022-09-12T12:22:39.922Z</time>
      </trkpt>
      <trkpt lat="48.09025" lon="13.87794">
        <ele>354.136355</ele>
        <time>2022-09-12T12:23:03.037Z</time>
      </trkpt>
      <trkpt lat="48.09022" lon="13.87785">
        <ele>353.915656</ele>
        <time>2022-09-12T12:23:05.691Z</time>
      </trkpt>
      <trkpt lat="48.09008" lon="13.87774">
        <ele>353.417761</ele>
        <time>2022-09-12T12:23:10.836Z</time>
      </trkpt>
      <trkpt lat="48.09009" lon="13.87764">
        <ele>353.198855</ele>
        <time>2022-09-12T12:23:12.147Z</time>
      </trkpt>
      <trkpt lat="48.0901" lon="13.87756">
        <ele>353.036359</ele>
        <time>2022-09-12T12:23:13.168Z</time>
      </trkpt>
      <trkpt lat="48.09011" lon="13.87733">
        <ele>352.536121</ele>
        <time>2022-09-12T12:23:16.438Z</time>
      </trkpt>
      <trkpt lat="48.09012" lon="13.87714">
        <ele>352.13012</ele>
        <time>2022-09-12T12:23:18.836Z</time>
      </trkpt>
      <trkpt lat="48.09009" lon="13.87655">
        <ele>350.881145</ele>
        <time>2022-09-12T12:23:26.882Z</time>
      </trkpt>
      <trkpt lat="48.09011" lon="13.87607">
        <ele>349.849656</ele>
        <time>2022-09-12T12:23:33.743Z</time>
      </trkpt>
      <trkpt lat="48.09002" lon="13.87603">
        <ele>349.573782</ele>
        <time>2022-09-12T12:23:35.590Z</time>
      </trkpt>
      <trkpt lat="48.09" lon="13.87595">
        <ele>349.378917</ele>
        <time>2022-09-12T12:23:37.009Z</time>
      </trkpt>
      <trkpt lat="48.08999" lon="13.87518">
        <ele>349.336889</ele>
        <time>2022-09-12T12:23:48.196Z</time>
      </trkpt>
      <trkpt lat="48.0901" lon="13.87507">
        <ele>349.354718</ele>
        <time>2022-09-12T12:23:51.438Z</time>
      </trkpt>
      <trkpt lat="48.09" lon="13.87424">
        <ele>349.430271</ele>
        <time>2022-09-12T12:24:09.044Z</time>
      </trkpt>
      <trkpt lat="48.08971" lon="13.87295">
        <ele>349.908682</ele>
        <time>2022-09-12T12:24:40.710Z</time>
      </trkpt>
      <trkpt lat="48.08916" lon="13.87121">
        <ele>351.707615</ele>
        <time>2022-09-12T12:25:25.401Z</time>
      </trkpt>
      <trkpt lat="48.08865" lon="13.86987">
        <ele>352.53432</ele>
        <time>2022-09-12T12:25:59.903Z</time>
      </trkpt>
      <trkpt lat="48.08834" lon="13.86913">
        <ele>352.904905</ele>
        <time>2022-09-12T12:26:18.004Z</time>
      </trkpt>
      <trkpt lat="48.08789" lon="13.86804">
        <ele>353.020199</ele>
        <time>2022-09-12T12:26:40.319Z</time>
      </trkpt>
      <trkpt lat="48.08765" lon="13.86751">
        <ele>352.877247</ele>
        <time>2022-09-12T12:26:51.448Z</time>
      </trkpt>
      <trkpt lat="48.08751" lon="13.867">
        <ele>352.755841</ele>
        <time>2022-09-12T12:27:00.382Z</time>
      </trkpt>
      <trkpt lat="48.08748" lon="13.86587">
        <ele>352.882353</ele>
        <time>2022-09-12T12:27:21.130Z</time>
      </trkpt>
      <trkpt lat="48.08746" lon="13.86587">
        <ele>352.908948</ele>
        <time>2022-09-12T12:27:21.788Z</time>
      </trkpt>
      <trkpt lat="48.0872" lon="13.86584">
        <ele>353.321507</ele>
        <time>2022-09-12T12:27:29.941Z</time>
      </trkpt>
      <trkpt lat="48.08697" lon="13.86556">
        <ele>353.774167</ele>
        <time>2022-09-12T12:27:40.990Z</time>
      </trkpt>
      <trkpt lat="48.0869" lon="13.86554">
        <ele>353.890267</ele>
        <time>2022-09-12T12:27:44.415Z</time>
      </trkpt>
      <trkpt lat="48.08631" lon="13.8654">
        <ele>354.832367</ele>
        <time>2022-09-12T12:28:07.943Z</time>
      </trkpt>
      <trkpt lat="48.08621" lon="13.86538">
        <ele>354.978119</ele>
        <time>2022-09-12T12:28:12.066Z</time>
      </trkpt>
      <trkpt lat="48.08579" lon="13.86473">
        <ele>355.816351</ele>
        <time>2022-09-12T12:28:41.307Z</time>
      </trkpt>
      <trkpt lat="48.08554" lon="13.86482">
        <ele>356.133136</ele>
        <time>2022-09-12T12:28:51.344Z</time>
      </trkpt>
      <trkpt lat="48.08541" lon="13.86487">
        <ele>356.294826</ele>
        <time>2022-09-12T12:28:56.196Z</time>
      </trkpt>
      <trkpt lat="48.08536" lon="13.86463">
        <ele>356.500776</ele>
        <time>2022-09-12T12:29:02.450Z</time>
      </trkpt>
      <trkpt lat="48.08531" lon="13.86437">
        <ele>356.724777</ele>
        <time>2022-09-12T12:29:08.508Z</time>
      </trkpt>
      <trkpt lat="48.08511" lon="13.86313">
        <ele>357.400275</ele>
        <time>2022-09-12T12:29:33.066Z</time>
      </trkpt>
      <trkpt lat="48.08504" lon="13.86089">
        <ele>355.143877</ele>
        <time>2022-09-12T12:30:06.313Z</time>
      </trkpt>
      <trkpt lat="48.08502" lon="13.86029">
        <ele>354.621254</ele>
        <time>2022-09-12T12:30:15.515Z</time>
      </trkpt>
      <trkpt lat="48.08483" lon="13.85943">
        <ele>353.929591</ele>
        <time>2022-09-12T12:30:29.583Z</time>
      </trkpt>
      <trkpt lat="48.08359" lon="13.85992">
        <ele>352.644011</ele>
        <time>2022-09-12T12:31:00.952Z</time>
      </trkpt>
      <trkpt lat="48.08329" lon="13.86034">
        <ele>352.400641</ele>
        <time>2022-09-12T12:31:11.860Z</time>
      </trkpt>
      <trkpt lat="48.083" lon="13.86055">
        <ele>352.208954</ele>
        <time>2022-09-12T12:31:20.448Z</time>
      </trkpt>
      <trkpt lat="48.08288" lon="13.86071">
        <ele>352.114466</ele>
        <time>2022-09-12T12:31:24.455Z</time>
      </trkpt>
      <trkpt lat="48.08259" lon="13.8605">
        <ele>351.922778</ele>
        <time>2022-09-12T12:31:32.235Z</time>
      </trkpt>
      <trkpt lat="48.08229" lon="13.86027">
        <ele>351.752832</ele>
        <time>2022-09-12T12:31:40.434Z</time>
      </trkpt>
      <trkpt lat="48.08208" lon="13.86002">
        <ele>351.687792</ele>
        <time>2022-09-12T12:31:47.083Z</time>
      </trkpt>
      <trkpt lat="48.082" lon="13.85955">
        <ele>351.611023</ele>
        <time>2022-09-12T12:31:55.048Z</time>
      </trkpt>
      <trkpt lat="48.08192" lon="13.85893">
        <ele>351.509338</ele>
        <time>2022-09-12T12:32:06.027Z</time>
      </trkpt>
      <trkpt lat="48.08202" lon="13.85885">
        <ele>351.482046</ele>
        <time>2022-09-12T12:32:09.117Z</time>
      </trkpt>
      <trkpt lat="48.08257" lon="13.85847">
        <ele>351.331449</ele>
        <time>2022-09-12T12:32:25.686Z</time>
      </trkpt>
      <trkpt lat="48.0826" lon="13.85846">
        <ele>351.318964</ele>
        <time>2022-09-12T12:32:26.416Z</time>
      </trkpt>
      <trkpt lat="48.08245" lon="13.85773">
        <ele>351.095793</ele>
        <time>2022-09-12T12:32:43.732Z</time>
      </trkpt>
      <trkpt lat="48.08231" lon="13.85747">
        <ele>350.996839</ele>
        <time>2022-09-12T12:32:51.328Z</time>
      </trkpt>
      <trkpt lat="48.08219" lon="13.85711">
        <ele>350.880271</ele>
        <time>2022-09-12T12:33:00.028Z</time>
      </trkpt>
      <trkpt lat="48.08202" lon="13.85691">
        <ele>350.781755</ele>
        <time>2022-09-12T12:33:07.234Z</time>
      </trkpt>
      <trkpt lat="48.08185" lon="13.85599">
        <ele>350.457281</ele>
        <time>2022-09-12T12:33:28.012Z</time>
      </trkpt>
      <trkpt lat="48.08175" lon="13.85593">
        <ele>350.370267</ele>
        <time>2022-09-12T12:33:30.331Z</time>
      </trkpt>
      <trkpt lat="48.08133" lon="13.85531">
        <ele>349.860122</ele>
        <time>2022-09-12T12:33:44.742Z</time>
      </trkpt>
      <trkpt lat="48.08058" lon="13.85423">
        <ele>348.999363</ele>
        <time>2022-09-12T12:34:09.855Z</time>
      </trkpt>
      <trkpt lat="48.08022" lon="13.85356">
        <ele>349.090362</ele>
        <time>2022-09-12T12:34:25.648Z</time>
      </trkpt>
      <trkpt lat="48.07991" lon="13.8529">
        <ele>349.17588</ele>
        <time>2022-09-12T12:34:41.607Z</time>
      </trkpt>
      <trkpt lat="48.07904" lon="13.85197">
        <ele>349.5429</ele>
        <time>2022-09-12T12:35:14.237Z</time>
      </trkpt>
      <trkpt lat="48.07888" lon="13.8517">
        <ele>349.692162</ele>
        <time>2022-09-12T12:35:21.776Z</time>
      </trkpt>
      <trkpt lat="48.07822" lon="13.85055">
        <ele>350.32016</ele>
        <time>2022-09-12T12:35:53.338Z</time>
      </trkpt>
      <trkpt lat="48.07767" lon="13.84967">
        <ele>350.780923</ele>
        <time>2022-09-12T12:36:30.741Z</time>
      </trkpt>
      <trkpt lat="48.07671" lon="13.84878">
        <ele>351.425767</ele>
        <time>2022-09-12T12:37:05.131Z</time>
      </trkpt>
      <trkpt lat="48.07627" lon="13.84823">
        <ele>352.184512</ele>
        <time>2022-09-12T12:37:23.361Z</time>
      </trkpt>
      <trkpt lat="48.07637" lon="13.848">
        <ele>352.429562</ele>
        <time>2022-09-12T12:37:29.125Z</time>
      </trkpt>
      <trkpt lat="48.07657" lon="13.84769">
        <ele>352.810101</ele>
        <time>2022-09-12T12:37:38.950Z</time>
      </trkpt>
      <trkpt lat="48.07612" lon="13.84712">
        <ele>353.585285</ele>
        <time>2022-09-12T12:38:00.177Z</time>
      </trkpt>
      <trkpt lat="48.07566" lon="13.84649">
        <ele>354.773313</ele>
        <time>2022-09-12T12:38:23.450Z</time>
      </trkpt>
      <trkpt lat="48.07498" lon="13.84541">
        <ele>356.852195</ele>
        <time>2022-09-12T12:38:59.619Z</time>
      </trkpt>
      <trkpt lat="48.07476" lon="13.84491">
        <ele>357.714509</ele>
        <time>2022-09-12T12:39:13.879Z</time>
      </trkpt>
      <trkpt lat="48.07466" lon="13.84468">
        <ele>358.185868</ele>
        <time>2022-09-12T12:39:20.601Z</time>
      </trkpt>
      <trkpt lat="48.07387" lon="13.84261">
        <ele>362.313195</ele>
        <time>2022-09-12T12:40:22.758Z</time>
      </trkpt>
      <trkpt lat="48.07383" lon="13.8425">
        <ele>362.621322</ele>
        <time>2022-09-12T12:40:26.230Z</time>
      </trkpt>
      <trkpt lat="48.07373" lon="13.84228">
        <ele>363.271624</ele>
        <time>2022-09-12T12:40:33.666Z</time>
      </trkpt>
      <trkpt lat="48.07358" lon="13.84195">
        <ele>364.270645</ele>
        <time>2022-09-12T12:40:45.414Z</time>
      </trkpt>
      <trkpt lat="48.07354" lon="13.84188">
        <ele>364.506113</ele>
        <time>2022-09-12T12:40:48.307Z</time>
      </trkpt>
      <trkpt lat="48.07285" lon="13.84053">
        <ele>368.699013</ele>
        <time>2022-09-12T12:41:40.019Z</time>
      </trkpt>
      <trkpt lat="48.07252" lon="13.83968">
        <ele>371.779051</ele>
        <time>2022-09-12T12:42:11.893Z</time>
      </trkpt>
      <trkpt lat="48.07234" lon="13.83888">
        <ele>374.399934</ele>
        <time>2022-09-12T12:42:38.600Z</time>
      </trkpt>
      <trkpt lat="48.07149" lon="13.83441">
        <ele>388.933753</ele>
        <time>2022-09-12T12:45:21.100Z</time>
      </trkpt>
      <trkpt lat="48.07126" lon="13.83317">
        <ele>391.643682</ele>
        <time>2022-09-12T12:45:55.587Z</time>
      </trkpt>
      <trkpt lat="48.07104" lon="13.83232">
        <ele>390.951655</ele>
        <time>2022-09-12T12:46:11.373Z</time>
      </trkpt>
      <trkpt lat="48.0709" lon="13.83198">
        <ele>389.980481</ele>
        <time>2022-09-12T12:46:17.061Z</time>
      </trkpt>
      <trkpt lat="48.07102" lon="13.83167">
        <ele>389.092943</ele>
        <time>2022-09-12T12:46:21.917Z</time>
      </trkpt>
      <trkpt lat="48.07142" lon="13.83">
        <ele>384.201881</ele>
        <time>2022-09-12T12:46:43.718Z</time>
      </trkpt>
      <trkpt lat="48.07184" lon="13.82926">
        <ele>380.548273</ele>
        <time>2022-09-12T12:46:55.498Z</time>
      </trkpt>
      <trkpt lat="48.07187" lon="13.82896">
        <ele>379.41211</ele>
        <time>2022-09-12T12:46:59.220Z</time>
      </trkpt>
      <trkpt lat="48.07184" lon="13.82862">
        <ele>378.120014</ele>
        <time>2022-09-12T12:47:03.619Z</time>
      </trkpt>
      <trkpt lat="48.07192" lon="13.82817">
        <ele>376.364286</ele>
        <time>2022-09-12T12:47:09.608Z</time>
      </trkpt>
      <trkpt lat="48.07192" lon="13.82794">
        <ele>375.640669</ele>
        <time>2022-09-12T12:47:12.595Z</time>
      </trkpt>
      <trkpt lat="48.07183" lon="13.8275">
        <ele>375.265875</ele>
        <time>2022-09-12T12:47:18.756Z</time>
      </trkpt>
      <trkpt lat="48.07161" lon="13.82734">
        <ele>374.963793</ele>
        <time>2022-09-12T12:47:23.984Z</time>
      </trkpt>
      <trkpt lat="48.07137" lon="13.82684">
        <ele>374.456454</ele>
        <time>2022-09-12T12:47:34.537Z</time>
      </trkpt>
      <trkpt lat="48.07098" lon="13.82628">
        <ele>373.787141</ele>
        <time>2022-09-12T12:47:50.236Z</time>
      </trkpt>
      <trkpt lat="48.0707" lon="13.82566">
        <ele>373.488048</ele>
        <time>2022-09-12T12:48:04.150Z</time>
      </trkpt>
      <trkpt lat="48.07059" lon="13.82552">
        <ele>373.511146</ele>
        <time>2022-09-12T12:48:08.470Z</time>
      </trkpt>
      <trkpt lat="48.07018" lon="13.82529">
        <ele>373.583872</ele>
        <time>2022-09-12T12:48:21.748Z</time>
      </trkpt>
      <trkpt lat="48.07003" lon="13.82513">
        <ele>373.615089</ele>
        <time>2022-09-12T12:48:27.209Z</time>
      </trkpt>
      <trkpt lat="48.06964" lon="13.82456">
        <ele>373.704563</ele>
        <time>2022-09-12T12:48:42.667Z</time>
      </trkpt>
      <trkpt lat="48.06925" lon="13.82421">
        <ele>373.693675</ele>
        <time>2022-09-12T12:48:55.299Z</time>
      </trkpt>
      <trkpt lat="48.06854" lon="13.82251">
        <ele>373.330105</ele>
        <time>2022-09-12T12:49:30.175Z</time>
      </trkpt>
      <trkpt lat="48.06841" lon="13.82117">
        <ele>373.118415</ele>
        <time>2022-09-12T12:49:54.400Z</time>
      </trkpt>
      <trkpt lat="48.06787" lon="13.81934">
        <ele>372.808309</ele>
        <time>2022-09-12T12:50:30.492Z</time>
      </trkpt>
      <trkpt lat="48.06763" lon="13.81887">
        <ele>372.689795</ele>
        <time>2022-09-12T12:50:41.009Z</time>
      </trkpt>
      <trkpt lat="48.06662" lon="13.81781">
        <ele>372.311339</ele>
        <time>2022-09-12T12:51:13.976Z</time>
      </trkpt>
      <trkpt lat="48.06602" lon="13.81693">
        <ele>371.81953</ele>
        <time>2022-09-12T12:51:35.041Z</time>
      </trkpt>
      <trkpt lat="48.06593" lon="13.81666">
        <ele>371.702103</ele>
        <time>2022-09-12T12:51:39.980Z</time>
      </trkpt>
      <trkpt lat="48.06589" lon="13.81603">
        <ele>371.455567</ele>
        <time>2022-09-12T12:51:50.578Z</time>
      </trkpt>
      <trkpt lat="48.0658" lon="13.81573">
        <ele>371.328249</ele>
        <time>2022-09-12T12:51:56.165Z</time>
      </trkpt>
      <trkpt lat="48.06537" lon="13.81471">
        <ele>371.156336</ele>
        <time>2022-09-12T12:52:17.082Z</time>
      </trkpt>
      <trkpt lat="48.06505" lon="13.81418">
        <ele>371.08174</ele>
        <time>2022-09-12T12:52:30.013Z</time>
      </trkpt>
      <trkpt lat="48.06423" lon="13.81314">
        <ele>371.01939</ele>
        <time>2022-09-12T12:53:01.135Z</time>
      </trkpt>
      <trkpt lat="48.06419" lon="13.8127">
        <ele>371.041973</ele>
        <time>2022-09-12T12:53:10.064Z</time>
      </trkpt>
      <trkpt lat="48.06406" lon="13.8123">
        <ele>371.064559</ele>
        <time>2022-09-12T12:53:18.547Z</time>
      </trkpt>
      <trkpt lat="48.06425" lon="13.8116">
        <ele>371.102641</ele>
        <time>2022-09-12T12:53:32.389Z</time>
      </trkpt>
      <trkpt lat="48.06397" lon="13.81137">
        <ele>371.098094</ele>
        <time>2022-09-12T12:53:40.997Z</time>
      </trkpt>
      <trkpt lat="48.06332" lon="13.81089">
        <ele>370.86497</ele>
        <time>2022-09-12T12:54:00.107Z</time>
      </trkpt>
      <trkpt lat="48.06231" lon="13.81047">
        <ele>370.543193</ele>
        <time>2022-09-12T12:54:27.434Z</time>
      </trkpt>
      <trkpt lat="48.06203" lon="13.8102">
        <ele>370.551922</ele>
        <time>2022-09-12T12:54:36.251Z</time>
      </trkpt>
      <trkpt lat="48.06165" lon="13.80966">
        <ele>370.565582</ele>
        <time>2022-09-12T12:54:50.477Z</time>
      </trkpt>
      <trkpt lat="48.0608" lon="13.80928">
        <ele>370.58882</ele>
        <time>2022-09-12T12:55:15.915Z</time>
      </trkpt>
      <trkpt lat="48.0606" lon="13.80931">
        <ele>370.777944</ele>
        <time>2022-09-12T12:55:21.960Z</time>
      </trkpt>
      <trkpt lat="48.06018" lon="13.80968">
        <ele>371.265713</ele>
        <time>2022-09-12T12:55:37.275Z</time>
      </trkpt>
      <trkpt lat="48.05994" lon="13.80978">
        <ele>371.518362</ele>
        <time>2022-09-12T12:55:45.459Z</time>
      </trkpt>
      <trkpt lat="48.05792" lon="13.80918">
        <ele>374.037802</ele>
        <time>2022-09-12T12:56:56.045Z</time>
      </trkpt>
      <trkpt lat="48.05784" lon="13.80916">
        <ele>374.149625</ele>
        <time>2022-09-12T12:56:58.920Z</time>
      </trkpt>
      <trkpt lat="48.0576" lon="13.8091">
        <ele>374.491978</ele>
        <time>2022-09-12T12:57:07.636Z</time>
      </trkpt>
      <trkpt lat="48.05684" lon="13.80893">
        <ele>375.436968</ele>
        <time>2022-09-12T12:57:34.253Z</time>
      </trkpt>
      <trkpt lat="48.05676" lon="13.80887">
        <ele>375.543856</ele>
        <time>2022-09-12T12:57:37.399Z</time>
      </trkpt>
      <trkpt lat="48.05654" lon="13.8088">
        <ele>375.792706</ele>
        <time>2022-09-12T12:57:44.671Z</time>
      </trkpt>
      <trkpt lat="48.05625" lon="13.80876">
        <ele>376.126587</ele>
        <time>2022-09-12T12:57:54.296Z</time>
      </trkpt>
      <trkpt lat="48.05597" lon="13.80857">
        <ele>376.469697</ele>
        <time>2022-09-12T12:58:04.146Z</time>
      </trkpt>
      <trkpt lat="48.05575" lon="13.8085">
        <ele>376.724628</ele>
        <time>2022-09-12T12:58:11.431Z</time>
      </trkpt>
      <trkpt lat="48.05528" lon="13.80816">
        <ele>377.02068</ele>
        <time>2022-09-12T12:58:28.316Z</time>
      </trkpt>
      <trkpt lat="48.05494" lon="13.80778">
        <ele>377.131696</ele>
        <time>2022-09-12T12:58:41.397Z</time>
      </trkpt>
      <trkpt lat="48.05444" lon="13.80738">
        <ele>377.278612</ele>
        <time>2022-09-12T12:58:57.145Z</time>
      </trkpt>
      <trkpt lat="48.05471" lon="13.80694">
        <ele>377.381503</ele>
        <time>2022-09-12T12:59:07.490Z</time>
      </trkpt>
      <trkpt lat="48.05461" lon="13.80646">
        <ele>377.230232</ele>
        <time>2022-09-12T12:59:16.120Z</time>
      </trkpt>
      <trkpt lat="48.05442" lon="13.80564">
        <ele>376.865045</ele>
        <time>2022-09-12T12:59:30.365Z</time>
      </trkpt>
      <trkpt lat="48.05424" lon="13.8049">
        <ele>376.539659</ele>
        <time>2022-09-12T12:59:42.728Z</time>
      </trkpt>
      <trkpt lat="48.05419" lon="13.80402">
        <ele>375.989471</ele>
        <time>2022-09-12T12:59:56.974Z</time>
      </trkpt>
      <trkpt lat="48.0542" lon="13.80385">
        <ele>375.79374</ele>
        <time>2022-09-12T12:59:59.567Z</time>
      </trkpt>
      <trkpt lat="48.05421" lon="13.80344">
        <ele>375.325074</ele>
        <time>2022-09-12T13:00:05.767Z</time>
      </trkpt>
      <trkpt lat="48.05442" lon="13.80275">
        <ele>374.458822</ele>
        <time>2022-09-12T13:00:16.666Z</time>
      </trkpt>
      <trkpt lat="48.0545" lon="13.80208">
        <ele>373.680639</ele>
        <time>2022-09-12T13:00:26.104Z</time>
      </trkpt>
      <trkpt lat="48.0547" lon="13.80175">
        <ele>373.150596</ele>
        <time>2022-09-12T13:00:32.226Z</time>
      </trkpt>
      <trkpt lat="48.05493" lon="13.80122">
        <ele>372.035635</ele>
        <time>2022-09-12T13:00:40.895Z</time>
      </trkpt>
      <trkpt lat="48.05536" lon="13.80074">
        <ele>370.595217</ele>
        <time>2022-09-12T13:00:51.807Z</time>
      </trkpt>
      <trkpt lat="48.05553" lon="13.80056">
        <ele>370.033408</ele>
        <time>2022-09-12T13:00:55.986Z</time>
      </trkpt>
      <trkpt lat="48.05565" lon="13.80045">
        <ele>369.664738</ele>
        <time>2022-09-12T13:00:58.595Z</time>
      </trkpt>
      <trkpt lat="48.05579" lon="13.80032">
        <ele>369.215031</ele>
        <time>2022-09-12T13:01:01.836Z</time>
      </trkpt>
      <trkpt lat="48.05592" lon="13.80019">
        <ele>368.799428</ele>
        <time>2022-09-12T13:01:04.894Z</time>
      </trkpt>
      <trkpt lat="48.05599" lon="13.80012">
        <ele>368.583097</ele>
        <time>2022-09-12T13:01:06.491Z</time>
      </trkpt>
      <trkpt lat="48.05617" lon="13.7998">
        <ele>368.071495</ele>
        <time>2022-09-12T13:01:12.169Z</time>
      </trkpt>
      <trkpt lat="48.05626" lon="13.79948">
        <ele>367.723344</ele>
        <time>2022-09-12T13:01:16.894Z</time>
      </trkpt>
      <trkpt lat="48.05627" lon="13.79945">
        <ele>367.683505</ele>
        <time>2022-09-12T13:01:17.445Z</time>
      </trkpt>
      <trkpt lat="48.05637" lon="13.79904">
        <ele>367.249591</ele>
        <time>2022-09-12T13:01:23.523Z</time>
      </trkpt>
      <trkpt lat="48.05643" lon="13.79848">
        <ele>366.670977</ele>
        <time>2022-09-12T13:01:31.992Z</time>
      </trkpt>
      <trkpt lat="48.0564" lon="13.79717">
        <ele>365.807691</ele>
        <time>2022-09-12T13:01:53.284Z</time>
      </trkpt>
      <trkpt lat="48.0565" lon="13.79661">
        <ele>366.074477</ele>
        <time>2022-09-12T13:02:03.817Z</time>
      </trkpt>
      <trkpt lat="48.05658" lon="13.79631">
        <ele>366.222165</ele>
        <time>2022-09-12T13:02:10.693Z</time>
      </trkpt>
      <trkpt lat="48.05663" lon="13.79615">
        <ele>366.301735</ele>
        <time>2022-09-12T13:02:14.601Z</time>
      </trkpt>
      <trkpt lat="48.05674" lon="13.7958">
        <ele>366.481467</ele>
        <time>2022-09-12T13:02:23.003Z</time>
      </trkpt>
      <trkpt lat="48.05711" lon="13.79456">
        <ele>367.170004</ele>
        <time>2022-09-12T13:02:52.215Z</time>
      </trkpt>
      <trkpt lat="48.05714" lon="13.79445">
        <ele>367.240221</ele>
        <time>2022-09-12T13:02:54.790Z</time>
      </trkpt>
      <trkpt lat="48.05721" lon="13.79406">
        <ele>367.478026</ele>
        <time>2022-09-12T13:03:03.842Z</time>
      </trkpt>
      <trkpt lat="48.05703" lon="13.79443">
        <ele>367.747124</ele>
        <time>2022-09-12T13:03:13.813Z</time>
      </trkpt>
      <trkpt lat="48.05698" lon="13.79481">
        <ele>367.977758</ele>
        <time>2022-09-12T13:03:22.221Z</time>
      </trkpt>
      <trkpt lat="48.05693" lon="13.79477">
        <ele>368.027237</ele>
        <time>2022-09-12T13:03:24.087Z</time>
      </trkpt>
      <trkpt lat="48.0568" lon="13.79465">
        <ele>368.15974</ele>
        <time>2022-09-12T13:03:29.205Z</time>
      </trkpt>
      <trkpt lat="48.05554" lon="13.79348">
        <ele>368.374043</ele>
        <time>2022-09-12T13:04:10.418Z</time>
      </trkpt>
      <trkpt lat="48.05585" lon="13.79289">
        <ele>368.309611</ele>
        <time>2022-09-12T13:04:23.574Z</time>
      </trkpt>
      <trkpt lat="48.05516" lon="13.79212">
        <ele>368.11551</ele>
        <time>2022-09-12T13:04:45.799Z</time>
      </trkpt>
      <trkpt lat="48.05511" lon="13.792">
        <ele>368.090308</ele>
        <time>2022-09-12T13:04:48.354Z</time>
      </trkpt>
      <trkpt lat="48.05512" lon="13.7918">
        <ele>368.056133</ele>
        <time>2022-09-12T13:04:51.637Z</time>
      </trkpt>
      <trkpt lat="48.0555" lon="13.79104">
        <ele>367.8937</ele>
        <time>2022-09-12T13:05:08.707Z</time>
      </trkpt>
      <trkpt lat="48.05514" lon="13.79076">
        <ele>367.853689</ele>
        <time>2022-09-12T13:05:20.391Z</time>
      </trkpt>
      <trkpt lat="48.05479" lon="13.79049">
        <ele>367.953732</ele>
        <time>2022-09-12T13:05:32.086Z</time>
      </trkpt>
      <trkpt lat="48.05446" lon="13.79011">
        <ele>368.056544</ele>
        <time>2022-09-12T13:05:44.253Z</time>
      </trkpt>
      <trkpt lat="48.05349" lon="13.78849">
        <ele>368.444729</ele>
        <time>2022-09-12T13:06:26.423Z</time>
      </trkpt>
      <trkpt lat="48.05338" lon="13.78822">
        <ele>368.506557</ele>
        <time>2022-09-12T13:06:32.330Z</time>
      </trkpt>
      <trkpt lat="48.05283" lon="13.78626">
        <ele>369.10477</ele>
        <time>2022-09-12T13:07:14.202Z</time>
      </trkpt>
      <trkpt lat="48.05206" lon="13.78574">
        <ele>369.724173</ele>
        <time>2022-09-12T13:07:41.980Z</time>
      </trkpt>
      <trkpt lat="48.05162" lon="13.78535">
        <ele>370.097697</ele>
        <time>2022-09-12T13:07:57.576Z</time>
      </trkpt>
      <trkpt lat="48.05136" lon="13.78502">
        <ele>370.198456</ele>
        <time>2022-09-12T13:08:08.214Z</time>
      </trkpt>
      <trkpt lat="48.05133" lon="13.78491">
        <ele>370.22048</ele>
        <time>2022-09-12T13:08:10.588Z</time>
      </trkpt>
      <trkpt lat="48.05148" lon="13.78451">
        <ele>370.304535</ele>
        <time>2022-09-12T13:08:19.613Z</time>
      </trkpt>
      <trkpt lat="48.05138" lon="13.78418">
        <ele>370.371653</ele>
        <time>2022-09-12T13:08:26.788Z</time>
      </trkpt>
      <trkpt lat="48.05144" lon="13.78379">
        <ele>370.444754</ele>
        <time>2022-09-12T13:08:34.119Z</time>
      </trkpt>
      <trkpt lat="48.05087" lon="13.78372">
        <ele>370.603099</ele>
        <time>2022-09-12T13:08:50.160Z</time>
      </trkpt>
      <trkpt lat="48.05049" lon="13.78355">
        <ele>370.44678</ele>
        <time>2022-09-12T13:08:59.865Z</time>
      </trkpt>
      <trkpt lat="48.05001" lon="13.78311">
        <ele>370.210757</ele>
        <time>2022-09-12T13:09:14.046Z</time>
      </trkpt>
      <trkpt lat="48.04941" lon="13.78216">
        <ele>369.874953</ele>
        <time>2022-09-12T13:09:36.339Z</time>
      </trkpt>
      <trkpt lat="48.04924" lon="13.7818">
        <ele>370.01606</ele>
        <time>2022-09-12T13:09:44.008Z</time>
      </trkpt>
      <trkpt lat="48.04897" lon="13.78133">
        <ele>370.209523</ele>
        <time>2022-09-12T13:09:55.575Z</time>
      </trkpt>
      <trkpt lat="48.04866" lon="13.78091">
        <ele>370.408181</ele>
        <time>2022-09-12T13:10:08.180Z</time>
      </trkpt>
      <trkpt lat="48.04847" lon="13.78081">
        <ele>370.503226</ele>
        <time>2022-09-12T13:10:13.844Z</time>
      </trkpt>
      <trkpt lat="48.04828" lon="13.78079">
        <ele>370.59254</ele>
        <time>2022-09-12T13:10:20.052Z</time>
      </trkpt>
      <trkpt lat="48.04829" lon="13.78069">
        <ele>370.624329</ele>
        <time>2022-09-12T13:10:22.020Z</time>
      </trkpt>
      <trkpt lat="48.04829" lon="13.78059">
        <ele>370.655763</ele>
        <time>2022-09-12T13:10:23.903Z</time>
      </trkpt>
      <trkpt lat="48.04819" lon="13.78032">
        <ele>370.792786</ele>
        <time>2022-09-12T13:10:30.993Z</time>
      </trkpt>
      <trkpt lat="48.0481" lon="13.78031">
        <ele>370.879603</ele>
        <time>2022-09-12T13:10:33.913Z</time>
      </trkpt>
      <trkpt lat="48.04803" lon="13.7803">
        <ele>370.946828</ele>
        <time>2022-09-12T13:10:36.070Z</time>
      </trkpt>
      <trkpt lat="48.04806" lon="13.78003">
        <ele>371.112315</ele>
        <time>2022-09-12T13:10:42.059Z</time>
      </trkpt>
      <trkpt lat="48.04802" lon="13.77988">
        <ele>371.213887</ele>
        <time>2022-09-12T13:10:45.340Z</time>
      </trkpt>
      <trkpt lat="48.0478" lon="13.77975">
        <ele>371.439118</ele>
        <time>2022-09-12T13:10:53.101Z</time>
      </trkpt>
      <trkpt lat="48.04779" lon="13.77967">
        <ele>371.489002</ele>
        <time>2022-09-12T13:10:54.898Z</time>
      </trkpt>
      <trkpt lat="48.04751" lon="13.7797">
        <ele>371.750427</ele>
        <time>2022-09-12T13:11:03.967Z</time>
      </trkpt>
      <trkpt lat="48.04726" lon="13.77972">
        <ele>371.98082</ele>
        <time>2022-09-12T13:11:11.825Z</time>
      </trkpt>
      <trkpt lat="48.04666" lon="13.77975">
        <ele>372.489254</ele>
        <time>2022-09-12T13:11:31.346Z</time>
      </trkpt>
      <trkpt lat="48.04654" lon="13.77943">
        <ele>372.63625</ele>
        <time>2022-09-12T13:11:38.695Z</time>
      </trkpt>
      <trkpt lat="48.04607" lon="13.77915">
        <ele>372.942515</ele>
        <time>2022-09-12T13:11:53.550Z</time>
      </trkpt>
      <trkpt lat="48.04583" lon="13.77872">
        <ele>373.17017</ele>
        <time>2022-09-12T13:12:04.401Z</time>
      </trkpt>
      <trkpt lat="48.04536" lon="13.77782">
        <ele>373.599557</ele>
        <time>2022-09-12T13:12:26.788Z</time>
      </trkpt>
      <trkpt lat="48.04506" lon="13.77726">
        <ele>373.821424</ele>
        <time>2022-09-12T13:12:40.609Z</time>
      </trkpt>
      <trkpt lat="48.04472" lon="13.77661">
        <ele>374.081363</ele>
        <time>2022-09-12T13:12:57.661Z</time>
      </trkpt>
      <trkpt lat="48.04443" lon="13.77601">
        <ele>374.313497</ele>
        <time>2022-09-12T13:13:11.392Z</time>
      </trkpt>
      <trkpt lat="48.04419" lon="13.77546">
        <ele>374.252328</ele>
        <time>2022-09-12T13:13:22.727Z</time>
      </trkpt>
      <trkpt lat="48.04393" lon="13.77487">
        <ele>374.17527</ele>
        <time>2022-09-12T13:13:35.151Z</time>
      </trkpt>
      <trkpt lat="48.04378" lon="13.77449">
        <ele>374.126984</ele>
        <time>2022-09-12T13:13:42.732Z</time>
      </trkpt>
      <trkpt lat="48.04348" lon="13.7734">
        <ele>374.056909</ele>
        <time>2022-09-12T13:14:02.770Z</time>
      </trkpt>
      <trkpt lat="48.04341" lon="13.77268">
        <ele>374.132197</ele>
        <time>2022-09-12T13:14:14.775Z</time>
      </trkpt>
      <trkpt lat="48.0435" lon="13.77184">
        <ele>374.221406</ele>
        <time>2022-09-12T13:14:29.722Z</time>
      </trkpt>
      <trkpt lat="48.0437" lon="13.77108">
        <ele>374.306455</ele>
        <time>2022-09-12T13:14:46.101Z</time>
      </trkpt>
      <trkpt lat="48.04383" lon="13.77058">
        <ele>374.765235</ele>
        <time>2022-09-12T13:14:58.062Z</time>
      </trkpt>
      <trkpt lat="48.04389" lon="13.77033">
        <ele>375.001939</ele>
        <time>2022-09-12T13:15:03.942Z</time>
      </trkpt>
      <trkpt lat="48.04396" lon="13.77008">
        <ele>375.239953</ele>
        <time>2022-09-12T13:15:10.314Z</time>
      </trkpt>
      <trkpt lat="48.04413" lon="13.76935">
        <ele>375.934395</ele>
        <time>2022-09-12T13:15:27.996Z</time>
      </trkpt>
      <trkpt lat="48.04421" lon="13.76879">
        <ele>376.440649</ele>
        <time>2022-09-12T13:15:40.657Z</time>
      </trkpt>
      <trkpt lat="48.04429" lon="13.76854">
        <ele>376.685987</ele>
        <time>2022-09-12T13:15:46.901Z</time>
      </trkpt>
      <trkpt lat="48.04393" lon="13.76815">
        <ele>376.955255</ele>
        <time>2022-09-12T13:16:01.388Z</time>
      </trkpt>
      <trkpt lat="48.04304" lon="13.76794">
        <ele>377.464167</ele>
        <time>2022-09-12T13:16:28.626Z</time>
      </trkpt>
      <trkpt lat="48.04287" lon="13.76782">
        <ele>377.572135</ele>
        <time>2022-09-12T13:16:34.186Z</time>
      </trkpt>
      <trkpt lat="48.04276" lon="13.76754">
        <ele>377.694306</ele>
        <time>2022-09-12T13:16:40.055Z</time>
      </trkpt>
      <trkpt lat="48.04264" lon="13.76692">
        <ele>377.705232</ele>
        <time>2022-09-12T13:16:51.688Z</time>
      </trkpt>
      <trkpt lat="48.04223" lon="13.76644">
        <ele>377.670894</ele>
        <time>2022-09-12T13:17:05.676Z</time>
      </trkpt>
      <trkpt lat="48.04201" lon="13.76596">
        <ele>377.644798</ele>
        <time>2022-09-12T13:17:16.411Z</time>
      </trkpt>
      <trkpt lat="48.04185" lon="13.76593">
        <ele>377.634153</ele>
        <time>2022-09-12T13:17:20.813Z</time>
      </trkpt>
      <trkpt lat="48.04164" lon="13.76591">
        <ele>377.619901</ele>
        <time>2022-09-12T13:17:26.608Z</time>
      </trkpt>
      <trkpt lat="48.04155" lon="13.76588">
        <ele>377.613706</ele>
        <time>2022-09-12T13:17:29.357Z</time>
      </trkpt>
      <trkpt lat="48.04149" lon="13.76575">
        <ele>377.615407</ele>
        <time>2022-09-12T13:17:32.497Z</time>
      </trkpt>
      <trkpt lat="48.0403" lon="13.7653">
        <ele>377.74532</ele>
        <time>2022-09-12T13:18:08.613Z</time>
      </trkpt>
      <trkpt lat="48.03857" lon="13.76392">
        <ele>378.501173</ele>
        <time>2022-09-12T13:19:10.602Z</time>
      </trkpt>
      <trkpt lat="48.03824" lon="13.76325">
        <ele>378.941609</ele>
        <time>2022-09-12T13:19:29.551Z</time>
      </trkpt>
      <trkpt lat="48.0388" lon="13.76215">
        <ele>380.170544</ele>
        <time>2022-09-12T13:19:58.527Z</time>
      </trkpt>
      <trkpt lat="48.03908" lon="13.76138">
        <ele>380.950675</ele>
        <time>2022-09-12T13:20:18.497Z</time>
      </trkpt>
      <trkpt lat="48.03952" lon="13.75988">
        <ele>383.958015</ele>
        <time>2022-09-12T13:21:02.089Z</time>
      </trkpt>
      <trkpt lat="48.0396" lon="13.7594">
        <ele>384.906524</ele>
        <time>2022-09-12T13:21:16.105Z</time>
      </trkpt>
      <trkpt lat="48.03957" lon="13.75923">
        <ele>385.23266</ele>
        <time>2022-09-12T13:21:21.491Z</time>
      </trkpt>
      <trkpt lat="48.03869" lon="13.75672">
        <ele>390.76678</ele>
        <time>2022-09-12T13:22:41.817Z</time>
      </trkpt>
      <trkpt lat="48.03856" lon="13.75642">
        <ele>391.471237</ele>
        <time>2022-09-12T13:22:50.116Z</time>
      </trkpt>
      <trkpt lat="48.0385" lon="13.75651">
        <ele>391.56765</ele>
        <time>2022-09-12T13:22:53.324Z</time>
      </trkpt>
      <trkpt lat="48.0379" lon="13.75616">
        <ele>392.2046</ele>
        <time>2022-09-12T13:23:14.595Z</time>
      </trkpt>
      <trkpt lat="48.03769" lon="13.75556">
        <ele>392.646498</ele>
        <time>2022-09-12T13:23:28.410Z</time>
      </trkpt>
      <trkpt lat="48.03761" lon="13.75514">
        <ele>392.930365</ele>
        <time>2022-09-12T13:23:36.341Z</time>
      </trkpt>
      <trkpt lat="48.03786" lon="13.75247">
        <ele>393.675989</ele>
        <time>2022-09-12T13:24:26.650Z</time>
      </trkpt>
      <trkpt lat="48.03785" lon="13.75213">
        <ele>393.740572</ele>
        <time>2022-09-12T13:24:32.941Z</time>
      </trkpt>
      <trkpt lat="48.03766" lon="13.7517">
        <ele>393.981554</ele>
        <time>2022-09-12T13:24:42.860Z</time>
      </trkpt>
      <trkpt lat="48.03757" lon="13.75124">
        <ele>394.25533</ele>
        <time>2022-09-12T13:24:52.212Z</time>
      </trkpt>
      <trkpt lat="48.03751" lon="13.75053">
        <ele>394.675367</ele>
        <time>2022-09-12T13:25:06.928Z</time>
      </trkpt>
      <trkpt lat="48.03755" lon="13.74966">
        <ele>395.180903</ele>
        <time>2022-09-12T13:25:25.926Z</time>
      </trkpt>
      <trkpt lat="48.0375" lon="13.74926">
        <ele>395.422275</ele>
        <time>2022-09-12T13:25:34.865Z</time>
      </trkpt>
      <trkpt lat="48.03714" lon="13.74832">
        <ele>396.089735</ele>
        <time>2022-09-12T13:25:58.436Z</time>
      </trkpt>
      <trkpt lat="48.0368" lon="13.74793">
        <ele>396.489249</ele>
        <time>2022-09-12T13:26:12.168Z</time>
      </trkpt>
      <trkpt lat="48.03691" lon="13.74756">
        <ele>396.743748</ele>
        <time>2022-09-12T13:26:20.313Z</time>
      </trkpt>
      <trkpt lat="48.03722" lon="13.74737">
        <ele>396.992046</ele>
        <time>2022-09-12T13:26:29.765Z</time>
      </trkpt>
      <trkpt lat="48.03727" lon="13.74728">
        <ele>396.993965</ele>
        <time>2022-09-12T13:26:31.963Z</time>
      </trkpt>
      <trkpt lat="48.03734" lon="13.74669">
        <ele>397.003632</ele>
        <time>2022-09-12T13:26:42.957Z</time>
      </trkpt>
      <trkpt lat="48.03736" lon="13.74655">
        <ele>397.005883</ele>
        <time>2022-09-12T13:26:45.550Z</time>
      </trkpt>
      <trkpt lat="48.03754" lon="13.74608">
        <ele>397.014565</ele>
        <time>2022-09-12T13:26:55.002Z</time>
      </trkpt>
      <trkpt lat="48.0377" lon="13.74579">
        <ele>397.020756</ele>
        <time>2022-09-12T13:27:01.425Z</time>
      </trkpt>
      <trkpt lat="48.03791" lon="13.74527">
        <ele>397.030534</ele>
        <time>2022-09-12T13:27:11.682Z</time>
      </trkpt>
      <trkpt lat="48.03617" lon="13.74373">
        <ele>397.414895</ele>
        <time>2022-09-12T13:28:07.326Z</time>
      </trkpt>
      <trkpt lat="48.03613" lon="13.74355">
        <ele>397.490411</ele>
        <time>2022-09-12T13:28:11.056Z</time>
      </trkpt>
      <trkpt lat="48.03617" lon="13.74321">
        <ele>397.629179</ele>
        <time>2022-09-12T13:28:17.964Z</time>
      </trkpt>
      <trkpt lat="48.03647" lon="13.74252">
        <ele>397.962374</ele>
        <time>2022-09-12T13:28:34.384Z</time>
      </trkpt>
      <trkpt lat="48.03663" lon="13.74223">
        <ele>398.116107</ele>
        <time>2022-09-12T13:28:42.228Z</time>
      </trkpt>
      <trkpt lat="48.03631" lon="13.74171">
        <ele>398.403714</ele>
        <time>2022-09-12T13:28:56.130Z</time>
      </trkpt>
      <trkpt lat="48.03616" lon="13.74158">
        <ele>398.49623</ele>
        <time>2022-09-12T13:29:01.246Z</time>
      </trkpt>
      <trkpt lat="48.03613" lon="13.74157">
        <ele>398.515511</ele>
        <time>2022-09-12T13:29:02.502Z</time>
      </trkpt>
      <trkpt lat="48.03592" lon="13.7415">
        <ele>398.621299</ele>
        <time>2022-09-12T13:29:08.781Z</time>
      </trkpt>
      <trkpt lat="48.03571" lon="13.74141">
        <ele>398.72665</ele>
        <time>2022-09-12T13:29:15.301Z</time>
      </trkpt>
      <trkpt lat="48.03538" lon="13.74115">
        <ele>398.909138</ele>
        <time>2022-09-12T13:29:26.397Z</time>
      </trkpt>
      <trkpt lat="48.03536" lon="13.74112">
        <ele>398.9267</ele>
        <time>2022-09-12T13:29:27.378Z</time>
      </trkpt>
      <trkpt lat="48.03531" lon="13.74106">
        <ele>398.955922</ele>
        <time>2022-09-12T13:29:29.007Z</time>
      </trkpt>
      <trkpt lat="48.03513" lon="13.74083">
        <ele>399.071137</ele>
        <time>2022-09-12T13:29:35.443Z</time>
      </trkpt>
      <trkpt lat="48.03498" lon="13.74057">
        <ele>399.183921</ele>
        <time>2022-09-12T13:29:41.818Z</time>
      </trkpt>
      <trkpt lat="48.03496" lon="13.74053">
        <ele>399.201463</ele>
        <time>2022-09-12T13:29:42.802Z</time>
      </trkpt>
      <trkpt lat="48.03449" lon="13.73931">
        <ele>399.662196</ele>
        <time>2022-09-12T13:30:09.916Z</time>
      </trkpt>
      <trkpt lat="48.03436" lon="13.73909">
        <ele>399.75712</ele>
        <time>2022-09-12T13:30:15.602Z</time>
      </trkpt>
      <trkpt lat="48.0341" lon="13.73886">
        <ele>399.906273</ele>
        <time>2022-09-12T13:30:24.435Z</time>
      </trkpt>
      <trkpt lat="48.03378" lon="13.73858">
        <ele>400.085083</ele>
        <time>2022-09-12T13:30:35.233Z</time>
      </trkpt>
      <trkpt lat="48.03352" lon="13.73822">
        <ele>400.25573</ele>
        <time>2022-09-12T13:30:45.711Z</time>
      </trkpt>
      <trkpt lat="48.033" lon="13.73732">
        <ele>400.604554</ele>
        <time>2022-09-12T13:31:08.742Z</time>
      </trkpt>
      <trkpt lat="48.03268" lon="13.73709">
        <ele>400.758857</ele>
        <time>2022-09-12T13:31:18.853Z</time>
      </trkpt>
      <trkpt lat="48.03208" lon="13.73695">
        <ele>401.031909</ele>
        <time>2022-09-12T13:31:36.037Z</time>
      </trkpt>
      <trkpt lat="48.03144" lon="13.73682">
        <ele>401.418817</ele>
        <time>2022-09-12T13:31:54.727Z</time>
      </trkpt>
      <trkpt lat="48.03089" lon="13.73652">
        <ele>401.767525</ele>
        <time>2022-09-12T13:32:11.740Z</time>
      </trkpt>
      <trkpt lat="48.02958" lon="13.73493">
        <ele>403.087817</ele>
        <time>2022-09-12T13:33:04.005Z</time>
      </trkpt>
      <trkpt lat="48.02884" lon="13.73388">
        <ele>403.829616</ele>
        <time>2022-09-12T13:33:35.408Z</time>
      </trkpt>
      <trkpt lat="48.02831" lon="13.73281">
        <ele>404.279114</ele>
        <time>2022-09-12T13:34:01.875Z</time>
      </trkpt>
      <trkpt lat="48.02799" lon="13.73222">
        <ele>404.536865</ele>
        <time>2022-09-12T13:34:15.985Z</time>
      </trkpt>
      <trkpt lat="48.02792" lon="13.73208">
        <ele>404.546052</ele>
        <time>2022-09-12T13:34:19.155Z</time>
      </trkpt>
      <trkpt lat="48.02771" lon="13.73171">
        <ele>404.556687</ele>
        <time>2022-09-12T13:34:27.593Z</time>
      </trkpt>
      <trkpt lat="48.02727" lon="13.73091">
        <ele>404.579217</ele>
        <time>2022-09-12T13:34:45.785Z</time>
      </trkpt>
      <trkpt lat="48.0268" lon="13.73002">
        <ele>404.615995</ele>
        <time>2022-09-12T13:35:06.264Z</time>
      </trkpt>
      <trkpt lat="48.02677" lon="13.72996">
        <ele>404.624801</ele>
        <time>2022-09-12T13:35:07.581Z</time>
      </trkpt>
      <trkpt lat="48.02663" lon="13.72972">
        <ele>404.662158</ele>
        <time>2022-09-12T13:35:13.148Z</time>
      </trkpt>
      <trkpt lat="48.02645" lon="13.72939">
        <ele>404.714181</ele>
        <time>2022-09-12T13:35:20.985Z</time>
      </trkpt>
      <trkpt lat="48.02641" lon="13.72933">
        <ele>404.724022</ele>
        <time>2022-09-12T13:35:22.486Z</time>
      </trkpt>
      <trkpt lat="48.02637" lon="13.72925">
        <ele>404.736188</ele>
        <time>2022-09-12T13:35:24.329Z</time>
      </trkpt>
      <trkpt lat="48.02607" lon="13.72886">
        <ele>404.807263</ele>
        <time>2022-09-12T13:35:35.246Z</time>
      </trkpt>
      <trkpt lat="48.02537" lon="13.72814">
        <ele>405.07845</ele>
        <time>2022-09-12T13:35:58.975Z</time>
      </trkpt>
      <trkpt lat="48.02492" lon="13.72715">
        <ele>405.720857</ele>
        <time>2022-09-12T13:36:23.022Z</time>
      </trkpt>
      <trkpt lat="48.02451" lon="13.72658">
        <ele>406.167588</ele>
        <time>2022-09-12T13:36:40.619Z</time>
      </trkpt>
      <trkpt lat="48.02402" lon="13.72594">
        <ele>406.910609</ele>
        <time>2022-09-12T13:37:02.008Z</time>
      </trkpt>
      <trkpt lat="48.0231" lon="13.72531">
        <ele>408.265324</ele>
        <time>2022-09-12T13:37:36.447Z</time>
      </trkpt>
      <trkpt lat="48.0207" lon="13.72353">
        <ele>410.932621</ele>
        <time>2022-09-12T13:39:01.985Z</time>
      </trkpt>
      <trkpt lat="48.02062" lon="13.72347">
        <ele>410.968803</ele>
        <time>2022-09-12T13:39:04.620Z</time>
      </trkpt>
      <trkpt lat="48.02008" lon="13.72293">
        <ele>411.23033</ele>
        <time>2022-09-12T13:39:22.399Z</time>
      </trkpt>
      <trkpt lat="48.01985" lon="13.72242">
        <ele>411.393524</ele>
        <time>2022-09-12T13:39:33.406Z</time>
      </trkpt>
      <trkpt lat="48.01949" lon="13.72179">
        <ele>411.503337</ele>
        <time>2022-09-12T13:39:47.886Z</time>
      </trkpt>
      <trkpt lat="48.01941" lon="13.72167">
        <ele>411.517391</ele>
        <time>2022-09-12T13:39:50.910Z</time>
      </trkpt>
      <trkpt lat="48.01911" lon="13.72131">
        <ele>411.564848</ele>
        <time>2022-09-12T13:40:01.174Z</time>
      </trkpt>
      <trkpt lat="48.01902" lon="13.72127">
        <ele>411.576207</ele>
        <time>2022-09-12T13:40:03.674Z</time>
      </trkpt>
      <trkpt lat="48.01889" lon="13.72124">
        <ele>411.593159</ele>
        <time>2022-09-12T13:40:07.335Z</time>
      </trkpt>
      <trkpt lat="48.01884" lon="13.72123">
        <ele>411.598965</ele>
        <time>2022-09-12T13:40:08.668Z</time>
      </trkpt>
      <trkpt lat="48.01853" lon="13.72111">
        <ele>411.639039</ele>
        <time>2022-09-12T13:40:17.315Z</time>
      </trkpt>
      <trkpt lat="48.01827" lon="13.72092">
        <ele>411.675153</ele>
        <time>2022-09-12T13:40:25.431Z</time>
      </trkpt>
      <trkpt lat="48.01825" lon="13.7209">
        <ele>411.690504</ele>
        <time>2022-09-12T13:40:26.119Z</time>
      </trkpt>
      <trkpt lat="48.01809" lon="13.72078">
        <ele>411.803084</ele>
        <time>2022-09-12T13:40:31.258Z</time>
      </trkpt>
      <trkpt lat="48.01773" lon="13.7205">
        <ele>412.069219</ele>
        <time>2022-09-12T13:40:43.660Z</time>
      </trkpt>
      <trkpt lat="48.01763" lon="13.72042">
        <ele>412.147535</ele>
        <time>2022-09-12T13:40:47.363Z</time>
      </trkpt>
      <trkpt lat="48.01758" lon="13.72039">
        <ele>412.17847</ele>
        <time>2022-09-12T13:40:48.826Z</time>
      </trkpt>
      <trkpt lat="48.01714" lon="13.72004">
        <ele>412.50671</ele>
        <time>2022-09-12T13:41:04.175Z</time>
      </trkpt>
      <trkpt lat="48.01612" lon="13.71948">
        <ele>412.809186</ele>
        <time>2022-09-12T13:41:36.373Z</time>
      </trkpt>
      <trkpt lat="48.0161" lon="13.71916">
        <ele>412.7915</ele>
        <time>2022-09-12T13:41:41.856Z</time>
      </trkpt>
      <trkpt lat="48.01589" lon="13.71807">
        <ele>412.728135</ele>
        <time>2022-09-12T13:42:00.565Z</time>
      </trkpt>
      <trkpt lat="48.01576" lon="13.7177">
        <ele>412.711454</ele>
        <time>2022-09-12T13:42:07.332Z</time>
      </trkpt>
      <trkpt lat="48.01564" lon="13.71713">
        <ele>412.890531</ele>
        <time>2022-09-12T13:42:17.604Z</time>
      </trkpt>
      <trkpt lat="48.01541" lon="13.71628">
        <ele>413.164609</ele>
        <time>2022-09-12T13:42:34.151Z</time>
      </trkpt>
      <trkpt lat="48.0152" lon="13.71574">
        <ele>413.35305</ele>
        <time>2022-09-12T13:42:45.895Z</time>
      </trkpt>
      <trkpt lat="48.01506" lon="13.71534">
        <ele>413.488666</ele>
        <time>2022-09-12T13:42:55.303Z</time>
      </trkpt>
      <trkpt lat="48.01492" lon="13.71511">
        <ele>413.90365</ele>
        <time>2022-09-12T13:43:02.279Z</time>
      </trkpt>
      <trkpt lat="48.0145" lon="13.71372">
        <ele>416.46314</ele>
        <time>2022-09-12T13:43:48.281Z</time>
      </trkpt>
      <trkpt lat="48.01439" lon="13.7132">
        <ele>417.37476</ele>
        <time>2022-09-12T13:44:03.301Z</time>
      </trkpt>
      <trkpt lat="48.01424" lon="13.71303">
        <ele>417.844969</ele>
        <time>2022-09-12T13:44:07.506Z</time>
      </trkpt>
      <trkpt lat="48.01405" lon="13.713">
        <ele>418.039388</ele>
        <time>2022-09-12T13:44:15.404Z</time>
      </trkpt>
      <trkpt lat="48.01401" lon="13.713">
        <ele>418.04809</ele>
        <time>2022-09-12T13:44:16.088Z</time>
      </trkpt>
      <trkpt lat="48.0137" lon="13.71392">
        <ele>418.194927</ele>
        <time>2022-09-12T13:44:37.724Z</time>
      </trkpt>
      <trkpt lat="48.01353" lon="13.71427">
        <ele>418.25739</ele>
        <time>2022-09-12T13:44:46.430Z</time>
      </trkpt>
      <trkpt lat="48.01317" lon="13.71472">
        <ele>418.35533</ele>
        <time>2022-09-12T13:44:57.520Z</time>
      </trkpt>
      <trkpt lat="48.01288" lon="13.71475">
        <ele>418.355406</ele>
        <time>2022-09-12T13:45:04.036Z</time>
      </trkpt>
      <trkpt lat="48.01275" lon="13.7147">
        <ele>418.29938</ele>
        <time>2022-09-12T13:45:06.994Z</time>
      </trkpt>
      <trkpt lat="48.01226" lon="13.71414">
        <ele>418.048245</ele>
        <time>2022-09-12T13:45:20.876Z</time>
      </trkpt>
      <trkpt lat="48.01201" lon="13.71401">
        <ele>417.940245</ele>
        <time>2022-09-12T13:45:27.056Z</time>
      </trkpt>
      <trkpt lat="48.01155" lon="13.71348">
        <ele>417.702436</ele>
        <time>2022-09-12T13:45:45.068Z</time>
      </trkpt>
      <trkpt lat="48.01057" lon="13.7124">
        <ele>417.992237</ele>
        <time>2022-09-12T13:46:20.406Z</time>
      </trkpt>
      <trkpt lat="48.01033" lon="13.71221">
        <ele>418.072857</ele>
        <time>2022-09-12T13:46:27.516Z</time>
      </trkpt>
      <trkpt lat="48.00992" lon="13.71203">
        <ele>418.200429</ele>
        <time>2022-09-12T13:46:38.677Z</time>
      </trkpt>
      <trkpt lat="48.00932" lon="13.71219">
        <ele>418.429823</ele>
        <time>2022-09-12T13:46:55.169Z</time>
      </trkpt>
      <trkpt lat="48.00913" lon="13.71216">
        <ele>418.498974</ele>
        <time>2022-09-12T13:47:00.183Z</time>
      </trkpt>
      <trkpt lat="48.00905" lon="13.71208">
        <ele>418.534639</ele>
        <time>2022-09-12T13:47:02.786Z</time>
      </trkpt>
      <trkpt lat="48.00892" lon="13.71182">
        <ele>418.618275</ele>
        <time>2022-09-12T13:47:08.808Z</time>
      </trkpt>
      <trkpt lat="48.00878" lon="13.71126">
        <ele>418.76682</ele>
        <time>2022-09-12T13:47:20.169Z</time>
      </trkpt>
      <trkpt lat="48.00885" lon="13.71117">
        <ele>418.800655</ele>
        <time>2022-09-12T13:47:22.965Z</time>
      </trkpt>
      <trkpt lat="48.00886" lon="13.71078">
        <ele>418.987187</ele>
        <time>2022-09-12T13:47:31.182Z</time>
      </trkpt>
      <trkpt lat="48.00881" lon="13.71001">
        <ele>419.74116</ele>
        <time>2022-09-12T13:47:49.812Z</time>
      </trkpt>
      <trkpt lat="48.0085" lon="13.70795">
        <ele>421.606079</ele>
        <time>2022-09-12T13:48:37.726Z</time>
      </trkpt>
      <trkpt lat="48.00834" lon="13.70716">
        <ele>421.939278</ele>
        <time>2022-09-12T13:48:54.985Z</time>
      </trkpt>
      <trkpt lat="48.00805" lon="13.70672">
        <ele>422.186669</ele>
        <time>2022-09-12T13:49:06.852Z</time>
      </trkpt>
      <trkpt lat="48.00781" lon="13.70614">
        <ele>422.460897</ele>
        <time>2022-09-12T13:49:19.315Z</time>
      </trkpt>
      <trkpt lat="48.00776" lon="13.70502">
        <ele>422.946543</ele>
        <time>2022-09-12T13:49:38.959Z</time>
      </trkpt>
      <trkpt lat="48.00779" lon="13.70443">
        <ele>423.205756</ele>
        <time>2022-09-12T13:49:49.635Z</time>
      </trkpt>
      <trkpt lat="48.00827" lon="13.70208">
        <ele>425.086166</ele>
        <time>2022-09-12T13:50:44.628Z</time>
      </trkpt>
      <trkpt lat="48.00855" lon="13.70194">
        <ele>425.562176</ele>
        <time>2022-09-12T13:50:55.499Z</time>
      </trkpt>
      <trkpt lat="48.00866" lon="13.70181">
        <ele>425.793638</ele>
        <time>2022-09-12T13:51:00.299Z</time>
      </trkpt>
      <trkpt lat="48.00881" lon="13.7015">
        <ele>426.207661</ele>
        <time>2022-09-12T13:51:09.671Z</time>
      </trkpt>
      <trkpt lat="48.00911" lon="13.70069">
        <ele>426.926898</ele>
        <time>2022-09-12T13:51:31.557Z</time>
      </trkpt>
      <trkpt lat="48.00918" lon="13.69917">
        <ele>427.740855</ele>
        <time>2022-09-12T13:52:03.505Z</time>
      </trkpt>
      <trkpt lat="48.00954" lon="13.69739">
        <ele>428.02039</ele>
        <time>2022-09-12T13:52:34.934Z</time>
      </trkpt>
      <trkpt lat="48.00956" lon="13.69688">
        <ele>427.99236</ele>
        <time>2022-09-12T13:52:42.974Z</time>
      </trkpt>
      <trkpt lat="48.0095" lon="13.69583">
        <ele>428.033065</ele>
        <time>2022-09-12T13:53:01.705Z</time>
      </trkpt>
      <trkpt lat="48.00965" lon="13.69439">
        <ele>429.597993</ele>
        <time>2022-09-12T13:53:35.387Z</time>
      </trkpt>
      <trkpt lat="48.00974" lon="13.69385">
        <ele>430.195347</ele>
        <time>2022-09-12T13:53:51.432Z</time>
      </trkpt>
      <trkpt lat="48.00996" lon="13.69303">
        <ele>430.9238</ele>
        <time>2022-09-12T13:54:10.941Z</time>
      </trkpt>
      <trkpt lat="48.01026" lon="13.69265">
        <ele>431.101445</ele>
        <time>2022-09-12T13:54:23.178Z</time>
      </trkpt>
      <trkpt lat="48.01064" lon="13.69202">
        <ele>431.356882</ele>
        <time>2022-09-12T13:54:42.536Z</time>
      </trkpt>
      <trkpt lat="48.0106" lon="13.69191">
        <ele>431.394452</ele>
        <time>2022-09-12T13:54:43.986Z</time>
      </trkpt>
      <trkpt lat="48.01037" lon="13.69179">
        <ele>431.504999</ele>
        <time>2022-09-12T13:54:52.363Z</time>
      </trkpt>
      <trkpt lat="48.00987" lon="13.69126">
        <ele>431.248108</ele>
        <time>2022-09-12T13:55:05.917Z</time>
      </trkpt>
      <trkpt lat="48.00984" lon="13.69109">
        <ele>431.096729</ele>
        <time>2022-09-12T13:55:09.695Z</time>
      </trkpt>
      <trkpt lat="48.00999" lon="13.69046">
        <ele>430.509658</ele>
        <time>2022-09-12T13:55:18.500Z</time>
      </trkpt>
      <trkpt lat="48.00986" lon="13.68874">
        <ele>429.211566</ele>
        <time>2022-09-12T13:55:45.492Z</time>
      </trkpt>
      <trkpt lat="48.00973" lon="13.68746">
        <ele>428.908399</ele>
        <time>2022-09-12T13:56:07.118Z</time>
      </trkpt>
      <trkpt lat="48.00962" lon="13.68699">
        <ele>428.790021</ele>
        <time>2022-09-12T13:56:15.672Z</time>
      </trkpt>
      <trkpt lat="48.00947" lon="13.6866">
        <ele>428.684637</ele>
        <time>2022-09-12T13:56:23.452Z</time>
      </trkpt>
      <trkpt lat="48.00932" lon="13.68612">
        <ele>428.782783</ele>
        <time>2022-09-12T13:56:32.936Z</time>
      </trkpt>
      <trkpt lat="48.00925" lon="13.68558">
        <ele>428.948776</ele>
        <time>2022-09-12T13:56:43.227Z</time>
      </trkpt>
      <trkpt lat="48.00903" lon="13.68441">
        <ele>429.313222</ele>
        <time>2022-09-12T13:57:07.369Z</time>
      </trkpt>
      <trkpt lat="48.00894" lon="13.68296">
        <ele>430.195012</ele>
        <time>2022-09-12T13:57:37.047Z</time>
      </trkpt>
      <trkpt lat="48.00893" lon="13.68211">
        <ele>430.846831</ele>
        <time>2022-09-12T13:57:56.082Z</time>
      </trkpt>
      <trkpt lat="48.00885" lon="13.68196">
        <ele>430.985964</ele>
        <time>2022-09-12T13:57:59.878Z</time>
      </trkpt>
      <trkpt lat="48.0085" lon="13.68201">
        <ele>431.394392</ele>
        <time>2022-09-12T13:58:11.744Z</time>
      </trkpt>
      <trkpt lat="48.00837" lon="13.68206">
        <ele>431.562163</ele>
        <time>2022-09-12T13:58:16.256Z</time>
      </trkpt>
      <trkpt lat="48.00781" lon="13.68222">
        <ele>432.578667</ele>
        <time>2022-09-12T13:58:35.697Z</time>
      </trkpt>
      <trkpt lat="48.00769" lon="13.68219">
        <ele>432.787971</ele>
        <time>2022-09-12T13:58:39.662Z</time>
      </trkpt>
      <trkpt lat="48.00732" lon="13.67994">
        <ele>435.424043</ele>
        <time>2022-09-12T13:59:36.089Z</time>
      </trkpt>
      <trkpt lat="48.00694" lon="13.67844">
        <ele>437.008584</ele>
        <time>2022-09-12T14:00:11.268Z</time>
      </trkpt>
      <trkpt lat="48.00683" lon="13.67767">
        <ele>437.671069</ele>
        <time>2022-09-12T14:00:28.169Z</time>
      </trkpt>
      <trkpt lat="48.00683" lon="13.67685">
        <ele>438.252782</ele>
        <time>2022-09-12T14:00:46.149Z</time>
      </trkpt>
      <trkpt lat="48.00696" lon="13.67634">
        <ele>438.635258</ele>
        <time>2022-09-12T14:00:57.835Z</time>
      </trkpt>
      <trkpt lat="48.00746" lon="13.67498">
        <ele>439.504049</ele>
        <time>2022-09-12T14:01:29.624Z</time>
      </trkpt>
      <trkpt lat="48.00752" lon="13.67477">
        <ele>439.584281</ele>
        <time>2022-09-12T14:01:34.616Z</time>
      </trkpt>
      <trkpt lat="48.00773" lon="13.67361">
        <ele>439.999273</ele>
        <time>2022-09-12T14:01:58.839Z</time>
      </trkpt>
      <trkpt lat="48.00777" lon="13.67341">
        <ele>440.070378</ele>
        <time>2022-09-12T14:02:02.526Z</time>
      </trkpt>
      <trkpt lat="48.00825" lon="13.67093">
        <ele>439.606949</ele>
        <time>2022-09-12T14:02:48.043Z</time>
      </trkpt>
      <trkpt lat="48.00899" lon="13.66893">
        <ele>438.639005</ele>
        <time>2022-09-12T14:03:25.857Z</time>
      </trkpt>
      <trkpt lat="48.00993" lon="13.6669">
        <ele>437.793091</ele>
        <time>2022-09-12T14:04:08.393Z</time>
      </trkpt>
      <trkpt lat="48.01073" lon="13.66517">
        <ele>437.214163</ele>
        <time>2022-09-12T14:04:45.648Z</time>
      </trkpt>
      <trkpt lat="48.01076" lon="13.6651">
        <ele>437.190595</ele>
        <time>2022-09-12T14:04:47.202Z</time>
      </trkpt>
      <trkpt lat="48.01093" lon="13.66427">
        <ele>436.944463</ele>
        <time>2022-09-12T14:05:02.560Z</time>
      </trkpt>
      <trkpt lat="48.01105" lon="13.66358">
        <ele>436.743034</ele>
        <time>2022-09-12T14:05:14.821Z</time>
      </trkpt>
      <trkpt lat="48.0111" lon="13.66244">
        <ele>436.129493</ele>
        <time>2022-09-12T14:05:33.302Z</time>
      </trkpt>
      <trkpt lat="48.0111" lon="13.66141">
        <ele>435.558633</ele>
        <time>2022-09-12T14:05:50.794Z</time>
      </trkpt>
      <trkpt lat="48.01127" lon="13.66068">
        <ele>435.129534</ele>
        <time>2022-09-12T14:06:02.821Z</time>
      </trkpt>
      <trkpt lat="48.01143" lon="13.6602">
        <ele>434.827532</ele>
        <time>2022-09-12T14:06:11.058Z</time>
      </trkpt>
      <trkpt lat="48.01165" lon="13.65996">
        <ele>434.595268</ele>
        <time>2022-09-12T14:06:17.417Z</time>
      </trkpt>
      <trkpt lat="48.01171" lon="13.65992">
        <ele>434.536839</ele>
        <time>2022-09-12T14:06:19.416Z</time>
      </trkpt>
      <trkpt lat="48.01172" lon="13.65956">
        <ele>434.337028</ele>
        <time>2022-09-12T14:06:27.032Z</time>
      </trkpt>
      <trkpt lat="48.01178" lon="13.65931">
        <ele>434.186971</ele>
        <time>2022-09-12T14:06:32.409Z</time>
      </trkpt>
      <trkpt lat="48.01186" lon="13.65896">
        <ele>433.971812</ele>
        <time>2022-09-12T14:06:40.574Z</time>
      </trkpt>
      <trkpt lat="48.01213" lon="13.65786">
        <ele>433.874621</ele>
        <time>2022-09-12T14:07:05.999Z</time>
      </trkpt>
      <trkpt lat="48.01219" lon="13.65769">
        <ele>433.922633</ele>
        <time>2022-09-12T14:07:10.723Z</time>
      </trkpt>
      <trkpt lat="48.01231" lon="13.65697">
        <ele>434.104517</ele>
        <time>2022-09-12T14:07:28.822Z</time>
      </trkpt>
      <trkpt lat="48.0125" lon="13.6558">
        <ele>434.370077</ele>
        <time>2022-09-12T14:08:02.517Z</time>
      </trkpt>
      <trkpt lat="48.01313" lon="13.65434">
        <ele>434.463032</ele>
        <time>2022-09-12T14:08:45.436Z</time>
      </trkpt>
      <trkpt lat="48.01275" lon="13.65387">
        <ele>434.502289</ele>
        <time>2022-09-12T14:08:57.480Z</time>
      </trkpt>
      <trkpt lat="48.01272" lon="13.65327">
        <ele>433.823357</ele>
        <time>2022-09-12T14:09:07.402Z</time>
      </trkpt>
      <trkpt lat="48.01271" lon="13.65304">
        <ele>433.534235</ele>
        <time>2022-09-12T14:09:11.120Z</time>
      </trkpt>
      <trkpt lat="48.0127" lon="13.65263">
        <ele>433.013699</ele>
        <time>2022-09-12T14:09:17.342Z</time>
      </trkpt>
      <trkpt lat="48.01247" lon="13.65264">
        <ele>432.575818</ele>
        <time>2022-09-12T14:09:22.012Z</time>
      </trkpt>
      <trkpt lat="48.01249" lon="13.65161">
        <ele>431.278689</ele>
        <time>2022-09-12T14:09:41.270Z</time>
      </trkpt>
      <trkpt lat="48.01243" lon="13.651">
        <ele>430.408077</ele>
        <time>2022-09-12T14:09:52.896Z</time>
      </trkpt>
      <trkpt lat="48.01242" lon="13.6502">
        <ele>429.257409</ele>
        <time>2022-09-12T14:10:07.989Z</time>
      </trkpt>
      <trkpt lat="48.01225" lon="13.64974">
        <ele>428.498172</ele>
        <time>2022-09-12T14:10:15.525Z</time>
      </trkpt>
      <trkpt lat="48.01202" lon="13.64943">
        <ele>427.818237</ele>
        <time>2022-09-12T14:10:22.120Z</time>
      </trkpt>
      <trkpt lat="48.01192" lon="13.64936">
        <ele>427.572098</ele>
        <time>2022-09-12T14:10:24.525Z</time>
      </trkpt>
      <trkpt lat="48.01175" lon="13.64922">
        <ele>427.198987</ele>
        <time>2022-09-12T14:10:28.451Z</time>
      </trkpt>
      <trkpt lat="48.01161" lon="13.64907">
        <ele>427.059965</ele>
        <time>2022-09-12T14:10:32.110Z</time>
      </trkpt>
      <trkpt lat="48.01145" lon="13.6489">
        <ele>426.899861</ele>
        <time>2022-09-12T14:10:36.257Z</time>
      </trkpt>
      <trkpt lat="48.01142" lon="13.64886">
        <ele>426.867104</ele>
        <time>2022-09-12T14:10:37.138Z</time>
      </trkpt>
      <trkpt lat="48.01128" lon="13.64905">
        <ele>426.718634</ele>
        <time>2022-09-12T14:10:41.151Z</time>
      </trkpt>
      <trkpt lat="48.01119" lon="13.6494">
        <ele>426.5119</ele>
        <time>2022-09-12T14:10:46.836Z</time>
      </trkpt>
      <trkpt lat="48.01115" lon="13.64939">
        <ele>426.485642</ele>
        <time>2022-09-12T14:10:47.586Z</time>
      </trkpt>
      <trkpt lat="48.01097" lon="13.64893">
        <ele>426.200199</ele>
        <time>2022-09-12T14:10:59.053Z</time>
      </trkpt>
      <trkpt lat="48.01089" lon="13.64873">
        <ele>426.071318</ele>
        <time>2022-09-12T14:11:04.543Z</time>
      </trkpt>
      <trkpt lat="48.01095" lon="13.64867">
        <ele>426.01916</ele>
        <time>2022-09-12T14:11:06.488Z</time>
      </trkpt>
      <trkpt lat="48.01112" lon="13.64857">
        <ele>425.872524</ele>
        <time>2022-09-12T14:11:12.348Z</time>
      </trkpt>
      <trkpt lat="48.01119" lon="13.64852">
        <ele>425.806448</ele>
        <time>2022-09-12T14:11:14.815Z</time>
      </trkpt>
      <trkpt lat="48.01131" lon="13.64839">
        <ele>425.86511</ele>
        <time>2022-09-12T14:11:19.374Z</time>
      </trkpt>
      <trkpt lat="48.01137" lon="13.64821">
        <ele>425.988183</ele>
        <time>2022-09-12T14:11:23.864Z</time>
      </trkpt>
      <trkpt lat="48.01134" lon="13.64806">
        <ele>426.081393</ele>
        <time>2022-09-12T14:11:26.997Z</time>
      </trkpt>
      <trkpt lat="48.01117" lon="13.64741">
        <ele>426.516926</ele>
        <time>2022-09-12T14:11:41.746Z</time>
      </trkpt>
      <trkpt lat="48.01096" lon="13.64662">
        <ele>427.044816</ele>
        <time>2022-09-12T14:11:59.500Z</time>
      </trkpt>
      <trkpt lat="48.01094" lon="13.64654">
        <ele>427.096183</ele>
        <time>2022-09-12T14:12:01.199Z</time>
      </trkpt>
      <trkpt lat="48.01083" lon="13.64608">
        <ele>427.399945</ele>
        <time>2022-09-12T14:12:11.876Z</time>
      </trkpt>
      <trkpt lat="48.01054" lon="13.64488">
        <ele>428.123151</ele>
        <time>2022-09-12T14:12:38.634Z</time>
      </trkpt>
      <trkpt lat="48.01052" lon="13.64484">
        <ele>428.152524</ele>
        <time>2022-09-12T14:12:39.655Z</time>
      </trkpt>
      <trkpt lat="48.01035" lon="13.64414">
        <ele>428.575564</ele>
        <time>2022-09-12T14:12:54.230Z</time>
      </trkpt>
      <trkpt lat="48.01026" lon="13.64374">
        <ele>428.816021</ele>
        <time>2022-09-12T14:13:02.339Z</time>
      </trkpt>
      <trkpt lat="48.00916" lon="13.6391">
        <ele>432.642927</ele>
        <time>2022-09-12T14:14:47.626Z</time>
      </trkpt>
      <trkpt lat="48.00906" lon="13.63914">
        <ele>432.778808</ele>
        <time>2022-09-12T14:14:51.359Z</time>
      </trkpt>
      <trkpt lat="48.0089" lon="13.63922">
        <ele>433.014897</ele>
        <time>2022-09-12T14:14:57.767Z</time>
      </trkpt>
      <trkpt lat="48.00881" lon="13.63927">
        <ele>433.136639</ele>
        <time>2022-09-12T14:15:00.760Z</time>
      </trkpt>
      <trkpt lat="48.0086" lon="13.6392">
        <ele>433.471626</ele>
        <time>2022-09-12T14:15:08.890Z</time>
      </trkpt>
      <trkpt lat="48.00827" lon="13.63894">
        <ele>434.106245</ele>
        <time>2022-09-12T14:15:22.073Z</time>
      </trkpt>
      <trkpt lat="48.00816" lon="13.63783">
        <ele>435.389727</ele>
        <time>2022-09-12T14:15:48.626Z</time>
      </trkpt>
      <trkpt lat="48.00815" lon="13.63655">
        <ele>436.721177</ele>
        <time>2022-09-12T14:16:18.172Z</time>
      </trkpt>
      <trkpt lat="48.0076" lon="13.63437">
        <ele>438.732354</ele>
        <time>2022-09-12T14:17:07.508Z</time>
      </trkpt>
      <trkpt lat="48.00748" lon="13.63429">
        <ele>439.090449</ele>
        <time>2022-09-12T14:17:12.301Z</time>
      </trkpt>
      <trkpt lat="48.00733" lon="13.63434">
        <ele>439.487358</ele>
        <time>2022-09-12T14:17:17.189Z</time>
      </trkpt>
      <trkpt lat="48.00719" lon="13.63424">
        <ele>439.889989</ele>
        <time>2022-09-12T14:17:22.641Z</time>
      </trkpt>
      <trkpt lat="48.00708" lon="13.63403">
        <ele>440.371331</ele>
        <time>2022-09-12T14:17:29.221Z</time>
      </trkpt>
      <trkpt lat="48.00699" lon="13.63365">
        <ele>441.095721</ele>
        <time>2022-09-12T14:17:39.969Z</time>
      </trkpt>
      <trkpt lat="48.00699" lon="13.63322">
        <ele>441.851616</ele>
        <time>2022-09-12T14:17:52.034Z</time>
      </trkpt>
      <trkpt lat="48.00695" lon="13.63304">
        <ele>442.186453</ele>
        <time>2022-09-12T14:17:57.551Z</time>
      </trkpt>
      <trkpt lat="48.00674" lon="13.63223">
        <ele>443.840678</ele>
        <time>2022-09-12T14:18:24.454Z</time>
      </trkpt>
      <trkpt lat="48.00635" lon="13.63147">
        <ele>446.070284</ele>
        <time>2022-09-12T14:18:54.860Z</time>
      </trkpt>
      <trkpt lat="48.00624" lon="13.63128">
        <ele>446.664143</ele>
        <time>2022-09-12T14:19:02.637Z</time>
      </trkpt>
      <trkpt lat="48.00572" lon="13.63097">
        <ele>448.60581</ele>
        <time>2022-09-12T14:19:27.581Z</time>
      </trkpt>
      <trkpt lat="48.0055" lon="13.6308">
        <ele>449.464103</ele>
        <time>2022-09-12T14:19:37.995Z</time>
      </trkpt>
      <trkpt lat="48.00559" lon="13.63053">
        <ele>449.76969</ele>
        <time>2022-09-12T14:19:46.036Z</time>
      </trkpt>
      <trkpt lat="48.0054" lon="13.6303">
        <ele>449.987166</ele>
        <time>2022-09-12T14:19:55.197Z</time>
      </trkpt>
      <trkpt lat="48.00546" lon="13.63009">
        <ele>450.121661</ele>
        <time>2022-09-12T14:20:00.416Z</time>
      </trkpt>
      <trkpt lat="48.00527" lon="13.62974">
        <ele>450.396156</ele>
        <time>2022-09-12T14:20:10.510Z</time>
      </trkpt>
      <trkpt lat="48.00505" lon="13.62937">
        <ele>450.693369</ele>
        <time>2022-09-12T14:20:20.453Z</time>
      </trkpt>
      <trkpt lat="48.0048" lon="13.62889">
        <ele>451.0629</ele>
        <time>2022-09-12T14:20:31.452Z</time>
      </trkpt>
      <trkpt lat="48.00386" lon="13.62717">
        <ele>450.206876</ele>
        <time>2022-09-12T14:21:08.576Z</time>
      </trkpt>
      <trkpt lat="48.00365" lon="13.62678">
        <ele>449.934912</ele>
        <time>2022-09-12T14:21:16.478Z</time>
      </trkpt>
      <trkpt lat="48.00356" lon="13.62659">
        <ele>449.801714</ele>
        <time>2022-09-12T14:21:20.111Z</time>
      </trkpt>
      <trkpt lat="48.00316" lon="13.62581">
        <ele>449.344376</ele>
        <time>2022-09-12T14:21:35.109Z</time>
      </trkpt>
      <trkpt lat="48.003" lon="13.62555">
        <ele>449.179908</ele>
        <time>2022-09-12T14:21:40.612Z</time>
      </trkpt>
      <trkpt lat="48.00275" lon="13.62537">
        <ele>448.986931</ele>
        <time>2022-09-12T14:21:47.153Z</time>
      </trkpt>
      <trkpt lat="48.00277" lon="13.62556">
        <ele>448.896362</ele>
        <time>2022-09-12T14:21:52.684Z</time>
      </trkpt>
      <trkpt lat="48.00273" lon="13.62558">
        <ele>448.866834</ele>
        <time>2022-09-12T14:21:54.444Z</time>
      </trkpt>
      <trkpt lat="48.00267" lon="13.6256">
        <ele>448.825704</ele>
        <time>2022-09-12T14:21:56.857Z</time>
      </trkpt>
      <trkpt lat="48.00254" lon="13.62516">
        <ele>448.601771</ele>
        <time>2022-09-12T14:22:05.065Z</time>
      </trkpt>
      <trkpt lat="48.00204" lon="13.62422">
        <ele>449.251028</ele>
        <time>2022-09-12T14:22:28.121Z</time>
      </trkpt>
      <trkpt lat="48.00199" lon="13.62413">
        <ele>449.330409</ele>
        <time>2022-09-12T14:22:30.681Z</time>
      </trkpt>
      <trkpt lat="48.00203" lon="13.62402">
        <ele>449.415547</ele>
        <time>2022-09-12T14:22:33.326Z</time>
      </trkpt>
      <trkpt lat="48.002" lon="13.62392">
        <ele>449.48872</ele>
        <time>2022-09-12T14:22:35.682Z</time>
      </trkpt>
      <trkpt lat="48.00191" lon="13.62363">
        <ele>449.711202</ele>
        <time>2022-09-12T14:22:42.834Z</time>
      </trkpt>
      <trkpt lat="48.00181" lon="13.62311">
        <ele>450.078645</ele>
        <time>2022-09-12T14:22:55.212Z</time>
      </trkpt>
      <trkpt lat="48.00146" lon="13.62254">
        <ele>450.755131</ele>
        <time>2022-09-12T14:23:14.364Z</time>
      </trkpt>
      <trkpt lat="48.00116" lon="13.62186">
        <ele>451.639103</ele>
        <time>2022-09-12T14:23:34.458Z</time>
      </trkpt>
      <trkpt lat="48.00108" lon="13.62157">
        <ele>451.974501</ele>
        <time>2022-09-12T14:23:42.062Z</time>
      </trkpt>
      <trkpt lat="48.0003" lon="13.61986">
        <ele>453.854332</ele>
        <time>2022-09-12T14:24:29.719Z</time>
      </trkpt>
      <trkpt lat="47.99955" lon="13.61816">
        <ele>455.115245</ele>
        <time>2022-09-12T14:25:13.055Z</time>
      </trkpt>
      <trkpt lat="47.99923" lon="13.61746">
        <ele>455.405185</ele>
        <time>2022-09-12T14:25:30.195Z</time>
      </trkpt>
      <trkpt lat="47.99899" lon="13.61697">
        <ele>455.613225</ele>
        <time>2022-09-12T14:25:42.358Z</time>
      </trkpt>
      <trkpt lat="47.99862" lon="13.61616">
        <ele>455.947871</ele>
        <time>2022-09-12T14:26:01.740Z</time>
      </trkpt>
      <trkpt lat="47.99798" lon="13.61471">
        <ele>456.292839</ele>
        <time>2022-09-12T14:26:35.736Z</time>
      </trkpt>
      <trkpt lat="47.99786" lon="13.61435">
        <ele>456.3711</ele>
        <time>2022-09-12T14:26:43.492Z</time>
      </trkpt>
      <trkpt lat="47.99779" lon="13.61398">
        <ele>456.444018</ele>
        <time>2022-09-12T14:26:50.814Z</time>
      </trkpt>
      <trkpt lat="47.9974" lon="13.61324">
        <ele>456.759418</ele>
        <time>2022-09-12T14:27:08.622Z</time>
      </trkpt>
      <trkpt lat="47.99712" lon="13.61263">
        <ele>457.039289</ele>
        <time>2022-09-12T14:27:23.118Z</time>
      </trkpt>
      <trkpt lat="47.99684" lon="13.61202">
        <ele>457.320987</ele>
        <time>2022-09-12T14:27:38.211Z</time>
      </trkpt>
      <trkpt lat="47.99673" lon="13.61178">
        <ele>457.432091</ele>
        <time>2022-09-12T14:27:44.054Z</time>
      </trkpt>
      <trkpt lat="47.99613" lon="13.61041">
        <ele>458.052237</ele>
        <time>2022-09-12T14:28:17.126Z</time>
      </trkpt>
      <trkpt lat="47.99551" lon="13.60905">
        <ele>458.571668</ele>
        <time>2022-09-12T14:28:48.827Z</time>
      </trkpt>
      <trkpt lat="47.99547" lon="13.60895">
        <ele>458.584059</ele>
        <time>2022-09-12T14:28:50.942Z</time>
      </trkpt>
      <trkpt lat="47.99496" lon="13.6079">
        <ele>458.72458</ele>
        <time>2022-09-12T14:29:14.362Z</time>
      </trkpt>
      <trkpt lat="47.99459" lon="13.60809">
        <ele>458.786405</ele>
        <time>2022-09-12T14:29:24.827Z</time>
      </trkpt>
      <trkpt lat="47.99423" lon="13.60818">
        <ele>458.897983</ele>
        <time>2022-09-12T14:29:34.899Z</time>
      </trkpt>
      <trkpt lat="47.9939" lon="13.6082">
        <ele>459.053864</ele>
        <time>2022-09-12T14:29:43.875Z</time>
      </trkpt>
      <trkpt lat="47.99384" lon="13.6082">
        <ele>459.080874</ele>
        <time>2022-09-12T14:29:45.459Z</time>
      </trkpt>
      <trkpt lat="47.99342" lon="13.60811">
        <ele>459.283436</ele>
        <time>2022-09-12T14:29:57.826Z</time>
      </trkpt>
      <trkpt lat="47.99294" lon="13.60777">
        <ele>459.534716</ele>
        <time>2022-09-12T14:30:13.785Z</time>
      </trkpt>
      <trkpt lat="47.99267" lon="13.60739">
        <ele>459.697684</ele>
        <time>2022-09-12T14:30:25.212Z</time>
      </trkpt>
      <trkpt lat="47.99253" lon="13.60691">
        <ele>459.806922</ele>
        <time>2022-09-12T14:30:35.802Z</time>
      </trkpt>
      <trkpt lat="47.99257" lon="13.60664">
        <ele>459.864597</ele>
        <time>2022-09-12T14:30:41.295Z</time>
      </trkpt>
      <trkpt lat="47.99253" lon="13.60641">
        <ele>459.912483</ele>
        <time>2022-09-12T14:30:45.789Z</time>
      </trkpt>
      <trkpt lat="47.99246" lon="13.60629">
        <ele>459.945319</ele>
        <time>2022-09-12T14:30:48.672Z</time>
      </trkpt>
      <trkpt lat="47.99195" lon="13.60571">
        <ele>460.14421</ele>
        <time>2022-09-12T14:31:06.402Z</time>
      </trkpt>
      <trkpt lat="47.99166" lon="13.60523">
        <ele>460.229108</ele>
        <time>2022-09-12T14:31:17.947Z</time>
      </trkpt>
      <trkpt lat="47.99142" lon="13.605">
        <ele>460.229883</ele>
        <time>2022-09-12T14:31:25.290Z</time>
      </trkpt>
      <trkpt lat="47.99126" lon="13.60493">
        <ele>460.230351</ele>
        <time>2022-09-12T14:31:29.301Z</time>
      </trkpt>
      <trkpt lat="47.9908" lon="13.60466">
        <ele>460.231689</ele>
        <time>2022-09-12T14:31:41.248Z</time>
      </trkpt>
      <trkpt lat="47.98991" lon="13.60375">
        <ele>461.148784</ele>
        <time>2022-09-12T14:32:12.054Z</time>
      </trkpt>
      <trkpt lat="47.98953" lon="13.60341">
        <ele>462.211656</ele>
        <time>2022-09-12T14:32:28.046Z</time>
      </trkpt>
      <trkpt lat="47.98916" lon="13.60316">
        <ele>463.19032</ele>
        <time>2022-09-12T14:32:44.247Z</time>
      </trkpt>
      <trkpt lat="47.98821" lon="13.6023">
        <ele>466.717091</ele>
        <time>2022-09-12T14:33:35.479Z</time>
      </trkpt>
      <trkpt lat="47.98783" lon="13.60142">
        <ele>469.507006</ele>
        <time>2022-09-12T14:34:08.862Z</time>
      </trkpt>
      <trkpt lat="47.9877" lon="13.60084">
        <ele>471.122721</ele>
        <time>2022-09-12T14:34:27.296Z</time>
      </trkpt>
      <trkpt lat="47.98749" lon="13.5997">
        <ele>473.324129</ele>
        <time>2022-09-12T14:35:00.616Z</time>
      </trkpt>
      <trkpt lat="47.98731" lon="13.59684">
        <ele>477.493999</ele>
        <time>2022-09-12T14:36:10.993Z</time>
      </trkpt>
      <trkpt lat="47.9868" lon="13.59545">
        <ele>479.199681</ele>
        <time>2022-09-12T14:36:46.420Z</time>
      </trkpt>
      <trkpt lat="47.9863" lon="13.59437">
        <ele>479.989187</ele>
        <time>2022-09-12T14:37:13.817Z</time>
      </trkpt>
      <trkpt lat="47.9861" lon="13.59382">
        <ele>480.367316</ele>
        <time>2022-09-12T14:37:26.592Z</time>
      </trkpt>
      <trkpt lat="47.98593" lon="13.59271">
        <ele>480.94838</ele>
        <time>2022-09-12T14:37:49.375Z</time>
      </trkpt>
      <trkpt lat="47.98569" lon="13.59088">
        <ele>481.633056</ele>
        <time>2022-09-12T14:38:25.743Z</time>
      </trkpt>
      <trkpt lat="47.98564" lon="13.58945">
        <ele>482.049144</ele>
        <time>2022-09-12T14:38:53.828Z</time>
      </trkpt>
      <trkpt lat="47.98565" lon="13.58906">
        <ele>482.151189</ele>
        <time>2022-09-12T14:39:01.240Z</time>
      </trkpt>
      <trkpt lat="47.98585" lon="13.58768">
        <ele>482.498091</ele>
        <time>2022-09-12T14:39:27.745Z</time>
      </trkpt>
      <trkpt lat="47.98587" lon="13.5871">
        <ele>482.569151</ele>
        <time>2022-09-12T14:39:38.460Z</time>
      </trkpt>
      <trkpt lat="47.98553" lon="13.58602">
        <ele>482.71252</ele>
        <time>2022-09-12T14:40:00.231Z</time>
      </trkpt>
      <trkpt lat="47.98546" lon="13.58566">
        <ele>482.758353</ele>
        <time>2022-09-12T14:40:07.229Z</time>
      </trkpt>
      <trkpt lat="47.98554" lon="13.58533">
        <ele>482.800742</ele>
        <time>2022-09-12T14:40:13.623Z</time>
      </trkpt>
      <trkpt lat="47.98583" lon="13.58483">
        <ele>483.016965</ele>
        <time>2022-09-12T14:40:25.869Z</time>
      </trkpt>
      <trkpt lat="47.98597" lon="13.5846">
        <ele>483.120181</ele>
        <time>2022-09-12T14:40:31.808Z</time>
      </trkpt>
      <trkpt lat="47.98731" lon="13.58231">
        <ele>484.099055</ele>
        <time>2022-09-12T14:41:32.753Z</time>
      </trkpt>
      <trkpt lat="47.98738" lon="13.58219">
        <ele>484.146484</ele>
        <time>2022-09-12T14:41:35.982Z</time>
      </trkpt>
      <trkpt lat="47.98752" lon="13.58187">
        <ele>484.262556</ele>
        <time>2022-09-12T14:41:44.035Z</time>
      </trkpt>
      <trkpt lat="47.98754" lon="13.58153">
        <ele>484.369003</ele>
        <time>2022-09-12T14:41:51.012Z</time>
      </trkpt>
      <trkpt lat="47.9875" lon="13.58082">
        <ele>484.137579</ele>
        <time>2022-09-12T14:42:03.061Z</time>
      </trkpt>
      <trkpt lat="47.98747" lon="13.58052">
        <ele>483.629633</ele>
        <time>2022-09-12T14:42:07.857Z</time>
      </trkpt>
      <trkpt lat="47.98746" lon="13.58032">
        <ele>483.290062</ele>
        <time>2022-09-12T14:42:11.061Z</time>
      </trkpt>
      <trkpt lat="47.98747" lon="13.57977">
        <ele>482.35744</ele>
        <time>2022-09-12T14:42:19.280Z</time>
      </trkpt>
      <trkpt lat="47.98749" lon="13.57952">
        <ele>481.936201</ele>
        <time>2022-09-12T14:42:22.755Z</time>
      </trkpt>
      <trkpt lat="47.9876" lon="13.5795">
        <ele>481.65515</ele>
        <time>2022-09-12T14:42:24.937Z</time>
      </trkpt>
      <trkpt lat="47.9879" lon="13.57928">
        <ele>480.808198</ele>
        <time>2022-09-12T14:42:31.233Z</time>
      </trkpt>
      <trkpt lat="47.98826" lon="13.57917">
        <ele>479.778915</ele>
        <time>2022-09-12T14:42:37.990Z</time>
      </trkpt>
      <trkpt lat="47.9886" lon="13.57912">
        <ele>478.144094</ele>
        <time>2022-09-12T14:42:43.993Z</time>
      </trkpt>
      <trkpt lat="47.98932" lon="13.57914">
        <ele>474.624696</ele>
        <time>2022-09-12T14:42:56.779Z</time>
      </trkpt>
      <trkpt lat="47.98994" lon="13.57916">
        <ele>471.605957</ele>
        <time>2022-09-12T14:43:08.028Z</time>
      </trkpt>
      <trkpt lat="47.99204" lon="13.57922">
        <ele>466.939041</ele>
        <time>2022-09-12T14:43:51.223Z</time>
      </trkpt>
      <trkpt lat="47.99318" lon="13.57784">
        <ele>467.179721</ele>
        <time>2022-09-12T14:44:35.409Z</time>
      </trkpt>
      <trkpt lat="47.99365" lon="13.57689">
        <ele>467.613331</ele>
        <time>2022-09-12T14:45:00.694Z</time>
      </trkpt>
      <trkpt lat="47.99375" lon="13.57697">
        <ele>467.680103</ele>
        <time>2022-09-12T14:45:03.968Z</time>
      </trkpt>
      <trkpt lat="47.99391" lon="13.57713">
        <ele>467.798239</ele>
        <time>2022-09-12T14:45:13.340Z</time>
      </trkpt>
      <trkpt lat="47.99395" lon="13.57718">
        <ele>467.830607</ele>
        <time>2022-09-12T14:45:14.929Z</time>
      </trkpt>
      <trkpt lat="47.9943" lon="13.57638">
        <ele>468.21747</ele>
        <time>2022-09-12T14:45:32.815Z</time>
      </trkpt>
      <trkpt lat="47.99442" lon="13.57564">
        <ele>468.392001</ele>
        <time>2022-09-12T14:45:46.933Z</time>
      </trkpt>
      <trkpt lat="47.9943" lon="13.5748">
        <ele>468.541293</ele>
        <time>2022-09-12T14:46:02.253Z</time>
      </trkpt>
      <trkpt lat="47.99412" lon="13.57439">
        <ele>468.627294</ele>
        <time>2022-09-12T14:46:11.251Z</time>
      </trkpt>
      <trkpt lat="47.99411" lon="13.57324">
        <ele>468.967122</ele>
        <time>2022-09-12T14:46:33.574Z</time>
      </trkpt>
      <trkpt lat="47.99415" lon="13.57275">
        <ele>469.229497</ele>
        <time>2022-09-12T14:46:43.518Z</time>
      </trkpt>
      <trkpt lat="47.99494" lon="13.56842">
        <ele>471.616426</ele>
        <time>2022-09-12T14:48:16.688Z</time>
      </trkpt>
      <trkpt lat="47.99518" lon="13.5668">
        <ele>471.757702</ele>
        <time>2022-09-12T14:48:46.909Z</time>
      </trkpt>
      <trkpt lat="47.99526" lon="13.56643">
        <ele>471.791052</ele>
        <time>2022-09-12T14:48:53.815Z</time>
      </trkpt>
      <trkpt lat="47.99559" lon="13.56552">
        <ele>471.902001</ele>
        <time>2022-09-12T14:49:11.890Z</time>
      </trkpt>
      <trkpt lat="47.99564" lon="13.56526">
        <ele>471.939827</ele>
        <time>2022-09-12T14:49:16.472Z</time>
      </trkpt>
      <trkpt lat="47.99558" lon="13.56451">
        <ele>472.0474</ele>
        <time>2022-09-12T14:49:30.294Z</time>
      </trkpt>
      <trkpt lat="47.99591" lon="13.56244">
        <ele>472.617342</ele>
        <time>2022-09-12T14:50:11.642Z</time>
      </trkpt>
      <trkpt lat="47.99599" lon="13.56196">
        <ele>472.838731</ele>
        <time>2022-09-12T14:50:21.606Z</time>
      </trkpt>
      <trkpt lat="47.99609" lon="13.56139">
        <ele>473.103255</ele>
        <time>2022-09-12T14:50:33.532Z</time>
      </trkpt>
      <trkpt lat="47.99624" lon="13.56053">
        <ele>473.509504</ele>
        <time>2022-09-12T14:50:51.439Z</time>
      </trkpt>
      <trkpt lat="47.99637" lon="13.55974">
        <ele>473.910018</ele>
        <time>2022-09-12T14:51:07.828Z</time>
      </trkpt>
      <trkpt lat="47.99638" lon="13.55915">
        <ele>474.201555</ele>
        <time>2022-09-12T14:51:19.702Z</time>
      </trkpt>
      <trkpt lat="47.9964" lon="13.55878">
        <ele>474.385983</ele>
        <time>2022-09-12T14:51:27.181Z</time>
      </trkpt>
      <trkpt lat="47.99639" lon="13.55838">
        <ele>474.582868</ele>
        <time>2022-09-12T14:51:35.300Z</time>
      </trkpt>
      <trkpt lat="47.99639" lon="13.55832">
        <ele>474.610486</ele>
        <time>2022-09-12T14:51:36.464Z</time>
      </trkpt>
      <trkpt lat="47.99638" lon="13.5578">
        <ele>474.887182</ele>
        <time>2022-09-12T14:51:47.364Z</time>
      </trkpt>
      <trkpt lat="47.99638" lon="13.55758">
        <ele>475.016892</ele>
        <time>2022-09-12T14:51:52.065Z</time>
      </trkpt>
      <trkpt lat="47.99638" lon="13.55736">
        <ele>475.144285</ele>
        <time>2022-09-12T14:51:56.653Z</time>
      </trkpt>
      <trkpt lat="47.99638" lon="13.55593">
        <ele>475.972345</ele>
        <time>2022-09-12T14:52:26.442Z</time>
      </trkpt>
      <trkpt lat="47.99638" lon="13.55588">
        <ele>476.001889</ele>
        <time>2022-09-12T14:52:27.488Z</time>
      </trkpt>
      <trkpt lat="47.99638" lon="13.55502">
        <ele>476.459622</ele>
        <time>2022-09-12T14:52:44.982Z</time>
      </trkpt>
      <trkpt lat="47.99639" lon="13.55432">
        <ele>476.77773</ele>
        <time>2022-09-12T14:52:58.817Z</time>
      </trkpt>
      <trkpt lat="47.99639" lon="13.55415">
        <ele>476.854971</ele>
        <time>2022-09-12T14:53:02.113Z</time>
      </trkpt>
      <trkpt lat="47.99636" lon="13.55061">
        <ele>478.684842</ele>
        <time>2022-09-12T14:54:12.881Z</time>
      </trkpt>
      <trkpt lat="47.99635" lon="13.55051">
        <ele>478.744755</ele>
        <time>2022-09-12T14:54:15.170Z</time>
      </trkpt>
      <trkpt lat="47.99638" lon="13.54988">
        <ele>479.126161</ele>
        <time>2022-09-12T14:54:29.183Z</time>
      </trkpt>
      <trkpt lat="47.99683" lon="13.54837">
        <ele>480.54836</ele>
        <time>2022-09-12T14:55:05.793Z</time>
      </trkpt>
      <trkpt lat="47.99691" lon="13.54806">
        <ele>480.827249</ele>
        <time>2022-09-12T14:55:13.012Z</time>
      </trkpt>
      <trkpt lat="47.99724" lon="13.54675">
        <ele>481.85633</ele>
        <time>2022-09-12T14:55:43.726Z</time>
      </trkpt>
      <trkpt lat="47.99752" lon="13.54577">
        <ele>482.524266</ele>
        <time>2022-09-12T14:56:05.223Z</time>
      </trkpt>
      <trkpt lat="47.99751" lon="13.54563">
        <ele>482.613244</ele>
        <time>2022-09-12T14:56:08.008Z</time>
      </trkpt>
      <trkpt lat="47.99768" lon="13.5454">
        <ele>482.834315</ele>
        <time>2022-09-12T14:56:15.292Z</time>
      </trkpt>
      <trkpt lat="47.99765" lon="13.54536">
        <ele>482.874013</ele>
        <time>2022-09-12T14:56:16.501Z</time>
      </trkpt>
      <trkpt lat="47.99763" lon="13.54533">
        <ele>482.90145</ele>
        <time>2022-09-12T14:56:17.404Z</time>
      </trkpt>
      <trkpt lat="47.99755" lon="13.54528">
        <ele>482.977315</ele>
        <time>2022-09-12T14:56:19.730Z</time>
      </trkpt>
      <trkpt lat="47.9972" lon="13.54518">
        <ele>483.19852</ele>
        <time>2022-09-12T14:56:30.859Z</time>
      </trkpt>
      <trkpt lat="47.99708" lon="13.54495">
        <ele>483.29824</ele>
        <time>2022-09-12T14:56:37.231Z</time>
      </trkpt>
      <trkpt lat="47.99705" lon="13.54375">
        <ele>483.707533</ele>
        <time>2022-09-12T14:57:01.827Z</time>
      </trkpt>
      <trkpt lat="47.99669" lon="13.5425">
        <ele>483.874226</ele>
        <time>2022-09-12T14:57:25.056Z</time>
      </trkpt>
      <trkpt lat="47.99661" lon="13.5416">
        <ele>483.704475</ele>
        <time>2022-09-12T14:57:40.405Z</time>
      </trkpt>
      <trkpt lat="47.99626" lon="13.54104">
        <ele>483.560997</ele>
        <time>2022-09-12T14:57:52.990Z</time>
      </trkpt>
      <trkpt lat="47.99553" lon="13.53837">
        <ele>483.422565</ele>
        <time>2022-09-12T14:58:43.524Z</time>
      </trkpt>
      <trkpt lat="47.99538" lon="13.53742">
        <ele>483.672432</ele>
        <time>2022-09-12T14:59:02.685Z</time>
      </trkpt>
      <trkpt lat="47.99511" lon="13.5365">
        <ele>484.026139</ele>
        <time>2022-09-12T14:59:22.326Z</time>
      </trkpt>
      <trkpt lat="47.99487" lon="13.53614">
        <ele>484.207883</ele>
        <time>2022-09-12T14:59:32.529Z</time>
      </trkpt>
      <trkpt lat="47.9944" lon="13.53589">
        <ele>484.485656</ele>
        <time>2022-09-12T14:59:47.258Z</time>
      </trkpt>
      <trkpt lat="47.99412" lon="13.5354">
        <ele>484.749497</ele>
        <time>2022-09-12T15:00:00.034Z</time>
      </trkpt>
      <trkpt lat="47.99377" lon="13.53493">
        <ele>485.029656</ele>
        <time>2022-09-12T15:00:13.637Z</time>
      </trkpt>
      <trkpt lat="47.99363" lon="13.53454">
        <ele>485.209982</ele>
        <time>2022-09-12T15:00:22.398Z</time>
      </trkpt>
      <trkpt lat="47.99332" lon="13.53316">
        <ele>485.808432</ele>
        <time>2022-09-12T15:00:51.988Z</time>
      </trkpt>
      <trkpt lat="47.99299" lon="13.53228">
        <ele>486.228289</ele>
        <time>2022-09-12T15:01:12.046Z</time>
      </trkpt>
      <trkpt lat="47.99257" lon="13.53168">
        <ele>486.611753</ele>
        <time>2022-09-12T15:01:29.229Z</time>
      </trkpt>
      <trkpt lat="47.99222" lon="13.53079">
        <ele>487.497763</ele>
        <time>2022-09-12T15:01:48.847Z</time>
      </trkpt>
      <trkpt lat="47.99181" lon="13.53021">
        <ele>488.210287</ele>
        <time>2022-09-12T15:02:06.917Z</time>
      </trkpt>
      <trkpt lat="47.99154" lon="13.52974">
        <ele>488.740445</ele>
        <time>2022-09-12T15:02:21.898Z</time>
      </trkpt>
      <trkpt lat="47.99145" lon="13.52946">
        <ele>489.274946</ele>
        <time>2022-09-12T15:02:30.018Z</time>
      </trkpt>
      <trkpt lat="47.99146" lon="13.52922">
        <ele>489.90576</ele>
        <time>2022-09-12T15:02:36.899Z</time>
      </trkpt>
      <trkpt lat="47.99153" lon="13.52902">
        <ele>490.463829</ele>
        <time>2022-09-12T15:02:42.793Z</time>
      </trkpt>
      <trkpt lat="47.99221" lon="13.52829">
        <ele>493.657209</ele>
        <time>2022-09-12T15:03:20.063Z</time>
      </trkpt>
      <trkpt lat="47.99236" lon="13.52805">
        <ele>494.49293</ele>
        <time>2022-09-12T15:03:30.266Z</time>
      </trkpt>
      <trkpt lat="47.99246" lon="13.52776">
        <ele>495.33544</ele>
        <time>2022-09-12T15:03:41.510Z</time>
      </trkpt>
      <trkpt lat="47.9927" lon="13.52657">
        <ele>499.437079</ele>
        <time>2022-09-12T15:04:26.183Z</time>
      </trkpt>
      <trkpt lat="47.99269" lon="13.52623">
        <ele>500.586108</ele>
        <time>2022-09-12T15:04:38.150Z</time>
      </trkpt>
      <trkpt lat="47.99263" lon="13.526">
        <ele>501.422691</ele>
        <time>2022-09-12T15:04:46.570Z</time>
      </trkpt>
      <trkpt lat="47.99211" lon="13.5251">
        <ele>505.308438</ele>
        <time>2022-09-12T15:05:26.529Z</time>
      </trkpt>
      <trkpt lat="47.99196" lon="13.5248">
        <ele>506.21745</ele>
        <time>2022-09-12T15:05:38.255Z</time>
      </trkpt>
      <trkpt lat="47.99182" lon="13.5245">
        <ele>507.06624</ele>
        <time>2022-09-12T15:05:49.544Z</time>
      </trkpt>
      <trkpt lat="47.99183" lon="13.52426">
        <ele>507.652285</ele>
        <time>2022-09-12T15:05:56.379Z</time>
      </trkpt>
      <trkpt lat="47.99193" lon="13.52404">
        <ele>508.298738</ele>
        <time>2022-09-12T15:06:05.047Z</time>
      </trkpt>
      <trkpt lat="47.99249" lon="13.52334">
        <ele>510.909029</ele>
        <time>2022-09-12T15:06:35.662Z</time>
      </trkpt>
      <trkpt lat="47.99266" lon="13.52302">
        <ele>511.547106</ele>
        <time>2022-09-12T15:06:45.550Z</time>
      </trkpt>
      <trkpt lat="47.99276" lon="13.52248">
        <ele>512.065881</ele>
        <time>2022-09-12T15:06:58.974Z</time>
      </trkpt>
      <trkpt lat="47.99278" lon="13.52175">
        <ele>512.744369</ele>
        <time>2022-09-12T15:07:15.230Z</time>
      </trkpt>
      <trkpt lat="47.99279" lon="13.52027">
        <ele>513.800541</ele>
        <time>2022-09-12T15:07:45.562Z</time>
      </trkpt>
      <trkpt lat="47.99295" lon="13.51975">
        <ele>513.725706</ele>
        <time>2022-09-12T15:07:56.383Z</time>
      </trkpt>
      <trkpt lat="47.99353" lon="13.51865">
        <ele>513.542315</ele>
        <time>2022-09-12T15:08:19.562Z</time>
      </trkpt>
      <trkpt lat="47.99463" lon="13.5169">
        <ele>512.604744</ele>
        <time>2022-09-12T15:08:57.264Z</time>
      </trkpt>
      <trkpt lat="47.99482" lon="13.51641">
        <ele>512.353727</ele>
        <time>2022-09-12T15:09:06.806Z</time>
      </trkpt>
      <trkpt lat="47.995" lon="13.51567">
        <ele>512.518544</ele>
        <time>2022-09-12T15:09:20.859Z</time>
      </trkpt>
      <trkpt lat="47.9951" lon="13.51505">
        <ele>512.73395</ele>
        <time>2022-09-12T15:09:32.904Z</time>
      </trkpt>
      <trkpt lat="47.99511" lon="13.51446">
        <ele>512.933617</ele>
        <time>2022-09-12T15:09:44.784Z</time>
      </trkpt>
      <trkpt lat="47.99503" lon="13.51411">
        <ele>513.054433</ele>
        <time>2022-09-12T15:09:52.269Z</time>
      </trkpt>
      <trkpt lat="47.99473" lon="13.51333">
        <ele>513.695032</ele>
        <time>2022-09-12T15:10:11.895Z</time>
      </trkpt>
      <trkpt lat="47.99463" lon="13.51293">
        <ele>514.154447</ele>
        <time>2022-09-12T15:10:21.522Z</time>
      </trkpt>
      <trkpt lat="47.99454" lon="13.51189">
        <ele>515.265983</ele>
        <time>2022-09-12T15:10:45.340Z</time>
      </trkpt>
      <trkpt lat="47.99458" lon="13.51145">
        <ele>515.735797</ele>
        <time>2022-09-12T15:10:55.876Z</time>
      </trkpt>
      <trkpt lat="47.99464" lon="13.511">
        <ele>516.369977</ele>
        <time>2022-09-12T15:11:07.123Z</time>
      </trkpt>
      <trkpt lat="47.9948" lon="13.51012">
        <ele>518.17247</ele>
        <time>2022-09-12T15:11:31.083Z</time>
      </trkpt>
      <trkpt lat="47.99521" lon="13.50874">
        <ele>521.140838</ele>
        <time>2022-09-12T15:12:13.977Z</time>
      </trkpt>
      <trkpt lat="47.99566" lon="13.50782">
        <ele>523.462202</ele>
        <time>2022-09-12T15:12:47.159Z</time>
      </trkpt>
      <trkpt lat="47.99605" lon="13.50725">
        <ele>525.14515</ele>
        <time>2022-09-12T15:13:10.397Z</time>
      </trkpt>
      <trkpt lat="47.99643" lon="13.50678">
        <ele>526.64522</ele>
        <time>2022-09-12T15:13:30.196Z</time>
      </trkpt>
      <trkpt lat="47.99685" lon="13.50641">
        <ele>527.290718</ele>
        <time>2022-09-12T15:13:48.056Z</time>
      </trkpt>
      <trkpt lat="47.99646" lon="13.50522">
        <ele>528.214684</ele>
        <time>2022-09-12T15:14:16.474Z</time>
      </trkpt>
      <trkpt lat="47.99587" lon="13.5035">
        <ele>528.048552</ele>
        <time>2022-09-12T15:14:49.110Z</time>
      </trkpt>
      <trkpt lat="47.99585" lon="13.50344">
        <ele>528.004162</ele>
        <time>2022-09-12T15:14:50.289Z</time>
      </trkpt>
      <trkpt lat="47.99509" lon="13.50171">
        <ele>526.640057</ele>
        <time>2022-09-12T15:15:21.103Z</time>
      </trkpt>
      <trkpt lat="47.99488" lon="13.50126">
        <ele>526.183744</ele>
        <time>2022-09-12T15:15:29.007Z</time>
      </trkpt>
      <trkpt lat="47.99458" lon="13.50046">
        <ele>525.418092</ele>
        <time>2022-09-12T15:15:42.752Z</time>
      </trkpt>
      <trkpt lat="47.99433" lon="13.49949">
        <ele>524.687353</ele>
        <time>2022-09-12T15:15:59.438Z</time>
      </trkpt>
      <trkpt lat="47.99431" lon="13.49938">
        <ele>524.631096</ele>
        <time>2022-09-12T15:16:01.235Z</time>
      </trkpt>
      <trkpt lat="47.99438" lon="13.49933">
        <ele>524.568054</ele>
        <time>2022-09-12T15:16:03.365Z</time>
      </trkpt>
      <trkpt lat="47.99438" lon="13.49867">
        <ele>524.216307</ele>
        <time>2022-09-12T15:16:15.085Z</time>
      </trkpt>
      <trkpt lat="47.99442" lon="13.49854">
        <ele>524.141246</ele>
        <time>2022-09-12T15:16:17.462Z</time>
      </trkpt>
      <trkpt lat="47.99551" lon="13.4976">
        <ele>522.520871</ele>
        <time>2022-09-12T15:16:47.807Z</time>
      </trkpt>
      <trkpt lat="47.99548" lon="13.49694">
        <ele>521.556828</ele>
        <time>2022-09-12T15:16:57.607Z</time>
      </trkpt>
      <trkpt lat="47.99553" lon="13.49659">
        <ele>521.050342</ele>
        <time>2022-09-12T15:17:02.994Z</time>
      </trkpt>
      <trkpt lat="47.99561" lon="13.4964">
        <ele>520.715863</ele>
        <time>2022-09-12T15:17:06.128Z</time>
      </trkpt>
      <trkpt lat="47.99617" lon="13.49502">
        <ele>517.32207</ele>
        <time>2022-09-12T15:17:28.364Z</time>
      </trkpt>
      <trkpt lat="47.99635" lon="13.49474">
        <ele>516.290641</ele>
        <time>2022-09-12T15:17:33.563Z</time>
      </trkpt>
      <trkpt lat="47.99663" lon="13.49467">
        <ele>515.166434</ele>
        <time>2022-09-12T15:17:39.046Z</time>
      </trkpt>
      <trkpt lat="47.9973" lon="13.49481">
        <ele>512.463468</ele>
        <time>2022-09-12T15:17:51.957Z</time>
      </trkpt>
      <trkpt lat="47.99804" lon="13.49458">
        <ele>509.493599</ele>
        <time>2022-09-12T15:18:06.545Z</time>
      </trkpt>
      <trkpt lat="47.99831" lon="13.49463">
        <ele>508.388582</ele>
        <time>2022-09-12T15:18:11.885Z</time>
      </trkpt>
      <trkpt lat="47.99859" lon="13.49463">
        <ele>507.299676</ele>
        <time>2022-09-12T15:18:17.287Z</time>
      </trkpt>
      <trkpt lat="47.9989" lon="13.49433">
        <ele>505.843573</ele>
        <time>2022-09-12T15:18:24.733Z</time>
      </trkpt>
      <trkpt lat="47.99947" lon="13.49336">
        <ele>503.638436</ele>
        <time>2022-09-12T15:18:44.472Z</time>
      </trkpt>
      <trkpt lat="47.99952" lon="13.49326">
        <ele>503.4379</ele>
        <time>2022-09-12T15:18:46.703Z</time>
      </trkpt>
      <trkpt lat="47.99897" lon="13.49243">
        <ele>501.632768</ele>
        <time>2022-09-12T15:19:02.978Z</time>
      </trkpt>
      <trkpt lat="47.99861" lon="13.49168">
        <ele>499.347898</ele>
        <time>2022-09-12T15:19:15.025Z</time>
      </trkpt>
      <trkpt lat="47.99875" lon="13.49152">
        <ele>498.576118</ele>
        <time>2022-09-12T15:19:18.442Z</time>
      </trkpt>
      <trkpt lat="47.99899" lon="13.49127">
        <ele>497.316923</ele>
        <time>2022-09-12T15:19:23.962Z</time>
      </trkpt>
      <trkpt lat="47.9991" lon="13.49106">
        <ele>496.561845</ele>
        <time>2022-09-12T15:19:27.156Z</time>
      </trkpt>
      <trkpt lat="47.99912" lon="13.49065">
        <ele>495.35426</ele>
        <time>2022-09-12T15:19:32.179Z</time>
      </trkpt>
      <trkpt lat="47.99902" lon="13.49042">
        <ele>494.573051</ele>
        <time>2022-09-12T15:19:35.458Z</time>
      </trkpt>
      <trkpt lat="47.99876" lon="13.49">
        <ele>493.016685</ele>
        <time>2022-09-12T15:19:42.260Z</time>
      </trkpt>
      <trkpt lat="47.9987" lon="13.48964">
        <ele>492.182405</ele>
        <time>2022-09-12T15:19:46.583Z</time>
      </trkpt>
      <trkpt lat="47.99879" lon="13.48933">
        <ele>491.418875</ele>
        <time>2022-09-12T15:19:50.682Z</time>
      </trkpt>
      <trkpt lat="47.99906" lon="13.48912">
        <ele>490.401514</ele>
        <time>2022-09-12T15:19:56.479Z</time>
      </trkpt>
      <trkpt lat="47.99904" lon="13.48888">
        <ele>489.845591</ele>
        <time>2022-09-12T15:19:59.820Z</time>
      </trkpt>
      <trkpt lat="47.99911" lon="13.48886">
        <ele>489.599377</ele>
        <time>2022-09-12T15:20:01.882Z</time>
      </trkpt>
      <trkpt lat="47.99891" lon="13.48586">
        <ele>486.179767</ele>
        <time>2022-09-12T15:20:47.125Z</time>
      </trkpt>
      <trkpt lat="47.99903" lon="13.48523">
        <ele>485.794852</ele>
        <time>2022-09-12T15:20:59.067Z</time>
      </trkpt>
      <trkpt lat="47.99926" lon="13.48466">
        <ele>485.884959</ele>
        <time>2022-09-12T15:21:11.975Z</time>
      </trkpt>
      <trkpt lat="47.99954" lon="13.48411">
        <ele>485.98885</ele>
        <time>2022-09-12T15:21:25.486Z</time>
      </trkpt>
      <trkpt lat="47.99969" lon="13.4838">
        <ele>486.045061</ele>
        <time>2022-09-12T15:21:32.643Z</time>
      </trkpt>
      <trkpt lat="47.99965" lon="13.48378">
        <ele>486.054639</ele>
        <time>2022-09-12T15:21:33.760Z</time>
      </trkpt>
      <trkpt lat="47.99967" lon="13.48375">
        <ele>486.058976</ele>
        <time>2022-09-12T15:21:34.324Z</time>
      </trkpt>
      <trkpt lat="47.99994" lon="13.48325">
        <ele>486.156135</ele>
        <time>2022-09-12T15:21:46.341Z</time>
      </trkpt>
      <trkpt lat="48.00013" lon="13.483">
        <ele>486.199892</ele>
        <time>2022-09-12T15:21:53.038Z</time>
      </trkpt>
      <trkpt lat="48.0003" lon="13.48286">
        <ele>486.220688</ele>
        <time>2022-09-12T15:21:58.329Z</time>
      </trkpt>
      <trkpt lat="48.00071" lon="13.48255">
        <ele>486.270162</ele>
        <time>2022-09-12T15:22:10.461Z</time>
      </trkpt>
      <trkpt lat="48.00106" lon="13.48245">
        <ele>486.30812</ele>
        <time>2022-09-12T15:22:19.991Z</time>
      </trkpt>
      <trkpt lat="48.00138" lon="13.4824">
        <ele>486.342985</ele>
        <time>2022-09-12T15:22:28.929Z</time>
      </trkpt>
      <trkpt lat="48.00148" lon="13.48231">
        <ele>486.35572</ele>
        <time>2022-09-12T15:22:32.125Z</time>
      </trkpt>
      <trkpt lat="48.00144" lon="13.48179">
        <ele>486.417191</ele>
        <time>2022-09-12T15:22:41.645Z</time>
      </trkpt>
      <trkpt lat="48.00141" lon="13.48073">
        <ele>486.660471</ele>
        <time>2022-09-12T15:23:01.553Z</time>
      </trkpt>
      <trkpt lat="48.00141" lon="13.48055">
        <ele>486.700108</ele>
        <time>2022-09-12T15:23:04.922Z</time>
      </trkpt>
      <trkpt lat="48.00145" lon="13.48031">
        <ele>486.757739</ele>
        <time>2022-09-12T15:23:09.785Z</time>
      </trkpt>
      <trkpt lat="48.00146" lon="13.48028">
        <ele>486.764677</ele>
        <time>2022-09-12T15:23:10.362Z</time>
      </trkpt>
      <trkpt lat="48.00155" lon="13.47996">
        <ele>486.843176</ele>
        <time>2022-09-12T15:23:16.947Z</time>
      </trkpt>
      <trkpt lat="48.00166" lon="13.47964">
        <ele>486.926016</ele>
        <time>2022-09-12T15:23:24.055Z</time>
      </trkpt>
      <trkpt lat="48.00169" lon="13.47966">
        <ele>486.938454</ele>
        <time>2022-09-12T15:23:25.107Z</time>
      </trkpt>
      <trkpt lat="48.00225" lon="13.47799">
        <ele>487.389089</ele>
        <time>2022-09-12T15:24:01.118Z</time>
      </trkpt>
      <trkpt lat="48.00235" lon="13.47714">
        <ele>487.60277</ele>
        <time>2022-09-12T15:24:16.975Z</time>
      </trkpt>
      <trkpt lat="48.00229" lon="13.47649">
        <ele>487.752196</ele>
        <time>2022-09-12T15:24:29.075Z</time>
      </trkpt>
      <trkpt lat="48.0022" lon="13.47603">
        <ele>487.861945</ele>
        <time>2022-09-12T15:24:38.419Z</time>
      </trkpt>
      <trkpt lat="48.00205" lon="13.47562">
        <ele>487.96577</ele>
        <time>2022-09-12T15:24:47.423Z</time>
      </trkpt>
      <trkpt lat="48.00138" lon="13.47433">
        <ele>488.361862</ele>
        <time>2022-09-12T15:25:18.066Z</time>
      </trkpt>
      <trkpt lat="48.00124" lon="13.47395">
        <ele>488.500255</ele>
        <time>2022-09-12T15:25:26.322Z</time>
      </trkpt>
      <trkpt lat="48.00105" lon="13.47319">
        <ele>488.761477</ele>
        <time>2022-09-12T15:25:42.419Z</time>
      </trkpt>
      <trkpt lat="48.00095" lon="13.47242">
        <ele>489.01255</ele>
        <time>2022-09-12T15:25:58.186Z</time>
      </trkpt>
      <trkpt lat="48.00094" lon="13.47141">
        <ele>489.34637</ele>
        <time>2022-09-12T15:26:17.259Z</time>
      </trkpt>
      <trkpt lat="48.00096" lon="13.47016">
        <ele>489.772711</ele>
        <time>2022-09-12T15:26:41.650Z</time>
      </trkpt>
      <trkpt lat="48.00097" lon="13.46991">
        <ele>489.858302</ele>
        <time>2022-09-12T15:26:46.556Z</time>
      </trkpt>
      <trkpt lat="48.00097" lon="13.46948">
        <ele>490.002654</ele>
        <time>2022-09-12T15:26:54.893Z</time>
      </trkpt>
      <trkpt lat="48.00098" lon="13.46927">
        <ele>490.094721</ele>
        <time>2022-09-12T15:26:59.078Z</time>
      </trkpt>
      <trkpt lat="48.00102" lon="13.46851">
        <ele>490.478149</ele>
        <time>2022-09-12T15:27:14.118Z</time>
      </trkpt>
      <trkpt lat="48.00112" lon="13.46797">
        <ele>490.75702</ele>
        <time>2022-09-12T15:27:25.192Z</time>
      </trkpt>
      <trkpt lat="48.00116" lon="13.4678">
        <ele>490.846021</ele>
        <time>2022-09-12T15:27:28.715Z</time>
      </trkpt>
      <trkpt lat="48.00174" lon="13.46591">
        <ele>492.194309</ele>
        <time>2022-09-12T15:28:24.826Z</time>
      </trkpt>
      <trkpt lat="48.00185" lon="13.46468">
        <ele>493.181975</ele>
        <time>2022-09-12T15:28:58.929Z</time>
      </trkpt>
      <trkpt lat="48.00205" lon="13.46357">
        <ele>494.095081</ele>
        <time>2022-09-12T15:29:30.634Z</time>
      </trkpt>
      <trkpt lat="48.0021" lon="13.46279">
        <ele>494.709272</ele>
        <time>2022-09-12T15:29:52.224Z</time>
      </trkpt>
      <trkpt lat="48.00218" lon="13.46105">
        <ele>495.904565</ele>
        <time>2022-09-12T15:30:38.756Z</time>
      </trkpt>
      <trkpt lat="48.00213" lon="13.46101">
        <ele>495.947987</ele>
        <time>2022-09-12T15:30:41.419Z</time>
      </trkpt>
      <trkpt lat="48.00163" lon="13.46091">
        <ele>496.313175</ele>
        <time>2022-09-12T15:30:57.915Z</time>
      </trkpt>
      <trkpt lat="48.001" lon="13.46063">
        <ele>496.793721</ele>
        <time>2022-09-12T15:31:17.997Z</time>
      </trkpt>
      <trkpt lat="48.00078" lon="13.46054">
        <ele>496.926427</ele>
        <time>2022-09-12T15:31:24.502Z</time>
      </trkpt>
      <trkpt lat="48.00057" lon="13.46051">
        <ele>496.804488</ele>
        <time>2022-09-12T15:31:30.386Z</time>
      </trkpt>
      <trkpt lat="48.00033" lon="13.46061">
        <ele>496.660124</ele>
        <time>2022-09-12T15:31:37.332Z</time>
      </trkpt>
      <trkpt lat="47.99991" lon="13.46089">
        <ele>496.39817</ele>
        <time>2022-09-12T15:31:48.277Z</time>
      </trkpt>
      <trkpt lat="47.9995" lon="13.46108">
        <ele>496.148763</ele>
        <time>2022-09-12T15:31:59.195Z</time>
      </trkpt>
      <trkpt lat="47.99911" lon="13.46142">
        <ele>495.887424</ele>
        <time>2022-09-12T15:32:10.466Z</time>
      </trkpt>
      <trkpt lat="47.99874" lon="13.46163">
        <ele>495.586519</ele>
        <time>2022-09-12T15:32:19.743Z</time>
      </trkpt>
      <trkpt lat="47.99818" lon="13.46163">
        <ele>495.159736</ele>
        <time>2022-09-12T15:32:33.414Z</time>
      </trkpt>
      <trkpt lat="47.99779" lon="13.46144">
        <ele>494.854125</ele>
        <time>2022-09-12T15:32:43.291Z</time>
      </trkpt>
      <trkpt lat="47.99773" lon="13.46141">
        <ele>494.802895</ele>
        <time>2022-09-12T15:32:44.952Z</time>
      </trkpt>
      <trkpt lat="47.99696" lon="13.46091">
        <ele>494.835861</ele>
        <time>2022-09-12T15:33:07.887Z</time>
      </trkpt>
      <trkpt lat="47.99633" lon="13.46039">
        <ele>495.256337</ele>
        <time>2022-09-12T15:33:30.089Z</time>
      </trkpt>
      <trkpt lat="47.99358" lon="13.45859">
        <ele>498.5618</ele>
        <time>2022-09-12T15:35:12.453Z</time>
      </trkpt>
      <trkpt lat="47.99312" lon="13.45806">
        <ele>499.119958</ele>
        <time>2022-09-12T15:35:31.083Z</time>
      </trkpt>
      <trkpt lat="47.99256" lon="13.45722">
        <ele>499.796193</ele>
        <time>2022-09-12T15:35:56.101Z</time>
      </trkpt>
      <trkpt lat="47.99134" lon="13.45587">
        <ele>500.537761</ele>
        <time>2022-09-12T15:36:41.441Z</time>
      </trkpt>
      <trkpt lat="47.9911" lon="13.45585">
        <ele>500.671419</ele>
        <time>2022-09-12T15:36:48.892Z</time>
      </trkpt>
      <trkpt lat="47.9911" lon="13.4557">
        <ele>500.731335</ele>
        <time>2022-09-12T15:36:53.384Z</time>
      </trkpt>
      <trkpt lat="47.99116" lon="13.45548">
        <ele>500.826852</ele>
        <time>2022-09-12T15:37:01.081Z</time>
      </trkpt>
      <trkpt lat="47.99145" lon="13.45483">
        <ele>501.133141</ele>
        <time>2022-09-12T15:37:25.429Z</time>
      </trkpt>
      <trkpt lat="47.99144" lon="13.45469">
        <ele>501.190881</ele>
        <time>2022-09-12T15:37:30.037Z</time>
      </trkpt>
      <trkpt lat="47.99099" lon="13.45462">
        <ele>501.458836</ele>
        <time>2022-09-12T15:37:51.730Z</time>
      </trkpt>
      <trkpt lat="47.99048" lon="13.45433">
        <ele>501.875802</ele>
        <time>2022-09-12T15:38:17.584Z</time>
      </trkpt>
      <trkpt lat="47.99014" lon="13.45404">
        <ele>502.266812</ele>
        <time>2022-09-12T15:38:36.930Z</time>
      </trkpt>
      <trkpt lat="47.98998" lon="13.4537">
        <ele>502.53988</ele>
        <time>2022-09-12T15:38:50.635Z</time>
      </trkpt>
      <trkpt lat="47.98977" lon="13.45297">
        <ele>503.061859</ele>
        <time>2022-09-12T15:39:16.898Z</time>
      </trkpt>
      <trkpt lat="47.98968" lon="13.45207">
        <ele>503.677319</ele>
        <time>2022-09-12T15:39:47.597Z</time>
      </trkpt>
      <trkpt lat="47.9895" lon="13.45124">
        <ele>504.282675</ele>
        <time>2022-09-12T15:40:16.662Z</time>
      </trkpt>
      <trkpt lat="47.98947" lon="13.45057">
        <ele>504.746942</ele>
        <time>2022-09-12T15:40:38.274Z</time>
      </trkpt>
      <trkpt lat="47.98936" lon="13.44977">
        <ele>505.357059</ele>
        <time>2022-09-12T15:41:04.207Z</time>
      </trkpt>
      <trkpt lat="47.98935" lon="13.44929">
        <ele>506.107953</ele>
        <time>2022-09-12T15:41:20.884Z</time>
      </trkpt>
      <trkpt lat="47.98942" lon="13.44822">
        <ele>507.773747</ele>
        <time>2022-09-12T15:42:00.832Z</time>
      </trkpt>
      <trkpt lat="47.98942" lon="13.44767">
        <ele>508.633169</ele>
        <time>2022-09-12T15:42:15.470Z</time>
      </trkpt>
      <trkpt lat="47.98987" lon="13.447">
        <ele>510.411666</ele>
        <time>2022-09-12T15:42:43.288Z</time>
      </trkpt>
      <trkpt lat="47.9902" lon="13.44628">
        <ele>512.411102</ele>
        <time>2022-09-12T15:43:09.473Z</time>
      </trkpt>
      <trkpt lat="47.99029" lon="13.44618">
        <ele>512.789254</ele>
        <time>2022-09-12T15:43:14.521Z</time>
      </trkpt>
      <trkpt lat="47.99029" lon="13.44611">
        <ele>512.952073</ele>
        <time>2022-09-12T15:43:16.802Z</time>
      </trkpt>
      <trkpt lat="47.99031" lon="13.44596">
        <ele>513.314707</ele>
        <time>2022-09-12T15:43:21.493Z</time>
      </trkpt>
      <trkpt lat="47.99041" lon="13.44562">
        <ele>514.14936</ele>
        <time>2022-09-12T15:43:32.969Z</time>
      </trkpt>
      <trkpt lat="47.99083" lon="13.44486">
        <ele>516.274522</ele>
        <time>2022-09-12T15:44:01.060Z</time>
      </trkpt>
      <trkpt lat="47.99112" lon="13.44409">
        <ele>517.971767</ele>
        <time>2022-09-12T15:44:26.437Z</time>
      </trkpt>
      <trkpt lat="47.9912" lon="13.44382">
        <ele>518.549141</ele>
        <time>2022-09-12T15:44:35.072Z</time>
      </trkpt>
      <trkpt lat="47.99127" lon="13.4432">
        <ele>519.748777</ele>
        <time>2022-09-12T15:44:51.463Z</time>
      </trkpt>
      <trkpt lat="47.99138" lon="13.44291">
        <ele>520.38763</ele>
        <time>2022-09-12T15:45:00.610Z</time>
      </trkpt>
      <trkpt lat="47.99153" lon="13.44269">
        <ele>520.943687</ele>
        <time>2022-09-12T15:45:08.915Z</time>
      </trkpt>
      <trkpt lat="47.99174" lon="13.44222">
        <ele>521.762778</ele>
        <time>2022-09-12T15:45:23.736Z</time>
      </trkpt>
      <trkpt lat="47.99239" lon="13.43958">
        <ele>526.236207</ele>
        <time>2022-09-12T15:46:34.926Z</time>
      </trkpt>
      <trkpt lat="47.99259" lon="13.43928">
        <ele>527.046424</ele>
        <time>2022-09-12T15:46:45.919Z</time>
      </trkpt>
      <trkpt lat="47.99315" lon="13.43887">
        <ele>528.806917</ele>
        <time>2022-09-12T15:47:12.280Z</time>
      </trkpt>
      <trkpt lat="47.99339" lon="13.43862">
        <ele>529.636552</ele>
        <time>2022-09-12T15:47:25.372Z</time>
      </trkpt>
      <trkpt lat="47.99357" lon="13.43806">
        <ele>531.57248</ele>
        <time>2022-09-12T15:47:44.590Z</time>
      </trkpt>
      <trkpt lat="47.99361" lon="13.43791">
        <ele>532.107935</ele>
        <time>2022-09-12T15:47:49.649Z</time>
      </trkpt>
      <trkpt lat="47.99382" lon="13.43737">
        <ele>534.162252</ele>
        <time>2022-09-12T15:48:11.767Z</time>
      </trkpt>
      <trkpt lat="47.99409" lon="13.43705">
        <ele>535.876049</ele>
        <time>2022-09-12T15:48:30.435Z</time>
      </trkpt>
      <trkpt lat="47.9947" lon="13.43652">
        <ele>539.453838</ele>
        <time>2022-09-12T15:49:08.536Z</time>
      </trkpt>
      <trkpt lat="47.99479" lon="13.43635">
        <ele>540.370981</ele>
        <time>2022-09-12T15:49:17.427Z</time>
      </trkpt>
      <trkpt lat="47.99482" lon="13.43609">
        <ele>541.400464</ele>
        <time>2022-09-12T15:49:26.524Z</time>
      </trkpt>
      <trkpt lat="47.9947" lon="13.4351">
        <ele>545.440945</ele>
        <time>2022-09-12T15:50:03.748Z</time>
      </trkpt>
      <trkpt lat="47.99476" lon="13.43474">
        <ele>546.899373</ele>
        <time>2022-09-12T15:50:18.254Z</time>
      </trkpt>
      <trkpt lat="47.99525" lon="13.43353">
        <ele>551.893901</ele>
        <time>2022-09-12T15:51:15.257Z</time>
      </trkpt>
      <trkpt lat="47.99576" lon="13.43204">
        <ele>557.146438</ele>
        <time>2022-09-12T15:52:10.743Z</time>
      </trkpt>
      <trkpt lat="47.99544" lon="13.43189">
        <ele>557.867209</ele>
        <time>2022-09-12T15:52:24.272Z</time>
      </trkpt>
      <trkpt lat="47.9945" lon="13.43142">
        <ele>557.941606</ele>
        <time>2022-09-12T15:52:54.052Z</time>
      </trkpt>
      <trkpt lat="47.99376" lon="13.4309">
        <ele>557.680292</ele>
        <time>2022-09-12T15:53:11.713Z</time>
      </trkpt>
      <trkpt lat="47.99261" lon="13.43043">
        <ele>555.779645</ele>
        <time>2022-09-12T15:53:38.136Z</time>
      </trkpt>
      <trkpt lat="47.9925" lon="13.43036">
        <ele>555.600738</ele>
        <time>2022-09-12T15:53:40.910Z</time>
      </trkpt>
      <trkpt lat="47.99217" lon="13.42996">
        <ele>555.197697</ele>
        <time>2022-09-12T15:53:51.895Z</time>
      </trkpt>
      <trkpt lat="47.99183" lon="13.4291">
        <ele>555.500641</ele>
        <time>2022-09-12T15:54:11.984Z</time>
      </trkpt>
      <trkpt lat="47.99163" lon="13.42864">
        <ele>555.667129</ele>
        <time>2022-09-12T15:54:24.135Z</time>
      </trkpt>
      <trkpt lat="47.99119" lon="13.42799">
        <ele>555.945227</ele>
        <time>2022-09-12T15:54:44.438Z</time>
      </trkpt>
      <trkpt lat="47.99045" lon="13.4269">
        <ele>555.200368</ele>
        <time>2022-09-12T15:55:14.270Z</time>
      </trkpt>
      <trkpt lat="47.99043" lon="13.42678">
        <ele>555.138647</ele>
        <time>2022-09-12T15:55:16.225Z</time>
      </trkpt>
      <trkpt lat="47.98987" lon="13.42664">
        <ele>554.727334</ele>
        <time>2022-09-12T15:55:29.291Z</time>
      </trkpt>
      <trkpt lat="47.98913" lon="13.42663">
        <ele>551.127645</ele>
        <time>2022-09-12T15:55:44.503Z</time>
      </trkpt>
      <trkpt lat="47.98903" lon="13.42641">
        <ele>550.129164</ele>
        <time>2022-09-12T15:55:47.740Z</time>
      </trkpt>
      <trkpt lat="47.98889" lon="13.42492">
        <ele>544.432763</ele>
        <time>2022-09-12T15:56:05.816Z</time>
      </trkpt>
      <trkpt lat="47.98869" lon="13.42445">
        <ele>541.739585</ele>
        <time>2022-09-12T15:56:12.343Z</time>
      </trkpt>
      <trkpt lat="47.98831" lon="13.42409">
        <ele>538.475414</ele>
        <time>2022-09-12T15:56:20.221Z</time>
      </trkpt>
      <trkpt lat="47.9882" lon="13.42398">
        <ele>537.512499</ele>
        <time>2022-09-12T15:56:22.596Z</time>
      </trkpt>
      <trkpt lat="47.98802" lon="13.42377">
        <ele>535.885994</ele>
        <time>2022-09-12T15:56:26.579Z</time>
      </trkpt>
      <trkpt lat="47.98781" lon="13.42332">
        <ele>533.216943</ele>
        <time>2022-09-12T15:56:33.173Z</time>
      </trkpt>
      <trkpt lat="47.98744" lon="13.42303">
        <ele>531.154676</ele>
        <time>2022-09-12T15:56:40.784Z</time>
      </trkpt>
      <trkpt lat="47.98726" lon="13.42295">
        <ele>530.805208</ele>
        <time>2022-09-12T15:56:44.564Z</time>
      </trkpt>
      <trkpt lat="47.98705" lon="13.42291">
        <ele>530.399276</ele>
        <time>2022-09-12T15:56:48.982Z</time>
      </trkpt>
      <trkpt lat="47.98699" lon="13.42289">
        <ele>530.300253</ele>
        <time>2022-09-12T15:56:50.177Z</time>
      </trkpt>
      <trkpt lat="47.98694" lon="13.42287">
        <ele>530.201229</ele>
        <time>2022-09-12T15:56:51.321Z</time>
      </trkpt>
      <trkpt lat="47.9868" lon="13.42279">
        <ele>529.92707</ele>
        <time>2022-09-12T15:56:54.444Z</time>
      </trkpt>
      <trkpt lat="47.98691" lon="13.42222">
        <ele>529.17975</ele>
        <time>2022-09-12T15:57:04.310Z</time>
      </trkpt>
      <trkpt lat="47.98676" lon="13.42217">
        <ele>528.895676</ele>
        <time>2022-09-12T15:57:08.305Z</time>
      </trkpt>
      <trkpt lat="47.98579" lon="13.42224">
        <ele>529.280637</ele>
        <time>2022-09-12T15:57:42.147Z</time>
      </trkpt>
      <trkpt lat="47.98564" lon="13.42116">
        <ele>530.756514</ele>
        <time>2022-09-12T15:58:09.843Z</time>
      </trkpt>
      <trkpt lat="47.98548" lon="13.41939">
        <ele>533.789762</ele>
        <time>2022-09-12T15:58:56.878Z</time>
      </trkpt>
      <trkpt lat="47.98542" lon="13.4187">
        <ele>535.156014</ele>
        <time>2022-09-12T15:59:16.821Z</time>
      </trkpt>
      <trkpt lat="47.98541" lon="13.4186">
        <ele>535.347398</ele>
        <time>2022-09-12T15:59:19.489Z</time>
      </trkpt>
      <trkpt lat="47.98533" lon="13.41805">
        <ele>536.443872</ele>
        <time>2022-09-12T15:59:35.454Z</time>
      </trkpt>
      <trkpt lat="47.98528" lon="13.4177">
        <ele>537.109386</ele>
        <time>2022-09-12T15:59:45.337Z</time>
      </trkpt>
      <trkpt lat="47.98518" lon="13.41702">
        <ele>538.173241</ele>
        <time>2022-09-12T16:00:03.359Z</time>
      </trkpt>
      <trkpt lat="47.98508" lon="13.41673">
        <ele>538.670178</ele>
        <time>2022-09-12T16:00:11.903Z</time>
      </trkpt>
      <trkpt lat="47.9846" lon="13.41616">
        <ele>540.082967</ele>
        <time>2022-09-12T16:00:34.937Z</time>
      </trkpt>
      <trkpt lat="47.98444" lon="13.41584">
        <ele>540.703019</ele>
        <time>2022-09-12T16:00:44.989Z</time>
      </trkpt>
      <trkpt lat="47.98438" lon="13.41553">
        <ele>541.125912</ele>
        <time>2022-09-12T16:00:52.799Z</time>
      </trkpt>
      <trkpt lat="47.98437" lon="13.41505">
        <ele>541.138414</ele>
        <time>2022-09-12T16:01:03.481Z</time>
      </trkpt>
      <trkpt lat="47.98437" lon="13.41472">
        <ele>541.147126</ele>
        <time>2022-09-12T16:01:10.162Z</time>
      </trkpt>
      <trkpt lat="47.98438" lon="13.41415">
        <ele>541.161943</ele>
        <time>2022-09-12T16:01:20.512Z</time>
      </trkpt>
      <trkpt lat="47.98438" lon="13.41385">
        <ele>541.169797</ele>
        <time>2022-09-12T16:01:25.537Z</time>
      </trkpt>
      <trkpt lat="47.98438" lon="13.41374">
        <ele>541.172485</ele>
        <time>2022-09-12T16:01:27.238Z</time>
      </trkpt>
      <trkpt lat="47.98439" lon="13.41346">
        <ele>541.180035</ele>
        <time>2022-09-12T16:01:31.867Z</time>
      </trkpt>
      <trkpt lat="47.98443" lon="13.41295">
        <ele>541.193163</ele>
        <time>2022-09-12T16:01:39.669Z</time>
      </trkpt>
      <trkpt lat="47.98437" lon="13.41294">
        <ele>541.159564</ele>
        <time>2022-09-12T16:01:41.079Z</time>
      </trkpt>
      <trkpt lat="47.98472" lon="13.41035">
        <ele>538.050001</ele>
        <time>2022-09-12T16:02:20.180Z</time>
      </trkpt>
      <trkpt lat="47.98513" lon="13.40529">
        <ele>533.052751</ele>
        <time>2022-09-12T16:03:40.325Z</time>
      </trkpt>
      <trkpt lat="47.98526" lon="13.40468">
        <ele>532.276533</ele>
        <time>2022-09-12T16:03:49.487Z</time>
      </trkpt>
      <trkpt lat="47.98537" lon="13.40437">
        <ele>531.78705</ele>
        <time>2022-09-12T16:03:54.378Z</time>
      </trkpt>
      <trkpt lat="47.98561" lon="13.40377">
        <ele>530.800345</ele>
        <time>2022-09-12T16:04:04.663Z</time>
      </trkpt>
      <trkpt lat="47.98584" lon="13.40335">
        <ele>530.058299</ele>
        <time>2022-09-12T16:04:12.322Z</time>
      </trkpt>
      <trkpt lat="47.9859" lon="13.40324">
        <ele>529.843182</ele>
        <time>2022-09-12T16:04:14.511Z</time>
      </trkpt>
      <trkpt lat="47.98615" lon="13.40289">
        <ele>529.135267</ele>
        <time>2022-09-12T16:04:21.954Z</time>
      </trkpt>
      <trkpt lat="47.98621" lon="13.40278">
        <ele>529.00171</ele>
        <time>2022-09-12T16:04:24.026Z</time>
      </trkpt>
      <trkpt lat="47.98694" lon="13.40174">
        <ele>528.867963</ele>
        <time>2022-09-12T16:04:49.893Z</time>
      </trkpt>
      <trkpt lat="47.98748" lon="13.40099">
        <ele>528.770117</ele>
        <time>2022-09-12T16:05:12.763Z</time>
      </trkpt>
      <trkpt lat="47.9879" lon="13.40036">
        <ele>529.906378</ele>
        <time>2022-09-12T16:05:34.215Z</time>
      </trkpt>
      <trkpt lat="47.98821" lon="13.39975">
        <ele>530.90948</ele>
        <time>2022-09-12T16:05:53.455Z</time>
      </trkpt>
      <trkpt lat="47.9884" lon="13.39923">
        <ele>531.688731</ele>
        <time>2022-09-12T16:06:08.943Z</time>
      </trkpt>
      <trkpt lat="47.98857" lon="13.39855">
        <ele>532.657206</ele>
        <time>2022-09-12T16:06:28.473Z</time>
      </trkpt>
      <trkpt lat="47.98892" lon="13.39614">
        <ele>535.967574</ele>
        <time>2022-09-12T16:07:31.936Z</time>
      </trkpt>
      <trkpt lat="47.98889" lon="13.39562">
        <ele>535.918541</ele>
        <time>2022-09-12T16:07:42.980Z</time>
      </trkpt>
      <trkpt lat="47.98862" lon="13.39429">
        <ele>535.787158</ele>
        <time>2022-09-12T16:08:07.380Z</time>
      </trkpt>
      <trkpt lat="47.98853" lon="13.39385">
        <ele>535.743233</ele>
        <time>2022-09-12T16:08:14.921Z</time>
      </trkpt>
      <trkpt lat="47.98844" lon="13.39341">
        <ele>535.552363</ele>
        <time>2022-09-12T16:08:22.067Z</time>
      </trkpt>
      <trkpt lat="47.98818" lon="13.39281">
        <ele>534.904502</ele>
        <time>2022-09-12T16:08:32.902Z</time>
      </trkpt>
      <trkpt lat="47.98801" lon="13.39152">
        <ele>533.70764</ele>
        <time>2022-09-12T16:08:52.815Z</time>
      </trkpt>
      <trkpt lat="47.98793" lon="13.39112">
        <ele>533.324686</ele>
        <time>2022-09-12T16:08:59.529Z</time>
      </trkpt>
      <trkpt lat="47.98784" lon="13.39097">
        <ele>533.270949</ele>
        <time>2022-09-12T16:09:02.854Z</time>
      </trkpt>
      <trkpt lat="47.98737" lon="13.39128">
        <ele>533.288412</ele>
        <time>2022-09-12T16:09:15.997Z</time>
      </trkpt>
      <trkpt lat="47.98731" lon="13.39132">
        <ele>533.29035</ele>
        <time>2022-09-12T16:09:17.485Z</time>
      </trkpt>
      <trkpt lat="47.98673" lon="13.39169">
        <ele>533.311619</ele>
        <time>2022-09-12T16:09:34.787Z</time>
      </trkpt>
      <trkpt lat="47.98552" lon="13.39203">
        <ele>534.25699</ele>
        <time>2022-09-12T16:10:13.235Z</time>
      </trkpt>
      <trkpt lat="47.98524" lon="13.392">
        <ele>534.605884</ele>
        <time>2022-09-12T16:10:22.457Z</time>
      </trkpt>
      <trkpt lat="47.98504" lon="13.39188">
        <ele>534.876366</ele>
        <time>2022-09-12T16:10:29.370Z</time>
      </trkpt>
      <trkpt lat="47.98483" lon="13.39163">
        <ele>535.216954</ele>
        <time>2022-09-12T16:10:38.431Z</time>
      </trkpt>
      <trkpt lat="47.98437" lon="13.39053">
        <ele>536.494884</ele>
        <time>2022-09-12T16:11:09.020Z</time>
      </trkpt>
      <trkpt lat="47.98365" lon="13.38924">
        <ele>538.273696</ele>
        <time>2022-09-12T16:11:47.710Z</time>
      </trkpt>
      <trkpt lat="47.98258" lon="13.38732">
        <ele>540.269391</ele>
        <time>2022-09-12T16:12:41.707Z</time>
      </trkpt>
      <trkpt lat="47.98232" lon="13.38704">
        <ele>540.666404</ele>
        <time>2022-09-12T16:12:51.682Z</time>
      </trkpt>
      <trkpt lat="47.98167" lon="13.38686">
        <ele>541.620098</ele>
        <time>2022-09-12T16:13:12.942Z</time>
      </trkpt>
      <trkpt lat="47.98155" lon="13.38684">
        <ele>541.785099</ele>
        <time>2022-09-12T16:13:16.712Z</time>
      </trkpt>
      <trkpt lat="47.97979" lon="13.38652">
        <ele>545.017453</ele>
        <time>2022-09-12T16:14:18.919Z</time>
      </trkpt>
      <trkpt lat="47.9789" lon="13.38628">
        <ele>547.035967</ele>
        <time>2022-09-12T16:14:55.544Z</time>
      </trkpt>
      <trkpt lat="47.97879" lon="13.38628">
        <ele>547.229102</ele>
        <time>2022-09-12T16:14:59.915Z</time>
      </trkpt>
      <trkpt lat="47.97801" lon="13.38631">
        <ele>548.338154</ele>
        <time>2022-09-12T16:15:28.272Z</time>
      </trkpt>
      <trkpt lat="47.97765" lon="13.38624">
        <ele>548.853536</ele>
        <time>2022-09-12T16:15:39.891Z</time>
      </trkpt>
      <trkpt lat="47.97726" lon="13.386">
        <ele>549.445277</ele>
        <time>2022-09-12T16:15:52.408Z</time>
      </trkpt>
      <trkpt lat="47.97694" lon="13.3856">
        <ele>549.721413</ele>
        <time>2022-09-12T16:16:04.516Z</time>
      </trkpt>
      <trkpt lat="47.97659" lon="13.38514">
        <ele>549.772846</ele>
        <time>2022-09-12T16:16:16.579Z</time>
      </trkpt>
      <trkpt lat="47.97653" lon="13.38506">
        <ele>549.782232</ele>
        <time>2022-09-12T16:16:18.763Z</time>
      </trkpt>
      <trkpt lat="47.97608" lon="13.3845">
        <ele>549.846912</ele>
        <time>2022-09-12T16:16:34.049Z</time>
      </trkpt>
      <trkpt lat="47.97573" lon="13.38424">
        <ele>549.889928</ele>
        <time>2022-09-12T16:16:44.370Z</time>
      </trkpt>
      <trkpt lat="47.97554" lon="13.38418">
        <ele>549.996361</ele>
        <time>2022-09-12T16:16:49.643Z</time>
      </trkpt>
      <trkpt lat="47.97473" lon="13.38422">
        <ele>550.512923</ele>
        <time>2022-09-12T16:17:13.562Z</time>
      </trkpt>
      <trkpt lat="47.97368" lon="13.38437">
        <ele>551.239736</ele>
        <time>2022-09-12T16:17:46.605Z</time>
      </trkpt>
      <trkpt lat="47.9727" lon="13.38448">
        <ele>552.083107</ele>
        <time>2022-09-12T16:18:15.638Z</time>
      </trkpt>
      <trkpt lat="47.97246" lon="13.38448">
        <ele>552.289906</ele>
        <time>2022-09-12T16:18:23.156Z</time>
      </trkpt>
      <trkpt lat="47.97153" lon="13.38422">
        <ele>553.371795</ele>
        <time>2022-09-12T16:18:54.213Z</time>
      </trkpt>
      <trkpt lat="47.97122" lon="13.38408">
        <ele>553.792024</ele>
        <time>2022-09-12T16:19:05.309Z</time>
      </trkpt>
      <trkpt lat="47.96984" lon="13.38334">
        <ele>555.677886</ele>
        <time>2022-09-12T16:19:53.635Z</time>
      </trkpt>
      <trkpt lat="47.96894" lon="13.38265">
        <ele>556.956896</ele>
        <time>2022-09-12T16:20:26.017Z</time>
      </trkpt>
      <trkpt lat="47.96676" lon="13.38061">
        <ele>560.647827</ele>
        <time>2022-09-12T16:21:51.950Z</time>
      </trkpt>
      <trkpt lat="47.96635" lon="13.38022">
        <ele>561.444444</ele>
        <time>2022-09-12T16:22:09.337Z</time>
      </trkpt>
      <trkpt lat="47.96567" lon="13.37959">
        <ele>562.730471</ele>
        <time>2022-09-12T16:22:37.432Z</time>
      </trkpt>
      <trkpt lat="47.96499" lon="13.3787">
        <ele>563.90394</ele>
        <time>2022-09-12T16:23:08.366Z</time>
      </trkpt>
      <trkpt lat="47.96439" lon="13.37755">
        <ele>565.145263</ele>
        <time>2022-09-12T16:23:38.956Z</time>
      </trkpt>
      <trkpt lat="47.96405" lon="13.37648">
        <ele>566.052032</ele>
        <time>2022-09-12T16:24:03.615Z</time>
      </trkpt>
      <trkpt lat="47.9639" lon="13.37587">
        <ele>566.546632</ele>
        <time>2022-09-12T16:24:17.496Z</time>
      </trkpt>
      <trkpt lat="47.96386" lon="13.37573">
        <ele>566.665381</ele>
        <time>2022-09-12T16:24:21.096Z</time>
      </trkpt>
      <trkpt lat="47.96362" lon="13.37479">
        <ele>567.846771</ele>
        <time>2022-09-12T16:24:43.883Z</time>
      </trkpt>
      <trkpt lat="47.96331" lon="13.37396">
        <ele>569.308072</ele>
        <time>2022-09-12T16:25:06.209Z</time>
      </trkpt>
      <trkpt lat="47.96338" lon="13.37372">
        <ele>569.720244</ele>
        <time>2022-09-12T16:25:13.964Z</time>
      </trkpt>
      <trkpt lat="47.96336" lon="13.37287">
        <ele>571.024709</ele>
        <time>2022-09-12T16:25:37.869Z</time>
      </trkpt>
      <trkpt lat="47.96341" lon="13.37219">
        <ele>572.422654</ele>
        <time>2022-09-12T16:25:57.626Z</time>
      </trkpt>
      <trkpt lat="47.96363" lon="13.37153">
        <ele>573.998436</ele>
        <time>2022-09-12T16:26:19.540Z</time>
      </trkpt>
      <trkpt lat="47.96345" lon="13.37086">
        <ele>575.542475</ele>
        <time>2022-09-12T16:26:39.762Z</time>
      </trkpt>
      <trkpt lat="47.96339" lon="13.37044">
        <ele>576.452946</ele>
        <time>2022-09-12T16:26:52.322Z</time>
      </trkpt>
      <trkpt lat="47.96331" lon="13.37021">
        <ele>576.997171</ele>
        <time>2022-09-12T16:26:59.879Z</time>
      </trkpt>
      <trkpt lat="47.96305" lon="13.36929">
        <ele>578.804197</ele>
        <time>2022-09-12T16:27:29.121Z</time>
      </trkpt>
      <trkpt lat="47.96273" lon="13.36863">
        <ele>580.26057</ele>
        <time>2022-09-12T16:27:50.286Z</time>
      </trkpt>
      <trkpt lat="47.96236" lon="13.36786">
        <ele>581.888946</ele>
        <time>2022-09-12T16:28:15.237Z</time>
      </trkpt>
      <trkpt lat="47.96192" lon="13.36718">
        <ele>582.967251</ele>
        <time>2022-09-12T16:28:39.090Z</time>
      </trkpt>
      <trkpt lat="47.96159" lon="13.36645">
        <ele>583.98349</ele>
        <time>2022-09-12T16:29:01.142Z</time>
      </trkpt>
      <trkpt lat="47.96101" lon="13.36568">
        <ele>585.069658</ele>
        <time>2022-09-12T16:29:25.528Z</time>
      </trkpt>
      <trkpt lat="47.96058" lon="13.36528">
        <ele>585.508261</ele>
        <time>2022-09-12T16:29:41.619Z</time>
      </trkpt>
      <trkpt lat="47.96029" lon="13.36508">
        <ele>585.788984</ele>
        <time>2022-09-12T16:29:51.951Z</time>
      </trkpt>
      <trkpt lat="47.95971" lon="13.36485">
        <ele>586.306284</ele>
        <time>2022-09-12T16:30:11.483Z</time>
      </trkpt>
      <trkpt lat="47.95955" lon="13.36469">
        <ele>586.511173</ele>
        <time>2022-09-12T16:30:16.935Z</time>
      </trkpt>
      <trkpt lat="47.95953" lon="13.36446">
        <ele>586.693907</ele>
        <time>2022-09-12T16:30:22.787Z</time>
      </trkpt>
      <trkpt lat="47.95964" lon="13.36368">
        <ele>587.323027</ele>
        <time>2022-09-12T16:30:38.345Z</time>
      </trkpt>
      <trkpt lat="47.95969" lon="13.36223">
        <ele>588.479013</ele>
        <time>2022-09-12T16:31:13.691Z</time>
      </trkpt>
      <trkpt lat="47.9597" lon="13.36095">
        <ele>589.506192</ele>
        <time>2022-09-12T16:31:42.630Z</time>
      </trkpt>
      <trkpt lat="47.95966" lon="13.36079">
        <ele>589.642459</ele>
        <time>2022-09-12T16:31:46.781Z</time>
      </trkpt>
      <trkpt lat="47.95724" lon="13.36009">
        <ele>592.28927</ele>
        <time>2022-09-12T16:33:07.153Z</time>
      </trkpt>
      <trkpt lat="47.9571" lon="13.35991">
        <ele>592.482464</ele>
        <time>2022-09-12T16:33:13.381Z</time>
      </trkpt>
      <trkpt lat="47.95695" lon="13.35939">
        <ele>592.60048</ele>
        <time>2022-09-12T16:33:25.559Z</time>
      </trkpt>
      <trkpt lat="47.95685" lon="13.35925">
        <ele>592.643981</ele>
        <time>2022-09-12T16:33:29.952Z</time>
      </trkpt>
      <trkpt lat="47.9563" lon="13.35911">
        <ele>592.819763</ele>
        <time>2022-09-12T16:33:47.274Z</time>
      </trkpt>
      <trkpt lat="47.95595" lon="13.3591">
        <ele>592.926976</ele>
        <time>2022-09-12T16:33:56.825Z</time>
      </trkpt>
      <trkpt lat="47.95591" lon="13.35852">
        <ele>593.045557</ele>
        <time>2022-09-12T16:34:06.320Z</time>
      </trkpt>
      <trkpt lat="47.95594" lon="13.35794">
        <ele>592.837587</ele>
        <time>2022-09-12T16:34:15.452Z</time>
      </trkpt>
      <trkpt lat="47.95612" lon="13.35723">
        <ele>592.564995</ele>
        <time>2022-09-12T16:34:27.293Z</time>
      </trkpt>
      <trkpt lat="47.95648" lon="13.35631">
        <ele>592.185184</ele>
        <time>2022-09-12T16:34:44.697Z</time>
      </trkpt>
      <trkpt lat="47.95667" lon="13.3557">
        <ele>592.394246</ele>
        <time>2022-09-12T16:34:56.724Z</time>
      </trkpt>
      <trkpt lat="47.95676" lon="13.35517">
        <ele>592.816245</ele>
        <time>2022-09-12T16:35:07.919Z</time>
      </trkpt>
      <trkpt lat="47.95692" lon="13.35344">
        <ele>594.147674</ele>
        <time>2022-09-12T16:35:48.776Z</time>
      </trkpt>
      <trkpt lat="47.957" lon="13.35274">
        <ele>594.224796</ele>
        <time>2022-09-12T16:36:05.320Z</time>
      </trkpt>
      <trkpt lat="47.95713" lon="13.3524">
        <ele>594.267595</ele>
        <time>2022-09-12T16:36:13.882Z</time>
      </trkpt>
      <trkpt lat="47.95928" lon="13.34968">
        <ele>593.239401</ele>
        <time>2022-09-12T16:37:20.503Z</time>
      </trkpt>
      <trkpt lat="47.95957" lon="13.34918">
        <ele>594.031554</ele>
        <time>2022-09-12T16:37:32.015Z</time>
      </trkpt>
      <trkpt lat="47.9597" lon="13.34869">
        <ele>594.741465</ele>
        <time>2022-09-12T16:37:42.997Z</time>
      </trkpt>
      <trkpt lat="47.95988" lon="13.34702">
        <ele>597.232162</ele>
        <time>2022-09-12T16:38:30.179Z</time>
      </trkpt>
      <trkpt lat="47.96025" lon="13.34482">
        <ele>603.865769</ele>
        <time>2022-09-12T16:39:45.593Z</time>
      </trkpt>
      <trkpt lat="47.96036" lon="13.34421">
        <ele>605.370568</ele>
        <time>2022-09-12T16:40:06.076Z</time>
      </trkpt>
      <trkpt lat="47.96073" lon="13.34306">
        <ele>607.836575</ele>
        <time>2022-09-12T16:40:40.731Z</time>
      </trkpt>
      <trkpt lat="47.96078" lon="13.34212">
        <ele>609.663049</ele>
        <time>2022-09-12T16:41:02.648Z</time>
      </trkpt>
      <trkpt lat="47.96084" lon="13.34172">
        <ele>610.714</ele>
        <time>2022-09-12T16:41:12.424Z</time>
      </trkpt>
      <trkpt lat="47.96095" lon="13.34144">
        <ele>611.661118</ele>
        <time>2022-09-12T16:41:21.411Z</time>
      </trkpt>
      <trkpt lat="47.96159" lon="13.3405">
        <ele>615.502341</ele>
        <time>2022-09-12T16:42:03.881Z</time>
      </trkpt>
      <trkpt lat="47.96218" lon="13.33928">
        <ele>621.535896</ele>
        <time>2022-09-12T16:43:00.329Z</time>
      </trkpt>
      <trkpt lat="47.96284" lon="13.33867">
        <ele>627.311873</ele>
        <time>2022-09-12T16:43:50.542Z</time>
      </trkpt>
      <trkpt lat="47.96315" lon="13.33814">
        <ele>630.846097</ele>
        <time>2022-09-12T16:44:22.635Z</time>
      </trkpt>
      <trkpt lat="47.96334" lon="13.33707">
        <ele>636.860667</ele>
        <time>2022-09-12T16:45:12.178Z</time>
      </trkpt>
      <trkpt lat="47.96374" lon="13.33585">
        <ele>644.252623</ele>
        <time>2022-09-12T16:46:12.335Z</time>
      </trkpt>
      <trkpt lat="47.96392" lon="13.3347">
        <ele>649.482933</ele>
        <time>2022-09-12T16:47:01.738Z</time>
      </trkpt>
      <trkpt lat="47.9641" lon="13.33405">
        <ele>652.379612</ele>
        <time>2022-09-12T16:47:30.172Z</time>
      </trkpt>
      <trkpt lat="47.96431" lon="13.33276">
        <ele>656.907925</ele>
        <time>2022-09-12T16:48:13.575Z</time>
      </trkpt>
      <trkpt lat="47.96439" lon="13.33248">
        <ele>657.091184</ele>
        <time>2022-09-12T16:48:23.299Z</time>
      </trkpt>
      <trkpt lat="47.96474" lon="13.332">
        <ele>657.519293</ele>
        <time>2022-09-12T16:48:41.077Z</time>
      </trkpt>
      <trkpt lat="47.9655" lon="13.33115">
        <ele>658.356317</ele>
        <time>2022-09-12T16:49:03.496Z</time>
      </trkpt>
      <trkpt lat="47.96599" lon="13.33072">
        <ele>656.310735</ele>
        <time>2022-09-12T16:49:14.617Z</time>
      </trkpt>
      <trkpt lat="47.96657" lon="13.33032">
        <ele>654.05976</ele>
        <time>2022-09-12T16:49:26.363Z</time>
      </trkpt>
      <trkpt lat="47.9681" lon="13.3292">
        <ele>648.27791</ele>
        <time>2022-09-12T16:49:58.771Z</time>
      </trkpt>
      <trkpt lat="47.96843" lon="13.3288">
        <ele>646.866834</ele>
        <time>2022-09-12T16:50:07.586Z</time>
      </trkpt>
      <trkpt lat="47.96878" lon="13.32813">
        <ele>645.145284</ele>
        <time>2022-09-12T16:50:19.210Z</time>
      </trkpt>
      <trkpt lat="47.96955" lon="13.3263">
        <ele>641.10737</ele>
        <time>2022-09-12T16:50:47.656Z</time>
      </trkpt>
      <trkpt lat="47.96976" lon="13.32553">
        <ele>640.106833</ele>
        <time>2022-09-12T16:50:59.178Z</time>
      </trkpt>
      <trkpt lat="47.96996" lon="13.32445">
        <ele>638.803897</ele>
        <time>2022-09-12T16:51:16.122Z</time>
      </trkpt>
      <trkpt lat="47.9698" lon="13.32379">
        <ele>637.99409</ele>
        <time>2022-09-12T16:51:26.527Z</time>
      </trkpt>
      <trkpt lat="47.96975" lon="13.32336">
        <ele>637.251468</ele>
        <time>2022-09-12T16:51:32.937Z</time>
      </trkpt>
      <trkpt lat="47.96977" lon="13.32306">
        <ele>636.69253</ele>
        <time>2022-09-12T16:51:37.367Z</time>
      </trkpt>
      <trkpt lat="47.96978" lon="13.32291">
        <ele>636.421409</ele>
        <time>2022-09-12T16:51:39.479Z</time>
      </trkpt>
      <trkpt lat="47.96975" lon="13.32221">
        <ele>635.123523</ele>
        <time>2022-09-12T16:51:49.600Z</time>
      </trkpt>
      <trkpt lat="47.96958" lon="13.32153">
        <ele>633.790179</ele>
        <time>2022-09-12T16:51:59.374Z</time>
      </trkpt>
      <trkpt lat="47.96949" lon="13.32129">
        <ele>633.293984</ele>
        <time>2022-09-12T16:52:02.736Z</time>
      </trkpt>
      <trkpt lat="47.96935" lon="13.3207">
        <ele>630.867813</ele>
        <time>2022-09-12T16:52:10.244Z</time>
      </trkpt>
      <trkpt lat="47.96924" lon="13.31991">
        <ele>627.084657</ele>
        <time>2022-09-12T16:52:19.596Z</time>
      </trkpt>
      <trkpt lat="47.96925" lon="13.31731">
        <ele>613.865317</ele>
        <time>2022-09-12T16:52:48.761Z</time>
      </trkpt>
      <trkpt lat="47.96928" lon="13.31507">
        <ele>602.197217</ele>
        <time>2022-09-12T16:53:13.795Z</time>
      </trkpt>
      <trkpt lat="47.96926" lon="13.31296">
        <ele>593.220684</ele>
        <time>2022-09-12T16:53:38.604Z</time>
      </trkpt>
      <trkpt lat="47.96916" lon="13.31211">
        <ele>591.18989</ele>
        <time>2022-09-12T16:53:49.742Z</time>
      </trkpt>
      <trkpt lat="47.96901" lon="13.31133">
        <ele>589.273532</ele>
        <time>2022-09-12T16:54:00.453Z</time>
      </trkpt>
      <trkpt lat="47.96892" lon="13.31084">
        <ele>588.071061</ele>
        <time>2022-09-12T16:54:07.308Z</time>
      </trkpt>
      <trkpt lat="47.96894" lon="13.31028">
        <ele>586.667723</ele>
        <time>2022-09-12T16:54:14.935Z</time>
      </trkpt>
      <trkpt lat="47.96899" lon="13.31003">
        <ele>585.965867</ele>
        <time>2022-09-12T16:54:18.390Z</time>
      </trkpt>
      <trkpt lat="47.96919" lon="13.30919">
        <ele>583.476253</ele>
        <time>2022-09-12T16:54:30.099Z</time>
      </trkpt>
      <trkpt lat="47.96923" lon="13.30906">
        <ele>583.091754</ele>
        <time>2022-09-12T16:54:31.878Z</time>
      </trkpt>
      <trkpt lat="47.96945" lon="13.30783">
        <ele>579.432539</ele>
        <time>2022-09-12T16:54:47.362Z</time>
      </trkpt>
      <trkpt lat="47.97008" lon="13.30431">
        <ele>563.396615</ele>
        <time>2022-09-12T16:55:29.171Z</time>
      </trkpt>
      <trkpt lat="47.97014" lon="13.30399">
        <ele>562.066432</ele>
        <time>2022-09-12T16:55:33.034Z</time>
      </trkpt>
      <trkpt lat="47.97014" lon="13.30395">
        <ele>561.921556</ele>
        <time>2022-09-12T16:55:33.449Z</time>
      </trkpt>
      <trkpt lat="47.97019" lon="13.30367">
        <ele>560.737748</ele>
        <time>2022-09-12T16:55:36.909Z</time>
      </trkpt>
      <trkpt lat="47.97046" lon="13.30214">
        <ele>555.693573</ele>
        <time>2022-09-12T16:55:56.284Z</time>
      </trkpt>
      <trkpt lat="47.97055" lon="13.30168">
        <ele>554.810996</ele>
        <time>2022-09-12T16:56:02.552Z</time>
      </trkpt>
      <trkpt lat="47.97096" lon="13.29935">
        <ele>551.191655</ele>
        <time>2022-09-12T16:56:37.057Z</time>
      </trkpt>
      <trkpt lat="47.97124" lon="13.29766">
        <ele>549.807803</ele>
        <time>2022-09-12T16:57:04.266Z</time>
      </trkpt>
      <trkpt lat="47.97129" lon="13.29679">
        <ele>549.468719</ele>
        <time>2022-09-12T16:57:18.312Z</time>
      </trkpt>
      <trkpt lat="47.9712" lon="13.29581">
        <ele>549.168458</ele>
        <time>2022-09-12T16:57:34.587Z</time>
      </trkpt>
      <trkpt lat="47.9703" lon="13.29156">
        <ele>548.606764</ele>
        <time>2022-09-12T16:58:51.672Z</time>
      </trkpt>
      <trkpt lat="47.96951" lon="13.28794">
        <ele>549.13282</ele>
        <time>2022-09-12T17:00:03.551Z</time>
      </trkpt>
      <trkpt lat="47.96933" lon="13.28742">
        <ele>549.23562</ele>
        <time>2022-09-12T17:00:14.715Z</time>
      </trkpt>
      <trkpt lat="47.96812" lon="13.28391">
        <ele>548.360873</ele>
        <time>2022-09-12T17:01:23.133Z</time>
      </trkpt>
      <trkpt lat="47.96785" lon="13.28328">
        <ele>547.900546</ele>
        <time>2022-09-12T17:01:34.471Z</time>
      </trkpt>
      <trkpt lat="47.9682" lon="13.28232">
        <ele>547.055785</ele>
        <time>2022-09-12T17:01:50.575Z</time>
      </trkpt>
      <trkpt lat="47.96824" lon="13.28203">
        <ele>546.661355</ele>
        <time>2022-09-12T17:01:55.068Z</time>
      </trkpt>
      <trkpt lat="47.96876" lon="13.27978">
        <ele>543.516867</ele>
        <time>2022-09-12T17:02:30.061Z</time>
      </trkpt>
      <trkpt lat="47.96892" lon="13.27954">
        <ele>543.127204</ele>
        <time>2022-09-12T17:02:35.103Z</time>
      </trkpt>
      <trkpt lat="47.96891" lon="13.27943">
        <ele>543.000081</ele>
        <time>2022-09-12T17:02:36.680Z</time>
      </trkpt>
      <trkpt lat="47.96894" lon="13.2791">
        <ele>542.616454</ele>
        <time>2022-09-12T17:02:41.683Z</time>
      </trkpt>
      <trkpt lat="47.96913" lon="13.27835">
        <ele>541.692344</ele>
        <time>2022-09-12T17:02:53.774Z</time>
      </trkpt>
      <trkpt lat="47.9694" lon="13.27738">
        <ele>540.587158</ele>
        <time>2022-09-12T17:03:09.982Z</time>
      </trkpt>
      <trkpt lat="47.97019" lon="13.27517">
        <ele>539.11329</ele>
        <time>2022-09-12T17:03:51.660Z</time>
      </trkpt>
      <trkpt lat="47.97035" lon="13.27499">
        <ele>538.984541</ele>
        <time>2022-09-12T17:03:56.726Z</time>
      </trkpt>
      <trkpt lat="47.97055" lon="13.27436">
        <ele>538.691458</ele>
        <time>2022-09-12T17:04:08.170Z</time>
      </trkpt>
      <trkpt lat="47.97081" lon="13.27386">
        <ele>538.423647</ele>
        <time>2022-09-12T17:04:18.675Z</time>
      </trkpt>
      <trkpt lat="47.97057" lon="13.27372">
        <ele>538.264128</ele>
        <time>2022-09-12T17:04:25.224Z</time>
      </trkpt>
      <trkpt lat="47.97077" lon="13.27284">
        <ele>537.986326</ele>
        <time>2022-09-12T17:04:40.709Z</time>
      </trkpt>
      <trkpt lat="47.97082" lon="13.27262">
        <ele>537.996332</ele>
        <time>2022-09-12T17:04:44.794Z</time>
      </trkpt>
      <trkpt lat="47.97069" lon="13.27257">
        <ele>538.004911</ele>
        <time>2022-09-12T17:04:50.573Z</time>
      </trkpt>
      <trkpt lat="47.97052" lon="13.27227">
        <ele>538.022083</ele>
        <time>2022-09-12T17:05:02.400Z</time>
      </trkpt>
      <trkpt lat="47.97112" lon="13.271">
        <ele>538.089036</ele>
        <time>2022-09-12T17:05:31.368Z</time>
      </trkpt>
      <trkpt lat="47.97183" lon="13.26999">
        <ele>537.96899</ele>
        <time>2022-09-12T17:05:58.648Z</time>
      </trkpt>
      <trkpt lat="47.97214" lon="13.26953">
        <ele>537.911031</ele>
        <time>2022-09-12T17:06:10.440Z</time>
      </trkpt>
      <trkpt lat="47.97263" lon="13.26851">
        <ele>537.507892</ele>
        <time>2022-09-12T17:06:31.490Z</time>
      </trkpt>
      <trkpt lat="47.97272" lon="13.26767">
        <ele>537.034508</ele>
        <time>2022-09-12T17:06:45.335Z</time>
      </trkpt>
      <trkpt lat="47.97287" lon="13.26727">
        <ele>536.776578</ele>
        <time>2022-09-12T17:06:52.933Z</time>
      </trkpt>
      <trkpt lat="47.97291" lon="13.26716">
        <ele>536.704257</ele>
        <time>2022-09-12T17:06:54.967Z</time>
      </trkpt>
      <trkpt lat="47.97335" lon="13.26612">
        <ele>536.007747</ele>
        <time>2022-09-12T17:07:15.219Z</time>
      </trkpt>
      <trkpt lat="47.97409" lon="13.26477">
        <ele>535.00971</ele>
        <time>2022-09-12T17:07:43.838Z</time>
      </trkpt>
      <trkpt lat="47.97465" lon="13.2634">
        <ele>534.339781</ele>
        <time>2022-09-12T17:08:10.578Z</time>
      </trkpt>
      <trkpt lat="47.9748" lon="13.26293">
        <ele>534.146246</ele>
        <time>2022-09-12T17:08:19.613Z</time>
      </trkpt>
      <trkpt lat="47.975" lon="13.26198">
        <ele>533.805227</ele>
        <time>2022-09-12T17:08:37.184Z</time>
      </trkpt>
      <trkpt lat="47.97511" lon="13.26165">
        <ele>533.780256</ele>
        <time>2022-09-12T17:08:43.830Z</time>
      </trkpt>
      <trkpt lat="47.9755" lon="13.26105">
        <ele>533.72362</ele>
        <time>2022-09-12T17:08:59.038Z</time>
      </trkpt>
      <trkpt lat="47.97568" lon="13.26073">
        <ele>533.69474</ele>
        <time>2022-09-12T17:09:06.729Z</time>
      </trkpt>
      <trkpt lat="47.97583" lon="13.26041">
        <ele>533.668284</ele>
        <time>2022-09-12T17:09:13.868Z</time>
      </trkpt>
      <trkpt lat="47.97635" lon="13.25937">
        <ele>534.060273</ele>
        <time>2022-09-12T17:09:38.133Z</time>
      </trkpt>
      <trkpt lat="47.97651" lon="13.2593">
        <ele>534.204459</ele>
        <time>2022-09-12T17:09:42.764Z</time>
      </trkpt>
      <trkpt lat="47.9766" lon="13.25934">
        <ele>534.294627</ele>
        <time>2022-09-12T17:09:45.829Z</time>
      </trkpt>
      <trkpt lat="47.97654" lon="13.25757">
        <ele>535.38372</ele>
        <time>2022-09-12T17:10:26.820Z</time>
      </trkpt>
      <trkpt lat="47.97647" lon="13.25637">
        <ele>536.243829</ele>
        <time>2022-09-12T17:10:55.568Z</time>
      </trkpt>
      <trkpt lat="47.97645" lon="13.25594">
        <ele>536.551779</ele>
        <time>2022-09-12T17:11:04.503Z</time>
      </trkpt>
      <trkpt lat="47.97645" lon="13.25488">
        <ele>537.115733</ele>
        <time>2022-09-12T17:11:27.398Z</time>
      </trkpt>
      <trkpt lat="47.97652" lon="13.25439">
        <ele>536.975644</ele>
        <time>2022-09-12T17:11:35.766Z</time>
      </trkpt>
      <trkpt lat="47.97665" lon="13.25394">
        <ele>536.8408</ele>
        <time>2022-09-12T17:11:43.592Z</time>
      </trkpt>
      <trkpt lat="47.97612" lon="13.25349">
        <ele>536.588153</ele>
        <time>2022-09-12T17:11:58.977Z</time>
      </trkpt>
      <trkpt lat="47.97634" lon="13.2529">
        <ele>536.460457</ele>
        <time>2022-09-12T17:12:09.742Z</time>
      </trkpt>
      <trkpt lat="47.97615" lon="13.25284">
        <ele>536.626258</ele>
        <time>2022-09-12T17:12:15.299Z</time>
      </trkpt>
      <trkpt lat="47.97617" lon="13.25274">
        <ele>536.681873</ele>
        <time>2022-09-12T17:12:17.362Z</time>
      </trkpt>
      <trkpt lat="47.97595" lon="13.25266">
        <ele>536.877265</ele>
        <time>2022-09-12T17:12:27.628Z</time>
      </trkpt>
      <trkpt lat="47.97579" lon="13.25257">
        <ele>537.026679</ele>
        <time>2022-09-12T17:12:36.139Z</time>
      </trkpt>
      <trkpt lat="47.97557" lon="13.25243">
        <ele>537.229444</ele>
        <time>2022-09-12T17:12:47.810Z</time>
      </trkpt>
      <trkpt lat="47.97523" lon="13.25213">
        <ele>537.573785</ele>
        <time>2022-09-12T17:13:06.912Z</time>
      </trkpt>
      <trkpt lat="47.97449" lon="13.2515">
        <ele>538.629043</ele>
        <time>2022-09-12T17:13:53.592Z</time>
      </trkpt>
      <trkpt lat="47.97392" lon="13.2512">
        <ele>539.665352</ele>
        <time>2022-09-12T17:14:25.374Z</time>
      </trkpt>
      <trkpt lat="47.97341" lon="13.25101">
        <ele>540.562107</ele>
        <time>2022-09-12T17:14:52.505Z</time>
      </trkpt>
      <trkpt lat="47.97299" lon="13.25073">
        <ele>541.293073</ele>
        <time>2022-09-12T17:15:16.388Z</time>
      </trkpt>
      <trkpt lat="47.97266" lon="13.25046">
        <ele>541.833329</ele>
        <time>2022-09-12T17:15:36.293Z</time>
      </trkpt>
      <trkpt lat="47.97266" lon="13.25035">
        <ele>541.93142</ele>
        <time>2022-09-12T17:15:39.780Z</time>
      </trkpt>
      <trkpt lat="47.97261" lon="13.25031">
        <ele>542.017988</ele>
        <time>2022-09-12T17:15:42.884Z</time>
      </trkpt>
      <trkpt lat="47.97252" lon="13.25034">
        <ele>542.139774</ele>
        <time>2022-09-12T17:15:47.531Z</time>
      </trkpt>
      <trkpt lat="47.97221" lon="13.25014">
        <ele>542.624034</ele>
        <time>2022-09-12T17:16:05.156Z</time>
      </trkpt>
      <trkpt lat="47.96993" lon="13.24838">
        <ele>545.517298</ele>
        <time>2022-09-12T17:18:13.725Z</time>
      </trkpt>
      <trkpt lat="47.96896" lon="13.24762">
        <ele>545.64843</ele>
        <time>2022-09-12T17:19:03.018Z</time>
      </trkpt>
      <trkpt lat="47.96867" lon="13.24708">
        <ele>545.703128</ele>
        <time>2022-09-12T17:19:22.752Z</time>
      </trkpt>
      <trkpt lat="47.96849" lon="13.24689">
        <ele>545.740479</ele>
        <time>2022-09-12T17:19:28.610Z</time>
      </trkpt>
      <trkpt lat="47.968" lon="13.24674">
        <ele>545.887703</ele>
        <time>2022-09-12T17:19:42.019Z</time>
      </trkpt>
      <trkpt lat="47.96775" lon="13.24657">
        <ele>545.968948</ele>
        <time>2022-09-12T17:19:49.900Z</time>
      </trkpt>
      <trkpt lat="47.96682" lon="13.2458">
        <ele>546.333838</ele>
        <time>2022-09-12T17:20:22.963Z</time>
      </trkpt>
      <trkpt lat="47.96531" lon="13.24434">
        <ele>547.71241</ele>
        <time>2022-09-12T17:21:19.525Z</time>
      </trkpt>
      <trkpt lat="47.96519" lon="13.24421">
        <ele>547.815266</ele>
        <time>2022-09-12T17:21:24.388Z</time>
      </trkpt>
      <trkpt lat="47.96358" lon="13.24251">
        <ele>548.920395</ele>
        <time>2022-09-12T17:22:25.584Z</time>
      </trkpt>
      <trkpt lat="47.96352" lon="13.24212">
        <ele>548.932315</ele>
        <time>2022-09-12T17:22:33.498Z</time>
      </trkpt>
      <trkpt lat="47.96347" lon="13.24206">
        <ele>548.935071</ele>
        <time>2022-09-12T17:22:35.276Z</time>
      </trkpt>
      <trkpt lat="47.96318" lon="13.24206">
        <ele>548.947589</ele>
        <time>2022-09-12T17:22:43.155Z</time>
      </trkpt>
      <trkpt lat="47.96213" lon="13.2409">
        <ele>548.683689</ele>
        <time>2022-09-12T17:23:17.514Z</time>
      </trkpt>
      <trkpt lat="47.96209" lon="13.24095">
        <ele>548.653745</ele>
        <time>2022-09-12T17:23:18.762Z</time>
      </trkpt>
      <trkpt lat="47.96176" lon="13.24059">
        <ele>548.428399</ele>
        <time>2022-09-12T17:23:28.447Z</time>
      </trkpt>
      <trkpt lat="47.96118" lon="13.23995">
        <ele>548.0329</ele>
        <time>2022-09-12T17:23:45.945Z</time>
      </trkpt>
      <trkpt lat="47.96096" lon="13.23967">
        <ele>548.040436</ele>
        <time>2022-09-12T17:23:53.217Z</time>
      </trkpt>
      <trkpt lat="47.9607" lon="13.23931">
        <ele>548.112586</ele>
        <time>2022-09-12T17:24:02.262Z</time>
      </trkpt>
      <trkpt lat="47.96013" lon="13.23851">
        <ele>548.274123</ele>
        <time>2022-09-12T17:24:24.104Z</time>
      </trkpt>
      <trkpt lat="47.95909" lon="13.2373">
        <ele>549.098702</ele>
        <time>2022-09-12T17:25:04.528Z</time>
      </trkpt>
      <trkpt lat="47.95912" lon="13.23725">
        <ele>549.140446</ele>
        <time>2022-09-12T17:25:06.492Z</time>
      </trkpt>
      <trkpt lat="47.95851" lon="13.23652">
        <ele>549.797051</ele>
        <time>2022-09-12T17:25:31.083Z</time>
      </trkpt>
      <trkpt lat="47.9585" lon="13.2364">
        <ele>549.861333</ele>
        <time>2022-09-12T17:25:33.372Z</time>
      </trkpt>
      <trkpt lat="47.95843" lon="13.23631">
        <ele>549.91351</ele>
        <time>2022-09-12T17:25:36.226Z</time>
      </trkpt>
      <trkpt lat="47.95824" lon="13.23604">
        <ele>550.056239</ele>
        <time>2022-09-12T17:25:44.139Z</time>
      </trkpt>
      <trkpt lat="47.95805" lon="13.23576">
        <ele>550.195955</ele>
        <time>2022-09-12T17:25:51.839Z</time>
      </trkpt>
      <trkpt lat="47.95802" lon="13.23579">
        <ele>550.217632</ele>
        <time>2022-09-12T17:25:53.333Z</time>
      </trkpt>
      <trkpt lat="47.95791" lon="13.23558">
        <ele>550.310073</ele>
        <time>2022-09-12T17:25:59.858Z</time>
      </trkpt>
      <trkpt lat="47.95771" lon="13.23551">
        <ele>550.42232</ele>
        <time>2022-09-12T17:26:07.706Z</time>
      </trkpt>
      <trkpt lat="47.95765" lon="13.23532">
        <ele>550.49674</ele>
        <time>2022-09-12T17:26:11.794Z</time>
      </trkpt>
      <trkpt lat="47.95744" lon="13.23495">
        <ele>550.671927</ele>
        <time>2022-09-12T17:26:21.302Z</time>
      </trkpt>
      <trkpt lat="47.9571" lon="13.23441">
        <ele>550.920305</ele>
        <time>2022-09-12T17:26:35.495Z</time>
      </trkpt>
      <trkpt lat="47.95652" lon="13.23345">
        <ele>551.307929</ele>
        <time>2022-09-12T17:27:00.015Z</time>
      </trkpt>
      <trkpt lat="47.9562" lon="13.23288">
        <ele>551.534446</ele>
        <time>2022-09-12T17:27:14.912Z</time>
      </trkpt>
      <trkpt lat="47.9551" lon="13.23118">
        <ele>551.825506</ele>
        <time>2022-09-12T17:27:59.669Z</time>
      </trkpt>
      <trkpt lat="47.95447" lon="13.23034">
        <ele>551.732861</ele>
        <time>2022-09-12T17:28:20.851Z</time>
      </trkpt>
      <trkpt lat="47.95388" lon="13.22967">
        <ele>551.433867</ele>
        <time>2022-09-12T17:28:39.151Z</time>
      </trkpt>
      <trkpt lat="47.95392" lon="13.22959">
        <ele>551.4086</ele>
        <time>2022-09-12T17:28:40.696Z</time>
      </trkpt>
      <trkpt lat="47.95123" lon="13.22724">
        <ele>549.343864</ele>
        <time>2022-09-12T17:30:53.744Z</time>
      </trkpt>
      <trkpt lat="47.95121" lon="13.22731">
        <ele>549.258395</ele>
        <time>2022-09-12T17:30:55.348Z</time>
      </trkpt>
      <trkpt lat="47.95106" lon="13.2272">
        <ele>549.00379</ele>
        <time>2022-09-12T17:30:58.812Z</time>
      </trkpt>
      <trkpt lat="47.95021" lon="13.2266">
        <ele>547.516174</ele>
        <time>2022-09-12T17:31:18.070Z</time>
      </trkpt>
      <trkpt lat="47.94959" lon="13.22597">
        <ele>546.334603</ele>
        <time>2022-09-12T17:31:33.296Z</time>
      </trkpt>
      <trkpt lat="47.94919" lon="13.2258">
        <ele>545.689649</ele>
        <time>2022-09-12T17:31:42.423Z</time>
      </trkpt>
      <trkpt lat="47.9489" lon="13.2257">
        <ele>545.221095</ele>
        <time>2022-09-12T17:31:49.395Z</time>
      </trkpt>
      <trkpt lat="47.9487" lon="13.22564">
        <ele>544.888708</ele>
        <time>2022-09-12T17:31:54.666Z</time>
      </trkpt>
      <trkpt lat="47.94862" lon="13.22556">
        <ele>544.830657</ele>
        <time>2022-09-12T17:31:57.110Z</time>
      </trkpt>
      <trkpt lat="47.94837" lon="13.22565">
        <ele>545.114918</ele>
        <time>2022-09-12T17:32:04.020Z</time>
      </trkpt>
      <trkpt lat="47.94828" lon="13.22566">
        <ele>545.212352</ele>
        <time>2022-09-12T17:32:06.464Z</time>
      </trkpt>
      <trkpt lat="47.94825" lon="13.22567">
        <ele>545.243305</ele>
        <time>2022-09-12T17:32:07.301Z</time>
      </trkpt>
      <trkpt lat="47.94776" lon="13.22568">
        <ele>545.787057</ele>
        <time>2022-09-12T17:32:22.462Z</time>
      </trkpt>
      <trkpt lat="47.94753" lon="13.2256">
        <ele>546.046534</ele>
        <time>2022-09-12T17:32:30.442Z</time>
      </trkpt>
      <trkpt lat="47.94732" lon="13.22538">
        <ele>546.324999</ele>
        <time>2022-09-12T17:32:39.481Z</time>
      </trkpt>
      <trkpt lat="47.9472" lon="13.22517">
        <ele>546.531934</ele>
        <time>2022-09-12T17:32:46.576Z</time>
      </trkpt>
      <trkpt lat="47.94715" lon="13.22509">
        <ele>546.616214</ele>
        <time>2022-09-12T17:32:49.486Z</time>
      </trkpt>
      <trkpt lat="47.94711" lon="13.22505">
        <ele>546.66271</ele>
        <time>2022-09-12T17:32:50.999Z</time>
      </trkpt>
      <trkpt lat="47.94706" lon="13.22499">
        <ele>546.740937</ele>
        <time>2022-09-12T17:32:53.669Z</time>
      </trkpt>
      <trkpt lat="47.94663" lon="13.22483">
        <ele>547.522194</ele>
        <time>2022-09-12T17:33:10.285Z</time>
      </trkpt>
      <trkpt lat="47.94559" lon="13.22469">
        <ele>549.438762</ele>
        <time>2022-09-12T17:33:47.263Z</time>
      </trkpt>
      <trkpt lat="47.94548" lon="13.22462">
        <ele>549.655793</ele>
        <time>2022-09-12T17:33:51.825Z</time>
      </trkpt>
      <trkpt lat="47.94505" lon="13.22457">
        <ele>550.252662</ele>
        <time>2022-09-12T17:34:06.222Z</time>
      </trkpt>
      <trkpt lat="47.94479" lon="13.22458">
        <ele>550.476517</ele>
        <time>2022-09-12T17:34:14.558Z</time>
      </trkpt>
      <trkpt lat="47.94389" lon="13.2245">
        <ele>551.250563</ele>
        <time>2022-09-12T17:34:41.795Z</time>
      </trkpt>
      <trkpt lat="47.9433" lon="13.22423">
        <ele>551.801183</ele>
        <time>2022-09-12T17:34:59.467Z</time>
      </trkpt>
      <trkpt lat="47.94308" lon="13.22412">
        <ele>552.021779</ele>
        <time>2022-09-12T17:35:06.150Z</time>
      </trkpt>
      <trkpt lat="47.94301" lon="13.22409">
        <ele>552.094559</ele>
        <time>2022-09-12T17:35:08.345Z</time>
      </trkpt>
      <trkpt lat="47.94258" lon="13.22391">
        <ele>552.528381</ele>
        <time>2022-09-12T17:35:21.729Z</time>
      </trkpt>
      <trkpt lat="47.94251" lon="13.22389">
        <ele>552.600334</ele>
        <time>2022-09-12T17:35:23.986Z</time>
      </trkpt>
      <trkpt lat="47.94212" lon="13.22376">
        <ele>552.986735</ele>
        <time>2022-09-12T17:35:36.675Z</time>
      </trkpt>
      <trkpt lat="47.94212" lon="13.22375">
        <ele>552.994764</ele>
        <time>2022-09-12T17:35:36.956Z</time>
      </trkpt>
      <trkpt lat="47.94146" lon="13.22365">
        <ele>553.955781</ele>
        <time>2022-09-12T17:35:59.678Z</time>
      </trkpt>
      <trkpt lat="47.94107" lon="13.22357">
        <ele>554.790989</ele>
        <time>2022-09-12T17:36:13.965Z</time>
      </trkpt>
      <trkpt lat="47.94095" lon="13.22354">
        <ele>555.045906</ele>
        <time>2022-09-12T17:36:18.400Z</time>
      </trkpt>
      <trkpt lat="47.94085" lon="13.22352">
        <ele>555.260855</ele>
        <time>2022-09-12T17:36:22.178Z</time>
      </trkpt>
      <trkpt lat="47.94086" lon="13.22345">
        <ele>555.369534</ele>
        <time>2022-09-12T17:36:24.543Z</time>
      </trkpt>
      <trkpt lat="47.94011" lon="13.22342">
        <ele>556.950388</ele>
        <time>2022-09-12T17:37:06.197Z</time>
      </trkpt>
      <trkpt lat="47.93911" lon="13.22357">
        <ele>558.900688</ele>
        <time>2022-09-12T17:38:02.865Z</time>
      </trkpt>
      <trkpt lat="47.93833" lon="13.22359">
        <ele>560.389461</ele>
        <time>2022-09-12T17:38:44.527Z</time>
      </trkpt>
      <trkpt lat="47.93833" lon="13.22364">
        <ele>560.458507</ele>
        <time>2022-09-12T17:38:45.694Z</time>
      </trkpt>
      <trkpt lat="47.93819" lon="13.22362">
        <ele>560.613463</ele>
        <time>2022-09-12T17:38:50.283Z</time>
      </trkpt>
      <trkpt lat="47.93712" lon="13.22328">
        <ele>560.393637</ele>
        <time>2022-09-12T17:39:19.777Z</time>
      </trkpt>
      <trkpt lat="47.93612" lon="13.22268">
        <ele>559.676005</ele>
        <time>2022-09-12T17:39:44.051Z</time>
      </trkpt>
      <trkpt lat="47.93594" lon="13.22257">
        <ele>559.401471</ele>
        <time>2022-09-12T17:39:48.323Z</time>
      </trkpt>
      <trkpt lat="47.93533" lon="13.22231">
        <ele>558.519789</ele>
        <time>2022-09-12T17:40:02.164Z</time>
      </trkpt>
      <trkpt lat="47.9345" lon="13.22205">
        <ele>557.479154</ele>
        <time>2022-09-12T17:40:21.216Z</time>
      </trkpt>
      <trkpt lat="47.93357" lon="13.22152">
        <ele>556.580074</ele>
        <time>2022-09-12T17:40:44.775Z</time>
      </trkpt>
      <trkpt lat="47.93316" lon="13.22119">
        <ele>556.159142</ele>
        <time>2022-09-12T17:40:55.856Z</time>
      </trkpt>
      <trkpt lat="47.93287" lon="13.22075">
        <ele>555.899597</ele>
        <time>2022-09-12T17:41:05.682Z</time>
      </trkpt>
      <trkpt lat="47.93223" lon="13.21991">
        <ele>555.386922</ele>
        <time>2022-09-12T17:41:26.246Z</time>
      </trkpt>
      <trkpt lat="47.93198" lon="13.21973">
        <ele>555.224248</ele>
        <time>2022-09-12T17:41:32.949Z</time>
      </trkpt>
      <trkpt lat="47.93165" lon="13.21961">
        <ele>555.040939</ele>
        <time>2022-09-12T17:41:41.516Z</time>
      </trkpt>
      <trkpt lat="47.93147" lon="13.21953">
        <ele>555.007853</ele>
        <time>2022-09-12T17:41:46.429Z</time>
      </trkpt>
      <trkpt lat="47.92994" lon="13.21889">
        <ele>554.726266</ele>
        <time>2022-09-12T17:42:28.473Z</time>
      </trkpt>
      <trkpt lat="47.92943" lon="13.21864">
        <ele>554.446322</ele>
        <time>2022-09-12T17:42:41.191Z</time>
      </trkpt>
      <trkpt lat="47.92923" lon="13.21847">
        <ele>554.32418</ele>
        <time>2022-09-12T17:42:46.754Z</time>
      </trkpt>
      <trkpt lat="47.92861" lon="13.21757">
        <ele>553.872389</ele>
        <time>2022-09-12T17:43:08.607Z</time>
      </trkpt>
      <trkpt lat="47.92856" lon="13.21749">
        <ele>553.833585</ele>
        <time>2022-09-12T17:43:10.526Z</time>
      </trkpt>
      <trkpt lat="47.92809" lon="13.21702">
        <ele>553.005731</ele>
        <time>2022-09-12T17:43:23.807Z</time>
      </trkpt>
      <trkpt lat="47.92752" lon="13.21672">
        <ele>552.03774</ele>
        <time>2022-09-12T17:43:37.142Z</time>
      </trkpt>
      <trkpt lat="47.92728" lon="13.21646">
        <ele>551.568617</ele>
        <time>2022-09-12T17:43:43.396Z</time>
      </trkpt>
      <trkpt lat="47.9271" lon="13.21604">
        <ele>551.039466</ele>
        <time>2022-09-12T17:43:50.240Z</time>
      </trkpt>
      <trkpt lat="47.92704" lon="13.21576">
        <ele>550.611461</ele>
        <time>2022-09-12T17:43:54.156Z</time>
      </trkpt>
      <trkpt lat="47.92702" lon="13.21567">
        <ele>550.449843</ele>
        <time>2022-09-12T17:43:55.527Z</time>
      </trkpt>
      <trkpt lat="47.927" lon="13.21554">
        <ele>550.242994</ele>
        <time>2022-09-12T17:43:57.255Z</time>
      </trkpt>
      <trkpt lat="47.92691" lon="13.2151">
        <ele>549.487188</ele>
        <time>2022-09-12T17:44:03.373Z</time>
      </trkpt>
      <trkpt lat="47.92687" lon="13.21492">
        <ele>549.17519</ele>
        <time>2022-09-12T17:44:05.877Z</time>
      </trkpt>
      <trkpt lat="47.9268" lon="13.21468">
        <ele>548.748849</ele>
        <time>2022-09-12T17:44:09.221Z</time>
      </trkpt>
      <trkpt lat="47.9265" lon="13.2138">
        <ele>547.122703</ele>
        <time>2022-09-12T17:44:22.292Z</time>
      </trkpt>
      <trkpt lat="47.92597" lon="13.21301">
        <ele>547.317783</ele>
        <time>2022-09-12T17:44:40.268Z</time>
      </trkpt>
      <trkpt lat="47.92567" lon="13.21224">
        <ele>548.255561</ele>
        <time>2022-09-12T17:45:01.513Z</time>
      </trkpt>
      <trkpt lat="47.92558" lon="13.21181">
        <ele>548.721802</ele>
        <time>2022-09-12T17:45:14.450Z</time>
      </trkpt>
      <trkpt lat="47.92539" lon="13.21119">
        <ele>549.526829</ele>
        <time>2022-09-12T17:45:35.901Z</time>
      </trkpt>
      <trkpt lat="47.92489" lon="13.21004">
        <ele>552.345744</ele>
        <time>2022-09-12T17:46:18.925Z</time>
      </trkpt>
      <trkpt lat="47.92466" lon="13.20933">
        <ele>553.974008</ele>
        <time>2022-09-12T17:46:41.280Z</time>
      </trkpt>
      <trkpt lat="47.92436" lon="13.20885">
        <ele>554.864997</ele>
        <time>2022-09-12T17:46:56.533Z</time>
      </trkpt>
      <trkpt lat="47.92405" lon="13.20807">
        <ele>554.905306</ele>
        <time>2022-09-12T17:47:15.201Z</time>
      </trkpt>
      <trkpt lat="47.92385" lon="13.20785">
        <ele>554.921503</ele>
        <time>2022-09-12T17:47:21.833Z</time>
      </trkpt>
      <trkpt lat="47.923" lon="13.20594">
        <ele>554.492459</ele>
        <time>2022-09-12T17:47:59.455Z</time>
      </trkpt>
      <trkpt lat="47.92305" lon="13.20547">
        <ele>554.284142</ele>
        <time>2022-09-12T17:48:07.382Z</time>
      </trkpt>
      <trkpt lat="47.92299" lon="13.20508">
        <ele>554.11212</ele>
        <time>2022-09-12T17:48:14.099Z</time>
      </trkpt>
      <trkpt lat="47.9229" lon="13.20489">
        <ele>554.008609</ele>
        <time>2022-09-12T17:48:18.283Z</time>
      </trkpt>
      <trkpt lat="47.92269" lon="13.20461">
        <ele>553.827794</ele>
        <time>2022-09-12T17:48:25.634Z</time>
      </trkpt>
      <trkpt lat="47.92244" lon="13.20399">
        <ele>554.010094</ele>
        <time>2022-09-12T17:48:39.102Z</time>
      </trkpt>
      <trkpt lat="47.92219" lon="13.20359">
        <ele>554.170322</ele>
        <time>2022-09-12T17:48:49.914Z</time>
      </trkpt>
      <trkpt lat="47.92142" lon="13.20271">
        <ele>554.598981</ele>
        <time>2022-09-12T17:49:20.298Z</time>
      </trkpt>
      <trkpt lat="47.92098" lon="13.20235">
        <ele>554.760334</ele>
        <time>2022-09-12T17:49:36.538Z</time>
      </trkpt>
      <trkpt lat="47.92079" lon="13.20191">
        <ele>554.871838</ele>
        <time>2022-09-12T17:49:47.562Z</time>
      </trkpt>
      <trkpt lat="47.92054" lon="13.20169">
        <ele>554.963987</ele>
        <time>2022-09-12T17:49:56.499Z</time>
      </trkpt>
      <trkpt lat="47.92011" lon="13.20091">
        <ele>555.188082</ele>
        <time>2022-09-12T17:50:15.135Z</time>
      </trkpt>
      <trkpt lat="47.91967" lon="13.19976">
        <ele>556.147825</ele>
        <time>2022-09-12T17:50:36.369Z</time>
      </trkpt>
      <trkpt lat="47.91947" lon="13.19901">
        <ele>556.728072</ele>
        <time>2022-09-12T17:50:57.507Z</time>
      </trkpt>
      <trkpt lat="47.91943" lon="13.19854">
        <ele>557.069966</ele>
        <time>2022-09-12T17:51:10.872Z</time>
      </trkpt>
      <trkpt lat="47.91928" lon="13.19772">
        <ele>561.285682</ele>
        <time>2022-09-12T17:51:37.290Z</time>
      </trkpt>
      <trkpt lat="47.91909" lon="13.19742">
        <ele>563.442832</ele>
        <time>2022-09-12T17:51:54.118Z</time>
      </trkpt>
      <trkpt lat="47.91895" lon="13.1972">
        <ele>565.03788</ele>
        <time>2022-09-12T17:52:07.113Z</time>
      </trkpt>
      <trkpt lat="47.91891" lon="13.19705">
        <ele>565.893424</ele>
        <time>2022-09-12T17:52:17.051Z</time>
      </trkpt>
      <trkpt lat="47.91893" lon="13.1967">
        <ele>567.711312</ele>
        <time>2022-09-12T17:52:34.355Z</time>
      </trkpt>
      <trkpt lat="47.91889" lon="13.19636">
        <ele>569.547754</ele>
        <time>2022-09-12T17:52:55.621Z</time>
      </trkpt>
      <trkpt lat="47.91881" lon="13.1962">
        <ele>570.615272</ele>
        <time>2022-09-12T17:53:07.809Z</time>
      </trkpt>
      <trkpt lat="47.91866" lon="13.19606">
        <ele>571.606441</ele>
        <time>2022-09-12T17:53:22.324Z</time>
      </trkpt>
      <trkpt lat="47.91848" lon="13.196">
        <ele>572.370469</ele>
        <time>2022-09-12T17:53:37.688Z</time>
      </trkpt>
      <trkpt lat="47.91821" lon="13.19614">
        <ele>573.491126</ele>
        <time>2022-09-12T17:53:58.702Z</time>
      </trkpt>
      <trkpt lat="47.91787" lon="13.19636">
        <ele>574.976153</ele>
        <time>2022-09-12T17:54:18.671Z</time>
      </trkpt>
      <trkpt lat="47.91769" lon="13.19641">
        <ele>575.740181</ele>
        <time>2022-09-12T17:54:24.148Z</time>
      </trkpt>
      <trkpt lat="47.91747" lon="13.19629">
        <ele>576.662865</ele>
        <time>2022-09-12T17:54:32.075Z</time>
      </trkpt>
      <trkpt lat="47.91687" lon="13.19592">
        <ele>577.03178</ele>
        <time>2022-09-12T17:54:46.501Z</time>
      </trkpt>
      <trkpt lat="47.91651" lon="13.196">
        <ele>574.439956</ele>
        <time>2022-09-12T17:54:53.379Z</time>
      </trkpt>
      <trkpt lat="47.91603" lon="13.19569">
        <ele>570.682764</ele>
        <time>2022-09-12T17:55:02.643Z</time>
      </trkpt>
      <trkpt lat="47.91586" lon="13.19563">
        <ele>569.436279</ele>
        <time>2022-09-12T17:55:05.597Z</time>
      </trkpt>
      <trkpt lat="47.91523" lon="13.19595">
        <ele>564.799513</ele>
        <time>2022-09-12T17:55:17.102Z</time>
      </trkpt>
      <trkpt lat="47.91486" lon="13.19637">
        <ele>561.88257</ele>
        <time>2022-09-12T17:55:25.258Z</time>
      </trkpt>
      <trkpt lat="47.91455" lon="13.19639">
        <ele>559.92277</ele>
        <time>2022-09-12T17:55:30.850Z</time>
      </trkpt>
      <trkpt lat="47.91459" lon="13.19617">
        <ele>558.937591</ele>
        <time>2022-09-12T17:55:33.865Z</time>
      </trkpt>
      <trkpt lat="47.91452" lon="13.1959">
        <ele>557.721991</ele>
        <time>2022-09-12T17:55:37.627Z</time>
      </trkpt>
      <trkpt lat="47.91452" lon="13.19586">
        <ele>557.562872</ele>
        <time>2022-09-12T17:55:38.122Z</time>
      </trkpt>
      <trkpt lat="47.91451" lon="13.19557">
        <ele>556.30152</ele>
        <time>2022-09-12T17:55:41.915Z</time>
      </trkpt>
      <trkpt lat="47.91451" lon="13.1949">
        <ele>553.871676</ele>
        <time>2022-09-12T17:55:50.510Z</time>
      </trkpt>
      <trkpt lat="47.91446" lon="13.19446">
        <ele>552.884991</ele>
        <time>2022-09-12T17:55:56.226Z</time>
      </trkpt>
      <trkpt lat="47.91432" lon="13.19407">
        <ele>551.90497</ele>
        <time>2022-09-12T17:56:02.081Z</time>
      </trkpt>
      <trkpt lat="47.91375" lon="13.19368">
        <ele>549.848428</ele>
        <time>2022-09-12T17:56:14.932Z</time>
      </trkpt>
      <trkpt lat="47.91338" lon="13.19227">
        <ele>547.780115</ele>
        <time>2022-09-12T17:56:37.617Z</time>
      </trkpt>
      <trkpt lat="47.91301" lon="13.19148">
        <ele>547.109981</ele>
        <time>2022-09-12T17:56:54.188Z</time>
      </trkpt>
      <trkpt lat="47.91294" lon="13.19123">
        <ele>546.918501</ele>
        <time>2022-09-12T17:56:59.070Z</time>
      </trkpt>
      <trkpt lat="47.9129" lon="13.19041">
        <ele>545.834952</ele>
        <time>2022-09-12T17:57:13.473Z</time>
      </trkpt>
      <trkpt lat="47.91298" lon="13.18947">
        <ele>542.90668</ele>
        <time>2022-09-12T17:57:28.430Z</time>
      </trkpt>
      <trkpt lat="47.91287" lon="13.18861">
        <ele>540.1996</ele>
        <time>2022-09-12T17:57:39.004Z</time>
      </trkpt>
      <trkpt lat="47.91269" lon="13.18786">
        <ele>537.350172</ele>
        <time>2022-09-12T17:57:48.524Z</time>
      </trkpt>
      <trkpt lat="47.91253" lon="13.18744">
        <ele>534.533984</ele>
        <time>2022-09-12T17:57:54.166Z</time>
      </trkpt>
      <trkpt lat="47.91241" lon="13.1871">
        <ele>532.297683</ele>
        <time>2022-09-12T17:57:58.512Z</time>
      </trkpt>
      <trkpt lat="47.91211" lon="13.18506">
        <ele>522.411968</ele>
        <time>2022-09-12T17:58:22.673Z</time>
      </trkpt>
      <trkpt lat="47.91178" lon="13.1847">
        <ele>522.200052</ele>
        <time>2022-09-12T17:58:31.263Z</time>
      </trkpt>
      <trkpt lat="47.91139" lon="13.18468">
        <ele>521.999816</ele>
        <time>2022-09-12T17:58:44.314Z</time>
      </trkpt>
      <trkpt lat="47.91095" lon="13.18458">
        <ele>521.77311</ele>
        <time>2022-09-12T17:59:04.562Z</time>
      </trkpt>
      <trkpt lat="47.91089" lon="13.18456">
        <ele>521.744365</ele>
        <time>2022-09-12T17:59:07.403Z</time>
      </trkpt>
      <trkpt lat="47.91057" lon="13.18438">
        <ele>522.436578</ele>
        <time>2022-09-12T17:59:24.389Z</time>
      </trkpt>
      <trkpt lat="47.91049" lon="13.18433">
        <ele>522.944754</ele>
        <time>2022-09-12T17:59:28.691Z</time>
      </trkpt>
      <trkpt lat="47.90979" lon="13.18405">
        <ele>527.276369</ele>
        <time>2022-09-12T18:00:09.406Z</time>
      </trkpt>
      <trkpt lat="47.90961" lon="13.18343">
        <ele>530.015177</ele>
        <time>2022-09-12T18:00:37.979Z</time>
      </trkpt>
      <trkpt lat="47.90948" lon="13.1827">
        <ele>532.883884</ele>
        <time>2022-09-12T18:01:08.029Z</time>
      </trkpt>
      <trkpt lat="47.90946" lon="13.18263">
        <ele>533.102698</ele>
        <time>2022-09-12T18:01:10.353Z</time>
      </trkpt>
      <trkpt lat="47.90924" lon="13.18282">
        <ele>534.17536</ele>
        <time>2022-09-12T18:01:25.270Z</time>
      </trkpt>
      <trkpt lat="47.90896" lon="13.18323">
        <ele>535.826265</ele>
        <time>2022-09-12T18:01:42.399Z</time>
      </trkpt>
      <trkpt lat="47.90883" lon="13.18334">
        <ele>536.48517</ele>
        <time>2022-09-12T18:01:48.086Z</time>
      </trkpt>
      <trkpt lat="47.90864" lon="13.18345">
        <ele>537.354</ele>
        <time>2022-09-12T18:01:56.875Z</time>
      </trkpt>
      <trkpt lat="47.90827" lon="13.18354">
        <ele>538.950184</ele>
        <time>2022-09-12T18:02:12.751Z</time>
      </trkpt>
      <trkpt lat="47.90808" lon="13.18351">
        <ele>539.770011</ele>
        <time>2022-09-12T18:02:21.833Z</time>
      </trkpt>
      <trkpt lat="47.90769" lon="13.18318">
        <ele>541.191093</ele>
        <time>2022-09-12T18:02:41.807Z</time>
      </trkpt>
      <trkpt lat="47.90721" lon="13.18259">
        <ele>542.998943</ele>
        <time>2022-09-12T18:03:07.639Z</time>
      </trkpt>
      <trkpt lat="47.90663" lon="13.18197">
        <ele>545.097256</ele>
        <time>2022-09-12T18:03:35.256Z</time>
      </trkpt>
      <trkpt lat="47.90626" lon="13.18163">
        <ele>546.043904</ele>
        <time>2022-09-12T18:03:50.884Z</time>
      </trkpt>
      <trkpt lat="47.90585" lon="13.18155">
        <ele>546.863938</ele>
        <time>2022-09-12T18:04:06.244Z</time>
      </trkpt>
      <trkpt lat="47.90524" lon="13.1819">
        <ele>548.141484</ele>
        <time>2022-09-12T18:04:30.076Z</time>
      </trkpt>
      <trkpt lat="47.90416" lon="13.18312">
        <ele>550.53475</ele>
        <time>2022-09-12T18:05:16.521Z</time>
      </trkpt>
      <trkpt lat="47.90335" lon="13.18389">
        <ele>552.055458</ele>
        <time>2022-09-12T18:05:50.551Z</time>
      </trkpt>
      <trkpt lat="47.90249" lon="13.18456">
        <ele>552.912184</ele>
        <time>2022-09-12T18:06:22.280Z</time>
      </trkpt>
      <trkpt lat="47.90217" lon="13.18496">
        <ele>553.274299</ele>
        <time>2022-09-12T18:06:34.572Z</time>
      </trkpt>
      <trkpt lat="47.90215" lon="13.18491">
        <ele>553.304063</ele>
        <time>2022-09-12T18:06:35.788Z</time>
      </trkpt>
      <trkpt lat="47.90187" lon="13.18517">
        <ele>553.51042</ele>
        <time>2022-09-12T18:06:44.819Z</time>
      </trkpt>
      <trkpt lat="47.90083" lon="13.18554">
        <ele>553.1581</ele>
        <time>2022-09-12T18:07:12.389Z</time>
      </trkpt>
      <trkpt lat="47.9004" lon="13.18565">
        <ele>553.016116</ele>
        <time>2022-09-12T18:07:23.378Z</time>
      </trkpt>
      <trkpt lat="47.89998" lon="13.18565">
        <ele>552.942366</ele>
        <time>2022-09-12T18:07:34.810Z</time>
      </trkpt>
      <trkpt lat="47.89983" lon="13.18559">
        <ele>552.943635</ele>
        <time>2022-09-12T18:07:39.001Z</time>
      </trkpt>
      <trkpt lat="47.89891" lon="13.18304">
        <ele>553.04354</ele>
        <time>2022-09-12T18:08:33.999Z</time>
      </trkpt>
      <trkpt lat="47.89855" lon="13.18335">
        <ele>553.117919</ele>
        <time>2022-09-12T18:08:45.759Z</time>
      </trkpt>
      <trkpt lat="47.89823" lon="13.18364">
        <ele>553.184446</ele>
        <time>2022-09-12T18:08:56.247Z</time>
      </trkpt>
      <trkpt lat="47.89786" lon="13.18401">
        <ele>553.264919</ele>
        <time>2022-09-12T18:09:09.171Z</time>
      </trkpt>
      <trkpt lat="47.89772" lon="13.18408">
        <ele>553.349306</ele>
        <time>2022-09-12T18:09:13.126Z</time>
      </trkpt>
      <trkpt lat="47.89754" lon="13.18381">
        <ele>553.590598</ele>
        <time>2022-09-12T18:09:21.064Z</time>
      </trkpt>
      <trkpt lat="47.89679" lon="13.18317">
        <ele>554.397125</ele>
        <time>2022-09-12T18:09:47.915Z</time>
      </trkpt>
      <trkpt lat="47.89633" lon="13.18279">
        <ele>554.891158</ele>
        <time>2022-09-12T18:10:07.093Z</time>
      </trkpt>
      <trkpt lat="47.89604" lon="13.18304">
        <ele>555.189464</ele>
        <time>2022-09-12T18:10:18.931Z</time>
      </trkpt>
      <trkpt lat="47.89579" lon="13.1831">
        <ele>555.407131</ele>
        <time>2022-09-12T18:10:27.289Z</time>
      </trkpt>
      <trkpt lat="47.8956" lon="13.18292">
        <ele>555.603197</ele>
        <time>2022-09-12T18:10:34.831Z</time>
      </trkpt>
      <trkpt lat="47.89547" lon="13.1826">
        <ele>555.821642</ele>
        <time>2022-09-12T18:10:43.038Z</time>
      </trkpt>
      <trkpt lat="47.89536" lon="13.1828">
        <ele>555.971085</ele>
        <time>2022-09-12T18:10:48.427Z</time>
      </trkpt>
      <trkpt lat="47.89511" lon="13.18249">
        <ele>556.24907</ele>
        <time>2022-09-12T18:10:58.048Z</time>
      </trkpt>
      <trkpt lat="47.89474" lon="13.182">
        <ele>556.56588</ele>
        <time>2022-09-12T18:11:12.248Z</time>
      </trkpt>
      <trkpt lat="47.89409" lon="13.18137">
        <ele>556.72962</ele>
        <time>2022-09-12T18:11:34.232Z</time>
      </trkpt>
      <trkpt lat="47.89369" lon="13.18109">
        <ele>556.822531</ele>
        <time>2022-09-12T18:11:46.844Z</time>
      </trkpt>
      <trkpt lat="47.8933" lon="13.18086">
        <ele>556.914235</ele>
        <time>2022-09-12T18:11:58.935Z</time>
      </trkpt>
      <trkpt lat="47.89257" lon="13.18046">
        <ele>557.41549</ele>
        <time>2022-09-12T18:12:22.099Z</time>
      </trkpt>
      <trkpt lat="47.89229" lon="13.18022">
        <ele>557.629519</ele>
        <time>2022-09-12T18:12:32.385Z</time>
      </trkpt>
      <trkpt lat="47.89164" lon="13.17961">
        <ele>558.178893</ele>
        <time>2022-09-12T18:12:56.668Z</time>
      </trkpt>
      <trkpt lat="47.89092" lon="13.17883">
        <ele>559.436317</ele>
        <time>2022-09-12T18:13:26.447Z</time>
      </trkpt>
      <trkpt lat="47.89055" lon="13.17846">
        <ele>560.055616</ele>
        <time>2022-09-12T18:13:41.851Z</time>
      </trkpt>
      <trkpt lat="47.89001" lon="13.1781">
        <ele>561.165484</ele>
        <time>2022-09-12T18:14:03.588Z</time>
      </trkpt>
      <trkpt lat="47.88847" lon="13.17744">
        <ele>565.551305</ele>
        <time>2022-09-12T18:15:09.076Z</time>
      </trkpt>
      <trkpt lat="47.88843" lon="13.1776">
        <ele>566.104456</ele>
        <time>2022-09-12T18:15:14.809Z</time>
      </trkpt>
      <trkpt lat="47.8883" lon="13.17771">
        <ele>566.774849</ele>
        <time>2022-09-12T18:15:21.271Z</time>
      </trkpt>
      <trkpt lat="47.88814" lon="13.17754">
        <ele>567.705048</ele>
        <time>2022-09-12T18:15:30.892Z</time>
      </trkpt>
      <trkpt lat="47.88789" lon="13.17722">
        <ele>569.271372</ele>
        <time>2022-09-12T18:15:47.267Z</time>
      </trkpt>
      <trkpt lat="47.8878" lon="13.17724">
        <ele>569.715436</ele>
        <time>2022-09-12T18:15:52.215Z</time>
      </trkpt>
      <trkpt lat="47.88757" lon="13.17741">
        <ele>570.934134</ele>
        <time>2022-09-12T18:16:05.500Z</time>
      </trkpt>
      <trkpt lat="47.88753" lon="13.17744">
        <ele>571.13337</ele>
        <time>2022-09-12T18:16:07.856Z</time>
      </trkpt>
      <trkpt lat="47.88712" lon="13.17723">
        <ele>573.186248</ele>
        <time>2022-09-12T18:16:32.048Z</time>
      </trkpt>
      <trkpt lat="47.88591" lon="13.17696">
        <ele>578.907493</ele>
        <time>2022-09-12T18:17:37.670Z</time>
      </trkpt>
      <trkpt lat="47.88576" lon="13.17692">
        <ele>579.648804</ele>
        <time>2022-09-12T18:17:46.178Z</time>
      </trkpt>
      <trkpt lat="47.88555" lon="13.17699">
        <ele>580.653399</ele>
        <time>2022-09-12T18:17:56.181Z</time>
      </trkpt>
      <trkpt lat="47.88541" lon="13.17733">
        <ele>581.924071</ele>
        <time>2022-09-12T18:18:08.873Z</time>
      </trkpt>
      <trkpt lat="47.88478" lon="13.17671">
        <ele>583.074921</ele>
        <time>2022-09-12T18:18:39.017Z</time>
      </trkpt>
      <trkpt lat="47.88281" lon="13.17418">
        <ele>583.743478</ele>
        <time>2022-09-12T18:19:49.130Z</time>
      </trkpt>
      <trkpt lat="47.88205" lon="13.1736">
        <ele>583.200876</ele>
        <time>2022-09-12T18:20:09.983Z</time>
      </trkpt>
      <trkpt lat="47.88198" lon="13.17349">
        <ele>583.11655</ele>
        <time>2022-09-12T18:20:12.712Z</time>
      </trkpt>
      <trkpt lat="47.88177" lon="13.17256">
        <ele>582.553392</ele>
        <time>2022-09-12T18:20:29.324Z</time>
      </trkpt>
      <trkpt lat="47.88133" lon="13.17204">
        <ele>582.046653</ele>
        <time>2022-09-12T18:20:42.404Z</time>
      </trkpt>
      <trkpt lat="47.88102" lon="13.17146">
        <ele>581.076598</ele>
        <time>2022-09-12T18:20:53.554Z</time>
      </trkpt>
      <trkpt lat="47.88078" lon="13.17086">
        <ele>580.162709</ele>
        <time>2022-09-12T18:21:03.646Z</time>
      </trkpt>
      <trkpt lat="47.8806" lon="13.16945">
        <ele>578.123597</ele>
        <time>2022-09-12T18:21:23.386Z</time>
      </trkpt>
      <trkpt lat="47.88042" lon="13.16839">
        <ele>575.943454</ele>
        <time>2022-09-12T18:21:37.769Z</time>
      </trkpt>
      <trkpt lat="47.8802" lon="13.16742">
        <ele>573.920352</ele>
        <time>2022-09-12T18:21:51.156Z</time>
      </trkpt>
      <trkpt lat="47.87986" lon="13.16639">
        <ele>571.697277</ele>
        <time>2022-09-12T18:22:06.466Z</time>
      </trkpt>
      <trkpt lat="47.87907" lon="13.16457">
        <ele>567.568535</ele>
        <time>2022-09-12T18:22:35.683Z</time>
      </trkpt>
      <trkpt lat="47.87892" lon="13.16432">
        <ele>566.940396</ele>
        <time>2022-09-12T18:22:40.084Z</time>
      </trkpt>
      <trkpt lat="47.87844" lon="13.16341">
        <ele>564.752063</ele>
        <time>2022-09-12T18:22:55.420Z</time>
      </trkpt>
      <trkpt lat="47.87835" lon="13.16333">
        <ele>564.461413</ele>
        <time>2022-09-12T18:22:57.416Z</time>
      </trkpt>
      <trkpt lat="47.87777" lon="13.16189">
        <ele>562.153846</ele>
        <time>2022-09-12T18:23:20.299Z</time>
      </trkpt>
      <trkpt lat="47.87755" lon="13.16133">
        <ele>561.520309</ele>
        <time>2022-09-12T18:23:29.924Z</time>
      </trkpt>
      <trkpt lat="47.87762" lon="13.16128">
        <ele>561.399204</ele>
        <time>2022-09-12T18:23:31.885Z</time>
      </trkpt>
      <trkpt lat="47.87758" lon="13.16115">
        <ele>561.261712</ele>
        <time>2022-09-12T18:23:34.138Z</time>
      </trkpt>
      <trkpt lat="47.87766" lon="13.16108">
        <ele>561.121598</ele>
        <time>2022-09-12T18:23:36.445Z</time>
      </trkpt>
      <trkpt lat="47.87694" lon="13.15915">
        <ele>560.595071</ele>
        <time>2022-09-12T18:24:14.743Z</time>
      </trkpt>
      <trkpt lat="47.87651" lon="13.15816">
        <ele>560.710131</ele>
        <time>2022-09-12T18:24:38.069Z</time>
      </trkpt>
      <trkpt lat="47.87556" lon="13.15641">
        <ele>561.595688</ele>
        <time>2022-09-12T18:25:23.240Z</time>
      </trkpt>
      <trkpt lat="47.87509" lon="13.1554">
        <ele>561.850094</ele>
        <time>2022-09-12T18:25:46.994Z</time>
      </trkpt>
      <trkpt lat="47.87452" lon="13.15367">
        <ele>562.057264</ele>
        <time>2022-09-12T18:26:21.569Z</time>
      </trkpt>
      <trkpt lat="47.87409" lon="13.15252">
        <ele>562.045877</ele>
        <time>2022-09-12T18:26:44.643Z</time>
      </trkpt>
      <trkpt lat="47.87353" lon="13.15137">
        <ele>562.030727</ele>
        <time>2022-09-12T18:27:10.379Z</time>
      </trkpt>
      <trkpt lat="47.87333" lon="13.15089">
        <ele>562.01316</ele>
        <time>2022-09-12T18:27:20.754Z</time>
      </trkpt>
      <trkpt lat="47.87324" lon="13.15079">
        <ele>562.007938</ele>
        <time>2022-09-12T18:27:23.750Z</time>
      </trkpt>
      <trkpt lat="47.87301" lon="13.15029">
        <ele>561.988999</ele>
        <time>2022-09-12T18:27:34.901Z</time>
      </trkpt>
      <trkpt lat="47.87266" lon="13.14961">
        <ele>561.962205</ele>
        <time>2022-09-12T18:27:50.309Z</time>
      </trkpt>
      <trkpt lat="47.87222" lon="13.1483">
        <ele>560.862002</ele>
        <time>2022-09-12T18:28:14.294Z</time>
      </trkpt>
      <trkpt lat="47.87211" lon="13.14777">
        <ele>560.305411</ele>
        <time>2022-09-12T18:28:22.451Z</time>
      </trkpt>
      <trkpt lat="47.87206" lon="13.14669">
        <ele>559.191313</ele>
        <time>2022-09-12T18:28:37.360Z</time>
      </trkpt>
      <trkpt lat="47.87199" lon="13.14632">
        <ele>558.52727</ele>
        <time>2022-09-12T18:28:42.449Z</time>
      </trkpt>
      <trkpt lat="47.87183" lon="13.14567">
        <ele>557.313387</ele>
        <time>2022-09-12T18:28:51.843Z</time>
      </trkpt>
      <trkpt lat="47.87181" lon="13.1456">
        <ele>557.178446</ele>
        <time>2022-09-12T18:28:52.855Z</time>
      </trkpt>
      <trkpt lat="47.87154" lon="13.14471">
        <ele>555.48279</ele>
        <time>2022-09-12T18:29:05.818Z</time>
      </trkpt>
      <trkpt lat="47.87134" lon="13.14397">
        <ele>554.385498</ele>
        <time>2022-09-12T18:29:16.812Z</time>
      </trkpt>
      <trkpt lat="47.87128" lon="13.14377">
        <ele>554.217867</ele>
        <time>2022-09-12T18:29:20.010Z</time>
      </trkpt>
      <trkpt lat="47.87102" lon="13.14286">
        <ele>553.454827</ele>
        <time>2022-09-12T18:29:35.592Z</time>
      </trkpt>
      <trkpt lat="47.87056" lon="13.14116">
        <ele>551.612847</ele>
        <time>2022-09-12T18:30:05.410Z</time>
      </trkpt>
      <trkpt lat="47.87049" lon="13.14091">
        <ele>551.244138</ele>
        <time>2022-09-12T18:30:09.307Z</time>
      </trkpt>
      <trkpt lat="47.87047" lon="13.14083">
        <ele>551.120974</ele>
        <time>2022-09-12T18:30:10.618Z</time>
      </trkpt>
      <trkpt lat="47.87044" lon="13.14069">
        <ele>550.904495</ele>
        <time>2022-09-12T18:30:12.869Z</time>
      </trkpt>
      <trkpt lat="47.87041" lon="13.1406">
        <ele>550.762964</ele>
        <time>2022-09-12T18:30:14.310Z</time>
      </trkpt>
      <trkpt lat="47.8704" lon="13.14053">
        <ele>550.659932</ele>
        <time>2022-09-12T18:30:15.363Z</time>
      </trkpt>
      <trkpt lat="47.87023" lon="13.13983">
        <ele>549.615634</ele>
        <time>2022-09-12T18:30:25.666Z</time>
      </trkpt>
      <trkpt lat="47.86991" lon="13.13829">
        <ele>546.346528</ele>
        <time>2022-09-12T18:30:45.955Z</time>
      </trkpt>
      <trkpt lat="47.86994" lon="13.13775">
        <ele>545.039398</ele>
        <time>2022-09-12T18:30:52.647Z</time>
      </trkpt>
      <trkpt lat="47.87011" lon="13.1371">
        <ele>543.35762</ele>
        <time>2022-09-12T18:31:01.470Z</time>
      </trkpt>
      <trkpt lat="47.87015" lon="13.13669">
        <ele>542.344558</ele>
        <time>2022-09-12T18:31:07.095Z</time>
      </trkpt>
      <trkpt lat="47.87013" lon="13.13637">
        <ele>542.37134</ele>
        <time>2022-09-12T18:31:11.725Z</time>
      </trkpt>
      <trkpt lat="47.87002" lon="13.136">
        <ele>542.427598</ele>
        <time>2022-09-12T18:31:17.798Z</time>
      </trkpt>
      <trkpt lat="47.86987" lon="13.13577">
        <ele>542.473064</ele>
        <time>2022-09-12T18:31:22.884Z</time>
      </trkpt>
      <trkpt lat="47.86963" lon="13.13559">
        <ele>542.529973</ele>
        <time>2022-09-12T18:31:30.494Z</time>
      </trkpt>
      <trkpt lat="47.86945" lon="13.13546">
        <ele>542.571552</ele>
        <time>2022-09-12T18:31:36.711Z</time>
      </trkpt>
      <trkpt lat="47.86916" lon="13.13523">
        <ele>542.640278</ele>
        <time>2022-09-12T18:31:48.039Z</time>
      </trkpt>
      <trkpt lat="47.86844" lon="13.13435">
        <ele>544.331125</ele>
        <time>2022-09-12T18:32:25.211Z</time>
      </trkpt>
      <trkpt lat="47.86816" lon="13.13398">
        <ele>545.321673</ele>
        <time>2022-09-12T18:32:41.206Z</time>
      </trkpt>
      <trkpt lat="47.868" lon="13.13376">
        <ele>545.893433</ele>
        <time>2022-09-12T18:32:50.039Z</time>
      </trkpt>
      <trkpt lat="47.86826" lon="13.1332">
        <ele>547.079904</ele>
        <time>2022-09-12T18:33:07.495Z</time>
      </trkpt>
      <trkpt lat="47.86834" lon="13.13287">
        <ele>547.576315</ele>
        <time>2022-09-12T18:33:16.440Z</time>
      </trkpt>
      <trkpt lat="47.86846" lon="13.1326">
        <ele>547.905912</ele>
        <time>2022-09-12T18:33:24.470Z</time>
      </trkpt>
      <trkpt lat="47.86851" lon="13.13231">
        <ele>548.209486</ele>
        <time>2022-09-12T18:33:31.776Z</time>
      </trkpt>
      <trkpt lat="47.86846" lon="13.13207">
        <ele>548.455288</ele>
        <time>2022-09-12T18:33:37.504Z</time>
      </trkpt>
      <trkpt lat="47.86814" lon="13.13144">
        <ele>549.26169</ele>
        <time>2022-09-12T18:33:56.083Z</time>
      </trkpt>
      <trkpt lat="47.86797" lon="13.13098">
        <ele>549.783969</ele>
        <time>2022-09-12T18:34:07.348Z</time>
      </trkpt>
      <trkpt lat="47.8678" lon="13.13046">
        <ele>550.177418</ele>
        <time>2022-09-12T18:34:19.429Z</time>
      </trkpt>
      <trkpt lat="47.86802" lon="13.13014">
        <ele>550.287991</ele>
        <time>2022-09-12T18:34:28.643Z</time>
      </trkpt>
      <trkpt lat="47.86825" lon="13.12979">
        <ele>550.40461</ele>
        <time>2022-09-12T18:34:38.160Z</time>
      </trkpt>
      <trkpt lat="47.86846" lon="13.12948">
        <ele>550.510446</ele>
        <time>2022-09-12T18:34:46.536Z</time>
      </trkpt>
      <trkpt lat="47.86858" lon="13.12932">
        <ele>550.566299</ele>
        <time>2022-09-12T18:34:50.882Z</time>
      </trkpt>
      <trkpt lat="47.86864" lon="13.1292">
        <ele>550.6028</ele>
        <time>2022-09-12T18:34:53.598Z</time>
      </trkpt>
      <trkpt lat="47.86862" lon="13.12916">
        <ele>550.613783</ele>
        <time>2022-09-12T18:34:55.731Z</time>
      </trkpt>
      <trkpt lat="47.86846" lon="13.12889">
        <ele>550.700021</ele>
        <time>2022-09-12T18:35:02.260Z</time>
      </trkpt>
      <trkpt lat="47.86843" lon="13.12886">
        <ele>550.712145</ele>
        <time>2022-09-12T18:35:04.607Z</time>
      </trkpt>
      <trkpt lat="47.86856" lon="13.12867">
        <ele>550.782375</ele>
        <time>2022-09-12T18:35:09.126Z</time>
      </trkpt>
      <trkpt lat="47.86857" lon="13.1284">
        <ele>550.87839</ele>
        <time>2022-09-12T18:35:13.793Z</time>
      </trkpt>
      <trkpt lat="47.86843" lon="13.12836">
        <ele>550.952935</ele>
        <time>2022-09-12T18:35:17.379Z</time>
      </trkpt>
      <trkpt lat="47.86809" lon="13.12703">
        <ele>551.455124</ele>
        <time>2022-09-12T18:35:44.012Z</time>
      </trkpt>
      <trkpt lat="47.86801" lon="13.12617">
        <ele>551.970859</ele>
        <time>2022-09-12T18:36:02.980Z</time>
      </trkpt>
      <trkpt lat="47.86801" lon="13.12585">
        <ele>552.474452</ele>
        <time>2022-09-12T18:36:10.865Z</time>
      </trkpt>
      <trkpt lat="47.86812" lon="13.12576">
        <ele>552.766636</ele>
        <time>2022-09-12T18:36:15.368Z</time>
      </trkpt>
      <trkpt lat="47.86786" lon="13.12476">
        <ele>554.469668</ele>
        <time>2022-09-12T18:36:44.046Z</time>
      </trkpt>
      <trkpt lat="47.86784" lon="13.12466">
        <ele>554.633883</ele>
        <time>2022-09-12T18:36:46.893Z</time>
      </trkpt>
      <trkpt lat="47.86769" lon="13.12408">
        <ele>555.618505</ele>
        <time>2022-09-12T18:37:03.909Z</time>
      </trkpt>
      <trkpt lat="47.86768" lon="13.12405">
        <ele>555.672747</ele>
        <time>2022-09-12T18:37:04.888Z</time>
      </trkpt>
      <trkpt lat="47.86765" lon="13.12392">
        <ele>555.904113</ele>
        <time>2022-09-12T18:37:08.907Z</time>
      </trkpt>
      <trkpt lat="47.86756" lon="13.12356">
        <ele>556.137082</ele>
        <time>2022-09-12T18:37:18.970Z</time>
      </trkpt>
      <trkpt lat="47.86754" lon="13.12348">
        <ele>556.178917</ele>
        <time>2022-09-12T18:37:21.101Z</time>
      </trkpt>
      <trkpt lat="47.86753" lon="13.12342">
        <ele>556.208534</ele>
        <time>2022-09-12T18:37:22.512Z</time>
      </trkpt>
      <trkpt lat="47.86752" lon="13.12331">
        <ele>556.264098</ele>
        <time>2022-09-12T18:37:25.112Z</time>
      </trkpt>
      <trkpt lat="47.86751" lon="13.12325">
        <ele>556.299099</ele>
        <time>2022-09-12T18:37:26.679Z</time>
      </trkpt>
      <trkpt lat="47.86751" lon="13.12319">
        <ele>556.327758</ele>
        <time>2022-09-12T18:37:27.964Z</time>
      </trkpt>
      <trkpt lat="47.86748" lon="13.12297">
        <ele>556.443534</ele>
        <time>2022-09-12T18:37:33.283Z</time>
      </trkpt>
      <trkpt lat="47.86736" lon="13.12216">
        <ele>556.871677</ele>
        <time>2022-09-12T18:37:50.110Z</time>
      </trkpt>
      <trkpt lat="47.8673" lon="13.12219">
        <ele>556.923942</ele>
        <time>2022-09-12T18:37:51.819Z</time>
      </trkpt>
      <trkpt lat="47.86715" lon="13.12227">
        <ele>557.043786</ele>
        <time>2022-09-12T18:37:55.898Z</time>
      </trkpt>
      <trkpt lat="47.86707" lon="13.12231">
        <ele>557.10809</ele>
        <time>2022-09-12T18:37:57.983Z</time>
      </trkpt>
      <trkpt lat="47.86677" lon="13.12246">
        <ele>557.316641</ele>
        <time>2022-09-12T18:38:05.355Z</time>
      </trkpt>
      <trkpt lat="47.86657" lon="13.12255">
        <ele>557.119558</ele>
        <time>2022-09-12T18:38:10.086Z</time>
      </trkpt>
      <trkpt lat="47.86654" lon="13.12256">
        <ele>557.094544</ele>
        <time>2022-09-12T18:38:10.705Z</time>
      </trkpt>
      <trkpt lat="47.86601" lon="13.12292">
        <ele>556.55625</ele>
        <time>2022-09-12T18:38:23.363Z</time>
      </trkpt>
      <trkpt lat="47.8659" lon="13.12289">
        <ele>556.449603</ele>
        <time>2022-09-12T18:38:25.783Z</time>
      </trkpt>
      <trkpt lat="47.86414" lon="13.12332">
        <ele>555.994262</ele>
        <time>2022-09-12T18:39:10.264Z</time>
      </trkpt>
      <trkpt lat="47.86409" lon="13.12333">
        <ele>556.012157</ele>
        <time>2022-09-12T18:39:11.973Z</time>
      </trkpt>
      <trkpt lat="47.86351" lon="13.12346">
        <ele>556.215779</ele>
        <time>2022-09-12T18:39:31.401Z</time>
      </trkpt>
      <trkpt lat="47.86324" lon="13.12352">
        <ele>556.293755</ele>
        <time>2022-09-12T18:39:40.466Z</time>
      </trkpt>
      <trkpt lat="47.86228" lon="13.12376">
        <ele>556.295359</ele>
        <time>2022-09-12T18:40:08.873Z</time>
      </trkpt>
      <trkpt lat="47.86218" lon="13.1238">
        <ele>556.295525</ele>
        <time>2022-09-12T18:40:11.495Z</time>
      </trkpt>
      <trkpt lat="47.86153" lon="13.12398">
        <ele>556.296608</ele>
        <time>2022-09-12T18:40:26.968Z</time>
      </trkpt>
      <trkpt lat="47.86142" lon="13.124">
        <ele>556.192469</ele>
        <time>2022-09-12T18:40:29.605Z</time>
      </trkpt>
      <trkpt lat="47.86132" lon="13.12402">
        <ele>556.086887</ele>
        <time>2022-09-12T18:40:31.948Z</time>
      </trkpt>
      <trkpt lat="47.86125" lon="13.12357">
        <ele>555.771409</ele>
        <time>2022-09-12T18:40:38.783Z</time>
      </trkpt>
      <trkpt lat="47.86116" lon="13.12312">
        <ele>555.443171</ele>
        <time>2022-09-12T18:40:45.776Z</time>
      </trkpt>
      <trkpt lat="47.86107" lon="13.12274">
        <ele>555.171747</ele>
        <time>2022-09-12T18:40:51.473Z</time>
      </trkpt>
      <trkpt lat="47.85936" lon="13.11652">
        <ele>552.501689</ele>
        <time>2022-09-12T18:42:42.896Z</time>
      </trkpt>
      <trkpt lat="47.8592" lon="13.11605">
        <ele>552.28785</ele>
        <time>2022-09-12T18:42:51.702Z</time>
      </trkpt>
      <trkpt lat="47.85896" lon="13.11555">
        <ele>552.036186</ele>
        <time>2022-09-12T18:43:01.869Z</time>
      </trkpt>
      <trkpt lat="47.85841" lon="13.11478">
        <ele>551.577787</ele>
        <time>2022-09-12T18:43:19.876Z</time>
      </trkpt>
      <trkpt lat="47.85787" lon="13.11403">
        <ele>550.883568</ele>
        <time>2022-09-12T18:43:37.121Z</time>
      </trkpt>
      <trkpt lat="47.85756" lon="13.11346">
        <ele>550.401073</ele>
        <time>2022-09-12T18:43:48.519Z</time>
      </trkpt>
      <trkpt lat="47.85648" lon="13.11104">
        <ele>548.609414</ele>
        <time>2022-09-12T18:44:33.710Z</time>
      </trkpt>
      <trkpt lat="47.85596" lon="13.10994">
        <ele>547.751877</ele>
        <time>2022-09-12T18:44:55.186Z</time>
      </trkpt>
      <trkpt lat="47.85517" lon="13.10913">
        <ele>546.78306</ele>
        <time>2022-09-12T18:45:17.646Z</time>
      </trkpt>
      <trkpt lat="47.85508" lon="13.10904">
        <ele>546.670021</ele>
        <time>2022-09-12T18:45:20.243Z</time>
      </trkpt>
      <trkpt lat="47.85495" lon="13.10893">
        <ele>546.519315</ele>
        <time>2022-09-12T18:45:23.633Z</time>
      </trkpt>
      <trkpt lat="47.85466" lon="13.10856">
        <ele>545.874223</ele>
        <time>2022-09-12T18:45:32.109Z</time>
      </trkpt>
      <trkpt lat="47.85458" lon="13.10854">
        <ele>545.705818</ele>
        <time>2022-09-12T18:45:33.762Z</time>
      </trkpt>
      <trkpt lat="47.85439" lon="13.10852">
        <ele>545.291663</ele>
        <time>2022-09-12T18:45:37.853Z</time>
      </trkpt>
      <trkpt lat="47.8542" lon="13.10835">
        <ele>544.815081</ele>
        <time>2022-09-12T18:45:42.618Z</time>
      </trkpt>
      <trkpt lat="47.85385" lon="13.10812">
        <ele>543.99941</ele>
        <time>2022-09-12T18:45:50.535Z</time>
      </trkpt>
      <trkpt lat="47.85329" lon="13.10785">
        <ele>542.71916</ele>
        <time>2022-09-12T18:46:02.576Z</time>
      </trkpt>
      <trkpt lat="47.85326" lon="13.10779">
        <ele>542.612091</ele>
        <time>2022-09-12T18:46:03.544Z</time>
      </trkpt>
      <trkpt lat="47.85316" lon="13.10754">
        <ele>542.075346</ele>
        <time>2022-09-12T18:46:07.363Z</time>
      </trkpt>
      <trkpt lat="47.8528" lon="13.10711">
        <ele>540.68589</ele>
        <time>2022-09-12T18:46:16.496Z</time>
      </trkpt>
      <trkpt lat="47.85267" lon="13.10684">
        <ele>540.014485</ele>
        <time>2022-09-12T18:46:20.768Z</time>
      </trkpt>
      <trkpt lat="47.85239" lon="13.10678">
        <ele>539.170965</ele>
        <time>2022-09-12T18:46:26.295Z</time>
      </trkpt>
      <trkpt lat="47.85202" lon="13.10637">
        <ele>537.765425</ele>
        <time>2022-09-12T18:46:35.419Z</time>
      </trkpt>
      <trkpt lat="47.851" lon="13.10555">
        <ele>534.863827</ele>
        <time>2022-09-12T18:46:58.653Z</time>
      </trkpt>
      <trkpt lat="47.85018" lon="13.10492">
        <ele>532.726159</ele>
        <time>2022-09-12T18:47:18.089Z</time>
      </trkpt>
      <trkpt lat="47.84988" lon="13.10452">
        <ele>532.154464</ele>
        <time>2022-09-12T18:47:27.118Z</time>
      </trkpt>
      <trkpt lat="47.84982" lon="13.10442">
        <ele>532.018448</ele>
        <time>2022-09-12T18:47:29.246Z</time>
      </trkpt>
      <trkpt lat="47.84974" lon="13.10428">
        <ele>531.850268</ele>
        <time>2022-09-12T18:47:31.888Z</time>
      </trkpt>
      <trkpt lat="47.84971" lon="13.10425">
        <ele>531.796084</ele>
        <time>2022-09-12T18:47:32.733Z</time>
      </trkpt>
      <trkpt lat="47.84899" lon="13.10339">
        <ele>530.469023</ele>
        <time>2022-09-12T18:47:53.267Z</time>
      </trkpt>
      <trkpt lat="47.8488" lon="13.10302">
        <ele>529.998279</ele>
        <time>2022-09-12T18:48:00.211Z</time>
      </trkpt>
      <trkpt lat="47.84804" lon="13.10133">
        <ele>527.890567</ele>
        <time>2022-09-12T18:48:30.361Z</time>
      </trkpt>
      <trkpt lat="47.84777" lon="13.10085">
        <ele>527.177469</ele>
        <time>2022-09-12T18:48:39.250Z</time>
      </trkpt>
      <trkpt lat="47.84748" lon="13.10064">
        <ele>526.498924</ele>
        <time>2022-09-12T18:48:46.214Z</time>
      </trkpt>
      <trkpt lat="47.84669" lon="13.10049">
        <ele>524.823841</ele>
        <time>2022-09-12T18:49:03.344Z</time>
      </trkpt>
      <trkpt lat="47.84627" lon="13.10035">
        <ele>523.924716</ele>
        <time>2022-09-12T18:49:12.155Z</time>
      </trkpt>
      <trkpt lat="47.84605" lon="13.10018">
        <ele>523.359756</ele>
        <time>2022-09-12T18:49:16.961Z</time>
      </trkpt>
      <trkpt lat="47.8457" lon="13.09966">
        <ele>522.062573</ele>
        <time>2022-09-12T18:49:26.666Z</time>
      </trkpt>
      <trkpt lat="47.84524" lon="13.0979">
        <ele>518.864835</ele>
        <time>2022-09-12T18:49:52.129Z</time>
      </trkpt>
      <trkpt lat="47.84457" lon="13.09548">
        <ele>516.822907</ele>
        <time>2022-09-12T18:50:33.085Z</time>
      </trkpt>
      <trkpt lat="47.84432" lon="13.09489">
        <ele>516.224253</ele>
        <time>2022-09-12T18:50:45.098Z</time>
      </trkpt>
      <trkpt lat="47.844" lon="13.09434">
        <ele>515.590519</ele>
        <time>2022-09-12T18:50:56.860Z</time>
      </trkpt>
      <trkpt lat="47.84371" lon="13.09367">
        <ele>514.90316</ele>
        <time>2022-09-12T18:51:08.582Z</time>
      </trkpt>
      <trkpt lat="47.84362" lon="13.09325">
        <ele>514.463762</ele>
        <time>2022-09-12T18:51:14.578Z</time>
      </trkpt>
      <trkpt lat="47.8436" lon="13.0926">
        <ele>512.978066</ele>
        <time>2022-09-12T18:51:23.168Z</time>
      </trkpt>
      <trkpt lat="47.84368" lon="13.09214">
        <ele>511.884453</ele>
        <time>2022-09-12T18:51:29.469Z</time>
      </trkpt>
      <trkpt lat="47.84395" lon="13.09121">
        <ele>509.582516</ele>
        <time>2022-09-12T18:51:42.240Z</time>
      </trkpt>
      <trkpt lat="47.84397" lon="13.09112">
        <ele>509.37297</ele>
        <time>2022-09-12T18:51:43.355Z</time>
      </trkpt>
      <trkpt lat="47.84437" lon="13.0897">
        <ele>506.256219</ele>
        <time>2022-09-12T18:52:03.194Z</time>
      </trkpt>
      <trkpt lat="47.84466" lon="13.08905">
        <ele>504.738212</ele>
        <time>2022-09-12T18:52:13.854Z</time>
      </trkpt>
      <trkpt lat="47.84488" lon="13.08882">
        <ele>503.966117</ele>
        <time>2022-09-12T18:52:19.805Z</time>
      </trkpt>
      <trkpt lat="47.84599" lon="13.08807">
        <ele>500.229149</ele>
        <time>2022-09-12T18:52:44.823Z</time>
      </trkpt>
      <trkpt lat="47.8464" lon="13.08752">
        <ele>498.525392</ele>
        <time>2022-09-12T18:52:55.390Z</time>
      </trkpt>
      <trkpt lat="47.84717" lon="13.0863">
        <ele>494.27109</ele>
        <time>2022-09-12T18:53:16.019Z</time>
      </trkpt>
      <trkpt lat="47.84754" lon="13.08562">
        <ele>491.935129</ele>
        <time>2022-09-12T18:53:26.924Z</time>
      </trkpt>
      <trkpt lat="47.84761" lon="13.08535">
        <ele>491.16785</ele>
        <time>2022-09-12T18:53:30.655Z</time>
      </trkpt>
      <trkpt lat="47.84768" lon="13.08448">
        <ele>489.374347</ele>
        <time>2022-09-12T18:53:42.641Z</time>
      </trkpt>
      <trkpt lat="47.84762" lon="13.084">
        <ele>488.486514</ele>
        <time>2022-09-12T18:53:49.746Z</time>
      </trkpt>
      <trkpt lat="47.84741" lon="13.08342">
        <ele>487.29874</ele>
        <time>2022-09-12T18:53:59.062Z</time>
      </trkpt>
      <trkpt lat="47.84719" lon="13.08317">
        <ele>486.561439</ele>
        <time>2022-09-12T18:54:04.790Z</time>
      </trkpt>
      <trkpt lat="47.84583" lon="13.08219">
        <ele>480.778259</ele>
        <time>2022-09-12T18:54:33.484Z</time>
      </trkpt>
      <trkpt lat="47.84565" lon="13.08209">
        <ele>479.992278</ele>
        <time>2022-09-12T18:54:36.897Z</time>
      </trkpt>
      <trkpt lat="47.84509" lon="13.082">
        <ele>477.686853</ele>
        <time>2022-09-12T18:54:47.027Z</time>
      </trkpt>
      <trkpt lat="47.84477" lon="13.08206">
        <ele>476.424124</ele>
        <time>2022-09-12T18:54:52.926Z</time>
      </trkpt>
      <trkpt lat="47.84404" lon="13.08241">
        <ele>473.397271</ele>
        <time>2022-09-12T18:55:07.411Z</time>
      </trkpt>
      <trkpt lat="47.84373" lon="13.08246">
        <ele>472.17014</ele>
        <time>2022-09-12T18:55:13.436Z</time>
      </trkpt>
      <trkpt lat="47.84338" lon="13.08242">
        <ele>470.918828</ele>
        <time>2022-09-12T18:55:20.338Z</time>
      </trkpt>
      <trkpt lat="47.84309" lon="13.08231">
        <ele>470.191088</ele>
        <time>2022-09-12T18:55:26.239Z</time>
      </trkpt>
      <trkpt lat="47.84272" lon="13.08205">
        <ele>469.177778</ele>
        <time>2022-09-12T18:55:34.516Z</time>
      </trkpt>
      <trkpt lat="47.84172" lon="13.08116">
        <ele>466.424159</ele>
        <time>2022-09-12T18:55:58.824Z</time>
      </trkpt>
      <trkpt lat="47.84122" lon="13.08075">
        <ele>465.42654</ele>
        <time>2022-09-12T18:56:11.030Z</time>
      </trkpt>
      <trkpt lat="47.83957" lon="13.07917">
        <ele>461.981199</ele>
        <time>2022-09-12T18:56:53.811Z</time>
      </trkpt>
      <trkpt lat="47.83945" lon="13.07908">
        <ele>461.739947</ele>
        <time>2022-09-12T18:56:56.762Z</time>
      </trkpt>
      <trkpt lat="47.8375" lon="13.07715">
        <ele>457.218573</ele>
        <time>2022-09-12T18:57:46.159Z</time>
      </trkpt>
      <trkpt lat="47.83715" lon="13.07688">
        <ele>456.269634</ele>
        <time>2022-09-12T18:57:54.449Z</time>
      </trkpt>
      <trkpt lat="47.83696" lon="13.07679">
        <ele>455.693249</ele>
        <time>2022-09-12T18:57:58.573Z</time>
      </trkpt>
      <trkpt lat="47.83653" lon="13.07672">
        <ele>454.429047</ele>
        <time>2022-09-12T18:58:07.556Z</time>
      </trkpt>
      <trkpt lat="47.83496" lon="13.07671">
        <ele>449.177455</ele>
        <time>2022-09-12T18:58:37.901Z</time>
      </trkpt>
      <trkpt lat="47.8335" lon="13.07671">
        <ele>443.306449</ele>
        <time>2022-09-12T18:59:04.831Z</time>
      </trkpt>
      <trkpt lat="47.83309" lon="13.0766">
        <ele>441.881924</ele>
        <time>2022-09-12T18:59:12.557Z</time>
      </trkpt>
      <trkpt lat="47.83267" lon="13.07631">
        <ele>440.265219</ele>
        <time>2022-09-12T18:59:21.545Z</time>
      </trkpt>
      <trkpt lat="47.83167" lon="13.07504">
        <ele>436.813403</ele>
        <time>2022-09-12T18:59:48.208Z</time>
      </trkpt>
      <trkpt lat="47.83143" lon="13.07462">
        <ele>436.175222</ele>
        <time>2022-09-12T18:59:56.112Z</time>
      </trkpt>
      <trkpt lat="47.8293" lon="13.06978">
        <ele>431.966304</ele>
        <time>2022-09-12T19:01:25.817Z</time>
      </trkpt>
      <trkpt lat="47.82909" lon="13.06922">
        <ele>431.642646</ele>
        <time>2022-09-12T19:01:36.688Z</time>
      </trkpt>
      <trkpt lat="47.82864" lon="13.06775">
        <ele>431.894239</ele>
        <time>2022-09-12T19:02:06.659Z</time>
      </trkpt>
      <trkpt lat="47.82804" lon="13.06521">
        <ele>432.454155</ele>
        <time>2022-09-12T19:02:59.915Z</time>
      </trkpt>
      <trkpt lat="47.82761" lon="13.0633">
        <ele>432.675143</ele>
        <time>2022-09-12T19:03:36.105Z</time>
      </trkpt>
      <trkpt lat="47.82756" lon="13.06293">
        <ele>432.664753</ele>
        <time>2022-09-12T19:03:42.765Z</time>
      </trkpt>
      <trkpt lat="47.82757" lon="13.06229">
        <ele>432.647271</ele>
        <time>2022-09-12T19:03:54.023Z</time>
      </trkpt>
      <trkpt lat="47.82764" lon="13.06156">
        <ele>432.627112</ele>
        <time>2022-09-12T19:04:07.374Z</time>
      </trkpt>
      <trkpt lat="47.82768" lon="13.06122">
        <ele>432.488226</ele>
        <time>2022-09-12T19:04:13.450Z</time>
      </trkpt>
      <trkpt lat="47.82769" lon="13.06112">
        <ele>432.437432</ele>
        <time>2022-09-12T19:04:15.143Z</time>
      </trkpt>
      <trkpt lat="47.82775" lon="13.06059">
        <ele>432.153685</ele>
        <time>2022-09-12T19:04:24.210Z</time>
      </trkpt>
      <trkpt lat="47.82776" lon="13.06042">
        <ele>432.066992</ele>
        <time>2022-09-12T19:04:26.919Z</time>
      </trkpt>
      <trkpt lat="47.82786" lon="13.05935">
        <ele>431.501232</ele>
        <time>2022-09-12T19:04:43.807Z</time>
      </trkpt>
      <trkpt lat="47.82792" lon="13.05845">
        <ele>430.807983</ele>
        <time>2022-09-12T19:04:57.560Z</time>
      </trkpt>
      <trkpt lat="47.82786" lon="13.05787">
        <ele>430.149141</ele>
        <time>2022-09-12T19:05:06.110Z</time>
      </trkpt>
      <trkpt lat="47.82773" lon="13.05733">
        <ele>429.502581</ele>
        <time>2022-09-12T19:05:14.368Z</time>
      </trkpt>
      <trkpt lat="47.82769" lon="13.05722">
        <ele>429.362387</ele>
        <time>2022-09-12T19:05:16.142Z</time>
      </trkpt>
      <trkpt lat="47.82764" lon="13.05716">
        <ele>429.256047</ele>
        <time>2022-09-12T19:05:17.443Z</time>
      </trkpt>
      <trkpt lat="47.82769" lon="13.05703">
        <ele>429.090159</ele>
        <time>2022-09-12T19:05:19.574Z</time>
      </trkpt>
      <trkpt lat="47.82757" lon="13.05691">
        <ele>428.849837</ele>
        <time>2022-09-12T19:05:22.557Z</time>
      </trkpt>
      <trkpt lat="47.82731" lon="13.0566">
        <ele>428.287099</ele>
        <time>2022-09-12T19:05:29.710Z</time>
      </trkpt>
      <trkpt lat="47.82621" lon="13.0553">
        <ele>426.131289</ele>
        <time>2022-09-12T19:06:00.530Z</time>
      </trkpt>
      <trkpt lat="47.8258" lon="13.05489">
        <ele>425.432063</ele>
        <time>2022-09-12T19:06:11.504Z</time>
      </trkpt>
      <trkpt lat="47.82563" lon="13.05465">
        <ele>425.303938</ele>
        <time>2022-09-12T19:06:16.730Z</time>
      </trkpt>
      <trkpt lat="47.82562" lon="13.05462">
        <ele>425.291657</ele>
        <time>2022-09-12T19:06:17.220Z</time>
      </trkpt>
      <trkpt lat="47.82553" lon="13.05465">
        <ele>425.241648</ele>
        <time>2022-09-12T19:06:19.240Z</time>
      </trkpt>
      <trkpt lat="47.82551" lon="13.05451">
        <ele>425.19076</ele>
        <time>2022-09-12T19:06:21.371Z</time>
      </trkpt>
      <trkpt lat="47.82599" lon="13.0543">
        <ele>424.916191</ele>
        <time>2022-09-12T19:06:33.394Z</time>
      </trkpt>
      <trkpt lat="47.82606" lon="13.05405">
        <ele>424.81869</ele>
        <time>2022-09-12T19:06:38.001Z</time>
      </trkpt>
      <trkpt lat="47.82599" lon="13.05389">
        <ele>424.749441</ele>
        <time>2022-09-12T19:06:41.482Z</time>
      </trkpt>
      <trkpt lat="47.82579" lon="13.05376">
        <ele>424.628114</ele>
        <time>2022-09-12T19:06:47.529Z</time>
      </trkpt>
      <trkpt lat="47.82578" lon="13.05375">
        <ele>424.619797</ele>
        <time>2022-09-12T19:06:47.957Z</time>
      </trkpt>
      <trkpt lat="47.82552" lon="13.05358">
        <ele>424.490839</ele>
        <time>2022-09-12T19:06:55.809Z</time>
      </trkpt>
      <trkpt lat="47.8255" lon="13.05356">
        <ele>424.496577</ele>
        <time>2022-09-12T19:06:56.372Z</time>
      </trkpt>
      <trkpt lat="47.8253" lon="13.05344">
        <ele>424.55412</ele>
        <time>2022-09-12T19:07:02.495Z</time>
      </trkpt>
      <trkpt lat="47.82516" lon="13.05335">
        <ele>424.593859</ele>
        <time>2022-09-12T19:07:06.635Z</time>
      </trkpt>
      <trkpt lat="47.82487" lon="13.05317">
        <ele>424.679145</ele>
        <time>2022-09-12T19:07:15.564Z</time>
      </trkpt>
      <trkpt lat="47.82458" lon="13.05298">
        <ele>424.762121</ele>
        <time>2022-09-12T19:07:24.151Z</time>
      </trkpt>
      <trkpt lat="47.82418" lon="13.05272">
        <ele>424.878993</ele>
        <time>2022-09-12T19:07:36.340Z</time>
      </trkpt>
      <trkpt lat="47.82403" lon="13.05262">
        <ele>424.9228</ele>
        <time>2022-09-12T19:07:41.192Z</time>
      </trkpt>
      <trkpt lat="47.82397" lon="13.05251">
        <ele>424.946983</ele>
        <time>2022-09-12T19:07:43.925Z</time>
      </trkpt>
      <trkpt lat="47.82396" lon="13.05235">
        <ele>424.965564</ele>
        <time>2022-09-12T19:07:47.202Z</time>
      </trkpt>
      <trkpt lat="47.82398" lon="13.0523">
        <ele>424.968377</ele>
        <time>2022-09-12T19:07:48.332Z</time>
      </trkpt>
      <trkpt lat="47.82386" lon="13.05227">
        <ele>424.977407</ele>
        <time>2022-09-12T19:07:52.169Z</time>
      </trkpt>
      <trkpt lat="47.82364" lon="13.0521">
        <ele>424.99548</ele>
        <time>2022-09-12T19:07:59.538Z</time>
      </trkpt>
      <trkpt lat="47.8236" lon="13.05207">
        <ele>424.99832</ele>
        <time>2022-09-12T19:08:00.681Z</time>
      </trkpt>
      <trkpt lat="47.82333" lon="13.05185">
        <ele>425.020773</ele>
        <time>2022-09-12T19:08:09.372Z</time>
      </trkpt>
      <trkpt lat="47.82275" lon="13.05135">
        <ele>425.068949</ele>
        <time>2022-09-12T19:08:27.489Z</time>
      </trkpt>
      <trkpt lat="47.82271" lon="13.05129">
        <ele>425.072958</ele>
        <time>2022-09-12T19:08:29.004Z</time>
      </trkpt>
      <trkpt lat="47.82261" lon="13.05106">
        <ele>425.086335</ele>
        <time>2022-09-12T19:08:34.054Z</time>
      </trkpt>
      <trkpt lat="47.82257" lon="13.05094">
        <ele>425.086621</ele>
        <time>2022-09-12T19:08:36.395Z</time>
      </trkpt>
      <trkpt lat="47.82255" lon="13.05084">
        <ele>425.071106</ele>
        <time>2022-09-12T19:08:38.404Z</time>
      </trkpt>
      <trkpt lat="47.82223" lon="13.04982">
        <ele>424.916634</ele>
        <time>2022-09-12T19:08:58.190Z</time>
      </trkpt>
      <trkpt lat="47.82194" lon="13.0493">
        <ele>424.823696</ele>
        <time>2022-09-12T19:09:09.867Z</time>
      </trkpt>
      <trkpt lat="47.82188" lon="13.04935">
        <ele>424.809455</ele>
        <time>2022-09-12T19:09:11.635Z</time>
      </trkpt>
      <trkpt lat="47.82171" lon="13.04917">
        <ele>424.766418</ele>
        <time>2022-09-12T19:09:17.011Z</time>
      </trkpt>
      <trkpt lat="47.82133" lon="13.04899">
        <ele>424.659545</ele>
        <time>2022-09-12T19:09:26.885Z</time>
      </trkpt>
      <trkpt lat="47.82065" lon="13.04869">
        <ele>424.409618</ele>
        <time>2022-09-12T19:09:44.652Z</time>
      </trkpt>
      <trkpt lat="47.81965" lon="13.04802">
        <ele>424.022986</ele>
        <time>2022-09-12T19:10:12.390Z</time>
      </trkpt>
      <trkpt lat="47.81882" lon="13.04746">
        <ele>423.704118</ele>
        <time>2022-09-12T19:10:35.649Z</time>
      </trkpt>
      <trkpt lat="47.8186" lon="13.04725">
        <ele>423.614331</ele>
        <time>2022-09-12T19:10:42.175Z</time>
      </trkpt>
      <trkpt lat="47.81848" lon="13.04709">
        <ele>423.555473</ele>
        <time>2022-09-12T19:10:46.446Z</time>
      </trkpt>
      <trkpt lat="47.8183" lon="13.04682">
        <ele>423.467971</ele>
        <time>2022-09-12T19:10:52.668Z</time>
      </trkpt>
      <trkpt lat="47.8178" lon="13.04573">
        <ele>422.969022</ele>
        <time>2022-09-12T19:11:14.287Z</time>
      </trkpt>
      <trkpt lat="47.81753" lon="13.04544">
        <ele>422.781429</ele>
        <time>2022-09-12T19:11:22.243Z</time>
      </trkpt>
      <trkpt lat="47.81722" lon="13.04523">
        <ele>422.592399</ele>
        <time>2022-09-12T19:11:30.319Z</time>
      </trkpt>
      <trkpt lat="47.81699" lon="13.04509">
        <ele>422.45099</ele>
        <time>2022-09-12T19:11:36.422Z</time>
      </trkpt>
      <trkpt lat="47.81695" lon="13.04506">
        <ele>422.442804</ele>
        <time>2022-09-12T19:11:37.581Z</time>
      </trkpt>
      <trkpt lat="47.81683" lon="13.04498">
        <ele>422.444998</ele>
        <time>2022-09-12T19:11:40.922Z</time>
      </trkpt>
      <trkpt lat="47.81716" lon="13.04436">
        <ele>422.453855</ele>
        <time>2022-09-12T19:11:54.309Z</time>
      </trkpt>
      <trkpt lat="47.81588" lon="13.04308">
        <ele>422.544171</ele>
        <time>2022-09-12T19:12:37.720Z</time>
      </trkpt>
      <trkpt lat="47.81527" lon="13.04256">
        <ele>422.66154</ele>
        <time>2022-09-12T19:12:58.404Z</time>
      </trkpt>
      <trkpt lat="47.81472" lon="13.04227">
        <ele>422.757768</ele>
        <time>2022-09-12T19:13:13.524Z</time>
      </trkpt>
      <trkpt lat="47.81463" lon="13.04223">
        <ele>422.747922</ele>
        <time>2022-09-12T19:13:15.788Z</time>
      </trkpt>
      <trkpt lat="47.81415" lon="13.04205">
        <ele>422.253658</ele>
        <time>2022-09-12T19:13:27.776Z</time>
      </trkpt>
      <trkpt lat="47.81416" lon="13.04202">
        <ele>422.227362</ele>
        <time>2022-09-12T19:13:28.382Z</time>
      </trkpt>
      <trkpt lat="47.8142" lon="13.04173">
        <ele>422.033141</ele>
        <time>2022-09-12T19:13:32.975Z</time>
      </trkpt>
      <trkpt lat="47.8142" lon="13.04152">
        <ele>421.888252</ele>
        <time>2022-09-12T19:13:36.333Z</time>
      </trkpt>
      <trkpt lat="47.81421" lon="13.04109">
        <ele>421.601195</ele>
        <time>2022-09-12T19:13:42.893Z</time>
      </trkpt>
      <trkpt lat="47.81421" lon="13.04066">
        <ele>421.307403</ele>
        <time>2022-09-12T19:13:49.432Z</time>
      </trkpt>
      <trkpt lat="47.81422" lon="13.03997">
        <ele>420.853582</ele>
        <time>2022-09-12T19:13:59.342Z</time>
      </trkpt>
      <trkpt lat="47.81423" lon="13.03908">
        <ele>420.280353</ele>
        <time>2022-09-12T19:14:12.587Z</time>
      </trkpt>
      <trkpt lat="47.81423" lon="13.03899">
        <ele>420.220719</ele>
        <time>2022-09-12T19:14:14.021Z</time>
      </trkpt>
      <trkpt lat="47.81423" lon="13.03847">
        <ele>419.891139</ele>
        <time>2022-09-12T19:14:22.154Z</time>
      </trkpt>
      <trkpt lat="47.81424" lon="13.03786">
        <ele>419.50004</ele>
        <time>2022-09-12T19:14:32.333Z</time>
      </trkpt>
      <trkpt lat="47.81423" lon="13.03741">
        <ele>419.239462</ele>
        <time>2022-09-12T19:14:39.990Z</time>
      </trkpt>
      <trkpt lat="47.81313" lon="13.03745">
        <ele>419.005467</ele>
        <time>2022-09-12T19:15:08.145Z</time>
      </trkpt>
      <trkpt lat="47.81213" lon="13.03746">
        <ele>418.852652</ele>
        <time>2022-09-12T19:15:33.943Z</time>
      </trkpt>
      <trkpt lat="47.81178" lon="13.03745">
        <ele>418.839644</ele>
        <time>2022-09-12T19:15:43.673Z</time>
      </trkpt>
      <trkpt lat="47.81165" lon="13.03746">
        <ele>418.834844</ele>
        <time>2022-09-12T19:15:47.333Z</time>
      </trkpt>
      <trkpt lat="47.81156" lon="13.03736">
        <ele>418.830714</ele>
        <time>2022-09-12T19:15:50.090Z</time>
      </trkpt>
      <trkpt lat="47.81122" lon="13.03735">
        <ele>418.818003</ele>
        <time>2022-09-12T19:15:59.260Z</time>
      </trkpt>
      <trkpt lat="47.8111" lon="13.03734">
        <ele>418.813354</ele>
        <time>2022-09-12T19:16:02.763Z</time>
      </trkpt>
      <trkpt lat="47.81088" lon="13.03732">
        <ele>418.805421</ele>
        <time>2022-09-12T19:16:08.229Z</time>
      </trkpt>
      <trkpt lat="47.81077" lon="13.0373">
        <ele>418.801045</ele>
        <time>2022-09-12T19:16:11.367Z</time>
      </trkpt>
      <trkpt lat="47.8103" lon="13.03736">
        <ele>418.88346</ele>
        <time>2022-09-12T19:16:23.598Z</time>
      </trkpt>
      <trkpt lat="47.81012" lon="13.03737">
        <ele>418.921416</ele>
        <time>2022-09-12T19:16:27.979Z</time>
      </trkpt>
      <trkpt lat="47.80887" lon="13.03745">
        <ele>419.196606</ele>
        <time>2022-09-12T19:17:04.079Z</time>
      </trkpt>
      <trkpt lat="47.80878" lon="13.03742">
        <ele>419.242946</ele>
        <time>2022-09-12T19:17:06.573Z</time>
      </trkpt>
      <trkpt lat="47.80857" lon="13.03746">
        <ele>419.343216</ele>
        <time>2022-09-12T19:17:12.327Z</time>
      </trkpt>
      <trkpt lat="47.80688" lon="13.03789">
        <ele>420.261868</ele>
        <time>2022-09-12T19:18:02.398Z</time>
      </trkpt>
      <trkpt lat="47.80583" lon="13.03828">
        <ele>421.177645</ele>
        <time>2022-09-12T19:18:36.046Z</time>
      </trkpt>
      <trkpt lat="47.8053" lon="13.03855">
        <ele>421.641542</ele>
        <time>2022-09-12T19:18:53.433Z</time>
      </trkpt>
      <trkpt lat="47.80524" lon="13.03858">
        <ele>421.687937</ele>
        <time>2022-09-12T19:18:55.592Z</time>
      </trkpt>
      <trkpt lat="47.80515" lon="13.03812">
        <ele>421.910224</ele>
        <time>2022-09-12T19:19:05.394Z</time>
      </trkpt>
      <trkpt lat="47.80498" lon="13.03724">
        <ele>422.332177</ele>
        <time>2022-09-12T19:19:23.745Z</time>
      </trkpt>
      <trkpt lat="47.80495" lon="13.03715">
        <ele>422.37856</ele>
        <time>2022-09-12T19:19:26.652Z</time>
      </trkpt>
      <trkpt lat="47.80494" lon="13.03709">
        <ele>422.405038</ele>
        <time>2022-09-12T19:19:28.094Z</time>
      </trkpt>
      <trkpt lat="47.80524" lon="13.03692">
        <ele>422.626109</ele>
        <time>2022-09-12T19:19:37.574Z</time>
      </trkpt>
      <trkpt lat="47.80615" lon="13.03635">
        <ele>422.454659</ele>
        <time>2022-09-12T19:20:05.166Z</time>
      </trkpt>
      <trkpt lat="47.80715" lon="13.03587">
        <ele>421.923753</ele>
        <time>2022-09-12T19:20:28.997Z</time>
      </trkpt>
      <trkpt lat="47.80757" lon="13.03572">
        <ele>421.978164</ele>
        <time>2022-09-12T19:20:38.810Z</time>
      </trkpt>
      <trkpt lat="47.80834" lon="13.03541">
        <ele>422.129605</ele>
        <time>2022-09-12T19:21:00.975Z</time>
      </trkpt>
      <trkpt lat="47.8084" lon="13.03538">
        <ele>422.139816</ele>
        <time>2022-09-12T19:21:02.715Z</time>
      </trkpt>
      <trkpt lat="47.80841" lon="13.03538">
        <ele>422.1419</ele>
        <time>2022-09-12T19:21:03.063Z</time>
      </trkpt>
      <trkpt lat="47.80847" lon="13.03537">
        <ele>422.154705</ele>
        <time>2022-09-12T19:21:05.176Z</time>
      </trkpt>
      <trkpt lat="47.8085" lon="13.03537">
        <ele>422.159878</ele>
        <time>2022-09-12T19:21:06.035Z</time>
      </trkpt>
      <trkpt lat="47.80861" lon="13.03534">
        <ele>422.180758</ele>
        <time>2022-09-12T19:21:09.046Z</time>
      </trkpt>
      <trkpt lat="47.80863" lon="13.03534">
        <ele>422.18399</ele>
        <time>2022-09-12T19:21:09.540Z</time>
      </trkpt>
      <trkpt lat="47.80857" lon="13.03416">
        <ele>423.094979</ele>
        <time>2022-09-12T19:21:36.822Z</time>
      </trkpt>
      <trkpt lat="47.80851" lon="13.03339">
        <ele>424.025444</ele>
        <time>2022-09-12T19:21:55.723Z</time>
      </trkpt>
      <trkpt lat="47.8085" lon="13.03332">
        <ele>424.113509</ele>
        <time>2022-09-12T19:21:57.448Z</time>
      </trkpt>
      <trkpt lat="47.80855" lon="13.03328">
        <ele>424.219303</ele>
        <time>2022-09-12T19:21:59.271Z</time>
      </trkpt>
      <trkpt lat="47.80845" lon="13.03306">
        <ele>424.532719</ele>
        <time>2022-09-12T19:22:06.726Z</time>
      </trkpt>
      <trkpt lat="47.80842" lon="13.03254">
        <ele>425.151929</ele>
        <time>2022-09-12T19:22:20.074Z</time>
      </trkpt>
      <trkpt lat="47.80839" lon="13.03218">
        <ele>425.467211</ele>
        <time>2022-09-12T19:22:28.527Z</time>
      </trkpt>
      <trkpt lat="47.80835" lon="13.03156">
        <ele>425.537727</ele>
        <time>2022-09-12T19:22:41.330Z</time>
      </trkpt>
      <trkpt lat="47.80834" lon="13.03115">
        <ele>425.583845</ele>
        <time>2022-09-12T19:22:48.670Z</time>
      </trkpt>
      <trkpt lat="47.80835" lon="13.03102">
        <ele>425.599337</ele>
        <time>2022-09-12T19:22:51.087Z</time>
      </trkpt>
      <trkpt lat="47.80828" lon="13.03091">
        <ele>425.616301</ele>
        <time>2022-09-12T19:22:53.739Z</time>
      </trkpt>
      <trkpt lat="47.80821" lon="13.03017">
        <ele>425.701403</ele>
        <time>2022-09-12T19:23:05.804Z</time>
      </trkpt>
      <trkpt lat="47.80827" lon="13.02991">
        <ele>425.732575</ele>
        <time>2022-09-12T19:23:10.244Z</time>
      </trkpt>
      <trkpt lat="47.80821" lon="13.02919">
        <ele>425.76091</ele>
        <time>2022-09-12T19:23:22.103Z</time>
      </trkpt>
      <trkpt lat="47.80819" lon="13.02886">
        <ele>425.762976</ele>
        <time>2022-09-12T19:23:28.046Z</time>
      </trkpt>
      <trkpt lat="47.80818" lon="13.02867">
        <ele>425.764143</ele>
        <time>2022-09-12T19:23:31.470Z</time>
      </trkpt>
      <trkpt lat="47.80801" lon="13.02698">
        <ele>425.765794</ele>
        <time>2022-09-12T19:24:03.835Z</time>
      </trkpt>
      <trkpt lat="47.808" lon="13.02644">
        <ele>425.680092</ele>
        <time>2022-09-12T19:24:13.857Z</time>
      </trkpt>
      <trkpt lat="47.80804" lon="13.02499">
        <ele>425.446882</ele>
        <time>2022-09-12T19:24:40.076Z</time>
      </trkpt>
      <trkpt lat="47.80805" lon="13.02476">
        <ele>425.411338</ele>
        <time>2022-09-12T19:24:43.594Z</time>
      </trkpt>
      <trkpt lat="47.80828" lon="13.02327">
        <ele>424.168865</ele>
        <time>2022-09-12T19:25:06.744Z</time>
      </trkpt>
      <trkpt lat="47.80827" lon="13.02301">
        <ele>423.89929</ele>
        <time>2022-09-12T19:25:10.471Z</time>
      </trkpt>
      <trkpt lat="47.80842" lon="13.02239">
        <ele>423.208038</ele>
        <time>2022-09-12T19:25:19.766Z</time>
      </trkpt>
      <trkpt lat="47.80844" lon="13.02232">
        <ele>423.134698</ele>
        <time>2022-09-12T19:25:20.757Z</time>
      </trkpt>
      <trkpt lat="47.80853" lon="13.02198">
        <ele>422.749967</ele>
        <time>2022-09-12T19:25:26.067Z</time>
      </trkpt>
      <trkpt lat="47.80867" lon="13.02158">
        <ele>422.350882</ele>
        <time>2022-09-12T19:25:32.628Z</time>
      </trkpt>
      <trkpt lat="47.80886" lon="13.02119">
        <ele>421.971753</ele>
        <time>2022-09-12T19:25:39.846Z</time>
      </trkpt>
      <trkpt lat="47.80895" lon="13.02102">
        <ele>421.812418</ele>
        <time>2022-09-12T19:25:42.884Z</time>
      </trkpt>
      <trkpt lat="47.80902" lon="13.02101">
        <ele>421.729864</ele>
        <time>2022-09-12T19:25:44.462Z</time>
      </trkpt>
      <trkpt lat="47.80905" lon="13.02095">
        <ele>421.669901</ele>
        <time>2022-09-12T19:25:45.634Z</time>
      </trkpt>
      <trkpt lat="47.80906" lon="13.02091">
        <ele>421.635077</ele>
        <time>2022-09-12T19:25:46.323Z</time>
      </trkpt>
      <trkpt lat="47.80914" lon="13.02075">
        <ele>421.480992</ele>
        <time>2022-09-12T19:25:49.309Z</time>
      </trkpt>
      <trkpt lat="47.80918" lon="13.02069">
        <ele>421.415395</ele>
        <time>2022-09-12T19:25:50.645Z</time>
      </trkpt>
      <trkpt lat="47.80933" lon="13.0207">
        <ele>421.248914</ele>
        <time>2022-09-12T19:25:54.133Z</time>
      </trkpt>
      <trkpt lat="47.80936" lon="13.02071">
        <ele>421.203291</ele>
        <time>2022-09-12T19:25:55.104Z</time>
      </trkpt>
      <trkpt lat="47.80936" lon="13.02079">
        <ele>421.144994</ele>
        <time>2022-09-12T19:25:56.345Z</time>
      </trkpt>
      <trkpt lat="47.80937" lon="13.02081">
        <ele>421.127583</ele>
        <time>2022-09-12T19:25:56.701Z</time>
      </trkpt>
      <trkpt lat="47.80938" lon="13.02079">
        <ele>421.111828</ele>
        <time>2022-09-12T19:25:57.009Z</time>
      </trkpt>
      <trkpt lat="47.80942" lon="13.02075">
        <ele>421.055298</ele>
        <time>2022-09-12T19:25:58.202Z</time>
      </trkpt>
      <trkpt lat="47.80949" lon="13.02071">
        <ele>420.967515</ele>
        <time>2022-09-12T19:26:00.084Z</time>
      </trkpt>
      <trkpt lat="47.8095" lon="13.02065">
        <ele>420.920604</ele>
        <time>2022-09-12T19:26:01.098Z</time>
      </trkpt>
      <trkpt lat="47.80947" lon="13.0206">
        <ele>420.873573</ele>
        <time>2022-09-12T19:26:02.124Z</time>
      </trkpt>
      <trkpt lat="47.8095" lon="13.02042">
        <ele>420.73221</ele>
        <time>2022-09-12T19:26:05.215Z</time>
      </trkpt>
      <trkpt lat="47.80963" lon="13.0202">
        <ele>420.511293</ele>
        <time>2022-09-12T19:26:09.795Z</time>
      </trkpt>
      <trkpt lat="47.80982" lon="13.02001">
        <ele>420.537247</ele>
        <time>2022-09-12T19:26:15.505Z</time>
      </trkpt>
      <trkpt lat="47.80999" lon="13.01991">
        <ele>420.596764</ele>
        <time>2022-09-12T19:26:20.289Z</time>
      </trkpt>
      <trkpt lat="47.81022" lon="13.0199">
        <ele>420.667337</ele>
        <time>2022-09-12T19:26:26.041Z</time>
      </trkpt>
      <trkpt lat="47.81033" lon="13.01937">
        <ele>420.784778</ele>
        <time>2022-09-12T19:26:36.195Z</time>
      </trkpt>
      <trkpt lat="47.81046" lon="13.01887">
        <ele>420.898141</ele>
        <time>2022-09-12T19:26:46.961Z</time>
      </trkpt>
      <trkpt lat="47.81079" lon="13.01841">
        <ele>421.040694</ele>
        <time>2022-09-12T19:27:01.344Z</time>
      </trkpt>
      <trkpt lat="47.81101" lon="13.01812">
        <ele>421.375962</ele>
        <time>2022-09-12T19:27:11.154Z</time>
      </trkpt>
      <trkpt lat="47.81105" lon="13.0178">
        <ele>421.623015</ele>
        <time>2022-09-12T19:27:18.190Z</time>
      </trkpt>
      <trkpt lat="47.81117" lon="13.01749">
        <ele>421.894205</ele>
        <time>2022-09-12T19:27:26.199Z</time>
      </trkpt>
      <trkpt lat="47.81135" lon="13.01721">
        <ele>422.194034</ele>
        <time>2022-09-12T19:27:35.152Z</time>
      </trkpt>
      <trkpt lat="47.81183" lon="13.01646">
        <ele>422.991684</ele>
        <time>2022-09-12T19:27:58.481Z</time>
      </trkpt>
      <trkpt lat="47.81388" lon="13.0138">
        <ele>423.528982</ele>
        <time>2022-09-12T19:29:12.222Z</time>
      </trkpt>
      <trkpt lat="47.81544" lon="13.01177">
        <ele>423.485015</ele>
        <time>2022-09-12T19:30:06.866Z</time>
      </trkpt>
      <trkpt lat="47.81591" lon="13.01121">
        <ele>423.447927</ele>
        <time>2022-09-12T19:30:22.549Z</time>
      </trkpt>
      <trkpt lat="47.81643" lon="13.01051">
        <ele>423.579621</ele>
        <time>2022-09-12T19:30:41.413Z</time>
      </trkpt>
      <trkpt lat="47.81654" lon="13.01038">
        <ele>423.611398</ele>
        <time>2022-09-12T19:30:45.365Z</time>
      </trkpt>
      <trkpt lat="47.8171" lon="13.0097">
        <ele>423.776396</ele>
        <time>2022-09-12T19:31:05.447Z</time>
      </trkpt>
      <trkpt lat="47.81716" lon="13.00962">
        <ele>423.795473</ele>
        <time>2022-09-12T19:31:07.904Z</time>
      </trkpt>
      <trkpt lat="47.81746" lon="13.00924">
        <ele>423.839914</ele>
        <time>2022-09-12T19:31:19.481Z</time>
      </trkpt>
      <trkpt lat="47.81769" lon="13.00917">
        <ele>423.819792</ele>
        <time>2022-09-12T19:31:26.569Z</time>
      </trkpt>
      <trkpt lat="47.81838" lon="13.00908">
        <ele>423.761454</ele>
        <time>2022-09-12T19:31:45.996Z</time>
      </trkpt>
      <trkpt lat="47.81846" lon="13.00907">
        <ele>423.754635</ele>
        <time>2022-09-12T19:31:48.082Z</time>
      </trkpt>
      <trkpt lat="47.81885" lon="13.00896">
        <ele>423.72094</ele>
        <time>2022-09-12T19:31:57.840Z</time>
      </trkpt>
      <trkpt lat="47.81906" lon="13.00888">
        <ele>423.702138</ele>
        <time>2022-09-12T19:32:03.083Z</time>
      </trkpt>
      <trkpt lat="47.81911" lon="13.00886">
        <ele>423.680202</ele>
        <time>2022-09-12T19:32:04.104Z</time>
      </trkpt>
      <trkpt lat="47.81912" lon="13.00886">
        <ele>423.666711</ele>
        <time>2022-09-12T19:32:04.383Z</time>
      </trkpt>
      <trkpt lat="47.81945" lon="13.00878">
        <ele>423.270812</ele>
        <time>2022-09-12T19:32:11.946Z</time>
      </trkpt>
      <trkpt lat="47.81965" lon="13.00876">
        <ele>423.036887</ele>
        <time>2022-09-12T19:32:16.459Z</time>
      </trkpt>
      <trkpt lat="47.81974" lon="13.00876">
        <ele>422.937161</ele>
        <time>2022-09-12T19:32:18.371Z</time>
      </trkpt>
      <trkpt lat="47.8199" lon="13.00877">
        <ele>422.744642</ele>
        <time>2022-09-12T19:32:22.075Z</time>
      </trkpt>
      <trkpt lat="47.82002" lon="13.00873">
        <ele>422.596247</ele>
        <time>2022-09-12T19:32:24.998Z</time>
      </trkpt>
      <trkpt lat="47.82013" lon="13.00885">
        <ele>422.439116</ele>
        <time>2022-09-12T19:32:27.992Z</time>
      </trkpt>
      <trkpt lat="47.82022" lon="13.00895">
        <ele>422.303622</ele>
        <time>2022-09-12T19:32:30.638Z</time>
      </trkpt>
      <trkpt lat="47.82034" lon="13.00909">
        <ele>422.128136</ele>
        <time>2022-09-12T19:32:34.086Z</time>
      </trkpt>
      <trkpt lat="47.82043" lon="13.00919">
        <ele>421.994052</ele>
        <time>2022-09-12T19:32:36.640Z</time>
      </trkpt>
      <trkpt lat="47.82055" lon="13.00932">
        <ele>421.821387</ele>
        <time>2022-09-12T19:32:40.046Z</time>
      </trkpt>
      <trkpt lat="47.82063" lon="13.00941">
        <ele>421.709416</ele>
        <time>2022-09-12T19:32:42.227Z</time>
      </trkpt>
      <trkpt lat="47.82073" lon="13.00952">
        <ele>421.54885</ele>
        <time>2022-09-12T19:32:45.049Z</time>
      </trkpt>
      <trkpt lat="47.82074" lon="13.00954">
        <ele>421.514147</ele>
        <time>2022-09-12T19:32:45.526Z</time>
      </trkpt>
      <trkpt lat="47.82107" lon="13.0089">
        <ele>420.643802</ele>
        <time>2022-09-12T19:32:57.530Z</time>
      </trkpt>
      <trkpt lat="47.82123" lon="13.00851">
        <ele>420.163552</ele>
        <time>2022-09-12T19:33:03.922Z</time>
      </trkpt>
      <trkpt lat="47.82145" lon="13.00795">
        <ele>419.458659</ele>
        <time>2022-09-12T19:33:13.062Z</time>
      </trkpt>
      <trkpt lat="47.82161" lon="13.00796">
        <ele>419.206942</ele>
        <time>2022-09-12T19:33:16.446Z</time>
      </trkpt>
      <trkpt lat="47.82208" lon="13.00865">
        <ele>418.569715</ele>
        <time>2022-09-12T19:33:31.326Z</time>
      </trkpt>
      <trkpt lat="47.82236" lon="13.00905">
        <ele>418.417575</ele>
        <time>2022-09-12T19:33:40.268Z</time>
      </trkpt>
      <trkpt lat="47.82246" lon="13.00929">
        <ele>418.338674</ele>
        <time>2022-09-12T19:33:44.662Z</time>
      </trkpt>
      <trkpt lat="47.82285" lon="13.00925">
        <ele>418.187153</ele>
        <time>2022-09-12T19:33:54.350Z</time>
      </trkpt>
      <trkpt lat="47.8233" lon="13.00922">
        <ele>418.005787</ele>
        <time>2022-09-12T19:34:08.463Z</time>
      </trkpt>
      <trkpt lat="47.82368" lon="13.00925">
        <ele>418.61531</ele>
        <time>2022-09-12T19:34:20.680Z</time>
      </trkpt>
      <trkpt lat="47.82386" lon="13.00947">
        <ele>419.040011</ele>
        <time>2022-09-12T19:34:28.775Z</time>
      </trkpt>
      <trkpt lat="47.82419" lon="13.00947">
        <ele>419.617059</ele>
        <time>2022-09-12T19:34:41.531Z</time>
      </trkpt>
      <trkpt lat="47.82453" lon="13.00919">
        <ele>420.31908</ele>
        <time>2022-09-12T19:34:56.418Z</time>
      </trkpt>
      <trkpt lat="47.8246" lon="13.00915">
        <ele>420.44221</ele>
        <time>2022-09-12T19:34:59.215Z</time>
      </trkpt>
      <trkpt lat="47.82474" lon="13.00911">
        <ele>420.707174</ele>
        <time>2022-09-12T19:35:04.585Z</time>
      </trkpt>
      <trkpt lat="47.82503" lon="13.00914">
        <ele>421.200141</ele>
        <time>2022-09-12T19:35:14.689Z</time>
      </trkpt>
      <trkpt lat="47.82537" lon="13.00892">
        <ele>421.503469</ele>
        <time>2022-09-12T19:35:27.302Z</time>
      </trkpt>
      <trkpt lat="47.82568" lon="13.00895">
        <ele>421.755493</ele>
        <time>2022-09-12T19:35:37.537Z</time>
      </trkpt>
      <trkpt lat="47.82631" lon="13.00838">
        <ele>422.362098</ele>
        <time>2022-09-12T19:35:58.985Z</time>
      </trkpt>
      <trkpt lat="47.82734" lon="13.00742">
        <ele>422.676678</ele>
        <time>2022-09-12T19:36:31.447Z</time>
      </trkpt>
      <trkpt lat="47.82774" lon="13.00694">
        <ele>422.688713</ele>
        <time>2022-09-12T19:36:44.938Z</time>
      </trkpt>
      <trkpt lat="47.82818" lon="13.00629">
        <ele>422.690087</ele>
        <time>2022-09-12T19:37:01.762Z</time>
      </trkpt>
      <trkpt lat="47.8283" lon="13.00612">
        <ele>422.682428</ele>
        <time>2022-09-12T19:37:06.040Z</time>
      </trkpt>
      <trkpt lat="47.82842" lon="13.00608">
        <ele>422.676414</ele>
        <time>2022-09-12T19:37:09.418Z</time>
      </trkpt>
      <trkpt lat="47.82845" lon="13.00597">
        <ele>422.67267</ele>
        <time>2022-09-12T19:37:12.980Z</time>
      </trkpt>
      <trkpt lat="47.82855" lon="13.00603">
        <ele>422.667595</ele>
        <time>2022-09-12T19:37:17.639Z</time>
      </trkpt>
      <trkpt lat="47.82861" lon="13.00606">
        <ele>422.664652</ele>
        <time>2022-09-12T19:37:20.338Z</time>
      </trkpt>
      <trkpt lat="47.82895" lon="13.00492">
        <ele>422.624906</ele>
        <time>2022-09-12T19:37:42.525Z</time>
      </trkpt>
      <trkpt lat="47.82907" lon="13.00458">
        <ele>422.606878</ele>
        <time>2022-09-12T19:37:49.428Z</time>
      </trkpt>
      <trkpt lat="47.82915" lon="13.00435">
        <ele>422.552062</ele>
        <time>2022-09-12T19:37:54.280Z</time>
      </trkpt>
      <trkpt lat="47.82919" lon="13.00428">
        <ele>422.53488</ele>
        <time>2022-09-12T19:37:55.737Z</time>
      </trkpt>
      <trkpt lat="47.82922" lon="13.00419">
        <ele>422.513914</ele>
        <time>2022-09-12T19:37:57.508Z</time>
      </trkpt>
      <trkpt lat="47.82925" lon="13.00412">
        <ele>422.496727</ele>
        <time>2022-09-12T19:37:58.998Z</time>
      </trkpt>
      <trkpt lat="47.82947" lon="13.0036">
        <ele>422.368749</ele>
        <time>2022-09-12T19:38:09.922Z</time>
      </trkpt>
      <trkpt lat="47.82968" lon="13.00318">
        <ele>422.259912</ele>
        <time>2022-09-12T19:38:18.766Z</time>
      </trkpt>
      <trkpt lat="47.83016" lon="13.00258">
        <ele>422.068089</ele>
        <time>2022-09-12T19:38:33.863Z</time>
      </trkpt>
      <trkpt lat="47.83041" lon="13.0026">
        <ele>421.82984</ele>
        <time>2022-09-12T19:38:40.075Z</time>
      </trkpt>
      <trkpt lat="47.83043" lon="13.00253">
        <ele>421.774924</ele>
        <time>2022-09-12T19:38:41.367Z</time>
      </trkpt>
      <trkpt lat="47.83048" lon="13.00245">
        <ele>421.701663</ele>
        <time>2022-09-12T19:38:43.024Z</time>
      </trkpt>
      <trkpt lat="47.83048" lon="13.00228">
        <ele>421.582014</ele>
        <time>2022-09-12T19:38:45.894Z</time>
      </trkpt>
      <trkpt lat="47.83065" lon="13.00206">
        <ele>421.356828</ele>
        <time>2022-09-12T19:38:51.137Z</time>
      </trkpt>
      <trkpt lat="47.83081" lon="13.00189">
        <ele>421.146459</ele>
        <time>2022-09-12T19:38:56.017Z</time>
      </trkpt>
      <trkpt lat="47.83139" lon="13.00115">
        <ele>420.372398</ele>
        <time>2022-09-12T19:39:13.109Z</time>
      </trkpt>
      <trkpt lat="47.83198" lon="13.00035">
        <ele>419.247259</ele>
        <time>2022-09-12T19:39:30.757Z</time>
      </trkpt>
      <trkpt lat="47.83205" lon="13.00033">
        <ele>419.138271</ele>
        <time>2022-09-12T19:39:32.254Z</time>
      </trkpt>
      <trkpt lat="47.83211" lon="13.00027">
        <ele>419.036026</ele>
        <time>2022-09-12T19:39:33.767Z</time>
      </trkpt>
      <trkpt lat="47.83221" lon="13.0002">
        <ele>418.875792</ele>
        <time>2022-09-12T19:39:36.202Z</time>
      </trkpt>
      <trkpt lat="47.83221" lon="13.00012">
        <ele>418.801203</ele>
        <time>2022-09-12T19:39:37.322Z</time>
      </trkpt>
      <trkpt lat="47.83243" lon="12.9998">
        <ele>418.340386</ele>
        <time>2022-09-12T19:39:44.083Z</time>
      </trkpt>
      <trkpt lat="47.83257" lon="12.99961">
        <ele>418.060678</ele>
        <time>2022-09-12T19:39:48.155Z</time>
      </trkpt>
      <trkpt lat="47.83288" lon="12.99918">
        <ele>417.440903</ele>
        <time>2022-09-12T19:39:57.469Z</time>
      </trkpt>
      <trkpt lat="47.83283" lon="12.99911">
        <ele>417.356088</ele>
        <time>2022-09-12T19:39:58.895Z</time>
      </trkpt>
      <trkpt lat="47.83278" lon="12.99902">
        <ele>417.247947</ele>
        <time>2022-09-12T19:40:00.705Z</time>
      </trkpt>
      <trkpt lat="47.83275" lon="12.99898">
        <ele>417.1994</ele>
        <time>2022-09-12T19:40:01.530Z</time>
      </trkpt>
      <trkpt lat="47.83286" lon="12.99882">
        <ele>416.987685</ele>
        <time>2022-09-12T19:40:04.888Z</time>
      </trkpt>
      <trkpt lat="47.83336" lon="12.9981">
        <ele>416.060483</ele>
        <time>2022-09-12T19:40:20.264Z</time>
      </trkpt>
      <trkpt lat="47.83368" lon="12.99764">
        <ele>415.459817</ele>
        <time>2022-09-12T19:40:30.225Z</time>
      </trkpt>
      <trkpt lat="47.83377" lon="12.99713">
        <ele>414.988443</ele>
        <time>2022-09-12T19:40:38.349Z</time>
      </trkpt>
      <trkpt lat="47.83384" lon="12.99689">
        <ele>414.762231</ele>
        <time>2022-09-12T19:40:42.331Z</time>
      </trkpt>
      <trkpt lat="47.83393" lon="12.99691">
        <ele>414.638999</ele>
        <time>2022-09-12T19:40:44.487Z</time>
      </trkpt>
      <trkpt lat="47.83412" lon="12.99692">
        <ele>414.39077</ele>
        <time>2022-09-12T19:40:48.843Z</time>
      </trkpt>
      <trkpt lat="47.83431" lon="12.99667">
        <ele>414.070405</ele>
        <time>2022-09-12T19:40:54.404Z</time>
      </trkpt>
      <trkpt lat="47.8348" lon="12.99588">
        <ele>413.134826</ele>
        <time>2022-09-12T19:41:10.295Z</time>
      </trkpt>
      <trkpt lat="47.83504" lon="12.99563">
        <ele>412.790366</ele>
        <time>2022-09-12T19:41:16.926Z</time>
      </trkpt>
      <trkpt lat="47.83512" lon="12.99553">
        <ele>412.756455</ele>
        <time>2022-09-12T19:41:19.446Z</time>
      </trkpt>
      <trkpt lat="47.83516" lon="12.99549">
        <ele>412.744238</ele>
        <time>2022-09-12T19:41:21.073Z</time>
      </trkpt>
      <trkpt lat="47.83588" lon="12.99446">
        <ele>412.433734</ele>
        <time>2022-09-12T19:41:45.623Z</time>
      </trkpt>
      <trkpt lat="47.83601" lon="12.99423">
        <ele>412.369038</ele>
        <time>2022-09-12T19:41:51.030Z</time>
      </trkpt>
      <trkpt lat="47.83602" lon="12.99411">
        <ele>412.343058</ele>
        <time>2022-09-12T19:41:53.328Z</time>
      </trkpt>
      <trkpt lat="47.83799" lon="12.99127">
        <ele>413.557412</ele>
        <time>2022-09-12T19:43:15.589Z</time>
      </trkpt>
      <trkpt lat="47.83872" lon="12.98983">
        <ele>413.789991</ele>
        <time>2022-09-12T19:43:47.858Z</time>
      </trkpt>
      <trkpt lat="47.83873" lon="12.98973">
        <ele>413.797175</ele>
        <time>2022-09-12T19:43:49.293Z</time>
      </trkpt>
      <trkpt lat="47.83859" lon="12.98941">
        <ele>413.823725</ele>
        <time>2022-09-12T19:43:56.191Z</time>
      </trkpt>
      <trkpt lat="47.83825" lon="12.98894">
        <ele>413.872262</ele>
        <time>2022-09-12T19:44:07.996Z</time>
      </trkpt>
      <trkpt lat="47.8381" lon="12.98797">
        <ele>413.941902</ele>
        <time>2022-09-12T19:44:26.998Z</time>
      </trkpt>
      <trkpt lat="47.83791" lon="12.98768">
        <ele>413.969336</ele>
        <time>2022-09-12T19:44:34.747Z</time>
      </trkpt>
      <trkpt lat="47.83813" lon="12.98731">
        <ele>414.043697</ele>
        <time>2022-09-12T19:44:44.476Z</time>
      </trkpt>
      <trkpt lat="47.83845" lon="12.98752">
        <ele>414.132008</ele>
        <time>2022-09-12T19:44:54.591Z</time>
      </trkpt>
      <trkpt lat="47.83886" lon="12.98738">
        <ele>414.235721</ele>
        <time>2022-09-12T19:45:06.113Z</time>
      </trkpt>
      <trkpt lat="47.83917" lon="12.98752">
        <ele>414.317639</ele>
        <time>2022-09-12T19:45:14.980Z</time>
      </trkpt>
      <trkpt lat="47.83942" lon="12.98774">
        <ele>414.391065</ele>
        <time>2022-09-12T19:45:22.990Z</time>
      </trkpt>
      <trkpt lat="47.83951" lon="12.98777">
        <ele>414.41341</ele>
        <time>2022-09-12T19:45:25.449Z</time>
      </trkpt>
      <trkpt lat="47.83964" lon="12.98768">
        <ele>414.490414</ele>
        <time>2022-09-12T19:45:29.008Z</time>
      </trkpt>
      <trkpt lat="47.83975" lon="12.98742">
        <ele>414.629896</ele>
        <time>2022-09-12T19:45:34.419Z</time>
      </trkpt>
      <trkpt lat="47.83978" lon="12.98732">
        <ele>414.681327</ele>
        <time>2022-09-12T19:45:36.376Z</time>
      </trkpt>
      <trkpt lat="47.84009" lon="12.98628">
        <ele>415.204405</ele>
        <time>2022-09-12T19:46:11.377Z</time>
      </trkpt>
      <trkpt lat="47.84024" lon="12.98607">
        <ele>415.344048</ele>
        <time>2022-09-12T19:46:18.090Z</time>
      </trkpt>
      <trkpt lat="47.84032" lon="12.98576">
        <ele>415.49653</ele>
        <time>2022-09-12T19:46:25.227Z</time>
      </trkpt>
      <trkpt lat="47.84039" lon="12.98552">
        <ele>415.617586</ele>
        <time>2022-09-12T19:46:31.404Z</time>
      </trkpt>
      <trkpt lat="47.84055" lon="12.98479">
        <ele>416.66456</ele>
        <time>2022-09-12T19:46:49.754Z</time>
      </trkpt>
      <trkpt lat="47.84061" lon="12.98449">
        <ele>417.128658</ele>
        <time>2022-09-12T19:46:57.634Z</time>
      </trkpt>
      <trkpt lat="47.84069" lon="12.98399">
        <ele>417.897875</ele>
        <time>2022-09-12T19:47:10.862Z</time>
      </trkpt>
      <trkpt lat="47.84075" lon="12.98401">
        <ele>418.028167</ele>
        <time>2022-09-12T19:47:14.115Z</time>
      </trkpt>
      <trkpt lat="47.84088" lon="12.9833">
        <ele>419.117277</ele>
        <time>2022-09-12T19:47:33.448Z</time>
      </trkpt>
      <trkpt lat="47.84093" lon="12.98294">
        <ele>419.649597</ele>
        <time>2022-09-12T19:47:43.085Z</time>
      </trkpt>
      <trkpt lat="47.8411" lon="12.98239">
        <ele>420.277937</ele>
        <time>2022-09-12T19:47:58.708Z</time>
      </trkpt>
      <trkpt lat="47.84112" lon="12.98232">
        <ele>420.354718</ele>
        <time>2022-09-12T19:48:00.569Z</time>
      </trkpt>
      <trkpt lat="47.84119" lon="12.98217">
        <ele>420.547644</ele>
        <time>2022-09-12T19:48:05.196Z</time>
      </trkpt>
      <trkpt lat="47.84131" lon="12.9819">
        <ele>420.885966</ele>
        <time>2022-09-12T19:48:12.841Z</time>
      </trkpt>
      <trkpt lat="47.8416" lon="12.981">
        <ele>421.91932</ele>
        <time>2022-09-12T19:48:34.243Z</time>
      </trkpt>
      <trkpt lat="47.84182" lon="12.97973">
        <ele>422.668198</ele>
        <time>2022-09-12T19:49:00.256Z</time>
      </trkpt>
      <trkpt lat="47.84183" lon="12.97973">
        <ele>422.670432</ele>
        <time>2022-09-12T19:49:00.403Z</time>
      </trkpt>
      <trkpt lat="47.84204" lon="12.97846">
        <ele>423.058809</ele>
        <time>2022-09-12T19:49:25.796Z</time>
      </trkpt>
      <trkpt lat="47.84206" lon="12.97836">
        <ele>423.091498</ele>
        <time>2022-09-12T19:49:27.843Z</time>
      </trkpt>
      <trkpt lat="47.84214" lon="12.97827">
        <ele>423.136278</ele>
        <time>2022-09-12T19:49:30.636Z</time>
      </trkpt>
      <trkpt lat="47.84215" lon="12.97818">
        <ele>423.164279</ele>
        <time>2022-09-12T19:49:32.400Z</time>
      </trkpt>
      <trkpt lat="47.84209" lon="12.97806">
        <ele>423.20797</ele>
        <time>2022-09-12T19:49:35.209Z</time>
      </trkpt>
      <trkpt lat="47.8421" lon="12.97797">
        <ele>423.221561</ele>
        <time>2022-09-12T19:49:36.733Z</time>
      </trkpt>
      <trkpt lat="47.84212" lon="12.97778">
        <ele>423.240075</ele>
        <time>2022-09-12T19:49:40.322Z</time>
      </trkpt>
      <trkpt lat="47.84218" lon="12.97764">
        <ele>423.256095</ele>
        <time>2022-09-12T19:49:43.565Z</time>
      </trkpt>
      <trkpt lat="47.8422" lon="12.97751">
        <ele>423.268465</ele>
        <time>2022-09-12T19:49:46.739Z</time>
      </trkpt>
      <trkpt lat="47.8423" lon="12.97685">
        <ele>423.331922</ele>
        <time>2022-09-12T19:49:59.015Z</time>
      </trkpt>
      <trkpt lat="47.84232" lon="12.97672">
        <ele>423.344015</ele>
        <time>2022-09-12T19:50:01.324Z</time>
      </trkpt>
      <trkpt lat="47.84227" lon="12.97672">
        <ele>423.350648</ele>
        <time>2022-09-12T19:50:03.036Z</time>
      </trkpt>
      <trkpt lat="47.84217" lon="12.97668">
        <ele>423.364869</ele>
        <time>2022-09-12T19:50:06.744Z</time>
      </trkpt>
      <trkpt lat="47.84232" lon="12.97559">
        <ele>423.468562</ele>
        <time>2022-09-12T19:50:27.176Z</time>
      </trkpt>
      <trkpt lat="47.84279" lon="12.97248">
        <ele>423.521929</ele>
        <time>2022-09-12T19:51:24.573Z</time>
      </trkpt>
      <trkpt lat="47.84282" lon="12.9723">
        <ele>423.522725</ele>
        <time>2022-09-12T19:51:28.009Z</time>
      </trkpt>
      <trkpt lat="47.84297" lon="12.97131">
        <ele>423.527085</ele>
        <time>2022-09-12T19:51:45.892Z</time>
      </trkpt>
      <trkpt lat="47.84315" lon="12.97014">
        <ele>423.535108</ele>
        <time>2022-09-12T19:52:07.276Z</time>
      </trkpt>
      <trkpt lat="47.84324" lon="12.96948">
        <ele>423.546516</ele>
        <time>2022-09-12T19:52:19.701Z</time>
      </trkpt>
      <trkpt lat="47.84328" lon="12.96904">
        <ele>423.553915</ele>
        <time>2022-09-12T19:52:27.709Z</time>
      </trkpt>
      <trkpt lat="47.84323" lon="12.96781">
        <ele>423.574408</ele>
        <time>2022-09-12T19:52:49.814Z</time>
      </trkpt>
      <trkpt lat="47.84321" lon="12.96755">
        <ele>423.567405</ele>
        <time>2022-09-12T19:52:54.374Z</time>
      </trkpt>
      <trkpt lat="47.84322" lon="12.96731">
        <ele>423.555839</ele>
        <time>2022-09-12T19:52:58.479Z</time>
      </trkpt>
      <trkpt lat="47.84322" lon="12.96667">
        <ele>423.523553</ele>
        <time>2022-09-12T19:53:10.004Z</time>
      </trkpt>
      <trkpt lat="47.84334" lon="12.96518">
        <ele>423.448219</ele>
        <time>2022-09-12T19:53:36.368Z</time>
      </trkpt>
      <trkpt lat="47.84364" lon="12.96353">
        <ele>423.475625</ele>
        <time>2022-09-12T19:54:07.016Z</time>
      </trkpt>
      <trkpt lat="47.84373" lon="12.96298">
        <ele>423.487844</ele>
        <time>2022-09-12T19:54:17.415Z</time>
      </trkpt>
      <trkpt lat="47.84376" lon="12.96189">
        <ele>423.499522</ele>
        <time>2022-09-12T19:54:37.021Z</time>
      </trkpt>
      <trkpt lat="47.84382" lon="12.96129">
        <ele>423.499657</ele>
        <time>2022-09-12T19:54:47.836Z</time>
      </trkpt>
      <trkpt lat="47.84395" lon="12.96061">
        <ele>423.499813</ele>
        <time>2022-09-12T19:55:00.435Z</time>
      </trkpt>
      <trkpt lat="47.84398" lon="12.96005">
        <ele>423.499938</ele>
        <time>2022-09-12T19:55:10.331Z</time>
      </trkpt>
      <trkpt lat="47.84396" lon="12.95935">
        <ele>423.49706</ele>
        <time>2022-09-12T19:55:22.930Z</time>
      </trkpt>
      <trkpt lat="47.84389" lon="12.95856">
        <ele>423.49191</ele>
        <time>2022-09-12T19:55:37.220Z</time>
      </trkpt>
      <trkpt lat="47.84373" lon="12.95806">
        <ele>423.488309</ele>
        <time>2022-09-12T19:55:47.045Z</time>
      </trkpt>
      <trkpt lat="47.84363" lon="12.9573">
        <ele>423.483271</ele>
        <time>2022-09-12T19:56:00.843Z</time>
      </trkpt>
      <trkpt lat="47.84362" lon="12.95713">
        <ele>423.489391</ele>
        <time>2022-09-12T19:56:04.035Z</time>
      </trkpt>
      <trkpt lat="47.84341" lon="12.95597">
        <ele>423.609618</ele>
        <time>2022-09-12T19:56:25.595Z</time>
      </trkpt>
      <trkpt lat="47.84344" lon="12.95519">
        <ele>423.688531</ele>
        <time>2022-09-12T19:56:40.532Z</time>
      </trkpt>
      <trkpt lat="47.84349" lon="12.95434">
        <ele>423.732566</ele>
        <time>2022-09-12T19:56:56.461Z</time>
      </trkpt>
      <trkpt lat="47.84354" lon="12.95367">
        <ele>423.672043</ele>
        <time>2022-09-12T19:57:08.732Z</time>
      </trkpt>
      <trkpt lat="47.84355" lon="12.95337">
        <ele>423.644721</ele>
        <time>2022-09-12T19:57:13.892Z</time>
      </trkpt>
      <trkpt lat="47.84362" lon="12.95338">
        <ele>423.635115</ele>
        <time>2022-09-12T19:57:15.876Z</time>
      </trkpt>
      <trkpt lat="47.84368" lon="12.95337">
        <ele>423.627673</ele>
        <time>2022-09-12T19:57:17.481Z</time>
      </trkpt>
      <trkpt lat="47.8437" lon="12.95231">
        <ele>423.531174</ele>
        <time>2022-09-12T19:57:35.972Z</time>
      </trkpt>
      <trkpt lat="47.84377" lon="12.95051">
        <ele>422.889422</ele>
        <time>2022-09-12T19:58:04.634Z</time>
      </trkpt>
      <trkpt lat="47.84398" lon="12.95003">
        <ele>422.660469</ele>
        <time>2022-09-12T19:58:13.795Z</time>
      </trkpt>
      <trkpt lat="47.84448" lon="12.94931">
        <ele>422.514073</ele>
        <time>2022-09-12T19:58:31.275Z</time>
      </trkpt>
      <trkpt lat="47.84574" lon="12.94751">
        <ele>422.985066</ele>
        <time>2022-09-12T19:59:21.142Z</time>
      </trkpt>
      <trkpt lat="47.84656" lon="12.94542">
        <ele>423.912233</ele>
        <time>2022-09-12T20:00:09.621Z</time>
      </trkpt>
      <trkpt lat="47.84686" lon="12.94503">
        <ele>423.947496</ele>
        <time>2022-09-12T20:00:21.587Z</time>
      </trkpt>
      <trkpt lat="47.84713" lon="12.94476">
        <ele>423.975874</ele>
        <time>2022-09-12T20:00:31.131Z</time>
      </trkpt>
      <trkpt lat="47.8475" lon="12.94449">
        <ele>424.011394</ele>
        <time>2022-09-12T20:00:42.125Z</time>
      </trkpt>
      <trkpt lat="47.84748" lon="12.94444">
        <ele>424.014931</ele>
        <time>2022-09-12T20:00:43.114Z</time>
      </trkpt>
      <trkpt lat="47.84745" lon="12.94421">
        <ele>424.028335</ele>
        <time>2022-09-12T20:00:46.910Z</time>
      </trkpt>
      <trkpt lat="47.84748" lon="12.94392">
        <ele>424.045517</ele>
        <time>2022-09-12T20:00:51.846Z</time>
      </trkpt>
      <trkpt lat="47.8475" lon="12.94378">
        <ele>424.053876</ele>
        <time>2022-09-12T20:00:54.114Z</time>
      </trkpt>
      <trkpt lat="47.84748" lon="12.94296">
        <ele>423.631688</ele>
        <time>2022-09-12T20:01:07.249Z</time>
      </trkpt>
      <trkpt lat="47.84736" lon="12.9421">
        <ele>423.092639</ele>
        <time>2022-09-12T20:01:21.065Z</time>
      </trkpt>
      <trkpt lat="47.84735" lon="12.94114">
        <ele>422.509832</ele>
        <time>2022-09-12T20:01:35.758Z</time>
      </trkpt>
      <trkpt lat="47.84729" lon="12.93997">
        <ele>422.149615</ele>
        <time>2022-09-12T20:01:53.928Z</time>
      </trkpt>
      <trkpt lat="47.84735" lon="12.93962">
        <ele>422.052639</ele>
        <time>2022-09-12T20:01:59.886Z</time>
      </trkpt>
      <trkpt lat="47.84765" lon="12.93886">
        <ele>421.816943</ele>
        <time>2022-09-12T20:02:15.817Z</time>
      </trkpt>
      <trkpt lat="47.84768" lon="12.93851">
        <ele>421.72021</ele>
        <time>2022-09-12T20:02:22.671Z</time>
      </trkpt>
      <trkpt lat="47.8476" lon="12.93817">
        <ele>421.780992</ele>
        <time>2022-09-12T20:02:29.169Z</time>
      </trkpt>
      <trkpt lat="47.8468" lon="12.93452">
        <ele>422.835329</ele>
        <time>2022-09-12T20:03:42.514Z</time>
      </trkpt>
      <trkpt lat="47.8468" lon="12.93433">
        <ele>422.903449</ele>
        <time>2022-09-12T20:03:46.604Z</time>
      </trkpt>
      <trkpt lat="47.84692" lon="12.93379">
        <ele>423.102843</ele>
        <time>2022-09-12T20:03:57.964Z</time>
      </trkpt>
      <trkpt lat="47.84717" lon="12.93303">
        <ele>423.432515</ele>
        <time>2022-09-12T20:04:14.943Z</time>
      </trkpt>
      <trkpt lat="47.84752" lon="12.93222">
        <ele>423.855192</ele>
        <time>2022-09-12T20:04:34.711Z</time>
      </trkpt>
      <trkpt lat="47.84782" lon="12.93119">
        <ele>424.341521</ele>
        <time>2022-09-12T20:04:56.605Z</time>
      </trkpt>
      <trkpt lat="47.84793" lon="12.93086">
        <ele>424.523234</ele>
        <time>2022-09-12T20:05:03.839Z</time>
      </trkpt>
      <trkpt lat="47.84852" lon="12.92928">
        <ele>425.530919</ele>
        <time>2022-09-12T20:05:40.284Z</time>
      </trkpt>
      <trkpt lat="47.84882" lon="12.92744">
        <ele>427.011599</ele>
        <time>2022-09-12T20:06:21.751Z</time>
      </trkpt>
      <trkpt lat="47.8489" lon="12.92726">
        <ele>427.212378</ele>
        <time>2022-09-12T20:06:26.816Z</time>
      </trkpt>
      <trkpt lat="47.8495" lon="12.92657">
        <ele>428.236716</ele>
        <time>2022-09-12T20:06:52.441Z</time>
      </trkpt>
      <trkpt lat="47.84966" lon="12.92626">
        <ele>428.511849</ele>
        <time>2022-09-12T20:07:01.642Z</time>
      </trkpt>
      <trkpt lat="47.85034" lon="12.92462">
        <ele>429.630372</ele>
        <time>2022-09-12T20:07:43.046Z</time>
      </trkpt>
      <trkpt lat="47.85078" lon="12.92387">
        <ele>429.613653</ele>
        <time>2022-09-12T20:08:00.665Z</time>
      </trkpt>
      <trkpt lat="47.85097" lon="12.92343">
        <ele>429.291603</ele>
        <time>2022-09-12T20:08:08.846Z</time>
      </trkpt>
      <trkpt lat="47.85123" lon="12.92264">
        <ele>428.752459</ele>
        <time>2022-09-12T20:08:21.915Z</time>
      </trkpt>
      <trkpt lat="47.85136" lon="12.92222">
        <ele>428.46577</ele>
        <time>2022-09-12T20:08:28.899Z</time>
      </trkpt>
      <trkpt lat="47.85114" lon="12.92212">
        <ele>428.26649</ele>
        <time>2022-09-12T20:08:33.930Z</time>
      </trkpt>
      <trkpt lat="47.85098" lon="12.92188">
        <ele>428.204955</ele>
        <time>2022-09-12T20:08:39.272Z</time>
      </trkpt>
      <trkpt lat="47.85087" lon="12.92144">
        <ele>428.121311</ele>
        <time>2022-09-12T20:08:46.538Z</time>
      </trkpt>
      <trkpt lat="47.85095" lon="12.9209">
        <ele>428.0201</ele>
        <time>2022-09-12T20:08:55.718Z</time>
      </trkpt>
      <trkpt lat="47.85114" lon="12.92028">
        <ele>427.897795</ele>
        <time>2022-09-12T20:09:07.337Z</time>
      </trkpt>
      <trkpt lat="47.85129" lon="12.9195">
        <ele>427.908479</ele>
        <time>2022-09-12T20:09:23.982Z</time>
      </trkpt>
      <trkpt lat="47.85195" lon="12.91798">
        <ele>429.008782</ele>
        <time>2022-09-12T20:10:04.679Z</time>
      </trkpt>
      <trkpt lat="47.85254" lon="12.91737">
        <ele>429.257244</ele>
        <time>2022-09-12T20:10:24.537Z</time>
      </trkpt>
      <trkpt lat="47.85255" lon="12.91712">
        <ele>429.161164</ele>
        <time>2022-09-12T20:10:28.915Z</time>
      </trkpt>
      <trkpt lat="47.85252" lon="12.91692">
        <ele>429.081772</ele>
        <time>2022-09-12T20:10:32.128Z</time>
      </trkpt>
      <trkpt lat="47.85264" lon="12.91658">
        <ele>428.934986</ele>
        <time>2022-09-12T20:10:38.415Z</time>
      </trkpt>
      <trkpt lat="47.85263" lon="12.91619">
        <ele>428.782413</ele>
        <time>2022-09-12T20:10:44.500Z</time>
      </trkpt>
      <trkpt lat="47.85263" lon="12.91614">
        <ele>428.763711</ele>
        <time>2022-09-12T20:10:45.280Z</time>
      </trkpt>
      <trkpt lat="47.85264" lon="12.91583">
        <ele>428.639819</ele>
        <time>2022-09-12T20:10:50.067Z</time>
      </trkpt>
      <trkpt lat="47.85272" lon="12.91559">
        <ele>428.536277</ele>
        <time>2022-09-12T20:10:54.228Z</time>
      </trkpt>
      <trkpt lat="47.85367" lon="12.91369">
        <ele>427.485574</ele>
        <time>2022-09-12T20:11:31.567Z</time>
      </trkpt>
      <trkpt lat="47.85438" lon="12.91232">
        <ele>427.082573</ele>
        <time>2022-09-12T20:12:01.513Z</time>
      </trkpt>
      <trkpt lat="47.85515" lon="12.91109">
        <ele>426.972432</ele>
        <time>2022-09-12T20:12:31.216Z</time>
      </trkpt>
      <trkpt lat="47.85558" lon="12.90995">
        <ele>427.40703</ele>
        <time>2022-09-12T20:12:55.611Z</time>
      </trkpt>
      <trkpt lat="47.85648" lon="12.90681">
        <ele>428.933631</ele>
        <time>2022-09-12T20:14:05.916Z</time>
      </trkpt>
      <trkpt lat="47.85727" lon="12.90409">
        <ele>430.764702</ele>
        <time>2022-09-12T20:15:05.085Z</time>
      </trkpt>
      <trkpt lat="47.85757" lon="12.90288">
        <ele>432.685952</ele>
        <time>2022-09-12T20:15:36.848Z</time>
      </trkpt>
      <trkpt lat="47.85772" lon="12.90071">
        <ele>436.56541</ele>
        <time>2022-09-12T20:16:38.644Z</time>
      </trkpt>
      <trkpt lat="47.85779" lon="12.90006">
        <ele>437.657363</ele>
        <time>2022-09-12T20:16:57.118Z</time>
      </trkpt>
      <trkpt lat="47.85791" lon="12.89992">
        <ele>438.013735</ele>
        <time>2022-09-12T20:17:03.099Z</time>
      </trkpt>
      <trkpt lat="47.85751" lon="12.89901">
        <ele>439.802275</ele>
        <time>2022-09-12T20:17:31.161Z</time>
      </trkpt>
      <trkpt lat="47.85729" lon="12.89823">
        <ele>440.5188</ele>
        <time>2022-09-12T20:17:50.289Z</time>
      </trkpt>
      <trkpt lat="47.85719" lon="12.89762">
        <ele>440.811927</ele>
        <time>2022-09-12T20:18:03.391Z</time>
      </trkpt>
      <trkpt lat="47.85716" lon="12.8966">
        <ele>441.28655</ele>
        <time>2022-09-12T20:18:23.873Z</time>
      </trkpt>
      <trkpt lat="47.85726" lon="12.89551">
        <ele>441.580037</ele>
        <time>2022-09-12T20:18:44.973Z</time>
      </trkpt>
      <trkpt lat="47.85742" lon="12.89479">
        <ele>441.669556</ele>
        <time>2022-09-12T20:18:58.996Z</time>
      </trkpt>
      <trkpt lat="47.85759" lon="12.89425">
        <ele>441.739606</ele>
        <time>2022-09-12T20:19:10.137Z</time>
      </trkpt>
      <trkpt lat="47.85784" lon="12.89363">
        <ele>441.840254</ele>
        <time>2022-09-12T20:19:23.249Z</time>
      </trkpt>
      <trkpt lat="47.85947" lon="12.89022">
        <ele>446.811109</ele>
        <time>2022-09-12T20:20:52.079Z</time>
      </trkpt>
      <trkpt lat="47.85983" lon="12.88934">
        <ele>449.069749</ele>
        <time>2022-09-12T20:21:27.441Z</time>
      </trkpt>
      <trkpt lat="47.86063" lon="12.88704">
        <ele>462.617415</ele>
        <time>2022-09-12T20:23:25.226Z</time>
      </trkpt>
      <trkpt lat="47.86096" lon="12.88519">
        <ele>469.876081</ele>
        <time>2022-09-12T20:24:44.619Z</time>
      </trkpt>
      <trkpt lat="47.86104" lon="12.88404">
        <ele>473.424393</ele>
        <time>2022-09-12T20:25:14.800Z</time>
      </trkpt>
      <trkpt lat="47.86075" lon="12.88128">
        <ele>474.318374</ele>
        <time>2022-09-12T20:26:01.690Z</time>
      </trkpt>
      <trkpt lat="47.86068" lon="12.88055">
        <ele>475.531252</ele>
        <time>2022-09-12T20:26:18.049Z</time>
      </trkpt>
      <trkpt lat="47.86042" lon="12.87765">
        <ele>481.210228</ele>
        <time>2022-09-12T20:27:45.005Z</time>
      </trkpt>
      <trkpt lat="47.86049" lon="12.87673">
        <ele>483.387289</ele>
        <time>2022-09-12T20:28:11.536Z</time>
      </trkpt>
      <trkpt lat="47.86072" lon="12.87587">
        <ele>485.532708</ele>
        <time>2022-09-12T20:28:38.285Z</time>
      </trkpt>
      <trkpt lat="47.86097" lon="12.87489">
        <ele>487.906497</ele>
        <time>2022-09-12T20:29:08.846Z</time>
      </trkpt>
      <trkpt lat="47.86109" lon="12.87407">
        <ele>489.805063</ele>
        <time>2022-09-12T20:29:33.224Z</time>
      </trkpt>
      <trkpt lat="47.86108" lon="12.87343">
        <ele>491.026768</ele>
        <time>2022-09-12T20:29:51.248Z</time>
      </trkpt>
      <trkpt lat="47.86101" lon="12.87272">
        <ele>492.144103</ele>
        <time>2022-09-12T20:30:11.094Z</time>
      </trkpt>
      <trkpt lat="47.86075" lon="12.87157">
        <ele>494.012163</ele>
        <time>2022-09-12T20:30:41.357Z</time>
      </trkpt>
      <trkpt lat="47.86059" lon="12.87075">
        <ele>494.839976</ele>
        <time>2022-09-12T20:30:59.878Z</time>
      </trkpt>
      <trkpt lat="47.86057" lon="12.8703">
        <ele>494.9992</ele>
        <time>2022-09-12T20:31:08.724Z</time>
      </trkpt>
      <trkpt lat="47.86061" lon="12.86994">
        <ele>495.126513</ele>
        <time>2022-09-12T20:31:15.671Z</time>
      </trkpt>
      <trkpt lat="47.86077" lon="12.86948">
        <ele>495.310746</ele>
        <time>2022-09-12T20:31:25.692Z</time>
      </trkpt>
      <trkpt lat="47.86081" lon="12.86943">
        <ele>495.338562</ele>
        <time>2022-09-12T20:31:27.209Z</time>
      </trkpt>
      <trkpt lat="47.86158" lon="12.86852">
        <ele>495.396115</ele>
        <time>2022-09-12T20:31:54.000Z</time>
      </trkpt>
      <trkpt lat="47.86177" lon="12.8682">
        <ele>495.221312</ele>
        <time>2022-09-12T20:32:01.395Z</time>
      </trkpt>
      <trkpt lat="47.86195" lon="12.86774">
        <ele>495.007343</ele>
        <time>2022-09-12T20:32:10.016Z</time>
      </trkpt>
      <trkpt lat="47.8621" lon="12.86701">
        <ele>494.69986</ele>
        <time>2022-09-12T20:32:21.732Z</time>
      </trkpt>
      <trkpt lat="47.86236" lon="12.86505">
        <ele>493.21165</ele>
        <time>2022-09-12T20:32:51.628Z</time>
      </trkpt>
      <trkpt lat="47.86245" lon="12.86439">
        <ele>492.657109</ele>
        <time>2022-09-12T20:33:01.866Z</time>
      </trkpt>
      <trkpt lat="47.86254" lon="12.863">
        <ele>492.293773</ele>
        <time>2022-09-12T20:33:23.874Z</time>
      </trkpt>
      <trkpt lat="47.86254" lon="12.86117">
        <ele>492.308432</ele>
        <time>2022-09-12T20:33:58.247Z</time>
      </trkpt>
      <trkpt lat="47.86243" lon="12.86019">
        <ele>493.008278</ele>
        <time>2022-09-12T20:34:19.480Z</time>
      </trkpt>
      <trkpt lat="47.86213" lon="12.85876">
        <ele>494.053606</ele>
        <time>2022-09-12T20:34:52.910Z</time>
      </trkpt>
      <trkpt lat="47.86167" lon="12.85732">
        <ele>494.438138</ele>
        <time>2022-09-12T20:35:25.650Z</time>
      </trkpt>
      <trkpt lat="47.86163" lon="12.85737">
        <ele>494.455266</ele>
        <time>2022-09-12T20:35:27.366Z</time>
      </trkpt>
      <trkpt lat="47.86152" lon="12.85738">
        <ele>494.494811</ele>
        <time>2022-09-12T20:35:30.377Z</time>
      </trkpt>
      <trkpt lat="47.86084" lon="12.85706">
        <ele>494.60447</ele>
        <time>2022-09-12T20:35:49.249Z</time>
      </trkpt>
      <trkpt lat="47.85758" lon="12.85549">
        <ele>492.504662</ele>
        <time>2022-09-12T20:37:14.808Z</time>
      </trkpt>
      <trkpt lat="47.85735" lon="12.85512">
        <ele>492.63614</ele>
        <time>2022-09-12T20:37:24.607Z</time>
      </trkpt>
      <trkpt lat="47.85693" lon="12.85477">
        <ele>492.867579</ele>
        <time>2022-09-12T20:37:38.808Z</time>
      </trkpt>
      <trkpt lat="47.85691" lon="12.85445">
        <ele>492.968897</ele>
        <time>2022-09-12T20:37:45.106Z</time>
      </trkpt>
      <trkpt lat="47.85732" lon="12.85269">
        <ele>493.717717</ele>
        <time>2022-09-12T20:38:24.133Z</time>
      </trkpt>
      <trkpt lat="47.85854" lon="12.84978">
        <ele>494.999451</ele>
        <time>2022-09-12T20:39:33.786Z</time>
      </trkpt>
      <trkpt lat="47.85888" lon="12.84893">
        <ele>495.145348</ele>
        <time>2022-09-12T20:39:51.092Z</time>
      </trkpt>
      <trkpt lat="47.8589" lon="12.84851">
        <ele>495.089556</ele>
        <time>2022-09-12T20:39:58.090Z</time>
      </trkpt>
      <trkpt lat="47.85801" lon="12.84643">
        <ele>493.720713</ele>
        <time>2022-09-12T20:40:37.321Z</time>
      </trkpt>
      <trkpt lat="47.85775" lon="12.84594">
        <ele>492.911097</ele>
        <time>2022-09-12T20:40:46.993Z</time>
      </trkpt>
      <trkpt lat="47.85745" lon="12.84557">
        <ele>492.115354</ele>
        <time>2022-09-12T20:40:55.855Z</time>
      </trkpt>
      <trkpt lat="47.85718" lon="12.84538">
        <ele>491.529261</ele>
        <time>2022-09-12T20:41:02.265Z</time>
      </trkpt>
      <trkpt lat="47.85707" lon="12.84517">
        <ele>491.160324</ele>
        <time>2022-09-12T20:41:06.174Z</time>
      </trkpt>
      <trkpt lat="47.85666" lon="12.84485">
        <ele>490.241199</ele>
        <time>2022-09-12T20:41:15.978Z</time>
      </trkpt>
      <trkpt lat="47.85563" lon="12.84429">
        <ele>487.785753</ele>
        <time>2022-09-12T20:41:38.997Z</time>
      </trkpt>
      <trkpt lat="47.85543" lon="12.844">
        <ele>487.160959</ele>
        <time>2022-09-12T20:41:44.813Z</time>
      </trkpt>
      <trkpt lat="47.85536" lon="12.84369">
        <ele>486.665408</ele>
        <time>2022-09-12T20:41:49.503Z</time>
      </trkpt>
      <trkpt lat="47.85543" lon="12.84329">
        <ele>486.043861</ele>
        <time>2022-09-12T20:41:55.438Z</time>
      </trkpt>
      <trkpt lat="47.8562" lon="12.84127">
        <ele>488.401141</ele>
        <time>2022-09-12T20:42:47.979Z</time>
      </trkpt>
      <trkpt lat="47.85599" lon="12.84087">
        <ele>489.371607</ele>
        <time>2022-09-12T20:43:03.794Z</time>
      </trkpt>
      <trkpt lat="47.85532" lon="12.83932">
        <ele>496.351686</ele>
        <time>2022-09-12T20:44:12.821Z</time>
      </trkpt>
      <trkpt lat="47.85498" lon="12.83879">
        <ele>499.144707</ele>
        <time>2022-09-12T20:44:42.282Z</time>
      </trkpt>
      <trkpt lat="47.85406" lon="12.83767">
        <ele>505.652724</ele>
        <time>2022-09-12T20:45:47.713Z</time>
      </trkpt>
      <trkpt lat="47.85372" lon="12.83729">
        <ele>508.004411</ele>
        <time>2022-09-12T20:46:09.095Z</time>
      </trkpt>
      <trkpt lat="47.85329" lon="12.83694">
        <ele>509.530176</ele>
        <time>2022-09-12T20:46:31.603Z</time>
      </trkpt>
      <trkpt lat="47.85307" lon="12.83663">
        <ele>510.176391</ele>
        <time>2022-09-12T20:46:44.573Z</time>
      </trkpt>
      <trkpt lat="47.85237" lon="12.83518">
        <ele>512.528172</ele>
        <time>2022-09-12T20:47:26.771Z</time>
      </trkpt>
      <trkpt lat="47.85223" lon="12.83466">
        <ele>511.37967</ele>
        <time>2022-09-12T20:47:34.665Z</time>
      </trkpt>
      <trkpt lat="47.85206" lon="12.83363">
        <ele>509.195858</ele>
        <time>2022-09-12T20:47:48.616Z</time>
      </trkpt>
      <trkpt lat="47.85196" lon="12.83259">
        <ele>506.921716</ele>
        <time>2022-09-12T20:48:01.623Z</time>
      </trkpt>
      <trkpt lat="47.85195" lon="12.83241">
        <ele>506.298642</ele>
        <time>2022-09-12T20:48:03.645Z</time>
      </trkpt>
      <trkpt lat="47.85189" lon="12.83183">
        <ele>504.190768</ele>
        <time>2022-09-12T20:48:10.561Z</time>
      </trkpt>
      <trkpt lat="47.85181" lon="12.83163">
        <ele>503.351932</ele>
        <time>2022-09-12T20:48:13.318Z</time>
      </trkpt>
      <trkpt lat="47.85166" lon="12.83146">
        <ele>502.355264</ele>
        <time>2022-09-12T20:48:16.608Z</time>
      </trkpt>
      <trkpt lat="47.85157" lon="12.83141">
        <ele>501.850358</ele>
        <time>2022-09-12T20:48:18.221Z</time>
      </trkpt>
      <trkpt lat="47.85149" lon="12.8314">
        <ele>501.408575</ele>
        <time>2022-09-12T20:48:19.704Z</time>
      </trkpt>
      <trkpt lat="47.85149" lon="12.83126">
        <ele>500.918207</ele>
        <time>2022-09-12T20:48:21.647Z</time>
      </trkpt>
      <trkpt lat="47.85145" lon="12.83096">
        <ele>499.812874</ele>
        <time>2022-09-12T20:48:25.779Z</time>
      </trkpt>
      <trkpt lat="47.85137" lon="12.83074">
        <ele>498.912662</ele>
        <time>2022-09-12T20:48:29.496Z</time>
      </trkpt>
      <trkpt lat="47.85092" lon="12.83015">
        <ele>496.100116</ele>
        <time>2022-09-12T20:48:41.670Z</time>
      </trkpt>
      <trkpt lat="47.85059" lon="12.83007">
        <ele>494.735374</ele>
        <time>2022-09-12T20:48:48.416Z</time>
      </trkpt>
      <trkpt lat="47.84999" lon="12.83004">
        <ele>492.218555</ele>
        <time>2022-09-12T20:49:01.066Z</time>
      </trkpt>
      <trkpt lat="47.84982" lon="12.82987">
        <ele>491.356374</ele>
        <time>2022-09-12T20:49:05.367Z</time>
      </trkpt>
      <trkpt lat="47.84978" lon="12.82984">
        <ele>491.189851</ele>
        <time>2022-09-12T20:49:06.212Z</time>
      </trkpt>
      <trkpt lat="47.84991" lon="12.82903">
        <ele>489.86095</ele>
        <time>2022-09-12T20:49:17.416Z</time>
      </trkpt>
      <trkpt lat="47.84996" lon="12.82801">
        <ele>489.516703</ele>
        <time>2022-09-12T20:49:31.906Z</time>
      </trkpt>
      <trkpt lat="47.85012" lon="12.82668">
        <ele>489.382148</ele>
        <time>2022-09-12T20:50:00.690Z</time>
      </trkpt>
      <trkpt lat="47.8502" lon="12.82585">
        <ele>491.777303</ele>
        <time>2022-09-12T20:50:26.522Z</time>
      </trkpt>
      <trkpt lat="47.85019" lon="12.82557">
        <ele>492.55338</ele>
        <time>2022-09-12T20:50:36.580Z</time>
      </trkpt>
      <trkpt lat="47.85017" lon="12.82527">
        <ele>493.404002</ele>
        <time>2022-09-12T20:50:46.934Z</time>
      </trkpt>
      <trkpt lat="47.85015" lon="12.82488">
        <ele>494.509507</ele>
        <time>2022-09-12T20:51:01.018Z</time>
      </trkpt>
      <trkpt lat="47.85009" lon="12.82472">
        <ele>495.037444</ele>
        <time>2022-09-12T20:51:07.449Z</time>
      </trkpt>
      <trkpt lat="47.84985" lon="12.82349">
        <ele>497.722603</ele>
        <time>2022-09-12T20:51:49.450Z</time>
      </trkpt>
      <trkpt lat="47.84979" lon="12.82323">
        <ele>498.136158</ele>
        <time>2022-09-12T20:51:57.002Z</time>
      </trkpt>
      <trkpt lat="47.84977" lon="12.82311">
        <ele>498.316467</ele>
        <time>2022-09-12T20:52:00.303Z</time>
      </trkpt>
      <trkpt lat="47.84973" lon="12.82282">
        <ele>498.764792</ele>
        <time>2022-09-12T20:52:08.069Z</time>
      </trkpt>
      <trkpt lat="47.8497" lon="12.82253">
        <ele>499.202489</ele>
        <time>2022-09-12T20:52:15.306Z</time>
      </trkpt>
      <trkpt lat="47.84969" lon="12.8222">
        <ele>499.693972</ele>
        <time>2022-09-12T20:52:22.807Z</time>
      </trkpt>
      <trkpt lat="47.84971" lon="12.82203">
        <ele>499.960314</ele>
        <time>2022-09-12T20:52:26.583Z</time>
      </trkpt>
      <trkpt lat="47.84974" lon="12.82171">
        <ele>500.435387</ele>
        <time>2022-09-12T20:52:32.564Z</time>
      </trkpt>
      <trkpt lat="47.8498" lon="12.8209">
        <ele>499.998705</ele>
        <time>2022-09-12T20:52:45.212Z</time>
      </trkpt>
      <trkpt lat="47.84982" lon="12.82048">
        <ele>499.548511</ele>
        <time>2022-09-12T20:52:51.210Z</time>
      </trkpt>
      <trkpt lat="47.84978" lon="12.81908">
        <ele>498.055121</ele>
        <time>2022-09-12T20:53:10.842Z</time>
      </trkpt>
      <trkpt lat="47.84976" lon="12.81847">
        <ele>497.292991</ele>
        <time>2022-09-12T20:53:19.648Z</time>
      </trkpt>
      <trkpt lat="47.84974" lon="12.81709">
        <ele>495.455331</ele>
        <time>2022-09-12T20:53:38.901Z</time>
      </trkpt>
      <trkpt lat="47.84973" lon="12.8167">
        <ele>494.933144</ele>
        <time>2022-09-12T20:53:44.272Z</time>
      </trkpt>
      <trkpt lat="47.8497" lon="12.8167">
        <ele>494.875073</ele>
        <time>2022-09-12T20:53:44.890Z</time>
      </trkpt>
      <trkpt lat="47.84967" lon="12.81457">
        <ele>493.073322</ele>
        <time>2022-09-12T20:54:16.442Z</time>
      </trkpt>
      <trkpt lat="47.84966" lon="12.81278">
        <ele>492.250284</ele>
        <time>2022-09-12T20:54:46.350Z</time>
      </trkpt>
      <trkpt lat="47.84953" lon="12.81241">
        <ele>492.200061</ele>
        <time>2022-09-12T20:54:53.942Z</time>
      </trkpt>
      <trkpt lat="47.84955" lon="12.81232">
        <ele>492.188448</ele>
        <time>2022-09-12T20:54:55.880Z</time>
      </trkpt>
      <trkpt lat="47.84972" lon="12.81214">
        <ele>492.149804</ele>
        <time>2022-09-12T20:55:01.951Z</time>
      </trkpt>
      <trkpt lat="47.84973" lon="12.81198">
        <ele>492.130554</ele>
        <time>2022-09-12T20:55:05.010Z</time>
      </trkpt>
      <trkpt lat="47.8498" lon="12.81194">
        <ele>492.117373</ele>
        <time>2022-09-12T20:55:07.021Z</time>
      </trkpt>
      <trkpt lat="47.8499" lon="12.80835">
        <ele>491.318667</ele>
        <time>2022-09-12T20:56:07.015Z</time>
      </trkpt>
      <trkpt lat="47.84968" lon="12.80788">
        <ele>491.374741</ele>
        <time>2022-09-12T20:56:16.981Z</time>
      </trkpt>
      <trkpt lat="47.84954" lon="12.80777">
        <ele>491.397923</ele>
        <time>2022-09-12T20:56:21.035Z</time>
      </trkpt>
      <trkpt lat="47.84941" lon="12.80766">
        <ele>491.420262</ele>
        <time>2022-09-12T20:56:25.237Z</time>
      </trkpt>
      <trkpt lat="47.84937" lon="12.80753">
        <ele>491.434517</ele>
        <time>2022-09-12T20:56:27.893Z</time>
      </trkpt>
      <trkpt lat="47.84951" lon="12.80734">
        <ele>491.461256</ele>
        <time>2022-09-12T20:56:32.708Z</time>
      </trkpt>
      <trkpt lat="47.84972" lon="12.80686">
        <ele>491.517398</ele>
        <time>2022-09-12T20:56:43.428Z</time>
      </trkpt>
      <trkpt lat="47.85009" lon="12.80578">
        <ele>491.930999</ele>
        <time>2022-09-12T20:57:08.122Z</time>
      </trkpt>
      <trkpt lat="47.85018" lon="12.8053">
        <ele>492.203078</ele>
        <time>2022-09-12T20:57:18.378Z</time>
      </trkpt>
      <trkpt lat="47.85029" lon="12.8051">
        <ele>492.340838</ele>
        <time>2022-09-12T20:57:23.557Z</time>
      </trkpt>
      <trkpt lat="47.85053" lon="12.80425">
        <ele>492.839461</ele>
        <time>2022-09-12T20:57:42.480Z</time>
      </trkpt>
      <trkpt lat="47.85088" lon="12.80297">
        <ele>493.755949</ele>
        <time>2022-09-12T20:58:11.490Z</time>
      </trkpt>
      <trkpt lat="47.85159" lon="12.79905">
        <ele>496.561866</ele>
        <time>2022-09-12T20:59:38.946Z</time>
      </trkpt>
      <trkpt lat="47.85178" lon="12.79767">
        <ele>497.190407</ele>
        <time>2022-09-12T21:00:06.803Z</time>
      </trkpt>
      <trkpt lat="47.85185" lon="12.79774">
        <ele>497.24048</ele>
        <time>2022-09-12T21:00:09.893Z</time>
      </trkpt>
      <trkpt lat="47.85232" lon="12.79792">
        <ele>497.526404</ele>
        <time>2022-09-12T21:00:25.015Z</time>
      </trkpt>
      <trkpt lat="47.85293" lon="12.7982">
        <ele>497.904076</ele>
        <time>2022-09-12T21:00:44.054Z</time>
      </trkpt>
      <trkpt lat="47.85324" lon="12.79815">
        <ele>498.098662</ele>
        <time>2022-09-12T21:00:53.144Z</time>
      </trkpt>
      <trkpt lat="47.85365" lon="12.79791">
        <ele>498.377676</ele>
        <time>2022-09-12T21:01:06.742Z</time>
      </trkpt>
      <trkpt lat="47.85419" lon="12.7978">
        <ele>498.71664</ele>
        <time>2022-09-12T21:01:23.860Z</time>
      </trkpt>
      <trkpt lat="47.85465" lon="12.79784">
        <ele>499.02113</ele>
        <time>2022-09-12T21:01:38.279Z</time>
      </trkpt>
      <trkpt lat="47.85484" lon="12.79787">
        <ele>499.169276</ele>
        <time>2022-09-12T21:01:44.465Z</time>
      </trkpt>
      <trkpt lat="47.85513" lon="12.79792">
        <ele>499.395869</ele>
        <time>2022-09-12T21:01:53.718Z</time>
      </trkpt>
      <trkpt lat="47.85643" lon="12.79781">
        <ele>500.365495</ele>
        <time>2022-09-12T21:02:34.770Z</time>
      </trkpt>
      <trkpt lat="47.85694" lon="12.79776">
        <ele>500.638234</ele>
        <time>2022-09-12T21:02:50.523Z</time>
      </trkpt>
      <trkpt lat="47.85713" lon="12.79754">
        <ele>500.769156</ele>
        <time>2022-09-12T21:02:58.033Z</time>
      </trkpt>
      <trkpt lat="47.85737" lon="12.79708">
        <ele>500.975455</ele>
        <time>2022-09-12T21:03:09.713Z</time>
      </trkpt>
      <trkpt lat="47.85758" lon="12.79604">
        <ele>501.328326</ele>
        <time>2022-09-12T21:03:31.483Z</time>
      </trkpt>
      <trkpt lat="47.85784" lon="12.79439">
        <ele>501.730724</ele>
        <time>2022-09-12T21:04:03.352Z</time>
      </trkpt>
      <trkpt lat="47.85795" lon="12.79304">
        <ele>503.566657</ele>
        <time>2022-09-12T21:04:31.706Z</time>
      </trkpt>
      <trkpt lat="47.8579" lon="12.79252">
        <ele>504.86318</ele>
        <time>2022-09-12T21:04:45.692Z</time>
      </trkpt>
      <trkpt lat="47.85795" lon="12.79254">
        <ele>505.058105</ele>
        <time>2022-09-12T21:04:47.887Z</time>
      </trkpt>
      <trkpt lat="47.85817" lon="12.79266">
        <ele>505.937003</ele>
        <time>2022-09-12T21:04:59.080Z</time>
      </trkpt>
      <trkpt lat="47.859" lon="12.79311">
        <ele>509.637032</ele>
        <time>2022-09-12T21:05:48.189Z</time>
      </trkpt>
      <trkpt lat="47.85991" lon="12.79355">
        <ele>515.647379</ele>
        <time>2022-09-12T21:06:45.427Z</time>
      </trkpt>
      <trkpt lat="47.86045" lon="12.79369">
        <ele>519.064466</ele>
        <time>2022-09-12T21:07:16.134Z</time>
      </trkpt>
      <trkpt lat="47.86107" lon="12.79371">
        <ele>522.136679</ele>
        <time>2022-09-12T21:07:48.532Z</time>
      </trkpt>
      <trkpt lat="47.86159" lon="12.79348">
        <ele>524.624905</ele>
        <time>2022-09-12T21:08:14.189Z</time>
      </trkpt>
      <trkpt lat="47.86192" lon="12.79319">
        <ele>526.379637</ele>
        <time>2022-09-12T21:08:30.899Z</time>
      </trkpt>
      <trkpt lat="47.86219" lon="12.79281">
        <ele>528.065892</ele>
        <time>2022-09-12T21:08:47.501Z</time>
      </trkpt>
      <trkpt lat="47.86243" lon="12.7923">
        <ele>530.322877</ele>
        <time>2022-09-12T21:09:08.502Z</time>
      </trkpt>
      <trkpt lat="47.86262" lon="12.7917">
        <ele>532.722002</ele>
        <time>2022-09-12T21:09:32.018Z</time>
      </trkpt>
      <trkpt lat="47.863" lon="12.78929">
        <ele>541.340594</ele>
        <time>2022-09-12T21:11:03.575Z</time>
      </trkpt>
      <trkpt lat="47.8633" lon="12.78805">
        <ele>545.713273</ele>
        <time>2022-09-12T21:11:47.559Z</time>
      </trkpt>
      <trkpt lat="47.864" lon="12.78665">
        <ele>548.36063</ele>
        <time>2022-09-12T21:12:36.272Z</time>
      </trkpt>
      <trkpt lat="47.86442" lon="12.78599">
        <ele>549.41791</ele>
        <time>2022-09-12T21:12:54.167Z</time>
      </trkpt>
      <trkpt lat="47.86473" lon="12.78525">
        <ele>549.276598</ele>
        <time>2022-09-12T21:13:07.526Z</time>
      </trkpt>
      <trkpt lat="47.8649" lon="12.78459">
        <ele>548.647489</ele>
        <time>2022-09-12T21:13:17.957Z</time>
      </trkpt>
      <trkpt lat="47.86496" lon="12.78418">
        <ele>548.268218</ele>
        <time>2022-09-12T21:13:23.847Z</time>
      </trkpt>
      <trkpt lat="47.86495" lon="12.78338">
        <ele>547.557384</ele>
        <time>2022-09-12T21:13:35.390Z</time>
      </trkpt>
      <trkpt lat="47.86483" lon="12.7822">
        <ele>548.264691</ele>
        <time>2022-09-12T21:13:54.088Z</time>
      </trkpt>
      <trkpt lat="47.86475" lon="12.78139">
        <ele>548.974791</ele>
        <time>2022-09-12T21:14:12.185Z</time>
      </trkpt>
      <trkpt lat="47.86474" lon="12.7807">
        <ele>549.574906</ele>
        <time>2022-09-12T21:14:31.569Z</time>
      </trkpt>
      <trkpt lat="47.8649" lon="12.77916">
        <ele>554.405657</ele>
        <time>2022-09-12T21:15:24.433Z</time>
      </trkpt>
      <trkpt lat="47.86489" lon="12.7781">
        <ele>557.966701</ele>
        <time>2022-09-12T21:16:02.817Z</time>
      </trkpt>
      <trkpt lat="47.86485" lon="12.77677">
        <ele>561.827711</ele>
        <time>2022-09-12T21:16:49.094Z</time>
      </trkpt>
      <trkpt lat="47.86494" lon="12.77559">
        <ele>565.139084</ele>
        <time>2022-09-12T21:17:24.573Z</time>
      </trkpt>
      <trkpt lat="47.86502" lon="12.77505">
        <ele>566.472433</ele>
        <time>2022-09-12T21:17:39.866Z</time>
      </trkpt>
      <trkpt lat="47.86512" lon="12.77471">
        <ele>567.028685</ele>
        <time>2022-09-12T21:17:49.796Z</time>
      </trkpt>
      <trkpt lat="47.86575" lon="12.77375">
        <ele>569.009204</ele>
        <time>2022-09-12T21:18:22.624Z</time>
      </trkpt>
      <trkpt lat="47.86588" lon="12.77336">
        <ele>569.656678</ele>
        <time>2022-09-12T21:18:33.019Z</time>
      </trkpt>
      <trkpt lat="47.86596" lon="12.77285">
        <ele>570.363842</ele>
        <time>2022-09-12T21:18:45.266Z</time>
      </trkpt>
      <trkpt lat="47.8659" lon="12.77091">
        <ele>572.356671</ele>
        <time>2022-09-12T21:19:30.365Z</time>
      </trkpt>
      <trkpt lat="47.86595" lon="12.76977">
        <ele>573.230612</ele>
        <time>2022-09-12T21:19:55.233Z</time>
      </trkpt>
      <trkpt lat="47.86607" lon="12.76931">
        <ele>573.461806</ele>
        <time>2022-09-12T21:20:04.628Z</time>
      </trkpt>
      <trkpt lat="47.86627" lon="12.76879">
        <ele>573.755646</ele>
        <time>2022-09-12T21:20:16.176Z</time>
      </trkpt>
      <trkpt lat="47.86693" lon="12.76733">
        <ele>575.291089</ele>
        <time>2022-09-12T21:20:51.060Z</time>
      </trkpt>
      <trkpt lat="47.86707" lon="12.76684">
        <ele>576.045744</ele>
        <time>2022-09-12T21:21:03.351Z</time>
      </trkpt>
      <trkpt lat="47.86716" lon="12.76631">
        <ele>576.821969</ele>
        <time>2022-09-12T21:21:16.206Z</time>
      </trkpt>
      <trkpt lat="47.86715" lon="12.76548">
        <ele>578.012983</ele>
        <time>2022-09-12T21:21:39.141Z</time>
      </trkpt>
      <trkpt lat="47.86698" lon="12.7631">
        <ele>586.325754</ele>
        <time>2022-09-12T21:23:03.395Z</time>
      </trkpt>
      <trkpt lat="47.86698" lon="12.76218">
        <ele>589.6202</ele>
        <time>2022-09-12T21:23:38.605Z</time>
      </trkpt>
      <trkpt lat="47.86708" lon="12.76102">
        <ele>593.833339</ele>
        <time>2022-09-12T21:24:21.260Z</time>
      </trkpt>
      <trkpt lat="47.86712" lon="12.76065">
        <ele>595.183313</ele>
        <time>2022-09-12T21:24:34.168Z</time>
      </trkpt>
      <trkpt lat="47.86704" lon="12.75953">
        <ele>598.197569</ele>
        <time>2022-09-12T21:25:10.601Z</time>
      </trkpt>
      <trkpt lat="47.86695" lon="12.75869">
        <ele>599.674413</ele>
        <time>2022-09-12T21:25:33.760Z</time>
      </trkpt>
      <trkpt lat="47.86678" lon="12.75781">
        <ele>601.279918</ele>
        <time>2022-09-12T21:25:55.218Z</time>
      </trkpt>
      <trkpt lat="47.86661" lon="12.75652">
        <ele>602.556224</ele>
        <time>2022-09-12T21:26:22.112Z</time>
      </trkpt>
      <trkpt lat="47.86659" lon="12.75632">
        <ele>602.699501</ele>
        <time>2022-09-12T21:26:26.286Z</time>
      </trkpt>
      <trkpt lat="47.86658" lon="12.75622">
        <ele>602.76675</ele>
        <time>2022-09-12T21:26:28.227Z</time>
      </trkpt>
      <trkpt lat="47.86645" lon="12.75445">
        <ele>604.284862</ele>
        <time>2022-09-12T21:27:06.212Z</time>
      </trkpt>
      <trkpt lat="47.86644" lon="12.75316">
        <ele>606.098611</ele>
        <time>2022-09-12T21:27:38.415Z</time>
      </trkpt>
      <trkpt lat="47.86651" lon="12.7505">
        <ele>609.77255</ele>
        <time>2022-09-12T21:28:47.404Z</time>
      </trkpt>
      <trkpt lat="47.8666" lon="12.74907">
        <ele>611.297612</ele>
        <time>2022-09-12T21:29:19.906Z</time>
      </trkpt>
      <trkpt lat="47.86678" lon="12.74773">
        <ele>611.634138</ele>
        <time>2022-09-12T21:29:46.722Z</time>
      </trkpt>
      <trkpt lat="47.8671" lon="12.74573">
        <ele>610.838031</ele>
        <time>2022-09-12T21:30:20.669Z</time>
      </trkpt>
      <trkpt lat="47.86731" lon="12.74417">
        <ele>609.307952</ele>
        <time>2022-09-12T21:30:43.907Z</time>
      </trkpt>
      <trkpt lat="47.86737" lon="12.74314">
        <ele>606.29482</ele>
        <time>2022-09-12T21:30:57.584Z</time>
      </trkpt>
      <trkpt lat="47.86737" lon="12.74183">
        <ele>602.446926</ele>
        <time>2022-09-12T21:31:13.414Z</time>
      </trkpt>
      <trkpt lat="47.86746" lon="12.74115">
        <ele>600.00856</ele>
        <time>2022-09-12T21:31:21.555Z</time>
      </trkpt>
      <trkpt lat="47.86761" lon="12.74046">
        <ele>597.160347</ele>
        <time>2022-09-12T21:31:30.125Z</time>
      </trkpt>
      <trkpt lat="47.86768" lon="12.73992">
        <ele>594.995472</ele>
        <time>2022-09-12T21:31:36.644Z</time>
      </trkpt>
      <trkpt lat="47.86766" lon="12.73936">
        <ele>592.820096</ele>
        <time>2022-09-12T21:31:43.176Z</time>
      </trkpt>
      <trkpt lat="47.86756" lon="12.73899">
        <ele>591.252336</ele>
        <time>2022-09-12T21:31:47.937Z</time>
      </trkpt>
      <trkpt lat="47.86722" lon="12.73818">
        <ele>589.128845</ele>
        <time>2022-09-12T21:31:59.522Z</time>
      </trkpt>
      <trkpt lat="47.86711" lon="12.73769">
        <ele>588.012343</ele>
        <time>2022-09-12T21:32:06.150Z</time>
      </trkpt>
      <trkpt lat="47.8671" lon="12.73731">
        <ele>587.202416</ele>
        <time>2022-09-12T21:32:11.086Z</time>
      </trkpt>
      <trkpt lat="47.86729" lon="12.73498">
        <ele>586.2499</ele>
        <time>2022-09-12T21:32:48.369Z</time>
      </trkpt>
      <trkpt lat="47.86753" lon="12.73351">
        <ele>588.007594</ele>
        <time>2022-09-12T21:33:28.511Z</time>
      </trkpt>
      <trkpt lat="47.86786" lon="12.73229">
        <ele>592.217736</ele>
        <time>2022-09-12T21:34:14.688Z</time>
      </trkpt>
      <trkpt lat="47.86821" lon="12.73131">
        <ele>595.741463</ele>
        <time>2022-09-12T21:34:54.507Z</time>
      </trkpt>
      <trkpt lat="47.86877" lon="12.73014">
        <ele>599.340345</ele>
        <time>2022-09-12T21:35:41.092Z</time>
      </trkpt>
      <trkpt lat="47.87069" lon="12.72705">
        <ele>606.807282</ele>
        <time>2022-09-12T21:37:29.457Z</time>
      </trkpt>
      <trkpt lat="47.87118" lon="12.72619">
        <ele>607.880688</ele>
        <time>2022-09-12T21:37:53.538Z</time>
      </trkpt>
      <trkpt lat="47.87186" lon="12.7248">
        <ele>609.069137</ele>
        <time>2022-09-12T21:38:32.155Z</time>
      </trkpt>
      <trkpt lat="47.87223" lon="12.72395">
        <ele>609.118631</ele>
        <time>2022-09-12T21:38:51.285Z</time>
      </trkpt>
      <trkpt lat="47.87241" lon="12.72312">
        <ele>609.161562</ele>
        <time>2022-09-12T21:39:06.105Z</time>
      </trkpt>
      <trkpt lat="47.87262" lon="12.72107">
        <ele>606.712017</ele>
        <time>2022-09-12T21:39:36.091Z</time>
      </trkpt>
      <trkpt lat="47.87263" lon="12.72095">
        <ele>606.541642</ele>
        <time>2022-09-12T21:39:37.717Z</time>
      </trkpt>
      <trkpt lat="47.87284" lon="12.7182">
        <ele>602.230307</ele>
        <time>2022-09-12T21:40:14.633Z</time>
      </trkpt>
      <trkpt lat="47.87294" lon="12.71743">
        <ele>601.173552</ele>
        <time>2022-09-12T21:40:25.947Z</time>
      </trkpt>
      <trkpt lat="47.87303" lon="12.71737">
        <ele>601.250776</ele>
        <time>2022-09-12T21:40:28.051Z</time>
      </trkpt>
      <trkpt lat="47.87311" lon="12.71705">
        <ele>601.434104</ele>
        <time>2022-09-12T21:40:33.498Z</time>
      </trkpt>
      <trkpt lat="47.87316" lon="12.71618">
        <ele>601.911513</ele>
        <time>2022-09-12T21:40:50.139Z</time>
      </trkpt>
      <trkpt lat="47.87316" lon="12.71557">
        <ele>602.240133</ele>
        <time>2022-09-12T21:41:04.489Z</time>
      </trkpt>
      <trkpt lat="47.87309" lon="12.71471">
        <ele>603.125631</ele>
        <time>2022-09-12T21:41:26.835Z</time>
      </trkpt>
      <trkpt lat="47.87301" lon="12.71441">
        <ele>603.843568</ele>
        <time>2022-09-12T21:41:36.121Z</time>
      </trkpt>
      <trkpt lat="47.87274" lon="12.71396">
        <ele>605.210461</ele>
        <time>2022-09-12T21:41:54.648Z</time>
      </trkpt>
      <trkpt lat="47.8727" lon="12.71369">
        <ele>605.81965</ele>
        <time>2022-09-12T21:42:03.171Z</time>
      </trkpt>
      <trkpt lat="47.87275" lon="12.71356">
        <ele>606.156169</ele>
        <time>2022-09-12T21:42:08.139Z</time>
      </trkpt>
      <trkpt lat="47.87285" lon="12.71352">
        <ele>606.489527</ele>
        <time>2022-09-12T21:42:12.645Z</time>
      </trkpt>
      <trkpt lat="47.87315" lon="12.71344">
        <ele>607.492264</ele>
        <time>2022-09-12T21:42:26.304Z</time>
      </trkpt>
      <trkpt lat="47.87367" lon="12.71329">
        <ele>608.820411</ele>
        <time>2022-09-12T21:42:47.686Z</time>
      </trkpt>
      <trkpt lat="47.87363" lon="12.71256">
        <ele>609.461338</ele>
        <time>2022-09-12T21:43:05.245Z</time>
      </trkpt>
      <trkpt lat="47.87367" lon="12.71181">
        <ele>610.122427</ele>
        <time>2022-09-12T21:43:21.066Z</time>
      </trkpt>
      <trkpt lat="47.87384" lon="12.71118">
        <ele>610.719397</ele>
        <time>2022-09-12T21:43:34.028Z</time>
      </trkpt>
      <trkpt lat="47.87406" lon="12.71072">
        <ele>610.921161</ele>
        <time>2022-09-12T21:43:44.567Z</time>
      </trkpt>
      <trkpt lat="47.87432" lon="12.71014">
        <ele>610.980099</ele>
        <time>2022-09-12T21:43:56.960Z</time>
      </trkpt>
      <trkpt lat="47.87438" lon="12.70992">
        <ele>611.000382</ele>
        <time>2022-09-12T21:44:01.192Z</time>
      </trkpt>
      <trkpt lat="47.87442" lon="12.70946">
        <ele>611.039599</ele>
        <time>2022-09-12T21:44:09.318Z</time>
      </trkpt>
      <trkpt lat="47.87441" lon="12.70924">
        <ele>611.05771</ele>
        <time>2022-09-12T21:44:13.042Z</time>
      </trkpt>
      <trkpt lat="47.87423" lon="12.70704">
        <ele>611.563276</ele>
        <time>2022-09-12T21:44:55.743Z</time>
      </trkpt>
      <trkpt lat="47.87423" lon="12.70632">
        <ele>611.774303</ele>
        <time>2022-09-12T21:45:09.908Z</time>
      </trkpt>
      <trkpt lat="47.87433" lon="12.70543">
        <ele>611.938241</ele>
        <time>2022-09-12T21:45:27.239Z</time>
      </trkpt>
      <trkpt lat="47.87462" lon="12.7037">
        <ele>612.077591</ele>
        <time>2022-09-12T21:46:00.124Z</time>
      </trkpt>
      <trkpt lat="47.87504" lon="12.70295">
        <ele>612.053835</ele>
        <time>2022-09-12T21:46:16.665Z</time>
      </trkpt>
      <trkpt lat="47.8752" lon="12.70255">
        <ele>612.004815</ele>
        <time>2022-09-12T21:46:24.326Z</time>
      </trkpt>
      <trkpt lat="47.87543" lon="12.7013">
        <ele>611.867248</ele>
        <time>2022-09-12T21:46:46.143Z</time>
      </trkpt>
      <trkpt lat="47.8752" lon="12.70105">
        <ele>611.90311</ele>
        <time>2022-09-12T21:46:54.101Z</time>
      </trkpt>
      <trkpt lat="47.87508" lon="12.70098">
        <ele>612.182695</ele>
        <time>2022-09-12T21:47:00.258Z</time>
      </trkpt>
      <trkpt lat="47.87505" lon="12.70093">
        <ele>612.28102</ele>
        <time>2022-09-12T21:47:02.394Z</time>
      </trkpt>
      <trkpt lat="47.87526" lon="12.70007">
        <ele>613.615552</ele>
        <time>2022-09-12T21:47:33.586Z</time>
      </trkpt>
      <trkpt lat="47.87515" lon="12.69926">
        <ele>614.809572</ele>
        <time>2022-09-12T21:48:04.596Z</time>
      </trkpt>
      <trkpt lat="47.87495" lon="12.69806">
        <ele>617.544128</ele>
        <time>2022-09-12T21:48:43.859Z</time>
      </trkpt>
      <trkpt lat="47.87477" lon="12.69742">
        <ele>619.640323</ele>
        <time>2022-09-12T21:49:08.685Z</time>
      </trkpt>
      <trkpt lat="47.87469" lon="12.69568">
        <ele>624.459724</ele>
        <time>2022-09-12T21:50:06.678Z</time>
      </trkpt>
      <trkpt lat="47.87482" lon="12.69526">
        <ele>625.340153</ele>
        <time>2022-09-12T21:50:20.544Z</time>
      </trkpt>
      <trkpt lat="47.87483" lon="12.69481">
        <ele>626.193824</ele>
        <time>2022-09-12T21:50:33.571Z</time>
      </trkpt>
      <trkpt lat="47.8747" lon="12.69323">
        <ele>628.998795</ele>
        <time>2022-09-12T21:51:13.916Z</time>
      </trkpt>
      <trkpt lat="47.87455" lon="12.69232">
        <ele>629.575944</ele>
        <time>2022-09-12T21:51:34.733Z</time>
      </trkpt>
      <trkpt lat="47.87448" lon="12.69056">
        <ele>630.399791</ele>
        <time>2022-09-12T21:52:11.011Z</time>
      </trkpt>
      <trkpt lat="47.87424" lon="12.69056">
        <ele>630.145568</ele>
        <time>2022-09-12T21:52:18.175Z</time>
      </trkpt>
      <trkpt lat="47.87402" lon="12.69041">
        <ele>629.903328</ele>
        <time>2022-09-12T21:52:24.672Z</time>
      </trkpt>
      <trkpt lat="47.87382" lon="12.68994">
        <ele>629.514786</ele>
        <time>2022-09-12T21:52:33.960Z</time>
      </trkpt>
      <trkpt lat="47.8738" lon="12.68962">
        <ele>629.296558</ele>
        <time>2022-09-12T21:52:38.595Z</time>
      </trkpt>
      <trkpt lat="47.87386" lon="12.68924">
        <ele>629.022822</ele>
        <time>2022-09-12T21:52:44.306Z</time>
      </trkpt>
      <trkpt lat="47.87421" lon="12.68805">
        <ele>627.968276</ele>
        <time>2022-09-12T21:53:03.361Z</time>
      </trkpt>
      <trkpt lat="47.87423" lon="12.68782">
        <ele>627.767888</ele>
        <time>2022-09-12T21:53:06.566Z</time>
      </trkpt>
      <trkpt lat="47.87421" lon="12.68745">
        <ele>627.439399</ele>
        <time>2022-09-12T21:53:12.317Z</time>
      </trkpt>
      <trkpt lat="47.87409" lon="12.68708">
        <ele>627.080824</ele>
        <time>2022-09-12T21:53:18.923Z</time>
      </trkpt>
      <trkpt lat="47.87393" lon="12.68685">
        <ele>626.783944</ele>
        <time>2022-09-12T21:53:24.277Z</time>
      </trkpt>
      <trkpt lat="47.87372" lon="12.68669">
        <ele>626.475895</ele>
        <time>2022-09-12T21:53:30.436Z</time>
      </trkpt>
      <trkpt lat="47.87372" lon="12.68642">
        <ele>626.341061</ele>
        <time>2022-09-12T21:53:35.041Z</time>
      </trkpt>
      <trkpt lat="47.87329" lon="12.68399">
        <ele>627.147253</ele>
        <time>2022-09-12T21:54:28.977Z</time>
      </trkpt>
      <trkpt lat="47.87313" lon="12.68292">
        <ele>626.034106</ele>
        <time>2022-09-12T21:54:48.745Z</time>
      </trkpt>
      <trkpt lat="47.87309" lon="12.68259">
        <ele>625.66574</ele>
        <time>2022-09-12T21:54:53.546Z</time>
      </trkpt>
      <trkpt lat="47.87327" lon="12.68216">
        <ele>625.09853</ele>
        <time>2022-09-12T21:55:00.857Z</time>
      </trkpt>
      <trkpt lat="47.87356" lon="12.68078">
        <ele>622.835586</ele>
        <time>2022-09-12T21:55:21.000Z</time>
      </trkpt>
      <trkpt lat="47.87367" lon="12.68055">
        <ele>622.242226</ele>
        <time>2022-09-12T21:55:24.405Z</time>
      </trkpt>
      <trkpt lat="47.87382" lon="12.68039">
        <ele>621.647231</ele>
        <time>2022-09-12T21:55:28.074Z</time>
      </trkpt>
      <trkpt lat="47.87438" lon="12.68001">
        <ele>619.674767</ele>
        <time>2022-09-12T21:55:39.921Z</time>
      </trkpt>
      <trkpt lat="47.87496" lon="12.67927">
        <ele>617.677023</ele>
        <time>2022-09-12T21:55:54.962Z</time>
      </trkpt>
      <trkpt lat="47.87509" lon="12.67917">
        <ele>617.374756</ele>
        <time>2022-09-12T21:55:57.985Z</time>
      </trkpt>
      <trkpt lat="47.87554" lon="12.67894">
        <ele>616.404708</ele>
        <time>2022-09-12T21:56:08.417Z</time>
      </trkpt>
      <trkpt lat="47.87589" lon="12.67833">
        <ele>615.302229</ele>
        <time>2022-09-12T21:56:20.029Z</time>
      </trkpt>
      <trkpt lat="47.87598" lon="12.67807">
        <ele>614.913118</ele>
        <time>2022-09-12T21:56:24.167Z</time>
      </trkpt>
      <trkpt lat="47.87594" lon="12.67516">
        <ele>612.673927</ele>
        <time>2022-09-12T21:57:07.662Z</time>
      </trkpt>
      <trkpt lat="47.87587" lon="12.67339">
        <ele>614.203055</ele>
        <time>2022-09-12T21:57:42.656Z</time>
      </trkpt>
      <trkpt lat="47.87596" lon="12.67332">
        <ele>614.326266</ele>
        <time>2022-09-12T21:57:46.521Z</time>
      </trkpt>
      <trkpt lat="47.8761" lon="12.67332">
        <ele>614.504577</ele>
        <time>2022-09-12T21:57:51.728Z</time>
      </trkpt>
      <trkpt lat="47.8767" lon="12.67312">
        <ele>616.418156</ele>
        <time>2022-09-12T21:58:20.574Z</time>
      </trkpt>
      <trkpt lat="47.87678" lon="12.67308">
        <ele>616.776416</ele>
        <time>2022-09-12T21:58:23.987Z</time>
      </trkpt>
      <trkpt lat="47.87678" lon="12.67301">
        <ele>617.008152</ele>
        <time>2022-09-12T21:58:26.285Z</time>
      </trkpt>
      <trkpt lat="47.87689" lon="12.6716">
        <ele>621.477914</ele>
        <time>2022-09-12T21:59:15.383Z</time>
      </trkpt>
      <trkpt lat="47.87693" lon="12.67034">
        <ele>624.337046</ele>
        <time>2022-09-12T22:00:00.137Z</time>
      </trkpt>
      <trkpt lat="47.877" lon="12.66818">
        <ele>626.803253</ele>
        <time>2022-09-12T22:00:50.461Z</time>
      </trkpt>
      <trkpt lat="47.87705" lon="12.66745">
        <ele>624.616024</ele>
        <time>2022-09-12T22:00:59.935Z</time>
      </trkpt>
      <trkpt lat="47.87709" lon="12.66676">
        <ele>622.555031</ele>
        <time>2022-09-12T22:01:08.315Z</time>
      </trkpt>
      <trkpt lat="47.87712" lon="12.66638">
        <ele>621.440021</ele>
        <time>2022-09-12T22:01:12.708Z</time>
      </trkpt>
      <trkpt lat="47.87654" lon="12.66564">
        <ele>618.029091</ele>
        <time>2022-09-12T22:01:26.073Z</time>
      </trkpt>
      <trkpt lat="47.87641" lon="12.66519">
        <ele>616.595909</ele>
        <time>2022-09-12T22:01:31.656Z</time>
      </trkpt>
      <trkpt lat="47.87644" lon="12.66481">
        <ele>615.470905</ele>
        <time>2022-09-12T22:01:36.135Z</time>
      </trkpt>
      <trkpt lat="47.87647" lon="12.66471">
        <ele>615.162509</ele>
        <time>2022-09-12T22:01:37.378Z</time>
      </trkpt>
      <trkpt lat="47.87653" lon="12.66476">
        <ele>614.881499</ele>
        <time>2022-09-12T22:01:38.527Z</time>
      </trkpt>
      <trkpt lat="47.87677" lon="12.66455">
        <ele>613.647443</ele>
        <time>2022-09-12T22:01:43.795Z</time>
      </trkpt>
      <trkpt lat="47.87678" lon="12.66434">
        <ele>613.04253</ele>
        <time>2022-09-12T22:01:46.482Z</time>
      </trkpt>
      <trkpt lat="47.87668" lon="12.6639">
        <ele>611.654995</ele>
        <time>2022-09-12T22:01:53.215Z</time>
      </trkpt>
      <trkpt lat="47.87682" lon="12.6624">
        <ele>612.765528</ele>
        <time>2022-09-12T22:02:25.656Z</time>
      </trkpt>
      <trkpt lat="47.87692" lon="12.66189">
        <ele>613.28514</ele>
        <time>2022-09-12T22:02:39.948Z</time>
      </trkpt>
      <trkpt lat="47.87695" lon="12.66144">
        <ele>613.728724</ele>
        <time>2022-09-12T22:02:52.890Z</time>
      </trkpt>
      <trkpt lat="47.87684" lon="12.6605">
        <ele>614.191718</ele>
        <time>2022-09-12T22:03:17.453Z</time>
      </trkpt>
      <trkpt lat="47.87678" lon="12.65978">
        <ele>614.40481</ele>
        <time>2022-09-12T22:03:33.072Z</time>
      </trkpt>
      <trkpt lat="47.87677" lon="12.65951">
        <ele>614.481112</ele>
        <time>2022-09-12T22:03:37.592Z</time>
      </trkpt>
      <trkpt lat="47.87675" lon="12.65931">
        <ele>614.540279</ele>
        <time>2022-09-12T22:03:41.020Z</time>
      </trkpt>
      <trkpt lat="47.87678" lon="12.65814">
        <ele>614.052096</ele>
        <time>2022-09-12T22:03:58.754Z</time>
      </trkpt>
      <trkpt lat="47.87689" lon="12.6574">
        <ele>612.527911</ele>
        <time>2022-09-12T22:04:08.918Z</time>
      </trkpt>
      <trkpt lat="47.87739" lon="12.656">
        <ele>609.357093</ele>
        <time>2022-09-12T22:04:29.182Z</time>
      </trkpt>
      <trkpt lat="47.87741" lon="12.65571">
        <ele>608.563965</ele>
        <time>2022-09-12T22:04:32.927Z</time>
      </trkpt>
      <trkpt lat="47.87721" lon="12.65534">
        <ele>607.25077</ele>
        <time>2022-09-12T22:04:39.061Z</time>
      </trkpt>
      <trkpt lat="47.8769" lon="12.65501">
        <ele>605.698726</ele>
        <time>2022-09-12T22:04:46.181Z</time>
      </trkpt>
      <trkpt lat="47.87607" lon="12.65493">
        <ele>602.31735</ele>
        <time>2022-09-12T22:05:01.783Z</time>
      </trkpt>
      <trkpt lat="47.876" lon="12.65492">
        <ele>602.035636</ele>
        <time>2022-09-12T22:05:03.007Z</time>
      </trkpt>
      <trkpt lat="47.87536" lon="12.6547">
        <ele>598.25082</ele>
        <time>2022-09-12T22:05:15.006Z</time>
      </trkpt>
      <trkpt lat="47.875" lon="12.6549">
        <ele>596.066789</ele>
        <time>2022-09-12T22:05:21.701Z</time>
      </trkpt>
      <trkpt lat="47.87498" lon="12.6549">
        <ele>595.964211</ele>
        <time>2022-09-12T22:05:22.023Z</time>
      </trkpt>
      <trkpt lat="47.87483" lon="12.65489">
        <ele>595.108848</ele>
        <time>2022-09-12T22:05:24.690Z</time>
      </trkpt>
      <trkpt lat="47.87479" lon="12.65489">
        <ele>594.880769</ele>
        <time>2022-09-12T22:05:25.385Z</time>
      </trkpt>
      <trkpt lat="47.87477" lon="12.65486">
        <ele>594.723128</ele>
        <time>2022-09-12T22:05:25.867Z</time>
      </trkpt>
      <trkpt lat="47.87474" lon="12.65471">
        <ele>594.124811</ele>
        <time>2022-09-12T22:05:27.630Z</time>
      </trkpt>
      <trkpt lat="47.87473" lon="12.65429">
        <ele>592.518148</ele>
        <time>2022-09-12T22:05:32.501Z</time>
      </trkpt>
      <trkpt lat="47.87453" lon="12.65393">
        <ele>590.874226</ele>
        <time>2022-09-12T22:05:38.022Z</time>
      </trkpt>
      <trkpt lat="47.87432" lon="12.65373">
        <ele>589.685387</ele>
        <time>2022-09-12T22:05:42.309Z</time>
      </trkpt>
      <trkpt lat="47.87409" lon="12.65357">
        <ele>588.387346</ele>
        <time>2022-09-12T22:05:47.016Z</time>
      </trkpt>
      <trkpt lat="47.87403" lon="12.6534">
        <ele>587.763188</ele>
        <time>2022-09-12T22:05:49.336Z</time>
      </trkpt>
      <trkpt lat="47.87408" lon="12.65261">
        <ele>585.149372</ele>
        <time>2022-09-12T22:05:58.728Z</time>
      </trkpt>
      <trkpt lat="47.87414" lon="12.64986">
        <ele>579.173638</ele>
        <time>2022-09-12T22:06:35.392Z</time>
      </trkpt>
      <trkpt lat="47.87407" lon="12.64915">
        <ele>578.036755</ele>
        <time>2022-09-12T22:06:45.703Z</time>
      </trkpt>
      <trkpt lat="47.87397" lon="12.64865">
        <ele>577.773183</ele>
        <time>2022-09-12T22:06:53.348Z</time>
      </trkpt>
      <trkpt lat="47.87386" lon="12.64814">
        <ele>577.499759</ele>
        <time>2022-09-12T22:07:01.633Z</time>
      </trkpt>
      <trkpt lat="47.87383" lon="12.64802">
        <ele>577.435724</ele>
        <time>2022-09-12T22:07:03.656Z</time>
      </trkpt>
      <trkpt lat="47.87381" lon="12.64786">
        <ele>577.353296</ele>
        <time>2022-09-12T22:07:06.243Z</time>
      </trkpt>
      <trkpt lat="47.87377" lon="12.64763">
        <ele>577.235732</ele>
        <time>2022-09-12T22:07:09.945Z</time>
      </trkpt>
      <trkpt lat="47.87408" lon="12.64689">
        <ele>576.791225</ele>
        <time>2022-09-12T22:07:24.913Z</time>
      </trkpt>
      <trkpt lat="47.87423" lon="12.64646">
        <ele>577.068631</ele>
        <time>2022-09-12T22:07:34.657Z</time>
      </trkpt>
      <trkpt lat="47.87424" lon="12.64546">
        <ele>577.904875</ele>
        <time>2022-09-12T22:07:57.953Z</time>
      </trkpt>
      <trkpt lat="47.87431" lon="12.64514">
        <ele>578.181188</ele>
        <time>2022-09-12T22:08:06.551Z</time>
      </trkpt>
      <trkpt lat="47.87443" lon="12.64487">
        <ele>578.450802</ele>
        <time>2022-09-12T22:08:14.179Z</time>
      </trkpt>
      <trkpt lat="47.87463" lon="12.64472">
        <ele>578.730159</ele>
        <time>2022-09-12T22:08:22.466Z</time>
      </trkpt>
      <trkpt lat="47.87461" lon="12.64464">
        <ele>578.809034</ele>
        <time>2022-09-12T22:08:24.861Z</time>
      </trkpt>
      <trkpt lat="47.8744" lon="12.64395">
        <ele>579.162942</ele>
        <time>2022-09-12T22:08:40.046Z</time>
      </trkpt>
      <trkpt lat="47.87455" lon="12.64386">
        <ele>579.244297</ele>
        <time>2022-09-12T22:08:44.833Z</time>
      </trkpt>
      <trkpt lat="47.87462" lon="12.6437">
        <ele>579.311944</ele>
        <time>2022-09-12T22:08:49.130Z</time>
      </trkpt>
      <trkpt lat="47.8746" lon="12.64351">
        <ele>579.377128</ele>
        <time>2022-09-12T22:08:53.916Z</time>
      </trkpt>
      <trkpt lat="47.87534" lon="12.64277">
        <ele>579.835409</ele>
        <time>2022-09-12T22:09:20.753Z</time>
      </trkpt>
      <trkpt lat="47.87583" lon="12.64217">
        <ele>580.712769</ele>
        <time>2022-09-12T22:09:42.663Z</time>
      </trkpt>
      <trkpt lat="47.87665" lon="12.641">
        <ele>582.50523</ele>
        <time>2022-09-12T22:10:27.458Z</time>
      </trkpt>
      <trkpt lat="47.87685" lon="12.6407">
        <ele>582.733955</ele>
        <time>2022-09-12T22:10:38.943Z</time>
      </trkpt>
      <trkpt lat="47.87698" lon="12.64061">
        <ele>582.732159</ele>
        <time>2022-09-12T22:10:44.814Z</time>
      </trkpt>
      <trkpt lat="47.8771" lon="12.64057">
        <ele>582.730673</ele>
        <time>2022-09-12T22:10:49.592Z</time>
      </trkpt>
      <trkpt lat="47.87832" lon="12.64007">
        <ele>582.715212</ele>
        <time>2022-09-12T22:11:26.832Z</time>
      </trkpt>
      <trkpt lat="47.87967" lon="12.64001">
        <ele>580.908629</ele>
        <time>2022-09-12T22:11:56.461Z</time>
      </trkpt>
      <trkpt lat="47.88066" lon="12.63997">
        <ele>581.961533</ele>
        <time>2022-09-12T22:12:35.708Z</time>
      </trkpt>
      <trkpt lat="47.88085" lon="12.64005">
        <ele>582.872723</ele>
        <time>2022-09-12T22:12:46.974Z</time>
      </trkpt>
      <trkpt lat="47.88086" lon="12.63907">
        <ele>585.925192</ele>
        <time>2022-09-12T22:13:21.365Z</time>
      </trkpt>
      <trkpt lat="47.88098" lon="12.6379">
        <ele>589.84278</ele>
        <time>2022-09-12T22:14:10.359Z</time>
      </trkpt>
      <trkpt lat="47.8809" lon="12.63712">
        <ele>592.807077</ele>
        <time>2022-09-12T22:14:43.689Z</time>
      </trkpt>
      <trkpt lat="47.88071" lon="12.63616">
        <ele>596.534228</ele>
        <time>2022-09-12T22:15:19.210Z</time>
      </trkpt>
      <trkpt lat="47.88104" lon="12.6359">
        <ele>598.469087</ele>
        <time>2022-09-12T22:15:34.322Z</time>
      </trkpt>
      <trkpt lat="47.88184" lon="12.63537">
        <ele>599.887169</ele>
        <time>2022-09-12T22:16:04.821Z</time>
      </trkpt>
      <trkpt lat="47.88222" lon="12.63509">
        <ele>600.574399</ele>
        <time>2022-09-12T22:16:18.232Z</time>
      </trkpt>
      <trkpt lat="47.88329" lon="12.63401">
        <ele>602.153374</ele>
        <time>2022-09-12T22:16:58.439Z</time>
      </trkpt>
      <trkpt lat="47.88327" lon="12.63388">
        <ele>602.246534</ele>
        <time>2022-09-12T22:17:01.237Z</time>
      </trkpt>
      <trkpt lat="47.88369" lon="12.63344">
        <ele>602.758911</ele>
        <time>2022-09-12T22:17:17.807Z</time>
      </trkpt>
      <trkpt lat="47.88357" lon="12.63296">
        <ele>603.1011</ele>
        <time>2022-09-12T22:17:29.158Z</time>
      </trkpt>
      <trkpt lat="47.88356" lon="12.63287">
        <ele>603.17071</ele>
        <time>2022-09-12T22:17:31.077Z</time>
      </trkpt>
      <trkpt lat="47.88354" lon="12.63254">
        <ele>603.47049</ele>
        <time>2022-09-12T22:17:38.630Z</time>
      </trkpt>
      <trkpt lat="47.88353" lon="12.63223">
        <ele>603.760026</ele>
        <time>2022-09-12T22:17:46.089Z</time>
      </trkpt>
      <trkpt lat="47.88349" lon="12.63164">
        <ele>604.29741</ele>
        <time>2022-09-12T22:18:00.153Z</time>
      </trkpt>
      <trkpt lat="47.88345" lon="12.63107">
        <ele>604.813908</ele>
        <time>2022-09-12T22:18:13.291Z</time>
      </trkpt>
      <trkpt lat="47.88342" lon="12.63059">
        <ele>605.249577</ele>
        <time>2022-09-12T22:18:24.180Z</time>
      </trkpt>
      <trkpt lat="47.88348" lon="12.63016">
        <ele>605.685466</ele>
        <time>2022-09-12T22:18:34.369Z</time>
      </trkpt>
      <trkpt lat="47.88371" lon="12.62942">
        <ele>606.727397</ele>
        <time>2022-09-12T22:18:53.247Z</time>
      </trkpt>
      <trkpt lat="47.8839" lon="12.62881">
        <ele>607.595279</ele>
        <time>2022-09-12T22:19:08.193Z</time>
      </trkpt>
      <trkpt lat="47.88429" lon="12.62763">
        <ele>609.501809</ele>
        <time>2022-09-12T22:19:42.086Z</time>
      </trkpt>
      <trkpt lat="47.88435" lon="12.62745">
        <ele>609.991094</ele>
        <time>2022-09-12T22:19:49.290Z</time>
      </trkpt>
      <trkpt lat="47.8844" lon="12.62728">
        <ele>610.436739</ele>
        <time>2022-09-12T22:19:55.860Z</time>
      </trkpt>
      <trkpt lat="47.88449" lon="12.62702">
        <ele>611.115201</ele>
        <time>2022-09-12T22:20:05.496Z</time>
      </trkpt>
      <trkpt lat="47.88462" lon="12.62662">
        <ele>612.16048</ele>
        <time>2022-09-12T22:20:21.509Z</time>
      </trkpt>
      <trkpt lat="47.88479" lon="12.62611">
        <ele>613.493751</ele>
        <time>2022-09-12T22:20:40.148Z</time>
      </trkpt>
      <trkpt lat="47.88501" lon="12.62543">
        <ele>615.289179</ele>
        <time>2022-09-12T22:21:01.523Z</time>
      </trkpt>
      <trkpt lat="47.88522" lon="12.62479">
        <ele>614.747269</ele>
        <time>2022-09-12T22:21:16.650Z</time>
      </trkpt>
      <trkpt lat="47.88527" lon="12.62463">
        <ele>614.605663</ele>
        <time>2022-09-12T22:21:20.660Z</time>
      </trkpt>
      <trkpt lat="47.88568" lon="12.62291">
        <ele>613.154221</ele>
        <time>2022-09-12T22:21:47.463Z</time>
      </trkpt>
      <trkpt lat="47.88576" lon="12.62267">
        <ele>612.57331</ele>
        <time>2022-09-12T22:21:50.945Z</time>
      </trkpt>
      <trkpt lat="47.88593" lon="12.6223">
        <ele>611.610173</ele>
        <time>2022-09-12T22:21:56.517Z</time>
      </trkpt>
      <trkpt lat="47.886" lon="12.62216">
        <ele>611.22155</ele>
        <time>2022-09-12T22:21:58.794Z</time>
      </trkpt>
      <trkpt lat="47.88628" lon="12.62168">
        <ele>609.848258</ele>
        <time>2022-09-12T22:22:07.124Z</time>
      </trkpt>
      <trkpt lat="47.88633" lon="12.62159">
        <ele>609.601632</ele>
        <time>2022-09-12T22:22:08.672Z</time>
      </trkpt>
      <trkpt lat="47.88636" lon="12.62151">
        <ele>609.411527</ele>
        <time>2022-09-12T22:22:09.912Z</time>
      </trkpt>
      <trkpt lat="47.88634" lon="12.62148">
        <ele>609.290486</ele>
        <time>2022-09-12T22:22:10.651Z</time>
      </trkpt>
      <trkpt lat="47.88664" lon="12.62067">
        <ele>607.383375</ele>
        <time>2022-09-12T22:22:23.805Z</time>
      </trkpt>
      <trkpt lat="47.88695" lon="12.61961">
        <ele>606.526506</ele>
        <time>2022-09-12T22:22:41.795Z</time>
      </trkpt>
      <trkpt lat="47.88709" lon="12.6188">
        <ele>605.902973</ele>
        <time>2022-09-12T22:22:55.085Z</time>
      </trkpt>
      <trkpt lat="47.88729" lon="12.61729">
        <ele>604.630657</ele>
        <time>2022-09-12T22:23:18.990Z</time>
      </trkpt>
      <trkpt lat="47.88743" lon="12.61658">
        <ele>603.980932</ele>
        <time>2022-09-12T22:23:30.135Z</time>
      </trkpt>
      <trkpt lat="47.88763" lon="12.61601">
        <ele>603.412431</ele>
        <time>2022-09-12T22:23:39.652Z</time>
      </trkpt>
      <trkpt lat="47.8878" lon="12.61557">
        <ele>602.916018</ele>
        <time>2022-09-12T22:23:47.112Z</time>
      </trkpt>
      <trkpt lat="47.88803" lon="12.6152">
        <ele>602.26221</ele>
        <time>2022-09-12T22:23:54.409Z</time>
      </trkpt>
      <trkpt lat="47.8889" lon="12.61416">
        <ele>600.144351</ele>
        <time>2022-09-12T22:24:17.601Z</time>
      </trkpt>
      <trkpt lat="47.88861" lon="12.61339">
        <ele>599.451919</ele>
        <time>2022-09-12T22:24:30.543Z</time>
      </trkpt>
      <trkpt lat="47.8882" lon="12.61198">
        <ele>598.844005</ele>
        <time>2022-09-12T22:24:56.518Z</time>
      </trkpt>
      <trkpt lat="47.88798" lon="12.61127">
        <ele>598.578732</ele>
        <time>2022-09-12T22:25:09.982Z</time>
      </trkpt>
      <trkpt lat="47.88795" lon="12.61116">
        <ele>598.570015</ele>
        <time>2022-09-12T22:25:12.401Z</time>
      </trkpt>
      <trkpt lat="47.88789" lon="12.61064">
        <ele>598.530645</ele>
        <time>2022-09-12T22:25:22.466Z</time>
      </trkpt>
      <trkpt lat="47.88798" lon="12.61008">
        <ele>598.488356</ele>
        <time>2022-09-12T22:25:33.302Z</time>
      </trkpt>
      <trkpt lat="47.88804" lon="12.60969">
        <ele>598.458026</ele>
        <time>2022-09-12T22:25:40.772Z</time>
      </trkpt>
      <trkpt lat="47.88815" lon="12.60955">
        <ele>598.442629</ele>
        <time>2022-09-12T22:25:44.796Z</time>
      </trkpt>
      <trkpt lat="47.88852" lon="12.60906">
        <ele>598.382247</ele>
        <time>2022-09-12T22:25:58.201Z</time>
      </trkpt>
      <trkpt lat="47.88888" lon="12.60859">
        <ele>598.214723</ele>
        <time>2022-09-12T22:26:10.105Z</time>
      </trkpt>
      <trkpt lat="47.88929" lon="12.60805">
        <ele>598.023423</ele>
        <time>2022-09-12T22:26:23.645Z</time>
      </trkpt>
      <trkpt lat="47.88943" lon="12.60787">
        <ele>597.958976</ele>
        <time>2022-09-12T22:26:28.562Z</time>
      </trkpt>
      <trkpt lat="47.88961" lon="12.60761">
        <ele>597.872345</ele>
        <time>2022-09-12T22:26:35.368Z</time>
      </trkpt>
      <trkpt lat="47.88983" lon="12.60693">
        <ele>597.840578</ele>
        <time>2022-09-12T22:26:49.422Z</time>
      </trkpt>
      <trkpt lat="47.88987" lon="12.60648">
        <ele>597.976477</ele>
        <time>2022-09-12T22:26:58.285Z</time>
      </trkpt>
      <trkpt lat="47.88977" lon="12.60519">
        <ele>598.369151</ele>
        <time>2022-09-12T22:27:24.764Z</time>
      </trkpt>
      <trkpt lat="47.88989" lon="12.60423">
        <ele>598.619008</ele>
        <time>2022-09-12T22:27:45.529Z</time>
      </trkpt>
      <trkpt lat="47.89026" lon="12.60279">
        <ele>598.870321</ele>
        <time>2022-09-12T22:28:18.455Z</time>
      </trkpt>
      <trkpt lat="47.89057" lon="12.60189">
        <ele>598.399415</ele>
        <time>2022-09-12T22:28:35.922Z</time>
      </trkpt>
      <trkpt lat="47.89023" lon="12.60172">
        <ele>596.733881</ele>
        <time>2022-09-12T22:28:44.089Z</time>
      </trkpt>
      <trkpt lat="47.88987" lon="12.6017">
        <ele>595.087445</ele>
        <time>2022-09-12T22:28:51.400Z</time>
      </trkpt>
      <trkpt lat="47.88979" lon="12.60165">
        <ele>594.677082</ele>
        <time>2022-09-12T22:28:53.090Z</time>
      </trkpt>
      <trkpt lat="47.88947" lon="12.59985">
        <ele>587.71469</ele>
        <time>2022-09-12T22:29:15.407Z</time>
      </trkpt>
      <trkpt lat="47.88936" lon="12.59942">
        <ele>585.282902</ele>
        <time>2022-09-12T22:29:20.832Z</time>
      </trkpt>
      <trkpt lat="47.88914" lon="12.599">
        <ele>582.536144</ele>
        <time>2022-09-12T22:29:26.945Z</time>
      </trkpt>
      <trkpt lat="47.88905" lon="12.59848">
        <ele>579.726355</ele>
        <time>2022-09-12T22:29:33.239Z</time>
      </trkpt>
      <trkpt lat="47.88938" lon="12.59688">
        <ele>573.3249</ele>
        <time>2022-09-12T22:29:53.590Z</time>
      </trkpt>
      <trkpt lat="47.8894" lon="12.59627">
        <ele>571.412888</ele>
        <time>2022-09-12T22:30:01.607Z</time>
      </trkpt>
      <trkpt lat="47.88936" lon="12.596">
        <ele>570.56297</ele>
        <time>2022-09-12T22:30:05.422Z</time>
      </trkpt>
      <trkpt lat="47.88923" lon="12.59551">
        <ele>568.949236</ele>
        <time>2022-09-12T22:30:12.854Z</time>
      </trkpt>
      <trkpt lat="47.88912" lon="12.59531">
        <ele>568.415001</ele>
        <time>2022-09-12T22:30:16.808Z</time>
      </trkpt>
      <trkpt lat="47.88848" lon="12.59444">
        <ele>568.500358</ele>
        <time>2022-09-12T22:30:37.782Z</time>
      </trkpt>
      <trkpt lat="47.88796" lon="12.59394">
        <ele>568.561461</ele>
        <time>2022-09-12T22:30:56.585Z</time>
      </trkpt>
      <trkpt lat="47.88786" lon="12.59385">
        <ele>568.572955</ele>
        <time>2022-09-12T22:31:00.547Z</time>
      </trkpt>
      <trkpt lat="47.88781" lon="12.59376">
        <ele>568.580489</ele>
        <time>2022-09-12T22:31:03.476Z</time>
      </trkpt>
      <trkpt lat="47.88776" lon="12.59326">
        <ele>569.315282</ele>
        <time>2022-09-12T22:31:19.528Z</time>
      </trkpt>
      <trkpt lat="47.88774" lon="12.59242">
        <ele>570.780944</ele>
        <time>2022-09-12T22:31:46.851Z</time>
      </trkpt>
      <trkpt lat="47.88767" lon="12.59229">
        <ele>571.059332</ele>
        <time>2022-09-12T22:31:52.596Z</time>
      </trkpt>
      <trkpt lat="47.88742" lon="12.59216">
        <ele>571.768527</ele>
        <time>2022-09-12T22:32:04.017Z</time>
      </trkpt>
      <trkpt lat="47.88723" lon="12.59192">
        <ele>572.413604</ele>
        <time>2022-09-12T22:32:12.837Z</time>
      </trkpt>
      <trkpt lat="47.88705" lon="12.59184">
        <ele>572.901386</ele>
        <time>2022-09-12T22:32:21.321Z</time>
      </trkpt>
      <trkpt lat="47.88713" lon="12.59131">
        <ele>572.605111</ele>
        <time>2022-09-12T22:32:32.582Z</time>
      </trkpt>
      <trkpt lat="47.88717" lon="12.58898">
        <ele>568.150813</ele>
        <time>2022-09-12T22:33:02.705Z</time>
      </trkpt>
      <trkpt lat="47.8873" lon="12.58737">
        <ele>563.007184</ele>
        <time>2022-09-12T22:33:21.685Z</time>
      </trkpt>
      <trkpt lat="47.88728" lon="12.58668">
        <ele>560.841659</ele>
        <time>2022-09-12T22:33:30.268Z</time>
      </trkpt>
      <trkpt lat="47.88718" lon="12.58614">
        <ele>559.4391</ele>
        <time>2022-09-12T22:33:37.691Z</time>
      </trkpt>
      <trkpt lat="47.88698" lon="12.58558">
        <ele>558.809</ele>
        <time>2022-09-12T22:33:46.914Z</time>
      </trkpt>
      <trkpt lat="47.88679" lon="12.58524">
        <ele>558.37567</ele>
        <time>2022-09-12T22:33:53.688Z</time>
      </trkpt>
      <trkpt lat="47.88595" lon="12.58421">
        <ele>556.677253</ele>
        <time>2022-09-12T22:34:20.304Z</time>
      </trkpt>
      <trkpt lat="47.88402" lon="12.58207">
        <ele>551.777258</ele>
        <time>2022-09-12T22:35:09.432Z</time>
      </trkpt>
      <trkpt lat="47.88431" lon="12.58154">
        <ele>550.959483</ele>
        <time>2022-09-12T22:35:18.998Z</time>
      </trkpt>
      <trkpt lat="47.88483" lon="12.58061">
        <ele>549.820934</ele>
        <time>2022-09-12T22:35:37.469Z</time>
      </trkpt>
      <trkpt lat="47.88627" lon="12.57773">
        <ele>549.729652</ele>
        <time>2022-09-12T22:36:42.988Z</time>
      </trkpt>
      <trkpt lat="47.88641" lon="12.57745">
        <ele>549.767146</ele>
        <time>2022-09-12T22:36:50.058Z</time>
      </trkpt>
      <trkpt lat="47.88659" lon="12.57706">
        <ele>549.817327</ele>
        <time>2022-09-12T22:36:59.111Z</time>
      </trkpt>
      <trkpt lat="47.88686" lon="12.57648">
        <ele>549.860894</ele>
        <time>2022-09-12T22:37:11.919Z</time>
      </trkpt>
      <trkpt lat="47.88703" lon="12.57612">
        <ele>549.681039</ele>
        <time>2022-09-12T22:37:19.398Z</time>
      </trkpt>
      <trkpt lat="47.88707" lon="12.57604">
        <ele>549.639318</ele>
        <time>2022-09-12T22:37:21.064Z</time>
      </trkpt>
      <trkpt lat="47.88722" lon="12.57571">
        <ele>549.473811</ele>
        <time>2022-09-12T22:37:27.736Z</time>
      </trkpt>
      <trkpt lat="47.88725" lon="12.57565">
        <ele>549.44303</ele>
        <time>2022-09-12T22:37:28.959Z</time>
      </trkpt>
      <trkpt lat="47.88744" lon="12.57525">
        <ele>549.242801</ele>
        <time>2022-09-12T22:37:36.805Z</time>
      </trkpt>
      <trkpt lat="47.88773" lon="12.57469">
        <ele>548.952</ele>
        <time>2022-09-12T22:37:47.952Z</time>
      </trkpt>
      <trkpt lat="47.88807" lon="12.57401">
        <ele>548.531863</ele>
        <time>2022-09-12T22:38:01.199Z</time>
      </trkpt>
      <trkpt lat="47.88853" lon="12.57316">
        <ele>547.91352</ele>
        <time>2022-09-12T22:38:17.786Z</time>
      </trkpt>
      <trkpt lat="47.8888" lon="12.57268">
        <ele>547.557658</ele>
        <time>2022-09-12T22:38:27.838Z</time>
      </trkpt>
      <trkpt lat="47.89046" lon="12.5697">
        <ele>546.301809</ele>
        <time>2022-09-12T22:39:32.416Z</time>
      </trkpt>
      <trkpt lat="47.89013" lon="12.56917">
        <ele>546.184918</ele>
        <time>2022-09-12T22:39:44.590Z</time>
      </trkpt>
      <trkpt lat="47.88961" lon="12.56815">
        <ele>545.976514</ele>
        <time>2022-09-12T22:40:06.886Z</time>
      </trkpt>
      <trkpt lat="47.88906" lon="12.56708">
        <ele>546.35068</ele>
        <time>2022-09-12T22:40:32.035Z</time>
      </trkpt>
      <trkpt lat="47.88903" lon="12.56702">
        <ele>546.373014</ele>
        <time>2022-09-12T22:40:33.562Z</time>
      </trkpt>
      <trkpt lat="47.88887" lon="12.56673">
        <ele>546.478871</ele>
        <time>2022-09-12T22:40:40.946Z</time>
      </trkpt>
      <trkpt lat="47.88876" lon="12.56653">
        <ele>546.549271</ele>
        <time>2022-09-12T22:40:45.832Z</time>
      </trkpt>
      <trkpt lat="47.88869" lon="12.5664">
        <ele>546.596131</ele>
        <time>2022-09-12T22:40:49.105Z</time>
      </trkpt>
      <trkpt lat="47.88856" lon="12.56608">
        <ele>546.701233</ele>
        <time>2022-09-12T22:40:56.498Z</time>
      </trkpt>
      <trkpt lat="47.88851" lon="12.56557">
        <ele>547.278708</ele>
        <time>2022-09-12T22:41:07.256Z</time>
      </trkpt>
      <trkpt lat="47.88861" lon="12.56525">
        <ele>547.735019</ele>
        <time>2022-09-12T22:41:15.238Z</time>
      </trkpt>
      <trkpt lat="47.88924" lon="12.56402">
        <ele>549.741084</ele>
        <time>2022-09-12T22:41:53.457Z</time>
      </trkpt>
      <trkpt lat="47.88946" lon="12.56354">
        <ele>550.511924</ele>
        <time>2022-09-12T22:42:09.608Z</time>
      </trkpt>
      <trkpt lat="47.89024" lon="12.56236">
        <ele>552.713514</ele>
        <time>2022-09-12T22:42:54.194Z</time>
      </trkpt>
      <trkpt lat="47.89053" lon="12.56173">
        <ele>553.727044</ele>
        <time>2022-09-12T22:43:09.598Z</time>
      </trkpt>
      <trkpt lat="47.89055" lon="12.5615">
        <ele>553.691069</ele>
        <time>2022-09-12T22:43:14.560Z</time>
      </trkpt>
      <trkpt lat="47.89066" lon="12.55971">
        <ele>552.77307</ele>
        <time>2022-09-12T22:43:43.202Z</time>
      </trkpt>
      <trkpt lat="47.89074" lon="12.55813">
        <ele>552.13355</ele>
        <time>2022-09-12T22:44:05.859Z</time>
      </trkpt>
      <trkpt lat="47.89074" lon="12.55633">
        <ele>551.560887</ele>
        <time>2022-09-12T22:44:39.309Z</time>
      </trkpt>
      <trkpt lat="47.89081" lon="12.55559">
        <ele>551.306285</ele>
        <time>2022-09-12T22:44:53.630Z</time>
      </trkpt>
      <trkpt lat="47.89093" lon="12.55448">
        <ele>550.927287</ele>
        <time>2022-09-12T22:45:12.123Z</time>
      </trkpt>
      <trkpt lat="47.89095" lon="12.55401">
        <ele>550.76654</ele>
        <time>2022-09-12T22:45:19.558Z</time>
      </trkpt>
      <trkpt lat="47.89095" lon="12.55263">
        <ele>548.98091</ele>
        <time>2022-09-12T22:45:39.928Z</time>
      </trkpt>
      <trkpt lat="47.89111" lon="12.55109">
        <ele>546.503654</ele>
        <time>2022-09-12T22:46:00.420Z</time>
      </trkpt>
      <trkpt lat="47.89112" lon="12.55041">
        <ele>545.33558</ele>
        <time>2022-09-12T22:46:09.467Z</time>
      </trkpt>
      <trkpt lat="47.89102" lon="12.54859">
        <ele>542.181513</ele>
        <time>2022-09-12T22:46:34.501Z</time>
      </trkpt>
      <trkpt lat="47.891" lon="12.54813">
        <ele>541.426072</ele>
        <time>2022-09-12T22:46:40.927Z</time>
      </trkpt>
      <trkpt lat="47.89097" lon="12.54791">
        <ele>541.07411</ele>
        <time>2022-09-12T22:46:44.111Z</time>
      </trkpt>
      <trkpt lat="47.8907" lon="12.5471">
        <ele>539.671365</ele>
        <time>2022-09-12T22:46:56.895Z</time>
      </trkpt>
      <trkpt lat="47.89062" lon="12.54702">
        <ele>539.442217</ele>
        <time>2022-09-12T22:46:58.941Z</time>
      </trkpt>
      <trkpt lat="47.89046" lon="12.54666">
        <ele>538.766934</ele>
        <time>2022-09-12T22:47:04.967Z</time>
      </trkpt>
      <trkpt lat="47.8905" lon="12.54577">
        <ele>537.287953</ele>
        <time>2022-09-12T22:47:17.193Z</time>
      </trkpt>
      <trkpt lat="47.89054" lon="12.54538">
        <ele>536.357982</ele>
        <time>2022-09-12T22:47:22.311Z</time>
      </trkpt>
      <trkpt lat="47.89089" lon="12.54455">
        <ele>534.096776</ele>
        <time>2022-09-12T22:47:34.872Z</time>
      </trkpt>
      <trkpt lat="47.89123" lon="12.54388">
        <ele>532.163672</ele>
        <time>2022-09-12T22:47:45.650Z</time>
      </trkpt>
      <trkpt lat="47.89125" lon="12.54363">
        <ele>531.578823</ele>
        <time>2022-09-12T22:47:48.745Z</time>
      </trkpt>
      <trkpt lat="47.89116" lon="12.54307">
        <ele>530.480893</ele>
        <time>2022-09-12T22:47:56.141Z</time>
      </trkpt>
      <trkpt lat="47.89112" lon="12.54172">
        <ele>528.045199</ele>
        <time>2022-09-12T22:48:14.182Z</time>
      </trkpt>
      <trkpt lat="47.89109" lon="12.5416">
        <ele>527.814721</ele>
        <time>2022-09-12T22:48:15.866Z</time>
      </trkpt>
      <trkpt lat="47.89119" lon="12.54128">
        <ele>527.181289</ele>
        <time>2022-09-12T22:48:20.821Z</time>
      </trkpt>
      <trkpt lat="47.89125" lon="12.54079">
        <ele>526.436681</ele>
        <time>2022-09-12T22:48:28.257Z</time>
      </trkpt>
      <trkpt lat="47.89128" lon="12.5398">
        <ele>525.941642</ele>
        <time>2022-09-12T22:48:43.313Z</time>
      </trkpt>
      <trkpt lat="47.89138" lon="12.53925">
        <ele>525.655593</ele>
        <time>2022-09-12T22:48:52.803Z</time>
      </trkpt>
      <trkpt lat="47.89154" lon="12.53898">
        <ele>525.473593</ele>
        <time>2022-09-12T22:48:58.968Z</time>
      </trkpt>
      <trkpt lat="47.89151" lon="12.53889">
        <ele>525.41674</ele>
        <time>2022-09-12T22:49:00.997Z</time>
      </trkpt>
      <trkpt lat="47.89137" lon="12.53848">
        <ele>525.18885</ele>
        <time>2022-09-12T22:49:09.006Z</time>
      </trkpt>
      <trkpt lat="47.89207" lon="12.5384">
        <ele>525.008023</ele>
        <time>2022-09-12T22:49:26.883Z</time>
      </trkpt>
      <trkpt lat="47.89216" lon="12.53833">
        <ele>524.986089</ele>
        <time>2022-09-12T22:49:29.367Z</time>
      </trkpt>
      <trkpt lat="47.89259" lon="12.53736">
        <ele>524.811715</ele>
        <time>2022-09-12T22:49:48.940Z</time>
      </trkpt>
      <trkpt lat="47.89293" lon="12.53639">
        <ele>524.985154</ele>
        <time>2022-09-12T22:50:08.829Z</time>
      </trkpt>
      <trkpt lat="47.89293" lon="12.53635">
        <ele>525.00103</ele>
        <time>2022-09-12T22:50:09.585Z</time>
      </trkpt>
      <trkpt lat="47.89297" lon="12.53627">
        <ele>525.035927</ele>
        <time>2022-09-12T22:50:11.329Z</time>
      </trkpt>
      <trkpt lat="47.89332" lon="12.53611">
        <ele>525.217318</ele>
        <time>2022-09-12T22:50:21.439Z</time>
      </trkpt>
      <trkpt lat="47.89412" lon="12.53556">
        <ele>525.668019</ele>
        <time>2022-09-12T22:50:48.909Z</time>
      </trkpt>
      <trkpt lat="47.89472" lon="12.53516">
        <ele>526.247767</ele>
        <time>2022-09-12T22:51:10.230Z</time>
      </trkpt>
      <trkpt lat="47.89513" lon="12.53496">
        <ele>526.632646</ele>
        <time>2022-09-12T22:51:24.337Z</time>
      </trkpt>
      <trkpt lat="47.89567" lon="12.53392">
        <ele>527.216122</ele>
        <time>2022-09-12T22:51:50.596Z</time>
      </trkpt>
      <trkpt lat="47.89607" lon="12.53322">
        <ele>527.111437</ele>
        <time>2022-09-12T22:52:06.460Z</time>
      </trkpt>
      <trkpt lat="47.89648" lon="12.53226">
        <ele>526.98257</ele>
        <time>2022-09-12T22:52:24.942Z</time>
      </trkpt>
      <trkpt lat="47.89715" lon="12.53134">
        <ele>526.8224</ele>
        <time>2022-09-12T22:52:48.787Z</time>
      </trkpt>
      <trkpt lat="47.89749" lon="12.53091">
        <ele>526.742194</ele>
        <time>2022-09-12T22:53:00.642Z</time>
      </trkpt>
      <trkpt lat="47.89786" lon="12.53056">
        <ele>526.664017</ele>
        <time>2022-09-12T22:53:12.104Z</time>
      </trkpt>
      <trkpt lat="47.89912" lon="12.52966">
        <ele>526.447928</ele>
        <time>2022-09-12T22:53:47.352Z</time>
      </trkpt>
      <trkpt lat="47.89928" lon="12.52942">
        <ele>526.413599</ele>
        <time>2022-09-12T22:53:53.432Z</time>
      </trkpt>
      <trkpt lat="47.89956" lon="12.52875">
        <ele>526.439262</ele>
        <time>2022-09-12T22:54:07.339Z</time>
      </trkpt>
      <trkpt lat="47.89987" lon="12.52814">
        <ele>526.839201</ele>
        <time>2022-09-12T22:54:22.348Z</time>
      </trkpt>
      <trkpt lat="47.90027" lon="12.52776">
        <ele>527.204593</ele>
        <time>2022-09-12T22:54:36.749Z</time>
      </trkpt>
      <trkpt lat="47.90203" lon="12.52665">
        <ele>528.753505</ele>
        <time>2022-09-12T22:55:39.014Z</time>
      </trkpt>
      <trkpt lat="47.90231" lon="12.52641">
        <ele>529.02435</ele>
        <time>2022-09-12T22:55:47.989Z</time>
      </trkpt>
      <trkpt lat="47.90244" lon="12.52626">
        <ele>529.163142</ele>
        <time>2022-09-12T22:55:52.709Z</time>
      </trkpt>
      <trkpt lat="47.90264" lon="12.52596">
        <ele>529.218984</ele>
        <time>2022-09-12T22:56:00.398Z</time>
      </trkpt>
      <trkpt lat="47.90311" lon="12.52486">
        <ele>529.124122</ele>
        <time>2022-09-12T22:56:23.200Z</time>
      </trkpt>
      <trkpt lat="47.90344" lon="12.52398">
        <ele>529.050458</ele>
        <time>2022-09-12T22:56:40.150Z</time>
      </trkpt>
      <trkpt lat="47.9037" lon="12.52318">
        <ele>528.757669</ele>
        <time>2022-09-12T22:56:55.852Z</time>
      </trkpt>
      <trkpt lat="47.90378" lon="12.52291">
        <ele>528.652141</ele>
        <time>2022-09-12T22:57:00.985Z</time>
      </trkpt>
      <trkpt lat="47.90417" lon="12.52168">
        <ele>528.170505</ele>
        <time>2022-09-12T22:57:23.539Z</time>
      </trkpt>
      <trkpt lat="47.90439" lon="12.52162">
        <ele>527.95571</ele>
        <time>2022-09-12T22:57:28.621Z</time>
      </trkpt>
      <trkpt lat="47.9045" lon="12.52165">
        <ele>527.769542</ele>
        <time>2022-09-12T22:57:31.067Z</time>
      </trkpt>
      <trkpt lat="47.90532" lon="12.52189">
        <ele>526.331076</ele>
        <time>2022-09-12T22:57:49.079Z</time>
      </trkpt>
      <trkpt lat="47.90551" lon="12.52115">
        <ele>525.416192</ele>
        <time>2022-09-12T22:58:00.116Z</time>
      </trkpt>
      <trkpt lat="47.90567" lon="12.52032">
        <ele>524.601555</ele>
        <time>2022-09-12T22:58:12.413Z</time>
      </trkpt>
      <trkpt lat="47.90569" lon="12.51997">
        <ele>524.320217</ele>
        <time>2022-09-12T22:58:17.446Z</time>
      </trkpt>
      <trkpt lat="47.90572" lon="12.51959">
        <ele>524.016052</ele>
        <time>2022-09-12T22:58:22.989Z</time>
      </trkpt>
      <trkpt lat="47.90589" lon="12.51872">
        <ele>523.291239</ele>
        <time>2022-09-12T22:58:37.034Z</time>
      </trkpt>
      <trkpt lat="47.90585" lon="12.51721">
        <ele>522.90603</ele>
        <time>2022-09-12T22:59:03.807Z</time>
      </trkpt>
      <trkpt lat="47.90607" lon="12.51628">
        <ele>522.959295</ele>
        <time>2022-09-12T22:59:21.954Z</time>
      </trkpt>
      <trkpt lat="47.9061" lon="12.51558">
        <ele>522.99745</ele>
        <time>2022-09-12T22:59:34.852Z</time>
      </trkpt>
      <trkpt lat="47.9061" lon="12.51556">
        <ele>522.99843</ele>
        <time>2022-09-12T22:59:35.504Z</time>
      </trkpt>
      <trkpt lat="47.90611" lon="12.51497">
        <ele>523.148186</ele>
        <time>2022-09-12T22:59:46.593Z</time>
      </trkpt>
      <trkpt lat="47.90635" lon="12.51411">
        <ele>523.385683</ele>
        <time>2022-09-12T23:00:04.186Z</time>
      </trkpt>
      <trkpt lat="47.90642" lon="12.51355">
        <ele>523.531942</ele>
        <time>2022-09-12T23:00:15.454Z</time>
      </trkpt>
      <trkpt lat="47.90599" lon="12.51217">
        <ele>523.773319</ele>
        <time>2022-09-12T23:00:44.598Z</time>
      </trkpt>
      <trkpt lat="47.90593" lon="12.51163">
        <ele>523.825751</ele>
        <time>2022-09-12T23:00:54.644Z</time>
      </trkpt>
      <trkpt lat="47.90602" lon="12.51102">
        <ele>523.886083</ele>
        <time>2022-09-12T23:01:06.228Z</time>
      </trkpt>
      <trkpt lat="47.90626" lon="12.51022">
        <ele>523.843395</ele>
        <time>2022-09-12T23:01:21.320Z</time>
      </trkpt>
      <trkpt lat="47.90689" lon="12.50942">
        <ele>523.408323</ele>
        <time>2022-09-12T23:01:41.569Z</time>
      </trkpt>
      <trkpt lat="47.90702" lon="12.50899">
        <ele>523.240935</ele>
        <time>2022-09-12T23:01:48.875Z</time>
      </trkpt>
      <trkpt lat="47.90701" lon="12.50837">
        <ele>523.023363</ele>
        <time>2022-09-12T23:01:58.849Z</time>
      </trkpt>
      <trkpt lat="47.907" lon="12.5083">
        <ele>522.996647</ele>
        <time>2022-09-12T23:02:00.132Z</time>
      </trkpt>
      <trkpt lat="47.90696" lon="12.5081">
        <ele>523.002614</ele>
        <time>2022-09-12T23:02:03.571Z</time>
      </trkpt>
      <trkpt lat="47.9069" lon="12.50786">
        <ele>523.014516</ele>
        <time>2022-09-12T23:02:08.039Z</time>
      </trkpt>
      <trkpt lat="47.90673" lon="12.50733">
        <ele>523.041093</ele>
        <time>2022-09-12T23:02:18.083Z</time>
      </trkpt>
      <trkpt lat="47.90674" lon="12.50712">
        <ele>523.050604</ele>
        <time>2022-09-12T23:02:21.719Z</time>
      </trkpt>
      <trkpt lat="47.90689" lon="12.50658">
        <ele>523.077128</ele>
        <time>2022-09-12T23:02:38.943Z</time>
      </trkpt>
      <trkpt lat="47.90772" lon="12.50368">
        <ele>524.769287</ele>
        <time>2022-09-12T23:04:21.696Z</time>
      </trkpt>
      <trkpt lat="47.90785" lon="12.50326">
        <ele>525.174596</ele>
        <time>2022-09-12T23:04:38.324Z</time>
      </trkpt>
      <trkpt lat="47.90808" lon="12.50296">
        <ele>525.878745</ele>
        <time>2022-09-12T23:04:54.430Z</time>
      </trkpt>
      <trkpt lat="47.90875" lon="12.50273">
        <ele>527.473016</ele>
        <time>2022-09-12T23:05:32.508Z</time>
      </trkpt>
      <trkpt lat="47.90883" lon="12.50263">
        <ele>527.73638</ele>
        <time>2022-09-12T23:05:39.502Z</time>
      </trkpt>
      <trkpt lat="47.90907" lon="12.50206">
        <ele>528.774777</ele>
        <time>2022-09-12T23:06:04.934Z</time>
      </trkpt>
      <trkpt lat="47.90935" lon="12.50173">
        <ele>529.625703</ele>
        <time>2022-09-12T23:06:25.240Z</time>
      </trkpt>
      <trkpt lat="47.90991" lon="12.50157">
        <ele>531.014357</ele>
        <time>2022-09-12T23:06:58.367Z</time>
      </trkpt>
      <trkpt lat="47.91046" lon="12.50154">
        <ele>532.3827</ele>
        <time>2022-09-12T23:07:30.100Z</time>
      </trkpt>
      <trkpt lat="47.91137" lon="12.50115">
        <ele>533.727837</ele>
        <time>2022-09-12T23:08:21.326Z</time>
      </trkpt>
      <trkpt lat="47.91194" lon="12.50066">
        <ele>533.891445</ele>
        <time>2022-09-12T23:08:52.851Z</time>
      </trkpt>
      <trkpt lat="47.91245" lon="12.50036">
        <ele>534.028678</ele>
        <time>2022-09-12T23:09:16.102Z</time>
      </trkpt>
      <trkpt lat="47.91357" lon="12.49928">
        <ele>530.781372</ele>
        <time>2022-09-12T23:10:04.747Z</time>
      </trkpt>
      <trkpt lat="47.91457" lon="12.49876">
        <ele>528.052892</ele>
        <time>2022-09-12T23:10:41.457Z</time>
      </trkpt>
      <trkpt lat="47.91534" lon="12.49829">
        <ele>526.144533</ele>
        <time>2022-09-12T23:11:11.655Z</time>
      </trkpt>
      <trkpt lat="47.9153" lon="12.49735">
        <ele>524.977504</ele>
        <time>2022-09-12T23:11:27.685Z</time>
      </trkpt>
      <trkpt lat="47.91577" lon="12.49698">
        <ele>525.239097</ele>
        <time>2022-09-12T23:11:43.400Z</time>
      </trkpt>
      <trkpt lat="47.91657" lon="12.4968">
        <ele>525.644169</ele>
        <time>2022-09-12T23:12:11.980Z</time>
      </trkpt>
      <trkpt lat="47.9176" lon="12.49623">
        <ele>526.12292</ele>
        <time>2022-09-12T23:12:50.357Z</time>
      </trkpt>
      <trkpt lat="47.91791" lon="12.4959">
        <ele>526.280616</ele>
        <time>2022-09-12T23:13:02.329Z</time>
      </trkpt>
      <trkpt lat="47.9196" lon="12.49541">
        <ele>526.375614</ele>
        <time>2022-09-12T23:13:50.619Z</time>
      </trkpt>
      <trkpt lat="47.9212" lon="12.49434">
        <ele>526.282035</ele>
        <time>2022-09-12T23:14:43.301Z</time>
      </trkpt>
      <trkpt lat="47.9222" lon="12.4939">
        <ele>526.330704</ele>
        <time>2022-09-12T23:15:14.185Z</time>
      </trkpt>
      <trkpt lat="47.92236" lon="12.49381">
        <ele>526.344604</ele>
        <time>2022-09-12T23:15:19.258Z</time>
      </trkpt>
      <trkpt lat="47.92344" lon="12.49338">
        <ele>526.432556</ele>
        <time>2022-09-12T23:15:53.294Z</time>
      </trkpt>
      <trkpt lat="47.92487" lon="12.49306">
        <ele>526.082049</ele>
        <time>2022-09-12T23:16:35.835Z</time>
      </trkpt>
      <trkpt lat="47.92624" lon="12.49293">
        <ele>525.138295</ele>
        <time>2022-09-12T23:17:12.353Z</time>
      </trkpt>
      <trkpt lat="47.9287" lon="12.49201">
        <ele>522.823202</ele>
        <time>2022-09-12T23:18:17.223Z</time>
      </trkpt>
      <trkpt lat="47.92924" lon="12.49167">
        <ele>522.600002</ele>
        <time>2022-09-12T23:18:34.900Z</time>
      </trkpt>
      <trkpt lat="47.92926" lon="12.49175">
        <ele>522.609358</ele>
        <time>2022-09-12T23:18:36.765Z</time>
      </trkpt>
      <trkpt lat="47.92931" lon="12.49193">
        <ele>522.628838</ele>
        <time>2022-09-12T23:18:40.583Z</time>
      </trkpt>
      <trkpt lat="47.9294" lon="12.49206">
        <ele>522.64719</ele>
        <time>2022-09-12T23:18:43.965Z</time>
      </trkpt>
      <trkpt lat="47.92951" lon="12.49205">
        <ele>522.664696</ele>
        <time>2022-09-12T23:18:47.400Z</time>
      </trkpt>
      <trkpt lat="47.92957" lon="12.49199">
        <ele>522.675189</ele>
        <time>2022-09-12T23:18:49.421Z</time>
      </trkpt>
      <trkpt lat="47.9296" lon="12.49195">
        <ele>522.681171</ele>
        <time>2022-09-12T23:18:50.660Z</time>
      </trkpt>
      <trkpt lat="47.9296" lon="12.49171">
        <ele>522.705218</ele>
        <time>2022-09-12T23:18:55.092Z</time>
      </trkpt>
      <trkpt lat="47.93054" lon="12.49059">
        <ele>522.613094</ele>
        <time>2022-09-12T23:19:28.866Z</time>
      </trkpt>
      <trkpt lat="47.93154" lon="12.48916">
        <ele>521.851366</ele>
        <time>2022-09-12T23:20:01.585Z</time>
      </trkpt>
      <trkpt lat="47.93178" lon="12.48869">
        <ele>521.693173</ele>
        <time>2022-09-12T23:20:10.628Z</time>
      </trkpt>
      <trkpt lat="47.93176" lon="12.48849">
        <ele>521.6404</ele>
        <time>2022-09-12T23:20:13.714Z</time>
      </trkpt>
      <trkpt lat="47.93229" lon="12.48732">
        <ele>521.270955</ele>
        <time>2022-09-12T23:20:37.250Z</time>
      </trkpt>
      <trkpt lat="47.93276" lon="12.48583">
        <ele>521.258546</ele>
        <time>2022-09-12T23:21:08.886Z</time>
      </trkpt>
      <trkpt lat="47.93294" lon="12.48528">
        <ele>521.32747</ele>
        <time>2022-09-12T23:21:20.674Z</time>
      </trkpt>
      <trkpt lat="47.93302" lon="12.48493">
        <ele>521.368354</ele>
        <time>2022-09-12T23:21:27.189Z</time>
      </trkpt>
      <trkpt lat="47.93324" lon="12.48356">
        <ele>521.032845</ele>
        <time>2022-09-12T23:21:51.465Z</time>
      </trkpt>
      <trkpt lat="47.93343" lon="12.48253">
        <ele>520.513632</ele>
        <time>2022-09-12T23:22:08.162Z</time>
      </trkpt>
      <trkpt lat="47.93354" lon="12.48195">
        <ele>520.21808</ele>
        <time>2022-09-12T23:22:17.458Z</time>
      </trkpt>
      <trkpt lat="47.93357" lon="12.48178">
        <ele>520.13385</ele>
        <time>2022-09-12T23:22:20.089Z</time>
      </trkpt>
      <trkpt lat="47.93366" lon="12.48124">
        <ele>520.038012</ele>
        <time>2022-09-12T23:22:28.811Z</time>
      </trkpt>
      <trkpt lat="47.93369" lon="12.481">
        <ele>519.999427</ele>
        <time>2022-09-12T23:22:32.535Z</time>
      </trkpt>
      <trkpt lat="47.93371" lon="12.48063">
        <ele>519.938722</ele>
        <time>2022-09-12T23:22:38.503Z</time>
      </trkpt>
      <trkpt lat="47.93372" lon="12.48021">
        <ele>519.868872</ele>
        <time>2022-09-12T23:22:45.595Z</time>
      </trkpt>
      <trkpt lat="47.93378" lon="12.48008">
        <ele>519.843939</ele>
        <time>2022-09-12T23:22:52.710Z</time>
      </trkpt>
      <trkpt lat="47.9338" lon="12.47865">
        <ele>519.923617</ele>
        <time>2022-09-12T23:23:59.377Z</time>
      </trkpt>
      <trkpt lat="47.93375" lon="12.47855">
        <ele>519.981936</ele>
        <time>2022-09-12T23:24:05.056Z</time>
      </trkpt>
      <trkpt lat="47.93375" lon="12.47853">
        <ele>519.994453</ele>
        <time>2022-09-12T23:24:05.604Z</time>
      </trkpt>
      <trkpt lat="47.93379" lon="12.47813">
        <ele>520.185517</ele>
        <time>2022-09-12T23:24:13.896Z</time>
      </trkpt>
      <trkpt lat="47.93382" lon="12.47807">
        <ele>520.22688</ele>
        <time>2022-09-12T23:24:15.793Z</time>
      </trkpt>
      <trkpt lat="47.93373" lon="12.47787">
        <ele>520.342378</ele>
        <time>2022-09-12T23:24:20.665Z</time>
      </trkpt>
      <trkpt lat="47.93365" lon="12.47748">
        <ele>520.539521</ele>
        <time>2022-09-12T23:24:29.345Z</time>
      </trkpt>
      <trkpt lat="47.93362" lon="12.47727">
        <ele>520.645353</ele>
        <time>2022-09-12T23:24:33.834Z</time>
      </trkpt>
      <trkpt lat="47.93355" lon="12.47703">
        <ele>520.770137</ele>
        <time>2022-09-12T23:24:39.221Z</time>
      </trkpt>
      <trkpt lat="47.93347" lon="12.47688">
        <ele>520.860268</ele>
        <time>2022-09-12T23:24:42.898Z</time>
      </trkpt>
      <trkpt lat="47.93318" lon="12.47645">
        <ele>520.929098</ele>
        <time>2022-09-12T23:24:55.253Z</time>
      </trkpt>
      <trkpt lat="47.93309" lon="12.47631">
        <ele>520.900571</ele>
        <time>2022-09-12T23:24:59.434Z</time>
      </trkpt>
      <trkpt lat="47.93298" lon="12.47594">
        <ele>520.843876</ele>
        <time>2022-09-12T23:25:06.840Z</time>
      </trkpt>
      <trkpt lat="47.93297" lon="12.47527">
        <ele>520.749019</ele>
        <time>2022-09-12T23:25:18.709Z</time>
      </trkpt>
      <trkpt lat="47.93302" lon="12.47506">
        <ele>520.71831</ele>
        <time>2022-09-12T23:25:22.147Z</time>
      </trkpt>
      <trkpt lat="47.93309" lon="12.4745">
        <ele>520.638016</ele>
        <time>2022-09-12T23:25:31.030Z</time>
      </trkpt>
      <trkpt lat="47.93311" lon="12.47378">
        <ele>520.388131</ele>
        <time>2022-09-12T23:25:42.323Z</time>
      </trkpt>
      <trkpt lat="47.93311" lon="12.47362">
        <ele>520.31319</ele>
        <time>2022-09-12T23:25:44.897Z</time>
      </trkpt>
      <trkpt lat="47.93313" lon="12.47331">
        <ele>520.172483</ele>
        <time>2022-09-12T23:25:49.684Z</time>
      </trkpt>
      <trkpt lat="47.93315" lon="12.47288">
        <ele>519.975483</ele>
        <time>2022-09-12T23:25:56.400Z</time>
      </trkpt>
      <trkpt lat="47.93319" lon="12.47224">
        <ele>519.678894</ele>
        <time>2022-09-12T23:26:06.690Z</time>
      </trkpt>
      <trkpt lat="47.93318" lon="12.47178">
        <ele>519.465563</ele>
        <time>2022-09-12T23:26:14.448Z</time>
      </trkpt>
      <trkpt lat="47.93318" lon="12.47168">
        <ele>519.419589</ele>
        <time>2022-09-12T23:26:16.119Z</time>
      </trkpt>
      <trkpt lat="47.93319" lon="12.47159">
        <ele>519.379444</ele>
        <time>2022-09-12T23:26:17.644Z</time>
      </trkpt>
      <trkpt lat="47.93321" lon="12.47126">
        <ele>519.325482</ele>
        <time>2022-09-12T23:26:23.453Z</time>
      </trkpt>
      <trkpt lat="47.93329" lon="12.47079">
        <ele>519.258286</ele>
        <time>2022-09-12T23:26:32.232Z</time>
      </trkpt>
      <trkpt lat="47.93332" lon="12.47063">
        <ele>519.236077</ele>
        <time>2022-09-12T23:26:35.000Z</time>
      </trkpt>
      <trkpt lat="47.93333" lon="12.47059">
        <ele>519.229456</ele>
        <time>2022-09-12T23:26:35.861Z</time>
      </trkpt>
      <trkpt lat="47.93342" lon="12.4702">
        <ele>519.174016</ele>
        <time>2022-09-12T23:26:42.900Z</time>
      </trkpt>
      <trkpt lat="47.93355" lon="12.46964">
        <ele>519.092156</ele>
        <time>2022-09-12T23:26:53.178Z</time>
      </trkpt>
      <trkpt lat="47.93363" lon="12.46928">
        <ele>519.041456</ele>
        <time>2022-09-12T23:26:59.682Z</time>
      </trkpt>
      <trkpt lat="47.93372" lon="12.46885">
        <ele>518.970683</ele>
        <time>2022-09-12T23:27:07.418Z</time>
      </trkpt>
      <trkpt lat="47.93381" lon="12.46834">
        <ele>518.866465</ele>
        <time>2022-09-12T23:27:16.401Z</time>
      </trkpt>
      <trkpt lat="47.93385" lon="12.4681">
        <ele>518.816766</ele>
        <time>2022-09-12T23:27:20.575Z</time>
      </trkpt>
      <trkpt lat="47.93391" lon="12.46759">
        <ele>518.714545</ele>
        <time>2022-09-12T23:27:29.352Z</time>
      </trkpt>
      <trkpt lat="47.93399" lon="12.46678">
        <ele>518.55347</ele>
        <time>2022-09-12T23:27:44.772Z</time>
      </trkpt>
      <trkpt lat="47.93428" lon="12.46515">
        <ele>518.459997</ele>
        <time>2022-09-12T23:28:17.546Z</time>
      </trkpt>
      <trkpt lat="47.93448" lon="12.46418">
        <ele>518.452542</ele>
        <time>2022-09-12T23:28:38.183Z</time>
      </trkpt>
      <trkpt lat="47.93456" lon="12.46399">
        <ele>518.450949</ele>
        <time>2022-09-12T23:28:42.225Z</time>
      </trkpt>
      <trkpt lat="47.93445" lon="12.46301">
        <ele>518.492111</ele>
        <time>2022-09-12T23:29:12.512Z</time>
      </trkpt>
      <trkpt lat="47.93412" lon="12.46192">
        <ele>518.55483</ele>
        <time>2022-09-12T23:29:48.472Z</time>
      </trkpt>
      <trkpt lat="47.93374" lon="12.46035">
        <ele>518.556838</ele>
        <time>2022-09-12T23:30:18.257Z</time>
      </trkpt>
      <trkpt lat="47.93345" lon="12.45959">
        <ele>518.527134</ele>
        <time>2022-09-12T23:30:33.524Z</time>
      </trkpt>
      <trkpt lat="47.93325" lon="12.45915">
        <ele>518.508851</ele>
        <time>2022-09-12T23:30:42.997Z</time>
      </trkpt>
      <trkpt lat="47.93312" lon="12.45888">
        <ele>518.498742</ele>
        <time>2022-09-12T23:30:49.045Z</time>
      </trkpt>
      <trkpt lat="47.93297" lon="12.45873">
        <ele>518.4957</ele>
        <time>2022-09-12T23:30:54.316Z</time>
      </trkpt>
      <trkpt lat="47.93291" lon="12.45837">
        <ele>518.491641</ele>
        <time>2022-09-12T23:31:01.697Z</time>
      </trkpt>
      <trkpt lat="47.93283" lon="12.45714">
        <ele>518.477949</ele>
        <time>2022-09-12T23:31:26.024Z</time>
      </trkpt>
      <trkpt lat="47.93261" lon="12.4563">
        <ele>518.494206</ele>
        <time>2022-09-12T23:31:44.077Z</time>
      </trkpt>
      <trkpt lat="47.93145" lon="12.45448">
        <ele>518.94121</ele>
        <time>2022-09-12T23:32:36.666Z</time>
      </trkpt>
      <trkpt lat="47.93067" lon="12.45354">
        <ele>518.871737</ele>
        <time>2022-09-12T23:33:06.702Z</time>
      </trkpt>
      <trkpt lat="47.92966" lon="12.45266">
        <ele>518.695849</ele>
        <time>2022-09-12T23:33:39.809Z</time>
      </trkpt>
      <trkpt lat="47.92942" lon="12.45255">
        <ele>518.61502</ele>
        <time>2022-09-12T23:33:46.743Z</time>
      </trkpt>
      <trkpt lat="47.92896" lon="12.45194">
        <ele>518.417757</ele>
        <time>2022-09-12T23:34:03.441Z</time>
      </trkpt>
      <trkpt lat="47.92883" lon="12.45151">
        <ele>518.316831</ele>
        <time>2022-09-12T23:34:12.613Z</time>
      </trkpt>
      <trkpt lat="47.92852" lon="12.45099">
        <ele>518.303606</ele>
        <time>2022-09-12T23:34:26.667Z</time>
      </trkpt>
      <trkpt lat="47.92822" lon="12.45064">
        <ele>518.436256</ele>
        <time>2022-09-12T23:34:38.125Z</time>
      </trkpt>
      <trkpt lat="47.92772" lon="12.45002">
        <ele>518.66672</ele>
        <time>2022-09-12T23:34:58.618Z</time>
      </trkpt>
      <trkpt lat="47.92756" lon="12.44995">
        <ele>518.725269</ele>
        <time>2022-09-12T23:35:03.793Z</time>
      </trkpt>
      <trkpt lat="47.92736" lon="12.44963">
        <ele>518.829391</ele>
        <time>2022-09-12T23:35:13.107Z</time>
      </trkpt>
      <trkpt lat="47.92682" lon="12.44904">
        <ele>519.286197</ele>
        <time>2022-09-12T23:35:36.194Z</time>
      </trkpt>
      <trkpt lat="47.92609" lon="12.44831">
        <ele>519.943901</ele>
        <time>2022-09-12T23:36:05.784Z</time>
      </trkpt>
      <trkpt lat="47.92605" lon="12.44827">
        <ele>519.978674</ele>
        <time>2022-09-12T23:36:07.150Z</time>
      </trkpt>
      <trkpt lat="47.92594" lon="12.44809">
        <ele>520.099051</ele>
        <time>2022-09-12T23:36:11.958Z</time>
      </trkpt>
      <trkpt lat="47.92594" lon="12.44804">
        <ele>520.127375</ele>
        <time>2022-09-12T23:36:13.119Z</time>
      </trkpt>
      <trkpt lat="47.92557" lon="12.44765">
        <ele>520.47073</ele>
        <time>2022-09-12T23:36:26.042Z</time>
      </trkpt>
      <trkpt lat="47.92508" lon="12.44738">
        <ele>520.870215</ele>
        <time>2022-09-12T23:36:40.618Z</time>
      </trkpt>
      <trkpt lat="47.9249" lon="12.44712">
        <ele>521.066125</ele>
        <time>2022-09-12T23:36:48.889Z</time>
      </trkpt>
      <trkpt lat="47.92472" lon="12.44663">
        <ele>521.357045</ele>
        <time>2022-09-12T23:37:01.215Z</time>
      </trkpt>
      <trkpt lat="47.92445" lon="12.44597">
        <ele>521.775132</ele>
        <time>2022-09-12T23:37:17.152Z</time>
      </trkpt>
      <trkpt lat="47.92442" lon="12.44592">
        <ele>521.812688</ele>
        <time>2022-09-12T23:37:18.481Z</time>
      </trkpt>
      <trkpt lat="47.92437" lon="12.4458">
        <ele>521.891703</ele>
        <time>2022-09-12T23:37:21.203Z</time>
      </trkpt>
      <trkpt lat="47.9243" lon="12.44555">
        <ele>522.048869</ele>
        <time>2022-09-12T23:37:26.739Z</time>
      </trkpt>
      <trkpt lat="47.92459" lon="12.44523">
        <ele>522.363927</ele>
        <time>2022-09-12T23:37:37.822Z</time>
      </trkpt>
      <trkpt lat="47.92426" lon="12.44456">
        <ele>522.842448</ele>
        <time>2022-09-12T23:37:54.746Z</time>
      </trkpt>
      <trkpt lat="47.92414" lon="12.44444">
        <ele>522.970185</ele>
        <time>2022-09-12T23:37:59.414Z</time>
      </trkpt>
      <trkpt lat="47.9242" lon="12.4443">
        <ele>523.066961</ele>
        <time>2022-09-12T23:38:02.963Z</time>
      </trkpt>
      <trkpt lat="47.92426" lon="12.44421">
        <ele>523.137278</ele>
        <time>2022-09-12T23:38:05.471Z</time>
      </trkpt>
      <trkpt lat="47.92423" lon="12.44385">
        <ele>523.317885</ele>
        <time>2022-09-12T23:38:13.273Z</time>
      </trkpt>
      <trkpt lat="47.92428" lon="12.44356">
        <ele>523.468025</ele>
        <time>2022-09-12T23:38:19.658Z</time>
      </trkpt>
      <trkpt lat="47.92425" lon="12.44319">
        <ele>523.65311</ele>
        <time>2022-09-12T23:38:26.961Z</time>
      </trkpt>
      <trkpt lat="47.92391" lon="12.44156">
        <ele>524.504921</ele>
        <time>2022-09-12T23:39:00.849Z</time>
      </trkpt>
      <trkpt lat="47.92377" lon="12.44067">
        <ele>525.032895</ele>
        <time>2022-09-12T23:39:19.620Z</time>
      </trkpt>
      <trkpt lat="47.92363" lon="12.44023">
        <ele>525.319494</ele>
        <time>2022-09-12T23:39:30.000Z</time>
      </trkpt>
      <trkpt lat="47.9236" lon="12.43943">
        <ele>525.78116</ele>
        <time>2022-09-12T23:39:46.629Z</time>
      </trkpt>
      <trkpt lat="47.92359" lon="12.4373">
        <ele>527.043685</ele>
        <time>2022-09-12T23:40:30.596Z</time>
      </trkpt>
      <trkpt lat="47.92349" lon="12.43416">
        <ele>529.831778</ele>
        <time>2022-09-12T23:41:36.214Z</time>
      </trkpt>
      <trkpt lat="47.92354" lon="12.43359">
        <ele>530.483874</ele>
        <time>2022-09-12T23:41:51.712Z</time>
      </trkpt>
      <trkpt lat="47.92345" lon="12.4331">
        <ele>531.980692</ele>
        <time>2022-09-12T23:42:06.531Z</time>
      </trkpt>
      <trkpt lat="47.92319" lon="12.42931">
        <ele>541.757999</ele>
        <time>2022-09-12T23:44:14.846Z</time>
      </trkpt>
      <trkpt lat="47.92302" lon="12.42816">
        <ele>543.7213</ele>
        <time>2022-09-12T23:44:38.923Z</time>
      </trkpt>
      <trkpt lat="47.92291" lon="12.42716">
        <ele>542.630122</ele>
        <time>2022-09-12T23:45:05.495Z</time>
      </trkpt>
      <trkpt lat="47.92295" lon="12.4269">
        <ele>542.339532</ele>
        <time>2022-09-12T23:45:11.788Z</time>
      </trkpt>
      <trkpt lat="47.92273" lon="12.42503">
        <ele>540.828916</ele>
        <time>2022-09-12T23:45:58.864Z</time>
      </trkpt>
      <trkpt lat="47.92258" lon="12.42441">
        <ele>540.668222</ele>
        <time>2022-09-12T23:46:17.372Z</time>
      </trkpt>
      <trkpt lat="47.9224" lon="12.42336">
        <ele>540.402962</ele>
        <time>2022-09-12T23:46:51.750Z</time>
      </trkpt>
      <trkpt lat="47.9221" lon="12.42236">
        <ele>541.097062</ele>
        <time>2022-09-12T23:47:15.443Z</time>
      </trkpt>
      <trkpt lat="47.92172" lon="12.42157">
        <ele>542.021536</ele>
        <time>2022-09-12T23:47:37.047Z</time>
      </trkpt>
      <trkpt lat="47.92035" lon="12.41944">
        <ele>546.006108</ele>
        <time>2022-09-12T23:48:47.932Z</time>
      </trkpt>
      <trkpt lat="47.91962" lon="12.41838">
        <ele>548.236876</ele>
        <time>2022-09-12T23:49:31.608Z</time>
      </trkpt>
      <trkpt lat="47.91886" lon="12.41713">
        <ele>550.632023</ele>
        <time>2022-09-12T23:50:12.997Z</time>
      </trkpt>
      <trkpt lat="47.91845" lon="12.41641">
        <ele>550.349506</ele>
        <time>2022-09-12T23:50:28.956Z</time>
      </trkpt>
      <trkpt lat="47.91816" lon="12.41565">
        <ele>549.877757</ele>
        <time>2022-09-12T23:50:42.531Z</time>
      </trkpt>
      <trkpt lat="47.91791" lon="12.41445">
        <ele>549.113779</ele>
        <time>2022-09-12T23:51:00.675Z</time>
      </trkpt>
      <trkpt lat="47.91782" lon="12.41361">
        <ele>548.386017</ele>
        <time>2022-09-12T23:51:13.153Z</time>
      </trkpt>
      <trkpt lat="47.91777" lon="12.41318">
        <ele>548.017486</ele>
        <time>2022-09-12T23:51:19.820Z</time>
      </trkpt>
      <trkpt lat="47.91719" lon="12.40885">
        <ele>545.341746</ele>
        <time>2022-09-12T23:52:28.435Z</time>
      </trkpt>
      <trkpt lat="47.91699" lon="12.40638">
        <ele>544.77916</ele>
        <time>2022-09-12T23:53:15.605Z</time>
      </trkpt>
      <trkpt lat="47.91697" lon="12.40498">
        <ele>543.361186</ele>
        <time>2022-09-12T23:53:37.671Z</time>
      </trkpt>
      <trkpt lat="47.91723" lon="12.4007">
        <ele>535.377785</ele>
        <time>2022-09-12T23:54:33.181Z</time>
      </trkpt>
      <trkpt lat="47.9172" lon="12.39941">
        <ele>533.742515</ele>
        <time>2022-09-12T23:54:51.499Z</time>
      </trkpt>
      <trkpt lat="47.91711" lon="12.39857">
        <ele>532.956545</ele>
        <time>2022-09-12T23:55:05.423Z</time>
      </trkpt>
      <trkpt lat="47.91681" lon="12.39708">
        <ele>533.295193</ele>
        <time>2022-09-12T23:55:35.822Z</time>
      </trkpt>
      <trkpt lat="47.9166" lon="12.3964">
        <ele>533.458813</ele>
        <time>2022-09-12T23:55:50.955Z</time>
      </trkpt>
      <trkpt lat="47.91655" lon="12.39643">
        <ele>533.476523</ele>
        <time>2022-09-12T23:55:52.554Z</time>
      </trkpt>
      <trkpt lat="47.91607" lon="12.39527">
        <ele>533.582588</ele>
        <time>2022-09-12T23:56:19.299Z</time>
      </trkpt>
      <trkpt lat="47.91368" lon="12.39056">
        <ele>533.629486</ele>
        <time>2022-09-12T23:58:04.064Z</time>
      </trkpt>
      <trkpt lat="47.91319" lon="12.38945">
        <ele>533.233147</ele>
        <time>2022-09-12T23:58:26.592Z</time>
      </trkpt>
      <trkpt lat="47.91327" lon="12.38928">
        <ele>533.105925</ele>
        <time>2022-09-12T23:58:29.768Z</time>
      </trkpt>
      <trkpt lat="47.91322" lon="12.38908">
        <ele>532.978077</ele>
        <time>2022-09-12T23:58:33.031Z</time>
      </trkpt>
      <trkpt lat="47.91339" lon="12.38878">
        <ele>532.7318</ele>
        <time>2022-09-12T23:58:39.040Z</time>
      </trkpt>
      <trkpt lat="47.91374" lon="12.38845">
        <ele>532.346512</ele>
        <time>2022-09-12T23:58:48.668Z</time>
      </trkpt>
      <trkpt lat="47.91399" lon="12.38824">
        <ele>532.086779</ele>
        <time>2022-09-12T23:58:54.986Z</time>
      </trkpt>
      <trkpt lat="47.91463" lon="12.38775">
        <ele>531.52686</ele>
        <time>2022-09-12T23:59:11.469Z</time>
      </trkpt>
      <trkpt lat="47.91472" lon="12.3877">
        <ele>531.460792</ele>
        <time>2022-09-12T23:59:13.770Z</time>
      </trkpt>
      <trkpt lat="47.91559" lon="12.38719">
        <ele>530.814807</ele>
        <time>2022-09-12T23:59:36.165Z</time>
      </trkpt>
      <trkpt lat="47.91771" lon="12.38576">
        <ele>530.627649</ele>
        <time>2022-09-13T00:00:39.119Z</time>
      </trkpt>
      <trkpt lat="47.91817" lon="12.3855">
        <ele>530.542046</ele>
        <time>2022-09-13T00:00:51.872Z</time>
      </trkpt>
      <trkpt lat="47.91963" lon="12.38485">
        <ele>530.381712</ele>
        <time>2022-09-13T00:01:30.466Z</time>
      </trkpt>
      <trkpt lat="47.92012" lon="12.38439">
        <ele>530.417817</ele>
        <time>2022-09-13T00:01:45.851Z</time>
      </trkpt>
      <trkpt lat="47.92064" lon="12.38377">
        <ele>530.459161</ele>
        <time>2022-09-13T00:02:04.844Z</time>
      </trkpt>
      <trkpt lat="47.92083" lon="12.38345">
        <ele>530.559495</ele>
        <time>2022-09-13T00:02:13.133Z</time>
      </trkpt>
      <trkpt lat="47.92121" lon="12.38275">
        <ele>530.880129</ele>
        <time>2022-09-13T00:02:30.884Z</time>
      </trkpt>
      <trkpt lat="47.92127" lon="12.38265">
        <ele>530.925537</ele>
        <time>2022-09-13T00:02:33.240Z</time>
      </trkpt>
      <trkpt lat="47.92147" lon="12.38235">
        <ele>531.079173</ele>
        <time>2022-09-13T00:02:41.655Z</time>
      </trkpt>
      <trkpt lat="47.92203" lon="12.38173">
        <ele>531.422158</ele>
        <time>2022-09-13T00:03:02.659Z</time>
      </trkpt>
      <trkpt lat="47.92223" lon="12.38141">
        <ele>531.435897</ele>
        <time>2022-09-13T00:03:11.239Z</time>
      </trkpt>
      <trkpt lat="47.92233" lon="12.38081">
        <ele>531.45503</ele>
        <time>2022-09-13T00:03:22.580Z</time>
      </trkpt>
      <trkpt lat="47.9228" lon="12.38092">
        <ele>531.477199</ele>
        <time>2022-09-13T00:03:34.659Z</time>
      </trkpt>
      <trkpt lat="47.92317" lon="12.38099">
        <ele>531.494627</ele>
        <time>2022-09-13T00:03:44.069Z</time>
      </trkpt>
      <trkpt lat="47.92386" lon="12.38094">
        <ele>531.768316</ele>
        <time>2022-09-13T00:04:02.031Z</time>
      </trkpt>
      <trkpt lat="47.92413" lon="12.3809">
        <ele>531.910718</ele>
        <time>2022-09-13T00:04:09.313Z</time>
      </trkpt>
      <trkpt lat="47.92529" lon="12.38081">
        <ele>532.726973</ele>
        <time>2022-09-13T00:04:44.739Z</time>
      </trkpt>
      <trkpt lat="47.92542" lon="12.38073">
        <ele>533.024052</ele>
        <time>2022-09-13T00:04:50.198Z</time>
      </trkpt>
      <trkpt lat="47.92597" lon="12.38031">
        <ele>534.271802</ele>
        <time>2022-09-13T00:05:12.667Z</time>
      </trkpt>
      <trkpt lat="47.92602" lon="12.38022">
        <ele>534.443435</ele>
        <time>2022-09-13T00:05:16.037Z</time>
      </trkpt>
      <trkpt lat="47.92643" lon="12.37964">
        <ele>535.587535</ele>
        <time>2022-09-13T00:05:37.092Z</time>
      </trkpt>
      <trkpt lat="47.92659" lon="12.37957">
        <ele>535.934331</ele>
        <time>2022-09-13T00:05:43.900Z</time>
      </trkpt>
      <trkpt lat="47.92695" lon="12.37934">
        <ele>536.541319</ele>
        <time>2022-09-13T00:05:59.019Z</time>
      </trkpt>
      <trkpt lat="47.92738" lon="12.37879">
        <ele>537.307882</ele>
        <time>2022-09-13T00:06:19.325Z</time>
      </trkpt>
      <trkpt lat="47.92761" lon="12.37855">
        <ele>537.68534</ele>
        <time>2022-09-13T00:06:28.478Z</time>
      </trkpt>
      <trkpt lat="47.92768" lon="12.3785">
        <ele>537.782649</ele>
        <time>2022-09-13T00:06:30.852Z</time>
      </trkpt>
      <trkpt lat="47.92799" lon="12.37822">
        <ele>538.273779</ele>
        <time>2022-09-13T00:06:41.746Z</time>
      </trkpt>
      <trkpt lat="47.92819" lon="12.37807">
        <ele>538.56401</ele>
        <time>2022-09-13T00:06:47.978Z</time>
      </trkpt>
      <trkpt lat="47.9285" lon="12.3777">
        <ele>538.38973</ele>
        <time>2022-09-13T00:06:58.682Z</time>
      </trkpt>
      <trkpt lat="47.9286" lon="12.37756">
        <ele>538.330386</ele>
        <time>2022-09-13T00:07:02.140Z</time>
      </trkpt>
      <trkpt lat="47.92904" lon="12.37681">
        <ele>538.035836</ele>
        <time>2022-09-13T00:07:18.608Z</time>
      </trkpt>
      <trkpt lat="47.9295" lon="12.37619">
        <ele>537.725008</ele>
        <time>2022-09-13T00:07:33.064Z</time>
      </trkpt>
      <trkpt lat="47.93004" lon="12.37585">
        <ele>536.656071</ele>
        <time>2022-09-13T00:07:46.564Z</time>
      </trkpt>
      <trkpt lat="47.93026" lon="12.37574">
        <ele>536.237238</ele>
        <time>2022-09-13T00:07:51.337Z</time>
      </trkpt>
      <trkpt lat="47.93077" lon="12.37553">
        <ele>535.27277</ele>
        <time>2022-09-13T00:08:02.630Z</time>
      </trkpt>
      <trkpt lat="47.93117" lon="12.37535">
        <ele>534.496628</ele>
        <time>2022-09-13T00:08:11.533Z</time>
      </trkpt>
      <trkpt lat="47.93119" lon="12.37534">
        <ele>534.461013</ele>
        <time>2022-09-13T00:08:11.897Z</time>
      </trkpt>
      <trkpt lat="47.93144" lon="12.37522">
        <ele>533.883156</ele>
        <time>2022-09-13T00:08:17.726Z</time>
      </trkpt>
      <trkpt lat="47.93152" lon="12.37527">
        <ele>533.704398</ele>
        <time>2022-09-13T00:08:19.225Z</time>
      </trkpt>
      <trkpt lat="47.93192" lon="12.3751">
        <ele>532.785652</ele>
        <time>2022-09-13T00:08:27.817Z</time>
      </trkpt>
      <trkpt lat="47.93263" lon="12.37456">
        <ele>531.038946</ele>
        <time>2022-09-13T00:08:44.275Z</time>
      </trkpt>
      <trkpt lat="47.93369" lon="12.37349">
        <ele>529.687539</ele>
        <time>2022-09-13T00:09:13.131Z</time>
      </trkpt>
      <trkpt lat="47.93406" lon="12.3732">
        <ele>529.348557</ele>
        <time>2022-09-13T00:09:23.848Z</time>
      </trkpt>
      <trkpt lat="47.93422" lon="12.37307">
        <ele>529.197209</ele>
        <time>2022-09-13T00:09:32.056Z</time>
      </trkpt>
      <trkpt lat="47.93519" lon="12.37217">
        <ele>529.332248</ele>
        <time>2022-09-13T00:10:03.544Z</time>
      </trkpt>
      <trkpt lat="47.9363" lon="12.37156">
        <ele>529.69585</ele>
        <time>2022-09-13T00:10:37.292Z</time>
      </trkpt>
      <trkpt lat="47.93677" lon="12.37103">
        <ele>529.945651</ele>
        <time>2022-09-13T00:10:53.888Z</time>
      </trkpt>
      <trkpt lat="47.93726" lon="12.37077">
        <ele>530.171106</ele>
        <time>2022-09-13T00:11:08.973Z</time>
      </trkpt>
      <trkpt lat="47.93767" lon="12.3707">
        <ele>530.394435</ele>
        <time>2022-09-13T00:11:20.935Z</time>
      </trkpt>
      <trkpt lat="47.93773" lon="12.37063">
        <ele>530.459593</ele>
        <time>2022-09-13T00:11:23.154Z</time>
      </trkpt>
      <trkpt lat="47.93796" lon="12.37042">
        <ele>530.701973</ele>
        <time>2022-09-13T00:11:31.389Z</time>
      </trkpt>
      <trkpt lat="47.93787" lon="12.36965">
        <ele>531.159558</ele>
        <time>2022-09-13T00:11:47.445Z</time>
      </trkpt>
      <trkpt lat="47.93723" lon="12.36766">
        <ele>532.419718</ele>
        <time>2022-09-13T00:12:34.808Z</time>
      </trkpt>
      <trkpt lat="47.93709" lon="12.36686">
        <ele>532.864487</ele>
        <time>2022-09-13T00:12:51.708Z</time>
      </trkpt>
      <trkpt lat="47.93696" lon="12.36614">
        <ele>533.271034</ele>
        <time>2022-09-13T00:13:06.344Z</time>
      </trkpt>
      <trkpt lat="47.93691" lon="12.36523">
        <ele>533.522995</ele>
        <time>2022-09-13T00:13:23.854Z</time>
      </trkpt>
      <trkpt lat="47.93694" lon="12.36481">
        <ele>533.62282</ele>
        <time>2022-09-13T00:13:31.835Z</time>
      </trkpt>
      <trkpt lat="47.93707" lon="12.36398">
        <ele>533.820808</ele>
        <time>2022-09-13T00:13:47.502Z</time>
      </trkpt>
      <trkpt lat="47.9372" lon="12.36356">
        <ele>533.9307</ele>
        <time>2022-09-13T00:13:56.564Z</time>
      </trkpt>
      <trkpt lat="47.93795" lon="12.36124">
        <ele>534.483035</ele>
        <time>2022-09-13T00:14:45.887Z</time>
      </trkpt>
      <trkpt lat="47.93835" lon="12.35988">
        <ele>534.530413</ele>
        <time>2022-09-13T00:15:12.191Z</time>
      </trkpt>
      <trkpt lat="47.93861" lon="12.35865">
        <ele>534.518746</ele>
        <time>2022-09-13T00:15:34.614Z</time>
      </trkpt>
      <trkpt lat="47.93881" lon="12.35812">
        <ele>534.706662</ele>
        <time>2022-09-13T00:15:45.873Z</time>
      </trkpt>
      <trkpt lat="47.93905" lon="12.35773">
        <ele>534.933758</ele>
        <time>2022-09-13T00:15:55.644Z</time>
      </trkpt>
      <trkpt lat="47.93941" lon="12.3574">
        <ele>535.209181</ele>
        <time>2022-09-13T00:16:08.184Z</time>
      </trkpt>
      <trkpt lat="47.93966" lon="12.35728">
        <ele>535.382405</ele>
        <time>2022-09-13T00:16:16.413Z</time>
      </trkpt>
      <trkpt lat="47.94039" lon="12.35724">
        <ele>535.947909</ele>
        <time>2022-09-13T00:16:40.240Z</time>
      </trkpt>
      <trkpt lat="47.94178" lon="12.3575">
        <ele>537.363453</ele>
        <time>2022-09-13T00:17:25.945Z</time>
      </trkpt>
      <trkpt lat="47.94236" lon="12.35751">
        <ele>537.149236</ele>
        <time>2022-09-13T00:17:41.649Z</time>
      </trkpt>
      <trkpt lat="47.94248" lon="12.35749">
        <ele>537.050568</ele>
        <time>2022-09-13T00:17:44.552Z</time>
      </trkpt>
      <trkpt lat="47.94275" lon="12.35746">
        <ele>536.829948</ele>
        <time>2022-09-13T00:17:51.164Z</time>
      </trkpt>
      <trkpt lat="47.9438" lon="12.35725">
        <ele>535.914724</ele>
        <time>2022-09-13T00:18:14.789Z</time>
      </trkpt>
      <trkpt lat="47.94379" lon="12.35716">
        <ele>535.822262</ele>
        <time>2022-09-13T00:18:16.176Z</time>
      </trkpt>
      <trkpt lat="47.94373" lon="12.35708">
        <ele>535.692687</ele>
        <time>2022-09-13T00:18:17.877Z</time>
      </trkpt>
      <trkpt lat="47.94369" lon="12.35659">
        <ele>535.207368</ele>
        <time>2022-09-13T00:18:24.907Z</time>
      </trkpt>
      <trkpt lat="47.94374" lon="12.35566">
        <ele>534.278466</ele>
        <time>2022-09-13T00:18:38.494Z</time>
      </trkpt>
      <trkpt lat="47.94386" lon="12.35493">
        <ele>533.523072</ele>
        <time>2022-09-13T00:18:49.581Z</time>
      </trkpt>
      <trkpt lat="47.94446" lon="12.35265">
        <ele>532.246372</ele>
        <time>2022-09-13T00:19:28.590Z</time>
      </trkpt>
      <trkpt lat="47.94458" lon="12.35179">
        <ele>532.008539</ele>
        <time>2022-09-13T00:19:43.499Z</time>
      </trkpt>
      <trkpt lat="47.94456" lon="12.35138">
        <ele>531.968977</ele>
        <time>2022-09-13T00:19:50.758Z</time>
      </trkpt>
      <trkpt lat="47.94449" lon="12.35098">
        <ele>531.929838</ele>
        <time>2022-09-13T00:19:57.715Z</time>
      </trkpt>
      <trkpt lat="47.94453" lon="12.35097">
        <ele>531.923117</ele>
        <time>2022-09-13T00:19:59.022Z</time>
      </trkpt>
      <trkpt lat="47.94452" lon="12.35091">
        <ele>531.916712</ele>
        <time>2022-09-13T00:20:00.269Z</time>
      </trkpt>
      <trkpt lat="47.94412" lon="12.3495">
        <ele>531.802146</ele>
        <time>2022-09-13T00:20:27.590Z</time>
      </trkpt>
      <trkpt lat="47.94402" lon="12.34855">
        <ele>531.811332</ele>
        <time>2022-09-13T00:20:44.764Z</time>
      </trkpt>
      <trkpt lat="47.94409" lon="12.34752">
        <ele>531.821215</ele>
        <time>2022-09-13T00:21:02.763Z</time>
      </trkpt>
      <trkpt lat="47.94441" lon="12.34552">
        <ele>532.673519</ele>
        <time>2022-09-13T00:21:41.416Z</time>
      </trkpt>
      <trkpt lat="47.94449" lon="12.34443">
        <ele>533.310954</ele>
        <time>2022-09-13T00:22:06.107Z</time>
      </trkpt>
      <trkpt lat="47.94456" lon="12.34358">
        <ele>534.554009</ele>
        <time>2022-09-13T00:22:27.037Z</time>
      </trkpt>
      <trkpt lat="47.94469" lon="12.34297">
        <ele>535.489753</ele>
        <time>2022-09-13T00:22:43.272Z</time>
      </trkpt>
      <trkpt lat="47.94481" lon="12.34255">
        <ele>536.144537</ele>
        <time>2022-09-13T00:22:54.856Z</time>
      </trkpt>
      <trkpt lat="47.94511" lon="12.34181">
        <ele>537.427871</ele>
        <time>2022-09-13T00:23:17.313Z</time>
      </trkpt>
      <trkpt lat="47.94518" lon="12.34031">
        <ele>539.739013</ele>
        <time>2022-09-13T00:23:55.476Z</time>
      </trkpt>
      <trkpt lat="47.94583" lon="12.33966">
        <ele>541.508562</ele>
        <time>2022-09-13T00:24:25.183Z</time>
      </trkpt>
      <trkpt lat="47.94642" lon="12.33911">
        <ele>542.968104</ele>
        <time>2022-09-13T00:24:49.743Z</time>
      </trkpt>
      <trkpt lat="47.94678" lon="12.33883">
        <ele>543.838687</ele>
        <time>2022-09-13T00:25:04.728Z</time>
      </trkpt>
      <trkpt lat="47.94731" lon="12.3384">
        <ele>545.116099</ele>
        <time>2022-09-13T00:25:27.172Z</time>
      </trkpt>
      <trkpt lat="47.94781" lon="12.33786">
        <ele>546.448836</ele>
        <time>2022-09-13T00:25:50.303Z</time>
      </trkpt>
      <trkpt lat="47.94869" lon="12.3365">
        <ele>549.194391</ele>
        <time>2022-09-13T00:26:36.733Z</time>
      </trkpt>
      <trkpt lat="47.94934" lon="12.33565">
        <ele>551.162905</ele>
        <time>2022-09-13T00:27:09.969Z</time>
      </trkpt>
      <trkpt lat="47.95132" lon="12.33396">
        <ele>556.233789</ele>
        <time>2022-09-13T00:28:34.908Z</time>
      </trkpt>
      <trkpt lat="47.95205" lon="12.33301">
        <ele>558.242565</ele>
        <time>2022-09-13T00:29:10.773Z</time>
      </trkpt>
      <trkpt lat="47.9527" lon="12.33202">
        <ele>560.100903</ele>
        <time>2022-09-13T00:29:44.083Z</time>
      </trkpt>
      <trkpt lat="47.95215" lon="12.33123">
        <ele>561.750974</ele>
        <time>2022-09-13T00:30:11.633Z</time>
      </trkpt>
      <trkpt lat="47.9519" lon="12.3306">
        <ele>562.841058</ele>
        <time>2022-09-13T00:30:29.513Z</time>
      </trkpt>
      <trkpt lat="47.95161" lon="12.32903">
        <ele>565.498675</ele>
        <time>2022-09-13T00:31:11.611Z</time>
      </trkpt>
      <trkpt lat="47.95161" lon="12.32819">
        <ele>567.155565</ele>
        <time>2022-09-13T00:31:34.679Z</time>
      </trkpt>
      <trkpt lat="47.95176" lon="12.32759">
        <ele>568.432274</ele>
        <time>2022-09-13T00:31:52.626Z</time>
      </trkpt>
      <trkpt lat="47.95209" lon="12.3269">
        <ele>570.158873</ele>
        <time>2022-09-13T00:32:16.452Z</time>
      </trkpt>
      <trkpt lat="47.95261" lon="12.32749">
        <ele>572.580686</ele>
        <time>2022-09-13T00:32:43.589Z</time>
      </trkpt>
      <trkpt lat="47.95291" lon="12.32801">
        <ele>574.314077</ele>
        <time>2022-09-13T00:33:02.527Z</time>
      </trkpt>
      <trkpt lat="47.95325" lon="12.32909">
        <ele>577.557939</ele>
        <time>2022-09-13T00:33:42.051Z</time>
      </trkpt>
      <trkpt lat="47.95345" lon="12.32975">
        <ele>580.046793</ele>
        <time>2022-09-13T00:34:08.204Z</time>
      </trkpt>
      <trkpt lat="47.95363" lon="12.32999">
        <ele>581.294374</ele>
        <time>2022-09-13T00:34:21.558Z</time>
      </trkpt>
      <trkpt lat="47.95377" lon="12.33004">
        <ele>582.008471</ele>
        <time>2022-09-13T00:34:28.802Z</time>
      </trkpt>
      <trkpt lat="47.95393" lon="12.33">
        <ele>582.844266</ele>
        <time>2022-09-13T00:34:37.413Z</time>
      </trkpt>
      <trkpt lat="47.95399" lon="12.32996">
        <ele>583.186311</ele>
        <time>2022-09-13T00:34:40.733Z</time>
      </trkpt>
      <trkpt lat="47.95411" lon="12.32987">
        <ele>583.868157</ele>
        <time>2022-09-13T00:34:47.315Z</time>
      </trkpt>
      <trkpt lat="47.9542" lon="12.3298">
        <ele>584.426014</ele>
        <time>2022-09-13T00:34:52.729Z</time>
      </trkpt>
      <trkpt lat="47.95427" lon="12.32974">
        <ele>584.809585</ele>
        <time>2022-09-13T00:34:56.518Z</time>
      </trkpt>
      <trkpt lat="47.95499" lon="12.32921">
        <ele>587.866004</ele>
        <time>2022-09-13T00:35:35.663Z</time>
      </trkpt>
      <trkpt lat="47.95559" lon="12.32884">
        <ele>590.050162</ele>
        <time>2022-09-13T00:36:04.485Z</time>
      </trkpt>
      <trkpt lat="47.95604" lon="12.32845">
        <ele>591.821089</ele>
        <time>2022-09-13T00:36:22.040Z</time>
      </trkpt>
      <trkpt lat="47.95611" lon="12.32826">
        <ele>592.133896</ele>
        <time>2022-09-13T00:36:27.708Z</time>
      </trkpt>
      <trkpt lat="47.95668" lon="12.32805">
        <ele>593.326145</ele>
        <time>2022-09-13T00:36:48.063Z</time>
      </trkpt>
      <trkpt lat="47.95714" lon="12.32798">
        <ele>594.253923</ele>
        <time>2022-09-13T00:37:06.253Z</time>
      </trkpt>
      <trkpt lat="47.95745" lon="12.32801">
        <ele>594.879955</ele>
        <time>2022-09-13T00:37:17.818Z</time>
      </trkpt>
      <trkpt lat="47.95836" lon="12.32834">
        <ele>595.880391</ele>
        <time>2022-09-13T00:37:50.689Z</time>
      </trkpt>
      <trkpt lat="47.95871" lon="12.32833">
        <ele>596.08415</ele>
        <time>2022-09-13T00:38:00.857Z</time>
      </trkpt>
      <trkpt lat="47.9591" lon="12.32819">
        <ele>596.320328</ele>
        <time>2022-09-13T00:38:11.705Z</time>
      </trkpt>
      <trkpt lat="47.9596" lon="12.32788">
        <ele>596.558564</ele>
        <time>2022-09-13T00:38:25.000Z</time>
      </trkpt>
      <trkpt lat="47.95991" lon="12.3276">
        <ele>596.516868</ele>
        <time>2022-09-13T00:38:33.466Z</time>
      </trkpt>
      <trkpt lat="47.96013" lon="12.32737">
        <ele>596.486478</ele>
        <time>2022-09-13T00:38:39.716Z</time>
      </trkpt>
      <trkpt lat="47.96062" lon="12.32682">
        <ele>596.415421</ele>
        <time>2022-09-13T00:38:55.017Z</time>
      </trkpt>
      <trkpt lat="47.96347" lon="12.32378">
        <ele>600.751733</ele>
        <time>2022-09-13T00:40:50.032Z</time>
      </trkpt>
      <trkpt lat="47.96371" lon="12.32338">
        <ele>601.374091</ele>
        <time>2022-09-13T00:41:04.082Z</time>
      </trkpt>
      <trkpt lat="47.96464" lon="12.32135">
        <ele>605.531823</ele>
        <time>2022-09-13T00:42:09.719Z</time>
      </trkpt>
      <trkpt lat="47.96507" lon="12.32043">
        <ele>606.838656</ele>
        <time>2022-09-13T00:42:38.347Z</time>
      </trkpt>
      <trkpt lat="47.96543" lon="12.31996">
        <ele>607.35128</ele>
        <time>2022-09-13T00:42:54.520Z</time>
      </trkpt>
      <trkpt lat="47.96567" lon="12.31963">
        <ele>607.695694</ele>
        <time>2022-09-13T00:43:04.341Z</time>
      </trkpt>
      <trkpt lat="47.96567" lon="12.31974">
        <ele>607.770953</ele>
        <time>2022-09-13T00:43:06.521Z</time>
      </trkpt>
      <trkpt lat="47.9661" lon="12.31937">
        <ele>608.295276</ele>
        <time>2022-09-13T00:43:19.981Z</time>
      </trkpt>
      <trkpt lat="47.96705" lon="12.31871">
        <ele>606.963732</ele>
        <time>2022-09-13T00:43:44.710Z</time>
      </trkpt>
      <trkpt lat="47.96748" lon="12.31822">
        <ele>606.266077</ele>
        <time>2022-09-13T00:43:56.218Z</time>
      </trkpt>
      <trkpt lat="47.96859" lon="12.31644">
        <ele>602.621595</ele>
        <time>2022-09-13T00:44:29.525Z</time>
      </trkpt>
      <trkpt lat="47.96892" lon="12.316">
        <ele>601.579918</ele>
        <time>2022-09-13T00:44:38.518Z</time>
      </trkpt>
      <trkpt lat="47.96888" lon="12.31598">
        <ele>601.469948</ele>
        <time>2022-09-13T00:44:39.435Z</time>
      </trkpt>
      <trkpt lat="47.97001" lon="12.31524">
        <ele>598.46406</ele>
        <time>2022-09-13T00:45:04.717Z</time>
      </trkpt>
      <trkpt lat="47.97049" lon="12.31484">
        <ele>597.16016</ele>
        <time>2022-09-13T00:45:15.883Z</time>
      </trkpt>
      <trkpt lat="47.97074" lon="12.31454">
        <ele>596.534489</ele>
        <time>2022-09-13T00:45:22.534Z</time>
      </trkpt>
      <trkpt lat="47.97081" lon="12.31455">
        <ele>596.404199</ele>
        <time>2022-09-13T00:45:23.737Z</time>
      </trkpt>
      <trkpt lat="47.97123" lon="12.31384">
        <ele>595.156498</ele>
        <time>2022-09-13T00:45:37.367Z</time>
      </trkpt>
      <trkpt lat="47.97139" lon="12.31344">
        <ele>594.544834</ele>
        <time>2022-09-13T00:45:44.030Z</time>
      </trkpt>
      <trkpt lat="47.97143" lon="12.3133">
        <ele>594.345173</ele>
        <time>2022-09-13T00:45:46.111Z</time>
      </trkpt>
      <trkpt lat="47.97156" lon="12.31275">
        <ele>593.867195</ele>
        <time>2022-09-13T00:45:54.621Z</time>
      </trkpt>
      <trkpt lat="47.97165" lon="12.31208">
        <ele>594.079326</ele>
        <time>2022-09-13T00:46:06.472Z</time>
      </trkpt>
      <trkpt lat="47.97172" lon="12.31075">
        <ele>594.491164</ele>
        <time>2022-09-13T00:46:34.654Z</time>
      </trkpt>
      <trkpt lat="47.97178" lon="12.3103">
        <ele>594.633002</ele>
        <time>2022-09-13T00:46:46.402Z</time>
      </trkpt>
      <trkpt lat="47.97194" lon="12.30979">
        <ele>595.096669</ele>
        <time>2022-09-13T00:47:00.729Z</time>
      </trkpt>
      <trkpt lat="47.97212" lon="12.30939">
        <ele>595.521678</ele>
        <time>2022-09-13T00:47:13.026Z</time>
      </trkpt>
      <trkpt lat="47.9724" lon="12.30903">
        <ele>596.00342</ele>
        <time>2022-09-13T00:47:25.985Z</time>
      </trkpt>
      <trkpt lat="47.97307" lon="12.30864">
        <ele>596.927838</ele>
        <time>2022-09-13T00:47:48.217Z</time>
      </trkpt>
      <trkpt lat="47.97347" lon="12.30863">
        <ele>597.078374</ele>
        <time>2022-09-13T00:48:00.604Z</time>
      </trkpt>
      <trkpt lat="47.97363" lon="12.3087">
        <ele>597.125912</ele>
        <time>2022-09-13T00:48:05.291Z</time>
      </trkpt>
      <trkpt lat="47.97442" lon="12.30909">
        <ele>597.36534</ele>
        <time>2022-09-13T00:48:28.278Z</time>
      </trkpt>
      <trkpt lat="47.9753" lon="12.30943">
        <ele>597.727772</ele>
        <time>2022-09-13T00:48:54.971Z</time>
      </trkpt>
      <trkpt lat="47.97614" lon="12.30958">
        <ele>598.156663</ele>
        <time>2022-09-13T00:49:21.687Z</time>
      </trkpt>
      <trkpt lat="47.97693" lon="12.30958">
        <ele>598.077729</ele>
        <time>2022-09-13T00:49:45.048Z</time>
      </trkpt>
      <trkpt lat="47.97767" lon="12.30967">
        <ele>597.320438</ele>
        <time>2022-09-13T00:50:02.483Z</time>
      </trkpt>
      <trkpt lat="47.97847" lon="12.30945">
        <ele>596.38911</ele>
        <time>2022-09-13T00:50:19.714Z</time>
      </trkpt>
      <trkpt lat="47.97921" lon="12.30952">
        <ele>594.745024</ele>
        <time>2022-09-13T00:50:35.316Z</time>
      </trkpt>
      <trkpt lat="47.98044" lon="12.30961">
        <ele>591.718613</ele>
        <time>2022-09-13T00:51:00.750Z</time>
      </trkpt>
      <trkpt lat="47.98153" lon="12.31001">
        <ele>587.873458</ele>
        <time>2022-09-13T00:51:22.804Z</time>
      </trkpt>
      <trkpt lat="47.98188" lon="12.31009">
        <ele>586.666173</ele>
        <time>2022-09-13T00:51:29.420Z</time>
      </trkpt>
      <trkpt lat="47.98235" lon="12.30996">
        <ele>583.678911</ele>
        <time>2022-09-13T00:51:38.072Z</time>
      </trkpt>
      <trkpt lat="47.9838" lon="12.309">
        <ele>572.381604</ele>
        <time>2022-09-13T00:52:05.003Z</time>
      </trkpt>
      <trkpt lat="47.98446" lon="12.30887">
        <ele>566.662258</ele>
        <time>2022-09-13T00:52:16.052Z</time>
      </trkpt>
      <trkpt lat="47.9845" lon="12.30885">
        <ele>566.258783</ele>
        <time>2022-09-13T00:52:16.831Z</time>
      </trkpt>
      <trkpt lat="47.98492" lon="12.30865">
        <ele>562.515642</ele>
        <time>2022-09-13T00:52:23.996Z</time>
      </trkpt>
      <trkpt lat="47.98514" lon="12.30835">
        <ele>559.905828</ele>
        <time>2022-09-13T00:52:29.035Z</time>
      </trkpt>
      <trkpt lat="47.98529" lon="12.30798">
        <ele>557.761771</ele>
        <time>2022-09-13T00:52:33.756Z</time>
      </trkpt>
      <trkpt lat="47.98563" lon="12.30665">
        <ele>551.902358</ele>
        <time>2022-09-13T00:52:50.148Z</time>
      </trkpt>
      <trkpt lat="47.98565" lon="12.30652">
        <ele>551.372407</ele>
        <time>2022-09-13T00:52:51.759Z</time>
      </trkpt>
      <trkpt lat="47.98564" lon="12.3061">
        <ele>549.650274</ele>
        <time>2022-09-13T00:52:56.938Z</time>
      </trkpt>
      <trkpt lat="47.98581" lon="12.30608">
        <ele>548.636798</ele>
        <time>2022-09-13T00:53:00.016Z</time>
      </trkpt>
      <trkpt lat="47.98604" lon="12.30617">
        <ele>547.390487</ele>
        <time>2022-09-13T00:53:04.448Z</time>
      </trkpt>
      <trkpt lat="47.98636" lon="12.30656">
        <ele>546.580627</ele>
        <time>2022-09-13T00:53:12.435Z</time>
      </trkpt>
      <trkpt lat="47.9871" lon="12.30738">
        <ele>544.771463</ele>
        <time>2022-09-13T00:53:32.298Z</time>
      </trkpt>
      <trkpt lat="47.98771" lon="12.30787">
        <ele>543.861968</ele>
        <time>2022-09-13T00:53:49.802Z</time>
      </trkpt>
      <trkpt lat="47.98781" lon="12.30792">
        <ele>543.828604</ele>
        <time>2022-09-13T00:53:52.593Z</time>
      </trkpt>
      <trkpt lat="47.98837" lon="12.30818">
        <ele>543.641528</ele>
        <time>2022-09-13T00:54:08.085Z</time>
      </trkpt>
      <trkpt lat="47.98876" lon="12.30836">
        <ele>543.51095</ele>
        <time>2022-09-13T00:54:19.065Z</time>
      </trkpt>
      <trkpt lat="47.98914" lon="12.3085">
        <ele>543.385694</ele>
        <time>2022-09-13T00:54:28.942Z</time>
      </trkpt>
      <trkpt lat="47.98964" lon="12.30838">
        <ele>542.722938</ele>
        <time>2022-09-13T00:54:40.666Z</time>
      </trkpt>
      <trkpt lat="47.98971" lon="12.30838">
        <ele>542.629837</ele>
        <time>2022-09-13T00:54:42.199Z</time>
      </trkpt>
      <trkpt lat="47.99004" lon="12.30841">
        <ele>542.175532</ele>
        <time>2022-09-13T00:54:49.599Z</time>
      </trkpt>
      <trkpt lat="47.99018" lon="12.30844">
        <ele>541.989882</ele>
        <time>2022-09-13T00:54:52.637Z</time>
      </trkpt>
      <trkpt lat="47.99026" lon="12.30846">
        <ele>541.873068</ele>
        <time>2022-09-13T00:54:54.527Z</time>
      </trkpt>
      <trkpt lat="47.99063" lon="12.30857">
        <ele>541.355279</ele>
        <time>2022-09-13T00:55:02.746Z</time>
      </trkpt>
      <trkpt lat="47.99097" lon="12.30857">
        <ele>540.863715</ele>
        <time>2022-09-13T00:55:10.067Z</time>
      </trkpt>
      <trkpt lat="47.99113" lon="12.30841">
        <ele>540.439507</ele>
        <time>2022-09-13T00:55:13.988Z</time>
      </trkpt>
      <trkpt lat="47.99121" lon="12.30813">
        <ele>539.962542</ele>
        <time>2022-09-13T00:55:18.339Z</time>
      </trkpt>
      <trkpt lat="47.99127" lon="12.30767">
        <ele>539.264049</ele>
        <time>2022-09-13T00:55:24.699Z</time>
      </trkpt>
      <trkpt lat="47.99138" lon="12.3075">
        <ele>538.902014</ele>
        <time>2022-09-13T00:55:27.938Z</time>
      </trkpt>
      <trkpt lat="47.99152" lon="12.30745">
        <ele>538.558263</ele>
        <time>2022-09-13T00:55:30.986Z</time>
      </trkpt>
      <trkpt lat="47.99158" lon="12.30743">
        <ele>538.425645</ele>
        <time>2022-09-13T00:55:32.167Z</time>
      </trkpt>
      <trkpt lat="47.9918" lon="12.30731">
        <ele>537.895873</ele>
        <time>2022-09-13T00:55:36.937Z</time>
      </trkpt>
      <trkpt lat="47.99189" lon="12.30731">
        <ele>537.691409</ele>
        <time>2022-09-13T00:55:38.783Z</time>
      </trkpt>
      <trkpt lat="47.99285" lon="12.30734">
        <ele>535.531895</ele>
        <time>2022-09-13T00:55:58.628Z</time>
      </trkpt>
      <trkpt lat="47.99392" lon="12.30711">
        <ele>533.105638</ele>
        <time>2022-09-13T00:56:20.987Z</time>
      </trkpt>
      <trkpt lat="47.99418" lon="12.3071">
        <ele>532.617849</ele>
        <time>2022-09-13T00:56:26.389Z</time>
      </trkpt>
      <trkpt lat="47.99467" lon="12.30709">
        <ele>531.87783</ele>
        <time>2022-09-13T00:56:36.955Z</time>
      </trkpt>
      <trkpt lat="47.99516" lon="12.30706">
        <ele>531.137044</ele>
        <time>2022-09-13T00:56:47.955Z</time>
      </trkpt>
      <trkpt lat="47.99548" lon="12.30694">
        <ele>530.639986</ele>
        <time>2022-09-13T00:56:55.323Z</time>
      </trkpt>
      <trkpt lat="47.99549" lon="12.30694">
        <ele>530.628645</ele>
        <time>2022-09-13T00:56:55.514Z</time>
      </trkpt>
      <trkpt lat="47.99555" lon="12.3069">
        <ele>530.523001</ele>
        <time>2022-09-13T00:56:57.117Z</time>
      </trkpt>
      <trkpt lat="47.99602" lon="12.30665">
        <ele>529.746682</ele>
        <time>2022-09-13T00:57:08.433Z</time>
      </trkpt>
      <trkpt lat="47.99603" lon="12.30665">
        <ele>529.730886</ele>
        <time>2022-09-13T00:57:08.650Z</time>
      </trkpt>
      <trkpt lat="47.99629" lon="12.30651">
        <ele>529.272776</ele>
        <time>2022-09-13T00:57:14.876Z</time>
      </trkpt>
      <trkpt lat="47.9963" lon="12.30642">
        <ele>529.177143</ele>
        <time>2022-09-13T00:57:16.236Z</time>
      </trkpt>
      <trkpt lat="47.9967" lon="12.30626">
        <ele>528.501429</ele>
        <time>2022-09-13T00:57:25.427Z</time>
      </trkpt>
      <trkpt lat="47.9974" lon="12.30609">
        <ele>527.325711</ele>
        <time>2022-09-13T00:57:41.377Z</time>
      </trkpt>
      <trkpt lat="47.99854" lon="12.3054">
        <ele>522.887919</ele>
        <time>2022-09-13T00:58:05.030Z</time>
      </trkpt>
      <trkpt lat="47.99884" lon="12.30532">
        <ele>521.722029</ele>
        <time>2022-09-13T00:58:10.661Z</time>
      </trkpt>
      <trkpt lat="47.9994" lon="12.30533">
        <ele>519.544399</ele>
        <time>2022-09-13T00:58:20.647Z</time>
      </trkpt>
      <trkpt lat="48.00096" lon="12.30597">
        <ele>512.75185</ele>
        <time>2022-09-13T00:58:50.682Z</time>
      </trkpt>
      <trkpt lat="48.00208" lon="12.30626">
        <ele>510.951229</ele>
        <time>2022-09-13T00:59:14.860Z</time>
      </trkpt>
      <trkpt lat="48.00217" lon="12.30633">
        <ele>510.797542</ele>
        <time>2022-09-13T00:59:17.211Z</time>
      </trkpt>
      <trkpt lat="48.00228" lon="12.30634">
        <ele>510.611059</ele>
        <time>2022-09-13T00:59:20.030Z</time>
      </trkpt>
      <trkpt lat="48.00232" lon="12.3063">
        <ele>510.54314</ele>
        <time>2022-09-13T00:59:21.052Z</time>
      </trkpt>
      <trkpt lat="48.00291" lon="12.30627">
        <ele>509.893499</ele>
        <time>2022-09-13T00:59:37.074Z</time>
      </trkpt>
      <trkpt lat="48.00341" lon="12.306">
        <ele>509.876621</ele>
        <time>2022-09-13T00:59:51.545Z</time>
      </trkpt>
      <trkpt lat="48.00407" lon="12.3055">
        <ele>509.852702</ele>
        <time>2022-09-13T01:00:12.402Z</time>
      </trkpt>
      <trkpt lat="48.00456" lon="12.30494">
        <ele>509.590589</ele>
        <time>2022-09-13T01:00:27.620Z</time>
      </trkpt>
      <trkpt lat="48.00483" lon="12.30438">
        <ele>509.164422</ele>
        <time>2022-09-13T01:00:38.312Z</time>
      </trkpt>
      <trkpt lat="48.00506" lon="12.3037">
        <ele>508.700784</ele>
        <time>2022-09-13T01:00:49.937Z</time>
      </trkpt>
      <trkpt lat="48.00507" lon="12.30367">
        <ele>508.67939</ele>
        <time>2022-09-13T01:00:50.441Z</time>
      </trkpt>
      <trkpt lat="48.00517" lon="12.30339">
        <ele>508.486407</ele>
        <time>2022-09-13T01:00:55.439Z</time>
      </trkpt>
      <trkpt lat="48.00528" lon="12.303">
        <ele>508.226097</ele>
        <time>2022-09-13T01:01:02.318Z</time>
      </trkpt>
      <trkpt lat="48.00556" lon="12.30253">
        <ele>508.048412</ele>
        <time>2022-09-13T01:01:12.545Z</time>
      </trkpt>
      <trkpt lat="48.00577" lon="12.30232">
        <ele>507.950126</ele>
        <time>2022-09-13T01:01:18.688Z</time>
      </trkpt>
      <trkpt lat="48.00604" lon="12.30216">
        <ele>507.841539</ele>
        <time>2022-09-13T01:01:25.716Z</time>
      </trkpt>
      <trkpt lat="48.00657" lon="12.30198">
        <ele>507.634173</ele>
        <time>2022-09-13T01:01:39.700Z</time>
      </trkpt>
      <trkpt lat="48.00708" lon="12.30182">
        <ele>507.838874</ele>
        <time>2022-09-13T01:01:56.702Z</time>
      </trkpt>
      <trkpt lat="48.0079" lon="12.30136">
        <ele>509.333026</ele>
        <time>2022-09-13T01:02:26.573Z</time>
      </trkpt>
      <trkpt lat="48.0082" lon="12.30112">
        <ele>509.929096</ele>
        <time>2022-09-13T01:02:38.971Z</time>
      </trkpt>
      <trkpt lat="48.00895" lon="12.30022">
        <ele>512.961911</ele>
        <time>2022-09-13T01:03:19.699Z</time>
      </trkpt>
      <trkpt lat="48.00918" lon="12.30006">
        <ele>514.018679</ele>
        <time>2022-09-13T01:03:31.888Z</time>
      </trkpt>
      <trkpt lat="48.00972" lon="12.29984">
        <ele>516.319823</ele>
        <time>2022-09-13T01:03:59.781Z</time>
      </trkpt>
      <trkpt lat="48.01062" lon="12.29952">
        <ele>520.320432</ele>
        <time>2022-09-13T01:04:49.328Z</time>
      </trkpt>
      <trkpt lat="48.01229" lon="12.29957">
        <ele>526.215185</ele>
        <time>2022-09-13T01:06:10.341Z</time>
      </trkpt>
      <trkpt lat="48.01348" lon="12.29927">
        <ele>526.848327</ele>
        <time>2022-09-13T01:06:44.088Z</time>
      </trkpt>
      <trkpt lat="48.01451" lon="12.29907">
        <ele>524.47604</ele>
        <time>2022-09-13T01:07:05.531Z</time>
      </trkpt>
      <trkpt lat="48.01511" lon="12.29907">
        <ele>522.703597</ele>
        <time>2022-09-13T01:07:17.455Z</time>
      </trkpt>
      <trkpt lat="48.01647" lon="12.29915">
        <ele>519.570414</ele>
        <time>2022-09-13T01:07:45.900Z</time>
      </trkpt>
      <trkpt lat="48.01741" lon="12.29891">
        <ele>517.915547</ele>
        <time>2022-09-13T01:08:08.701Z</time>
      </trkpt>
      <trkpt lat="48.01821" lon="12.29847">
        <ele>517.884135</ele>
        <time>2022-09-13T01:08:31.541Z</time>
      </trkpt>
      <trkpt lat="48.01895" lon="12.29783">
        <ele>517.903556</ele>
        <time>2022-09-13T01:08:57.121Z</time>
      </trkpt>
      <trkpt lat="48.0193" lon="12.29743">
        <ele>518.286619</ele>
        <time>2022-09-13T01:09:11.472Z</time>
      </trkpt>
      <trkpt lat="48.01932" lon="12.29739">
        <ele>518.311062</ele>
        <time>2022-09-13T01:09:12.406Z</time>
      </trkpt>
      <trkpt lat="48.02035" lon="12.29553">
        <ele>519.679224</ele>
        <time>2022-09-13T01:10:02.873Z</time>
      </trkpt>
      <trkpt lat="48.02056" lon="12.2951">
        <ele>519.969494</ele>
        <time>2022-09-13T01:10:13.925Z</time>
      </trkpt>
      <trkpt lat="48.02071" lon="12.29463">
        <ele>520.254614</ele>
        <time>2022-09-13T01:10:25.182Z</time>
      </trkpt>
      <trkpt lat="48.02075" lon="12.29466">
        <ele>520.291376</ele>
        <time>2022-09-13T01:10:26.634Z</time>
      </trkpt>
      <trkpt lat="48.02216" lon="12.2955">
        <ele>521.040467</ele>
        <time>2022-09-13T01:11:10.854Z</time>
      </trkpt>
      <trkpt lat="48.02301" lon="12.29288">
        <ele>521.444146</ele>
        <time>2022-09-13T01:12:02.307Z</time>
      </trkpt>
      <trkpt lat="48.02329" lon="12.29222">
        <ele>521.551031</ele>
        <time>2022-09-13T01:12:17.129Z</time>
      </trkpt>
      <trkpt lat="48.02365" lon="12.29112">
        <ele>521.969227</ele>
        <time>2022-09-13T01:12:41.333Z</time>
      </trkpt>
      <trkpt lat="48.02372" lon="12.29089">
        <ele>522.083686</ele>
        <time>2022-09-13T01:12:46.243Z</time>
      </trkpt>
      <trkpt lat="48.02383" lon="12.29055">
        <ele>522.258571</ele>
        <time>2022-09-13T01:12:54.294Z</time>
      </trkpt>
      <trkpt lat="48.02405" lon="12.28986">
        <ele>522.61407</ele>
        <time>2022-09-13T01:13:10.341Z</time>
      </trkpt>
      <trkpt lat="48.02431" lon="12.28933">
        <ele>522.793061</ele>
        <time>2022-09-13T01:13:23.537Z</time>
      </trkpt>
      <trkpt lat="48.02466" lon="12.28891">
        <ele>522.384968</ele>
        <time>2022-09-13T01:13:35.943Z</time>
      </trkpt>
      <trkpt lat="48.02495" lon="12.2888">
        <ele>522.110144</ele>
        <time>2022-09-13T01:13:44.365Z</time>
      </trkpt>
      <trkpt lat="48.02504" lon="12.2888">
        <ele>522.026852</ele>
        <time>2022-09-13T01:13:46.735Z</time>
      </trkpt>
      <trkpt lat="48.02531" lon="12.28884">
        <ele>521.783189</ele>
        <time>2022-09-13T01:13:53.167Z</time>
      </trkpt>
      <trkpt lat="48.02556" lon="12.28876">
        <ele>521.555522</ele>
        <time>2022-09-13T01:13:58.762Z</time>
      </trkpt>
      <trkpt lat="48.02563" lon="12.28869">
        <ele>521.475953</ele>
        <time>2022-09-13T01:14:00.545Z</time>
      </trkpt>
      <trkpt lat="48.02585" lon="12.28815">
        <ele>520.374534</ele>
        <time>2022-09-13T01:14:08.819Z</time>
      </trkpt>
      <trkpt lat="48.02588" lon="12.28801">
        <ele>519.838033</ele>
        <time>2022-09-13T01:14:10.678Z</time>
      </trkpt>
      <trkpt lat="48.02588" lon="12.28786">
        <ele>519.252569</ele>
        <time>2022-09-13T01:14:12.702Z</time>
      </trkpt>
      <trkpt lat="48.02589" lon="12.2875">
        <ele>517.927758</ele>
        <time>2022-09-13T01:14:17.096Z</time>
      </trkpt>
      <trkpt lat="48.02596" lon="12.28685">
        <ele>515.507405</ele>
        <time>2022-09-13T01:14:24.860Z</time>
      </trkpt>
      <trkpt lat="48.02597" lon="12.28679">
        <ele>515.282606</ele>
        <time>2022-09-13T01:14:25.568Z</time>
      </trkpt>
      <trkpt lat="48.02607" lon="12.28589">
        <ele>511.872736</ele>
        <time>2022-09-13T01:14:36.109Z</time>
      </trkpt>
      <trkpt lat="48.02627" lon="12.28429">
        <ele>505.335519</ele>
        <time>2022-09-13T01:14:54.566Z</time>
      </trkpt>
      <trkpt lat="48.02642" lon="12.28384">
        <ele>503.272876</ele>
        <time>2022-09-13T01:15:00.640Z</time>
      </trkpt>
      <trkpt lat="48.02677" lon="12.28337">
        <ele>500.425884</ele>
        <time>2022-09-13T01:15:09.246Z</time>
      </trkpt>
      <trkpt lat="48.02732" lon="12.28271">
        <ele>498.18299</ele>
        <time>2022-09-13T01:15:22.697Z</time>
      </trkpt>
      <trkpt lat="48.02748" lon="12.28237">
        <ele>497.306562</ele>
        <time>2022-09-13T01:15:28.269Z</time>
      </trkpt>
      <trkpt lat="48.02764" lon="12.28182">
        <ele>496.055407</ele>
        <time>2022-09-13T01:15:36.300Z</time>
      </trkpt>
      <trkpt lat="48.02783" lon="12.28086">
        <ele>494.141523</ele>
        <time>2022-09-13T01:15:50.379Z</time>
      </trkpt>
      <trkpt lat="48.02779" lon="12.2804">
        <ele>493.401963</ele>
        <time>2022-09-13T01:15:56.780Z</time>
      </trkpt>
      <trkpt lat="48.02854" lon="12.27991">
        <ele>491.464734</ele>
        <time>2022-09-13T01:16:13.351Z</time>
      </trkpt>
      <trkpt lat="48.02864" lon="12.27985">
        <ele>491.218994</ele>
        <time>2022-09-13T01:16:15.465Z</time>
      </trkpt>
      <trkpt lat="48.02868" lon="12.27982">
        <ele>491.091588</ele>
        <time>2022-09-13T01:16:16.556Z</time>
      </trkpt>
      <trkpt lat="48.03007" lon="12.27889">
        <ele>487.8541</ele>
        <time>2022-09-13T01:16:48.087Z</time>
      </trkpt>
      <trkpt lat="48.03083" lon="12.27831">
        <ele>486.193504</ele>
        <time>2022-09-13T01:17:06.337Z</time>
      </trkpt>
      <trkpt lat="48.03129" lon="12.27771">
        <ele>485.163442</ele>
        <time>2022-09-13T01:17:19.720Z</time>
      </trkpt>
      <trkpt lat="48.03188" lon="12.2766">
        <ele>483.625076</ele>
        <time>2022-09-13T01:17:40.458Z</time>
      </trkpt>
      <trkpt lat="48.03215" lon="12.27583">
        <ele>483.12337</ele>
        <time>2022-09-13T01:17:52.970Z</time>
      </trkpt>
      <trkpt lat="48.03222" lon="12.27552">
        <ele>482.934326</ele>
        <time>2022-09-13T01:17:57.876Z</time>
      </trkpt>
      <trkpt lat="48.03239" lon="12.27415">
        <ele>482.123285</ele>
        <time>2022-09-13T01:18:20.773Z</time>
      </trkpt>
      <trkpt lat="48.03248" lon="12.27334">
        <ele>482.970912</ele>
        <time>2022-09-13T01:18:37.083Z</time>
      </trkpt>
      <trkpt lat="48.03268" lon="12.27182">
        <ele>484.589577</ele>
        <time>2022-09-13T01:19:13.574Z</time>
      </trkpt>
      <trkpt lat="48.03307" lon="12.26965">
        <ele>489.044245</ele>
        <time>2022-09-13T01:20:17.735Z</time>
      </trkpt>
      <trkpt lat="48.03347" lon="12.268">
        <ele>492.062321</ele>
        <time>2022-09-13T01:21:07.468Z</time>
      </trkpt>
      <trkpt lat="48.03399" lon="12.26647">
        <ele>494.440342</ele>
        <time>2022-09-13T01:21:48.412Z</time>
      </trkpt>
      <trkpt lat="48.03412" lon="12.2662">
        <ele>494.25288</ele>
        <time>2022-09-13T01:21:54.707Z</time>
      </trkpt>
      <trkpt lat="48.03575" lon="12.26347">
        <ele>491.237257</ele>
        <time>2022-09-13T01:22:49.087Z</time>
      </trkpt>
      <trkpt lat="48.03608" lon="12.26297">
        <ele>490.333852</ele>
        <time>2022-09-13T01:22:58.913Z</time>
      </trkpt>
      <trkpt lat="48.03683" lon="12.26155">
        <ele>487.599226</ele>
        <time>2022-09-13T01:23:23.436Z</time>
      </trkpt>
      <trkpt lat="48.03746" lon="12.26039">
        <ele>485.115347</ele>
        <time>2022-09-13T01:23:43.653Z</time>
      </trkpt>
      <trkpt lat="48.03843" lon="12.25898">
        <ele>482.949591</ele>
        <time>2022-09-13T01:24:12.587Z</time>
      </trkpt>
      <trkpt lat="48.03908" lon="12.25775">
        <ele>481.816335</ele>
        <time>2022-09-13T01:24:37.569Z</time>
      </trkpt>
      <trkpt lat="48.03949" lon="12.25685">
        <ele>481.342</ele>
        <time>2022-09-13T01:24:55.545Z</time>
      </trkpt>
      <trkpt lat="48.04015" lon="12.25532">
        <ele>480.703455</ele>
        <time>2022-09-13T01:25:25.139Z</time>
      </trkpt>
      <trkpt lat="48.04065" lon="12.25417">
        <ele>480.31134</ele>
        <time>2022-09-13T01:25:48.001Z</time>
      </trkpt>
      <trkpt lat="48.04073" lon="12.25381">
        <ele>480.222153</ele>
        <time>2022-09-13T01:25:54.822Z</time>
      </trkpt>
      <trkpt lat="48.04105" lon="12.25068">
        <ele>479.558596</ele>
        <time>2022-09-13T01:26:49.895Z</time>
      </trkpt>
      <trkpt lat="48.04113" lon="12.25008">
        <ele>479.217778</ele>
        <time>2022-09-13T01:26:59.477Z</time>
      </trkpt>
      <trkpt lat="48.04132" lon="12.24936">
        <ele>478.78237</ele>
        <time>2022-09-13T01:27:11.294Z</time>
      </trkpt>
      <trkpt lat="48.04162" lon="12.24837">
        <ele>478.306337</ele>
        <time>2022-09-13T01:27:27.798Z</time>
      </trkpt>
      <trkpt lat="48.04172" lon="12.24759">
        <ele>478.137793</ele>
        <time>2022-09-13T01:27:40.167Z</time>
      </trkpt>
      <trkpt lat="48.04178" lon="12.24745">
        <ele>478.102787</ele>
        <time>2022-09-13T01:27:42.813Z</time>
      </trkpt>
      <trkpt lat="48.04167" lon="12.24659">
        <ele>477.918917</ele>
        <time>2022-09-13T01:27:58.425Z</time>
      </trkpt>
      <trkpt lat="48.04128" lon="12.24538">
        <ele>478.448526</ele>
        <time>2022-09-13T01:28:25.795Z</time>
      </trkpt>
      <trkpt lat="48.04123" lon="12.24541">
        <ele>478.508728</ele>
        <time>2022-09-13T01:28:27.473Z</time>
      </trkpt>
      <trkpt lat="48.04089" lon="12.24434">
        <ele>479.3542</ele>
        <time>2022-09-13T01:28:53.642Z</time>
      </trkpt>
      <trkpt lat="48.04088" lon="12.24428">
        <ele>479.39922</ele>
        <time>2022-09-13T01:28:55.052Z</time>
      </trkpt>
      <trkpt lat="48.04083" lon="12.2435">
        <ele>479.916319</ele>
        <time>2022-09-13T01:29:12.491Z</time>
      </trkpt>
      <trkpt lat="48.04083" lon="12.24343">
        <ele>479.958778</ele>
        <time>2022-09-13T01:29:14.096Z</time>
      </trkpt>
      <trkpt lat="48.04084" lon="12.2429">
        <ele>480.26822</ele>
        <time>2022-09-13T01:29:26.028Z</time>
      </trkpt>
      <trkpt lat="48.04084" lon="12.24281">
        <ele>480.322273</ele>
        <time>2022-09-13T01:29:28.061Z</time>
      </trkpt>
      <trkpt lat="48.04085" lon="12.24267">
        <ele>480.401327</ele>
        <time>2022-09-13T01:29:31.015Z</time>
      </trkpt>
      <trkpt lat="48.04085" lon="12.24259">
        <ele>480.448399</ele>
        <time>2022-09-13T01:29:32.789Z</time>
      </trkpt>
      <trkpt lat="48.04085" lon="12.24239">
        <ele>480.56405</ele>
        <time>2022-09-13T01:29:37.058Z</time>
      </trkpt>
      <trkpt lat="48.04083" lon="12.24152">
        <ele>481.072264</ele>
        <time>2022-09-13T01:29:54.689Z</time>
      </trkpt>
      <trkpt lat="48.04094" lon="12.24149">
        <ele>481.170307</ele>
        <time>2022-09-13T01:29:57.914Z</time>
      </trkpt>
      <trkpt lat="48.04164" lon="12.24082">
        <ele>481.011782</ele>
        <time>2022-09-13T01:30:19.120Z</time>
      </trkpt>
      <trkpt lat="48.04241" lon="12.24027">
        <ele>480.643819</ele>
        <time>2022-09-13T01:30:39.405Z</time>
      </trkpt>
      <trkpt lat="48.04277" lon="12.24002">
        <ele>480.495084</ele>
        <time>2022-09-13T01:30:49.268Z</time>
      </trkpt>
      <trkpt lat="48.04329" lon="12.23964">
        <ele>480.354223</ele>
        <time>2022-09-13T01:31:03.849Z</time>
      </trkpt>
      <trkpt lat="48.04371" lon="12.23934">
        <ele>480.240548</ele>
        <time>2022-09-13T01:31:15.889Z</time>
      </trkpt>
      <trkpt lat="48.04416" lon="12.23919">
        <ele>480.129434</ele>
        <time>2022-09-13T01:31:27.814Z</time>
      </trkpt>
      <trkpt lat="48.04452" lon="12.23908">
        <ele>480.046552</ele>
        <time>2022-09-13T01:31:37.897Z</time>
      </trkpt>
      <trkpt lat="48.04471" lon="12.23903">
        <ele>480.006422</ele>
        <time>2022-09-13T01:31:43.203Z</time>
      </trkpt>
      <trkpt lat="48.04485" lon="12.23899">
        <ele>479.977563</ele>
        <time>2022-09-13T01:31:47.156Z</time>
      </trkpt>
      <trkpt lat="48.04535" lon="12.23887">
        <ele>479.874633</ele>
        <time>2022-09-13T01:32:00.787Z</time>
      </trkpt>
      <trkpt lat="48.04567" lon="12.23888">
        <ele>479.807784</ele>
        <time>2022-09-13T01:32:09.262Z</time>
      </trkpt>
      <trkpt lat="48.04579" lon="12.23888">
        <ele>479.783927</ele>
        <time>2022-09-13T01:32:12.212Z</time>
      </trkpt>
      <trkpt lat="48.04613" lon="12.23881">
        <ele>479.654123</ele>
        <time>2022-09-13T01:32:20.666Z</time>
      </trkpt>
      <trkpt lat="48.04662" lon="12.23862">
        <ele>478.555477</ele>
        <time>2022-09-13T01:32:32.061Z</time>
      </trkpt>
      <trkpt lat="48.04715" lon="12.23819">
        <ele>477.233623</ele>
        <time>2022-09-13T01:32:44.507Z</time>
      </trkpt>
      <trkpt lat="48.04725" lon="12.23809">
        <ele>476.970025</ele>
        <time>2022-09-13T01:32:46.875Z</time>
      </trkpt>
      <trkpt lat="48.04754" lon="12.23773">
        <ele>476.140364</ele>
        <time>2022-09-13T01:32:54.207Z</time>
      </trkpt>
      <trkpt lat="48.04764" lon="12.23765">
        <ele>475.884281</ele>
        <time>2022-09-13T01:32:56.569Z</time>
      </trkpt>
      <trkpt lat="48.04832" lon="12.23723">
        <ele>474.456304</ele>
        <time>2022-09-13T01:33:10.977Z</time>
      </trkpt>
      <trkpt lat="48.04874" lon="12.23677">
        <ele>473.436402</ele>
        <time>2022-09-13T01:33:21.488Z</time>
      </trkpt>
      <trkpt lat="48.04877" lon="12.23673">
        <ele>473.349456</ele>
        <time>2022-09-13T01:33:22.507Z</time>
      </trkpt>
      <trkpt lat="48.04889" lon="12.23656">
        <ele>473.03778</ele>
        <time>2022-09-13T01:33:26.292Z</time>
      </trkpt>
      <trkpt lat="48.04899" lon="12.23642">
        <ele>472.773407</ele>
        <time>2022-09-13T01:33:29.189Z</time>
      </trkpt>
      <trkpt lat="48.04911" lon="12.23629">
        <ele>472.479317</ele>
        <time>2022-09-13T01:33:33.368Z</time>
      </trkpt>
      <trkpt lat="48.04932" lon="12.23611">
        <ele>472.525473</ele>
        <time>2022-09-13T01:33:39.557Z</time>
      </trkpt>
      <trkpt lat="48.04934" lon="12.2361">
        <ele>472.56019</ele>
        <time>2022-09-13T01:33:40.164Z</time>
      </trkpt>
      <trkpt lat="48.04963" lon="12.23591">
        <ele>473.111206</ele>
        <time>2022-09-13T01:33:50.104Z</time>
      </trkpt>
      <trkpt lat="48.05005" lon="12.23575">
        <ele>473.86004</ele>
        <time>2022-09-13T01:34:06.004Z</time>
      </trkpt>
      <trkpt lat="48.05062" lon="12.23569">
        <ele>474.859522</ele>
        <time>2022-09-13T01:34:29.205Z</time>
      </trkpt>
      <trkpt lat="48.05119" lon="12.23552">
        <ele>475.821004</ele>
        <time>2022-09-13T01:34:51.980Z</time>
      </trkpt>
      <trkpt lat="48.05232" lon="12.23487">
        <ele>477.7067</ele>
        <time>2022-09-13T01:35:31.951Z</time>
      </trkpt>
      <trkpt lat="48.05257" lon="12.2347">
        <ele>478.146064</ele>
        <time>2022-09-13T01:35:40.629Z</time>
      </trkpt>
      <trkpt lat="48.05289" lon="12.23447">
        <ele>478.680901</ele>
        <time>2022-09-13T01:35:52.045Z</time>
      </trkpt>
      <trkpt lat="48.05308" lon="12.23435">
        <ele>478.995301</ele>
        <time>2022-09-13T01:35:58.876Z</time>
      </trkpt>
      <trkpt lat="48.05348" lon="12.23463">
        <ele>479.661711</ele>
        <time>2022-09-13T01:36:14.031Z</time>
      </trkpt>
      <trkpt lat="48.05416" lon="12.235">
        <ele>480.747553</ele>
        <time>2022-09-13T01:36:38.829Z</time>
      </trkpt>
      <trkpt lat="48.05429" lon="12.23477">
        <ele>480.842545</ele>
        <time>2022-09-13T01:36:46.026Z</time>
      </trkpt>
      <trkpt lat="48.0546" lon="12.23458">
        <ele>480.416756</ele>
        <time>2022-09-13T01:36:58.797Z</time>
      </trkpt>
      <trkpt lat="48.05477" lon="12.23428">
        <ele>480.089297</ele>
        <time>2022-09-13T01:37:07.178Z</time>
      </trkpt>
      <trkpt lat="48.05473" lon="12.23411">
        <ele>479.943174</ele>
        <time>2022-09-13T01:37:10.167Z</time>
      </trkpt>
      <trkpt lat="48.05464" lon="12.23312">
        <ele>479.111851</ele>
        <time>2022-09-13T01:37:25.197Z</time>
      </trkpt>
      <trkpt lat="48.05437" lon="12.23247">
        <ele>477.235718</ele>
        <time>2022-09-13T01:37:34.359Z</time>
      </trkpt>
      <trkpt lat="48.05422" lon="12.23185">
        <ele>473.596639</ele>
        <time>2022-09-13T01:37:41.840Z</time>
      </trkpt>
      <trkpt lat="48.05409" lon="12.23061">
        <ele>466.750729</ele>
        <time>2022-09-13T01:37:55.732Z</time>
      </trkpt>
      <trkpt lat="48.05413" lon="12.23038">
        <ele>465.434375</ele>
        <time>2022-09-13T01:37:58.254Z</time>
      </trkpt>
      <trkpt lat="48.05427" lon="12.23018">
        <ele>463.816426</ele>
        <time>2022-09-13T01:38:01.599Z</time>
      </trkpt>
      <trkpt lat="48.05448" lon="12.23033">
        <ele>461.780905</ele>
        <time>2022-09-13T01:38:05.329Z</time>
      </trkpt>
      <trkpt lat="48.05481" lon="12.23056">
        <ele>458.598284</ele>
        <time>2022-09-13T01:38:11.357Z</time>
      </trkpt>
      <trkpt lat="48.05515" lon="12.23077">
        <ele>455.435989</ele>
        <time>2022-09-13T01:38:17.341Z</time>
      </trkpt>
      <trkpt lat="48.0554" lon="12.23083">
        <ele>453.257482</ele>
        <time>2022-09-13T01:38:21.406Z</time>
      </trkpt>
      <trkpt lat="48.05547" lon="12.23082">
        <ele>452.625172</ele>
        <time>2022-09-13T01:38:22.618Z</time>
      </trkpt>
      <trkpt lat="48.05559" lon="12.23081">
        <ele>451.575558</ele>
        <time>2022-09-13T01:38:24.693Z</time>
      </trkpt>
      <trkpt lat="48.05562" lon="12.23081">
        <ele>451.322799</ele>
        <time>2022-09-13T01:38:25.199Z</time>
      </trkpt>
      <trkpt lat="48.05581" lon="12.23078">
        <ele>449.724551</ele>
        <time>2022-09-13T01:38:28.523Z</time>
      </trkpt>
      <trkpt lat="48.05588" lon="12.23076">
        <ele>449.0564</ele>
        <time>2022-09-13T01:38:29.898Z</time>
      </trkpt>
      <trkpt lat="48.05622" lon="12.23071">
        <ele>447.509149</ele>
        <time>2022-09-13T01:38:35.961Z</time>
      </trkpt>
      <trkpt lat="48.05641" lon="12.23071">
        <ele>446.86734</ele>
        <time>2022-09-13T01:38:39.569Z</time>
      </trkpt>
      <trkpt lat="48.05728" lon="12.23088">
        <ele>443.969644</ele>
        <time>2022-09-13T01:38:57.389Z</time>
      </trkpt>
      <trkpt lat="48.05752" lon="12.23103">
        <ele>443.119536</ele>
        <time>2022-09-13T01:39:03.048Z</time>
      </trkpt>
      <trkpt lat="48.0576" lon="12.23113">
        <ele>442.769759</ele>
        <time>2022-09-13T01:39:05.241Z</time>
      </trkpt>
      <trkpt lat="48.05784" lon="12.23183">
        <ele>441.051057</ele>
        <time>2022-09-13T01:39:15.950Z</time>
      </trkpt>
      <trkpt lat="48.05803" lon="12.23215">
        <ele>440.100236</ele>
        <time>2022-09-13T01:39:21.623Z</time>
      </trkpt>
      <trkpt lat="48.05806" lon="12.23218">
        <ele>439.976716</ele>
        <time>2022-09-13T01:39:22.346Z</time>
      </trkpt>
      <trkpt lat="48.05822" lon="12.23234">
        <ele>439.348819</ele>
        <time>2022-09-13T01:39:26.018Z</time>
      </trkpt>
      <trkpt lat="48.05836" lon="12.2324">
        <ele>438.8712</ele>
        <time>2022-09-13T01:39:28.708Z</time>
      </trkpt>
      <trkpt lat="48.05863" lon="12.23245">
        <ele>437.991106</ele>
        <time>2022-09-13T01:39:33.821Z</time>
      </trkpt>
      <trkpt lat="48.05877" lon="12.23247">
        <ele>437.516596</ele>
        <time>2022-09-13T01:39:36.667Z</time>
      </trkpt>
      <trkpt lat="48.05879" lon="12.23247">
        <ele>437.470628</ele>
        <time>2022-09-13T01:39:36.938Z</time>
      </trkpt>
      <trkpt lat="48.05995" lon="12.23246">
        <ele>434.263876</ele>
        <time>2022-09-13T01:39:59.196Z</time>
      </trkpt>
      <trkpt lat="48.06002" lon="12.23245">
        <ele>434.074624</ele>
        <time>2022-09-13T01:40:00.618Z</time>
      </trkpt>
      <trkpt lat="48.06004" lon="12.23244">
        <ele>434.02523</ele>
        <time>2022-09-13T01:40:00.992Z</time>
      </trkpt>
      <trkpt lat="48.06016" lon="12.23241">
        <ele>433.726951</ele>
        <time>2022-09-13T01:40:03.193Z</time>
      </trkpt>
      <trkpt lat="48.06047" lon="12.23224">
        <ele>432.869157</ele>
        <time>2022-09-13T01:40:09.985Z</time>
      </trkpt>
      <trkpt lat="48.06056" lon="12.23228">
        <ele>432.629332</ele>
        <time>2022-09-13T01:40:11.984Z</time>
      </trkpt>
      <trkpt lat="48.06061" lon="12.23237">
        <ele>432.433181</ele>
        <time>2022-09-13T01:40:13.623Z</time>
      </trkpt>
      <trkpt lat="48.06069" lon="12.23273">
        <ele>431.904444</ele>
        <time>2022-09-13T01:40:20.042Z</time>
      </trkpt>
      <trkpt lat="48.06079" lon="12.23315">
        <ele>432.036053</ele>
        <time>2022-09-13T01:40:28.798Z</time>
      </trkpt>
      <trkpt lat="48.0608" lon="12.23319">
        <ele>432.047044</ele>
        <time>2022-09-13T01:40:29.569Z</time>
      </trkpt>
      <trkpt lat="48.06084" lon="12.23345">
        <ele>432.1251</ele>
        <time>2022-09-13T01:40:35.183Z</time>
      </trkpt>
      <trkpt lat="48.06085" lon="12.23354">
        <ele>432.151794</ele>
        <time>2022-09-13T01:40:37.458Z</time>
      </trkpt>
      <trkpt lat="48.06086" lon="12.23365">
        <ele>432.184118</ele>
        <time>2022-09-13T01:40:40.143Z</time>
      </trkpt>
      <trkpt lat="48.06108" lon="12.23347">
        <ele>432.291563</ele>
        <time>2022-09-13T01:40:48.931Z</time>
      </trkpt>
      <trkpt lat="48.06149" lon="12.23311">
        <ele>432.496509</ele>
        <time>2022-09-13T01:41:03.594Z</time>
      </trkpt>
      <trkpt lat="48.06176" lon="12.23292">
        <ele>432.624891</ele>
        <time>2022-09-13T01:41:12.050Z</time>
      </trkpt>
      <trkpt lat="48.06194" lon="12.23271">
        <ele>432.702199</ele>
        <time>2022-09-13T01:41:18.376Z</time>
      </trkpt>
      <trkpt lat="48.06219" lon="12.23247">
        <ele>432.784974</ele>
        <time>2022-09-13T01:41:26.724Z</time>
      </trkpt>
      <trkpt lat="48.06222" lon="12.23244">
        <ele>432.794886</ele>
        <time>2022-09-13T01:41:27.732Z</time>
      </trkpt>
      <trkpt lat="48.06244" lon="12.23255">
        <ele>432.861393</ele>
        <time>2022-09-13T01:41:34.629Z</time>
      </trkpt>
      <trkpt lat="48.06255" lon="12.23248">
        <ele>432.893236</ele>
        <time>2022-09-13T01:41:37.615Z</time>
      </trkpt>
      <trkpt lat="48.06256" lon="12.23207">
        <ele>432.969642</ele>
        <time>2022-09-13T01:41:45.337Z</time>
      </trkpt>
      <trkpt lat="48.06253" lon="12.23195">
        <ele>432.993004</ele>
        <time>2022-09-13T01:41:47.574Z</time>
      </trkpt>
      <trkpt lat="48.06189" lon="12.23047">
        <ele>433.329199</ele>
        <time>2022-09-13T01:42:22.846Z</time>
      </trkpt>
      <trkpt lat="48.06176" lon="12.23012">
        <ele>433.406432</ele>
        <time>2022-09-13T01:42:31.691Z</time>
      </trkpt>
      <trkpt lat="48.06161" lon="12.22957">
        <ele>433.52146</ele>
        <time>2022-09-13T01:42:43.232Z</time>
      </trkpt>
      <trkpt lat="48.06162" lon="12.22942">
        <ele>433.549802</ele>
        <time>2022-09-13T01:42:45.675Z</time>
      </trkpt>
      <trkpt lat="48.06162" lon="12.22929">
        <ele>433.575791</ele>
        <time>2022-09-13T01:42:47.992Z</time>
      </trkpt>
      <trkpt lat="48.0616" lon="12.22867">
        <ele>433.631092</ele>
        <time>2022-09-13T01:42:58.197Z</time>
      </trkpt>
      <trkpt lat="48.06151" lon="12.22815">
        <ele>433.086818</ele>
        <time>2022-09-13T01:43:06.700Z</time>
      </trkpt>
      <trkpt lat="48.06185" lon="12.22783">
        <ele>432.475802</ele>
        <time>2022-09-13T01:43:15.987Z</time>
      </trkpt>
      <trkpt lat="48.06207" lon="12.22755">
        <ele>432.048641</ele>
        <time>2022-09-13T01:43:22.145Z</time>
      </trkpt>
      <trkpt lat="48.06232" lon="12.22722">
        <ele>431.541492</ele>
        <time>2022-09-13T01:43:29.276Z</time>
      </trkpt>
      <trkpt lat="48.06234" lon="12.22708">
        <ele>431.393213</ele>
        <time>2022-09-13T01:43:31.360Z</time>
      </trkpt>
      <trkpt lat="48.06235" lon="12.22697">
        <ele>431.287675</ele>
        <time>2022-09-13T01:43:32.773Z</time>
      </trkpt>
      <trkpt lat="48.06243" lon="12.22691">
        <ele>431.151305</ele>
        <time>2022-09-13T01:43:34.610Z</time>
      </trkpt>
      <trkpt lat="48.06241" lon="12.2268">
        <ele>431.035519</ele>
        <time>2022-09-13T01:43:36.151Z</time>
      </trkpt>
      <trkpt lat="48.06231" lon="12.22681">
        <ele>430.919812</ele>
        <time>2022-09-13T01:43:38.281Z</time>
      </trkpt>
      <trkpt lat="48.06187" lon="12.22627">
        <ele>430.435015</ele>
        <time>2022-09-13T01:43:50.352Z</time>
      </trkpt>
      <trkpt lat="48.06182" lon="12.22619">
        <ele>430.369695</ele>
        <time>2022-09-13T01:43:52.050Z</time>
      </trkpt>
      <trkpt lat="48.06175" lon="12.22612">
        <ele>430.301312</ele>
        <time>2022-09-13T01:43:53.991Z</time>
      </trkpt>
      <trkpt lat="48.06135" lon="12.22562">
        <ele>429.853331</ele>
        <time>2022-09-13T01:44:07.664Z</time>
      </trkpt>
      <trkpt lat="48.06109" lon="12.22533">
        <ele>429.582455</ele>
        <time>2022-09-13T01:44:16.845Z</time>
      </trkpt>
      <trkpt lat="48.061" lon="12.22522">
        <ele>429.480599</ele>
        <time>2022-09-13T01:44:20.487Z</time>
      </trkpt>
      <trkpt lat="48.06088" lon="12.22497">
        <ele>429.976438</ele>
        <time>2022-09-13T01:44:26.762Z</time>
      </trkpt>
      <trkpt lat="48.06089" lon="12.22433">
        <ele>431.469163</ele>
        <time>2022-09-13T01:44:42.933Z</time>
      </trkpt>
      <trkpt lat="48.06082" lon="12.22304">
        <ele>434.477964</ele>
        <time>2022-09-13T01:45:18.094Z</time>
      </trkpt>
      <trkpt lat="48.06078" lon="12.22247">
        <ele>436.084884</ele>
        <time>2022-09-13T01:45:40.928Z</time>
      </trkpt>
      <trkpt lat="48.06078" lon="12.22224">
        <ele>437.751305</ele>
        <time>2022-09-13T01:45:52.278Z</time>
      </trkpt>
      <trkpt lat="48.06061" lon="12.22095">
        <ele>447.272019</ele>
        <time>2022-09-13T01:46:57.268Z</time>
      </trkpt>
      <trkpt lat="48.06064" lon="12.22048">
        <ele>450.727692</ele>
        <time>2022-09-13T01:47:25.803Z</time>
      </trkpt>
      <trkpt lat="48.06064" lon="12.22039">
        <ele>451.363933</ele>
        <time>2022-09-13T01:47:30.780Z</time>
      </trkpt>
      <trkpt lat="48.06076" lon="12.21947">
        <ele>458.725583</ele>
        <time>2022-09-13T01:48:30.409Z</time>
      </trkpt>
      <trkpt lat="48.06075" lon="12.21904">
        <ele>462.398671</ele>
        <time>2022-09-13T01:48:58.874Z</time>
      </trkpt>
      <trkpt lat="48.06082" lon="12.21874">
        <ele>465.106284</ele>
        <time>2022-09-13T01:49:19.292Z</time>
      </trkpt>
      <trkpt lat="48.06107" lon="12.21804">
        <ele>471.871522</ele>
        <time>2022-09-13T01:50:09.751Z</time>
      </trkpt>
      <trkpt lat="48.0611" lon="12.21783">
        <ele>473.742118</ele>
        <time>2022-09-13T01:50:21.566Z</time>
      </trkpt>
      <trkpt lat="48.06123" lon="12.21692">
        <ele>479.550487</ele>
        <time>2022-09-13T01:51:07.775Z</time>
      </trkpt>
      <trkpt lat="48.06131" lon="12.21631">
        <ele>481.495213</ele>
        <time>2022-09-13T01:51:31.958Z</time>
      </trkpt>
      <trkpt lat="48.06132" lon="12.21583">
        <ele>482.978929</ele>
        <time>2022-09-13T01:51:47.640Z</time>
      </trkpt>
      <trkpt lat="48.06118" lon="12.21475">
        <ele>486.414009</ele>
        <time>2022-09-13T01:52:14.224Z</time>
      </trkpt>
      <trkpt lat="48.06114" lon="12.21414">
        <ele>486.535904</ele>
        <time>2022-09-13T01:52:24.284Z</time>
      </trkpt>
      <trkpt lat="48.06122" lon="12.21344">
        <ele>486.304201</ele>
        <time>2022-09-13T01:52:35.156Z</time>
      </trkpt>
      <trkpt lat="48.06133" lon="12.21283">
        <ele>486.099751</ele>
        <time>2022-09-13T01:52:44.697Z</time>
      </trkpt>
      <trkpt lat="48.06138" lon="12.21188">
        <ele>485.86716</ele>
        <time>2022-09-13T01:53:00.061Z</time>
      </trkpt>
      <trkpt lat="48.06141" lon="12.21056">
        <ele>486.284894</ele>
        <time>2022-09-13T01:53:24.579Z</time>
      </trkpt>
      <trkpt lat="48.06151" lon="12.21">
        <ele>486.469734</ele>
        <time>2022-09-13T01:53:36.311Z</time>
      </trkpt>
      <trkpt lat="48.06176" lon="12.20944">
        <ele>486.68343</ele>
        <time>2022-09-13T01:53:50.826Z</time>
      </trkpt>
      <trkpt lat="48.06182" lon="12.20924">
        <ele>486.859664</ele>
        <time>2022-09-13T01:53:55.789Z</time>
      </trkpt>
      <trkpt lat="48.06185" lon="12.20912">
        <ele>486.96032</ele>
        <time>2022-09-13T01:53:59.363Z</time>
      </trkpt>
      <trkpt lat="48.06174" lon="12.20896">
        <ele>487.144699</ele>
        <time>2022-09-13T01:54:05.939Z</time>
      </trkpt>
      <trkpt lat="48.06168" lon="12.20878">
        <ele>487.300563</ele>
        <time>2022-09-13T01:54:11.504Z</time>
      </trkpt>
      <trkpt lat="48.06161" lon="12.20861">
        <ele>487.456187</ele>
        <time>2022-09-13T01:54:17.098Z</time>
      </trkpt>
      <trkpt lat="48.06156" lon="12.20859">
        <ele>487.521943</ele>
        <time>2022-09-13T01:54:19.004Z</time>
      </trkpt>
      <trkpt lat="48.06149" lon="12.20857">
        <ele>487.597533</ele>
        <time>2022-09-13T01:54:21.072Z</time>
      </trkpt>
      <trkpt lat="48.06151" lon="12.20827">
        <ele>487.834801</ele>
        <time>2022-09-13T01:54:27.928Z</time>
      </trkpt>
      <trkpt lat="48.06171" lon="12.20775">
        <ele>488.306916</ele>
        <time>2022-09-13T01:54:41.012Z</time>
      </trkpt>
      <trkpt lat="48.06183" lon="12.20728">
        <ele>488.706</ele>
        <time>2022-09-13T01:54:51.338Z</time>
      </trkpt>
      <trkpt lat="48.06215" lon="12.20587">
        <ele>489.319838</ele>
        <time>2022-09-13T01:55:21.242Z</time>
      </trkpt>
      <trkpt lat="48.06273" lon="12.20316">
        <ele>490.236449</ele>
        <time>2022-09-13T01:56:15.392Z</time>
      </trkpt>
      <trkpt lat="48.06266" lon="12.20286">
        <ele>490.322345</ele>
        <time>2022-09-13T01:56:21.024Z</time>
      </trkpt>
      <trkpt lat="48.06268" lon="12.20272">
        <ele>490.361018</ele>
        <time>2022-09-13T01:56:23.840Z</time>
      </trkpt>
      <trkpt lat="48.06272" lon="12.20261">
        <ele>490.394579</ele>
        <time>2022-09-13T01:56:26.255Z</time>
      </trkpt>
      <trkpt lat="48.06283" lon="12.20256">
        <ele>490.440363</ele>
        <time>2022-09-13T01:56:29.433Z</time>
      </trkpt>
      <trkpt lat="48.06291" lon="12.20246">
        <ele>490.483541</ele>
        <time>2022-09-13T01:56:32.633Z</time>
      </trkpt>
      <trkpt lat="48.06294" lon="12.20238">
        <ele>490.509083</ele>
        <time>2022-09-13T01:56:34.543Z</time>
      </trkpt>
      <trkpt lat="48.06301" lon="12.20175">
        <ele>490.847511</ele>
        <time>2022-09-13T01:56:47.274Z</time>
      </trkpt>
      <trkpt lat="48.06298" lon="12.20138">
        <ele>491.082411</ele>
        <time>2022-09-13T01:56:55.040Z</time>
      </trkpt>
      <trkpt lat="48.06285" lon="12.20103">
        <ele>491.329875</ele>
        <time>2022-09-13T01:57:03.322Z</time>
      </trkpt>
      <trkpt lat="48.06261" lon="12.20054">
        <ele>491.71127</ele>
        <time>2022-09-13T01:57:16.844Z</time>
      </trkpt>
      <trkpt lat="48.06148" lon="12.19851">
        <ele>492.638616</ele>
        <time>2022-09-13T01:58:11.859Z</time>
      </trkpt>
      <trkpt lat="48.06144" lon="12.19842">
        <ele>492.664806</ele>
        <time>2022-09-13T01:58:13.837Z</time>
      </trkpt>
      <trkpt lat="48.06122" lon="12.1979">
        <ele>492.804323</ele>
        <time>2022-09-13T01:58:23.808Z</time>
      </trkpt>
      <trkpt lat="48.06064" lon="12.19697">
        <ele>491.714978</ele>
        <time>2022-09-13T01:58:42.873Z</time>
      </trkpt>
      <trkpt lat="48.06" lon="12.19618">
        <ele>490.467313</ele>
        <time>2022-09-13T01:59:00.417Z</time>
      </trkpt>
      <trkpt lat="48.05957" lon="12.19568">
        <ele>489.913713</ele>
        <time>2022-09-13T01:59:12.140Z</time>
      </trkpt>
      <trkpt lat="48.05891" lon="12.19446">
        <ele>489.202565</ele>
        <time>2022-09-13T01:59:36.610Z</time>
      </trkpt>
      <trkpt lat="48.05831" lon="12.19281">
        <ele>490.166223</ele>
        <time>2022-09-13T02:00:14.596Z</time>
      </trkpt>
      <trkpt lat="48.05808" lon="12.19152">
        <ele>491.513664</ele>
        <time>2022-09-13T02:00:47.703Z</time>
      </trkpt>
      <trkpt lat="48.05797" lon="12.1899">
        <ele>493.615798</ele>
        <time>2022-09-13T02:01:31.037Z</time>
      </trkpt>
      <trkpt lat="48.05795" lon="12.18938">
        <ele>494.294421</ele>
        <time>2022-09-13T02:01:43.893Z</time>
      </trkpt>
      <trkpt lat="48.0578" lon="12.18892">
        <ele>494.968189</ele>
        <time>2022-09-13T02:01:55.063Z</time>
      </trkpt>
      <trkpt lat="48.05768" lon="12.18868">
        <ele>495.110032</ele>
        <time>2022-09-13T02:02:00.707Z</time>
      </trkpt>
      <trkpt lat="48.05745" lon="12.18839">
        <ele>494.979128</ele>
        <time>2022-09-13T02:02:08.536Z</time>
      </trkpt>
      <trkpt lat="48.05698" lon="12.18789">
        <ele>494.723521</ele>
        <time>2022-09-13T02:02:22.477Z</time>
      </trkpt>
      <trkpt lat="48.05671" lon="12.18751">
        <ele>494.561959</ele>
        <time>2022-09-13T02:02:31.457Z</time>
      </trkpt>
      <trkpt lat="48.05671" lon="12.18735">
        <ele>494.514225</ele>
        <time>2022-09-13T02:02:34.057Z</time>
      </trkpt>
      <trkpt lat="48.05671" lon="12.1873">
        <ele>494.499191</ele>
        <time>2022-09-13T02:02:34.901Z</time>
      </trkpt>
      <trkpt lat="48.05671" lon="12.18711">
        <ele>494.44378</ele>
        <time>2022-09-13T02:02:37.869Z</time>
      </trkpt>
      <trkpt lat="48.05671" lon="12.18684">
        <ele>494.364801</ele>
        <time>2022-09-13T02:02:42.191Z</time>
      </trkpt>
      <trkpt lat="48.05666" lon="12.18659">
        <ele>494.032136</ele>
        <time>2022-09-13T02:02:46.322Z</time>
      </trkpt>
      <trkpt lat="48.05611" lon="12.18645">
        <ele>492.978118</ele>
        <time>2022-09-13T02:02:58.169Z</time>
      </trkpt>
      <trkpt lat="48.05596" lon="12.18641">
        <ele>492.691107</ele>
        <time>2022-09-13T02:03:01.338Z</time>
      </trkpt>
      <trkpt lat="48.05593" lon="12.1864">
        <ele>492.647293</ele>
        <time>2022-09-13T02:03:01.843Z</time>
      </trkpt>
      <trkpt lat="48.0552" lon="12.18635">
        <ele>491.265745</ele>
        <time>2022-09-13T02:03:17.249Z</time>
      </trkpt>
      <trkpt lat="48.05482" lon="12.18636">
        <ele>490.373012</ele>
        <time>2022-09-13T02:03:25.137Z</time>
      </trkpt>
      <trkpt lat="48.05462" lon="12.18634">
        <ele>489.83355</ele>
        <time>2022-09-13T02:03:29.143Z</time>
      </trkpt>
      <trkpt lat="48.05427" lon="12.18611">
        <ele>488.810824</ele>
        <time>2022-09-13T02:03:36.773Z</time>
      </trkpt>
      <trkpt lat="48.05372" lon="12.18557">
        <ele>487.039381</ele>
        <time>2022-09-13T02:03:49.623Z</time>
      </trkpt>
      <trkpt lat="48.05331" lon="12.18513">
        <ele>485.927649</ele>
        <time>2022-09-13T02:03:59.746Z</time>
      </trkpt>
      <trkpt lat="48.05325" lon="12.18508">
        <ele>485.838648</ele>
        <time>2022-09-13T02:04:01.181Z</time>
      </trkpt>
      <trkpt lat="48.05261" lon="12.18453">
        <ele>484.874813</ele>
        <time>2022-09-13T02:04:17.948Z</time>
      </trkpt>
      <trkpt lat="48.05205" lon="12.1841">
        <ele>484.052156</ele>
        <time>2022-09-13T02:04:33.391Z</time>
      </trkpt>
      <trkpt lat="48.05216" lon="12.18351">
        <ele>483.330322</ele>
        <time>2022-09-13T02:04:43.272Z</time>
      </trkpt>
      <trkpt lat="48.05246" lon="12.18212">
        <ele>481.211341</ele>
        <time>2022-09-13T02:05:05.084Z</time>
      </trkpt>
      <trkpt lat="48.05244" lon="12.18198">
        <ele>481.004545</ele>
        <time>2022-09-13T02:05:06.919Z</time>
      </trkpt>
      <trkpt lat="48.05209" lon="12.18106">
        <ele>479.129794</ele>
        <time>2022-09-13T02:05:20.278Z</time>
      </trkpt>
      <trkpt lat="48.052" lon="12.18043">
        <ele>477.514312</ele>
        <time>2022-09-13T02:05:28.179Z</time>
      </trkpt>
      <trkpt lat="48.05201" lon="12.17981">
        <ele>475.953858</ele>
        <time>2022-09-13T02:05:35.813Z</time>
      </trkpt>
      <trkpt lat="48.05203" lon="12.17948">
        <ele>475.106379</ele>
        <time>2022-09-13T02:05:40.100Z</time>
      </trkpt>
      <trkpt lat="48.05208" lon="12.1784">
        <ele>472.921152</ele>
        <time>2022-09-13T02:05:54.265Z</time>
      </trkpt>
      <trkpt lat="48.05213" lon="12.17774">
        <ele>472.431225</ele>
        <time>2022-09-13T02:06:03.747Z</time>
      </trkpt>
      <trkpt lat="48.05231" lon="12.17738">
        <ele>472.098</ele>
        <time>2022-09-13T02:06:11.221Z</time>
      </trkpt>
      <trkpt lat="48.05247" lon="12.17718">
        <ele>471.87201</ele>
        <time>2022-09-13T02:06:16.679Z</time>
      </trkpt>
      <trkpt lat="48.05261" lon="12.17684">
        <ele>471.576497</ele>
        <time>2022-09-13T02:06:23.556Z</time>
      </trkpt>
      <trkpt lat="48.05272" lon="12.17576">
        <ele>470.876889</ele>
        <time>2022-09-13T02:06:42.333Z</time>
      </trkpt>
      <trkpt lat="48.05278" lon="12.17544">
        <ele>470.700533</ele>
        <time>2022-09-13T02:06:47.954Z</time>
      </trkpt>
      <trkpt lat="48.0528" lon="12.17532">
        <ele>470.632179</ele>
        <time>2022-09-13T02:06:50.134Z</time>
      </trkpt>
      <trkpt lat="48.05297" lon="12.17446">
        <ele>470.154335</ele>
        <time>2022-09-13T02:07:04.027Z</time>
      </trkpt>
      <trkpt lat="48.05318" lon="12.17345">
        <ele>469.753679</ele>
        <time>2022-09-13T02:07:19.772Z</time>
      </trkpt>
      <trkpt lat="48.05324" lon="12.1732">
        <ele>469.784999</ele>
        <time>2022-09-13T02:07:23.603Z</time>
      </trkpt>
      <trkpt lat="48.05325" lon="12.17313">
        <ele>469.795071</ele>
        <time>2022-09-13T02:07:24.831Z</time>
      </trkpt>
      <trkpt lat="48.05345" lon="12.17251">
        <ele>469.878199</ele>
        <time>2022-09-13T02:07:35.684Z</time>
      </trkpt>
      <trkpt lat="48.054" lon="12.17153">
        <ele>470.03396</ele>
        <time>2022-09-13T02:08:02.037Z</time>
      </trkpt>
      <trkpt lat="48.05401" lon="12.17138">
        <ele>470.067973</ele>
        <time>2022-09-13T02:08:05.693Z</time>
      </trkpt>
      <trkpt lat="48.0539" lon="12.17078">
        <ele>471.166633</ele>
        <time>2022-09-13T02:08:21.410Z</time>
      </trkpt>
      <trkpt lat="48.05404" lon="12.17025">
        <ele>472.151241</ele>
        <time>2022-09-13T02:08:36.713Z</time>
      </trkpt>
      <trkpt lat="48.05445" lon="12.16807">
        <ele>475.67746</ele>
        <time>2022-09-13T02:09:39.293Z</time>
      </trkpt>
      <trkpt lat="48.05463" lon="12.1674">
        <ele>476.513619</ele>
        <time>2022-09-13T02:09:56.554Z</time>
      </trkpt>
      <trkpt lat="48.05469" lon="12.16708">
        <ele>476.892826</ele>
        <time>2022-09-13T02:10:03.712Z</time>
      </trkpt>
      <trkpt lat="48.05468" lon="12.16669">
        <ele>477.348116</ele>
        <time>2022-09-13T02:10:11.989Z</time>
      </trkpt>
      <trkpt lat="48.05471" lon="12.16645">
        <ele>477.629869</ele>
        <time>2022-09-13T02:10:16.982Z</time>
      </trkpt>
      <trkpt lat="48.05501" lon="12.16577">
        <ele>478.054796</ele>
        <time>2022-09-13T02:10:32.132Z</time>
      </trkpt>
      <trkpt lat="48.05509" lon="12.16566">
        <ele>478.10165</ele>
        <time>2022-09-13T02:10:35.231Z</time>
      </trkpt>
      <trkpt lat="48.05536" lon="12.16535">
        <ele>478.243594</ele>
        <time>2022-09-13T02:10:44.890Z</time>
      </trkpt>
      <trkpt lat="48.05572" lon="12.16496">
        <ele>478.428051</ele>
        <time>2022-09-13T02:10:58.040Z</time>
      </trkpt>
      <trkpt lat="48.05592" lon="12.16483">
        <ele>478.518882</ele>
        <time>2022-09-13T02:11:04.331Z</time>
      </trkpt>
      <trkpt lat="48.05589" lon="12.16465">
        <ele>478.572254</ele>
        <time>2022-09-13T02:11:08.182Z</time>
      </trkpt>
      <trkpt lat="48.05595" lon="12.1643">
        <ele>478.692991</ele>
        <time>2022-09-13T02:11:15.104Z</time>
      </trkpt>
      <trkpt lat="48.05601" lon="12.16418">
        <ele>478.763569</ele>
        <time>2022-09-13T02:11:18.053Z</time>
      </trkpt>
      <trkpt lat="48.05653" lon="12.16313">
        <ele>479.392291</ele>
        <time>2022-09-13T02:11:44.031Z</time>
      </trkpt>
      <trkpt lat="48.05672" lon="12.16275">
        <ele>479.623103</ele>
        <time>2022-09-13T02:11:54.055Z</time>
      </trkpt>
      <trkpt lat="48.05684" lon="12.16252">
        <ele>479.765419</ele>
        <time>2022-09-13T02:12:00.201Z</time>
      </trkpt>
      <trkpt lat="48.05701" lon="12.16222">
        <ele>479.950028</ele>
        <time>2022-09-13T02:12:08.332Z</time>
      </trkpt>
      <trkpt lat="48.05717" lon="12.16194">
        <ele>480.056466</ele>
        <time>2022-09-13T02:12:15.644Z</time>
      </trkpt>
      <trkpt lat="48.05731" lon="12.16164">
        <ele>480.164567</ele>
        <time>2022-09-13T02:12:22.985Z</time>
      </trkpt>
      <trkpt lat="48.05739" lon="12.16129">
        <ele>480.271745</ele>
        <time>2022-09-13T02:12:30.197Z</time>
      </trkpt>
      <trkpt lat="48.05747" lon="12.1602">
        <ele>480.590964</ele>
        <time>2022-09-13T02:12:50.804Z</time>
      </trkpt>
      <trkpt lat="48.05748" lon="12.1601">
        <ele>480.619848</ele>
        <time>2022-09-13T02:12:52.626Z</time>
      </trkpt>
      <trkpt lat="48.05758" lon="12.15901">
        <ele>480.526616</ele>
        <time>2022-09-13T02:13:13.280Z</time>
      </trkpt>
      <trkpt lat="48.05768" lon="12.15838">
        <ele>480.350176</ele>
        <time>2022-09-13T02:13:23.793Z</time>
      </trkpt>
      <trkpt lat="48.05792" lon="12.15763">
        <ele>480.122326</ele>
        <time>2022-09-13T02:13:37.011Z</time>
      </trkpt>
      <trkpt lat="48.05795" lon="12.15753">
        <ele>480.092238</ele>
        <time>2022-09-13T02:13:38.725Z</time>
      </trkpt>
      <trkpt lat="48.05803" lon="12.15723">
        <ele>480.004452</ele>
        <time>2022-09-13T02:13:43.864Z</time>
      </trkpt>
      <trkpt lat="48.05811" lon="12.15696">
        <ele>479.950562</ele>
        <time>2022-09-13T02:13:48.593Z</time>
      </trkpt>
      <trkpt lat="48.05819" lon="12.15688">
        <ele>479.927247</ele>
        <time>2022-09-13T02:13:50.888Z</time>
      </trkpt>
      <trkpt lat="48.0582" lon="12.15674">
        <ele>479.904418</ele>
        <time>2022-09-13T02:13:53.203Z</time>
      </trkpt>
      <trkpt lat="48.05818" lon="12.15666">
        <ele>479.889684</ele>
        <time>2022-09-13T02:13:54.663Z</time>
      </trkpt>
      <trkpt lat="48.05817" lon="12.15649">
        <ele>479.861275</ele>
        <time>2022-09-13T02:13:57.444Z</time>
      </trkpt>
      <trkpt lat="48.05812" lon="12.15647">
        <ele>479.848644</ele>
        <time>2022-09-13T02:13:58.717Z</time>
      </trkpt>
      <trkpt lat="48.05809" lon="12.15644">
        <ele>479.838863</ele>
        <time>2022-09-13T02:13:59.690Z</time>
      </trkpt>
      <trkpt lat="48.05853" lon="12.15425">
        <ele>479.917582</ele>
        <time>2022-09-13T02:14:39.728Z</time>
      </trkpt>
      <trkpt lat="48.05888" lon="12.15279">
        <ele>481.020735</ele>
        <time>2022-09-13T02:15:12.568Z</time>
      </trkpt>
      <trkpt lat="48.05893" lon="12.15214">
        <ele>481.525433</ele>
        <time>2022-09-13T02:15:27.678Z</time>
      </trkpt>
      <trkpt lat="48.05875" lon="12.14614">
        <ele>492.891604</ele>
        <time>2022-09-13T02:18:09.518Z</time>
      </trkpt>
      <trkpt lat="48.05866" lon="12.14573">
        <ele>493.868956</ele>
        <time>2022-09-13T02:18:21.608Z</time>
      </trkpt>
      <trkpt lat="48.05872" lon="12.14535">
        <ele>494.774346</ele>
        <time>2022-09-13T02:18:32.950Z</time>
      </trkpt>
      <trkpt lat="48.05873" lon="12.14184">
        <ele>502.699723</ele>
        <time>2022-09-13T02:20:17.847Z</time>
      </trkpt>
      <trkpt lat="48.05914" lon="12.13659">
        <ele>509.230837</ele>
        <time>2022-09-13T02:22:24.172Z</time>
      </trkpt>
      <trkpt lat="48.05929" lon="12.13443">
        <ele>508.989512</ele>
        <time>2022-09-13T02:23:00.862Z</time>
      </trkpt>
      <trkpt lat="48.05935" lon="12.13237">
        <ele>508.274759</ele>
        <time>2022-09-13T02:23:31.702Z</time>
      </trkpt>
      <trkpt lat="48.05974" lon="12.12984">
        <ele>508.268712</ele>
        <time>2022-09-13T02:24:19.340Z</time>
      </trkpt>
      <trkpt lat="48.05979" lon="12.12766">
        <ele>508.277142</ele>
        <time>2022-09-13T02:25:07.826Z</time>
      </trkpt>
      <trkpt lat="48.06001" lon="12.1262">
        <ele>505.511459</ele>
        <time>2022-09-13T02:25:28.234Z</time>
      </trkpt>
      <trkpt lat="48.06007" lon="12.12543">
        <ele>504.035724</ele>
        <time>2022-09-13T02:25:37.400Z</time>
      </trkpt>
      <trkpt lat="48.06016" lon="12.12462">
        <ele>501.022287</ele>
        <time>2022-09-13T02:25:46.775Z</time>
      </trkpt>
      <trkpt lat="48.06056" lon="12.12213">
        <ele>493.240587</ele>
        <time>2022-09-13T02:26:17.694Z</time>
      </trkpt>
      <trkpt lat="48.06062" lon="12.12009">
        <ele>490.477228</ele>
        <time>2022-09-13T02:26:48.683Z</time>
      </trkpt>
      <trkpt lat="48.06079" lon="12.11946">
        <ele>490.819783</ele>
        <time>2022-09-13T02:27:02.280Z</time>
      </trkpt>
      <trkpt lat="48.06106" lon="12.11885">
        <ele>491.187511</ele>
        <time>2022-09-13T02:27:18.075Z</time>
      </trkpt>
      <trkpt lat="48.06129" lon="12.11827">
        <ele>491.524314</ele>
        <time>2022-09-13T02:27:32.854Z</time>
      </trkpt>
      <trkpt lat="48.06138" lon="12.1178">
        <ele>491.76841</ele>
        <time>2022-09-13T02:27:43.212Z</time>
      </trkpt>
      <trkpt lat="48.0615" lon="12.11739">
        <ele>492.082949</ele>
        <time>2022-09-13T02:27:52.822Z</time>
      </trkpt>
      <trkpt lat="48.06162" lon="12.11688">
        <ele>492.478867</ele>
        <time>2022-09-13T02:28:04.482Z</time>
      </trkpt>
      <trkpt lat="48.06184" lon="12.11641">
        <ele>492.899777</ele>
        <time>2022-09-13T02:28:16.948Z</time>
      </trkpt>
      <trkpt lat="48.06211" lon="12.11595">
        <ele>493.343034</ele>
        <time>2022-09-13T02:28:30.084Z</time>
      </trkpt>
      <trkpt lat="48.06235" lon="12.11535">
        <ele>493.828589</ele>
        <time>2022-09-13T02:28:44.763Z</time>
      </trkpt>
      <trkpt lat="48.06244" lon="12.11493">
        <ele>494.055227</ele>
        <time>2022-09-13T02:28:53.468Z</time>
      </trkpt>
      <trkpt lat="48.06248" lon="12.11449">
        <ele>494.28816</ele>
        <time>2022-09-13T02:29:02.326Z</time>
      </trkpt>
      <trkpt lat="48.06246" lon="12.11405">
        <ele>494.516219</ele>
        <time>2022-09-13T02:29:10.984Z</time>
      </trkpt>
      <trkpt lat="48.06207" lon="12.11186">
        <ele>495.299825</ele>
        <time>2022-09-13T02:29:57.941Z</time>
      </trkpt>
      <trkpt lat="48.06196" lon="12.11142">
        <ele>495.365845</ele>
        <time>2022-09-13T02:30:06.729Z</time>
      </trkpt>
      <trkpt lat="48.06181" lon="12.11127">
        <ele>495.403745</ele>
        <time>2022-09-13T02:30:11.583Z</time>
      </trkpt>
      <trkpt lat="48.06179" lon="12.11118">
        <ele>495.416592</ele>
        <time>2022-09-13T02:30:13.291Z</time>
      </trkpt>
      <trkpt lat="48.0618" lon="12.11109">
        <ele>495.429835</ele>
        <time>2022-09-13T02:30:14.870Z</time>
      </trkpt>
      <trkpt lat="48.0618" lon="12.11103">
        <ele>495.437641</ele>
        <time>2022-09-13T02:30:15.783Z</time>
      </trkpt>
      <trkpt lat="48.06191" lon="12.11082">
        <ele>495.474814</ele>
        <time>2022-09-13T02:30:20.246Z</time>
      </trkpt>
      <trkpt lat="48.06197" lon="12.11081">
        <ele>495.488396</ele>
        <time>2022-09-13T02:30:21.940Z</time>
      </trkpt>
      <trkpt lat="48.06218" lon="12.11093">
        <ele>495.52294</ele>
        <time>2022-09-13T02:30:27.132Z</time>
      </trkpt>
      <trkpt lat="48.06367" lon="12.1105">
        <ele>494.513976</ele>
        <time>2022-09-13T02:31:02.880Z</time>
      </trkpt>
      <trkpt lat="48.06371" lon="12.11049">
        <ele>494.489822</ele>
        <time>2022-09-13T02:31:03.751Z</time>
      </trkpt>
      <trkpt lat="48.06492" lon="12.11025">
        <ele>494.693519</ele>
        <time>2022-09-13T02:31:35.859Z</time>
      </trkpt>
      <trkpt lat="48.06597" lon="12.11043">
        <ele>495.363428</ele>
        <time>2022-09-13T02:32:09.017Z</time>
      </trkpt>
      <trkpt lat="48.06627" lon="12.11035">
        <ele>495.818966</ele>
        <time>2022-09-13T02:32:19.062Z</time>
      </trkpt>
      <trkpt lat="48.06734" lon="12.10946">
        <ele>497.649354</ele>
        <time>2022-09-13T02:33:01.413Z</time>
      </trkpt>
      <trkpt lat="48.06787" lon="12.10865">
        <ele>499.134972</ele>
        <time>2022-09-13T02:33:28.434Z</time>
      </trkpt>
      <trkpt lat="48.06838" lon="12.10818">
        <ele>500.316263</ele>
        <time>2022-09-13T02:33:49.780Z</time>
      </trkpt>
      <trkpt lat="48.06881" lon="12.10788">
        <ele>501.228774</ele>
        <time>2022-09-13T02:34:08.097Z</time>
      </trkpt>
      <trkpt lat="48.06928" lon="12.10768">
        <ele>501.886894</ele>
        <time>2022-09-13T02:34:26.448Z</time>
      </trkpt>
      <trkpt lat="48.06962" lon="12.10746">
        <ele>502.380565</ele>
        <time>2022-09-13T02:34:39.266Z</time>
      </trkpt>
      <trkpt lat="48.07026" lon="12.10734">
        <ele>503.258606</ele>
        <time>2022-09-13T02:35:00.283Z</time>
      </trkpt>
      <trkpt lat="48.07132" lon="12.10736">
        <ele>503.232177</ele>
        <time>2022-09-13T02:35:28.155Z</time>
      </trkpt>
      <trkpt lat="48.0716" lon="12.10729">
        <ele>503.087969</ele>
        <time>2022-09-13T02:35:34.693Z</time>
      </trkpt>
      <trkpt lat="48.07242" lon="12.10692">
        <ele>502.9533</ele>
        <time>2022-09-13T02:35:53.834Z</time>
      </trkpt>
      <trkpt lat="48.07272" lon="12.10669">
        <ele>503.584637</ele>
        <time>2022-09-13T02:36:03.169Z</time>
      </trkpt>
      <trkpt lat="48.07294" lon="12.10638">
        <ele>504.140923</ele>
        <time>2022-09-13T02:36:13.196Z</time>
      </trkpt>
      <trkpt lat="48.07321" lon="12.10571">
        <ele>505.111551</ele>
        <time>2022-09-13T02:36:33.651Z</time>
      </trkpt>
      <trkpt lat="48.07327" lon="12.1053">
        <ele>505.634141</ele>
        <time>2022-09-13T02:36:45.394Z</time>
      </trkpt>
      <trkpt lat="48.07412" lon="12.10471">
        <ele>508.667655</ele>
        <time>2022-09-13T02:37:28.955Z</time>
      </trkpt>
      <trkpt lat="48.07497" lon="12.10416">
        <ele>512.071194</ele>
        <time>2022-09-13T02:38:11.674Z</time>
      </trkpt>
      <trkpt lat="48.07551" lon="12.10392">
        <ele>513.165664</ele>
        <time>2022-09-13T02:38:33.710Z</time>
      </trkpt>
      <trkpt lat="48.07765" lon="12.10268">
        <ele>514.887594</ele>
        <time>2022-09-13T02:39:41.287Z</time>
      </trkpt>
      <trkpt lat="48.07845" lon="12.10228">
        <ele>514.879159</ele>
        <time>2022-09-13T02:40:01.884Z</time>
      </trkpt>
      <trkpt lat="48.07849" lon="12.10179">
        <ele>514.973636</ele>
        <time>2022-09-13T02:40:10.065Z</time>
      </trkpt>
      <trkpt lat="48.07863" lon="12.10141">
        <ele>515.079175</ele>
        <time>2022-09-13T02:40:17.260Z</time>
      </trkpt>
      <trkpt lat="48.0787" lon="12.1009">
        <ele>515.206225</ele>
        <time>2022-09-13T02:40:25.837Z</time>
      </trkpt>
      <trkpt lat="48.07886" lon="12.10046">
        <ele>515.325753</ele>
        <time>2022-09-13T02:40:34.822Z</time>
      </trkpt>
      <trkpt lat="48.07943" lon="12.0974">
        <ele>517.277629</ele>
        <time>2022-09-13T02:41:49.444Z</time>
      </trkpt>
      <trkpt lat="48.07961" lon="12.09669">
        <ele>516.739442</ele>
        <time>2022-09-13T02:42:01.546Z</time>
      </trkpt>
      <trkpt lat="48.07989" lon="12.09584">
        <ele>514.817749</ele>
        <time>2022-09-13T02:42:14.714Z</time>
      </trkpt>
      <trkpt lat="48.08013" lon="12.09513">
        <ele>513.216821</ele>
        <time>2022-09-13T02:42:24.605Z</time>
      </trkpt>
      <trkpt lat="48.08031" lon="12.09469">
        <ele>512.174694</ele>
        <time>2022-09-13T02:42:30.867Z</time>
      </trkpt>
      <trkpt lat="48.08055" lon="12.09381">
        <ele>509.606661</ele>
        <time>2022-09-13T02:42:42.200Z</time>
      </trkpt>
      <trkpt lat="48.08054" lon="12.09356">
        <ele>508.929114</ele>
        <time>2022-09-13T02:42:45.048Z</time>
      </trkpt>
      <trkpt lat="48.08055" lon="12.09345">
        <ele>508.631633</ele>
        <time>2022-09-13T02:42:46.426Z</time>
      </trkpt>
      <trkpt lat="48.08069" lon="12.09354">
        <ele>507.998435</ele>
        <time>2022-09-13T02:42:49.370Z</time>
      </trkpt>
      <trkpt lat="48.0807" lon="12.0935">
        <ele>507.875112</ele>
        <time>2022-09-13T02:42:49.895Z</time>
      </trkpt>
      <trkpt lat="48.08122" lon="12.09168">
        <ele>504.085383</ele>
        <time>2022-09-13T02:43:17.126Z</time>
      </trkpt>
      <trkpt lat="48.08143" lon="12.09093">
        <ele>503.378985</ele>
        <time>2022-09-13T02:43:31.358Z</time>
      </trkpt>
      <trkpt lat="48.08144" lon="12.0909">
        <ele>503.350629</ele>
        <time>2022-09-13T02:43:31.886Z</time>
      </trkpt>
      <trkpt lat="48.0815" lon="12.0907">
        <ele>503.169461</ele>
        <time>2022-09-13T02:43:35.192Z</time>
      </trkpt>
      <trkpt lat="48.0817" lon="12.09016">
        <ele>502.628651</ele>
        <time>2022-09-13T02:43:45.005Z</time>
      </trkpt>
      <trkpt lat="48.08204" lon="12.08968">
        <ele>501.714912</ele>
        <time>2022-09-13T02:43:55.236Z</time>
      </trkpt>
      <trkpt lat="48.0819" lon="12.08927">
        <ele>501.059968</ele>
        <time>2022-09-13T02:44:01.614Z</time>
      </trkpt>
      <trkpt lat="48.0818" lon="12.08833">
        <ele>499.695925</ele>
        <time>2022-09-13T02:44:14.576Z</time>
      </trkpt>
      <trkpt lat="48.08168" lon="12.08762">
        <ele>498.637644</ele>
        <time>2022-09-13T02:44:24.646Z</time>
      </trkpt>
      <trkpt lat="48.08157" lon="12.08643">
        <ele>497.411374</ele>
        <time>2022-09-13T02:44:40.788Z</time>
      </trkpt>
      <trkpt lat="48.08154" lon="12.08568">
        <ele>496.650489</ele>
        <time>2022-09-13T02:44:51.774Z</time>
      </trkpt>
      <trkpt lat="48.08146" lon="12.08473">
        <ele>496.086939</ele>
        <time>2022-09-13T02:45:08.168Z</time>
      </trkpt>
      <trkpt lat="48.08146" lon="12.08426">
        <ele>496.554703</ele>
        <time>2022-09-13T02:45:17.491Z</time>
      </trkpt>
      <trkpt lat="48.08158" lon="12.08293">
        <ele>497.865572</ele>
        <time>2022-09-13T02:45:47.505Z</time>
      </trkpt>
      <trkpt lat="48.08155" lon="12.08277">
        <ele>498.021886</ele>
        <time>2022-09-13T02:45:51.610Z</time>
      </trkpt>
      <trkpt lat="48.08134" lon="12.082">
        <ele>499.183959</ele>
        <time>2022-09-13T02:46:14.534Z</time>
      </trkpt>
      <trkpt lat="48.08129" lon="12.08136">
        <ele>500.529454</ele>
        <time>2022-09-13T02:46:33.240Z</time>
      </trkpt>
      <trkpt lat="48.08138" lon="12.08137">
        <ele>500.800236</ele>
        <time>2022-09-13T02:46:37.015Z</time>
      </trkpt>
      <trkpt lat="48.082" lon="12.08137">
        <ele>502.724908</ele>
        <time>2022-09-13T02:47:03.083Z</time>
      </trkpt>
      <trkpt lat="48.08213" lon="12.08065">
        <ele>504.220665</ele>
        <time>2022-09-13T02:47:24.864Z</time>
      </trkpt>
      <trkpt lat="48.08276" lon="12.07907">
        <ele>506.894275</ele>
        <time>2022-09-13T02:48:14.602Z</time>
      </trkpt>
      <trkpt lat="48.0827" lon="12.07822">
        <ele>507.991735</ele>
        <time>2022-09-13T02:48:33.116Z</time>
      </trkpt>
      <trkpt lat="48.08283" lon="12.07775">
        <ele>507.951436</ele>
        <time>2022-09-13T02:48:42.770Z</time>
      </trkpt>
      <trkpt lat="48.08286" lon="12.07724">
        <ele>507.910446</ele>
        <time>2022-09-13T02:48:52.015Z</time>
      </trkpt>
      <trkpt lat="48.08267" lon="12.07626">
        <ele>507.829825</ele>
        <time>2022-09-13T02:49:08.969Z</time>
      </trkpt>
      <trkpt lat="48.08266" lon="12.07585">
        <ele>507.797331</ele>
        <time>2022-09-13T02:49:20.303Z</time>
      </trkpt>
      <trkpt lat="48.08283" lon="12.07457">
        <ele>507.030458</ele>
        <time>2022-09-13T02:49:55.041Z</time>
      </trkpt>
      <trkpt lat="48.08285" lon="12.07364">
        <ele>506.413406</ele>
        <time>2022-09-13T02:50:09.229Z</time>
      </trkpt>
      <trkpt lat="48.08297" lon="12.07297">
        <ele>506.024124</ele>
        <time>2022-09-13T02:50:20.214Z</time>
      </trkpt>
      <trkpt lat="48.08312" lon="12.07219">
        <ele>506.098697</ele>
        <time>2022-09-13T02:50:34.170Z</time>
      </trkpt>
      <trkpt lat="48.08314" lon="12.07181">
        <ele>506.133435</ele>
        <time>2022-09-13T02:50:40.835Z</time>
      </trkpt>
      <trkpt lat="48.08316" lon="12.07148">
        <ele>506.16449</ele>
        <time>2022-09-13T02:50:46.971Z</time>
      </trkpt>
      <trkpt lat="48.08314" lon="12.07101">
        <ele>506.207918</ele>
        <time>2022-09-13T02:50:55.698Z</time>
      </trkpt>
      <trkpt lat="48.08293" lon="12.06954">
        <ele>506.948786</ele>
        <time>2022-09-13T02:51:27.491Z</time>
      </trkpt>
      <trkpt lat="48.08284" lon="12.06849">
        <ele>507.756645</ele>
        <time>2022-09-13T02:51:51.032Z</time>
      </trkpt>
      <trkpt lat="48.0825" lon="12.06578">
        <ele>509.355965</ele>
        <time>2022-09-13T02:52:49.583Z</time>
      </trkpt>
      <trkpt lat="48.08236" lon="12.06355">
        <ele>509.25217</ele>
        <time>2022-09-13T02:53:28.999Z</time>
      </trkpt>
      <trkpt lat="48.08217" lon="12.06273">
        <ele>508.998839</ele>
        <time>2022-09-13T02:53:42.762Z</time>
      </trkpt>
      <trkpt lat="48.08194" lon="12.06241">
        <ele>508.775659</ele>
        <time>2022-09-13T02:53:49.984Z</time>
      </trkpt>
      <trkpt lat="48.08163" lon="12.06215">
        <ele>508.409908</ele>
        <time>2022-09-13T02:53:57.767Z</time>
      </trkpt>
      <trkpt lat="48.08145" lon="12.06173">
        <ele>508.057799</ele>
        <time>2022-09-13T02:54:05.099Z</time>
      </trkpt>
      <trkpt lat="48.08154" lon="12.06107">
        <ele>507.584353</ele>
        <time>2022-09-13T02:54:15.211Z</time>
      </trkpt>
      <trkpt lat="48.08155" lon="12.06105">
        <ele>507.572722</ele>
        <time>2022-09-13T02:54:15.484Z</time>
      </trkpt>
      <trkpt lat="48.08158" lon="12.06077">
        <ele>507.373358</ele>
        <time>2022-09-13T02:54:20.107Z</time>
      </trkpt>
      <trkpt lat="48.08151" lon="12.06076">
        <ele>507.298952</ele>
        <time>2022-09-13T02:54:21.800Z</time>
      </trkpt>
      <trkpt lat="48.0815" lon="12.06035">
        <ele>507.046582</ele>
        <time>2022-09-13T02:54:28.362Z</time>
      </trkpt>
      <trkpt lat="48.0815" lon="12.05966">
        <ele>507.241582</ele>
        <time>2022-09-13T02:54:40.127Z</time>
      </trkpt>
      <trkpt lat="48.0815" lon="12.05959">
        <ele>507.259917</ele>
        <time>2022-09-13T02:54:41.359Z</time>
      </trkpt>
      <trkpt lat="48.08149" lon="12.05937">
        <ele>507.323895</ele>
        <time>2022-09-13T02:54:45.504Z</time>
      </trkpt>
      <trkpt lat="48.08148" lon="12.05907">
        <ele>507.40687</ele>
        <time>2022-09-13T02:54:51.131Z</time>
      </trkpt>
      <trkpt lat="48.08156" lon="12.0589">
        <ele>507.465681</ele>
        <time>2022-09-13T02:54:55.105Z</time>
      </trkpt>
      <trkpt lat="48.08176" lon="12.05876">
        <ele>507.559169</ele>
        <time>2022-09-13T02:55:01.710Z</time>
      </trkpt>
      <trkpt lat="48.08183" lon="12.05839">
        <ele>507.667761</ele>
        <time>2022-09-13T02:55:09.713Z</time>
      </trkpt>
      <trkpt lat="48.08206" lon="12.05805">
        <ele>507.807834</ele>
        <time>2022-09-13T02:55:20.456Z</time>
      </trkpt>
      <trkpt lat="48.0822" lon="12.05802">
        <ele>507.914788</ele>
        <time>2022-09-13T02:55:25.348Z</time>
      </trkpt>
      <trkpt lat="48.08307" lon="12.05803">
        <ele>508.557638</ele>
        <time>2022-09-13T02:55:53.822Z</time>
      </trkpt>
      <trkpt lat="48.08322" lon="12.05803">
        <ele>508.665151</ele>
        <time>2022-09-13T02:55:57.897Z</time>
      </trkpt>
      <trkpt lat="48.0835" lon="12.05801">
        <ele>508.876694</ele>
        <time>2022-09-13T02:56:06.283Z</time>
      </trkpt>
      <trkpt lat="48.08359" lon="12.05585">
        <ele>508.878148</ele>
        <time>2022-09-13T02:56:43.167Z</time>
      </trkpt>
      <trkpt lat="48.0837" lon="12.05518">
        <ele>508.773817</ele>
        <time>2022-09-13T02:56:53.833Z</time>
      </trkpt>
      <trkpt lat="48.08431" lon="12.05267">
        <ele>509.296713</ele>
        <time>2022-09-13T02:57:44.464Z</time>
      </trkpt>
      <trkpt lat="48.0844" lon="12.05159">
        <ele>509.445887</ele>
        <time>2022-09-13T02:58:07.190Z</time>
      </trkpt>
      <trkpt lat="48.08436" lon="12.0507">
        <ele>509.513752</ele>
        <time>2022-09-13T02:58:24.749Z</time>
      </trkpt>
      <trkpt lat="48.08359" lon="12.04669">
        <ele>508.777117</ele>
        <time>2022-09-13T02:59:31.748Z</time>
      </trkpt>
      <trkpt lat="48.08345" lon="12.0458">
        <ele>509.292549</ele>
        <time>2022-09-13T02:59:50.575Z</time>
      </trkpt>
      <trkpt lat="48.08344" lon="12.0452">
        <ele>509.634558</ele>
        <time>2022-09-13T03:00:04.670Z</time>
      </trkpt>
      <trkpt lat="48.08345" lon="12.04502">
        <ele>509.737702</ele>
        <time>2022-09-13T03:00:09.237Z</time>
      </trkpt>
      <trkpt lat="48.08373" lon="12.04262">
        <ele>510.489431</ele>
        <time>2022-09-13T03:01:01.375Z</time>
      </trkpt>
      <trkpt lat="48.08386" lon="12.04115">
        <ele>509.996037</ele>
        <time>2022-09-13T03:01:23.877Z</time>
      </trkpt>
      <trkpt lat="48.08415" lon="12.03922">
        <ele>507.845831</ele>
        <time>2022-09-13T03:01:51.477Z</time>
      </trkpt>
      <trkpt lat="48.08439" lon="12.03765">
        <ele>507.350292</ele>
        <time>2022-09-13T03:02:17.620Z</time>
      </trkpt>
      <trkpt lat="48.08458" lon="12.03697">
        <ele>507.157643</ele>
        <time>2022-09-13T03:02:30.747Z</time>
      </trkpt>
      <trkpt lat="48.08485" lon="12.036">
        <ele>507.532135</ele>
        <time>2022-09-13T03:02:50.724Z</time>
      </trkpt>
      <trkpt lat="48.0849" lon="12.03586">
        <ele>507.656938</ele>
        <time>2022-09-13T03:02:54.093Z</time>
      </trkpt>
      <trkpt lat="48.08497" lon="12.03557">
        <ele>507.905005</ele>
        <time>2022-09-13T03:03:00.525Z</time>
      </trkpt>
      <trkpt lat="48.08504" lon="12.03462">
        <ele>508.656367</ele>
        <time>2022-09-13T03:03:22.025Z</time>
      </trkpt>
      <trkpt lat="48.08505" lon="12.03453">
        <ele>508.727045</ele>
        <time>2022-09-13T03:03:24.132Z</time>
      </trkpt>
      <trkpt lat="48.08512" lon="12.03454">
        <ele>508.805292</ele>
        <time>2022-09-13T03:03:26.345Z</time>
      </trkpt>
      <trkpt lat="48.08517" lon="12.03404">
        <ele>509.226294</ele>
        <time>2022-09-13T03:03:38.333Z</time>
      </trkpt>
      <trkpt lat="48.08524" lon="12.03378">
        <ele>509.570358</ele>
        <time>2022-09-13T03:03:44.987Z</time>
      </trkpt>
      <trkpt lat="48.08529" lon="12.03367">
        <ele>509.733818</ele>
        <time>2022-09-13T03:03:48.123Z</time>
      </trkpt>
      <trkpt lat="48.08545" lon="12.03349">
        <ele>510.098374</ele>
        <time>2022-09-13T03:03:55.092Z</time>
      </trkpt>
      <trkpt lat="48.08567" lon="12.03335">
        <ele>510.539326</ele>
        <time>2022-09-13T03:04:03.752Z</time>
      </trkpt>
      <trkpt lat="48.08566" lon="12.0333">
        <ele>510.61386</ele>
        <time>2022-09-13T03:04:05.220Z</time>
      </trkpt>
      <trkpt lat="48.08547" lon="12.03273">
        <ele>511.40026</ele>
        <time>2022-09-13T03:04:20.674Z</time>
      </trkpt>
      <trkpt lat="48.08544" lon="12.03159">
        <ele>512.691123</ele>
        <time>2022-09-13T03:04:47.810Z</time>
      </trkpt>
      <trkpt lat="48.08545" lon="12.03132">
        <ele>512.904141</ele>
        <time>2022-09-13T03:04:54.025Z</time>
      </trkpt>
      <trkpt lat="48.0856" lon="12.0311">
        <ele>513.156782</ele>
        <time>2022-09-13T03:05:01.246Z</time>
      </trkpt>
      <trkpt lat="48.08561" lon="12.03099">
        <ele>513.240722</ele>
        <time>2022-09-13T03:05:03.394Z</time>
      </trkpt>
      <trkpt lat="48.0856" lon="12.03089">
        <ele>513.323745</ele>
        <time>2022-09-13T03:05:05.596Z</time>
      </trkpt>
      <trkpt lat="48.08551" lon="12.03015">
        <ele>513.911348</ele>
        <time>2022-09-13T03:05:21.538Z</time>
      </trkpt>
      <trkpt lat="48.08555" lon="12.02998">
        <ele>514.047554</ele>
        <time>2022-09-13T03:05:25.015Z</time>
      </trkpt>
      <trkpt lat="48.08566" lon="12.02989">
        <ele>514.197215</ele>
        <time>2022-09-13T03:05:28.841Z</time>
      </trkpt>
      <trkpt lat="48.0858" lon="12.02984">
        <ele>514.367253</ele>
        <time>2022-09-13T03:05:33.467Z</time>
      </trkpt>
      <trkpt lat="48.08581" lon="12.02984">
        <ele>514.380351</ele>
        <time>2022-09-13T03:05:33.843Z</time>
      </trkpt>
      <trkpt lat="48.08579" lon="12.02978">
        <ele>514.434751</ele>
        <time>2022-09-13T03:05:35.173Z</time>
      </trkpt>
      <trkpt lat="48.08574" lon="12.02958">
        <ele>514.605315</ele>
        <time>2022-09-13T03:05:39.520Z</time>
      </trkpt>
      <trkpt lat="48.0857" lon="12.02943">
        <ele>514.688547</ele>
        <time>2022-09-13T03:05:42.825Z</time>
      </trkpt>
      <trkpt lat="48.0856" lon="12.02894">
        <ele>514.954914</ele>
        <time>2022-09-13T03:05:53.344Z</time>
      </trkpt>
      <trkpt lat="48.08562" lon="12.02897">
        <ele>514.980272</ele>
        <time>2022-09-13T03:05:54.404Z</time>
      </trkpt>
      <trkpt lat="48.0856" lon="12.02881">
        <ele>515.068691</ele>
        <time>2022-09-13T03:05:57.918Z</time>
      </trkpt>
      <trkpt lat="48.08561" lon="12.02866">
        <ele>515.147829</ele>
        <time>2022-09-13T03:06:01.164Z</time>
      </trkpt>
      <trkpt lat="48.08559" lon="12.02854">
        <ele>515.207157</ele>
        <time>2022-09-13T03:06:03.624Z</time>
      </trkpt>
      <trkpt lat="48.08549" lon="12.02792">
        <ele>515.541835</ele>
        <time>2022-09-13T03:06:17.520Z</time>
      </trkpt>
      <trkpt lat="48.08548" lon="12.02785">
        <ele>515.58162</ele>
        <time>2022-09-13T03:06:19.175Z</time>
      </trkpt>
      <trkpt lat="48.08543" lon="12.02741">
        <ele>515.813031</ele>
        <time>2022-09-13T03:06:27.637Z</time>
      </trkpt>
      <trkpt lat="48.08555" lon="12.02739">
        <ele>515.907522</ele>
        <time>2022-09-13T03:06:31.085Z</time>
      </trkpt>
      <trkpt lat="48.08554" lon="12.02728">
        <ele>515.966026</ele>
        <time>2022-09-13T03:06:33.872Z</time>
      </trkpt>
      <trkpt lat="48.08553" lon="12.02689">
        <ele>515.929268</ele>
        <time>2022-09-13T03:06:43.117Z</time>
      </trkpt>
      <trkpt lat="48.08553" lon="12.02666">
        <ele>515.859905</ele>
        <time>2022-09-13T03:06:47.751Z</time>
      </trkpt>
      <trkpt lat="48.08548" lon="12.02648">
        <ele>515.802395</ele>
        <time>2022-09-13T03:06:51.332Z</time>
      </trkpt>
      <trkpt lat="48.08542" lon="12.02625">
        <ele>515.729701</ele>
        <time>2022-09-13T03:06:56.187Z</time>
      </trkpt>
      <trkpt lat="48.08545" lon="12.02621">
        <ele>515.712292</ele>
        <time>2022-09-13T03:06:57.295Z</time>
      </trkpt>
      <trkpt lat="48.08549" lon="12.0262">
        <ele>515.696423</ele>
        <time>2022-09-13T03:06:58.286Z</time>
      </trkpt>
      <trkpt lat="48.08546" lon="12.02608">
        <ele>515.65889</ele>
        <time>2022-09-13T03:07:00.514Z</time>
      </trkpt>
      <trkpt lat="48.0852" lon="12.02496">
        <ele>515.308006</ele>
        <time>2022-09-13T03:07:19.869Z</time>
      </trkpt>
      <trkpt lat="48.08499" lon="12.02401">
        <ele>514.577983</ele>
        <time>2022-09-13T03:07:34.128Z</time>
      </trkpt>
      <trkpt lat="48.08484" lon="12.02332">
        <ele>513.915819</ele>
        <time>2022-09-13T03:07:44.403Z</time>
      </trkpt>
      <trkpt lat="48.08476" lon="12.02329">
        <ele>513.802033</ele>
        <time>2022-09-13T03:07:46.251Z</time>
      </trkpt>
      <trkpt lat="48.08473" lon="12.02316">
        <ele>513.677221</ele>
        <time>2022-09-13T03:07:48.142Z</time>
      </trkpt>
      <trkpt lat="48.08457" lon="12.02316">
        <ele>513.458332</ele>
        <time>2022-09-13T03:07:51.799Z</time>
      </trkpt>
      <trkpt lat="48.08445" lon="12.02306">
        <ele>513.268944</ele>
        <time>2022-09-13T03:07:54.962Z</time>
      </trkpt>
      <trkpt lat="48.08438" lon="12.02297">
        <ele>513.146205</ele>
        <time>2022-09-13T03:07:56.969Z</time>
      </trkpt>
      <trkpt lat="48.08435" lon="12.02293">
        <ele>513.085756</ele>
        <time>2022-09-13T03:07:57.992Z</time>
      </trkpt>
      <trkpt lat="48.08362" lon="12.02213">
        <ele>513.085411</ele>
        <time>2022-09-13T03:08:20.277Z</time>
      </trkpt>
      <trkpt lat="48.08353" lon="12.02205">
        <ele>513.138132</ele>
        <time>2022-09-13T03:08:23.178Z</time>
      </trkpt>
      <trkpt lat="48.08269" lon="12.02152">
        <ele>513.591286</ele>
        <time>2022-09-13T03:08:52.712Z</time>
      </trkpt>
      <trkpt lat="48.08218" lon="12.02135">
        <ele>514.188813</ele>
        <time>2022-09-13T03:09:10.650Z</time>
      </trkpt>
      <trkpt lat="48.08204" lon="12.0213">
        <ele>514.37453</ele>
        <time>2022-09-13T03:09:15.459Z</time>
      </trkpt>
      <trkpt lat="48.08163" lon="12.02108">
        <ele>514.960006</ele>
        <time>2022-09-13T03:09:30.455Z</time>
      </trkpt>
      <trkpt lat="48.08148" lon="12.0208">
        <ele>515.279021</ele>
        <time>2022-09-13T03:09:38.551Z</time>
      </trkpt>
      <trkpt lat="48.08135" lon="12.02005">
        <ele>515.969323</ele>
        <time>2022-09-13T03:09:55.406Z</time>
      </trkpt>
      <trkpt lat="48.08122" lon="12.01957">
        <ele>516.453452</ele>
        <time>2022-09-13T03:10:05.811Z</time>
      </trkpt>
      <trkpt lat="48.08083" lon="12.01868">
        <ele>517.439614</ele>
        <time>2022-09-13T03:10:26.716Z</time>
      </trkpt>
      <trkpt lat="48.08064" lon="12.01791">
        <ele>518.2077</ele>
        <time>2022-09-13T03:10:44.501Z</time>
      </trkpt>
      <trkpt lat="48.08016" lon="12.0168">
        <ele>521.400989</ele>
        <time>2022-09-13T03:11:22.337Z</time>
      </trkpt>
      <trkpt lat="48.07997" lon="12.01618">
        <ele>523.452517</ele>
        <time>2022-09-13T03:11:45.813Z</time>
      </trkpt>
      <trkpt lat="48.07974" lon="12.01504">
        <ele>526.826056</ele>
        <time>2022-09-13T03:12:29.873Z</time>
      </trkpt>
      <trkpt lat="48.07952" lon="12.01353">
        <ele>529.079524</ele>
        <time>2022-09-13T03:13:17.221Z</time>
      </trkpt>
      <trkpt lat="48.07936" lon="12.01196">
        <ele>529.229759</ele>
        <time>2022-09-13T03:13:41.731Z</time>
      </trkpt>
      <trkpt lat="48.07926" lon="12.01074">
        <ele>526.381127</ele>
        <time>2022-09-13T03:13:56.764Z</time>
      </trkpt>
      <trkpt lat="48.07906" lon="12.00919">
        <ele>523.402236</ele>
        <time>2022-09-13T03:14:16.495Z</time>
      </trkpt>
      <trkpt lat="48.07885" lon="12.00807">
        <ele>521.89551</ele>
        <time>2022-09-13T03:14:32.927Z</time>
      </trkpt>
      <trkpt lat="48.0788" lon="12.00764">
        <ele>521.321008</ele>
        <time>2022-09-13T03:14:40.039Z</time>
      </trkpt>
      <trkpt lat="48.07878" lon="12.00665">
        <ele>521.082399</ele>
        <time>2022-09-13T03:14:58.380Z</time>
      </trkpt>
      <trkpt lat="48.0787" lon="12.00604">
        <ele>521.382243</ele>
        <time>2022-09-13T03:15:11.099Z</time>
      </trkpt>
      <trkpt lat="48.07816" lon="12.00428">
        <ele>522.40663</ele>
        <time>2022-09-13T03:15:52.095Z</time>
      </trkpt>
      <trkpt lat="48.07803" lon="12.00377">
        <ele>522.771855</ele>
        <time>2022-09-13T03:16:03.699Z</time>
      </trkpt>
      <trkpt lat="48.07799" lon="12.00341">
        <ele>523.012557</ele>
        <time>2022-09-13T03:16:11.211Z</time>
      </trkpt>
      <trkpt lat="48.07798" lon="12.00332">
        <ele>523.077078</ele>
        <time>2022-09-13T03:16:13.236Z</time>
      </trkpt>
      <trkpt lat="48.07787" lon="12.00248">
        <ele>523.653252</ele>
        <time>2022-09-13T03:16:30.783Z</time>
      </trkpt>
      <trkpt lat="48.07784" lon="12.00167">
        <ele>524.685902</ele>
        <time>2022-09-13T03:16:47.476Z</time>
      </trkpt>
      <trkpt lat="48.07788" lon="12.00021">
        <ele>527.317459</ele>
        <time>2022-09-13T03:17:24.520Z</time>
      </trkpt>
      <trkpt lat="48.078" lon="11.99915">
        <ele>529.626046</ele>
        <time>2022-09-13T03:17:58.772Z</time>
      </trkpt>
      <trkpt lat="48.07815" lon="11.99838">
        <ele>532.127167</ele>
        <time>2022-09-13T03:18:25.437Z</time>
      </trkpt>
      <trkpt lat="48.07816" lon="11.99762">
        <ele>534.521529</ele>
        <time>2022-09-13T03:18:50.871Z</time>
      </trkpt>
      <trkpt lat="48.07821" lon="11.99737">
        <ele>535.345812</ele>
        <time>2022-09-13T03:19:00.484Z</time>
      </trkpt>
      <trkpt lat="48.07828" lon="11.99725">
        <ele>535.868468</ele>
        <time>2022-09-13T03:19:05.777Z</time>
      </trkpt>
      <trkpt lat="48.07856" lon="11.99712">
        <ele>537.229747</ele>
        <time>2022-09-13T03:19:20.879Z</time>
      </trkpt>
      <trkpt lat="48.07864" lon="11.99702">
        <ele>537.488174</ele>
        <time>2022-09-13T03:19:25.739Z</time>
      </trkpt>
      <trkpt lat="48.07871" lon="11.99681">
        <ele>537.872978</ele>
        <time>2022-09-13T03:19:33.395Z</time>
      </trkpt>
      <trkpt lat="48.07872" lon="11.99644">
        <ele>538.479555</ele>
        <time>2022-09-13T03:19:44.392Z</time>
      </trkpt>
      <trkpt lat="48.07869" lon="11.9959">
        <ele>539.384985</ele>
        <time>2022-09-13T03:19:58.818Z</time>
      </trkpt>
      <trkpt lat="48.07838" lon="11.99535">
        <ele>540.562267</ele>
        <time>2022-09-13T03:20:14.244Z</time>
      </trkpt>
      <trkpt lat="48.07807" lon="11.99468">
        <ele>541.425999</ele>
        <time>2022-09-13T03:20:33.046Z</time>
      </trkpt>
      <trkpt lat="48.07805" lon="11.9944">
        <ele>541.031781</ele>
        <time>2022-09-13T03:20:39.439Z</time>
      </trkpt>
      <trkpt lat="48.07815" lon="11.99402">
        <ele>540.445556</ele>
        <time>2022-09-13T03:20:46.915Z</time>
      </trkpt>
      <trkpt lat="48.0782" lon="11.99372">
        <ele>539.996477</ele>
        <time>2022-09-13T03:20:51.760Z</time>
      </trkpt>
      <trkpt lat="48.07817" lon="11.99331">
        <ele>539.407088</ele>
        <time>2022-09-13T03:20:57.472Z</time>
      </trkpt>
      <trkpt lat="48.07814" lon="11.99313">
        <ele>539.140529</ele>
        <time>2022-09-13T03:20:59.849Z</time>
      </trkpt>
      <trkpt lat="48.07805" lon="11.99252">
        <ele>538.257283</ele>
        <time>2022-09-13T03:21:07.413Z</time>
      </trkpt>
      <trkpt lat="48.07807" lon="11.9923">
        <ele>537.931231</ele>
        <time>2022-09-13T03:21:10.164Z</time>
      </trkpt>
      <trkpt lat="48.07817" lon="11.99165">
        <ele>535.674105</ele>
        <time>2022-09-13T03:21:18.069Z</time>
      </trkpt>
      <trkpt lat="48.07839" lon="11.99057">
        <ele>531.527697</ele>
        <time>2022-09-13T03:21:31.544Z</time>
      </trkpt>
      <trkpt lat="48.07854" lon="11.98995">
        <ele>529.122833</ele>
        <time>2022-09-13T03:21:39.138Z</time>
      </trkpt>
      <trkpt lat="48.07889" lon="11.989">
        <ele>526.531773</ele>
        <time>2022-09-13T03:21:52.185Z</time>
      </trkpt>
      <trkpt lat="48.07942" lon="11.98776">
        <ele>523.856706</ele>
        <time>2022-09-13T03:22:13.029Z</time>
      </trkpt>
      <trkpt lat="48.0795" lon="11.98762">
        <ele>523.519411</ele>
        <time>2022-09-13T03:22:15.883Z</time>
      </trkpt>
      <trkpt lat="48.07962" lon="11.98742">
        <ele>523.022142</ele>
        <time>2022-09-13T03:22:20.156Z</time>
      </trkpt>
      <trkpt lat="48.07964" lon="11.98739">
        <ele>523.004815</ele>
        <time>2022-09-13T03:22:20.808Z</time>
      </trkpt>
      <trkpt lat="48.07961" lon="11.98736">
        <ele>523.000998</ele>
        <time>2022-09-13T03:22:21.633Z</time>
      </trkpt>
      <trkpt lat="48.07956" lon="11.98728">
        <ele>522.992291</ele>
        <time>2022-09-13T03:22:23.554Z</time>
      </trkpt>
      <trkpt lat="48.07947" lon="11.98711">
        <ele>522.976491</ele>
        <time>2022-09-13T03:22:27.106Z</time>
      </trkpt>
      <trkpt lat="48.0798" lon="11.98529">
        <ele>522.838988</ele>
        <time>2022-09-13T03:23:00.761Z</time>
      </trkpt>
      <trkpt lat="48.07984" lon="11.98489">
        <ele>522.81564</ele>
        <time>2022-09-13T03:23:08.497Z</time>
      </trkpt>
      <trkpt lat="48.07957" lon="11.98436">
        <ele>523.123083</ele>
        <time>2022-09-13T03:23:21.454Z</time>
      </trkpt>
      <trkpt lat="48.07948" lon="11.98415">
        <ele>523.240042</ele>
        <time>2022-09-13T03:23:26.567Z</time>
      </trkpt>
      <trkpt lat="48.07953" lon="11.98406">
        <ele>523.29668</ele>
        <time>2022-09-13T03:23:29.059Z</time>
      </trkpt>
      <trkpt lat="48.07964" lon="11.9839">
        <ele>523.40429</ele>
        <time>2022-09-13T03:23:33.759Z</time>
      </trkpt>
      <trkpt lat="48.07973" lon="11.98379">
        <ele>523.485586</ele>
        <time>2022-09-13T03:23:37.431Z</time>
      </trkpt>
      <trkpt lat="48.07877" lon="11.98274">
        <ele>524.375492</ele>
        <time>2022-09-13T03:24:13.801Z</time>
      </trkpt>
      <trkpt lat="48.07837" lon="11.98237">
        <ele>524.786733</ele>
        <time>2022-09-13T03:24:27.654Z</time>
      </trkpt>
      <trkpt lat="48.07754" lon="11.98178">
        <ele>525.578621</ele>
        <time>2022-09-13T03:24:55.220Z</time>
      </trkpt>
      <trkpt lat="48.07737" lon="11.98151">
        <ele>526.189002</ele>
        <time>2022-09-13T03:25:03.735Z</time>
      </trkpt>
      <trkpt lat="48.07729" lon="11.98096">
        <ele>527.256334</ele>
        <time>2022-09-13T03:25:17.489Z</time>
      </trkpt>
      <trkpt lat="48.07716" lon="11.98087">
        <ele>527.66682</ele>
        <time>2022-09-13T03:25:23.127Z</time>
      </trkpt>
      <trkpt lat="48.07698" lon="11.98093">
        <ele>528.189631</ele>
        <time>2022-09-13T03:25:30.384Z</time>
      </trkpt>
      <trkpt lat="48.07675" lon="11.98084">
        <ele>528.872479</ele>
        <time>2022-09-13T03:25:40.472Z</time>
      </trkpt>
      <trkpt lat="48.07551" lon="11.97985">
        <ele>534.390657</ele>
        <time>2022-09-13T03:26:44.997Z</time>
      </trkpt>
      <trkpt lat="48.07516" lon="11.97946">
        <ele>536.522268</ele>
        <time>2022-09-13T03:27:08.347Z</time>
      </trkpt>
      <trkpt lat="48.07478" lon="11.97886">
        <ele>539.20837</ele>
        <time>2022-09-13T03:27:37.395Z</time>
      </trkpt>
      <trkpt lat="48.07456" lon="11.97873">
        <ele>540.446941</ele>
        <time>2022-09-13T03:27:50.074Z</time>
      </trkpt>
      <trkpt lat="48.07451" lon="11.97844">
        <ele>541.56719</ele>
        <time>2022-09-13T03:28:01.253Z</time>
      </trkpt>
      <trkpt lat="48.07448" lon="11.97824">
        <ele>542.296315</ele>
        <time>2022-09-13T03:28:08.210Z</time>
      </trkpt>
      <trkpt lat="48.07454" lon="11.9781">
        <ele>542.907417</ele>
        <time>2022-09-13T03:28:14.661Z</time>
      </trkpt>
      <trkpt lat="48.0745" lon="11.97727">
        <ele>545.943846</ele>
        <time>2022-09-13T03:28:44.851Z</time>
      </trkpt>
      <trkpt lat="48.07456" lon="11.9768">
        <ele>547.708467</ele>
        <time>2022-09-13T03:29:02.657Z</time>
      </trkpt>
      <trkpt lat="48.07492" lon="11.97563">
        <ele>551.858691</ele>
        <time>2022-09-13T03:29:47.092Z</time>
      </trkpt>
      <trkpt lat="48.07503" lon="11.97511">
        <ele>553.460139</ele>
        <time>2022-09-13T03:30:04.956Z</time>
      </trkpt>
      <trkpt lat="48.07512" lon="11.97439">
        <ele>555.650945</ele>
        <time>2022-09-13T03:30:29.020Z</time>
      </trkpt>
      <trkpt lat="48.0751" lon="11.97357">
        <ele>557.852278</ele>
        <time>2022-09-13T03:30:54.507Z</time>
      </trkpt>
      <trkpt lat="48.07508" lon="11.97345">
        <ele>558.094006</ele>
        <time>2022-09-13T03:30:58.705Z</time>
      </trkpt>
      <trkpt lat="48.07513" lon="11.97337">
        <ele>558.326674</ele>
        <time>2022-09-13T03:31:01.989Z</time>
      </trkpt>
      <trkpt lat="48.07512" lon="11.97319">
        <ele>558.682141</ele>
        <time>2022-09-13T03:31:06.989Z</time>
      </trkpt>
      <trkpt lat="48.07511" lon="11.97312">
        <ele>558.828001</ele>
        <time>2022-09-13T03:31:09.025Z</time>
      </trkpt>
      <trkpt lat="48.07511" lon="11.97236">
        <ele>560.368499</ele>
        <time>2022-09-13T03:31:30.654Z</time>
      </trkpt>
      <trkpt lat="48.07515" lon="11.97206">
        <ele>560.989901</ele>
        <time>2022-09-13T03:31:39.151Z</time>
      </trkpt>
      <trkpt lat="48.07526" lon="11.97179">
        <ele>561.608426</ele>
        <time>2022-09-13T03:31:47.633Z</time>
      </trkpt>
      <trkpt lat="48.07537" lon="11.97164">
        <ele>562.083232</ele>
        <time>2022-09-13T03:31:53.671Z</time>
      </trkpt>
      <trkpt lat="48.07535" lon="11.9714">
        <ele>562.565501</ele>
        <time>2022-09-13T03:31:59.715Z</time>
      </trkpt>
      <trkpt lat="48.07535" lon="11.97137">
        <ele>562.641213</ele>
        <time>2022-09-13T03:32:00.591Z</time>
      </trkpt>
      <trkpt lat="48.07534" lon="11.97133">
        <ele>562.725547</ele>
        <time>2022-09-13T03:32:01.598Z</time>
      </trkpt>
      <trkpt lat="48.0753" lon="11.97094">
        <ele>563.008628</ele>
        <time>2022-09-13T03:32:10.619Z</time>
      </trkpt>
      <trkpt lat="48.07529" lon="11.97069">
        <ele>563.179562</ele>
        <time>2022-09-13T03:32:16.536Z</time>
      </trkpt>
      <trkpt lat="48.07528" lon="11.97049">
        <ele>563.309956</ele>
        <time>2022-09-13T03:32:20.737Z</time>
      </trkpt>
      <trkpt lat="48.07527" lon="11.9703">
        <ele>563.436933</ele>
        <time>2022-09-13T03:32:24.898Z</time>
      </trkpt>
      <trkpt lat="48.07525" lon="11.97008">
        <ele>563.577819</ele>
        <time>2022-09-13T03:32:29.187Z</time>
      </trkpt>
      <trkpt lat="48.07522" lon="11.96954">
        <ele>563.935901</ele>
        <time>2022-09-13T03:32:39.611Z</time>
      </trkpt>
      <trkpt lat="48.07517" lon="11.96829">
        <ele>564.739061</ele>
        <time>2022-09-13T03:33:03.789Z</time>
      </trkpt>
      <trkpt lat="48.07515" lon="11.96778">
        <ele>565.040199</ele>
        <time>2022-09-13T03:33:14.255Z</time>
      </trkpt>
      <trkpt lat="48.07514" lon="11.96755">
        <ele>565.171825</ele>
        <time>2022-09-13T03:33:18.874Z</time>
      </trkpt>
      <trkpt lat="48.07513" lon="11.9674">
        <ele>565.261477</ele>
        <time>2022-09-13T03:33:22.001Z</time>
      </trkpt>
      <trkpt lat="48.0751" lon="11.96696">
        <ele>565.521813</ele>
        <time>2022-09-13T03:33:30.986Z</time>
      </trkpt>
      <trkpt lat="48.07505" lon="11.96666">
        <ele>565.69975</ele>
        <time>2022-09-13T03:33:37.235Z</time>
      </trkpt>
      <trkpt lat="48.07502" lon="11.96649">
        <ele>565.800333</ele>
        <time>2022-09-13T03:33:40.797Z</time>
      </trkpt>
      <trkpt lat="48.07496" lon="11.96614">
        <ele>566.015471</ele>
        <time>2022-09-13T03:33:48.480Z</time>
      </trkpt>
      <trkpt lat="48.07491" lon="11.96585">
        <ele>566.310319</ele>
        <time>2022-09-13T03:33:54.859Z</time>
      </trkpt>
      <trkpt lat="48.07485" lon="11.96537">
        <ele>567.076544</ele>
        <time>2022-09-13T03:34:06.196Z</time>
      </trkpt>
      <trkpt lat="48.07482" lon="11.96487">
        <ele>567.870317</ele>
        <time>2022-09-13T03:34:18.700Z</time>
      </trkpt>
      <trkpt lat="48.07483" lon="11.96446">
        <ele>568.509001</ele>
        <time>2022-09-13T03:34:29.415Z</time>
      </trkpt>
      <trkpt lat="48.07484" lon="11.96422">
        <ele>568.890656</ele>
        <time>2022-09-13T03:34:35.936Z</time>
      </trkpt>
      <trkpt lat="48.07486" lon="11.96382">
        <ele>569.506394</ele>
        <time>2022-09-13T03:34:46.730Z</time>
      </trkpt>
      <trkpt lat="48.07491" lon="11.96354">
        <ele>569.97461</ele>
        <time>2022-09-13T03:34:55.060Z</time>
      </trkpt>
      <trkpt lat="48.07485" lon="11.96336">
        <ele>570.291878</ele>
        <time>2022-09-13T03:35:00.681Z</time>
      </trkpt>
      <trkpt lat="48.0748" lon="11.96319">
        <ele>570.521503</ele>
        <time>2022-09-13T03:35:05.558Z</time>
      </trkpt>
      <trkpt lat="48.07475" lon="11.96297">
        <ele>570.818584</ele>
        <time>2022-09-13T03:35:12.241Z</time>
      </trkpt>
      <trkpt lat="48.07462" lon="11.96261">
        <ele>571.315955</ele>
        <time>2022-09-13T03:35:22.944Z</time>
      </trkpt>
      <trkpt lat="48.07439" lon="11.96205">
        <ele>572.130258</ele>
        <time>2022-09-13T03:35:39.988Z</time>
      </trkpt>
      <trkpt lat="48.07432" lon="11.96179">
        <ele>572.488212</ele>
        <time>2022-09-13T03:35:47.180Z</time>
      </trkpt>
      <trkpt lat="48.07426" lon="11.96155">
        <ele>572.806433</ele>
        <time>2022-09-13T03:35:53.279Z</time>
      </trkpt>
      <trkpt lat="48.0741" lon="11.96078">
        <ele>573.549102</ele>
        <time>2022-09-13T03:36:09.501Z</time>
      </trkpt>
      <trkpt lat="48.07398" lon="11.95967">
        <ele>572.234845</ele>
        <time>2022-09-13T03:36:26.353Z</time>
      </trkpt>
      <trkpt lat="48.07384" lon="11.95832">
        <ele>570.645557</ele>
        <time>2022-09-13T03:36:44.374Z</time>
      </trkpt>
      <trkpt lat="48.07383" lon="11.95814">
        <ele>570.486314</ele>
        <time>2022-09-13T03:36:46.890Z</time>
      </trkpt>
      <trkpt lat="48.07382" lon="11.95767">
        <ele>570.259276</ele>
        <time>2022-09-13T03:36:53.344Z</time>
      </trkpt>
      <trkpt lat="48.07382" lon="11.95758">
        <ele>570.211566</ele>
        <time>2022-09-13T03:36:54.753Z</time>
      </trkpt>
      <trkpt lat="48.07385" lon="11.95724">
        <ele>570.04414</ele>
        <time>2022-09-13T03:36:59.762Z</time>
      </trkpt>
      <trkpt lat="48.07386" lon="11.95715">
        <ele>570.003754</ele>
        <time>2022-09-13T03:37:01.015Z</time>
      </trkpt>
      <trkpt lat="48.07389" lon="11.95696">
        <ele>569.904924</ele>
        <time>2022-09-13T03:37:04.059Z</time>
      </trkpt>
      <trkpt lat="48.07398" lon="11.95634">
        <ele>569.598776</ele>
        <time>2022-09-13T03:37:14.565Z</time>
      </trkpt>
      <trkpt lat="48.074" lon="11.9563">
        <ele>569.574488</ele>
        <time>2022-09-13T03:37:15.491Z</time>
      </trkpt>
      <trkpt lat="48.07416" lon="11.95624">
        <ele>569.454408</ele>
        <time>2022-09-13T03:37:20.465Z</time>
      </trkpt>
      <trkpt lat="48.0742" lon="11.95602">
        <ele>569.343499</ele>
        <time>2022-09-13T03:37:24.939Z</time>
      </trkpt>
      <trkpt lat="48.0747" lon="11.95582">
        <ele>569.592495</ele>
        <time>2022-09-13T03:37:42.190Z</time>
      </trkpt>
      <trkpt lat="48.07484" lon="11.95565">
        <ele>569.795739</ele>
        <time>2022-09-13T03:37:48.449Z</time>
      </trkpt>
      <trkpt lat="48.07513" lon="11.95554">
        <ele>570.126877</ele>
        <time>2022-09-13T03:37:59.053Z</time>
      </trkpt>
      <trkpt lat="48.07554" lon="11.9554">
        <ele>570.587223</ele>
        <time>2022-09-13T03:38:13.281Z</time>
      </trkpt>
      <trkpt lat="48.0756" lon="11.95538">
        <ele>570.658538</ele>
        <time>2022-09-13T03:38:15.397Z</time>
      </trkpt>
      <trkpt lat="48.07562" lon="11.95555">
        <ele>570.780884</ele>
        <time>2022-09-13T03:38:19.034Z</time>
      </trkpt>
      <trkpt lat="48.0757" lon="11.95553">
        <ele>570.871064</ele>
        <time>2022-09-13T03:38:21.595Z</time>
      </trkpt>
      <trkpt lat="48.07563" lon="11.95474">
        <ele>570.915609</ele>
        <time>2022-09-13T03:38:37.208Z</time>
      </trkpt>
      <trkpt lat="48.0756" lon="11.95454">
        <ele>570.751372</ele>
        <time>2022-09-13T03:38:40.884Z</time>
      </trkpt>
      <trkpt lat="48.07559" lon="11.95445">
        <ele>570.678934</ele>
        <time>2022-09-13T03:38:42.400Z</time>
      </trkpt>
      <trkpt lat="48.07558" lon="11.95442">
        <ele>570.651103</ele>
        <time>2022-09-13T03:38:42.963Z</time>
      </trkpt>
      <trkpt lat="48.07545" lon="11.95265">
        <ele>569.20541</ele>
        <time>2022-09-13T03:39:08.748Z</time>
      </trkpt>
      <trkpt lat="48.07537" lon="11.95267">
        <ele>569.102249</ele>
        <time>2022-09-13T03:39:10.502Z</time>
      </trkpt>
      <trkpt lat="48.0753" lon="11.95211">
        <ele>568.418326</ele>
        <time>2022-09-13T03:39:18.271Z</time>
      </trkpt>
      <trkpt lat="48.07526" lon="11.95189">
        <ele>568.12737</ele>
        <time>2022-09-13T03:39:21.344Z</time>
      </trkpt>
      <trkpt lat="48.07521" lon="11.9516">
        <ele>567.744355</ele>
        <time>2022-09-13T03:39:25.459Z</time>
      </trkpt>
      <trkpt lat="48.07497" lon="11.95071">
        <ele>566.516568</ele>
        <time>2022-09-13T03:39:38.792Z</time>
      </trkpt>
      <trkpt lat="48.07453" lon="11.94952">
        <ele>565.64133</ele>
        <time>2022-09-13T03:39:59.132Z</time>
      </trkpt>
      <trkpt lat="48.07463" lon="11.94942">
        <ele>565.661798</ele>
        <time>2022-09-13T03:40:02.463Z</time>
      </trkpt>
      <trkpt lat="48.07416" lon="11.94859">
        <ele>565.782499</ele>
        <time>2022-09-13T03:40:23.766Z</time>
      </trkpt>
      <trkpt lat="48.07373" lon="11.94769">
        <ele>566.130197</ele>
        <time>2022-09-13T03:40:47.767Z</time>
      </trkpt>
      <trkpt lat="48.07147" lon="11.9439">
        <ele>570.267615</ele>
        <time>2022-09-13T03:42:38.135Z</time>
      </trkpt>
      <trkpt lat="48.07136" lon="11.94377">
        <ele>570.453804</ele>
        <time>2022-09-13T03:42:42.531Z</time>
      </trkpt>
      <trkpt lat="48.07087" lon="11.94335">
        <ele>571.197958</ele>
        <time>2022-09-13T03:43:01.126Z</time>
      </trkpt>
      <trkpt lat="48.0698" lon="11.94218">
        <ele>573.070183</ele>
        <time>2022-09-13T03:43:45.237Z</time>
      </trkpt>
      <trkpt lat="48.06926" lon="11.94135">
        <ele>574.495648</ele>
        <time>2022-09-13T03:44:12.429Z</time>
      </trkpt>
      <trkpt lat="48.06885" lon="11.94044">
        <ele>575.848247</ele>
        <time>2022-09-13T03:44:39.700Z</time>
      </trkpt>
      <trkpt lat="48.06809" lon="11.93792">
        <ele>578.886537</ele>
        <time>2022-09-13T03:45:45.862Z</time>
      </trkpt>
      <trkpt lat="48.06733" lon="11.93534">
        <ele>578.293002</ele>
        <time>2022-09-13T03:46:33.056Z</time>
      </trkpt>
      <trkpt lat="48.067" lon="11.93327">
        <ele>575.884132</ele>
        <time>2022-09-13T03:47:03.275Z</time>
      </trkpt>
      <trkpt lat="48.06688" lon="11.9324">
        <ele>574.924364</ele>
        <time>2022-09-13T03:47:15.856Z</time>
      </trkpt>
      <trkpt lat="48.06681" lon="11.93132">
        <ele>573.806682</ele>
        <time>2022-09-13T03:47:31.580Z</time>
      </trkpt>
      <trkpt lat="48.06683" lon="11.93052">
        <ele>572.974371</ele>
        <time>2022-09-13T03:47:43.483Z</time>
      </trkpt>
      <trkpt lat="48.06693" lon="11.92969">
        <ele>572.266273</ele>
        <time>2022-09-13T03:47:56.263Z</time>
      </trkpt>
      <trkpt lat="48.0672" lon="11.92832">
        <ele>571.250759</ele>
        <time>2022-09-13T03:48:18.443Z</time>
      </trkpt>
      <trkpt lat="48.06757" lon="11.92725">
        <ele>570.336393</ele>
        <time>2022-09-13T03:48:36.987Z</time>
      </trkpt>
      <trkpt lat="48.06914" lon="11.92244">
        <ele>566.021643</ele>
        <time>2022-09-13T03:49:57.200Z</time>
      </trkpt>
      <trkpt lat="48.06976" lon="11.92024">
        <ele>564.880645</ele>
        <time>2022-09-13T03:50:36.008Z</time>
      </trkpt>
      <trkpt lat="48.07007" lon="11.91878">
        <ele>564.494449</ele>
        <time>2022-09-13T03:51:01.866Z</time>
      </trkpt>
      <trkpt lat="48.07027" lon="11.9175">
        <ele>564.189794</ele>
        <time>2022-09-13T03:51:24.005Z</time>
      </trkpt>
      <trkpt lat="48.07042" lon="11.91612">
        <ele>563.986814</ele>
        <time>2022-09-13T03:51:48.042Z</time>
      </trkpt>
      <trkpt lat="48.07047" lon="11.91357">
        <ele>563.720338</ele>
        <time>2022-09-13T03:52:31.931Z</time>
      </trkpt>
      <trkpt lat="48.07057" lon="11.91242">
        <ele>563.632341</ele>
        <time>2022-09-13T03:52:52.531Z</time>
      </trkpt>
      <trkpt lat="48.07061" lon="11.9122">
        <ele>563.661436</ele>
        <time>2022-09-13T03:52:56.508Z</time>
      </trkpt>
      <trkpt lat="48.07079" lon="11.91137">
        <ele>563.795854</ele>
        <time>2022-09-13T03:53:12.869Z</time>
      </trkpt>
      <trkpt lat="48.07123" lon="11.90999">
        <ele>564.029392</ele>
        <time>2022-09-13T03:53:41.830Z</time>
      </trkpt>
      <trkpt lat="48.07143" lon="11.90933">
        <ele>563.918443</ele>
        <time>2022-09-13T03:53:55.246Z</time>
      </trkpt>
      <trkpt lat="48.07156" lon="11.90884">
        <ele>563.817688</ele>
        <time>2022-09-13T03:54:04.000Z</time>
      </trkpt>
      <trkpt lat="48.0716" lon="11.90843">
        <ele>563.736495</ele>
        <time>2022-09-13T03:54:10.972Z</time>
      </trkpt>
      <trkpt lat="48.0716" lon="11.90767">
        <ele>563.589354</ele>
        <time>2022-09-13T03:54:23.468Z</time>
      </trkpt>
      <trkpt lat="48.07156" lon="11.9073">
        <ele>563.516183</ele>
        <time>2022-09-13T03:54:29.512Z</time>
      </trkpt>
      <trkpt lat="48.07142" lon="11.90683">
        <ele>563.418529</ele>
        <time>2022-09-13T03:54:37.812Z</time>
      </trkpt>
      <trkpt lat="48.07107" lon="11.90601">
        <ele>563.232469</ele>
        <time>2022-09-13T03:54:54.029Z</time>
      </trkpt>
      <trkpt lat="48.071" lon="11.90562">
        <ele>563.154263</ele>
        <time>2022-09-13T03:55:01.139Z</time>
      </trkpt>
      <trkpt lat="48.07101" lon="11.90534">
        <ele>563.101635</ele>
        <time>2022-09-13T03:55:05.853Z</time>
      </trkpt>
      <trkpt lat="48.07125" lon="11.90431">
        <ele>562.695525</ele>
        <time>2022-09-13T03:55:26.008Z</time>
      </trkpt>
      <trkpt lat="48.07125" lon="11.90421">
        <ele>562.641752</ele>
        <time>2022-09-13T03:55:27.939Z</time>
      </trkpt>
      <trkpt lat="48.07118" lon="11.90371">
        <ele>562.369792</ele>
        <time>2022-09-13T03:55:36.666Z</time>
      </trkpt>
      <trkpt lat="48.07056" lon="11.90233">
        <ele>561.400721</ele>
        <time>2022-09-13T03:56:01.574Z</time>
      </trkpt>
      <trkpt lat="48.0705" lon="11.90207">
        <ele>561.119073</ele>
        <time>2022-09-13T03:56:05.487Z</time>
      </trkpt>
      <trkpt lat="48.07038" lon="11.90154">
        <ele>560.543675</ele>
        <time>2022-09-13T03:56:13.396Z</time>
      </trkpt>
      <trkpt lat="48.07033" lon="11.90125">
        <ele>560.232102</ele>
        <time>2022-09-13T03:56:17.608Z</time>
      </trkpt>
      <trkpt lat="48.07013" lon="11.90022">
        <ele>559.118676</ele>
        <time>2022-09-13T03:56:33.058Z</time>
      </trkpt>
      <trkpt lat="48.06981" lon="11.89884">
        <ele>558.698976</ele>
        <time>2022-09-13T03:56:56.502Z</time>
      </trkpt>
      <trkpt lat="48.06976" lon="11.89858">
        <ele>558.674832</ele>
        <time>2022-09-13T03:57:01.364Z</time>
      </trkpt>
      <trkpt lat="48.06967" lon="11.89747">
        <ele>558.572662</ele>
        <time>2022-09-13T03:57:22.824Z</time>
      </trkpt>
      <trkpt lat="48.06963" lon="11.89697">
        <ele>558.689927</ele>
        <time>2022-09-13T03:57:32.926Z</time>
      </trkpt>
      <trkpt lat="48.06964" lon="11.89596">
        <ele>559.069398</ele>
        <time>2022-09-13T03:57:53.725Z</time>
      </trkpt>
      <trkpt lat="48.06977" lon="11.89496">
        <ele>559.451656</ele>
        <time>2022-09-13T03:58:12.936Z</time>
      </trkpt>
      <trkpt lat="48.0698" lon="11.89476">
        <ele>559.525139</ele>
        <time>2022-09-13T03:58:16.581Z</time>
      </trkpt>
      <trkpt lat="48.06982" lon="11.89456">
        <ele>559.621187</ele>
        <time>2022-09-13T03:58:20.557Z</time>
      </trkpt>
      <trkpt lat="48.06985" lon="11.89407">
        <ele>559.893137</ele>
        <time>2022-09-13T03:58:30.192Z</time>
      </trkpt>
      <trkpt lat="48.06984" lon="11.89364">
        <ele>560.132827</ele>
        <time>2022-09-13T03:58:39.137Z</time>
      </trkpt>
      <trkpt lat="48.0696" lon="11.89278">
        <ele>560.651526</ele>
        <time>2022-09-13T03:58:58.817Z</time>
      </trkpt>
      <trkpt lat="48.06923" lon="11.89168">
        <ele>561.276669</ele>
        <time>2022-09-13T03:59:24.409Z</time>
      </trkpt>
      <trkpt lat="48.06919" lon="11.89159">
        <ele>561.323195</ele>
        <time>2022-09-13T03:59:26.639Z</time>
      </trkpt>
      <trkpt lat="48.0691" lon="11.89148">
        <ele>561.399252</ele>
        <time>2022-09-13T03:59:29.987Z</time>
      </trkpt>
      <trkpt lat="48.06922" lon="11.89122">
        <ele>561.536553</ele>
        <time>2022-09-13T03:59:36.613Z</time>
      </trkpt>
      <trkpt lat="48.06965" lon="11.8904">
        <ele>561.994521</ele>
        <time>2022-09-13T03:59:57.931Z</time>
      </trkpt>
      <trkpt lat="48.07001" lon="11.88989">
        <ele>562.219588</ele>
        <time>2022-09-13T04:00:11.671Z</time>
      </trkpt>
      <trkpt lat="48.07074" lon="11.88873">
        <ele>561.997586</ele>
        <time>2022-09-13T04:00:38.668Z</time>
      </trkpt>
      <trkpt lat="48.07095" lon="11.88839">
        <ele>561.931806</ele>
        <time>2022-09-13T04:00:46.772Z</time>
      </trkpt>
      <trkpt lat="48.07101" lon="11.88831">
        <ele>561.915314</ele>
        <time>2022-09-13T04:00:48.756Z</time>
      </trkpt>
      <trkpt lat="48.0711" lon="11.8882">
        <ele>561.892067</ele>
        <time>2022-09-13T04:00:51.469Z</time>
      </trkpt>
      <trkpt lat="48.07132" lon="11.88785">
        <ele>561.849433</ele>
        <time>2022-09-13T04:00:59.585Z</time>
      </trkpt>
      <trkpt lat="48.07145" lon="11.8877">
        <ele>561.834982</ele>
        <time>2022-09-13T04:01:03.640Z</time>
      </trkpt>
      <trkpt lat="48.07166" lon="11.88787">
        <ele>561.813304</ele>
        <time>2022-09-13T04:01:09.684Z</time>
      </trkpt>
      <trkpt lat="48.07178" lon="11.88767">
        <ele>561.797709</ele>
        <time>2022-09-13T04:01:14.144Z</time>
      </trkpt>
      <trkpt lat="48.07206" lon="11.88717">
        <ele>561.758438</ele>
        <time>2022-09-13T04:01:26.066Z</time>
      </trkpt>
      <trkpt lat="48.07242" lon="11.88673">
        <ele>561.716888</ele>
        <time>2022-09-13T04:01:39.111Z</time>
      </trkpt>
      <trkpt lat="48.07263" lon="11.88661">
        <ele>561.68581</ele>
        <time>2022-09-13T04:01:45.370Z</time>
      </trkpt>
      <trkpt lat="48.07291" lon="11.88642">
        <ele>561.629927</ele>
        <time>2022-09-13T04:01:53.823Z</time>
      </trkpt>
      <trkpt lat="48.07336" lon="11.88574">
        <ele>561.514416</ele>
        <time>2022-09-13T04:02:10.233Z</time>
      </trkpt>
      <trkpt lat="48.07339" lon="11.8857">
        <ele>561.507479</ele>
        <time>2022-09-13T04:02:11.172Z</time>
      </trkpt>
      <trkpt lat="48.07361" lon="11.8853">
        <ele>561.444783</ele>
        <time>2022-09-13T04:02:19.762Z</time>
      </trkpt>
      <trkpt lat="48.07376" lon="11.88505">
        <ele>561.403753</ele>
        <time>2022-09-13T04:02:25.463Z</time>
      </trkpt>
      <trkpt lat="48.07384" lon="11.88492">
        <ele>561.3826</ele>
        <time>2022-09-13T04:02:28.350Z</time>
      </trkpt>
      <trkpt lat="48.07419" lon="11.8843">
        <ele>561.150051</ele>
        <time>2022-09-13T04:02:41.852Z</time>
      </trkpt>
      <trkpt lat="48.07449" lon="11.8837">
        <ele>560.932475</ele>
        <time>2022-09-13T04:02:53.972Z</time>
      </trkpt>
      <trkpt lat="48.07465" lon="11.88292">
        <ele>560.694961</ele>
        <time>2022-09-13T04:03:07.303Z</time>
      </trkpt>
      <trkpt lat="48.07473" lon="11.88244">
        <ele>560.675625</ele>
        <time>2022-09-13T04:03:15.721Z</time>
      </trkpt>
      <trkpt lat="48.07481" lon="11.88192">
        <ele>560.872372</ele>
        <time>2022-09-13T04:03:25.877Z</time>
      </trkpt>
      <trkpt lat="48.07482" lon="11.88176">
        <ele>560.931444</ele>
        <time>2022-09-13T04:03:29.293Z</time>
      </trkpt>
      <trkpt lat="48.07445" lon="11.88144">
        <ele>561.16666</ele>
        <time>2022-09-13T04:03:42.963Z</time>
      </trkpt>
      <trkpt lat="48.07421" lon="11.88103">
        <ele>561.36831</ele>
        <time>2022-09-13T04:03:54.294Z</time>
      </trkpt>
      <trkpt lat="48.0738" lon="11.88049">
        <ele>561.61951</ele>
        <time>2022-09-13T04:04:09.865Z</time>
      </trkpt>
      <trkpt lat="48.07378" lon="11.88024">
        <ele>561.649892</ele>
        <time>2022-09-13T04:04:14.874Z</time>
      </trkpt>
      <trkpt lat="48.07427" lon="11.87994">
        <ele>561.745256</ele>
        <time>2022-09-13T04:04:30.170Z</time>
      </trkpt>
      <trkpt lat="48.07478" lon="11.88014">
        <ele>561.840999</ele>
        <time>2022-09-13T04:04:45.455Z</time>
      </trkpt>
      <trkpt lat="48.07493" lon="11.87996">
        <ele>561.875408</ele>
        <time>2022-09-13T04:04:50.268Z</time>
      </trkpt>
      <trkpt lat="48.07535" lon="11.87929">
        <ele>561.854658</ele>
        <time>2022-09-13T04:05:04.810Z</time>
      </trkpt>
      <trkpt lat="48.07547" lon="11.87908">
        <ele>561.82054</ele>
        <time>2022-09-13T04:05:09.214Z</time>
      </trkpt>
      <trkpt lat="48.07576" lon="11.87857">
        <ele>561.737266</ele>
        <time>2022-09-13T04:05:20.278Z</time>
      </trkpt>
      <trkpt lat="48.07619" lon="11.87788">
        <ele>561.61923</ele>
        <time>2022-09-13T04:05:37.662Z</time>
      </trkpt>
      <trkpt lat="48.07625" lon="11.87777">
        <ele>561.601198</ele>
        <time>2022-09-13T04:05:40.462Z</time>
      </trkpt>
      <trkpt lat="48.07647" lon="11.8774">
        <ele>561.697664</ele>
        <time>2022-09-13T04:05:50.712Z</time>
      </trkpt>
      <trkpt lat="48.07837" lon="11.87416">
        <ele>562.812243</ele>
        <time>2022-09-13T04:07:22.979Z</time>
      </trkpt>
      <trkpt lat="48.07935" lon="11.87197">
        <ele>562.684627</ele>
        <time>2022-09-13T04:08:13.752Z</time>
      </trkpt>
      <trkpt lat="48.07993" lon="11.87033">
        <ele>562.545611</ele>
        <time>2022-09-13T04:08:49.018Z</time>
      </trkpt>
      <trkpt lat="48.08046" lon="11.86878">
        <ele>562.534072</ele>
        <time>2022-09-13T04:09:20.175Z</time>
      </trkpt>
      <trkpt lat="48.08046" lon="11.86864">
        <ele>562.571372</ele>
        <time>2022-09-13T04:09:23.054Z</time>
      </trkpt>
      <trkpt lat="48.08047" lon="11.86843">
        <ele>562.626168</ele>
        <time>2022-09-13T04:09:27.020Z</time>
      </trkpt>
      <trkpt lat="48.08048" lon="11.86796">
        <ele>562.747074</ele>
        <time>2022-09-13T04:09:36.333Z</time>
      </trkpt>
      <trkpt lat="48.0805" lon="11.86744">
        <ele>562.878782</ele>
        <time>2022-09-13T04:09:46.560Z</time>
      </trkpt>
      <trkpt lat="48.0805" lon="11.8674">
        <ele>562.890354</ele>
        <time>2022-09-13T04:09:47.439Z</time>
      </trkpt>
      <trkpt lat="48.08051" lon="11.86698">
        <ele>562.998888</ele>
        <time>2022-09-13T04:09:55.811Z</time>
      </trkpt>
      <trkpt lat="48.08052" lon="11.86664">
        <ele>563.085291</ele>
        <time>2022-09-13T04:10:02.196Z</time>
      </trkpt>
      <trkpt lat="48.08052" lon="11.86644">
        <ele>563.137503</ele>
        <time>2022-09-13T04:10:06.136Z</time>
      </trkpt>
      <trkpt lat="48.08053" lon="11.86615">
        <ele>563.162526</ele>
        <time>2022-09-13T04:10:11.439Z</time>
      </trkpt>
      <trkpt lat="48.08052" lon="11.86588">
        <ele>563.082316</ele>
        <time>2022-09-13T04:10:16.126Z</time>
      </trkpt>
      <trkpt lat="48.08051" lon="11.86571">
        <ele>563.030638</ele>
        <time>2022-09-13T04:10:19.160Z</time>
      </trkpt>
      <trkpt lat="48.0805" lon="11.86517">
        <ele>562.865359</ele>
        <time>2022-09-13T04:10:28.550Z</time>
      </trkpt>
      <trkpt lat="48.08049" lon="11.865">
        <ele>562.815193</ele>
        <time>2022-09-13T04:10:31.296Z</time>
      </trkpt>
      <trkpt lat="48.08048" lon="11.86469">
        <ele>562.719398</ele>
        <time>2022-09-13T04:10:36.586Z</time>
      </trkpt>
      <trkpt lat="48.08048" lon="11.86465">
        <ele>562.709078</ele>
        <time>2022-09-13T04:10:37.169Z</time>
      </trkpt>
      <trkpt lat="48.08047" lon="11.86443">
        <ele>562.641575</ele>
        <time>2022-09-13T04:10:40.778Z</time>
      </trkpt>
      <trkpt lat="48.08045" lon="11.86416">
        <ele>562.560059</ele>
        <time>2022-09-13T04:10:45.117Z</time>
      </trkpt>
      <trkpt lat="48.08045" lon="11.86402">
        <ele>562.515426</ele>
        <time>2022-09-13T04:10:47.453Z</time>
      </trkpt>
      <trkpt lat="48.08044" lon="11.86384">
        <ele>562.463446</ele>
        <time>2022-09-13T04:10:50.127Z</time>
      </trkpt>
      <trkpt lat="48.08041" lon="11.86322">
        <ele>562.107786</ele>
        <time>2022-09-13T04:10:59.672Z</time>
      </trkpt>
      <trkpt lat="48.08036" lon="11.86249">
        <ele>561.516711</ele>
        <time>2022-09-13T04:11:10.519Z</time>
      </trkpt>
      <trkpt lat="48.0806" lon="11.86229">
        <ele>561.189101</ele>
        <time>2022-09-13T04:11:16.484Z</time>
      </trkpt>
      <trkpt lat="48.0807" lon="11.86221">
        <ele>561.059076</ele>
        <time>2022-09-13T04:11:18.881Z</time>
      </trkpt>
      <trkpt lat="48.08102" lon="11.86199">
        <ele>560.636348</ele>
        <time>2022-09-13T04:11:26.869Z</time>
      </trkpt>
      <trkpt lat="48.08125" lon="11.86191">
        <ele>560.351785</ele>
        <time>2022-09-13T04:11:32.377Z</time>
      </trkpt>
      <trkpt lat="48.08129" lon="11.8619">
        <ele>560.301653</ele>
        <time>2022-09-13T04:11:33.355Z</time>
      </trkpt>
      <trkpt lat="48.08134" lon="11.86191">
        <ele>560.243742</ele>
        <time>2022-09-13T04:11:34.496Z</time>
      </trkpt>
      <trkpt lat="48.0814" lon="11.86136">
        <ele>559.92392</ele>
        <time>2022-09-13T04:11:43.264Z</time>
      </trkpt>
      <trkpt lat="48.08155" lon="11.86067">
        <ele>559.516407</ele>
        <time>2022-09-13T04:11:54.605Z</time>
      </trkpt>
      <trkpt lat="48.0817" lon="11.86007">
        <ele>559.161361</ele>
        <time>2022-09-13T04:12:04.487Z</time>
      </trkpt>
      <trkpt lat="48.08189" lon="11.85925">
        <ele>558.691015</ele>
        <time>2022-09-13T04:12:18.579Z</time>
      </trkpt>
      <trkpt lat="48.08192" lon="11.85914">
        <ele>558.657718</ele>
        <time>2022-09-13T04:12:20.400Z</time>
      </trkpt>
      <trkpt lat="48.08193" lon="11.85907">
        <ele>558.634267</ele>
        <time>2022-09-13T04:12:21.702Z</time>
      </trkpt>
      <trkpt lat="48.08195" lon="11.85899">
        <ele>558.609198</ele>
        <time>2022-09-13T04:12:23.050Z</time>
      </trkpt>
      <trkpt lat="48.08206" lon="11.85846">
        <ele>558.438867</ele>
        <time>2022-09-13T04:12:32.273Z</time>
      </trkpt>
      <trkpt lat="48.08207" lon="11.85835">
        <ele>558.406186</ele>
        <time>2022-09-13T04:12:34.048Z</time>
      </trkpt>
      <trkpt lat="48.08208" lon="11.85822">
        <ele>558.365583</ele>
        <time>2022-09-13T04:12:36.225Z</time>
      </trkpt>
      <trkpt lat="48.08226" lon="11.85684">
        <ele>557.935718</ele>
        <time>2022-09-13T04:12:59.475Z</time>
      </trkpt>
      <trkpt lat="48.08229" lon="11.85663">
        <ele>557.880702</ele>
        <time>2022-09-13T04:13:03.062Z</time>
      </trkpt>
      <trkpt lat="48.08231" lon="11.8565">
        <ele>557.865204</ele>
        <time>2022-09-13T04:13:05.906Z</time>
      </trkpt>
      <trkpt lat="48.08237" lon="11.85607">
        <ele>557.811137</ele>
        <time>2022-09-13T04:13:13.512Z</time>
      </trkpt>
      <trkpt lat="48.08251" lon="11.85522">
        <ele>557.703581</ele>
        <time>2022-09-13T04:13:28.870Z</time>
      </trkpt>
      <trkpt lat="48.08252" lon="11.85513">
        <ele>557.691716</ele>
        <time>2022-09-13T04:13:30.565Z</time>
      </trkpt>
      <trkpt lat="48.08254" lon="11.85499">
        <ele>557.675011</ele>
        <time>2022-09-13T04:13:32.891Z</time>
      </trkpt>
      <trkpt lat="48.08255" lon="11.85489">
        <ele>557.661714</ele>
        <time>2022-09-13T04:13:34.748Z</time>
      </trkpt>
      <trkpt lat="48.08256" lon="11.85484">
        <ele>557.655752</ele>
        <time>2022-09-13T04:13:35.592Z</time>
      </trkpt>
      <trkpt lat="48.08259" lon="11.85456">
        <ele>557.620432</ele>
        <time>2022-09-13T04:13:40.586Z</time>
      </trkpt>
      <trkpt lat="48.08262" lon="11.85424">
        <ele>557.581152</ele>
        <time>2022-09-13T04:13:46.061Z</time>
      </trkpt>
      <trkpt lat="48.08266" lon="11.85367">
        <ele>557.588411</ele>
        <time>2022-09-13T04:13:56.242Z</time>
      </trkpt>
      <trkpt lat="48.08264" lon="11.85345">
        <ele>557.607185</ele>
        <time>2022-09-13T04:14:00.316Z</time>
      </trkpt>
      <trkpt lat="48.08271" lon="11.85224">
        <ele>557.708732</ele>
        <time>2022-09-13T04:14:22.097Z</time>
      </trkpt>
      <trkpt lat="48.08272" lon="11.85208">
        <ele>557.722066</ele>
        <time>2022-09-13T04:14:24.998Z</time>
      </trkpt>
      <trkpt lat="48.08272" lon="11.85188">
        <ele>557.738283</ele>
        <time>2022-09-13T04:14:28.611Z</time>
      </trkpt>
      <trkpt lat="48.08277" lon="11.84909">
        <ele>558.26548</ele>
        <time>2022-09-13T04:15:22.529Z</time>
      </trkpt>
      <trkpt lat="48.08289" lon="11.84743">
        <ele>558.26818</ele>
        <time>2022-09-13T04:15:51.968Z</time>
      </trkpt>
      <trkpt lat="48.08318" lon="11.845">
        <ele>558.257446</ele>
        <time>2022-09-13T04:16:34.210Z</time>
      </trkpt>
      <trkpt lat="48.08324" lon="11.84469">
        <ele>558.284544</ele>
        <time>2022-09-13T04:16:40.061Z</time>
      </trkpt>
      <trkpt lat="48.08339" lon="11.84445">
        <ele>558.312428</ele>
        <time>2022-09-13T04:16:46.165Z</time>
      </trkpt>
      <trkpt lat="48.08362" lon="11.84288">
        <ele>558.668768</ele>
        <time>2022-09-13T04:17:17.223Z</time>
      </trkpt>
      <trkpt lat="48.08368" lon="11.84146">
        <ele>559.316935</ele>
        <time>2022-09-13T04:17:46.010Z</time>
      </trkpt>
      <trkpt lat="48.0837" lon="11.83959">
        <ele>560.233512</ele>
        <time>2022-09-13T04:18:23.575Z</time>
      </trkpt>
      <trkpt lat="48.08366" lon="11.83861">
        <ele>560.734563</ele>
        <time>2022-09-13T04:18:43.244Z</time>
      </trkpt>
      <trkpt lat="48.08368" lon="11.83828">
        <ele>560.906208</ele>
        <time>2022-09-13T04:18:49.951Z</time>
      </trkpt>
      <trkpt lat="48.08381" lon="11.83809">
        <ele>561.092093</ele>
        <time>2022-09-13T04:18:55.877Z</time>
      </trkpt>
      <trkpt lat="48.0838" lon="11.83806">
        <ele>561.122851</ele>
        <time>2022-09-13T04:18:56.476Z</time>
      </trkpt>
      <trkpt lat="48.08379" lon="11.83801">
        <ele>561.177762</ele>
        <time>2022-09-13T04:18:57.501Z</time>
      </trkpt>
      <trkpt lat="48.08379" lon="11.83789">
        <ele>561.307043</ele>
        <time>2022-09-13T04:18:59.942Z</time>
      </trkpt>
      <trkpt lat="48.08366" lon="11.8377">
        <ele>561.600271</ele>
        <time>2022-09-13T04:19:05.922Z</time>
      </trkpt>
      <trkpt lat="48.08368" lon="11.83717">
        <ele>562.174481</ele>
        <time>2022-09-13T04:19:17.680Z</time>
      </trkpt>
      <trkpt lat="48.08363" lon="11.83673">
        <ele>562.657459</ele>
        <time>2022-09-13T04:19:27.858Z</time>
      </trkpt>
      <trkpt lat="48.08365" lon="11.83399">
        <ele>566.2289</ele>
        <time>2022-09-13T04:20:35.220Z</time>
      </trkpt>
      <trkpt lat="48.08373" lon="11.83368">
        <ele>566.72774</ele>
        <time>2022-09-13T04:20:44.211Z</time>
      </trkpt>
      <trkpt lat="48.08374" lon="11.83242">
        <ele>568.454891</ele>
        <time>2022-09-13T04:21:15.680Z</time>
      </trkpt>
      <trkpt lat="48.08394" lon="11.83246">
        <ele>568.82604</ele>
        <time>2022-09-13T04:21:23.171Z</time>
      </trkpt>
      <trkpt lat="48.0841" lon="11.83258">
        <ele>569.154243</ele>
        <time>2022-09-13T04:21:29.738Z</time>
      </trkpt>
      <trkpt lat="48.08411" lon="11.83228">
        <ele>569.516049</ele>
        <time>2022-09-13T04:21:38.609Z</time>
      </trkpt>
      <trkpt lat="48.08401" lon="11.83173">
        <ele>570.207678</ele>
        <time>2022-09-13T04:21:52.203Z</time>
      </trkpt>
      <trkpt lat="48.08394" lon="11.83139">
        <ele>570.638943</ele>
        <time>2022-09-13T04:22:00.751Z</time>
      </trkpt>
      <trkpt lat="48.08384" lon="11.83137">
        <ele>570.827514</ele>
        <time>2022-09-13T04:22:04.310Z</time>
      </trkpt>
      <trkpt lat="48.08374" lon="11.83126">
        <ele>571.052165</ele>
        <time>2022-09-13T04:22:08.341Z</time>
      </trkpt>
      <trkpt lat="48.08367" lon="11.83094">
        <ele>570.970178</ele>
        <time>2022-09-13T04:22:16.040Z</time>
      </trkpt>
      <trkpt lat="48.08361" lon="11.83042">
        <ele>570.668166</ele>
        <time>2022-09-13T04:22:26.389Z</time>
      </trkpt>
      <trkpt lat="48.0836" lon="11.8302">
        <ele>570.541154</ele>
        <time>2022-09-13T04:22:29.993Z</time>
      </trkpt>
      <trkpt lat="48.08358" lon="11.82988">
        <ele>570.359849</ele>
        <time>2022-09-13T04:22:35.177Z</time>
      </trkpt>
      <trkpt lat="48.08363" lon="11.82929">
        <ele>570.015036</ele>
        <time>2022-09-13T04:22:44.138Z</time>
      </trkpt>
      <trkpt lat="48.08384" lon="11.82839">
        <ele>569.159003</ele>
        <time>2022-09-13T04:22:57.003Z</time>
      </trkpt>
      <trkpt lat="48.08382" lon="11.82754">
        <ele>567.376869</ele>
        <time>2022-09-13T04:23:07.924Z</time>
      </trkpt>
      <trkpt lat="48.08379" lon="11.82708">
        <ele>566.406085</ele>
        <time>2022-09-13T04:23:13.826Z</time>
      </trkpt>
      <trkpt lat="48.08379" lon="11.82702">
        <ele>566.269118</ele>
        <time>2022-09-13T04:23:14.664Z</time>
      </trkpt>
      <trkpt lat="48.08378" lon="11.8269">
        <ele>566.009986</ele>
        <time>2022-09-13T04:23:16.275Z</time>
      </trkpt>
      <trkpt lat="48.08376" lon="11.82667">
        <ele>565.524986</ele>
        <time>2022-09-13T04:23:19.225Z</time>
      </trkpt>
      <trkpt lat="48.08375" lon="11.82656">
        <ele>565.307604</ele>
        <time>2022-09-13T04:23:20.524Z</time>
      </trkpt>
      <trkpt lat="48.08371" lon="11.826">
        <ele>564.102248</ele>
        <time>2022-09-13T04:23:28.011Z</time>
      </trkpt>
      <trkpt lat="48.0837" lon="11.82578">
        <ele>563.750354</ele>
        <time>2022-09-13T04:23:30.955Z</time>
      </trkpt>
      <trkpt lat="48.08359" lon="11.82506">
        <ele>562.785575</ele>
        <time>2022-09-13T04:23:41.023Z</time>
      </trkpt>
      <trkpt lat="48.08347" lon="11.8245">
        <ele>562.028463</ele>
        <time>2022-09-13T04:23:49.273Z</time>
      </trkpt>
      <trkpt lat="48.08342" lon="11.82444">
        <ele>561.90846</ele>
        <time>2022-09-13T04:23:50.569Z</time>
      </trkpt>
      <trkpt lat="48.08332" lon="11.82433">
        <ele>561.668331</ele>
        <time>2022-09-13T04:23:53.396Z</time>
      </trkpt>
      <trkpt lat="48.08319" lon="11.82423">
        <ele>561.379009</ele>
        <time>2022-09-13T04:23:56.790Z</time>
      </trkpt>
      <trkpt lat="48.08285" lon="11.82409">
        <ele>560.698011</ele>
        <time>2022-09-13T04:24:04.719Z</time>
      </trkpt>
      <trkpt lat="48.0829" lon="11.82378">
        <ele>560.30097</ele>
        <time>2022-09-13T04:24:09.421Z</time>
      </trkpt>
      <trkpt lat="48.083" lon="11.82316">
        <ele>559.585478</ele>
        <time>2022-09-13T04:24:18.792Z</time>
      </trkpt>
      <trkpt lat="48.08301" lon="11.82305">
        <ele>559.46118</ele>
        <time>2022-09-13T04:24:20.424Z</time>
      </trkpt>
      <trkpt lat="48.0831" lon="11.82245">
        <ele>558.762533</ele>
        <time>2022-09-13T04:24:29.289Z</time>
      </trkpt>
      <trkpt lat="48.08311" lon="11.82241">
        <ele>558.719752</ele>
        <time>2022-09-13T04:24:29.832Z</time>
      </trkpt>
      <trkpt lat="48.08317" lon="11.822">
        <ele>558.240094</ele>
        <time>2022-09-13T04:24:35.910Z</time>
      </trkpt>
      <trkpt lat="48.08322" lon="11.82168">
        <ele>557.872682</ele>
        <time>2022-09-13T04:24:40.517Z</time>
      </trkpt>
      <trkpt lat="48.08332" lon="11.82109">
        <ele>557.244609</ele>
        <time>2022-09-13T04:24:49.159Z</time>
      </trkpt>
      <trkpt lat="48.08335" lon="11.82037">
        <ele>556.623995</ele>
        <time>2022-09-13T04:24:59.825Z</time>
      </trkpt>
      <trkpt lat="48.08335" lon="11.82024">
        <ele>556.514708</ele>
        <time>2022-09-13T04:25:01.770Z</time>
      </trkpt>
      <trkpt lat="48.08334" lon="11.82006">
        <ele>556.358732</ele>
        <time>2022-09-13T04:25:04.542Z</time>
      </trkpt>
      <trkpt lat="48.08332" lon="11.81992">
        <ele>556.240716</ele>
        <time>2022-09-13T04:25:06.632Z</time>
      </trkpt>
      <trkpt lat="48.08328" lon="11.81958">
        <ele>555.946279</ele>
        <time>2022-09-13T04:25:12.040Z</time>
      </trkpt>
      <trkpt lat="48.08324" lon="11.81931">
        <ele>555.706245</ele>
        <time>2022-09-13T04:25:16.375Z</time>
      </trkpt>
      <trkpt lat="48.08323" lon="11.81918">
        <ele>555.594941</ele>
        <time>2022-09-13T04:25:18.406Z</time>
      </trkpt>
      <trkpt lat="48.08317" lon="11.81834">
        <ele>554.927668</ele>
        <time>2022-09-13T04:25:31.405Z</time>
      </trkpt>
      <trkpt lat="48.08312" lon="11.81819">
        <ele>554.821482</ele>
        <time>2022-09-13T04:25:33.918Z</time>
      </trkpt>
      <trkpt lat="48.08309" lon="11.8173">
        <ele>554.24816</ele>
        <time>2022-09-13T04:25:47.621Z</time>
      </trkpt>
      <trkpt lat="48.08302" lon="11.81704">
        <ele>554.068203</ele>
        <time>2022-09-13T04:25:51.887Z</time>
      </trkpt>
      <trkpt lat="48.08312" lon="11.8158">
        <ele>553.328448</ele>
        <time>2022-09-13T04:26:11.213Z</time>
      </trkpt>
      <trkpt lat="48.08318" lon="11.81552">
        <ele>553.265271</ele>
        <time>2022-09-13T04:26:15.789Z</time>
      </trkpt>
      <trkpt lat="48.08374" lon="11.81358">
        <ele>552.813242</ele>
        <time>2022-09-13T04:26:51.920Z</time>
      </trkpt>
      <trkpt lat="48.08407" lon="11.81244">
        <ele>553.072839</ele>
        <time>2022-09-13T04:27:16.053Z</time>
      </trkpt>
      <trkpt lat="48.08418" lon="11.81178">
        <ele>553.250536</ele>
        <time>2022-09-13T04:27:29.205Z</time>
      </trkpt>
      <trkpt lat="48.08421" lon="11.81115">
        <ele>553.416404</ele>
        <time>2022-09-13T04:27:41.366Z</time>
      </trkpt>
      <trkpt lat="48.08417" lon="11.80968">
        <ele>553.556419</ele>
        <time>2022-09-13T04:28:09.333Z</time>
      </trkpt>
      <trkpt lat="48.08421" lon="11.80905">
        <ele>553.592958</ele>
        <time>2022-09-13T04:28:20.702Z</time>
      </trkpt>
      <trkpt lat="48.08432" lon="11.80848">
        <ele>553.62765</ele>
        <time>2022-09-13T04:28:31.097Z</time>
      </trkpt>
      <trkpt lat="48.08453" lon="11.80806">
        <ele>553.574029</ele>
        <time>2022-09-13T04:28:39.796Z</time>
      </trkpt>
      <trkpt lat="48.08472" lon="11.80782">
        <ele>553.47128</ele>
        <time>2022-09-13T04:28:46.106Z</time>
      </trkpt>
      <trkpt lat="48.08473" lon="11.80764">
        <ele>553.422748</ele>
        <time>2022-09-13T04:28:49.101Z</time>
      </trkpt>
      <trkpt lat="48.08468" lon="11.80755">
        <ele>553.390694</ele>
        <time>2022-09-13T04:28:51.000Z</time>
      </trkpt>
      <trkpt lat="48.08459" lon="11.80743">
        <ele>553.341706</ele>
        <time>2022-09-13T04:28:54.039Z</time>
      </trkpt>
      <trkpt lat="48.08451" lon="11.80731">
        <ele>553.296224</ele>
        <time>2022-09-13T04:28:56.827Z</time>
      </trkpt>
      <trkpt lat="48.08514" lon="11.8063">
        <ele>552.923348</ele>
        <time>2022-09-13T04:29:19.548Z</time>
      </trkpt>
      <trkpt lat="48.08564" lon="11.80519">
        <ele>552.862948</ele>
        <time>2022-09-13T04:29:42.369Z</time>
      </trkpt>
      <trkpt lat="48.08663" lon="11.80358">
        <ele>553.130798</ele>
        <time>2022-09-13T04:30:22.691Z</time>
      </trkpt>
      <trkpt lat="48.08726" lon="11.80251">
        <ele>553.703737</ele>
        <time>2022-09-13T04:30:51.389Z</time>
      </trkpt>
      <trkpt lat="48.08778" lon="11.80138">
        <ele>554.5139</ele>
        <time>2022-09-13T04:31:20.097Z</time>
      </trkpt>
      <trkpt lat="48.08803" lon="11.80071">
        <ele>555.03557</ele>
        <time>2022-09-13T04:31:36.549Z</time>
      </trkpt>
      <trkpt lat="48.08897" lon="11.79739">
        <ele>557.330645</ele>
        <time>2022-09-13T04:32:53.014Z</time>
      </trkpt>
      <trkpt lat="48.09002" lon="11.79358">
        <ele>557.457164</ele>
        <time>2022-09-13T04:34:06.701Z</time>
      </trkpt>
      <trkpt lat="48.09024" lon="11.79241">
        <ele>557.326581</ele>
        <time>2022-09-13T04:34:27.605Z</time>
      </trkpt>
      <trkpt lat="48.09106" lon="11.78695">
        <ele>555.490271</ele>
        <time>2022-09-13T04:35:59.946Z</time>
      </trkpt>
      <trkpt lat="48.09131" lon="11.78558">
        <ele>554.73323</ele>
        <time>2022-09-13T04:36:21.994Z</time>
      </trkpt>
      <trkpt lat="48.09157" lon="11.78445">
        <ele>554.093867</ele>
        <time>2022-09-13T04:36:40.858Z</time>
      </trkpt>
      <trkpt lat="48.09188" lon="11.78345">
        <ele>553.769535</ele>
        <time>2022-09-13T04:36:58.529Z</time>
      </trkpt>
      <trkpt lat="48.09193" lon="11.78327">
        <ele>553.711924</ele>
        <time>2022-09-13T04:37:01.896Z</time>
      </trkpt>
      <trkpt lat="48.09282" lon="11.78069">
        <ele>553.345677</ele>
        <time>2022-09-13T04:37:51.654Z</time>
      </trkpt>
      <trkpt lat="48.09309" lon="11.7799">
        <ele>553.369391</ele>
        <time>2022-09-13T04:38:08.230Z</time>
      </trkpt>
      <trkpt lat="48.09458" lon="11.77552">
        <ele>554.822628</ele>
        <time>2022-09-13T04:39:44.733Z</time>
      </trkpt>
      <trkpt lat="48.09489" lon="11.77456">
        <ele>554.938882</ele>
        <time>2022-09-13T04:40:04.155Z</time>
      </trkpt>
      <trkpt lat="48.09588" lon="11.77173">
        <ele>553.850838</ele>
        <time>2022-09-13T04:40:56.897Z</time>
      </trkpt>
      <trkpt lat="48.09697" lon="11.76856">
        <ele>551.723815</ele>
        <time>2022-09-13T04:41:51.343Z</time>
      </trkpt>
      <trkpt lat="48.09703" lon="11.7683">
        <ele>551.560847</ele>
        <time>2022-09-13T04:41:57.132Z</time>
      </trkpt>
      <trkpt lat="48.09702" lon="11.76819">
        <ele>551.498106</ele>
        <time>2022-09-13T04:41:59.367Z</time>
      </trkpt>
      <trkpt lat="48.09711" lon="11.76805">
        <ele>551.378828</ele>
        <time>2022-09-13T04:42:02.696Z</time>
      </trkpt>
      <trkpt lat="48.09838" lon="11.7645">
        <ele>550.517339</ele>
        <time>2022-09-13T04:43:14.419Z</time>
      </trkpt>
      <trkpt lat="48.09989" lon="11.76011">
        <ele>549.841523</ele>
        <time>2022-09-13T04:44:43.784Z</time>
      </trkpt>
      <trkpt lat="48.09992" lon="11.76001">
        <ele>549.818043</ele>
        <time>2022-09-13T04:44:45.716Z</time>
      </trkpt>
      <trkpt lat="48.10004" lon="11.75966">
        <ele>549.728834</ele>
        <time>2022-09-13T04:44:52.516Z</time>
      </trkpt>
      <trkpt lat="48.10004" lon="11.75953">
        <ele>549.701116</ele>
        <time>2022-09-13T04:44:54.793Z</time>
      </trkpt>
      <trkpt lat="48.10008" lon="11.75949">
        <ele>549.684447</ele>
        <time>2022-09-13T04:44:55.972Z</time>
      </trkpt>
      <trkpt lat="48.10013" lon="11.7594">
        <ele>549.658243</ele>
        <time>2022-09-13T04:44:57.874Z</time>
      </trkpt>
      <trkpt lat="48.10016" lon="11.7593">
        <ele>549.633722</ele>
        <time>2022-09-13T04:44:59.688Z</time>
      </trkpt>
      <trkpt lat="48.10017" lon="11.75915">
        <ele>549.599336</ele>
        <time>2022-09-13T04:45:02.292Z</time>
      </trkpt>
      <trkpt lat="48.10016" lon="11.75908">
        <ele>549.584109</ele>
        <time>2022-09-13T04:45:03.541Z</time>
      </trkpt>
      <trkpt lat="48.10023" lon="11.75902">
        <ele>549.557296</ele>
        <time>2022-09-13T04:45:05.560Z</time>
      </trkpt>
      <trkpt lat="48.10116" lon="11.75647">
        <ele>548.803053</ele>
        <time>2022-09-13T04:45:57.129Z</time>
      </trkpt>
      <trkpt lat="48.10229" lon="11.75312">
        <ele>547.189571</ele>
        <time>2022-09-13T04:46:59.422Z</time>
      </trkpt>
      <trkpt lat="48.10229" lon="11.7531">
        <ele>547.184677</ele>
        <time>2022-09-13T04:46:59.849Z</time>
      </trkpt>
      <trkpt lat="48.10268" lon="11.75174">
        <ele>546.908655</ele>
        <time>2022-09-13T04:47:24.403Z</time>
      </trkpt>
      <trkpt lat="48.10274" lon="11.75151">
        <ele>546.862029</ele>
        <time>2022-09-13T04:47:29.081Z</time>
      </trkpt>
      <trkpt lat="48.10277" lon="11.75137">
        <ele>546.833719</ele>
        <time>2022-09-13T04:47:31.788Z</time>
      </trkpt>
      <trkpt lat="48.10285" lon="11.75109">
        <ele>546.778173</ele>
        <time>2022-09-13T04:47:37.605Z</time>
      </trkpt>
      <trkpt lat="48.10326" lon="11.74931">
        <ele>548.010022</ele>
        <time>2022-09-13T04:48:20.027Z</time>
      </trkpt>
      <trkpt lat="48.10392" lon="11.74622">
        <ele>549.810764</ele>
        <time>2022-09-13T04:49:33.345Z</time>
      </trkpt>
      <trkpt lat="48.10408" lon="11.74526">
        <ele>549.47119</ele>
        <time>2022-09-13T04:49:49.026Z</time>
      </trkpt>
      <trkpt lat="48.10412" lon="11.74501">
        <ele>549.191186</ele>
        <time>2022-09-13T04:49:53.045Z</time>
      </trkpt>
      <trkpt lat="48.10422" lon="11.74465">
        <ele>548.771406</ele>
        <time>2022-09-13T04:49:58.916Z</time>
      </trkpt>
      <trkpt lat="48.10444" lon="11.74376">
        <ele>547.750932</ele>
        <time>2022-09-13T04:50:12.660Z</time>
      </trkpt>
      <trkpt lat="48.10516" lon="11.74016">
        <ele>544.259426</ele>
        <time>2022-09-13T04:51:10.089Z</time>
      </trkpt>
      <trkpt lat="48.10582" lon="11.73663">
        <ele>543.829587</ele>
        <time>2022-09-13T04:52:18.575Z</time>
      </trkpt>
      <trkpt lat="48.10593" lon="11.73669">
        <ele>543.83776</ele>
        <time>2022-09-13T04:52:21.835Z</time>
      </trkpt>
      <trkpt lat="48.10604" lon="11.73674">
        <ele>543.846039</ele>
        <time>2022-09-13T04:52:25.088Z</time>
      </trkpt>
      <trkpt lat="48.10612" lon="11.73678">
        <ele>543.851836</ele>
        <time>2022-09-13T04:52:27.238Z</time>
      </trkpt>
      <trkpt lat="48.10618" lon="11.73651">
        <ele>543.865653</ele>
        <time>2022-09-13T04:52:32.817Z</time>
      </trkpt>
      <trkpt lat="48.10621" lon="11.73637">
        <ele>543.872418</ele>
        <time>2022-09-13T04:52:35.536Z</time>
      </trkpt>
      <trkpt lat="48.10626" lon="11.73614">
        <ele>543.883988</ele>
        <time>2022-09-13T04:52:40.052Z</time>
      </trkpt>
      <trkpt lat="48.10678" lon="11.73377">
        <ele>543.868453</ele>
        <time>2022-09-13T04:53:26.928Z</time>
      </trkpt>
      <trkpt lat="48.10709" lon="11.73229">
        <ele>543.839582</ele>
        <time>2022-09-13T04:53:54.137Z</time>
      </trkpt>
      <trkpt lat="48.10714" lon="11.73208">
        <ele>543.835073</ele>
        <time>2022-09-13T04:53:58.349Z</time>
      </trkpt>
      <trkpt lat="48.10721" lon="11.73176">
        <ele>543.827837</ele>
        <time>2022-09-13T04:54:04.800Z</time>
      </trkpt>
      <trkpt lat="48.10723" lon="11.73168">
        <ele>543.826102</ele>
        <time>2022-09-13T04:54:06.472Z</time>
      </trkpt>
      <trkpt lat="48.10725" lon="11.73157">
        <ele>543.823812</ele>
        <time>2022-09-13T04:54:08.714Z</time>
      </trkpt>
      <trkpt lat="48.10728" lon="11.73144">
        <ele>543.820888</ele>
        <time>2022-09-13T04:54:11.350Z</time>
      </trkpt>
      <trkpt lat="48.10729" lon="11.73137">
        <ele>543.819322</ele>
        <time>2022-09-13T04:54:12.821Z</time>
      </trkpt>
      <trkpt lat="48.10738" lon="11.731">
        <ele>543.811155</ele>
        <time>2022-09-13T04:54:20.447Z</time>
      </trkpt>
      <trkpt lat="48.10741" lon="11.73084">
        <ele>543.80812</ele>
        <time>2022-09-13T04:54:23.489Z</time>
      </trkpt>
      <trkpt lat="48.10747" lon="11.73052">
        <ele>543.802396</ele>
        <time>2022-09-13T04:54:29.792Z</time>
      </trkpt>
      <trkpt lat="48.1075" lon="11.73036">
        <ele>543.799505</ele>
        <time>2022-09-13T04:54:32.799Z</time>
      </trkpt>
      <trkpt lat="48.10763" lon="11.72977">
        <ele>543.788784</ele>
        <time>2022-09-13T04:54:44.307Z</time>
      </trkpt>
      <trkpt lat="48.10774" lon="11.72921">
        <ele>543.778579</ele>
        <time>2022-09-13T04:54:55.227Z</time>
      </trkpt>
      <trkpt lat="48.10777" lon="11.72905">
        <ele>543.775778</ele>
        <time>2022-09-13T04:54:58.120Z</time>
      </trkpt>
      <trkpt lat="48.10788" lon="11.72853">
        <ele>543.766269</ele>
        <time>2022-09-13T04:55:08.259Z</time>
      </trkpt>
      <trkpt lat="48.10798" lon="11.72805">
        <ele>543.680923</ele>
        <time>2022-09-13T04:55:17.499Z</time>
      </trkpt>
      <trkpt lat="48.10812" lon="11.72739">
        <ele>543.507188</ele>
        <time>2022-09-13T04:55:29.558Z</time>
      </trkpt>
      <trkpt lat="48.10817" lon="11.72714">
        <ele>543.443277</ele>
        <time>2022-09-13T04:55:33.944Z</time>
      </trkpt>
      <trkpt lat="48.10819" lon="11.72699">
        <ele>543.40536</ele>
        <time>2022-09-13T04:55:36.477Z</time>
      </trkpt>
      <trkpt lat="48.10822" lon="11.72683">
        <ele>543.364847</ele>
        <time>2022-09-13T04:55:39.273Z</time>
      </trkpt>
      <trkpt lat="48.10824" lon="11.72673">
        <ele>543.337924</ele>
        <time>2022-09-13T04:55:41.132Z</time>
      </trkpt>
      <trkpt lat="48.10826" lon="11.72662">
        <ele>543.30935</ele>
        <time>2022-09-13T04:55:43.096Z</time>
      </trkpt>
      <trkpt lat="48.10833" lon="11.7262">
        <ele>543.200855</ele>
        <time>2022-09-13T04:55:50.747Z</time>
      </trkpt>
      <trkpt lat="48.10844" lon="11.72548">
        <ele>543.030013</ele>
        <time>2022-09-13T04:56:03.680Z</time>
      </trkpt>
      <trkpt lat="48.10844" lon="11.72546">
        <ele>543.025746</ele>
        <time>2022-09-13T04:56:04.029Z</time>
      </trkpt>
      <trkpt lat="48.10866" lon="11.72406">
        <ele>542.72553</ele>
        <time>2022-09-13T04:56:29.403Z</time>
      </trkpt>
      <trkpt lat="48.10868" lon="11.72389">
        <ele>542.690104</ele>
        <time>2022-09-13T04:56:32.359Z</time>
      </trkpt>
      <trkpt lat="48.10871" lon="11.72372">
        <ele>542.653875</ele>
        <time>2022-09-13T04:56:35.569Z</time>
      </trkpt>
      <trkpt lat="48.10871" lon="11.72361">
        <ele>542.630141</ele>
        <time>2022-09-13T04:56:37.638Z</time>
      </trkpt>
      <trkpt lat="48.10873" lon="11.72348">
        <ele>542.603237</ele>
        <time>2022-09-13T04:56:39.931Z</time>
      </trkpt>
      <trkpt lat="48.10891" lon="11.7227">
        <ele>542.37068</ele>
        <time>2022-09-13T04:56:54.939Z</time>
      </trkpt>
      <trkpt lat="48.10954" lon="11.72081">
        <ele>541.661353</ele>
        <time>2022-09-13T04:57:31.120Z</time>
      </trkpt>
      <trkpt lat="48.10956" lon="11.72074">
        <ele>541.636871</ele>
        <time>2022-09-13T04:57:32.342Z</time>
      </trkpt>
      <trkpt lat="48.10961" lon="11.72058">
        <ele>541.556722</ele>
        <time>2022-09-13T04:57:35.149Z</time>
      </trkpt>
      <trkpt lat="48.10967" lon="11.72041">
        <ele>541.461803</ele>
        <time>2022-09-13T04:57:38.353Z</time>
      </trkpt>
      <trkpt lat="48.10973" lon="11.72025">
        <ele>541.378713</ele>
        <time>2022-09-13T04:57:41.191Z</time>
      </trkpt>
      <trkpt lat="48.10978" lon="11.72011">
        <ele>541.299722</ele>
        <time>2022-09-13T04:57:43.808Z</time>
      </trkpt>
      <trkpt lat="48.10986" lon="11.71986">
        <ele>541.165672</ele>
        <time>2022-09-13T04:57:48.406Z</time>
      </trkpt>
      <trkpt lat="48.1099" lon="11.71971">
        <ele>541.089453</ele>
        <time>2022-09-13T04:57:50.999Z</time>
      </trkpt>
      <trkpt lat="48.10997" lon="11.71949">
        <ele>540.976434</ele>
        <time>2022-09-13T04:57:54.854Z</time>
      </trkpt>
      <trkpt lat="48.11017" lon="11.7188">
        <ele>540.612386</ele>
        <time>2022-09-13T04:58:07.639Z</time>
      </trkpt>
      <trkpt lat="48.11035" lon="11.71812">
        <ele>540.314519</ele>
        <time>2022-09-13T04:58:20.233Z</time>
      </trkpt>
      <trkpt lat="48.1106" lon="11.71699">
        <ele>540.111602</ele>
        <time>2022-09-13T04:58:40.953Z</time>
      </trkpt>
      <trkpt lat="48.11065" lon="11.71672">
        <ele>540.064193</ele>
        <time>2022-09-13T04:58:46.018Z</time>
      </trkpt>
      <trkpt lat="48.1107" lon="11.71646">
        <ele>540.01706</ele>
        <time>2022-09-13T04:58:50.848Z</time>
      </trkpt>
      <trkpt lat="48.11074" lon="11.71625">
        <ele>539.980368</ele>
        <time>2022-09-13T04:58:54.896Z</time>
      </trkpt>
      <trkpt lat="48.11076" lon="11.71613">
        <ele>539.959552</ele>
        <time>2022-09-13T04:58:57.122Z</time>
      </trkpt>
      <trkpt lat="48.11078" lon="11.71598">
        <ele>539.933033</ele>
        <time>2022-09-13T04:59:00.018Z</time>
      </trkpt>
      <trkpt lat="48.11083" lon="11.71568">
        <ele>539.883146</ele>
        <time>2022-09-13T04:59:05.819Z</time>
      </trkpt>
      <trkpt lat="48.11084" lon="11.71558">
        <ele>539.887604</ele>
        <time>2022-09-13T04:59:07.793Z</time>
      </trkpt>
      <trkpt lat="48.11085" lon="11.71548">
        <ele>539.891928</ele>
        <time>2022-09-13T04:59:09.716Z</time>
      </trkpt>
      <trkpt lat="48.11087" lon="11.7153">
        <ele>539.899372</ele>
        <time>2022-09-13T04:59:13.176Z</time>
      </trkpt>
      <trkpt lat="48.11088" lon="11.71525">
        <ele>539.901651</ele>
        <time>2022-09-13T04:59:14.237Z</time>
      </trkpt>
      <trkpt lat="48.11092" lon="11.71494">
        <ele>539.914424</ele>
        <time>2022-09-13T04:59:20.010Z</time>
      </trkpt>
      <trkpt lat="48.11103" lon="11.71381">
        <ele>539.962053</ele>
        <time>2022-09-13T04:59:41.633Z</time>
      </trkpt>
      <trkpt lat="48.11106" lon="11.71337">
        <ele>539.980492</ele>
        <time>2022-09-13T04:59:49.763Z</time>
      </trkpt>
      <trkpt lat="48.11124" lon="11.71154">
        <ele>540.005508</ele>
        <time>2022-09-13T05:00:24.291Z</time>
      </trkpt>
      <trkpt lat="48.11125" lon="11.71141">
        <ele>540.006474</ele>
        <time>2022-09-13T05:00:26.804Z</time>
      </trkpt>
      <trkpt lat="48.1113" lon="11.71089">
        <ele>540.010131</ele>
        <time>2022-09-13T05:00:36.471Z</time>
      </trkpt>
      <trkpt lat="48.11136" lon="11.7104">
        <ele>540.013603</ele>
        <time>2022-09-13T05:00:45.724Z</time>
      </trkpt>
      <trkpt lat="48.11144" lon="11.70993">
        <ele>540.017367</ele>
        <time>2022-09-13T05:00:54.765Z</time>
      </trkpt>
      <trkpt lat="48.11154" lon="11.70951">
        <ele>540.020906</ele>
        <time>2022-09-13T05:01:03.155Z</time>
      </trkpt>
      <trkpt lat="48.11157" lon="11.70937">
        <ele>540.022001</ele>
        <time>2022-09-13T05:01:05.752Z</time>
      </trkpt>
      <trkpt lat="48.11159" lon="11.70922">
        <ele>540.023237</ele>
        <time>2022-09-13T05:01:08.706Z</time>
      </trkpt>
      <trkpt lat="48.11201" lon="11.70713">
        <ele>539.96149</ele>
        <time>2022-09-13T05:01:49.018Z</time>
      </trkpt>
      <trkpt lat="48.11216" lon="11.70636">
        <ele>539.874272</ele>
        <time>2022-09-13T05:02:03.709Z</time>
      </trkpt>
      <trkpt lat="48.11227" lon="11.70581">
        <ele>539.812546</ele>
        <time>2022-09-13T05:02:13.889Z</time>
      </trkpt>
      <trkpt lat="48.11228" lon="11.70577">
        <ele>539.807821</ele>
        <time>2022-09-13T05:02:14.658Z</time>
      </trkpt>
      <trkpt lat="48.11249" lon="11.70473">
        <ele>539.653705</ele>
        <time>2022-09-13T05:02:33.844Z</time>
      </trkpt>
      <trkpt lat="48.11251" lon="11.70463">
        <ele>539.635165</ele>
        <time>2022-09-13T05:02:35.683Z</time>
      </trkpt>
      <trkpt lat="48.11253" lon="11.70454">
        <ele>539.617488</ele>
        <time>2022-09-13T05:02:37.410Z</time>
      </trkpt>
      <trkpt lat="48.11282" lon="11.7032">
        <ele>539.363231</ele>
        <time>2022-09-13T05:03:02.055Z</time>
      </trkpt>
      <trkpt lat="48.11288" lon="11.70292">
        <ele>539.309256</ele>
        <time>2022-09-13T05:03:07.363Z</time>
      </trkpt>
      <trkpt lat="48.11311" lon="11.70196">
        <ele>539.112519</ele>
        <time>2022-09-13T05:03:26.052Z</time>
      </trkpt>
      <trkpt lat="48.11312" lon="11.70192">
        <ele>539.102307</ele>
        <time>2022-09-13T05:03:26.979Z</time>
      </trkpt>
      <trkpt lat="48.11314" lon="11.70187">
        <ele>539.091386</ele>
        <time>2022-09-13T05:03:27.979Z</time>
      </trkpt>
      <trkpt lat="48.11328" lon="11.70137">
        <ele>538.983876</ele>
        <time>2022-09-13T05:03:37.994Z</time>
      </trkpt>
      <trkpt lat="48.1133" lon="11.70132">
        <ele>538.972734</ele>
        <time>2022-09-13T05:03:39.023Z</time>
      </trkpt>
      <trkpt lat="48.11337" lon="11.70113">
        <ele>538.929444</ele>
        <time>2022-09-13T05:03:43.025Z</time>
      </trkpt>
      <trkpt lat="48.11343" lon="11.70092">
        <ele>538.884196</ele>
        <time>2022-09-13T05:03:46.961Z</time>
      </trkpt>
      <trkpt lat="48.11364" lon="11.70034">
        <ele>538.753237</ele>
        <time>2022-09-13T05:03:58.214Z</time>
      </trkpt>
      <trkpt lat="48.11366" lon="11.70028">
        <ele>538.739249</ele>
        <time>2022-09-13T05:03:59.406Z</time>
      </trkpt>
      <trkpt lat="48.11368" lon="11.70024">
        <ele>538.729406</ele>
        <time>2022-09-13T05:04:00.244Z</time>
      </trkpt>
      <trkpt lat="48.11386" lon="11.69971">
        <ele>538.368272</ele>
        <time>2022-09-13T05:04:09.918Z</time>
      </trkpt>
      <trkpt lat="48.11414" lon="11.69892">
        <ele>537.786863</ele>
        <time>2022-09-13T05:04:24.509Z</time>
      </trkpt>
      <trkpt lat="48.11448" lon="11.69797">
        <ele>537.084076</ele>
        <time>2022-09-13T05:04:41.749Z</time>
      </trkpt>
      <trkpt lat="48.11465" lon="11.69748">
        <ele>536.822583</ele>
        <time>2022-09-13T05:04:50.551Z</time>
      </trkpt>
      <trkpt lat="48.11468" lon="11.69739">
        <ele>536.784932</ele>
        <time>2022-09-13T05:04:52.134Z</time>
      </trkpt>
      <trkpt lat="48.11471" lon="11.69729">
        <ele>536.743638</ele>
        <time>2022-09-13T05:04:53.883Z</time>
      </trkpt>
      <trkpt lat="48.11473" lon="11.69721">
        <ele>536.711809</ele>
        <time>2022-09-13T05:04:55.222Z</time>
      </trkpt>
      <trkpt lat="48.11479" lon="11.69707">
        <ele>536.646128</ele>
        <time>2022-09-13T05:04:58.028Z</time>
      </trkpt>
      <trkpt lat="48.11486" lon="11.69692">
        <ele>536.577549</ele>
        <time>2022-09-13T05:05:01.076Z</time>
      </trkpt>
      <trkpt lat="48.11488" lon="11.69687">
        <ele>536.554158</ele>
        <time>2022-09-13T05:05:02.086Z</time>
      </trkpt>
      <trkpt lat="48.11491" lon="11.69681">
        <ele>536.52288</ele>
        <time>2022-09-13T05:05:03.458Z</time>
      </trkpt>
      <trkpt lat="48.11501" lon="11.69667">
        <ele>536.445296</ele>
        <time>2022-09-13T05:05:06.968Z</time>
      </trkpt>
      <trkpt lat="48.11558" lon="11.69542">
        <ele>535.884036</ele>
        <time>2022-09-13T05:05:33.828Z</time>
      </trkpt>
      <trkpt lat="48.11564" lon="11.6953">
        <ele>535.843281</ele>
        <time>2022-09-13T05:05:36.435Z</time>
      </trkpt>
      <trkpt lat="48.11569" lon="11.69517">
        <ele>535.802984</ele>
        <time>2022-09-13T05:05:39.079Z</time>
      </trkpt>
      <trkpt lat="48.11577" lon="11.69501">
        <ele>535.749253</ele>
        <time>2022-09-13T05:05:42.560Z</time>
      </trkpt>
      <trkpt lat="48.11581" lon="11.69491">
        <ele>535.71724</ele>
        <time>2022-09-13T05:05:44.592Z</time>
      </trkpt>
      <trkpt lat="48.11587" lon="11.69477">
        <ele>535.671345</ele>
        <time>2022-09-13T05:05:47.682Z</time>
      </trkpt>
      <trkpt lat="48.11595" lon="11.69461">
        <ele>535.620066</ele>
        <time>2022-09-13T05:05:51.137Z</time>
      </trkpt>
      <trkpt lat="48.11608" lon="11.69431">
        <ele>535.521116</ele>
        <time>2022-09-13T05:05:57.624Z</time>
      </trkpt>
      <trkpt lat="48.11619" lon="11.69407">
        <ele>535.442527</ele>
        <time>2022-09-13T05:06:02.723Z</time>
      </trkpt>
      <trkpt lat="48.11631" lon="11.69382">
        <ele>535.363273</ele>
        <time>2022-09-13T05:06:07.842Z</time>
      </trkpt>
      <trkpt lat="48.11642" lon="11.69357">
        <ele>535.28178</ele>
        <time>2022-09-13T05:06:13.016Z</time>
      </trkpt>
      <trkpt lat="48.11644" lon="11.69353">
        <ele>535.267452</ele>
        <time>2022-09-13T05:06:13.954Z</time>
      </trkpt>
      <trkpt lat="48.11646" lon="11.69348">
        <ele>535.251324</ele>
        <time>2022-09-13T05:06:14.963Z</time>
      </trkpt>
      <trkpt lat="48.11661" lon="11.69312">
        <ele>535.13448</ele>
        <time>2022-09-13T05:06:22.089Z</time>
      </trkpt>
      <trkpt lat="48.11684" lon="11.69264">
        <ele>534.969333</ele>
        <time>2022-09-13T05:06:31.804Z</time>
      </trkpt>
      <trkpt lat="48.11759" lon="11.69099">
        <ele>534.423143</ele>
        <time>2022-09-13T05:07:07.204Z</time>
      </trkpt>
      <trkpt lat="48.11763" lon="11.69091">
        <ele>534.405667</ele>
        <time>2022-09-13T05:07:08.923Z</time>
      </trkpt>
      <trkpt lat="48.11765" lon="11.69086">
        <ele>534.393864</ele>
        <time>2022-09-13T05:07:10.106Z</time>
      </trkpt>
      <trkpt lat="48.11768" lon="11.69079">
        <ele>534.378994</ele>
        <time>2022-09-13T05:07:11.524Z</time>
      </trkpt>
      <trkpt lat="48.11783" lon="11.69032">
        <ele>534.284008</ele>
        <time>2022-09-13T05:07:20.574Z</time>
      </trkpt>
      <trkpt lat="48.11793" lon="11.68978">
        <ele>534.180302</ele>
        <time>2022-09-13T05:07:30.537Z</time>
      </trkpt>
      <trkpt lat="48.11803" lon="11.68874">
        <ele>533.98654</ele>
        <time>2022-09-13T05:07:49.427Z</time>
      </trkpt>
      <trkpt lat="48.11804" lon="11.68868">
        <ele>533.974629</ele>
        <time>2022-09-13T05:07:50.568Z</time>
      </trkpt>
      <trkpt lat="48.11805" lon="11.68856">
        <ele>533.95224</ele>
        <time>2022-09-13T05:07:52.653Z</time>
      </trkpt>
      <trkpt lat="48.11805" lon="11.6885">
        <ele>533.932986</ele>
        <time>2022-09-13T05:07:53.735Z</time>
      </trkpt>
      <trkpt lat="48.11821" lon="11.6869">
        <ele>533.418833</ele>
        <time>2022-09-13T05:08:21.697Z</time>
      </trkpt>
      <trkpt lat="48.11834" lon="11.68566">
        <ele>532.998697</ele>
        <time>2022-09-13T05:08:43.093Z</time>
      </trkpt>
      <trkpt lat="48.11852" lon="11.68389">
        <ele>532.272939</ele>
        <time>2022-09-13T05:09:13.537Z</time>
      </trkpt>
      <trkpt lat="48.11857" lon="11.68373">
        <ele>532.201457</ele>
        <time>2022-09-13T05:09:16.417Z</time>
      </trkpt>
      <trkpt lat="48.11858" lon="11.6836">
        <ele>532.148554</ele>
        <time>2022-09-13T05:09:18.588Z</time>
      </trkpt>
      <trkpt lat="48.1186" lon="11.68346">
        <ele>532.09074</ele>
        <time>2022-09-13T05:09:20.968Z</time>
      </trkpt>
      <trkpt lat="48.11872" lon="11.68274">
        <ele>531.929564</ele>
        <time>2022-09-13T05:09:33.341Z</time>
      </trkpt>
      <trkpt lat="48.119" lon="11.68121">
        <ele>531.701647</ele>
        <time>2022-09-13T05:10:01.721Z</time>
      </trkpt>
      <trkpt lat="48.11935" lon="11.67932">
        <ele>531.752139</ele>
        <time>2022-09-13T05:10:39.530Z</time>
      </trkpt>
      <trkpt lat="48.11937" lon="11.67914">
        <ele>531.770549</ele>
        <time>2022-09-13T05:10:43.276Z</time>
      </trkpt>
      <trkpt lat="48.11945" lon="11.67846">
        <ele>531.837169</ele>
        <time>2022-09-13T05:10:56.409Z</time>
      </trkpt>
      <trkpt lat="48.11947" lon="11.67832">
        <ele>531.850265</ele>
        <time>2022-09-13T05:10:58.850Z</time>
      </trkpt>
      <trkpt lat="48.11953" lon="11.67762">
        <ele>531.839048</ele>
        <time>2022-09-13T05:11:11.933Z</time>
      </trkpt>
      <trkpt lat="48.11957" lon="11.67698">
        <ele>531.777625</ele>
        <time>2022-09-13T05:11:23.975Z</time>
      </trkpt>
      <trkpt lat="48.11957" lon="11.67683">
        <ele>531.762843</ele>
        <time>2022-09-13T05:11:26.938Z</time>
      </trkpt>
      <trkpt lat="48.11958" lon="11.67667">
        <ele>531.747302</ele>
        <time>2022-09-13T05:11:29.918Z</time>
      </trkpt>
      <trkpt lat="48.11959" lon="11.67658">
        <ele>531.738422</ele>
        <time>2022-09-13T05:11:31.639Z</time>
      </trkpt>
      <trkpt lat="48.11959" lon="11.67652">
        <ele>531.732338</ele>
        <time>2022-09-13T05:11:32.825Z</time>
      </trkpt>
      <trkpt lat="48.1196" lon="11.67611">
        <ele>531.693026</ele>
        <time>2022-09-13T05:11:39.904Z</time>
      </trkpt>
      <trkpt lat="48.11959" lon="11.67545">
        <ele>531.629935</ele>
        <time>2022-09-13T05:11:51.071Z</time>
      </trkpt>
      <trkpt lat="48.11958" lon="11.67433">
        <ele>531.542048</ele>
        <time>2022-09-13T05:12:11.307Z</time>
      </trkpt>
      <trkpt lat="48.11958" lon="11.67384">
        <ele>531.505046</ele>
        <time>2022-09-13T05:12:20.698Z</time>
      </trkpt>
      <trkpt lat="48.11958" lon="11.67368">
        <ele>531.493092</ele>
        <time>2022-09-13T05:12:23.829Z</time>
      </trkpt>
      <trkpt lat="48.11959" lon="11.67324">
        <ele>531.459047</ele>
        <time>2022-09-13T05:12:32.549Z</time>
      </trkpt>
      <trkpt lat="48.11971" lon="11.67152">
        <ele>531.140856</ele>
        <time>2022-09-13T05:13:02.666Z</time>
      </trkpt>
      <trkpt lat="48.11973" lon="11.67144">
        <ele>531.120625</ele>
        <time>2022-09-13T05:13:04.162Z</time>
      </trkpt>
      <trkpt lat="48.11974" lon="11.67136">
        <ele>531.102237</ele>
        <time>2022-09-13T05:13:05.569Z</time>
      </trkpt>
      <trkpt lat="48.11975" lon="11.67117">
        <ele>531.056093</ele>
        <time>2022-09-13T05:13:08.976Z</time>
      </trkpt>
      <trkpt lat="48.11977" lon="11.67107">
        <ele>531.031352</ele>
        <time>2022-09-13T05:13:10.726Z</time>
      </trkpt>
      <trkpt lat="48.11996" lon="11.66987">
        <ele>530.708196</ele>
        <time>2022-09-13T05:13:32.447Z</time>
      </trkpt>
      <trkpt lat="48.11998" lon="11.66979">
        <ele>530.670493</ele>
        <time>2022-09-13T05:13:33.963Z</time>
      </trkpt>
      <trkpt lat="48.12014" lon="11.66907">
        <ele>530.340278</ele>
        <time>2022-09-13T05:13:46.514Z</time>
      </trkpt>
      <trkpt lat="48.12028" lon="11.66854">
        <ele>530.090402</ele>
        <time>2022-09-13T05:13:55.856Z</time>
      </trkpt>
      <trkpt lat="48.12033" lon="11.66838">
        <ele>530.014138</ele>
        <time>2022-09-13T05:13:58.719Z</time>
      </trkpt>
      <trkpt lat="48.12059" lon="11.66757">
        <ele>529.623426</ele>
        <time>2022-09-13T05:14:14.003Z</time>
      </trkpt>
      <trkpt lat="48.12063" lon="11.66747">
        <ele>529.576837</ele>
        <time>2022-09-13T05:14:16.085Z</time>
      </trkpt>
      <trkpt lat="48.12067" lon="11.66734">
        <ele>529.532008</ele>
        <time>2022-09-13T05:14:18.518Z</time>
      </trkpt>
      <trkpt lat="48.12097" lon="11.66639">
        <ele>529.197231</ele>
        <time>2022-09-13T05:14:36.834Z</time>
      </trkpt>
      <trkpt lat="48.12146" lon="11.66497">
        <ele>528.69383</ele>
        <time>2022-09-13T05:15:04.210Z</time>
      </trkpt>
      <trkpt lat="48.12151" lon="11.66488">
        <ele>528.658885</ele>
        <time>2022-09-13T05:15:06.352Z</time>
      </trkpt>
      <trkpt lat="48.12153" lon="11.66475">
        <ele>528.621226</ele>
        <time>2022-09-13T05:15:08.595Z</time>
      </trkpt>
      <trkpt lat="48.12173" lon="11.66416">
        <ele>528.432867</ele>
        <time>2022-09-13T05:15:19.920Z</time>
      </trkpt>
      <trkpt lat="48.1219" lon="11.66366">
        <ele>528.271633</ele>
        <time>2022-09-13T05:15:29.549Z</time>
      </trkpt>
      <trkpt lat="48.12216" lon="11.66292">
        <ele>528.032933</ele>
        <time>2022-09-13T05:15:44.132Z</time>
      </trkpt>
      <trkpt lat="48.1223" lon="11.66252">
        <ele>527.946571</ele>
        <time>2022-09-13T05:15:52.137Z</time>
      </trkpt>
      <trkpt lat="48.12238" lon="11.66228">
        <ele>527.925184</ele>
        <time>2022-09-13T05:15:56.717Z</time>
      </trkpt>
      <trkpt lat="48.12245" lon="11.66207">
        <ele>527.906165</ele>
        <time>2022-09-13T05:16:00.739Z</time>
      </trkpt>
      <trkpt lat="48.12247" lon="11.66201">
        <ele>527.900232</ele>
        <time>2022-09-13T05:16:02.013Z</time>
      </trkpt>
      <trkpt lat="48.12252" lon="11.66188">
        <ele>527.888093</ele>
        <time>2022-09-13T05:16:04.668Z</time>
      </trkpt>
      <trkpt lat="48.12273" lon="11.66125">
        <ele>527.831182</ele>
        <time>2022-09-13T05:16:17.509Z</time>
      </trkpt>
      <trkpt lat="48.12349" lon="11.65902">
        <ele>527.8815</ele>
        <time>2022-09-13T05:17:04.733Z</time>
      </trkpt>
      <trkpt lat="48.1238" lon="11.65815">
        <ele>527.97359</ele>
        <time>2022-09-13T05:17:23.402Z</time>
      </trkpt>
      <trkpt lat="48.12385" lon="11.658">
        <ele>527.990019</ele>
        <time>2022-09-13T05:17:26.571Z</time>
      </trkpt>
      <trkpt lat="48.12389" lon="11.65789">
        <ele>528.003968</ele>
        <time>2022-09-13T05:17:28.726Z</time>
      </trkpt>
      <trkpt lat="48.12455" lon="11.65586">
        <ele>528.38383</ele>
        <time>2022-09-13T05:18:12.481Z</time>
      </trkpt>
      <trkpt lat="48.12463" lon="11.65556">
        <ele>528.43722</ele>
        <time>2022-09-13T05:18:18.650Z</time>
      </trkpt>
      <trkpt lat="48.12473" lon="11.65519">
        <ele>528.492007</ele>
        <time>2022-09-13T05:18:26.627Z</time>
      </trkpt>
      <trkpt lat="48.12478" lon="11.655">
        <ele>528.518319</ele>
        <time>2022-09-13T05:18:30.607Z</time>
      </trkpt>
      <trkpt lat="48.12482" lon="11.65482">
        <ele>528.543259</ele>
        <time>2022-09-13T05:18:34.571Z</time>
      </trkpt>
      <trkpt lat="48.12491" lon="11.65444">
        <ele>528.596542</ele>
        <time>2022-09-13T05:18:42.554Z</time>
      </trkpt>
      <trkpt lat="48.12496" lon="11.6544">
        <ele>528.607137</ele>
        <time>2022-09-13T05:18:44.233Z</time>
      </trkpt>
      <trkpt lat="48.12498" lon="11.6543">
        <ele>528.62</ele>
        <time>2022-09-13T05:18:46.085Z</time>
      </trkpt>
      <trkpt lat="48.125" lon="11.65417">
        <ele>528.637344</ele>
        <time>2022-09-13T05:18:48.501Z</time>
      </trkpt>
      <trkpt lat="48.12501" lon="11.65395">
        <ele>528.666495</ele>
        <time>2022-09-13T05:18:52.727Z</time>
      </trkpt>
      <trkpt lat="48.12506" lon="11.65348">
        <ele>528.72818</ele>
        <time>2022-09-13T05:19:01.810Z</time>
      </trkpt>
      <trkpt lat="48.12509" lon="11.6533">
        <ele>528.751739</ele>
        <time>2022-09-13T05:19:05.427Z</time>
      </trkpt>
      <trkpt lat="48.12529" lon="11.65192">
        <ele>528.645368</ele>
        <time>2022-09-13T05:19:30.535Z</time>
      </trkpt>
      <trkpt lat="48.12553" lon="11.65007">
        <ele>528.384087</ele>
        <time>2022-09-13T05:20:03.879Z</time>
      </trkpt>
      <trkpt lat="48.12554" lon="11.64998">
        <ele>528.378405</ele>
        <time>2022-09-13T05:20:05.587Z</time>
      </trkpt>
      <trkpt lat="48.12556" lon="11.64987">
        <ele>528.372045</ele>
        <time>2022-09-13T05:20:07.491Z</time>
      </trkpt>
      <trkpt lat="48.12556" lon="11.64981">
        <ele>528.368515</ele>
        <time>2022-09-13T05:20:08.580Z</time>
      </trkpt>
      <trkpt lat="48.12562" lon="11.64934">
        <ele>528.339917</ele>
        <time>2022-09-13T05:20:17.423Z</time>
      </trkpt>
      <trkpt lat="48.12567" lon="11.64888">
        <ele>528.312288</ele>
        <time>2022-09-13T05:20:26.056Z</time>
      </trkpt>
      <trkpt lat="48.12568" lon="11.64876">
        <ele>528.304499</ele>
        <time>2022-09-13T05:20:28.549Z</time>
      </trkpt>
      <trkpt lat="48.12571" lon="11.64854">
        <ele>528.291695</ele>
        <time>2022-09-13T05:20:32.565Z</time>
      </trkpt>
      <trkpt lat="48.12574" lon="11.6483">
        <ele>528.276893</ele>
        <time>2022-09-13T05:20:37.151Z</time>
      </trkpt>
      <trkpt lat="48.12572" lon="11.64821">
        <ele>528.271179</ele>
        <time>2022-09-13T05:20:38.887Z</time>
      </trkpt>
      <trkpt lat="48.12577" lon="11.64778">
        <ele>528.245149</ele>
        <time>2022-09-13T05:20:46.451Z</time>
      </trkpt>
      <trkpt lat="48.12583" lon="11.64763">
        <ele>528.238509</ele>
        <time>2022-09-13T05:20:49.566Z</time>
      </trkpt>
      <trkpt lat="48.1259" lon="11.64717">
        <ele>528.255373</ele>
        <time>2022-09-13T05:20:57.808Z</time>
      </trkpt>
      <trkpt lat="48.126" lon="11.64643">
        <ele>528.282085</ele>
        <time>2022-09-13T05:21:11.415Z</time>
      </trkpt>
      <trkpt lat="48.12606" lon="11.64593">
        <ele>528.300281</ele>
        <time>2022-09-13T05:21:20.872Z</time>
      </trkpt>
      <trkpt lat="48.12604" lon="11.6457">
        <ele>528.308222</ele>
        <time>2022-09-13T05:21:25.099Z</time>
      </trkpt>
      <trkpt lat="48.12617" lon="11.64506">
        <ele>528.331984</ele>
        <time>2022-09-13T05:21:37.994Z</time>
      </trkpt>
      <trkpt lat="48.1262" lon="11.64488">
        <ele>528.346809</ele>
        <time>2022-09-13T05:21:41.601Z</time>
      </trkpt>
      <trkpt lat="48.12622" lon="11.64475">
        <ele>528.357658</ele>
        <time>2022-09-13T05:21:43.914Z</time>
      </trkpt>
      <trkpt lat="48.12629" lon="11.64418">
        <ele>528.406229</ele>
        <time>2022-09-13T05:21:54.412Z</time>
      </trkpt>
      <trkpt lat="48.12641" lon="11.64328">
        <ele>528.482378</ele>
        <time>2022-09-13T05:22:11.520Z</time>
      </trkpt>
      <trkpt lat="48.12648" lon="11.64275">
        <ele>528.527429</ele>
        <time>2022-09-13T05:22:22.163Z</time>
      </trkpt>
      <trkpt lat="48.12656" lon="11.642">
        <ele>528.570722</ele>
        <time>2022-09-13T05:22:36.968Z</time>
      </trkpt>
      <trkpt lat="48.12656" lon="11.64196">
        <ele>528.572161</ele>
        <time>2022-09-13T05:22:37.795Z</time>
      </trkpt>
      <trkpt lat="48.12665" lon="11.6405">
        <ele>528.619334</ele>
        <time>2022-09-13T05:23:04.580Z</time>
      </trkpt>
      <trkpt lat="48.12679" lon="11.63844">
        <ele>528.758005</ele>
        <time>2022-09-13T05:23:43.699Z</time>
      </trkpt>
      <trkpt lat="48.12681" lon="11.63826">
        <ele>528.774044</ele>
        <time>2022-09-13T05:23:47.138Z</time>
      </trkpt>
      <trkpt lat="48.12682" lon="11.63812">
        <ele>528.786583</ele>
        <time>2022-09-13T05:23:49.856Z</time>
      </trkpt>
      <trkpt lat="48.12693" lon="11.63751">
        <ele>528.84155</ele>
        <time>2022-09-13T05:24:01.888Z</time>
      </trkpt>
      <trkpt lat="48.12708" lon="11.63672">
        <ele>528.874415</ele>
        <time>2022-09-13T05:24:17.929Z</time>
      </trkpt>
      <trkpt lat="48.12717" lon="11.63621">
        <ele>528.863192</ele>
        <time>2022-09-13T05:24:27.903Z</time>
      </trkpt>
      <trkpt lat="48.12726" lon="11.63572">
        <ele>528.852545</ele>
        <time>2022-09-13T05:24:37.181Z</time>
      </trkpt>
      <trkpt lat="48.1273" lon="11.63556">
        <ele>528.848937</ele>
        <time>2022-09-13T05:24:40.369Z</time>
      </trkpt>
      <trkpt lat="48.12745" lon="11.63485">
        <ele>528.833255</ele>
        <time>2022-09-13T05:24:53.695Z</time>
      </trkpt>
      <trkpt lat="48.12751" lon="11.63455">
        <ele>528.826482</ele>
        <time>2022-09-13T05:24:59.528Z</time>
      </trkpt>
      <trkpt lat="48.12755" lon="11.63426">
        <ele>528.845115</ele>
        <time>2022-09-13T05:25:04.721Z</time>
      </trkpt>
      <trkpt lat="48.12773" lon="11.63342">
        <ele>528.920344</ele>
        <time>2022-09-13T05:25:20.220Z</time>
      </trkpt>
      <trkpt lat="48.12776" lon="11.63328">
        <ele>528.933043</ele>
        <time>2022-09-13T05:25:22.836Z</time>
      </trkpt>
      <trkpt lat="48.12796" lon="11.63245">
        <ele>529.008453</ele>
        <time>2022-09-13T05:25:39.445Z</time>
      </trkpt>
      <trkpt lat="48.12816" lon="11.63167">
        <ele>529.353456</ele>
        <time>2022-09-13T05:25:56.874Z</time>
      </trkpt>
      <trkpt lat="48.1282" lon="11.63153">
        <ele>529.521443</ele>
        <time>2022-09-13T05:26:00.428Z</time>
      </trkpt>
      <trkpt lat="48.12827" lon="11.63125">
        <ele>529.8488</ele>
        <time>2022-09-13T05:26:07.485Z</time>
      </trkpt>
      <trkpt lat="48.12836" lon="11.6309">
        <ele>530.254448</ele>
        <time>2022-09-13T05:26:16.123Z</time>
      </trkpt>
      <trkpt lat="48.12841" lon="11.63073">
        <ele>530.455127</ele>
        <time>2022-09-13T05:26:20.246Z</time>
      </trkpt>
      <trkpt lat="48.12846" lon="11.63054">
        <ele>530.672068</ele>
        <time>2022-09-13T05:26:24.750Z</time>
      </trkpt>
      <trkpt lat="48.12848" lon="11.63043">
        <ele>530.793851</ele>
        <time>2022-09-13T05:26:27.447Z</time>
      </trkpt>
      <trkpt lat="48.12851" lon="11.63031">
        <ele>530.933046</ele>
        <time>2022-09-13T05:26:30.471Z</time>
      </trkpt>
      <trkpt lat="48.12878" lon="11.62929">
        <ele>532.129171</ele>
        <time>2022-09-13T05:26:58.193Z</time>
      </trkpt>
      <trkpt lat="48.12887" lon="11.6289">
        <ele>532.609443</ele>
        <time>2022-09-13T05:27:10.090Z</time>
      </trkpt>
      <trkpt lat="48.12893" lon="11.62866">
        <ele>532.907996</ele>
        <time>2022-09-13T05:27:17.263Z</time>
      </trkpt>
      <trkpt lat="48.12915" lon="11.62762">
        <ele>534.185338</ele>
        <time>2022-09-13T05:27:46.146Z</time>
      </trkpt>
      <trkpt lat="48.12927" lon="11.62678">
        <ele>535.078304</ele>
        <time>2022-09-13T05:28:03.195Z</time>
      </trkpt>
      <trkpt lat="48.12931" lon="11.62654">
        <ele>534.961222</ele>
        <time>2022-09-13T05:28:07.355Z</time>
      </trkpt>
      <trkpt lat="48.12932" lon="11.62647">
        <ele>534.929842</ele>
        <time>2022-09-13T05:28:08.562Z</time>
      </trkpt>
      <trkpt lat="48.12946" lon="11.62555">
        <ele>534.487966</ele>
        <time>2022-09-13T05:28:25.142Z</time>
      </trkpt>
      <trkpt lat="48.1295" lon="11.62531">
        <ele>534.37137</ele>
        <time>2022-09-13T05:28:29.460Z</time>
      </trkpt>
      <trkpt lat="48.12951" lon="11.62523">
        <ele>534.334381</ele>
        <time>2022-09-13T05:28:30.860Z</time>
      </trkpt>
      <trkpt lat="48.12956" lon="11.6249">
        <ele>534.176536</ele>
        <time>2022-09-13T05:28:36.396Z</time>
      </trkpt>
      <trkpt lat="48.12965" lon="11.62431">
        <ele>533.892205</ele>
        <time>2022-09-13T05:28:45.663Z</time>
      </trkpt>
      <trkpt lat="48.12979" lon="11.62337">
        <ele>533.527555</ele>
        <time>2022-09-13T05:28:59.877Z</time>
      </trkpt>
      <trkpt lat="48.12983" lon="11.62312">
        <ele>533.433183</ele>
        <time>2022-09-13T05:29:03.806Z</time>
      </trkpt>
      <trkpt lat="48.12985" lon="11.62301">
        <ele>533.390691</ele>
        <time>2022-09-13T05:29:05.624Z</time>
      </trkpt>
      <trkpt lat="48.12987" lon="11.62289">
        <ele>533.344705</ele>
        <time>2022-09-13T05:29:07.635Z</time>
      </trkpt>
      <trkpt lat="48.12988" lon="11.62277">
        <ele>533.300046</ele>
        <time>2022-09-13T05:29:09.592Z</time>
      </trkpt>
      <trkpt lat="48.1299" lon="11.62268">
        <ele>533.267785</ele>
        <time>2022-09-13T05:29:11.195Z</time>
      </trkpt>
      <trkpt lat="48.13006" lon="11.62168">
        <ele>532.885717</ele>
        <time>2022-09-13T05:29:32.731Z</time>
      </trkpt>
      <trkpt lat="48.13018" lon="11.62097">
        <ele>533.092404</ele>
        <time>2022-09-13T05:29:48.174Z</time>
      </trkpt>
      <trkpt lat="48.13025" lon="11.62058">
        <ele>533.241756</ele>
        <time>2022-09-13T05:29:56.409Z</time>
      </trkpt>
      <trkpt lat="48.13026" lon="11.62053">
        <ele>533.263678</ele>
        <time>2022-09-13T05:29:57.561Z</time>
      </trkpt>
      <trkpt lat="48.13027" lon="11.62046">
        <ele>533.288005</ele>
        <time>2022-09-13T05:29:58.799Z</time>
      </trkpt>
      <trkpt lat="48.13029" lon="11.62037">
        <ele>533.324229</ele>
        <time>2022-09-13T05:30:00.705Z</time>
      </trkpt>
      <trkpt lat="48.13035" lon="11.62001">
        <ele>533.462657</ele>
        <time>2022-09-13T05:30:08.223Z</time>
      </trkpt>
      <trkpt lat="48.13048" lon="11.61925">
        <ele>533.754535</ele>
        <time>2022-09-13T05:30:24.139Z</time>
      </trkpt>
      <trkpt lat="48.13056" lon="11.61881">
        <ele>533.842119</ele>
        <time>2022-09-13T05:30:33.341Z</time>
      </trkpt>
      <trkpt lat="48.13063" lon="11.61838">
        <ele>533.81027</ele>
        <time>2022-09-13T05:30:42.214Z</time>
      </trkpt>
      <trkpt lat="48.13073" lon="11.61785">
        <ele>533.77065</ele>
        <time>2022-09-13T05:30:52.249Z</time>
      </trkpt>
      <trkpt lat="48.13085" lon="11.61719">
        <ele>533.721195</ele>
        <time>2022-09-13T05:31:04.016Z</time>
      </trkpt>
      <trkpt lat="48.13087" lon="11.61707">
        <ele>533.712045</ele>
        <time>2022-09-13T05:31:06.189Z</time>
      </trkpt>
      <trkpt lat="48.13089" lon="11.61697">
        <ele>533.704678</ele>
        <time>2022-09-13T05:31:07.941Z</time>
      </trkpt>
      <trkpt lat="48.13106" lon="11.616">
        <ele>533.555587</ele>
        <time>2022-09-13T05:31:25.487Z</time>
      </trkpt>
      <trkpt lat="48.13107" lon="11.61593">
        <ele>533.535417</ele>
        <time>2022-09-13T05:31:26.668Z</time>
      </trkpt>
      <trkpt lat="48.13107" lon="11.6159">
        <ele>533.528636</ele>
        <time>2022-09-13T05:31:27.095Z</time>
      </trkpt>
      <trkpt lat="48.13111" lon="11.61565">
        <ele>533.459579</ele>
        <time>2022-09-13T05:31:31.694Z</time>
      </trkpt>
      <trkpt lat="48.13112" lon="11.61559">
        <ele>533.44264</ele>
        <time>2022-09-13T05:31:32.795Z</time>
      </trkpt>
      <trkpt lat="48.13112" lon="11.6155">
        <ele>533.419412</ele>
        <time>2022-09-13T05:31:34.176Z</time>
      </trkpt>
      <trkpt lat="48.13116" lon="11.61531">
        <ele>533.367672</ele>
        <time>2022-09-13T05:31:37.497Z</time>
      </trkpt>
      <trkpt lat="48.13117" lon="11.61523">
        <ele>533.344717</ele>
        <time>2022-09-13T05:31:39.083Z</time>
      </trkpt>
      <trkpt lat="48.13129" lon="11.61454">
        <ele>533.154265</ele>
        <time>2022-09-13T05:31:51.924Z</time>
      </trkpt>
      <trkpt lat="48.13134" lon="11.61425">
        <ele>533.075044</ele>
        <time>2022-09-13T05:31:56.880Z</time>
      </trkpt>
      <trkpt lat="48.13136" lon="11.61414">
        <ele>533.043835</ele>
        <time>2022-09-13T05:31:59.021Z</time>
      </trkpt>
      <trkpt lat="48.13136" lon="11.6141">
        <ele>533.033312</ele>
        <time>2022-09-13T05:31:59.742Z</time>
      </trkpt>
      <trkpt lat="48.13138" lon="11.61399">
        <ele>533.002818</ele>
        <time>2022-09-13T05:32:01.642Z</time>
      </trkpt>
      <trkpt lat="48.1314" lon="11.61386">
        <ele>532.967198</ele>
        <time>2022-09-13T05:32:03.655Z</time>
      </trkpt>
      <trkpt lat="48.1314" lon="11.61384">
        <ele>532.962063</ele>
        <time>2022-09-13T05:32:03.955Z</time>
      </trkpt>
      <trkpt lat="48.13152" lon="11.61304">
        <ele>532.830064</ele>
        <time>2022-09-13T05:32:17.673Z</time>
      </trkpt>
      <trkpt lat="48.13161" lon="11.61246">
        <ele>532.738999</ele>
        <time>2022-09-13T05:32:28.610Z</time>
      </trkpt>
      <trkpt lat="48.13177" lon="11.61192">
        <ele>532.650592</ele>
        <time>2022-09-13T05:32:39.346Z</time>
      </trkpt>
      <trkpt lat="48.13215" lon="11.61108">
        <ele>532.530131</ele>
        <time>2022-09-13T05:32:58.609Z</time>
      </trkpt>
      <trkpt lat="48.1325" lon="11.61039">
        <ele>532.51336</ele>
        <time>2022-09-13T05:33:14.502Z</time>
      </trkpt>
      <trkpt lat="48.13256" lon="11.61037">
        <ele>532.511671</ele>
        <time>2022-09-13T05:33:15.947Z</time>
      </trkpt>
      <trkpt lat="48.13258" lon="11.61025">
        <ele>532.509346</ele>
        <time>2022-09-13T05:33:17.872Z</time>
      </trkpt>
      <trkpt lat="48.13259" lon="11.61017">
        <ele>532.507775</ele>
        <time>2022-09-13T05:33:19.384Z</time>
      </trkpt>
      <trkpt lat="48.1326" lon="11.61012">
        <ele>532.506745</ele>
        <time>2022-09-13T05:33:20.368Z</time>
      </trkpt>
      <trkpt lat="48.13261" lon="11.61007">
        <ele>532.505633</ele>
        <time>2022-09-13T05:33:21.427Z</time>
      </trkpt>
      <trkpt lat="48.13261" lon="11.60998">
        <ele>532.504052</ele>
        <time>2022-09-13T05:33:22.892Z</time>
      </trkpt>
      <trkpt lat="48.13261" lon="11.60987">
        <ele>532.501864</ele>
        <time>2022-09-13T05:33:24.879Z</time>
      </trkpt>
      <trkpt lat="48.13256" lon="11.60985">
        <ele>532.500404</ele>
        <time>2022-09-13T05:33:26.100Z</time>
      </trkpt>
      <trkpt lat="48.13275" lon="11.60883">
        <ele>532.472469</ele>
        <time>2022-09-13T05:33:45.335Z</time>
      </trkpt>
      <trkpt lat="48.13279" lon="11.60861">
        <ele>532.457447</ele>
        <time>2022-09-13T05:33:49.420Z</time>
      </trkpt>
      <trkpt lat="48.13279" lon="11.60859">
        <ele>532.455814</ele>
        <time>2022-09-13T05:33:49.874Z</time>
      </trkpt>
      <trkpt lat="48.13295" lon="11.60766">
        <ele>532.392827</ele>
        <time>2022-09-13T05:34:06.099Z</time>
      </trkpt>
      <trkpt lat="48.13298" lon="11.60745">
        <ele>532.378225</ele>
        <time>2022-09-13T05:34:09.955Z</time>
      </trkpt>
      <trkpt lat="48.13301" lon="11.60711">
        <ele>532.35564</ele>
        <time>2022-09-13T05:34:15.865Z</time>
      </trkpt>
      <trkpt lat="48.13314" lon="11.60519">
        <ele>532.304114</ele>
        <time>2022-09-13T05:34:50.289Z</time>
      </trkpt>
      <trkpt lat="48.13313" lon="11.60505">
        <ele>532.303994</ele>
        <time>2022-09-13T05:34:52.843Z</time>
      </trkpt>
      <trkpt lat="48.13314" lon="11.60491">
        <ele>532.303877</ele>
        <time>2022-09-13T05:34:55.383Z</time>
      </trkpt>
      <trkpt lat="48.13321" lon="11.60415">
        <ele>532.303214</ele>
        <time>2022-09-13T05:35:10.478Z</time>
      </trkpt>
      <trkpt lat="48.13373" lon="11.60189">
        <ele>531.663081</ele>
        <time>2022-09-13T05:35:49.127Z</time>
      </trkpt>
      <trkpt lat="48.13367" lon="11.60178">
        <ele>531.617662</ele>
        <time>2022-09-13T05:35:51.207Z</time>
      </trkpt>
      <trkpt lat="48.13329" lon="11.60158">
        <ele>531.415328</ele>
        <time>2022-09-13T05:36:00.833Z</time>
      </trkpt>
      <trkpt lat="48.133" lon="11.60094">
        <ele>531.306245</ele>
        <time>2022-09-13T05:36:14.238Z</time>
      </trkpt>
      <trkpt lat="48.13294" lon="11.60082">
        <ele>531.286919</ele>
        <time>2022-09-13T05:36:17.080Z</time>
      </trkpt>
      <trkpt lat="48.13263" lon="11.60014">
        <ele>531.184027</ele>
        <time>2022-09-13T05:36:31.452Z</time>
      </trkpt>
      <trkpt lat="48.13243" lon="11.59969">
        <ele>531.116228</ele>
        <time>2022-09-13T05:36:40.728Z</time>
      </trkpt>
      <trkpt lat="48.13239" lon="11.59957">
        <ele>531.099666</ele>
        <time>2022-09-13T05:36:42.911Z</time>
      </trkpt>
      <trkpt lat="48.13234" lon="11.59908">
        <ele>531.066174</ele>
        <time>2022-09-13T05:36:51.739Z</time>
      </trkpt>
      <trkpt lat="48.13232" lon="11.59809">
        <ele>531.114055</ele>
        <time>2022-09-13T05:37:09.036Z</time>
      </trkpt>
      <trkpt lat="48.13231" lon="11.59777">
        <ele>531.129983</ele>
        <time>2022-09-13T05:37:15.216Z</time>
      </trkpt>
      <trkpt lat="48.13231" lon="11.5976">
        <ele>531.138141</ele>
        <time>2022-09-13T05:37:18.366Z</time>
      </trkpt>
      <trkpt lat="48.13231" lon="11.59751">
        <ele>531.142413</ele>
        <time>2022-09-13T05:37:19.991Z</time>
      </trkpt>
      <trkpt lat="48.13229" lon="11.59647">
        <ele>531.218691</ele>
        <time>2022-09-13T05:37:39.445Z</time>
      </trkpt>
      <trkpt lat="48.13229" lon="11.59637">
        <ele>531.254529</ele>
        <time>2022-09-13T05:37:41.014Z</time>
      </trkpt>
      <trkpt lat="48.13228" lon="11.59458">
        <ele>531.910912</ele>
        <time>2022-09-13T05:38:14.743Z</time>
      </trkpt>
      <trkpt lat="48.13228" lon="11.5945">
        <ele>531.940165</ele>
        <time>2022-09-13T05:38:16.973Z</time>
      </trkpt>
      <trkpt lat="48.13228" lon="11.59417">
        <ele>532.061564</ele>
        <time>2022-09-13T05:38:26.100Z</time>
      </trkpt>
      <trkpt lat="48.13228" lon="11.5936">
        <ele>532.051323</ele>
        <time>2022-09-13T05:38:42.937Z</time>
      </trkpt>
      <trkpt lat="48.13228" lon="11.59353">
        <ele>532.017841</ele>
        <time>2022-09-13T05:38:45.163Z</time>
      </trkpt>
      <trkpt lat="48.13228" lon="11.59342">
        <ele>531.967848</ele>
        <time>2022-09-13T05:38:47.715Z</time>
      </trkpt>
      <trkpt lat="48.13227" lon="11.59328">
        <ele>531.903697</ele>
        <time>2022-09-13T05:38:50.302Z</time>
      </trkpt>
      <trkpt lat="48.13224" lon="11.59126">
        <ele>530.94742</ele>
        <time>2022-09-13T05:39:21.230Z</time>
      </trkpt>
      <trkpt lat="48.13225" lon="11.59071">
        <ele>529.825072</ele>
        <time>2022-09-13T05:39:28.758Z</time>
      </trkpt>
      <trkpt lat="48.1323" lon="11.59058">
        <ele>529.453197</ele>
        <time>2022-09-13T05:39:30.806Z</time>
      </trkpt>
      <trkpt lat="48.13234" lon="11.5905">
        <ele>529.226439</ele>
        <time>2022-09-13T05:39:32.059Z</time>
      </trkpt>
      <trkpt lat="48.1324" lon="11.59039">
        <ele>528.905111</ele>
        <time>2022-09-13T05:39:33.864Z</time>
      </trkpt>
      <trkpt lat="48.1324" lon="11.59032">
        <ele>528.72879</ele>
        <time>2022-09-13T05:39:34.825Z</time>
      </trkpt>
      <trkpt lat="48.13208" lon="11.58989">
        <ele>527.187485</ele>
        <time>2022-09-13T05:39:43.108Z</time>
      </trkpt>
      <trkpt lat="48.13184" lon="11.58949">
        <ele>525.925243</ele>
        <time>2022-09-13T05:39:49.664Z</time>
      </trkpt>
      <trkpt lat="48.13177" lon="11.58924">
        <ele>525.2812</ele>
        <time>2022-09-13T05:39:53.066Z</time>
      </trkpt>
      <trkpt lat="48.13171" lon="11.58846">
        <ele>523.587368</ele>
        <time>2022-09-13T05:40:03.214Z</time>
      </trkpt>
      <trkpt lat="48.13166" lon="11.58768">
        <ele>521.994838</ele>
        <time>2022-09-13T05:40:13.870Z</time>
      </trkpt>
      <trkpt lat="48.13166" lon="11.58755">
        <ele>521.72959</ele>
        <time>2022-09-13T05:40:15.734Z</time>
      </trkpt>
      <trkpt lat="48.13166" lon="11.58747">
        <ele>521.569414</ele>
        <time>2022-09-13T05:40:16.876Z</time>
      </trkpt>
      <trkpt lat="48.13183" lon="11.58659">
        <ele>519.722175</ele>
        <time>2022-09-13T05:40:29.199Z</time>
      </trkpt>
      <trkpt lat="48.13186" lon="11.58642">
        <ele>519.366928</ele>
        <time>2022-09-13T05:40:31.690Z</time>
      </trkpt>
      <trkpt lat="48.1319" lon="11.58631">
        <ele>519.11417</ele>
        <time>2022-09-13T05:40:33.460Z</time>
      </trkpt>
      <trkpt lat="48.132" lon="11.58597">
        <ele>518.968895</ele>
        <time>2022-09-13T05:40:38.947Z</time>
      </trkpt>
      <trkpt lat="48.13203" lon="11.58587">
        <ele>518.935966</ele>
        <time>2022-09-13T05:40:40.597Z</time>
      </trkpt>
      <trkpt lat="48.13204" lon="11.58585">
        <ele>518.928373</ele>
        <time>2022-09-13T05:40:40.989Z</time>
      </trkpt>
      <trkpt lat="48.13228" lon="11.5853">
        <ele>518.737138</ele>
        <time>2022-09-13T05:40:51.335Z</time>
      </trkpt>
      <trkpt lat="48.13237" lon="11.58513">
        <ele>518.67458</ele>
        <time>2022-09-13T05:40:54.944Z</time>
      </trkpt>
      <trkpt lat="48.13243" lon="11.58501">
        <ele>518.629134</ele>
        <time>2022-09-13T05:40:57.664Z</time>
      </trkpt>
      <trkpt lat="48.13249" lon="11.58487">
        <ele>518.579922</ele>
        <time>2022-09-13T05:41:00.702Z</time>
      </trkpt>
      <trkpt lat="48.13299" lon="11.58384">
        <ele>518.285914</ele>
        <time>2022-09-13T05:41:25.232Z</time>
      </trkpt>
      <trkpt lat="48.13312" lon="11.58359">
        <ele>518.292433</ele>
        <time>2022-09-13T05:41:31.220Z</time>
      </trkpt>
      <trkpt lat="48.13326" lon="11.58348">
        <ele>518.297433</ele>
        <time>2022-09-13T05:41:35.566Z</time>
      </trkpt>
      <trkpt lat="48.13331" lon="11.58344">
        <ele>518.29922</ele>
        <time>2022-09-13T05:41:37.118Z</time>
      </trkpt>
      <trkpt lat="48.13347" lon="11.58332">
        <ele>518.304797</ele>
        <time>2022-09-13T05:41:41.923Z</time>
      </trkpt>
      <trkpt lat="48.13368" lon="11.58315">
        <ele>518.312382</ele>
        <time>2022-09-13T05:41:48.371Z</time>
      </trkpt>
      <trkpt lat="48.13385" lon="11.58303">
        <ele>518.318156</ele>
        <time>2022-09-13T05:41:53.039Z</time>
      </trkpt>
      <trkpt lat="48.13393" lon="11.58291">
        <ele>518.321605</ele>
        <time>2022-09-13T05:41:55.702Z</time>
      </trkpt>
      <trkpt lat="48.13403" lon="11.58284">
        <ele>518.325086</ele>
        <time>2022-09-13T05:41:58.589Z</time>
      </trkpt>
      <trkpt lat="48.13404" lon="11.58283">
        <ele>518.325507</ele>
        <time>2022-09-13T05:41:58.927Z</time>
      </trkpt>
      <trkpt lat="48.13423" lon="11.58271">
        <ele>518.331948</ele>
        <time>2022-09-13T05:42:04.071Z</time>
      </trkpt>
      <trkpt lat="48.13444" lon="11.58257">
        <ele>518.383718</ele>
        <time>2022-09-13T05:42:10.075Z</time>
      </trkpt>
      <trkpt lat="48.13483" lon="11.58239">
        <ele>518.627982</ele>
        <time>2022-09-13T05:42:21.145Z</time>
      </trkpt>
      <trkpt lat="48.1349" lon="11.58237">
        <ele>518.673379</ele>
        <time>2022-09-13T05:42:23.291Z</time>
      </trkpt>
      <trkpt lat="48.13505" lon="11.58227">
        <ele>518.772455</ele>
        <time>2022-09-13T05:42:28.236Z</time>
      </trkpt>
      <trkpt lat="48.13511" lon="11.58223">
        <ele>518.811791</ele>
        <time>2022-09-13T05:42:30.077Z</time>
      </trkpt>
      <trkpt lat="48.13524" lon="11.58205">
        <ele>518.917421</ele>
        <time>2022-09-13T05:42:35.263Z</time>
      </trkpt>
      <trkpt lat="48.13532" lon="11.58188">
        <ele>519.004752</ele>
        <time>2022-09-13T05:42:39.652Z</time>
      </trkpt>
      <trkpt lat="48.13536" lon="11.58153">
        <ele>519.146576</ele>
        <time>2022-09-13T05:42:46.889Z</time>
      </trkpt>
      <trkpt lat="48.13538" lon="11.58135">
        <ele>519.220758</ele>
        <time>2022-09-13T05:42:50.776Z</time>
      </trkpt>
      <trkpt lat="48.13541" lon="11.58129">
        <ele>519.248582</ele>
        <time>2022-09-13T05:42:52.186Z</time>
      </trkpt>
      <trkpt lat="48.13566" lon="11.58053">
        <ele>519.693809</ele>
        <time>2022-09-13T05:43:10.968Z</time>
      </trkpt>
      <trkpt lat="48.13578" lon="11.5802">
        <ele>519.93398</ele>
        <time>2022-09-13T05:43:18.799Z</time>
      </trkpt>
      <trkpt lat="48.13588" lon="11.5798">
        <ele>520.213003</ele>
        <time>2022-09-13T05:43:28.009Z</time>
      </trkpt>
      <trkpt lat="48.13596" lon="11.57952">
        <ele>520.413789</ele>
        <time>2022-09-13T05:43:34.922Z</time>
      </trkpt>
      <trkpt lat="48.13604" lon="11.5792">
        <ele>520.634992</ele>
        <time>2022-09-13T05:43:42.125Z</time>
      </trkpt>
      <trkpt lat="48.13606" lon="11.57908">
        <ele>520.71736</ele>
        <time>2022-09-13T05:43:44.826Z</time>
      </trkpt>
      <trkpt lat="48.13613" lon="11.57857">
        <ele>521.053367</ele>
        <time>2022-09-13T05:43:55.238Z</time>
      </trkpt>
      <trkpt lat="48.1362" lon="11.57823">
        <ele>521.182019</ele>
        <time>2022-09-13T05:44:02.187Z</time>
      </trkpt>
      <trkpt lat="48.13626" lon="11.57795">
        <ele>521.182019</ele>
        <time>2022-09-13T05:44:07.838Z</time>
      </trkpt>
      <trkpt lat="48.13629" lon="11.57786">
        <ele>521.182019</ele>
        <time>2022-09-13T05:44:09.528Z</time>
      </trkpt>
      <trkpt lat="48.13644" lon="11.57745">
        <ele>521.182019</ele>
        <time>2022-09-13T05:44:18.238Z</time>
      </trkpt>
      <trkpt lat="48.13659" lon="11.5772">
        <ele>521.182019</ele>
        <time>2022-09-13T05:44:24.408Z</time>
      </trkpt>
      <trkpt lat="48.13665" lon="11.57711">
        <ele>521.182019</ele>
        <time>2022-09-13T05:44:29.919Z</time>
      </trkpt>
      <trkpt lat="48.13684" lon="11.5768">
        <ele>521.182019</ele>
        <time>2022-09-13T05:44:37.062Z</time>
      </trkpt>
      <trkpt lat="48.13689" lon="11.57673">
        <ele>521.182019</ele>
        <time>2022-09-13T05:44:39.341Z</time>
      </trkpt>
      <trkpt lat="48.137" lon="11.57647">
        <ele>521.182019</ele>
        <time>2022-09-13T05:44:46.340Z</time>
      </trkpt>
      <trkpt lat="48.13706" lon="11.57624">
        <ele>521.182019</ele>
        <time>2022-09-13T05:44:52.134Z</time>
      </trkpt>
      <trkpt lat="48.1371" lon="11.57627">
        <ele>521.182019</ele>
        <time>2022-09-13T05:44:53.661Z</time>
      </trkpt>
    </trkseg>
  </trk>
</gpx>